<?xml version="1.0" encoding="UTF-8" standalone="no" ?><gpx xmlns="http://www.topografix.com/GPX/1/1" xmlns:gpxx="http://www.garmin.com/xmlschemas/GpxExtensions/v3" xmlns:wptx1="http://www.garmin.com/xmlschemas/WaypointExtension/v1" xmlns:gpxtpx="http://www.garmin.com/xmlschemas/TrackPointExtension/v1" creator="GuideVTT.com" version="1.1" xmlns:xsi="http://www.w3.org/2001/XMLSchema-instance" xsi:schemaLocation="http://www.topografix.com/GPX/1/1 http://www.topografix.com/GPX/1/1/gpx.xsd http://www.garmin.com/xmlschemas/GpxExtensions/v3 http://www8.garmin.com/xmlschemas/GpxExtensionsv3.xsd http://www.garmin.com/xmlschemas/WaypointExtension/v1 http://www8.garmin.com/xmlschemas/WaypointExtensionv1.xsd http://www.garmin.com/xmlschemas/TrackPointExtension/v1 http://www.garmin.com/xmlschemas/TrackPointExtensionv1.xsd">
<metadata><link href="http://www.garmin.com"><text>Garmin International</text></link><time>2013-06-22T15:13:50Z</time></metadata>
<trk><name>cyclemeter-mountaincycle-20160505-1100.gpx</name><extensions><gpxx:TrackExtension><gpxx:DisplayColor>Cyan</gpxx:DisplayColor></gpxx:TrackExtension></extensions><trkseg>
<trkpt lat="46.1695717" lon="7.2429717"><ele></ele><time>2016-5-22T6:0:27Z</time></trkpt>
<trkpt lat="46.1695717" lon="7.2429717"><ele></ele><time>2016-5-22T6:0:30Z</time></trkpt>
<trkpt lat="46.1696017" lon="7.2430083"><ele></ele><time>2016-5-22T6:0:33Z</time></trkpt>
<trkpt lat="46.1696117" lon="7.2430283"><ele></ele><time>2016-5-22T6:0:36Z</time></trkpt>
<trkpt lat="46.1696150" lon="7.2430383"><ele></ele><time>2016-5-22T6:0:39Z</time></trkpt>
<trkpt lat="46.1696183" lon="7.2430400"><ele></ele><time>2016-5-22T6:0:42Z</time></trkpt>
<trkpt lat="46.1696183" lon="7.2430400"><ele></ele><time>2016-5-22T6:0:45Z</time></trkpt>
<trkpt lat="46.1696183" lon="7.2430400"><ele></ele><time>2016-5-22T6:0:48Z</time></trkpt>
<trkpt lat="46.1696183" lon="7.2430400"><ele></ele><time>2016-5-22T6:0:51Z</time></trkpt>
<trkpt lat="46.1696267" lon="7.2430300"><ele></ele><time>2016-5-22T6:0:54Z</time></trkpt>
<trkpt lat="46.1696267" lon="7.2430300"><ele></ele><time>2016-5-22T6:0:57Z</time></trkpt>
<trkpt lat="46.1696267" lon="7.2430300"><ele></ele><time>2016-5-22T6:1:0Z</time></trkpt>
<trkpt lat="46.1696267" lon="7.2430300"><ele></ele><time>2016-5-22T6:1:3Z</time></trkpt>
<trkpt lat="46.1696267" lon="7.2430300"><ele></ele><time>2016-5-22T6:1:6Z</time></trkpt>
<trkpt lat="46.1696267" lon="7.2430300"><ele></ele><time>2016-5-22T6:1:9Z</time></trkpt>
<trkpt lat="46.1696267" lon="7.2430300"><ele></ele><time>2016-5-22T6:1:12Z</time></trkpt>
<trkpt lat="46.1696267" lon="7.2430300"><ele></ele><time>2016-5-22T6:1:15Z</time></trkpt>
<trkpt lat="46.1696267" lon="7.2430300"><ele></ele><time>2016-5-22T6:1:18Z</time></trkpt>
<trkpt lat="46.1696267" lon="7.2430300"><ele></ele><time>2016-5-22T6:1:21Z</time></trkpt>
<trkpt lat="46.1696267" lon="7.2430300"><ele></ele><time>2016-5-22T6:1:24Z</time></trkpt>
<trkpt lat="46.1696267" lon="7.2430300"><ele></ele><time>2016-5-22T6:1:27Z</time></trkpt>
<trkpt lat="46.1696267" lon="7.2430300"><ele></ele><time>2016-5-22T6:1:30Z</time></trkpt>
<trkpt lat="46.1696267" lon="7.2430300"><ele></ele><time>2016-5-22T6:1:33Z</time></trkpt>
<trkpt lat="46.1696267" lon="7.2430300"><ele></ele><time>2016-5-22T6:1:36Z</time></trkpt>
<trkpt lat="46.1696267" lon="7.2430300"><ele></ele><time>2016-5-22T6:1:39Z</time></trkpt>
<trkpt lat="46.1696267" lon="7.2430300"><ele></ele><time>2016-5-22T6:1:42Z</time></trkpt>
<trkpt lat="46.1696267" lon="7.2430300"><ele></ele><time>2016-5-22T6:1:45Z</time></trkpt>
<trkpt lat="46.1696267" lon="7.2430300"><ele></ele><time>2016-5-22T6:1:48Z</time></trkpt>
<trkpt lat="46.1696267" lon="7.2430300"><ele></ele><time>2016-5-22T6:1:51Z</time></trkpt>
<trkpt lat="46.1696267" lon="7.2430300"><ele></ele><time>2016-5-22T6:1:54Z</time></trkpt>
<trkpt lat="46.1696267" lon="7.2430300"><ele></ele><time>2016-5-22T6:1:57Z</time></trkpt>
<trkpt lat="46.1696267" lon="7.2430300"><ele></ele><time>2016-5-22T6:2:0Z</time></trkpt>
<trkpt lat="46.1696267" lon="7.2430300"><ele></ele><time>2016-5-22T6:2:3Z</time></trkpt>
<trkpt lat="46.1696267" lon="7.2430300"><ele></ele><time>2016-5-22T6:2:6Z</time></trkpt>
<trkpt lat="46.1696267" lon="7.2430300"><ele></ele><time>2016-5-22T6:2:9Z</time></trkpt>
<trkpt lat="46.1696267" lon="7.2430300"><ele></ele><time>2016-5-22T6:2:12Z</time></trkpt>
<trkpt lat="46.1696267" lon="7.2430300"><ele></ele><time>2016-5-22T6:2:15Z</time></trkpt>
<trkpt lat="46.1696267" lon="7.2430300"><ele></ele><time>2016-5-22T6:2:18Z</time></trkpt>
<trkpt lat="46.1696267" lon="7.2430300"><ele></ele><time>2016-5-22T6:2:21Z</time></trkpt>
<trkpt lat="46.1696267" lon="7.2430300"><ele></ele><time>2016-5-22T6:2:24Z</time></trkpt>
<trkpt lat="46.1696267" lon="7.2430300"><ele></ele><time>2016-5-22T6:2:27Z</time></trkpt>
<trkpt lat="46.1696267" lon="7.2430300"><ele></ele><time>2016-5-22T6:2:30Z</time></trkpt>
<trkpt lat="46.1696267" lon="7.2430300"><ele></ele><time>2016-5-22T6:2:33Z</time></trkpt>
<trkpt lat="46.1696267" lon="7.2430300"><ele></ele><time>2016-5-22T6:2:36Z</time></trkpt>
<trkpt lat="46.1696267" lon="7.2430300"><ele></ele><time>2016-5-22T6:2:39Z</time></trkpt>
<trkpt lat="46.1696267" lon="7.2430300"><ele></ele><time>2016-5-22T6:2:42Z</time></trkpt>
<trkpt lat="46.1696267" lon="7.2430300"><ele></ele><time>2016-5-22T6:2:45Z</time></trkpt>
<trkpt lat="46.1696267" lon="7.2430300"><ele></ele><time>2016-5-22T6:2:48Z</time></trkpt>
<trkpt lat="46.1696267" lon="7.2430300"><ele></ele><time>2016-5-22T6:2:51Z</time></trkpt>
<trkpt lat="46.1696267" lon="7.2430300"><ele></ele><time>2016-5-22T6:2:54Z</time></trkpt>
<trkpt lat="46.1696267" lon="7.2430300"><ele></ele><time>2016-5-22T6:2:57Z</time></trkpt>
<trkpt lat="46.1696267" lon="7.2430300"><ele></ele><time>2016-5-22T6:3:0Z</time></trkpt>
<trkpt lat="46.1696267" lon="7.2430300"><ele></ele><time>2016-5-22T6:3:3Z</time></trkpt>
<trkpt lat="46.1696267" lon="7.2430300"><ele></ele><time>2016-5-22T6:3:6Z</time></trkpt>
<trkpt lat="46.1696267" lon="7.2430300"><ele></ele><time>2016-5-22T6:3:9Z</time></trkpt>
<trkpt lat="46.1696267" lon="7.2430300"><ele></ele><time>2016-5-22T6:3:12Z</time></trkpt>
<trkpt lat="46.1696267" lon="7.2430300"><ele></ele><time>2016-5-22T6:3:15Z</time></trkpt>
<trkpt lat="46.1696267" lon="7.2430300"><ele></ele><time>2016-5-22T6:3:18Z</time></trkpt>
<trkpt lat="46.1696267" lon="7.2430300"><ele></ele><time>2016-5-22T6:3:21Z</time></trkpt>
<trkpt lat="46.1696267" lon="7.2430300"><ele></ele><time>2016-5-22T6:3:24Z</time></trkpt>
<trkpt lat="46.1696267" lon="7.2430300"><ele></ele><time>2016-5-22T6:3:27Z</time></trkpt>
<trkpt lat="46.1696267" lon="7.2430300"><ele></ele><time>2016-5-22T6:3:30Z</time></trkpt>
<trkpt lat="46.1696267" lon="7.2430300"><ele></ele><time>2016-5-22T6:3:33Z</time></trkpt>
<trkpt lat="46.1696267" lon="7.2430300"><ele></ele><time>2016-5-22T6:3:36Z</time></trkpt>
<trkpt lat="46.1696267" lon="7.2430300"><ele></ele><time>2016-5-22T6:3:39Z</time></trkpt>
<trkpt lat="46.1696267" lon="7.2430300"><ele></ele><time>2016-5-22T6:3:42Z</time></trkpt>
<trkpt lat="46.1696267" lon="7.2430300"><ele></ele><time>2016-5-22T6:3:45Z</time></trkpt>
<trkpt lat="46.1696267" lon="7.2430300"><ele></ele><time>2016-5-22T6:3:48Z</time></trkpt>
<trkpt lat="46.1696267" lon="7.2430300"><ele></ele><time>2016-5-22T6:3:51Z</time></trkpt>
<trkpt lat="46.1696267" lon="7.2430300"><ele></ele><time>2016-5-22T6:3:54Z</time></trkpt>
<trkpt lat="46.1696267" lon="7.2430300"><ele></ele><time>2016-5-22T6:3:57Z</time></trkpt>
<trkpt lat="46.1696267" lon="7.2430300"><ele></ele><time>2016-5-22T6:4:0Z</time></trkpt>
<trkpt lat="46.1696267" lon="7.2430300"><ele></ele><time>2016-5-22T6:4:3Z</time></trkpt>
<trkpt lat="46.1696267" lon="7.2430300"><ele></ele><time>2016-5-22T6:4:6Z</time></trkpt>
<trkpt lat="46.1696267" lon="7.2430300"><ele></ele><time>2016-5-22T6:4:9Z</time></trkpt>
<trkpt lat="46.1696267" lon="7.2430300"><ele></ele><time>2016-5-22T6:4:12Z</time></trkpt>
<trkpt lat="46.1696267" lon="7.2430300"><ele></ele><time>2016-5-22T6:4:15Z</time></trkpt>
<trkpt lat="46.1696267" lon="7.2430300"><ele></ele><time>2016-5-22T6:4:18Z</time></trkpt>
<trkpt lat="46.1696267" lon="7.2430300"><ele></ele><time>2016-5-22T6:4:21Z</time></trkpt>
<trkpt lat="46.1696267" lon="7.2430300"><ele></ele><time>2016-5-22T6:4:24Z</time></trkpt>
<trkpt lat="46.1696267" lon="7.2430300"><ele></ele><time>2016-5-22T6:4:27Z</time></trkpt>
<trkpt lat="46.1696267" lon="7.2430300"><ele></ele><time>2016-5-22T6:4:30Z</time></trkpt>
<trkpt lat="46.1696267" lon="7.2430300"><ele></ele><time>2016-5-22T6:4:33Z</time></trkpt>
<trkpt lat="46.1696267" lon="7.2430300"><ele></ele><time>2016-5-22T6:4:36Z</time></trkpt>
<trkpt lat="46.1696267" lon="7.2430300"><ele></ele><time>2016-5-22T6:4:39Z</time></trkpt>
<trkpt lat="46.1696267" lon="7.2430300"><ele></ele><time>2016-5-22T6:4:42Z</time></trkpt>
<trkpt lat="46.1696267" lon="7.2430300"><ele></ele><time>2016-5-22T6:4:45Z</time></trkpt>
<trkpt lat="46.1696267" lon="7.2430300"><ele></ele><time>2016-5-22T6:4:48Z</time></trkpt>
<trkpt lat="46.1696267" lon="7.2430300"><ele></ele><time>2016-5-22T6:4:51Z</time></trkpt>
<trkpt lat="46.1696267" lon="7.2430300"><ele></ele><time>2016-5-22T6:4:54Z</time></trkpt>
<trkpt lat="46.1696267" lon="7.2430300"><ele></ele><time>2016-5-22T6:4:57Z</time></trkpt>
<trkpt lat="46.1696267" lon="7.2430300"><ele></ele><time>2016-5-22T6:5:0Z</time></trkpt>
<trkpt lat="46.1696267" lon="7.2430300"><ele></ele><time>2016-5-22T6:5:3Z</time></trkpt>
<trkpt lat="46.1696267" lon="7.2430300"><ele></ele><time>2016-5-22T6:5:6Z</time></trkpt>
<trkpt lat="46.1696217" lon="7.2430033"><ele></ele><time>2016-5-22T6:5:9Z</time></trkpt>
<trkpt lat="46.1696167" lon="7.2430000"><ele></ele><time>2016-5-22T6:5:12Z</time></trkpt>
<trkpt lat="46.1696100" lon="7.2430033"><ele></ele><time>2016-5-22T6:5:15Z</time></trkpt>
<trkpt lat="46.1696067" lon="7.2430083"><ele></ele><time>2016-5-22T6:5:18Z</time></trkpt>
<trkpt lat="46.1696033" lon="7.2430183"><ele></ele><time>2016-5-22T6:5:21Z</time></trkpt>
<trkpt lat="46.1696033" lon="7.2430183"><ele></ele><time>2016-5-22T6:5:24Z</time></trkpt>
<trkpt lat="46.1696033" lon="7.2430183"><ele></ele><time>2016-5-22T6:5:27Z</time></trkpt>
<trkpt lat="46.1696033" lon="7.2430183"><ele></ele><time>2016-5-22T6:5:30Z</time></trkpt>
<trkpt lat="46.1696033" lon="7.2430183"><ele></ele><time>2016-5-22T6:5:33Z</time></trkpt>
<trkpt lat="46.1696033" lon="7.2430183"><ele></ele><time>2016-5-22T6:5:36Z</time></trkpt>
<trkpt lat="46.1696033" lon="7.2430183"><ele></ele><time>2016-5-22T6:5:39Z</time></trkpt>
<trkpt lat="46.1696033" lon="7.2430183"><ele></ele><time>2016-5-22T6:5:42Z</time></trkpt>
<trkpt lat="46.1696033" lon="7.2430183"><ele></ele><time>2016-5-22T6:5:45Z</time></trkpt>
<trkpt lat="46.1696033" lon="7.2430183"><ele></ele><time>2016-5-22T6:5:48Z</time></trkpt>
<trkpt lat="46.1696033" lon="7.2430183"><ele></ele><time>2016-5-22T6:5:51Z</time></trkpt>
<trkpt lat="46.1696033" lon="7.2430183"><ele></ele><time>2016-5-22T6:5:54Z</time></trkpt>
<trkpt lat="46.1696033" lon="7.2430183"><ele></ele><time>2016-5-22T6:5:57Z</time></trkpt>
<trkpt lat="46.1696033" lon="7.2430183"><ele></ele><time>2016-5-22T6:6:0Z</time></trkpt>
<trkpt lat="46.1696033" lon="7.2430183"><ele></ele><time>2016-5-22T6:6:3Z</time></trkpt>
<trkpt lat="46.1696033" lon="7.2430183"><ele></ele><time>2016-5-22T6:6:6Z</time></trkpt>
<trkpt lat="46.1696033" lon="7.2430183"><ele></ele><time>2016-5-22T6:6:9Z</time></trkpt>
<trkpt lat="46.1696033" lon="7.2430183"><ele></ele><time>2016-5-22T6:6:12Z</time></trkpt>
<trkpt lat="46.1696033" lon="7.2430183"><ele></ele><time>2016-5-22T6:6:15Z</time></trkpt>
<trkpt lat="46.1696033" lon="7.2430183"><ele></ele><time>2016-5-22T6:6:18Z</time></trkpt>
<trkpt lat="46.1696033" lon="7.2430183"><ele></ele><time>2016-5-22T6:6:21Z</time></trkpt>
<trkpt lat="46.1696033" lon="7.2430183"><ele></ele><time>2016-5-22T6:6:24Z</time></trkpt>
<trkpt lat="46.1696033" lon="7.2430183"><ele></ele><time>2016-5-22T6:6:27Z</time></trkpt>
<trkpt lat="46.1696033" lon="7.2430183"><ele></ele><time>2016-5-22T6:6:30Z</time></trkpt>
<trkpt lat="46.1696033" lon="7.2430183"><ele></ele><time>2016-5-22T6:6:33Z</time></trkpt>
<trkpt lat="46.1696033" lon="7.2430183"><ele></ele><time>2016-5-22T6:6:36Z</time></trkpt>
<trkpt lat="46.1696033" lon="7.2430183"><ele></ele><time>2016-5-22T6:6:39Z</time></trkpt>
<trkpt lat="46.1696033" lon="7.2430183"><ele></ele><time>2016-5-22T6:6:42Z</time></trkpt>
<trkpt lat="46.1696033" lon="7.2430183"><ele></ele><time>2016-5-22T6:6:45Z</time></trkpt>
<trkpt lat="46.1696033" lon="7.2430183"><ele></ele><time>2016-5-22T6:6:48Z</time></trkpt>
<trkpt lat="46.1696033" lon="7.2430183"><ele></ele><time>2016-5-22T6:6:51Z</time></trkpt>
<trkpt lat="46.1696033" lon="7.2430183"><ele></ele><time>2016-5-22T6:6:54Z</time></trkpt>
<trkpt lat="46.1696033" lon="7.2430183"><ele></ele><time>2016-5-22T6:6:57Z</time></trkpt>
<trkpt lat="46.1696033" lon="7.2430183"><ele></ele><time>2016-5-22T6:7:0Z</time></trkpt>
<trkpt lat="46.1696033" lon="7.2430183"><ele></ele><time>2016-5-22T6:7:3Z</time></trkpt>
<trkpt lat="46.1696033" lon="7.2430183"><ele></ele><time>2016-5-22T6:7:6Z</time></trkpt>
<trkpt lat="46.1696033" lon="7.2430183"><ele></ele><time>2016-5-22T6:7:9Z</time></trkpt>
<trkpt lat="46.1696033" lon="7.2430183"><ele></ele><time>2016-5-22T6:7:12Z</time></trkpt>
<trkpt lat="46.1696033" lon="7.2430183"><ele></ele><time>2016-5-22T6:7:15Z</time></trkpt>
<trkpt lat="46.1696033" lon="7.2430183"><ele></ele><time>2016-5-22T6:7:18Z</time></trkpt>
<trkpt lat="46.1696033" lon="7.2430183"><ele></ele><time>2016-5-22T6:7:21Z</time></trkpt>
<trkpt lat="46.1696033" lon="7.2430183"><ele></ele><time>2016-5-22T6:7:24Z</time></trkpt>
<trkpt lat="46.1696033" lon="7.2430183"><ele></ele><time>2016-5-22T6:7:27Z</time></trkpt>
<trkpt lat="46.1696033" lon="7.2430183"><ele></ele><time>2016-5-22T6:7:30Z</time></trkpt>
<trkpt lat="46.1696033" lon="7.2430183"><ele></ele><time>2016-5-22T6:7:33Z</time></trkpt>
<trkpt lat="46.1696033" lon="7.2430183"><ele></ele><time>2016-5-22T6:7:36Z</time></trkpt>
<trkpt lat="46.1696033" lon="7.2430183"><ele></ele><time>2016-5-22T6:7:39Z</time></trkpt>
<trkpt lat="46.1696033" lon="7.2430183"><ele></ele><time>2016-5-22T6:7:42Z</time></trkpt>
<trkpt lat="46.1696033" lon="7.2430183"><ele></ele><time>2016-5-22T6:7:45Z</time></trkpt>
<trkpt lat="46.1696033" lon="7.2430183"><ele></ele><time>2016-5-22T6:7:48Z</time></trkpt>
<trkpt lat="46.1696033" lon="7.2430183"><ele></ele><time>2016-5-22T6:7:51Z</time></trkpt>
<trkpt lat="46.1696000" lon="7.2430317"><ele></ele><time>2016-5-22T6:7:54Z</time></trkpt>
<trkpt lat="46.1695950" lon="7.2430467"><ele></ele><time>2016-5-22T6:7:57Z</time></trkpt>
<trkpt lat="46.1695900" lon="7.2430667"><ele></ele><time>2016-5-22T6:8:0Z</time></trkpt>
<trkpt lat="46.1695867" lon="7.2430883"><ele></ele><time>2016-5-22T6:8:3Z</time></trkpt>
<trkpt lat="46.1695850" lon="7.2431050"><ele></ele><time>2016-5-22T6:8:6Z</time></trkpt>
<trkpt lat="46.1695867" lon="7.2431200"><ele></ele><time>2016-5-22T6:8:9Z</time></trkpt>
<trkpt lat="46.1695950" lon="7.2431383"><ele></ele><time>2016-5-22T6:8:12Z</time></trkpt>
<trkpt lat="46.1696083" lon="7.2431550"><ele></ele><time>2016-5-22T6:8:15Z</time></trkpt>
<trkpt lat="46.1696267" lon="7.2431650"><ele></ele><time>2016-5-22T6:8:18Z</time></trkpt>
<trkpt lat="46.1696517" lon="7.2431650"><ele></ele><time>2016-5-22T6:8:21Z</time></trkpt>
<trkpt lat="46.1696783" lon="7.2431483"><ele></ele><time>2016-5-22T6:8:24Z</time></trkpt>
<trkpt lat="46.1697000" lon="7.2431200"><ele></ele><time>2016-5-22T6:8:27Z</time></trkpt>
<trkpt lat="46.1697000" lon="7.2431200"><ele></ele><time>2016-5-22T6:8:30Z</time></trkpt>
<trkpt lat="46.1697200" lon="7.2430867"><ele></ele><time>2016-5-22T6:8:33Z</time></trkpt>
<trkpt lat="46.1697367" lon="7.2430483"><ele></ele><time>2016-5-22T6:8:36Z</time></trkpt>
<trkpt lat="46.1697567" lon="7.2430100"><ele></ele><time>2016-5-22T6:8:39Z</time></trkpt>
<trkpt lat="46.1697783" lon="7.2429733"><ele></ele><time>2016-5-22T6:8:42Z</time></trkpt>
<trkpt lat="46.1698033" lon="7.2429333"><ele></ele><time>2016-5-22T6:8:45Z</time></trkpt>
<trkpt lat="46.1698333" lon="7.2429000"><ele></ele><time>2016-5-22T6:8:48Z</time></trkpt>
<trkpt lat="46.1698650" lon="7.2428817"><ele></ele><time>2016-5-22T6:8:51Z</time></trkpt>
<trkpt lat="46.1698967" lon="7.2428767"><ele></ele><time>2016-5-22T6:8:54Z</time></trkpt>
<trkpt lat="46.1699267" lon="7.2428800"><ele></ele><time>2016-5-22T6:8:57Z</time></trkpt>
<trkpt lat="46.1699567" lon="7.2428917"><ele></ele><time>2016-5-22T6:9:0Z</time></trkpt>
<trkpt lat="46.1699883" lon="7.2429100"><ele></ele><time>2016-5-22T6:9:3Z</time></trkpt>
<trkpt lat="46.1700200" lon="7.2429367"><ele></ele><time>2016-5-22T6:9:6Z</time></trkpt>
<trkpt lat="46.1700200" lon="7.2429367"><ele></ele><time>2016-5-22T6:9:9Z</time></trkpt>
<trkpt lat="46.1700500" lon="7.2429700"><ele></ele><time>2016-5-22T6:9:12Z</time></trkpt>
<trkpt lat="46.1700767" lon="7.2430050"><ele></ele><time>2016-5-22T6:9:15Z</time></trkpt>
<trkpt lat="46.1701033" lon="7.2430433"><ele></ele><time>2016-5-22T6:9:18Z</time></trkpt>
<trkpt lat="46.1701317" lon="7.2430883"><ele></ele><time>2016-5-22T6:9:21Z</time></trkpt>
<trkpt lat="46.1701633" lon="7.2431333"><ele></ele><time>2016-5-22T6:9:24Z</time></trkpt>
<trkpt lat="46.1701917" lon="7.2431983"><ele></ele><time>2016-5-22T6:9:27Z</time></trkpt>
<trkpt lat="46.1702200" lon="7.2432683"><ele></ele><time>2016-5-22T6:9:30Z</time></trkpt>
<trkpt lat="46.1702450" lon="7.2433350"><ele></ele><time>2016-5-22T6:9:33Z</time></trkpt>
<trkpt lat="46.1702617" lon="7.2434000"><ele></ele><time>2016-5-22T6:9:36Z</time></trkpt>
<trkpt lat="46.1702783" lon="7.2434867"><ele></ele><time>2016-5-22T6:9:39Z</time></trkpt>
<trkpt lat="46.1702850" lon="7.2435550"><ele></ele><time>2016-5-22T6:9:42Z</time></trkpt>
<trkpt lat="46.1702900" lon="7.2436267"><ele></ele><time>2016-5-22T6:9:45Z</time></trkpt>
<trkpt lat="46.1702900" lon="7.2436267"><ele></ele><time>2016-5-22T6:9:48Z</time></trkpt>
<trkpt lat="46.1702967" lon="7.2437083"><ele></ele><time>2016-5-22T6:9:51Z</time></trkpt>
<trkpt lat="46.1703067" lon="7.2437967"><ele></ele><time>2016-5-22T6:9:54Z</time></trkpt>
<trkpt lat="46.1703050" lon="7.2438783"><ele></ele><time>2016-5-22T6:9:57Z</time></trkpt>
<trkpt lat="46.1703167" lon="7.2439650"><ele></ele><time>2016-5-22T6:10:0Z</time></trkpt>
<trkpt lat="46.1703333" lon="7.2440433"><ele></ele><time>2016-5-22T6:10:3Z</time></trkpt>
<trkpt lat="46.1703617" lon="7.2441183"><ele></ele><time>2016-5-22T6:10:6Z</time></trkpt>
<trkpt lat="46.1703950" lon="7.2442000"><ele></ele><time>2016-5-22T6:10:9Z</time></trkpt>
<trkpt lat="46.1704200" lon="7.2442767"><ele></ele><time>2016-5-22T6:10:12Z</time></trkpt>
<trkpt lat="46.1704183" lon="7.2443683"><ele></ele><time>2016-5-22T6:10:15Z</time></trkpt>
<trkpt lat="46.1704050" lon="7.2444550"><ele></ele><time>2016-5-22T6:10:18Z</time></trkpt>
<trkpt lat="46.1703900" lon="7.2445350"><ele></ele><time>2016-5-22T6:10:21Z</time></trkpt>
<trkpt lat="46.1703667" lon="7.2446233"><ele></ele><time>2016-5-22T6:10:24Z</time></trkpt>
<trkpt lat="46.1703667" lon="7.2446233"><ele></ele><time>2016-5-22T6:10:27Z</time></trkpt>
<trkpt lat="46.1703517" lon="7.2447267"><ele></ele><time>2016-5-22T6:10:30Z</time></trkpt>
<trkpt lat="46.1703583" lon="7.2448317"><ele></ele><time>2016-5-22T6:10:33Z</time></trkpt>
<trkpt lat="46.1703533" lon="7.2449433"><ele></ele><time>2016-5-22T6:10:36Z</time></trkpt>
<trkpt lat="46.1703450" lon="7.2450483"><ele></ele><time>2016-5-22T6:10:39Z</time></trkpt>
<trkpt lat="46.1703183" lon="7.2451517"><ele></ele><time>2016-5-22T6:10:42Z</time></trkpt>
<trkpt lat="46.1702950" lon="7.2452583"><ele></ele><time>2016-5-22T6:10:45Z</time></trkpt>
<trkpt lat="46.1702400" lon="7.2453250"><ele></ele><time>2016-5-22T6:10:48Z</time></trkpt>
<trkpt lat="46.1701950" lon="7.2454100"><ele></ele><time>2016-5-22T6:10:51Z</time></trkpt>
<trkpt lat="46.1701467" lon="7.2454950"><ele></ele><time>2016-5-22T6:10:54Z</time></trkpt>
<trkpt lat="46.1700867" lon="7.2455883"><ele></ele><time>2016-5-22T6:10:57Z</time></trkpt>
<trkpt lat="46.1700400" lon="7.2456783"><ele></ele><time>2016-5-22T6:11:0Z</time></trkpt>
<trkpt lat="46.1700250" lon="7.2457983"><ele></ele><time>2016-5-22T6:11:3Z</time></trkpt>
<trkpt lat="46.1700250" lon="7.2457983"><ele></ele><time>2016-5-22T6:11:6Z</time></trkpt>
<trkpt lat="46.1699950" lon="7.2459117"><ele></ele><time>2016-5-22T6:11:9Z</time></trkpt>
<trkpt lat="46.1699800" lon="7.2460217"><ele></ele><time>2016-5-22T6:11:12Z</time></trkpt>
<trkpt lat="46.1699833" lon="7.2461367"><ele></ele><time>2016-5-22T6:11:15Z</time></trkpt>
<trkpt lat="46.1699900" lon="7.2462467"><ele></ele><time>2016-5-22T6:11:18Z</time></trkpt>
<trkpt lat="46.1700067" lon="7.2463617"><ele></ele><time>2016-5-22T6:11:21Z</time></trkpt>
<trkpt lat="46.1700400" lon="7.2464733"><ele></ele><time>2016-5-22T6:11:24Z</time></trkpt>
<trkpt lat="46.1700933" lon="7.2465817"><ele></ele><time>2016-5-22T6:11:27Z</time></trkpt>
<trkpt lat="46.1701550" lon="7.2466750"><ele></ele><time>2016-5-22T6:11:30Z</time></trkpt>
<trkpt lat="46.1701883" lon="7.2467883"><ele></ele><time>2016-5-22T6:11:33Z</time></trkpt>
<trkpt lat="46.1702167" lon="7.2468983"><ele></ele><time>2016-5-22T6:11:36Z</time></trkpt>
<trkpt lat="46.1702550" lon="7.2470267"><ele></ele><time>2016-5-22T6:11:39Z</time></trkpt>
<trkpt lat="46.1702717" lon="7.2471467"><ele></ele><time>2016-5-22T6:11:42Z</time></trkpt>
<trkpt lat="46.1702717" lon="7.2472617"><ele></ele><time>2016-5-22T6:11:45Z</time></trkpt>
<trkpt lat="46.1702850" lon="7.2473717"><ele></ele><time>2016-5-22T6:11:48Z</time></trkpt>
<trkpt lat="46.1703133" lon="7.2474800"><ele></ele><time>2016-5-22T6:11:51Z</time></trkpt>
<trkpt lat="46.1703417" lon="7.2475867"><ele></ele><time>2016-5-22T6:11:54Z</time></trkpt>
<trkpt lat="46.1703750" lon="7.2476883"><ele></ele><time>2016-5-22T6:11:57Z</time></trkpt>
<trkpt lat="46.1704150" lon="7.2477967"><ele></ele><time>2016-5-22T6:12:0Z</time></trkpt>
<trkpt lat="46.1704367" lon="7.2479083"><ele></ele><time>2016-5-22T6:12:3Z</time></trkpt>
<trkpt lat="46.1704667" lon="7.2480267"><ele></ele><time>2016-5-22T6:12:6Z</time></trkpt>
<trkpt lat="46.1704733" lon="7.2481450"><ele></ele><time>2016-5-22T6:12:9Z</time></trkpt>
<trkpt lat="46.1704900" lon="7.2482600"><ele></ele><time>2016-5-22T6:12:12Z</time></trkpt>
<trkpt lat="46.1705100" lon="7.2483750"><ele></ele><time>2016-5-22T6:12:15Z</time></trkpt>
<trkpt lat="46.1705283" lon="7.2484900"><ele></ele><time>2016-5-22T6:12:18Z</time></trkpt>
<trkpt lat="46.1705483" lon="7.2486033"><ele></ele><time>2016-5-22T6:12:21Z</time></trkpt>
<trkpt lat="46.1705667" lon="7.2487183"><ele></ele><time>2016-5-22T6:12:24Z</time></trkpt>
<trkpt lat="46.1705867" lon="7.2488300"><ele></ele><time>2016-5-22T6:12:27Z</time></trkpt>
<trkpt lat="46.1706000" lon="7.2489417"><ele></ele><time>2016-5-22T6:12:30Z</time></trkpt>
<trkpt lat="46.1707383" lon="7.2497800"><ele></ele><time>2016-5-22T6:12:33Z</time></trkpt>
<trkpt lat="46.1707383" lon="7.2497800"><ele></ele><time>2016-5-22T6:12:36Z</time></trkpt>
<trkpt lat="46.1707383" lon="7.2497800"><ele></ele><time>2016-5-22T6:12:39Z</time></trkpt>
<trkpt lat="46.1707383" lon="7.2497800"><ele></ele><time>2016-5-22T6:12:42Z</time></trkpt>
<trkpt lat="46.1707383" lon="7.2497800"><ele></ele><time>2016-5-22T6:12:45Z</time></trkpt>
<trkpt lat="46.1707383" lon="7.2497800"><ele></ele><time>2016-5-22T6:12:48Z</time></trkpt>
<trkpt lat="46.1707383" lon="7.2497800"><ele></ele><time>2016-5-22T6:12:51Z</time></trkpt>
<trkpt lat="46.1707383" lon="7.2497800"><ele></ele><time>2016-5-22T6:12:54Z</time></trkpt>
<trkpt lat="46.1725883" lon="7.2497967"><ele></ele><time>2016-5-22T6:12:57Z</time></trkpt>
<trkpt lat="46.1725883" lon="7.2497967"><ele></ele><time>2016-5-22T6:13:0Z</time></trkpt>
<trkpt lat="46.1725883" lon="7.2497967"><ele></ele><time>2016-5-22T6:13:3Z</time></trkpt>
<trkpt lat="46.1725883" lon="7.2497967"><ele></ele><time>2016-5-22T6:13:6Z</time></trkpt>
<trkpt lat="46.1725883" lon="7.2497967"><ele></ele><time>2016-5-22T6:13:9Z</time></trkpt>
<trkpt lat="46.1725883" lon="7.2497967"><ele></ele><time>2016-5-22T6:13:12Z</time></trkpt>
<trkpt lat="46.1725883" lon="7.2497967"><ele></ele><time>2016-5-22T6:13:15Z</time></trkpt>
<trkpt lat="46.1725883" lon="7.2497967"><ele></ele><time>2016-5-22T6:13:18Z</time></trkpt>
<trkpt lat="46.1725883" lon="7.2497967"><ele></ele><time>2016-5-22T6:13:21Z</time></trkpt>
<trkpt lat="46.1725883" lon="7.2497967"><ele></ele><time>2016-5-22T6:13:24Z</time></trkpt>
<trkpt lat="46.1725883" lon="7.2497967"><ele></ele><time>2016-5-22T6:13:27Z</time></trkpt>
<trkpt lat="46.1725883" lon="7.2497967"><ele></ele><time>2016-5-22T6:13:30Z</time></trkpt>
<trkpt lat="46.1725883" lon="7.2497967"><ele></ele><time>2016-5-22T6:13:33Z</time></trkpt>
<trkpt lat="46.1725883" lon="7.2497967"><ele></ele><time>2016-5-22T6:13:36Z</time></trkpt>
<trkpt lat="46.1725883" lon="7.2497967"><ele></ele><time>2016-5-22T6:13:39Z</time></trkpt>
<trkpt lat="46.1726267" lon="7.2498467"><ele></ele><time>2016-5-22T6:13:42Z</time></trkpt>
<trkpt lat="46.1726983" lon="7.2497567"><ele></ele><time>2016-5-22T6:13:45Z</time></trkpt>
<trkpt lat="46.1727700" lon="7.2497033"><ele></ele><time>2016-5-22T6:13:48Z</time></trkpt>
<trkpt lat="46.1728467" lon="7.2496950"><ele></ele><time>2016-5-22T6:13:51Z</time></trkpt>
<trkpt lat="46.1729133" lon="7.2496917"><ele></ele><time>2016-5-22T6:13:54Z</time></trkpt>
<trkpt lat="46.1729750" lon="7.2497017"><ele></ele><time>2016-5-22T6:13:57Z</time></trkpt>
<trkpt lat="46.1730533" lon="7.2497150"><ele></ele><time>2016-5-22T6:14:0Z</time></trkpt>
<trkpt lat="46.1731233" lon="7.2496967"><ele></ele><time>2016-5-22T6:14:3Z</time></trkpt>
<trkpt lat="46.1731950" lon="7.2496917"><ele></ele><time>2016-5-22T6:14:6Z</time></trkpt>
<trkpt lat="46.1732567" lon="7.2496817"><ele></ele><time>2016-5-22T6:14:9Z</time></trkpt>
<trkpt lat="46.1733167" lon="7.2497083"><ele></ele><time>2016-5-22T6:14:12Z</time></trkpt>
<trkpt lat="46.1733767" lon="7.2497183"><ele></ele><time>2016-5-22T6:14:15Z</time></trkpt>
<trkpt lat="46.1734333" lon="7.2497267"><ele></ele><time>2016-5-22T6:14:18Z</time></trkpt>
<trkpt lat="46.1734833" lon="7.2497667"><ele></ele><time>2016-5-22T6:14:21Z</time></trkpt>
<trkpt lat="46.1735267" lon="7.2498117"><ele></ele><time>2016-5-22T6:14:24Z</time></trkpt>
<trkpt lat="46.1735633" lon="7.2498667"><ele></ele><time>2016-5-22T6:14:27Z</time></trkpt>
<trkpt lat="46.1736167" lon="7.2499200"><ele></ele><time>2016-5-22T6:14:30Z</time></trkpt>
<trkpt lat="46.1736767" lon="7.2499633"><ele></ele><time>2016-5-22T6:14:33Z</time></trkpt>
<trkpt lat="46.1737383" lon="7.2499717"><ele></ele><time>2016-5-22T6:14:36Z</time></trkpt>
<trkpt lat="46.1738017" lon="7.2499817"><ele></ele><time>2016-5-22T6:14:39Z</time></trkpt>
<trkpt lat="46.1738667" lon="7.2499833"><ele></ele><time>2016-5-22T6:14:42Z</time></trkpt>
<trkpt lat="46.1739300" lon="7.2499667"><ele></ele><time>2016-5-22T6:14:45Z</time></trkpt>
<trkpt lat="46.1739933" lon="7.2499567"><ele></ele><time>2016-5-22T6:14:48Z</time></trkpt>
<trkpt lat="46.1740567" lon="7.2499633"><ele></ele><time>2016-5-22T6:14:51Z</time></trkpt>
<trkpt lat="46.1741250" lon="7.2499767"><ele></ele><time>2016-5-22T6:14:54Z</time></trkpt>
<trkpt lat="46.1741867" lon="7.2500083"><ele></ele><time>2016-5-22T6:14:57Z</time></trkpt>
<trkpt lat="46.1742400" lon="7.2500700"><ele></ele><time>2016-5-22T6:15:0Z</time></trkpt>
<trkpt lat="46.1742900" lon="7.2501100"><ele></ele><time>2016-5-22T6:15:3Z</time></trkpt>
<trkpt lat="46.1743500" lon="7.2501533"><ele></ele><time>2016-5-22T6:15:6Z</time></trkpt>
<trkpt lat="46.1744083" lon="7.2501850"><ele></ele><time>2016-5-22T6:15:9Z</time></trkpt>
<trkpt lat="46.1744600" lon="7.2502250"><ele></ele><time>2016-5-22T6:15:12Z</time></trkpt>
<trkpt lat="46.1745250" lon="7.2502817"><ele></ele><time>2016-5-22T6:15:15Z</time></trkpt>
<trkpt lat="46.1745683" lon="7.2503367"><ele></ele><time>2016-5-22T6:15:18Z</time></trkpt>
<trkpt lat="46.1746033" lon="7.2503983"><ele></ele><time>2016-5-22T6:15:21Z</time></trkpt>
<trkpt lat="46.1746433" lon="7.2504583"><ele></ele><time>2016-5-22T6:15:24Z</time></trkpt>
<trkpt lat="46.1746783" lon="7.2505183"><ele></ele><time>2016-5-22T6:15:27Z</time></trkpt>
<trkpt lat="46.1747083" lon="7.2505817"><ele></ele><time>2016-5-22T6:15:30Z</time></trkpt>
<trkpt lat="46.1747333" lon="7.2506500"><ele></ele><time>2016-5-22T6:15:33Z</time></trkpt>
<trkpt lat="46.1747650" lon="7.2507150"><ele></ele><time>2016-5-22T6:15:36Z</time></trkpt>
<trkpt lat="46.1747967" lon="7.2507850"><ele></ele><time>2016-5-22T6:15:39Z</time></trkpt>
<trkpt lat="46.1748517" lon="7.2508250"><ele></ele><time>2016-5-22T6:15:42Z</time></trkpt>
<trkpt lat="46.1749033" lon="7.2508633"><ele></ele><time>2016-5-22T6:15:45Z</time></trkpt>
<trkpt lat="46.1749467" lon="7.2509267"><ele></ele><time>2016-5-22T6:15:48Z</time></trkpt>
<trkpt lat="46.1749917" lon="7.2509950"><ele></ele><time>2016-5-22T6:15:51Z</time></trkpt>
<trkpt lat="46.1750217" lon="7.2510717"><ele></ele><time>2016-5-22T6:15:54Z</time></trkpt>
<trkpt lat="46.1750533" lon="7.2511550"><ele></ele><time>2016-5-22T6:15:57Z</time></trkpt>
<trkpt lat="46.1750733" lon="7.2512383"><ele></ele><time>2016-5-22T6:16:0Z</time></trkpt>
<trkpt lat="46.1750933" lon="7.2513383"><ele></ele><time>2016-5-22T6:16:3Z</time></trkpt>
<trkpt lat="46.1751067" lon="7.2514300"><ele></ele><time>2016-5-22T6:16:6Z</time></trkpt>
<trkpt lat="46.1751250" lon="7.2515217"><ele></ele><time>2016-5-22T6:16:9Z</time></trkpt>
<trkpt lat="46.1751350" lon="7.2516133"><ele></ele><time>2016-5-22T6:16:12Z</time></trkpt>
<trkpt lat="46.1751550" lon="7.2517017"><ele></ele><time>2016-5-22T6:16:15Z</time></trkpt>
<trkpt lat="46.1751700" lon="7.2517833"><ele></ele><time>2016-5-22T6:16:18Z</time></trkpt>
<trkpt lat="46.1751700" lon="7.2517833"><ele></ele><time>2016-5-22T6:16:21Z</time></trkpt>
<trkpt lat="46.1752050" lon="7.2519667"><ele></ele><time>2016-5-22T6:16:24Z</time></trkpt>
<trkpt lat="46.1752250" lon="7.2520500"><ele></ele><time>2016-5-22T6:16:27Z</time></trkpt>
<trkpt lat="46.1752483" lon="7.2521417"><ele></ele><time>2016-5-22T6:16:30Z</time></trkpt>
<trkpt lat="46.1752750" lon="7.2522350"><ele></ele><time>2016-5-22T6:16:33Z</time></trkpt>
<trkpt lat="46.1752967" lon="7.2523283"><ele></ele><time>2016-5-22T6:16:36Z</time></trkpt>
<trkpt lat="46.1753133" lon="7.2524250"><ele></ele><time>2016-5-22T6:16:39Z</time></trkpt>
<trkpt lat="46.1753217" lon="7.2525283"><ele></ele><time>2016-5-22T6:16:42Z</time></trkpt>
<trkpt lat="46.1753317" lon="7.2526383"><ele></ele><time>2016-5-22T6:16:45Z</time></trkpt>
<trkpt lat="46.1753583" lon="7.2527400"><ele></ele><time>2016-5-22T6:16:48Z</time></trkpt>
<trkpt lat="46.1753967" lon="7.2528367"><ele></ele><time>2016-5-22T6:16:51Z</time></trkpt>
<trkpt lat="46.1754333" lon="7.2529383"><ele></ele><time>2016-5-22T6:16:54Z</time></trkpt>
<trkpt lat="46.1754700" lon="7.2530483"><ele></ele><time>2016-5-22T6:16:57Z</time></trkpt>
<trkpt lat="46.1754700" lon="7.2530483"><ele></ele><time>2016-5-22T6:17:0Z</time></trkpt>
<trkpt lat="46.1755333" lon="7.2532283"><ele></ele><time>2016-5-22T6:17:3Z</time></trkpt>
<trkpt lat="46.1755633" lon="7.2533183"><ele></ele><time>2016-5-22T6:17:6Z</time></trkpt>
<trkpt lat="46.1755867" lon="7.2534067"><ele></ele><time>2016-5-22T6:17:9Z</time></trkpt>
<trkpt lat="46.1756200" lon="7.2534817"><ele></ele><time>2016-5-22T6:17:12Z</time></trkpt>
<trkpt lat="46.1756433" lon="7.2535633"><ele></ele><time>2016-5-22T6:17:15Z</time></trkpt>
<trkpt lat="46.1756717" lon="7.2536517"><ele></ele><time>2016-5-22T6:17:18Z</time></trkpt>
<trkpt lat="46.1757067" lon="7.2537267"><ele></ele><time>2016-5-22T6:17:21Z</time></trkpt>
<trkpt lat="46.1757433" lon="7.2538033"><ele></ele><time>2016-5-22T6:17:24Z</time></trkpt>
<trkpt lat="46.1757883" lon="7.2538600"><ele></ele><time>2016-5-22T6:17:27Z</time></trkpt>
<trkpt lat="46.1758167" lon="7.2539250"><ele></ele><time>2016-5-22T6:17:30Z</time></trkpt>
<trkpt lat="46.1758433" lon="7.2539917"><ele></ele><time>2016-5-22T6:17:33Z</time></trkpt>
<trkpt lat="46.1758767" lon="7.2540733"><ele></ele><time>2016-5-22T6:17:36Z</time></trkpt>
<trkpt lat="46.1759000" lon="7.2541467"><ele></ele><time>2016-5-22T6:17:39Z</time></trkpt>
<trkpt lat="46.1759333" lon="7.2542150"><ele></ele><time>2016-5-22T6:17:42Z</time></trkpt>
<trkpt lat="46.1759683" lon="7.2542800"><ele></ele><time>2016-5-22T6:17:45Z</time></trkpt>
<trkpt lat="46.1759933" lon="7.2543550"><ele></ele><time>2016-5-22T6:17:48Z</time></trkpt>
<trkpt lat="46.1760167" lon="7.2544417"><ele></ele><time>2016-5-22T6:17:51Z</time></trkpt>
<trkpt lat="46.1760450" lon="7.2545217"><ele></ele><time>2016-5-22T6:17:54Z</time></trkpt>
<trkpt lat="46.1760817" lon="7.2545750"><ele></ele><time>2016-5-22T6:17:57Z</time></trkpt>
<trkpt lat="46.1761200" lon="7.2546550"><ele></ele><time>2016-5-22T6:18:0Z</time></trkpt>
<trkpt lat="46.1761600" lon="7.2547167"><ele></ele><time>2016-5-22T6:18:3Z</time></trkpt>
<trkpt lat="46.1761900" lon="7.2547767"><ele></ele><time>2016-5-22T6:18:6Z</time></trkpt>
<trkpt lat="46.1762217" lon="7.2548367"><ele></ele><time>2016-5-22T6:18:9Z</time></trkpt>
<trkpt lat="46.1762500" lon="7.2548983"><ele></ele><time>2016-5-22T6:18:12Z</time></trkpt>
<trkpt lat="46.1762933" lon="7.2549583"><ele></ele><time>2016-5-22T6:18:15Z</time></trkpt>
<trkpt lat="46.1763300" lon="7.2550267"><ele></ele><time>2016-5-22T6:18:18Z</time></trkpt>
<trkpt lat="46.1763700" lon="7.2551150"><ele></ele><time>2016-5-22T6:18:21Z</time></trkpt>
<trkpt lat="46.1764167" lon="7.2551950"><ele></ele><time>2016-5-22T6:18:24Z</time></trkpt>
<trkpt lat="46.1764633" lon="7.2552767"><ele></ele><time>2016-5-22T6:18:27Z</time></trkpt>
<trkpt lat="46.1764850" lon="7.2553633"><ele></ele><time>2016-5-22T6:18:30Z</time></trkpt>
<trkpt lat="46.1765067" lon="7.2554600"><ele></ele><time>2016-5-22T6:18:33Z</time></trkpt>
<trkpt lat="46.1765150" lon="7.2555650"><ele></ele><time>2016-5-22T6:18:36Z</time></trkpt>
<trkpt lat="46.1765333" lon="7.2556600"><ele></ele><time>2016-5-22T6:18:39Z</time></trkpt>
<trkpt lat="46.1765433" lon="7.2557600"><ele></ele><time>2016-5-22T6:18:42Z</time></trkpt>
<trkpt lat="46.1765617" lon="7.2558550"><ele></ele><time>2016-5-22T6:18:45Z</time></trkpt>
<trkpt lat="46.1765867" lon="7.2559500"><ele></ele><time>2016-5-22T6:18:48Z</time></trkpt>
<trkpt lat="46.1766117" lon="7.2560483"><ele></ele><time>2016-5-22T6:18:51Z</time></trkpt>
<trkpt lat="46.1766233" lon="7.2561400"><ele></ele><time>2016-5-22T6:18:54Z</time></trkpt>
<trkpt lat="46.1766400" lon="7.2562383"><ele></ele><time>2016-5-22T6:18:57Z</time></trkpt>
<trkpt lat="46.1766550" lon="7.2563267"><ele></ele><time>2016-5-22T6:19:0Z</time></trkpt>
<trkpt lat="46.1766717" lon="7.2564167"><ele></ele><time>2016-5-22T6:19:3Z</time></trkpt>
<trkpt lat="46.1766817" lon="7.2565117"><ele></ele><time>2016-5-22T6:19:6Z</time></trkpt>
<trkpt lat="46.1766917" lon="7.2566050"><ele></ele><time>2016-5-22T6:19:9Z</time></trkpt>
<trkpt lat="46.1767067" lon="7.2566850"><ele></ele><time>2016-5-22T6:19:12Z</time></trkpt>
<trkpt lat="46.1767183" lon="7.2567767"><ele></ele><time>2016-5-22T6:19:15Z</time></trkpt>
<trkpt lat="46.1767317" lon="7.2568683"><ele></ele><time>2016-5-22T6:19:18Z</time></trkpt>
<trkpt lat="46.1767533" lon="7.2569517"><ele></ele><time>2016-5-22T6:19:21Z</time></trkpt>
<trkpt lat="46.1767750" lon="7.2570267"><ele></ele><time>2016-5-22T6:19:24Z</time></trkpt>
<trkpt lat="46.1767933" lon="7.2570950"><ele></ele><time>2016-5-22T6:19:27Z</time></trkpt>
<trkpt lat="46.1768117" lon="7.2571783"><ele></ele><time>2016-5-22T6:19:30Z</time></trkpt>
<trkpt lat="46.1768050" lon="7.2572433"><ele></ele><time>2016-5-22T6:19:33Z</time></trkpt>
<trkpt lat="46.1767867" lon="7.2572933"><ele></ele><time>2016-5-22T6:19:36Z</time></trkpt>
<trkpt lat="46.1767783" lon="7.2573583"><ele></ele><time>2016-5-22T6:19:39Z</time></trkpt>
<trkpt lat="46.1767800" lon="7.2574083"><ele></ele><time>2016-5-22T6:19:42Z</time></trkpt>
<trkpt lat="46.1767667" lon="7.2574550"><ele></ele><time>2016-5-22T6:19:45Z</time></trkpt>
<trkpt lat="46.1767617" lon="7.2575100"><ele></ele><time>2016-5-22T6:19:48Z</time></trkpt>
<trkpt lat="46.1767717" lon="7.2575767"><ele></ele><time>2016-5-22T6:19:51Z</time></trkpt>
<trkpt lat="46.1767700" lon="7.2576267"><ele></ele><time>2016-5-22T6:19:54Z</time></trkpt>
<trkpt lat="46.1767733" lon="7.2576683"><ele></ele><time>2016-5-22T6:19:57Z</time></trkpt>
<trkpt lat="46.1767683" lon="7.2577150"><ele></ele><time>2016-5-22T6:20:0Z</time></trkpt>
<trkpt lat="46.1767883" lon="7.2577567"><ele></ele><time>2016-5-22T6:20:3Z</time></trkpt>
<trkpt lat="46.1767867" lon="7.2577950"><ele></ele><time>2016-5-22T6:20:6Z</time></trkpt>
<trkpt lat="46.1767833" lon="7.2578350"><ele></ele><time>2016-5-22T6:20:9Z</time></trkpt>
<trkpt lat="46.1767850" lon="7.2578783"><ele></ele><time>2016-5-22T6:20:12Z</time></trkpt>
<trkpt lat="46.1767833" lon="7.2579183"><ele></ele><time>2016-5-22T6:20:15Z</time></trkpt>
<trkpt lat="46.1767867" lon="7.2579550"><ele></ele><time>2016-5-22T6:20:18Z</time></trkpt>
<trkpt lat="46.1767900" lon="7.2579917"><ele></ele><time>2016-5-22T6:20:21Z</time></trkpt>
<trkpt lat="46.1767967" lon="7.2580317"><ele></ele><time>2016-5-22T6:20:24Z</time></trkpt>
<trkpt lat="46.1768000" lon="7.2580717"><ele></ele><time>2016-5-22T6:20:27Z</time></trkpt>
<trkpt lat="46.1768017" lon="7.2581067"><ele></ele><time>2016-5-22T6:20:30Z</time></trkpt>
<trkpt lat="46.1768033" lon="7.2581417"><ele></ele><time>2016-5-22T6:20:33Z</time></trkpt>
<trkpt lat="46.1768067" lon="7.2581800"><ele></ele><time>2016-5-22T6:20:36Z</time></trkpt>
<trkpt lat="46.1768100" lon="7.2582217"><ele></ele><time>2016-5-22T6:20:39Z</time></trkpt>
<trkpt lat="46.1768150" lon="7.2582617"><ele></ele><time>2016-5-22T6:20:42Z</time></trkpt>
<trkpt lat="46.1768200" lon="7.2583017"><ele></ele><time>2016-5-22T6:20:45Z</time></trkpt>
<trkpt lat="46.1768233" lon="7.2583450"><ele></ele><time>2016-5-22T6:20:48Z</time></trkpt>
<trkpt lat="46.1768250" lon="7.2583867"><ele></ele><time>2016-5-22T6:20:51Z</time></trkpt>
<trkpt lat="46.1768233" lon="7.2584267"><ele></ele><time>2016-5-22T6:20:54Z</time></trkpt>
<trkpt lat="46.1768217" lon="7.2584667"><ele></ele><time>2016-5-22T6:20:57Z</time></trkpt>
<trkpt lat="46.1768217" lon="7.2585083"><ele></ele><time>2016-5-22T6:21:0Z</time></trkpt>
<trkpt lat="46.1768217" lon="7.2585517"><ele></ele><time>2016-5-22T6:21:3Z</time></trkpt>
<trkpt lat="46.1768233" lon="7.2585983"><ele></ele><time>2016-5-22T6:21:6Z</time></trkpt>
<trkpt lat="46.1768250" lon="7.2586450"><ele></ele><time>2016-5-22T6:21:9Z</time></trkpt>
<trkpt lat="46.1768300" lon="7.2586900"><ele></ele><time>2016-5-22T6:21:12Z</time></trkpt>
<trkpt lat="46.1768383" lon="7.2587333"><ele></ele><time>2016-5-22T6:21:15Z</time></trkpt>
<trkpt lat="46.1768483" lon="7.2587733"><ele></ele><time>2016-5-22T6:21:18Z</time></trkpt>
<trkpt lat="46.1768583" lon="7.2588183"><ele></ele><time>2016-5-22T6:21:21Z</time></trkpt>
<trkpt lat="46.1768667" lon="7.2588633"><ele></ele><time>2016-5-22T6:21:24Z</time></trkpt>
<trkpt lat="46.1768717" lon="7.2589050"><ele></ele><time>2016-5-22T6:21:27Z</time></trkpt>
<trkpt lat="46.1768733" lon="7.2589433"><ele></ele><time>2016-5-22T6:21:30Z</time></trkpt>
<trkpt lat="46.1768767" lon="7.2589833"><ele></ele><time>2016-5-22T6:21:33Z</time></trkpt>
<trkpt lat="46.1768833" lon="7.2590250"><ele></ele><time>2016-5-22T6:21:36Z</time></trkpt>
<trkpt lat="46.1768917" lon="7.2590683"><ele></ele><time>2016-5-22T6:21:39Z</time></trkpt>
<trkpt lat="46.1768983" lon="7.2591117"><ele></ele><time>2016-5-22T6:21:42Z</time></trkpt>
<trkpt lat="46.1769067" lon="7.2591583"><ele></ele><time>2016-5-22T6:21:45Z</time></trkpt>
<trkpt lat="46.1769167" lon="7.2592033"><ele></ele><time>2016-5-22T6:21:48Z</time></trkpt>
<trkpt lat="46.1769300" lon="7.2592533"><ele></ele><time>2016-5-22T6:21:51Z</time></trkpt>
<trkpt lat="46.1769450" lon="7.2592967"><ele></ele><time>2016-5-22T6:21:54Z</time></trkpt>
<trkpt lat="46.1769600" lon="7.2593367"><ele></ele><time>2016-5-22T6:21:57Z</time></trkpt>
<trkpt lat="46.1769800" lon="7.2593733"><ele></ele><time>2016-5-22T6:22:0Z</time></trkpt>
<trkpt lat="46.1770033" lon="7.2594117"><ele></ele><time>2016-5-22T6:22:3Z</time></trkpt>
<trkpt lat="46.1770250" lon="7.2594500"><ele></ele><time>2016-5-22T6:22:6Z</time></trkpt>
<trkpt lat="46.1770467" lon="7.2594883"><ele></ele><time>2016-5-22T6:22:9Z</time></trkpt>
<trkpt lat="46.1770650" lon="7.2595283"><ele></ele><time>2016-5-22T6:22:12Z</time></trkpt>
<trkpt lat="46.1770817" lon="7.2595700"><ele></ele><time>2016-5-22T6:22:15Z</time></trkpt>
<trkpt lat="46.1770967" lon="7.2596100"><ele></ele><time>2016-5-22T6:22:18Z</time></trkpt>
<trkpt lat="46.1771150" lon="7.2596500"><ele></ele><time>2016-5-22T6:22:21Z</time></trkpt>
<trkpt lat="46.1771333" lon="7.2596883"><ele></ele><time>2016-5-22T6:22:24Z</time></trkpt>
<trkpt lat="46.1771500" lon="7.2597283"><ele></ele><time>2016-5-22T6:22:27Z</time></trkpt>
<trkpt lat="46.1771650" lon="7.2597667"><ele></ele><time>2016-5-22T6:22:30Z</time></trkpt>
<trkpt lat="46.1771800" lon="7.2598033"><ele></ele><time>2016-5-22T6:22:33Z</time></trkpt>
<trkpt lat="46.1771933" lon="7.2598383"><ele></ele><time>2016-5-22T6:22:36Z</time></trkpt>
<trkpt lat="46.1772083" lon="7.2598750"><ele></ele><time>2016-5-22T6:22:39Z</time></trkpt>
<trkpt lat="46.1772217" lon="7.2599117"><ele></ele><time>2016-5-22T6:22:42Z</time></trkpt>
<trkpt lat="46.1772350" lon="7.2599450"><ele></ele><time>2016-5-22T6:22:45Z</time></trkpt>
<trkpt lat="46.1772483" lon="7.2599817"><ele></ele><time>2016-5-22T6:22:48Z</time></trkpt>
<trkpt lat="46.1772650" lon="7.2600200"><ele></ele><time>2016-5-22T6:22:51Z</time></trkpt>
<trkpt lat="46.1772817" lon="7.2600600"><ele></ele><time>2016-5-22T6:22:54Z</time></trkpt>
<trkpt lat="46.1773000" lon="7.2600983"><ele></ele><time>2016-5-22T6:22:57Z</time></trkpt>
<trkpt lat="46.1773167" lon="7.2601350"><ele></ele><time>2016-5-22T6:23:0Z</time></trkpt>
<trkpt lat="46.1773367" lon="7.2601717"><ele></ele><time>2016-5-22T6:23:3Z</time></trkpt>
<trkpt lat="46.1773567" lon="7.2602067"><ele></ele><time>2016-5-22T6:23:6Z</time></trkpt>
<trkpt lat="46.1773750" lon="7.2602417"><ele></ele><time>2016-5-22T6:23:9Z</time></trkpt>
<trkpt lat="46.1773917" lon="7.2602767"><ele></ele><time>2016-5-22T6:23:12Z</time></trkpt>
<trkpt lat="46.1774067" lon="7.2603100"><ele></ele><time>2016-5-22T6:23:15Z</time></trkpt>
<trkpt lat="46.1774200" lon="7.2603417"><ele></ele><time>2016-5-22T6:23:18Z</time></trkpt>
<trkpt lat="46.1774317" lon="7.2603767"><ele></ele><time>2016-5-22T6:23:21Z</time></trkpt>
<trkpt lat="46.1774450" lon="7.2604117"><ele></ele><time>2016-5-22T6:23:24Z</time></trkpt>
<trkpt lat="46.1774567" lon="7.2604500"><ele></ele><time>2016-5-22T6:23:27Z</time></trkpt>
<trkpt lat="46.1774717" lon="7.2604883"><ele></ele><time>2016-5-22T6:23:30Z</time></trkpt>
<trkpt lat="46.1774883" lon="7.2605283"><ele></ele><time>2016-5-22T6:23:33Z</time></trkpt>
<trkpt lat="46.1775050" lon="7.2605683"><ele></ele><time>2016-5-22T6:23:36Z</time></trkpt>
<trkpt lat="46.1775250" lon="7.2606083"><ele></ele><time>2016-5-22T6:23:39Z</time></trkpt>
<trkpt lat="46.1775417" lon="7.2606467"><ele></ele><time>2016-5-22T6:23:42Z</time></trkpt>
<trkpt lat="46.1775550" lon="7.2606850"><ele></ele><time>2016-5-22T6:23:45Z</time></trkpt>
<trkpt lat="46.1775667" lon="7.2607217"><ele></ele><time>2016-5-22T6:23:48Z</time></trkpt>
<trkpt lat="46.1775800" lon="7.2607583"><ele></ele><time>2016-5-22T6:23:51Z</time></trkpt>
<trkpt lat="46.1775917" lon="7.2607933"><ele></ele><time>2016-5-22T6:23:54Z</time></trkpt>
<trkpt lat="46.1776067" lon="7.2608283"><ele></ele><time>2016-5-22T6:23:57Z</time></trkpt>
<trkpt lat="46.1776200" lon="7.2608650"><ele></ele><time>2016-5-22T6:24:0Z</time></trkpt>
<trkpt lat="46.1776333" lon="7.2609067"><ele></ele><time>2016-5-22T6:24:3Z</time></trkpt>
<trkpt lat="46.1776450" lon="7.2609500"><ele></ele><time>2016-5-22T6:24:6Z</time></trkpt>
<trkpt lat="46.1776567" lon="7.2609900"><ele></ele><time>2016-5-22T6:24:9Z</time></trkpt>
<trkpt lat="46.1776683" lon="7.2610283"><ele></ele><time>2016-5-22T6:24:12Z</time></trkpt>
<trkpt lat="46.1776833" lon="7.2610650"><ele></ele><time>2016-5-22T6:24:15Z</time></trkpt>
<trkpt lat="46.1777000" lon="7.2611017"><ele></ele><time>2016-5-22T6:24:18Z</time></trkpt>
<trkpt lat="46.1777167" lon="7.2611350"><ele></ele><time>2016-5-22T6:24:21Z</time></trkpt>
<trkpt lat="46.1777350" lon="7.2611683"><ele></ele><time>2016-5-22T6:24:24Z</time></trkpt>
<trkpt lat="46.1777500" lon="7.2612017"><ele></ele><time>2016-5-22T6:24:27Z</time></trkpt>
<trkpt lat="46.1777650" lon="7.2612383"><ele></ele><time>2016-5-22T6:24:30Z</time></trkpt>
<trkpt lat="46.1777800" lon="7.2612767"><ele></ele><time>2016-5-22T6:24:33Z</time></trkpt>
<trkpt lat="46.1777933" lon="7.2613167"><ele></ele><time>2016-5-22T6:24:36Z</time></trkpt>
<trkpt lat="46.1778067" lon="7.2613583"><ele></ele><time>2016-5-22T6:24:39Z</time></trkpt>
<trkpt lat="46.1778200" lon="7.2614000"><ele></ele><time>2016-5-22T6:24:42Z</time></trkpt>
<trkpt lat="46.1778317" lon="7.2614433"><ele></ele><time>2016-5-22T6:24:45Z</time></trkpt>
<trkpt lat="46.1778433" lon="7.2614883"><ele></ele><time>2016-5-22T6:24:48Z</time></trkpt>
<trkpt lat="46.1778550" lon="7.2615350"><ele></ele><time>2016-5-22T6:24:51Z</time></trkpt>
<trkpt lat="46.1778650" lon="7.2615800"><ele></ele><time>2016-5-22T6:24:54Z</time></trkpt>
<trkpt lat="46.1778733" lon="7.2616233"><ele></ele><time>2016-5-22T6:24:57Z</time></trkpt>
<trkpt lat="46.1778800" lon="7.2616650"><ele></ele><time>2016-5-22T6:25:0Z</time></trkpt>
<trkpt lat="46.1778883" lon="7.2617050"><ele></ele><time>2016-5-22T6:25:3Z</time></trkpt>
<trkpt lat="46.1778967" lon="7.2617450"><ele></ele><time>2016-5-22T6:25:6Z</time></trkpt>
<trkpt lat="46.1779017" lon="7.2617833"><ele></ele><time>2016-5-22T6:25:9Z</time></trkpt>
<trkpt lat="46.1779067" lon="7.2618200"><ele></ele><time>2016-5-22T6:25:12Z</time></trkpt>
<trkpt lat="46.1779100" lon="7.2618567"><ele></ele><time>2016-5-22T6:25:15Z</time></trkpt>
<trkpt lat="46.1779117" lon="7.2618933"><ele></ele><time>2016-5-22T6:25:18Z</time></trkpt>
<trkpt lat="46.1779133" lon="7.2619300"><ele></ele><time>2016-5-22T6:25:21Z</time></trkpt>
<trkpt lat="46.1779133" lon="7.2619600"><ele></ele><time>2016-5-22T6:25:24Z</time></trkpt>
<trkpt lat="46.1779150" lon="7.2619933"><ele></ele><time>2016-5-22T6:25:27Z</time></trkpt>
<trkpt lat="46.1779200" lon="7.2620333"><ele></ele><time>2016-5-22T6:25:30Z</time></trkpt>
<trkpt lat="46.1779217" lon="7.2620717"><ele></ele><time>2016-5-22T6:25:33Z</time></trkpt>
<trkpt lat="46.1779217" lon="7.2621083"><ele></ele><time>2016-5-22T6:25:36Z</time></trkpt>
<trkpt lat="46.1779200" lon="7.2621433"><ele></ele><time>2016-5-22T6:25:39Z</time></trkpt>
<trkpt lat="46.1779183" lon="7.2621783"><ele></ele><time>2016-5-22T6:25:42Z</time></trkpt>
<trkpt lat="46.1779183" lon="7.2622133"><ele></ele><time>2016-5-22T6:25:45Z</time></trkpt>
<trkpt lat="46.1779200" lon="7.2622483"><ele></ele><time>2016-5-22T6:25:48Z</time></trkpt>
<trkpt lat="46.1779217" lon="7.2622850"><ele></ele><time>2016-5-22T6:25:51Z</time></trkpt>
<trkpt lat="46.1779250" lon="7.2623183"><ele></ele><time>2016-5-22T6:25:54Z</time></trkpt>
<trkpt lat="46.1779283" lon="7.2623550"><ele></ele><time>2016-5-22T6:25:57Z</time></trkpt>
<trkpt lat="46.1779300" lon="7.2623933"><ele></ele><time>2016-5-22T6:26:0Z</time></trkpt>
<trkpt lat="46.1779333" lon="7.2624300"><ele></ele><time>2016-5-22T6:26:3Z</time></trkpt>
<trkpt lat="46.1779350" lon="7.2624667"><ele></ele><time>2016-5-22T6:26:6Z</time></trkpt>
<trkpt lat="46.1779367" lon="7.2625033"><ele></ele><time>2016-5-22T6:26:9Z</time></trkpt>
<trkpt lat="46.1779367" lon="7.2625417"><ele></ele><time>2016-5-22T6:26:12Z</time></trkpt>
<trkpt lat="46.1779350" lon="7.2625817"><ele></ele><time>2016-5-22T6:26:15Z</time></trkpt>
<trkpt lat="46.1779350" lon="7.2626217"><ele></ele><time>2016-5-22T6:26:18Z</time></trkpt>
<trkpt lat="46.1779367" lon="7.2626567"><ele></ele><time>2016-5-22T6:26:21Z</time></trkpt>
<trkpt lat="46.1779383" lon="7.2626950"><ele></ele><time>2016-5-22T6:26:24Z</time></trkpt>
<trkpt lat="46.1779383" lon="7.2627333"><ele></ele><time>2016-5-22T6:26:27Z</time></trkpt>
<trkpt lat="46.1779400" lon="7.2627700"><ele></ele><time>2016-5-22T6:26:30Z</time></trkpt>
<trkpt lat="46.1779400" lon="7.2628100"><ele></ele><time>2016-5-22T6:26:33Z</time></trkpt>
<trkpt lat="46.1779417" lon="7.2628500"><ele></ele><time>2016-5-22T6:26:36Z</time></trkpt>
<trkpt lat="46.1779433" lon="7.2628883"><ele></ele><time>2016-5-22T6:26:39Z</time></trkpt>
<trkpt lat="46.1779433" lon="7.2629300"><ele></ele><time>2016-5-22T6:26:42Z</time></trkpt>
<trkpt lat="46.1779417" lon="7.2629683"><ele></ele><time>2016-5-22T6:26:45Z</time></trkpt>
<trkpt lat="46.1779417" lon="7.2630083"><ele></ele><time>2016-5-22T6:26:48Z</time></trkpt>
<trkpt lat="46.1779400" lon="7.2630483"><ele></ele><time>2016-5-22T6:26:51Z</time></trkpt>
<trkpt lat="46.1779400" lon="7.2630883"><ele></ele><time>2016-5-22T6:26:54Z</time></trkpt>
<trkpt lat="46.1779417" lon="7.2631233"><ele></ele><time>2016-5-22T6:26:57Z</time></trkpt>
<trkpt lat="46.1779450" lon="7.2631617"><ele></ele><time>2016-5-22T6:27:0Z</time></trkpt>
<trkpt lat="46.1779483" lon="7.2632000"><ele></ele><time>2016-5-22T6:27:3Z</time></trkpt>
<trkpt lat="46.1779500" lon="7.2632367"><ele></ele><time>2016-5-22T6:27:6Z</time></trkpt>
<trkpt lat="46.1779517" lon="7.2632750"><ele></ele><time>2016-5-22T6:27:9Z</time></trkpt>
<trkpt lat="46.1779517" lon="7.2633150"><ele></ele><time>2016-5-22T6:27:12Z</time></trkpt>
<trkpt lat="46.1779517" lon="7.2633550"><ele></ele><time>2016-5-22T6:27:15Z</time></trkpt>
<trkpt lat="46.1779500" lon="7.2633967"><ele></ele><time>2016-5-22T6:27:18Z</time></trkpt>
<trkpt lat="46.1779500" lon="7.2634367"><ele></ele><time>2016-5-22T6:27:21Z</time></trkpt>
<trkpt lat="46.1779517" lon="7.2634783"><ele></ele><time>2016-5-22T6:27:24Z</time></trkpt>
<trkpt lat="46.1779517" lon="7.2635233"><ele></ele><time>2016-5-22T6:27:27Z</time></trkpt>
<trkpt lat="46.1779517" lon="7.2635633"><ele></ele><time>2016-5-22T6:27:30Z</time></trkpt>
<trkpt lat="46.1779533" lon="7.2636050"><ele></ele><time>2016-5-22T6:27:33Z</time></trkpt>
<trkpt lat="46.1779533" lon="7.2636467"><ele></ele><time>2016-5-22T6:27:36Z</time></trkpt>
<trkpt lat="46.1779533" lon="7.2636867"><ele></ele><time>2016-5-22T6:27:39Z</time></trkpt>
<trkpt lat="46.1779500" lon="7.2637300"><ele></ele><time>2016-5-22T6:27:42Z</time></trkpt>
<trkpt lat="46.1779450" lon="7.2637750"><ele></ele><time>2016-5-22T6:27:45Z</time></trkpt>
<trkpt lat="46.1779433" lon="7.2638167"><ele></ele><time>2016-5-22T6:27:48Z</time></trkpt>
<trkpt lat="46.1779433" lon="7.2638567"><ele></ele><time>2016-5-22T6:27:51Z</time></trkpt>
<trkpt lat="46.1779433" lon="7.2638983"><ele></ele><time>2016-5-22T6:27:54Z</time></trkpt>
<trkpt lat="46.1779450" lon="7.2639417"><ele></ele><time>2016-5-22T6:27:57Z</time></trkpt>
<trkpt lat="46.1779483" lon="7.2639833"><ele></ele><time>2016-5-22T6:28:0Z</time></trkpt>
<trkpt lat="46.1779517" lon="7.2640250"><ele></ele><time>2016-5-22T6:28:3Z</time></trkpt>
<trkpt lat="46.1779550" lon="7.2640717"><ele></ele><time>2016-5-22T6:28:6Z</time></trkpt>
<trkpt lat="46.1779583" lon="7.2641233"><ele></ele><time>2016-5-22T6:28:9Z</time></trkpt>
<trkpt lat="46.1779617" lon="7.2641700"><ele></ele><time>2016-5-22T6:28:12Z</time></trkpt>
<trkpt lat="46.1779633" lon="7.2642133"><ele></ele><time>2016-5-22T6:28:15Z</time></trkpt>
<trkpt lat="46.1779617" lon="7.2642550"><ele></ele><time>2016-5-22T6:28:18Z</time></trkpt>
<trkpt lat="46.1779617" lon="7.2642917"><ele></ele><time>2016-5-22T6:28:21Z</time></trkpt>
<trkpt lat="46.1779633" lon="7.2643267"><ele></ele><time>2016-5-22T6:28:24Z</time></trkpt>
<trkpt lat="46.1779667" lon="7.2643633"><ele></ele><time>2016-5-22T6:28:27Z</time></trkpt>
<trkpt lat="46.1779733" lon="7.2644000"><ele></ele><time>2016-5-22T6:28:30Z</time></trkpt>
<trkpt lat="46.1779817" lon="7.2644383"><ele></ele><time>2016-5-22T6:28:33Z</time></trkpt>
<trkpt lat="46.1779900" lon="7.2644783"><ele></ele><time>2016-5-22T6:28:36Z</time></trkpt>
<trkpt lat="46.1779983" lon="7.2645233"><ele></ele><time>2016-5-22T6:28:39Z</time></trkpt>
<trkpt lat="46.1780050" lon="7.2645750"><ele></ele><time>2016-5-22T6:28:42Z</time></trkpt>
<trkpt lat="46.1780117" lon="7.2646383"><ele></ele><time>2016-5-22T6:28:45Z</time></trkpt>
<trkpt lat="46.1780350" lon="7.2647283"><ele></ele><time>2016-5-22T6:28:48Z</time></trkpt>
<trkpt lat="46.1780517" lon="7.2648017"><ele></ele><time>2016-5-22T6:28:51Z</time></trkpt>
<trkpt lat="46.1780700" lon="7.2648833"><ele></ele><time>2016-5-22T6:28:54Z</time></trkpt>
<trkpt lat="46.1780850" lon="7.2649633"><ele></ele><time>2016-5-22T6:28:57Z</time></trkpt>
<trkpt lat="46.1781050" lon="7.2650400"><ele></ele><time>2016-5-22T6:29:0Z</time></trkpt>
<trkpt lat="46.1781233" lon="7.2651200"><ele></ele><time>2016-5-22T6:29:3Z</time></trkpt>
<trkpt lat="46.1781517" lon="7.2651983"><ele></ele><time>2016-5-22T6:29:6Z</time></trkpt>
<trkpt lat="46.1781767" lon="7.2652833"><ele></ele><time>2016-5-22T6:29:9Z</time></trkpt>
<trkpt lat="46.1782100" lon="7.2653633"><ele></ele><time>2016-5-22T6:29:12Z</time></trkpt>
<trkpt lat="46.1782400" lon="7.2654400"><ele></ele><time>2016-5-22T6:29:15Z</time></trkpt>
<trkpt lat="46.1782750" lon="7.2655183"><ele></ele><time>2016-5-22T6:29:18Z</time></trkpt>
<trkpt lat="46.1782983" lon="7.2656000"><ele></ele><time>2016-5-22T6:29:21Z</time></trkpt>
<trkpt lat="46.1783150" lon="7.2656883"><ele></ele><time>2016-5-22T6:29:24Z</time></trkpt>
<trkpt lat="46.1783333" lon="7.2657733"><ele></ele><time>2016-5-22T6:29:27Z</time></trkpt>
<trkpt lat="46.1783600" lon="7.2658483"><ele></ele><time>2016-5-22T6:29:30Z</time></trkpt>
<trkpt lat="46.1783900" lon="7.2659183"><ele></ele><time>2016-5-22T6:29:33Z</time></trkpt>
<trkpt lat="46.1784167" lon="7.2659883"><ele></ele><time>2016-5-22T6:29:36Z</time></trkpt>
<trkpt lat="46.1784433" lon="7.2660467"><ele></ele><time>2016-5-22T6:29:39Z</time></trkpt>
<trkpt lat="46.1784667" lon="7.2661050"><ele></ele><time>2016-5-22T6:29:42Z</time></trkpt>
<trkpt lat="46.1784667" lon="7.2661050"><ele></ele><time>2016-5-22T6:29:45Z</time></trkpt>
<trkpt lat="46.1784900" lon="7.2661583"><ele></ele><time>2016-5-22T6:29:48Z</time></trkpt>
<trkpt lat="46.1785017" lon="7.2662133"><ele></ele><time>2016-5-22T6:29:51Z</time></trkpt>
<trkpt lat="46.1785117" lon="7.2662633"><ele></ele><time>2016-5-22T6:29:54Z</time></trkpt>
<trkpt lat="46.1785200" lon="7.2663100"><ele></ele><time>2016-5-22T6:29:57Z</time></trkpt>
<trkpt lat="46.1785317" lon="7.2663517"><ele></ele><time>2016-5-22T6:30:0Z</time></trkpt>
<trkpt lat="46.1785450" lon="7.2663983"><ele></ele><time>2016-5-22T6:30:3Z</time></trkpt>
<trkpt lat="46.1785533" lon="7.2664383"><ele></ele><time>2016-5-22T6:30:6Z</time></trkpt>
<trkpt lat="46.1785700" lon="7.2664783"><ele></ele><time>2016-5-22T6:30:9Z</time></trkpt>
<trkpt lat="46.1785967" lon="7.2665183"><ele></ele><time>2016-5-22T6:30:12Z</time></trkpt>
<trkpt lat="46.1786150" lon="7.2665550"><ele></ele><time>2016-5-22T6:30:15Z</time></trkpt>
<trkpt lat="46.1786333" lon="7.2665983"><ele></ele><time>2016-5-22T6:30:18Z</time></trkpt>
<trkpt lat="46.1786517" lon="7.2666350"><ele></ele><time>2016-5-22T6:30:21Z</time></trkpt>
<trkpt lat="46.1786683" lon="7.2666733"><ele></ele><time>2016-5-22T6:30:24Z</time></trkpt>
<trkpt lat="46.1786850" lon="7.2667100"><ele></ele><time>2016-5-22T6:30:27Z</time></trkpt>
<trkpt lat="46.1787000" lon="7.2667467"><ele></ele><time>2016-5-22T6:30:30Z</time></trkpt>
<trkpt lat="46.1787167" lon="7.2667833"><ele></ele><time>2016-5-22T6:30:33Z</time></trkpt>
<trkpt lat="46.1787350" lon="7.2668217"><ele></ele><time>2016-5-22T6:30:36Z</time></trkpt>
<trkpt lat="46.1787500" lon="7.2668617"><ele></ele><time>2016-5-22T6:30:39Z</time></trkpt>
<trkpt lat="46.1787667" lon="7.2669033"><ele></ele><time>2016-5-22T6:30:42Z</time></trkpt>
<trkpt lat="46.1787800" lon="7.2669417"><ele></ele><time>2016-5-22T6:30:45Z</time></trkpt>
<trkpt lat="46.1787883" lon="7.2669750"><ele></ele><time>2016-5-22T6:30:48Z</time></trkpt>
<trkpt lat="46.1787933" lon="7.2670067"><ele></ele><time>2016-5-22T6:30:51Z</time></trkpt>
<trkpt lat="46.1788050" lon="7.2670417"><ele></ele><time>2016-5-22T6:30:54Z</time></trkpt>
<trkpt lat="46.1788200" lon="7.2670800"><ele></ele><time>2016-5-22T6:30:57Z</time></trkpt>
<trkpt lat="46.1788200" lon="7.2670800"><ele></ele><time>2016-5-22T6:31:0Z</time></trkpt>
<trkpt lat="46.1788400" lon="7.2671217"><ele></ele><time>2016-5-22T6:31:3Z</time></trkpt>
<trkpt lat="46.1788617" lon="7.2671583"><ele></ele><time>2016-5-22T6:31:6Z</time></trkpt>
<trkpt lat="46.1788850" lon="7.2671933"><ele></ele><time>2016-5-22T6:31:9Z</time></trkpt>
<trkpt lat="46.1789083" lon="7.2672233"><ele></ele><time>2016-5-22T6:31:12Z</time></trkpt>
<trkpt lat="46.1789333" lon="7.2672500"><ele></ele><time>2016-5-22T6:31:15Z</time></trkpt>
<trkpt lat="46.1789583" lon="7.2672783"><ele></ele><time>2016-5-22T6:31:18Z</time></trkpt>
<trkpt lat="46.1789817" lon="7.2673033"><ele></ele><time>2016-5-22T6:31:21Z</time></trkpt>
<trkpt lat="46.1790067" lon="7.2673250"><ele></ele><time>2016-5-22T6:31:24Z</time></trkpt>
<trkpt lat="46.1790350" lon="7.2673450"><ele></ele><time>2016-5-22T6:31:27Z</time></trkpt>
<trkpt lat="46.1790600" lon="7.2673667"><ele></ele><time>2016-5-22T6:31:30Z</time></trkpt>
<trkpt lat="46.1790833" lon="7.2673933"><ele></ele><time>2016-5-22T6:31:33Z</time></trkpt>
<trkpt lat="46.1790983" lon="7.2674250"><ele></ele><time>2016-5-22T6:31:36Z</time></trkpt>
<trkpt lat="46.1790983" lon="7.2674250"><ele></ele><time>2016-5-22T6:31:39Z</time></trkpt>
<trkpt lat="46.1791117" lon="7.2674567"><ele></ele><time>2016-5-22T6:31:42Z</time></trkpt>
<trkpt lat="46.1791233" lon="7.2674867"><ele></ele><time>2016-5-22T6:31:45Z</time></trkpt>
<trkpt lat="46.1791350" lon="7.2675183"><ele></ele><time>2016-5-22T6:31:48Z</time></trkpt>
<trkpt lat="46.1791483" lon="7.2675483"><ele></ele><time>2016-5-22T6:31:51Z</time></trkpt>
<trkpt lat="46.1791583" lon="7.2675800"><ele></ele><time>2016-5-22T6:31:54Z</time></trkpt>
<trkpt lat="46.1791717" lon="7.2676117"><ele></ele><time>2016-5-22T6:31:57Z</time></trkpt>
<trkpt lat="46.1791800" lon="7.2676483"><ele></ele><time>2016-5-22T6:32:0Z</time></trkpt>
<trkpt lat="46.1791900" lon="7.2676833"><ele></ele><time>2016-5-22T6:32:3Z</time></trkpt>
<trkpt lat="46.1792000" lon="7.2677200"><ele></ele><time>2016-5-22T6:32:6Z</time></trkpt>
<trkpt lat="46.1792150" lon="7.2677567"><ele></ele><time>2016-5-22T6:32:9Z</time></trkpt>
<trkpt lat="46.1792317" lon="7.2677933"><ele></ele><time>2016-5-22T6:32:12Z</time></trkpt>
<trkpt lat="46.1792467" lon="7.2678300"><ele></ele><time>2016-5-22T6:32:15Z</time></trkpt>
<trkpt lat="46.1792467" lon="7.2678300"><ele></ele><time>2016-5-22T6:32:18Z</time></trkpt>
<trkpt lat="46.1792583" lon="7.2678667"><ele></ele><time>2016-5-22T6:32:21Z</time></trkpt>
<trkpt lat="46.1792683" lon="7.2679017"><ele></ele><time>2016-5-22T6:32:24Z</time></trkpt>
<trkpt lat="46.1792750" lon="7.2679367"><ele></ele><time>2016-5-22T6:32:27Z</time></trkpt>
<trkpt lat="46.1792817" lon="7.2679700"><ele></ele><time>2016-5-22T6:32:30Z</time></trkpt>
<trkpt lat="46.1792917" lon="7.2680017"><ele></ele><time>2016-5-22T6:32:33Z</time></trkpt>
<trkpt lat="46.1793033" lon="7.2680350"><ele></ele><time>2016-5-22T6:32:36Z</time></trkpt>
<trkpt lat="46.1793167" lon="7.2680683"><ele></ele><time>2016-5-22T6:32:39Z</time></trkpt>
<trkpt lat="46.1793300" lon="7.2681017"><ele></ele><time>2016-5-22T6:32:42Z</time></trkpt>
<trkpt lat="46.1793450" lon="7.2681350"><ele></ele><time>2016-5-22T6:32:45Z</time></trkpt>
<trkpt lat="46.1793633" lon="7.2681683"><ele></ele><time>2016-5-22T6:32:48Z</time></trkpt>
<trkpt lat="46.1793800" lon="7.2682017"><ele></ele><time>2016-5-22T6:32:51Z</time></trkpt>
<trkpt lat="46.1793933" lon="7.2682350"><ele></ele><time>2016-5-22T6:32:54Z</time></trkpt>
<trkpt lat="46.1793933" lon="7.2682350"><ele></ele><time>2016-5-22T6:32:57Z</time></trkpt>
<trkpt lat="46.1794083" lon="7.2682717"><ele></ele><time>2016-5-22T6:33:0Z</time></trkpt>
<trkpt lat="46.1794183" lon="7.2683067"><ele></ele><time>2016-5-22T6:33:3Z</time></trkpt>
<trkpt lat="46.1794250" lon="7.2683400"><ele></ele><time>2016-5-22T6:33:6Z</time></trkpt>
<trkpt lat="46.1794300" lon="7.2683767"><ele></ele><time>2016-5-22T6:33:9Z</time></trkpt>
<trkpt lat="46.1794383" lon="7.2684133"><ele></ele><time>2016-5-22T6:33:12Z</time></trkpt>
<trkpt lat="46.1794450" lon="7.2684517"><ele></ele><time>2016-5-22T6:33:15Z</time></trkpt>
<trkpt lat="46.1794533" lon="7.2684933"><ele></ele><time>2016-5-22T6:33:18Z</time></trkpt>
<trkpt lat="46.1794617" lon="7.2685350"><ele></ele><time>2016-5-22T6:33:21Z</time></trkpt>
<trkpt lat="46.1794667" lon="7.2685767"><ele></ele><time>2016-5-22T6:33:24Z</time></trkpt>
<trkpt lat="46.1794717" lon="7.2686183"><ele></ele><time>2016-5-22T6:33:27Z</time></trkpt>
<trkpt lat="46.1794783" lon="7.2686633"><ele></ele><time>2016-5-22T6:33:30Z</time></trkpt>
<trkpt lat="46.1794883" lon="7.2687050"><ele></ele><time>2016-5-22T6:33:33Z</time></trkpt>
<trkpt lat="46.1794883" lon="7.2687050"><ele></ele><time>2016-5-22T6:33:36Z</time></trkpt>
<trkpt lat="46.1794983" lon="7.2687433"><ele></ele><time>2016-5-22T6:33:39Z</time></trkpt>
<trkpt lat="46.1795100" lon="7.2687817"><ele></ele><time>2016-5-22T6:33:42Z</time></trkpt>
<trkpt lat="46.1795200" lon="7.2688200"><ele></ele><time>2016-5-22T6:33:45Z</time></trkpt>
<trkpt lat="46.1795267" lon="7.2688583"><ele></ele><time>2016-5-22T6:33:48Z</time></trkpt>
<trkpt lat="46.1795367" lon="7.2688950"><ele></ele><time>2016-5-22T6:33:51Z</time></trkpt>
<trkpt lat="46.1795500" lon="7.2689300"><ele></ele><time>2016-5-22T6:33:54Z</time></trkpt>
<trkpt lat="46.1795667" lon="7.2689633"><ele></ele><time>2016-5-22T6:33:57Z</time></trkpt>
<trkpt lat="46.1795850" lon="7.2689983"><ele></ele><time>2016-5-22T6:34:0Z</time></trkpt>
<trkpt lat="46.1796017" lon="7.2690300"><ele></ele><time>2016-5-22T6:34:3Z</time></trkpt>
<trkpt lat="46.1796150" lon="7.2690600"><ele></ele><time>2016-5-22T6:34:6Z</time></trkpt>
<trkpt lat="46.1796283" lon="7.2690883"><ele></ele><time>2016-5-22T6:34:9Z</time></trkpt>
<trkpt lat="46.1796400" lon="7.2691200"><ele></ele><time>2016-5-22T6:34:12Z</time></trkpt>
<trkpt lat="46.1796400" lon="7.2691200"><ele></ele><time>2016-5-22T6:34:15Z</time></trkpt>
<trkpt lat="46.1796533" lon="7.2691583"><ele></ele><time>2016-5-22T6:34:18Z</time></trkpt>
<trkpt lat="46.1796650" lon="7.2691950"><ele></ele><time>2016-5-22T6:34:21Z</time></trkpt>
<trkpt lat="46.1796800" lon="7.2692333"><ele></ele><time>2016-5-22T6:34:24Z</time></trkpt>
<trkpt lat="46.1796983" lon="7.2692700"><ele></ele><time>2016-5-22T6:34:27Z</time></trkpt>
<trkpt lat="46.1797150" lon="7.2693067"><ele></ele><time>2016-5-22T6:34:30Z</time></trkpt>
<trkpt lat="46.1797267" lon="7.2693467"><ele></ele><time>2016-5-22T6:34:33Z</time></trkpt>
<trkpt lat="46.1797367" lon="7.2693867"><ele></ele><time>2016-5-22T6:34:36Z</time></trkpt>
<trkpt lat="46.1797467" lon="7.2694267"><ele></ele><time>2016-5-22T6:34:39Z</time></trkpt>
<trkpt lat="46.1797583" lon="7.2694650"><ele></ele><time>2016-5-22T6:34:42Z</time></trkpt>
<trkpt lat="46.1797700" lon="7.2695033"><ele></ele><time>2016-5-22T6:34:45Z</time></trkpt>
<trkpt lat="46.1797817" lon="7.2695400"><ele></ele><time>2016-5-22T6:34:48Z</time></trkpt>
<trkpt lat="46.1797900" lon="7.2695750"><ele></ele><time>2016-5-22T6:34:51Z</time></trkpt>
<trkpt lat="46.1797900" lon="7.2695750"><ele></ele><time>2016-5-22T6:34:54Z</time></trkpt>
<trkpt lat="46.1797950" lon="7.2696067"><ele></ele><time>2016-5-22T6:34:57Z</time></trkpt>
<trkpt lat="46.1798000" lon="7.2696383"><ele></ele><time>2016-5-22T6:35:0Z</time></trkpt>
<trkpt lat="46.1798083" lon="7.2696733"><ele></ele><time>2016-5-22T6:35:3Z</time></trkpt>
<trkpt lat="46.1798200" lon="7.2697067"><ele></ele><time>2016-5-22T6:35:6Z</time></trkpt>
<trkpt lat="46.1798300" lon="7.2697400"><ele></ele><time>2016-5-22T6:35:9Z</time></trkpt>
<trkpt lat="46.1798383" lon="7.2697767"><ele></ele><time>2016-5-22T6:35:12Z</time></trkpt>
<trkpt lat="46.1798450" lon="7.2698133"><ele></ele><time>2016-5-22T6:35:15Z</time></trkpt>
<trkpt lat="46.1798483" lon="7.2698517"><ele></ele><time>2016-5-22T6:35:18Z</time></trkpt>
<trkpt lat="46.1798467" lon="7.2698933"><ele></ele><time>2016-5-22T6:35:21Z</time></trkpt>
<trkpt lat="46.1798433" lon="7.2699350"><ele></ele><time>2016-5-22T6:35:24Z</time></trkpt>
<trkpt lat="46.1798383" lon="7.2699767"><ele></ele><time>2016-5-22T6:35:27Z</time></trkpt>
<trkpt lat="46.1798367" lon="7.2700167"><ele></ele><time>2016-5-22T6:35:30Z</time></trkpt>
<trkpt lat="46.1798367" lon="7.2700167"><ele></ele><time>2016-5-22T6:35:33Z</time></trkpt>
<trkpt lat="46.1798350" lon="7.2700567"><ele></ele><time>2016-5-22T6:35:36Z</time></trkpt>
<trkpt lat="46.1798350" lon="7.2701000"><ele></ele><time>2016-5-22T6:35:39Z</time></trkpt>
<trkpt lat="46.1798400" lon="7.2701417"><ele></ele><time>2016-5-22T6:35:42Z</time></trkpt>
<trkpt lat="46.1798467" lon="7.2701817"><ele></ele><time>2016-5-22T6:35:45Z</time></trkpt>
<trkpt lat="46.1798567" lon="7.2702150"><ele></ele><time>2016-5-22T6:35:48Z</time></trkpt>
<trkpt lat="46.1798683" lon="7.2702483"><ele></ele><time>2016-5-22T6:35:51Z</time></trkpt>
<trkpt lat="46.1798833" lon="7.2702817"><ele></ele><time>2016-5-22T6:35:54Z</time></trkpt>
<trkpt lat="46.1799000" lon="7.2703167"><ele></ele><time>2016-5-22T6:35:57Z</time></trkpt>
<trkpt lat="46.1799183" lon="7.2703533"><ele></ele><time>2016-5-22T6:36:0Z</time></trkpt>
<trkpt lat="46.1799350" lon="7.2703917"><ele></ele><time>2016-5-22T6:36:3Z</time></trkpt>
<trkpt lat="46.1799517" lon="7.2704317"><ele></ele><time>2016-5-22T6:36:6Z</time></trkpt>
<trkpt lat="46.1799650" lon="7.2704717"><ele></ele><time>2016-5-22T6:36:9Z</time></trkpt>
<trkpt lat="46.1799650" lon="7.2704717"><ele></ele><time>2016-5-22T6:36:12Z</time></trkpt>
<trkpt lat="46.1799783" lon="7.2705150"><ele></ele><time>2016-5-22T6:36:15Z</time></trkpt>
<trkpt lat="46.1799900" lon="7.2705583"><ele></ele><time>2016-5-22T6:36:18Z</time></trkpt>
<trkpt lat="46.1800000" lon="7.2706033"><ele></ele><time>2016-5-22T6:36:21Z</time></trkpt>
<trkpt lat="46.1800083" lon="7.2706467"><ele></ele><time>2016-5-22T6:36:24Z</time></trkpt>
<trkpt lat="46.1800183" lon="7.2706883"><ele></ele><time>2016-5-22T6:36:27Z</time></trkpt>
<trkpt lat="46.1800333" lon="7.2707267"><ele></ele><time>2016-5-22T6:36:30Z</time></trkpt>
<trkpt lat="46.1800500" lon="7.2707633"><ele></ele><time>2016-5-22T6:36:33Z</time></trkpt>
<trkpt lat="46.1800683" lon="7.2707967"><ele></ele><time>2016-5-22T6:36:36Z</time></trkpt>
<trkpt lat="46.1800833" lon="7.2708300"><ele></ele><time>2016-5-22T6:36:39Z</time></trkpt>
<trkpt lat="46.1800950" lon="7.2708600"><ele></ele><time>2016-5-22T6:36:42Z</time></trkpt>
<trkpt lat="46.1801017" lon="7.2708917"><ele></ele><time>2016-5-22T6:36:45Z</time></trkpt>
<trkpt lat="46.1801100" lon="7.2709217"><ele></ele><time>2016-5-22T6:36:48Z</time></trkpt>
<trkpt lat="46.1801100" lon="7.2709217"><ele></ele><time>2016-5-22T6:36:51Z</time></trkpt>
<trkpt lat="46.1801183" lon="7.2709500"><ele></ele><time>2016-5-22T6:36:54Z</time></trkpt>
<trkpt lat="46.1801233" lon="7.2709767"><ele></ele><time>2016-5-22T6:36:57Z</time></trkpt>
<trkpt lat="46.1801267" lon="7.2710050"><ele></ele><time>2016-5-22T6:37:0Z</time></trkpt>
<trkpt lat="46.1801267" lon="7.2710317"><ele></ele><time>2016-5-22T6:37:3Z</time></trkpt>
<trkpt lat="46.1801250" lon="7.2710567"><ele></ele><time>2016-5-22T6:37:6Z</time></trkpt>
<trkpt lat="46.1801250" lon="7.2710833"><ele></ele><time>2016-5-22T6:37:9Z</time></trkpt>
<trkpt lat="46.1801250" lon="7.2711100"><ele></ele><time>2016-5-22T6:37:12Z</time></trkpt>
<trkpt lat="46.1801250" lon="7.2711367"><ele></ele><time>2016-5-22T6:37:15Z</time></trkpt>
<trkpt lat="46.1801267" lon="7.2711633"><ele></ele><time>2016-5-22T6:37:18Z</time></trkpt>
<trkpt lat="46.1801267" lon="7.2711900"><ele></ele><time>2016-5-22T6:37:21Z</time></trkpt>
<trkpt lat="46.1801300" lon="7.2712150"><ele></ele><time>2016-5-22T6:37:24Z</time></trkpt>
<trkpt lat="46.1801400" lon="7.2712433"><ele></ele><time>2016-5-22T6:37:27Z</time></trkpt>
<trkpt lat="46.1801400" lon="7.2712433"><ele></ele><time>2016-5-22T6:37:30Z</time></trkpt>
<trkpt lat="46.1801533" lon="7.2712717"><ele></ele><time>2016-5-22T6:37:33Z</time></trkpt>
<trkpt lat="46.1801667" lon="7.2712967"><ele></ele><time>2016-5-22T6:37:36Z</time></trkpt>
<trkpt lat="46.1801783" lon="7.2713167"><ele></ele><time>2016-5-22T6:37:39Z</time></trkpt>
<trkpt lat="46.1801883" lon="7.2713383"><ele></ele><time>2016-5-22T6:37:42Z</time></trkpt>
<trkpt lat="46.1801967" lon="7.2713600"><ele></ele><time>2016-5-22T6:37:45Z</time></trkpt>
<trkpt lat="46.1802033" lon="7.2713750"><ele></ele><time>2016-5-22T6:37:48Z</time></trkpt>
<trkpt lat="46.1802117" lon="7.2713917"><ele></ele><time>2016-5-22T6:37:51Z</time></trkpt>
<trkpt lat="46.1802250" lon="7.2714117"><ele></ele><time>2016-5-22T6:37:54Z</time></trkpt>
<trkpt lat="46.1802367" lon="7.2714300"><ele></ele><time>2016-5-22T6:37:57Z</time></trkpt>
<trkpt lat="46.1802483" lon="7.2714517"><ele></ele><time>2016-5-22T6:38:0Z</time></trkpt>
<trkpt lat="46.1802567" lon="7.2714733"><ele></ele><time>2016-5-22T6:38:3Z</time></trkpt>
<trkpt lat="46.1802600" lon="7.2714950"><ele></ele><time>2016-5-22T6:38:6Z</time></trkpt>
<trkpt lat="46.1802600" lon="7.2714950"><ele></ele><time>2016-5-22T6:38:9Z</time></trkpt>
<trkpt lat="46.1802617" lon="7.2715183"><ele></ele><time>2016-5-22T6:38:12Z</time></trkpt>
<trkpt lat="46.1802617" lon="7.2715383"><ele></ele><time>2016-5-22T6:38:15Z</time></trkpt>
<trkpt lat="46.1802617" lon="7.2715583"><ele></ele><time>2016-5-22T6:38:18Z</time></trkpt>
<trkpt lat="46.1802633" lon="7.2715783"><ele></ele><time>2016-5-22T6:38:21Z</time></trkpt>
<trkpt lat="46.1802633" lon="7.2716033"><ele></ele><time>2016-5-22T6:38:24Z</time></trkpt>
<trkpt lat="46.1802667" lon="7.2716317"><ele></ele><time>2016-5-22T6:38:27Z</time></trkpt>
<trkpt lat="46.1802717" lon="7.2716583"><ele></ele><time>2016-5-22T6:38:30Z</time></trkpt>
<trkpt lat="46.1802783" lon="7.2716817"><ele></ele><time>2016-5-22T6:38:33Z</time></trkpt>
<trkpt lat="46.1802833" lon="7.2717033"><ele></ele><time>2016-5-22T6:38:36Z</time></trkpt>
<trkpt lat="46.1802867" lon="7.2717333"><ele></ele><time>2016-5-22T6:38:39Z</time></trkpt>
<trkpt lat="46.1802883" lon="7.2717650"><ele></ele><time>2016-5-22T6:38:42Z</time></trkpt>
<trkpt lat="46.1802883" lon="7.2717967"><ele></ele><time>2016-5-22T6:38:45Z</time></trkpt>
<trkpt lat="46.1802883" lon="7.2717967"><ele></ele><time>2016-5-22T6:38:48Z</time></trkpt>
<trkpt lat="46.1802883" lon="7.2718283"><ele></ele><time>2016-5-22T6:38:51Z</time></trkpt>
<trkpt lat="46.1802917" lon="7.2718617"><ele></ele><time>2016-5-22T6:38:54Z</time></trkpt>
<trkpt lat="46.1802967" lon="7.2718933"><ele></ele><time>2016-5-22T6:38:57Z</time></trkpt>
<trkpt lat="46.1803017" lon="7.2719233"><ele></ele><time>2016-5-22T6:39:0Z</time></trkpt>
<trkpt lat="46.1803067" lon="7.2719500"><ele></ele><time>2016-5-22T6:39:3Z</time></trkpt>
<trkpt lat="46.1803117" lon="7.2719700"><ele></ele><time>2016-5-22T6:39:6Z</time></trkpt>
<trkpt lat="46.1803200" lon="7.2719917"><ele></ele><time>2016-5-22T6:39:9Z</time></trkpt>
<trkpt lat="46.1803283" lon="7.2720117"><ele></ele><time>2016-5-22T6:39:12Z</time></trkpt>
<trkpt lat="46.1803400" lon="7.2720333"><ele></ele><time>2016-5-22T6:39:15Z</time></trkpt>
<trkpt lat="46.1803500" lon="7.2720650"><ele></ele><time>2016-5-22T6:39:18Z</time></trkpt>
<trkpt lat="46.1803600" lon="7.2721033"><ele></ele><time>2016-5-22T6:39:21Z</time></trkpt>
<trkpt lat="46.1803633" lon="7.2721350"><ele></ele><time>2016-5-22T6:39:24Z</time></trkpt>
<trkpt lat="46.1803633" lon="7.2721350"><ele></ele><time>2016-5-22T6:39:27Z</time></trkpt>
<trkpt lat="46.1803683" lon="7.2721633"><ele></ele><time>2016-5-22T6:39:30Z</time></trkpt>
<trkpt lat="46.1803800" lon="7.2721900"><ele></ele><time>2016-5-22T6:39:33Z</time></trkpt>
<trkpt lat="46.1803950" lon="7.2722150"><ele></ele><time>2016-5-22T6:39:36Z</time></trkpt>
<trkpt lat="46.1804117" lon="7.2722383"><ele></ele><time>2016-5-22T6:39:39Z</time></trkpt>
<trkpt lat="46.1804267" lon="7.2722583"><ele></ele><time>2016-5-22T6:39:42Z</time></trkpt>
<trkpt lat="46.1804433" lon="7.2722783"><ele></ele><time>2016-5-22T6:39:45Z</time></trkpt>
<trkpt lat="46.1804617" lon="7.2722983"><ele></ele><time>2016-5-22T6:39:48Z</time></trkpt>
<trkpt lat="46.1804783" lon="7.2723117"><ele></ele><time>2016-5-22T6:39:51Z</time></trkpt>
<trkpt lat="46.1804967" lon="7.2723250"><ele></ele><time>2016-5-22T6:39:54Z</time></trkpt>
<trkpt lat="46.1805167" lon="7.2723417"><ele></ele><time>2016-5-22T6:39:57Z</time></trkpt>
<trkpt lat="46.1805300" lon="7.2723633"><ele></ele><time>2016-5-22T6:40:0Z</time></trkpt>
<trkpt lat="46.1805400" lon="7.2723833"><ele></ele><time>2016-5-22T6:40:3Z</time></trkpt>
<trkpt lat="46.1805400" lon="7.2723833"><ele></ele><time>2016-5-22T6:40:6Z</time></trkpt>
<trkpt lat="46.1805483" lon="7.2724083"><ele></ele><time>2016-5-22T6:40:9Z</time></trkpt>
<trkpt lat="46.1805600" lon="7.2724350"><ele></ele><time>2016-5-22T6:40:12Z</time></trkpt>
<trkpt lat="46.1805700" lon="7.2724600"><ele></ele><time>2016-5-22T6:40:15Z</time></trkpt>
<trkpt lat="46.1805817" lon="7.2724883"><ele></ele><time>2016-5-22T6:40:18Z</time></trkpt>
<trkpt lat="46.1805950" lon="7.2725150"><ele></ele><time>2016-5-22T6:40:21Z</time></trkpt>
<trkpt lat="46.1806067" lon="7.2725400"><ele></ele><time>2016-5-22T6:40:24Z</time></trkpt>
<trkpt lat="46.1806217" lon="7.2725700"><ele></ele><time>2016-5-22T6:40:27Z</time></trkpt>
<trkpt lat="46.1806367" lon="7.2725983"><ele></ele><time>2016-5-22T6:40:30Z</time></trkpt>
<trkpt lat="46.1806533" lon="7.2726217"><ele></ele><time>2016-5-22T6:40:33Z</time></trkpt>
<trkpt lat="46.1806717" lon="7.2726433"><ele></ele><time>2016-5-22T6:40:36Z</time></trkpt>
<trkpt lat="46.1806867" lon="7.2726667"><ele></ele><time>2016-5-22T6:40:39Z</time></trkpt>
<trkpt lat="46.1807033" lon="7.2726950"><ele></ele><time>2016-5-22T6:40:42Z</time></trkpt>
<trkpt lat="46.1807033" lon="7.2726950"><ele></ele><time>2016-5-22T6:40:45Z</time></trkpt>
<trkpt lat="46.1807183" lon="7.2727250"><ele></ele><time>2016-5-22T6:40:48Z</time></trkpt>
<trkpt lat="46.1807300" lon="7.2727583"><ele></ele><time>2016-5-22T6:40:51Z</time></trkpt>
<trkpt lat="46.1807400" lon="7.2727900"><ele></ele><time>2016-5-22T6:40:54Z</time></trkpt>
<trkpt lat="46.1807517" lon="7.2728183"><ele></ele><time>2016-5-22T6:40:57Z</time></trkpt>
<trkpt lat="46.1807617" lon="7.2728467"><ele></ele><time>2016-5-22T6:41:0Z</time></trkpt>
<trkpt lat="46.1807750" lon="7.2728733"><ele></ele><time>2016-5-22T6:41:3Z</time></trkpt>
<trkpt lat="46.1807867" lon="7.2728983"><ele></ele><time>2016-5-22T6:41:6Z</time></trkpt>
<trkpt lat="46.1807983" lon="7.2729250"><ele></ele><time>2016-5-22T6:41:9Z</time></trkpt>
<trkpt lat="46.1808117" lon="7.2729483"><ele></ele><time>2016-5-22T6:41:12Z</time></trkpt>
<trkpt lat="46.1808217" lon="7.2729750"><ele></ele><time>2016-5-22T6:41:15Z</time></trkpt>
<trkpt lat="46.1808283" lon="7.2730017"><ele></ele><time>2016-5-22T6:41:18Z</time></trkpt>
<trkpt lat="46.1808367" lon="7.2730283"><ele></ele><time>2016-5-22T6:41:21Z</time></trkpt>
<trkpt lat="46.1808367" lon="7.2730283"><ele></ele><time>2016-5-22T6:41:24Z</time></trkpt>
<trkpt lat="46.1808450" lon="7.2730533"><ele></ele><time>2016-5-22T6:41:27Z</time></trkpt>
<trkpt lat="46.1808533" lon="7.2730767"><ele></ele><time>2016-5-22T6:41:30Z</time></trkpt>
<trkpt lat="46.1808633" lon="7.2731017"><ele></ele><time>2016-5-22T6:41:33Z</time></trkpt>
<trkpt lat="46.1808733" lon="7.2731250"><ele></ele><time>2016-5-22T6:41:36Z</time></trkpt>
<trkpt lat="46.1808900" lon="7.2731483"><ele></ele><time>2016-5-22T6:41:39Z</time></trkpt>
<trkpt lat="46.1809133" lon="7.2731733"><ele></ele><time>2016-5-22T6:41:42Z</time></trkpt>
<trkpt lat="46.1809383" lon="7.2732000"><ele></ele><time>2016-5-22T6:41:45Z</time></trkpt>
<trkpt lat="46.1809600" lon="7.2732233"><ele></ele><time>2016-5-22T6:41:48Z</time></trkpt>
<trkpt lat="46.1809767" lon="7.2732450"><ele></ele><time>2016-5-22T6:41:51Z</time></trkpt>
<trkpt lat="46.1809883" lon="7.2732683"><ele></ele><time>2016-5-22T6:41:54Z</time></trkpt>
<trkpt lat="46.1810033" lon="7.2732950"><ele></ele><time>2016-5-22T6:41:57Z</time></trkpt>
<trkpt lat="46.1810200" lon="7.2733250"><ele></ele><time>2016-5-22T6:42:0Z</time></trkpt>
<trkpt lat="46.1810200" lon="7.2733250"><ele></ele><time>2016-5-22T6:42:3Z</time></trkpt>
<trkpt lat="46.1810333" lon="7.2733567"><ele></ele><time>2016-5-22T6:42:6Z</time></trkpt>
<trkpt lat="46.1810417" lon="7.2733883"><ele></ele><time>2016-5-22T6:42:9Z</time></trkpt>
<trkpt lat="46.1810450" lon="7.2734200"><ele></ele><time>2016-5-22T6:42:12Z</time></trkpt>
<trkpt lat="46.1810467" lon="7.2734433"><ele></ele><time>2016-5-22T6:42:15Z</time></trkpt>
<trkpt lat="46.1810450" lon="7.2734750"><ele></ele><time>2016-5-22T6:42:18Z</time></trkpt>
<trkpt lat="46.1810400" lon="7.2735100"><ele></ele><time>2016-5-22T6:42:21Z</time></trkpt>
<trkpt lat="46.1810317" lon="7.2735383"><ele></ele><time>2016-5-22T6:42:24Z</time></trkpt>
<trkpt lat="46.1810200" lon="7.2735650"><ele></ele><time>2016-5-22T6:42:27Z</time></trkpt>
<trkpt lat="46.1810100" lon="7.2735900"><ele></ele><time>2016-5-22T6:42:30Z</time></trkpt>
<trkpt lat="46.1810033" lon="7.2736133"><ele></ele><time>2016-5-22T6:42:33Z</time></trkpt>
<trkpt lat="46.1809983" lon="7.2736367"><ele></ele><time>2016-5-22T6:42:36Z</time></trkpt>
<trkpt lat="46.1809933" lon="7.2736583"><ele></ele><time>2016-5-22T6:42:39Z</time></trkpt>
<trkpt lat="46.1809933" lon="7.2736583"><ele></ele><time>2016-5-22T6:42:42Z</time></trkpt>
<trkpt lat="46.1809883" lon="7.2736817"><ele></ele><time>2016-5-22T6:42:45Z</time></trkpt>
<trkpt lat="46.1809817" lon="7.2737033"><ele></ele><time>2016-5-22T6:42:48Z</time></trkpt>
<trkpt lat="46.1809733" lon="7.2737267"><ele></ele><time>2016-5-22T6:42:51Z</time></trkpt>
<trkpt lat="46.1809667" lon="7.2737467"><ele></ele><time>2016-5-22T6:42:54Z</time></trkpt>
<trkpt lat="46.1809567" lon="7.2737600"><ele></ele><time>2016-5-22T6:42:57Z</time></trkpt>
<trkpt lat="46.1809567" lon="7.2737833"><ele></ele><time>2016-5-22T6:43:0Z</time></trkpt>
<trkpt lat="46.1809617" lon="7.2738150"><ele></ele><time>2016-5-22T6:43:3Z</time></trkpt>
<trkpt lat="46.1809733" lon="7.2738467"><ele></ele><time>2016-5-22T6:43:6Z</time></trkpt>
<trkpt lat="46.1809850" lon="7.2738717"><ele></ele><time>2016-5-22T6:43:9Z</time></trkpt>
<trkpt lat="46.1810017" lon="7.2738967"><ele></ele><time>2016-5-22T6:43:12Z</time></trkpt>
<trkpt lat="46.1810183" lon="7.2739200"><ele></ele><time>2016-5-22T6:43:15Z</time></trkpt>
<trkpt lat="46.1810367" lon="7.2739383"><ele></ele><time>2016-5-22T6:43:18Z</time></trkpt>
<trkpt lat="46.1810367" lon="7.2739383"><ele></ele><time>2016-5-22T6:43:21Z</time></trkpt>
<trkpt lat="46.1810517" lon="7.2739583"><ele></ele><time>2016-5-22T6:43:24Z</time></trkpt>
<trkpt lat="46.1810633" lon="7.2739767"><ele></ele><time>2016-5-22T6:43:27Z</time></trkpt>
<trkpt lat="46.1810767" lon="7.2739967"><ele></ele><time>2016-5-22T6:43:30Z</time></trkpt>
<trkpt lat="46.1810917" lon="7.2740167"><ele></ele><time>2016-5-22T6:43:33Z</time></trkpt>
<trkpt lat="46.1811033" lon="7.2740317"><ele></ele><time>2016-5-22T6:43:36Z</time></trkpt>
<trkpt lat="46.1811167" lon="7.2740450"><ele></ele><time>2016-5-22T6:43:39Z</time></trkpt>
<trkpt lat="46.1811317" lon="7.2740583"><ele></ele><time>2016-5-22T6:43:42Z</time></trkpt>
<trkpt lat="46.1811533" lon="7.2740750"><ele></ele><time>2016-5-22T6:43:45Z</time></trkpt>
<trkpt lat="46.1811733" lon="7.2740900"><ele></ele><time>2016-5-22T6:43:48Z</time></trkpt>
<trkpt lat="46.1811883" lon="7.2741033"><ele></ele><time>2016-5-22T6:43:51Z</time></trkpt>
<trkpt lat="46.1812033" lon="7.2741167"><ele></ele><time>2016-5-22T6:43:54Z</time></trkpt>
<trkpt lat="46.1812150" lon="7.2741400"><ele></ele><time>2016-5-22T6:43:57Z</time></trkpt>
<trkpt lat="46.1812150" lon="7.2741400"><ele></ele><time>2016-5-22T6:44:0Z</time></trkpt>
<trkpt lat="46.1812267" lon="7.2741667"><ele></ele><time>2016-5-22T6:44:3Z</time></trkpt>
<trkpt lat="46.1812417" lon="7.2741967"><ele></ele><time>2016-5-22T6:44:6Z</time></trkpt>
<trkpt lat="46.1812550" lon="7.2742200"><ele></ele><time>2016-5-22T6:44:9Z</time></trkpt>
<trkpt lat="46.1812683" lon="7.2742417"><ele></ele><time>2016-5-22T6:44:12Z</time></trkpt>
<trkpt lat="46.1812817" lon="7.2742683"><ele></ele><time>2016-5-22T6:44:15Z</time></trkpt>
<trkpt lat="46.1812917" lon="7.2743000"><ele></ele><time>2016-5-22T6:44:18Z</time></trkpt>
<trkpt lat="46.1812950" lon="7.2743333"><ele></ele><time>2016-5-22T6:44:21Z</time></trkpt>
<trkpt lat="46.1812983" lon="7.2743700"><ele></ele><time>2016-5-22T6:44:24Z</time></trkpt>
<trkpt lat="46.1813033" lon="7.2744067"><ele></ele><time>2016-5-22T6:44:27Z</time></trkpt>
<trkpt lat="46.1813100" lon="7.2744433"><ele></ele><time>2016-5-22T6:44:30Z</time></trkpt>
<trkpt lat="46.1813167" lon="7.2744800"><ele></ele><time>2016-5-22T6:44:33Z</time></trkpt>
<trkpt lat="46.1813283" lon="7.2745167"><ele></ele><time>2016-5-22T6:44:36Z</time></trkpt>
<trkpt lat="46.1813283" lon="7.2745167"><ele></ele><time>2016-5-22T6:44:39Z</time></trkpt>
<trkpt lat="46.1813400" lon="7.2745500"><ele></ele><time>2016-5-22T6:44:42Z</time></trkpt>
<trkpt lat="46.1813517" lon="7.2745783"><ele></ele><time>2016-5-22T6:44:45Z</time></trkpt>
<trkpt lat="46.1813633" lon="7.2746100"><ele></ele><time>2016-5-22T6:44:48Z</time></trkpt>
<trkpt lat="46.1813733" lon="7.2746400"><ele></ele><time>2016-5-22T6:44:51Z</time></trkpt>
<trkpt lat="46.1813783" lon="7.2746683"><ele></ele><time>2016-5-22T6:44:54Z</time></trkpt>
<trkpt lat="46.1813817" lon="7.2747017"><ele></ele><time>2016-5-22T6:44:57Z</time></trkpt>
<trkpt lat="46.1813867" lon="7.2747317"><ele></ele><time>2016-5-22T6:45:0Z</time></trkpt>
<trkpt lat="46.1813983" lon="7.2747600"><ele></ele><time>2016-5-22T6:45:3Z</time></trkpt>
<trkpt lat="46.1814117" lon="7.2747950"><ele></ele><time>2016-5-22T6:45:6Z</time></trkpt>
<trkpt lat="46.1814250" lon="7.2748300"><ele></ele><time>2016-5-22T6:45:9Z</time></trkpt>
<trkpt lat="46.1814400" lon="7.2748683"><ele></ele><time>2016-5-22T6:45:12Z</time></trkpt>
<trkpt lat="46.1814533" lon="7.2749050"><ele></ele><time>2016-5-22T6:45:15Z</time></trkpt>
<trkpt lat="46.1814533" lon="7.2749050"><ele></ele><time>2016-5-22T6:45:18Z</time></trkpt>
<trkpt lat="46.1814667" lon="7.2749433"><ele></ele><time>2016-5-22T6:45:21Z</time></trkpt>
<trkpt lat="46.1814733" lon="7.2749800"><ele></ele><time>2016-5-22T6:45:24Z</time></trkpt>
<trkpt lat="46.1814800" lon="7.2750183"><ele></ele><time>2016-5-22T6:45:27Z</time></trkpt>
<trkpt lat="46.1814867" lon="7.2750617"><ele></ele><time>2016-5-22T6:45:30Z</time></trkpt>
<trkpt lat="46.1814933" lon="7.2751050"><ele></ele><time>2016-5-22T6:45:33Z</time></trkpt>
<trkpt lat="46.1815000" lon="7.2751467"><ele></ele><time>2016-5-22T6:45:36Z</time></trkpt>
<trkpt lat="46.1815083" lon="7.2751850"><ele></ele><time>2016-5-22T6:45:39Z</time></trkpt>
<trkpt lat="46.1815217" lon="7.2752250"><ele></ele><time>2016-5-22T6:45:42Z</time></trkpt>
<trkpt lat="46.1815400" lon="7.2752650"><ele></ele><time>2016-5-22T6:45:45Z</time></trkpt>
<trkpt lat="46.1815550" lon="7.2752967"><ele></ele><time>2016-5-22T6:45:48Z</time></trkpt>
<trkpt lat="46.1815683" lon="7.2753217"><ele></ele><time>2016-5-22T6:45:51Z</time></trkpt>
<trkpt lat="46.1815800" lon="7.2753467"><ele></ele><time>2016-5-22T6:45:54Z</time></trkpt>
<trkpt lat="46.1815800" lon="7.2753467"><ele></ele><time>2016-5-22T6:45:57Z</time></trkpt>
<trkpt lat="46.1815933" lon="7.2753717"><ele></ele><time>2016-5-22T6:46:0Z</time></trkpt>
<trkpt lat="46.1816100" lon="7.2754017"><ele></ele><time>2016-5-22T6:46:3Z</time></trkpt>
<trkpt lat="46.1816233" lon="7.2754317"><ele></ele><time>2016-5-22T6:46:6Z</time></trkpt>
<trkpt lat="46.1816333" lon="7.2754633"><ele></ele><time>2016-5-22T6:46:9Z</time></trkpt>
<trkpt lat="46.1816417" lon="7.2754950"><ele></ele><time>2016-5-22T6:46:12Z</time></trkpt>
<trkpt lat="46.1816500" lon="7.2755250"><ele></ele><time>2016-5-22T6:46:15Z</time></trkpt>
<trkpt lat="46.1816567" lon="7.2755550"><ele></ele><time>2016-5-22T6:46:18Z</time></trkpt>
<trkpt lat="46.1816633" lon="7.2755833"><ele></ele><time>2016-5-22T6:46:21Z</time></trkpt>
<trkpt lat="46.1816683" lon="7.2756133"><ele></ele><time>2016-5-22T6:46:24Z</time></trkpt>
<trkpt lat="46.1816817" lon="7.2756450"><ele></ele><time>2016-5-22T6:46:27Z</time></trkpt>
<trkpt lat="46.1816967" lon="7.2756800"><ele></ele><time>2016-5-22T6:46:30Z</time></trkpt>
<trkpt lat="46.1817167" lon="7.2757117"><ele></ele><time>2016-5-22T6:46:33Z</time></trkpt>
<trkpt lat="46.1817167" lon="7.2757117"><ele></ele><time>2016-5-22T6:46:36Z</time></trkpt>
<trkpt lat="46.1817350" lon="7.2757417"><ele></ele><time>2016-5-22T6:46:39Z</time></trkpt>
<trkpt lat="46.1817500" lon="7.2757683"><ele></ele><time>2016-5-22T6:46:42Z</time></trkpt>
<trkpt lat="46.1817600" lon="7.2757950"><ele></ele><time>2016-5-22T6:46:45Z</time></trkpt>
<trkpt lat="46.1817733" lon="7.2758267"><ele></ele><time>2016-5-22T6:46:48Z</time></trkpt>
<trkpt lat="46.1817850" lon="7.2758550"><ele></ele><time>2016-5-22T6:46:51Z</time></trkpt>
<trkpt lat="46.1817933" lon="7.2758783"><ele></ele><time>2016-5-22T6:46:54Z</time></trkpt>
<trkpt lat="46.1818033" lon="7.2759050"><ele></ele><time>2016-5-22T6:46:57Z</time></trkpt>
<trkpt lat="46.1818150" lon="7.2759367"><ele></ele><time>2016-5-22T6:47:0Z</time></trkpt>
<trkpt lat="46.1818283" lon="7.2759700"><ele></ele><time>2016-5-22T6:47:3Z</time></trkpt>
<trkpt lat="46.1818433" lon="7.2760017"><ele></ele><time>2016-5-22T6:47:6Z</time></trkpt>
<trkpt lat="46.1818567" lon="7.2760300"><ele></ele><time>2016-5-22T6:47:9Z</time></trkpt>
<trkpt lat="46.1818700" lon="7.2760633"><ele></ele><time>2016-5-22T6:47:12Z</time></trkpt>
<trkpt lat="46.1818767" lon="7.2760950"><ele></ele><time>2016-5-22T6:47:15Z</time></trkpt>
<trkpt lat="46.1818800" lon="7.2761250"><ele></ele><time>2016-5-22T6:47:18Z</time></trkpt>
<trkpt lat="46.1818867" lon="7.2761617"><ele></ele><time>2016-5-22T6:47:21Z</time></trkpt>
<trkpt lat="46.1818983" lon="7.2761983"><ele></ele><time>2016-5-22T6:47:24Z</time></trkpt>
<trkpt lat="46.1819083" lon="7.2762333"><ele></ele><time>2016-5-22T6:47:27Z</time></trkpt>
<trkpt lat="46.1819200" lon="7.2762650"><ele></ele><time>2016-5-22T6:47:30Z</time></trkpt>
<trkpt lat="46.1819283" lon="7.2762967"><ele></ele><time>2016-5-22T6:47:33Z</time></trkpt>
<trkpt lat="46.1819400" lon="7.2763333"><ele></ele><time>2016-5-22T6:47:36Z</time></trkpt>
<trkpt lat="46.1819517" lon="7.2763700"><ele></ele><time>2016-5-22T6:47:39Z</time></trkpt>
<trkpt lat="46.1819650" lon="7.2764067"><ele></ele><time>2016-5-22T6:47:42Z</time></trkpt>
<trkpt lat="46.1819800" lon="7.2764450"><ele></ele><time>2016-5-22T6:47:45Z</time></trkpt>
<trkpt lat="46.1819933" lon="7.2764800"><ele></ele><time>2016-5-22T6:47:48Z</time></trkpt>
<trkpt lat="46.1820067" lon="7.2765117"><ele></ele><time>2016-5-22T6:47:51Z</time></trkpt>
<trkpt lat="46.1820183" lon="7.2765433"><ele></ele><time>2016-5-22T6:47:54Z</time></trkpt>
<trkpt lat="46.1820283" lon="7.2765750"><ele></ele><time>2016-5-22T6:47:57Z</time></trkpt>
<trkpt lat="46.1820450" lon="7.2766100"><ele></ele><time>2016-5-22T6:48:0Z</time></trkpt>
<trkpt lat="46.1820600" lon="7.2766433"><ele></ele><time>2016-5-22T6:48:3Z</time></trkpt>
<trkpt lat="46.1820733" lon="7.2766733"><ele></ele><time>2016-5-22T6:48:6Z</time></trkpt>
<trkpt lat="46.1820867" lon="7.2767017"><ele></ele><time>2016-5-22T6:48:9Z</time></trkpt>
<trkpt lat="46.1821017" lon="7.2767317"><ele></ele><time>2016-5-22T6:48:12Z</time></trkpt>
<trkpt lat="46.1821183" lon="7.2767650"><ele></ele><time>2016-5-22T6:48:15Z</time></trkpt>
<trkpt lat="46.1821383" lon="7.2767950"><ele></ele><time>2016-5-22T6:48:18Z</time></trkpt>
<trkpt lat="46.1821583" lon="7.2768217"><ele></ele><time>2016-5-22T6:48:21Z</time></trkpt>
<trkpt lat="46.1821717" lon="7.2768467"><ele></ele><time>2016-5-22T6:48:24Z</time></trkpt>
<trkpt lat="46.1821817" lon="7.2768717"><ele></ele><time>2016-5-22T6:48:27Z</time></trkpt>
<trkpt lat="46.1821967" lon="7.2769033"><ele></ele><time>2016-5-22T6:48:30Z</time></trkpt>
<trkpt lat="46.1822133" lon="7.2769350"><ele></ele><time>2016-5-22T6:48:33Z</time></trkpt>
<trkpt lat="46.1822283" lon="7.2769717"><ele></ele><time>2016-5-22T6:48:36Z</time></trkpt>
<trkpt lat="46.1822433" lon="7.2770050"><ele></ele><time>2016-5-22T6:48:39Z</time></trkpt>
<trkpt lat="46.1822567" lon="7.2770350"><ele></ele><time>2016-5-22T6:48:42Z</time></trkpt>
<trkpt lat="46.1822683" lon="7.2770650"><ele></ele><time>2016-5-22T6:48:45Z</time></trkpt>
<trkpt lat="46.1822800" lon="7.2770967"><ele></ele><time>2016-5-22T6:48:48Z</time></trkpt>
<trkpt lat="46.1822933" lon="7.2771300"><ele></ele><time>2016-5-22T6:48:51Z</time></trkpt>
<trkpt lat="46.1823083" lon="7.2771617"><ele></ele><time>2016-5-22T6:48:54Z</time></trkpt>
<trkpt lat="46.1823200" lon="7.2771950"><ele></ele><time>2016-5-22T6:48:57Z</time></trkpt>
<trkpt lat="46.1823300" lon="7.2772300"><ele></ele><time>2016-5-22T6:49:0Z</time></trkpt>
<trkpt lat="46.1823467" lon="7.2772633"><ele></ele><time>2016-5-22T6:49:3Z</time></trkpt>
<trkpt lat="46.1823633" lon="7.2772950"><ele></ele><time>2016-5-22T6:49:6Z</time></trkpt>
<trkpt lat="46.1823800" lon="7.2773250"><ele></ele><time>2016-5-22T6:49:9Z</time></trkpt>
<trkpt lat="46.1823967" lon="7.2773533"><ele></ele><time>2016-5-22T6:49:12Z</time></trkpt>
<trkpt lat="46.1824117" lon="7.2773833"><ele></ele><time>2016-5-22T6:49:15Z</time></trkpt>
<trkpt lat="46.1824300" lon="7.2774117"><ele></ele><time>2016-5-22T6:49:18Z</time></trkpt>
<trkpt lat="46.1824450" lon="7.2774367"><ele></ele><time>2016-5-22T6:49:21Z</time></trkpt>
<trkpt lat="46.1824583" lon="7.2774650"><ele></ele><time>2016-5-22T6:49:24Z</time></trkpt>
<trkpt lat="46.1824700" lon="7.2774950"><ele></ele><time>2016-5-22T6:49:27Z</time></trkpt>
<trkpt lat="46.1824800" lon="7.2775250"><ele></ele><time>2016-5-22T6:49:30Z</time></trkpt>
<trkpt lat="46.1824867" lon="7.2775533"><ele></ele><time>2016-5-22T6:49:33Z</time></trkpt>
<trkpt lat="46.1824883" lon="7.2775783"><ele></ele><time>2016-5-22T6:49:36Z</time></trkpt>
<trkpt lat="46.1824883" lon="7.2776050"><ele></ele><time>2016-5-22T6:49:39Z</time></trkpt>
<trkpt lat="46.1824917" lon="7.2776317"><ele></ele><time>2016-5-22T6:49:42Z</time></trkpt>
<trkpt lat="46.1824983" lon="7.2776600"><ele></ele><time>2016-5-22T6:49:45Z</time></trkpt>
<trkpt lat="46.1825050" lon="7.2776883"><ele></ele><time>2016-5-22T6:49:48Z</time></trkpt>
<trkpt lat="46.1825100" lon="7.2777150"><ele></ele><time>2016-5-22T6:49:51Z</time></trkpt>
<trkpt lat="46.1825167" lon="7.2777383"><ele></ele><time>2016-5-22T6:49:54Z</time></trkpt>
<trkpt lat="46.1825217" lon="7.2777633"><ele></ele><time>2016-5-22T6:49:57Z</time></trkpt>
<trkpt lat="46.1825317" lon="7.2777850"><ele></ele><time>2016-5-22T6:50:0Z</time></trkpt>
<trkpt lat="46.1825433" lon="7.2778083"><ele></ele><time>2016-5-22T6:50:3Z</time></trkpt>
<trkpt lat="46.1825517" lon="7.2778333"><ele></ele><time>2016-5-22T6:50:6Z</time></trkpt>
<trkpt lat="46.1825583" lon="7.2778583"><ele></ele><time>2016-5-22T6:50:9Z</time></trkpt>
<trkpt lat="46.1825600" lon="7.2778800"><ele></ele><time>2016-5-22T6:50:12Z</time></trkpt>
<trkpt lat="46.1825617" lon="7.2779033"><ele></ele><time>2016-5-22T6:50:15Z</time></trkpt>
<trkpt lat="46.1825633" lon="7.2779283"><ele></ele><time>2016-5-22T6:50:18Z</time></trkpt>
<trkpt lat="46.1825650" lon="7.2779500"><ele></ele><time>2016-5-22T6:50:21Z</time></trkpt>
<trkpt lat="46.1825667" lon="7.2779717"><ele></ele><time>2016-5-22T6:50:24Z</time></trkpt>
<trkpt lat="46.1825700" lon="7.2779983"><ele></ele><time>2016-5-22T6:50:27Z</time></trkpt>
<trkpt lat="46.1825750" lon="7.2780250"><ele></ele><time>2016-5-22T6:50:30Z</time></trkpt>
<trkpt lat="46.1825783" lon="7.2780517"><ele></ele><time>2016-5-22T6:50:33Z</time></trkpt>
<trkpt lat="46.1825817" lon="7.2780750"><ele></ele><time>2016-5-22T6:50:36Z</time></trkpt>
<trkpt lat="46.1825867" lon="7.2781067"><ele></ele><time>2016-5-22T6:50:39Z</time></trkpt>
<trkpt lat="46.1825917" lon="7.2781383"><ele></ele><time>2016-5-22T6:50:42Z</time></trkpt>
<trkpt lat="46.1825950" lon="7.2781650"><ele></ele><time>2016-5-22T6:50:45Z</time></trkpt>
<trkpt lat="46.1826033" lon="7.2781967"><ele></ele><time>2016-5-22T6:50:48Z</time></trkpt>
<trkpt lat="46.1826150" lon="7.2782233"><ele></ele><time>2016-5-22T6:50:51Z</time></trkpt>
<trkpt lat="46.1826200" lon="7.2782433"><ele></ele><time>2016-5-22T6:50:54Z</time></trkpt>
<trkpt lat="46.1826200" lon="7.2782633"><ele></ele><time>2016-5-22T6:50:57Z</time></trkpt>
<trkpt lat="46.1826267" lon="7.2782867"><ele></ele><time>2016-5-22T6:51:0Z</time></trkpt>
<trkpt lat="46.1826317" lon="7.2783117"><ele></ele><time>2016-5-22T6:51:3Z</time></trkpt>
<trkpt lat="46.1826350" lon="7.2783333"><ele></ele><time>2016-5-22T6:51:6Z</time></trkpt>
<trkpt lat="46.1826367" lon="7.2783550"><ele></ele><time>2016-5-22T6:51:9Z</time></trkpt>
<trkpt lat="46.1826450" lon="7.2783750"><ele></ele><time>2016-5-22T6:51:12Z</time></trkpt>
<trkpt lat="46.1826567" lon="7.2783967"><ele></ele><time>2016-5-22T6:51:15Z</time></trkpt>
<trkpt lat="46.1826683" lon="7.2784167"><ele></ele><time>2016-5-22T6:51:18Z</time></trkpt>
<trkpt lat="46.1826783" lon="7.2784367"><ele></ele><time>2016-5-22T6:51:21Z</time></trkpt>
<trkpt lat="46.1826867" lon="7.2784550"><ele></ele><time>2016-5-22T6:51:24Z</time></trkpt>
<trkpt lat="46.1826933" lon="7.2784783"><ele></ele><time>2016-5-22T6:51:27Z</time></trkpt>
<trkpt lat="46.1827117" lon="7.2785067"><ele></ele><time>2016-5-22T6:51:30Z</time></trkpt>
<trkpt lat="46.1827267" lon="7.2785283"><ele></ele><time>2016-5-22T6:51:33Z</time></trkpt>
<trkpt lat="46.1827317" lon="7.2785433"><ele></ele><time>2016-5-22T6:51:36Z</time></trkpt>
<trkpt lat="46.1827400" lon="7.2785600"><ele></ele><time>2016-5-22T6:51:39Z</time></trkpt>
<trkpt lat="46.1827483" lon="7.2785800"><ele></ele><time>2016-5-22T6:51:42Z</time></trkpt>
<trkpt lat="46.1827550" lon="7.2786000"><ele></ele><time>2016-5-22T6:51:45Z</time></trkpt>
<trkpt lat="46.1827600" lon="7.2786167"><ele></ele><time>2016-5-22T6:51:48Z</time></trkpt>
<trkpt lat="46.1827667" lon="7.2786333"><ele></ele><time>2016-5-22T6:51:51Z</time></trkpt>
<trkpt lat="46.1827733" lon="7.2786533"><ele></ele><time>2016-5-22T6:51:54Z</time></trkpt>
<trkpt lat="46.1827800" lon="7.2786667"><ele></ele><time>2016-5-22T6:51:57Z</time></trkpt>
<trkpt lat="46.1827900" lon="7.2786817"><ele></ele><time>2016-5-22T6:52:0Z</time></trkpt>
<trkpt lat="46.1828017" lon="7.2786950"><ele></ele><time>2016-5-22T6:52:3Z</time></trkpt>
<trkpt lat="46.1828133" lon="7.2787067"><ele></ele><time>2016-5-22T6:52:6Z</time></trkpt>
<trkpt lat="46.1828183" lon="7.2787267"><ele></ele><time>2016-5-22T6:52:9Z</time></trkpt>
<trkpt lat="46.1828217" lon="7.2787483"><ele></ele><time>2016-5-22T6:52:12Z</time></trkpt>
<trkpt lat="46.1828267" lon="7.2787733"><ele></ele><time>2016-5-22T6:52:15Z</time></trkpt>
<trkpt lat="46.1828333" lon="7.2787983"><ele></ele><time>2016-5-22T6:52:18Z</time></trkpt>
<trkpt lat="46.1828433" lon="7.2788100"><ele></ele><time>2016-5-22T6:52:21Z</time></trkpt>
<trkpt lat="46.1828533" lon="7.2788233"><ele></ele><time>2016-5-22T6:52:24Z</time></trkpt>
<trkpt lat="46.1828667" lon="7.2788367"><ele></ele><time>2016-5-22T6:52:27Z</time></trkpt>
<trkpt lat="46.1828800" lon="7.2788533"><ele></ele><time>2016-5-22T6:52:30Z</time></trkpt>
<trkpt lat="46.1828933" lon="7.2788733"><ele></ele><time>2016-5-22T6:52:33Z</time></trkpt>
<trkpt lat="46.1829033" lon="7.2788900"><ele></ele><time>2016-5-22T6:52:36Z</time></trkpt>
<trkpt lat="46.1829067" lon="7.2789017"><ele></ele><time>2016-5-22T6:52:39Z</time></trkpt>
<trkpt lat="46.1829100" lon="7.2789083"><ele></ele><time>2016-5-22T6:52:42Z</time></trkpt>
<trkpt lat="46.1829183" lon="7.2789133"><ele></ele><time>2016-5-22T6:52:45Z</time></trkpt>
<trkpt lat="46.1829283" lon="7.2789217"><ele></ele><time>2016-5-22T6:52:48Z</time></trkpt>
<trkpt lat="46.1829383" lon="7.2789367"><ele></ele><time>2016-5-22T6:52:51Z</time></trkpt>
<trkpt lat="46.1829450" lon="7.2789517"><ele></ele><time>2016-5-22T6:52:54Z</time></trkpt>
<trkpt lat="46.1829517" lon="7.2789667"><ele></ele><time>2016-5-22T6:52:57Z</time></trkpt>
<trkpt lat="46.1829600" lon="7.2789833"><ele></ele><time>2016-5-22T6:53:0Z</time></trkpt>
<trkpt lat="46.1829650" lon="7.2790000"><ele></ele><time>2016-5-22T6:53:3Z</time></trkpt>
<trkpt lat="46.1829700" lon="7.2790150"><ele></ele><time>2016-5-22T6:53:6Z</time></trkpt>
<trkpt lat="46.1829717" lon="7.2790317"><ele></ele><time>2016-5-22T6:53:9Z</time></trkpt>
<trkpt lat="46.1829733" lon="7.2790567"><ele></ele><time>2016-5-22T6:53:12Z</time></trkpt>
<trkpt lat="46.1829767" lon="7.2790800"><ele></ele><time>2016-5-22T6:53:15Z</time></trkpt>
<trkpt lat="46.1829817" lon="7.2790983"><ele></ele><time>2016-5-22T6:53:18Z</time></trkpt>
<trkpt lat="46.1829933" lon="7.2791183"><ele></ele><time>2016-5-22T6:53:21Z</time></trkpt>
<trkpt lat="46.1830033" lon="7.2791383"><ele></ele><time>2016-5-22T6:53:24Z</time></trkpt>
<trkpt lat="46.1830117" lon="7.2791583"><ele></ele><time>2016-5-22T6:53:27Z</time></trkpt>
<trkpt lat="46.1830150" lon="7.2791833"><ele></ele><time>2016-5-22T6:53:30Z</time></trkpt>
<trkpt lat="46.1830150" lon="7.2792067"><ele></ele><time>2016-5-22T6:53:33Z</time></trkpt>
<trkpt lat="46.1830183" lon="7.2792250"><ele></ele><time>2016-5-22T6:53:36Z</time></trkpt>
<trkpt lat="46.1830250" lon="7.2792383"><ele></ele><time>2016-5-22T6:53:39Z</time></trkpt>
<trkpt lat="46.1830367" lon="7.2792567"><ele></ele><time>2016-5-22T6:53:42Z</time></trkpt>
<trkpt lat="46.1830517" lon="7.2792783"><ele></ele><time>2016-5-22T6:53:45Z</time></trkpt>
<trkpt lat="46.1830600" lon="7.2792983"><ele></ele><time>2016-5-22T6:53:48Z</time></trkpt>
<trkpt lat="46.1830667" lon="7.2793200"><ele></ele><time>2016-5-22T6:53:51Z</time></trkpt>
<trkpt lat="46.1830783" lon="7.2793450"><ele></ele><time>2016-5-22T6:53:54Z</time></trkpt>
<trkpt lat="46.1830983" lon="7.2793683"><ele></ele><time>2016-5-22T6:53:57Z</time></trkpt>
<trkpt lat="46.1831150" lon="7.2793883"><ele></ele><time>2016-5-22T6:54:0Z</time></trkpt>
<trkpt lat="46.1831233" lon="7.2794067"><ele></ele><time>2016-5-22T6:54:3Z</time></trkpt>
<trkpt lat="46.1831300" lon="7.2794283"><ele></ele><time>2016-5-22T6:54:6Z</time></trkpt>
<trkpt lat="46.1831350" lon="7.2794483"><ele></ele><time>2016-5-22T6:54:9Z</time></trkpt>
<trkpt lat="46.1831417" lon="7.2794633"><ele></ele><time>2016-5-22T6:54:12Z</time></trkpt>
<trkpt lat="46.1831550" lon="7.2794750"><ele></ele><time>2016-5-22T6:54:15Z</time></trkpt>
<trkpt lat="46.1831717" lon="7.2794883"><ele></ele><time>2016-5-22T6:54:18Z</time></trkpt>
<trkpt lat="46.1831850" lon="7.2795067"><ele></ele><time>2016-5-22T6:54:21Z</time></trkpt>
<trkpt lat="46.1831950" lon="7.2795167"><ele></ele><time>2016-5-22T6:54:24Z</time></trkpt>
<trkpt lat="46.1832050" lon="7.2795300"><ele></ele><time>2016-5-22T6:54:27Z</time></trkpt>
<trkpt lat="46.1832183" lon="7.2795483"><ele></ele><time>2016-5-22T6:54:30Z</time></trkpt>
<trkpt lat="46.1832267" lon="7.2795717"><ele></ele><time>2016-5-22T6:54:33Z</time></trkpt>
<trkpt lat="46.1832350" lon="7.2795950"><ele></ele><time>2016-5-22T6:54:36Z</time></trkpt>
<trkpt lat="46.1832450" lon="7.2796200"><ele></ele><time>2016-5-22T6:54:39Z</time></trkpt>
<trkpt lat="46.1832517" lon="7.2796433"><ele></ele><time>2016-5-22T6:54:42Z</time></trkpt>
<trkpt lat="46.1832583" lon="7.2796633"><ele></ele><time>2016-5-22T6:54:45Z</time></trkpt>
<trkpt lat="46.1832717" lon="7.2796850"><ele></ele><time>2016-5-22T6:54:48Z</time></trkpt>
<trkpt lat="46.1832900" lon="7.2797000"><ele></ele><time>2016-5-22T6:54:51Z</time></trkpt>
<trkpt lat="46.1833050" lon="7.2797117"><ele></ele><time>2016-5-22T6:54:54Z</time></trkpt>
<trkpt lat="46.1833100" lon="7.2797217"><ele></ele><time>2016-5-22T6:54:57Z</time></trkpt>
<trkpt lat="46.1833133" lon="7.2797383"><ele></ele><time>2016-5-22T6:55:0Z</time></trkpt>
<trkpt lat="46.1833250" lon="7.2797600"><ele></ele><time>2016-5-22T6:55:3Z</time></trkpt>
<trkpt lat="46.1833367" lon="7.2797783"><ele></ele><time>2016-5-22T6:55:6Z</time></trkpt>
<trkpt lat="46.1833467" lon="7.2797933"><ele></ele><time>2016-5-22T6:55:9Z</time></trkpt>
<trkpt lat="46.1833517" lon="7.2798117"><ele></ele><time>2016-5-22T6:55:12Z</time></trkpt>
<trkpt lat="46.1833550" lon="7.2798300"><ele></ele><time>2016-5-22T6:55:15Z</time></trkpt>
<trkpt lat="46.1833633" lon="7.2798450"><ele></ele><time>2016-5-22T6:55:18Z</time></trkpt>
<trkpt lat="46.1833717" lon="7.2798533"><ele></ele><time>2016-5-22T6:55:21Z</time></trkpt>
<trkpt lat="46.1833800" lon="7.2798600"><ele></ele><time>2016-5-22T6:55:24Z</time></trkpt>
<trkpt lat="46.1833917" lon="7.2798617"><ele></ele><time>2016-5-22T6:55:27Z</time></trkpt>
<trkpt lat="46.1834017" lon="7.2798617"><ele></ele><time>2016-5-22T6:55:30Z</time></trkpt>
<trkpt lat="46.1834117" lon="7.2798667"><ele></ele><time>2016-5-22T6:55:33Z</time></trkpt>
<trkpt lat="46.1834183" lon="7.2798733"><ele></ele><time>2016-5-22T6:55:36Z</time></trkpt>
<trkpt lat="46.1834267" lon="7.2798833"><ele></ele><time>2016-5-22T6:55:39Z</time></trkpt>
<trkpt lat="46.1834367" lon="7.2798933"><ele></ele><time>2016-5-22T6:55:42Z</time></trkpt>
<trkpt lat="46.1834433" lon="7.2798983"><ele></ele><time>2016-5-22T6:55:45Z</time></trkpt>
<trkpt lat="46.1834467" lon="7.2799067"><ele></ele><time>2016-5-22T6:55:48Z</time></trkpt>
<trkpt lat="46.1834517" lon="7.2799250"><ele></ele><time>2016-5-22T6:55:51Z</time></trkpt>
<trkpt lat="46.1834583" lon="7.2799433"><ele></ele><time>2016-5-22T6:55:54Z</time></trkpt>
<trkpt lat="46.1834617" lon="7.2799583"><ele></ele><time>2016-5-22T6:55:57Z</time></trkpt>
<trkpt lat="46.1834683" lon="7.2799767"><ele></ele><time>2016-5-22T6:56:0Z</time></trkpt>
<trkpt lat="46.1834750" lon="7.2799967"><ele></ele><time>2016-5-22T6:56:3Z</time></trkpt>
<trkpt lat="46.1834800" lon="7.2800100"><ele></ele><time>2016-5-22T6:56:6Z</time></trkpt>
<trkpt lat="46.1834833" lon="7.2800183"><ele></ele><time>2016-5-22T6:56:9Z</time></trkpt>
<trkpt lat="46.1834867" lon="7.2800267"><ele></ele><time>2016-5-22T6:56:12Z</time></trkpt>
<trkpt lat="46.1834900" lon="7.2800367"><ele></ele><time>2016-5-22T6:56:15Z</time></trkpt>
<trkpt lat="46.1834950" lon="7.2800483"><ele></ele><time>2016-5-22T6:56:18Z</time></trkpt>
<trkpt lat="46.1835000" lon="7.2800600"><ele></ele><time>2016-5-22T6:56:21Z</time></trkpt>
<trkpt lat="46.1835050" lon="7.2800700"><ele></ele><time>2016-5-22T6:56:24Z</time></trkpt>
<trkpt lat="46.1835133" lon="7.2800783"><ele></ele><time>2016-5-22T6:56:27Z</time></trkpt>
<trkpt lat="46.1835233" lon="7.2800850"><ele></ele><time>2016-5-22T6:56:30Z</time></trkpt>
<trkpt lat="46.1835300" lon="7.2800900"><ele></ele><time>2016-5-22T6:56:33Z</time></trkpt>
<trkpt lat="46.1835333" lon="7.2801000"><ele></ele><time>2016-5-22T6:56:36Z</time></trkpt>
<trkpt lat="46.1835383" lon="7.2801150"><ele></ele><time>2016-5-22T6:56:39Z</time></trkpt>
<trkpt lat="46.1835450" lon="7.2801267"><ele></ele><time>2016-5-22T6:56:42Z</time></trkpt>
<trkpt lat="46.1835550" lon="7.2801383"><ele></ele><time>2016-5-22T6:56:45Z</time></trkpt>
<trkpt lat="46.1835717" lon="7.2801467"><ele></ele><time>2016-5-22T6:56:48Z</time></trkpt>
<trkpt lat="46.1835883" lon="7.2801567"><ele></ele><time>2016-5-22T6:56:51Z</time></trkpt>
<trkpt lat="46.1836000" lon="7.2801650"><ele></ele><time>2016-5-22T6:56:54Z</time></trkpt>
<trkpt lat="46.1836117" lon="7.2801867"><ele></ele><time>2016-5-22T6:56:57Z</time></trkpt>
<trkpt lat="46.1836283" lon="7.2802250"><ele></ele><time>2016-5-22T6:57:0Z</time></trkpt>
<trkpt lat="46.1836533" lon="7.2802800"><ele></ele><time>2016-5-22T6:57:3Z</time></trkpt>
<trkpt lat="46.1836817" lon="7.2803333"><ele></ele><time>2016-5-22T6:57:6Z</time></trkpt>
<trkpt lat="46.1837067" lon="7.2803817"><ele></ele><time>2016-5-22T6:57:9Z</time></trkpt>
<trkpt lat="46.1837800" lon="7.2804550"><ele></ele><time>2016-5-22T6:57:12Z</time></trkpt>
<trkpt lat="46.1838183" lon="7.2805133"><ele></ele><time>2016-5-22T6:57:15Z</time></trkpt>
<trkpt lat="46.1838617" lon="7.2805550"><ele></ele><time>2016-5-22T6:57:18Z</time></trkpt>
<trkpt lat="46.1839050" lon="7.2806050"><ele></ele><time>2016-5-22T6:57:21Z</time></trkpt>
<trkpt lat="46.1839517" lon="7.2806450"><ele></ele><time>2016-5-22T6:57:24Z</time></trkpt>
<trkpt lat="46.1840067" lon="7.2807167"><ele></ele><time>2016-5-22T6:57:27Z</time></trkpt>
<trkpt lat="46.1840617" lon="7.2807767"><ele></ele><time>2016-5-22T6:57:30Z</time></trkpt>
<trkpt lat="46.1841217" lon="7.2808533"><ele></ele><time>2016-5-22T6:57:33Z</time></trkpt>
<trkpt lat="46.1841800" lon="7.2809267"><ele></ele><time>2016-5-22T6:57:36Z</time></trkpt>
<trkpt lat="46.1842717" lon="7.2810017"><ele></ele><time>2016-5-22T6:57:39Z</time></trkpt>
<trkpt lat="46.1843417" lon="7.2810817"><ele></ele><time>2016-5-22T6:57:42Z</time></trkpt>
<trkpt lat="46.1844267" lon="7.2811467"><ele></ele><time>2016-5-22T6:57:45Z</time></trkpt>
<trkpt lat="46.1845183" lon="7.2811883"><ele></ele><time>2016-5-22T6:57:48Z</time></trkpt>
<trkpt lat="46.1846067" lon="7.2812567"><ele></ele><time>2016-5-22T6:57:51Z</time></trkpt>
<trkpt lat="46.1846933" lon="7.2813183"><ele></ele><time>2016-5-22T6:57:54Z</time></trkpt>
<trkpt lat="46.1847733" lon="7.2813750"><ele></ele><time>2016-5-22T6:57:57Z</time></trkpt>
<trkpt lat="46.1848600" lon="7.2814333"><ele></ele><time>2016-5-22T6:58:0Z</time></trkpt>
<trkpt lat="46.1849350" lon="7.2815033"><ele></ele><time>2016-5-22T6:58:3Z</time></trkpt>
<trkpt lat="46.1850250" lon="7.2815717"><ele></ele><time>2016-5-22T6:58:6Z</time></trkpt>
<trkpt lat="46.1850983" lon="7.2816383"><ele></ele><time>2016-5-22T6:58:9Z</time></trkpt>
<trkpt lat="46.1851767" lon="7.2817167"><ele></ele><time>2016-5-22T6:58:12Z</time></trkpt>
<trkpt lat="46.1852517" lon="7.2817817"><ele></ele><time>2016-5-22T6:58:15Z</time></trkpt>
<trkpt lat="46.1853183" lon="7.2818467"><ele></ele><time>2016-5-22T6:58:18Z</time></trkpt>
<trkpt lat="46.1853733" lon="7.2819183"><ele></ele><time>2016-5-22T6:58:21Z</time></trkpt>
<trkpt lat="46.1854267" lon="7.2819900"><ele></ele><time>2016-5-22T6:58:24Z</time></trkpt>
<trkpt lat="46.1854833" lon="7.2820800"><ele></ele><time>2016-5-22T6:58:27Z</time></trkpt>
<trkpt lat="46.1855400" lon="7.2821550"><ele></ele><time>2016-5-22T6:58:30Z</time></trkpt>
<trkpt lat="46.1855683" lon="7.2822333"><ele></ele><time>2016-5-22T6:58:33Z</time></trkpt>
<trkpt lat="46.1856133" lon="7.2823033"><ele></ele><time>2016-5-22T6:58:36Z</time></trkpt>
<trkpt lat="46.1856583" lon="7.2823683"><ele></ele><time>2016-5-22T6:58:39Z</time></trkpt>
<trkpt lat="46.1856900" lon="7.2824267"><ele></ele><time>2016-5-22T6:58:42Z</time></trkpt>
<trkpt lat="46.1857183" lon="7.2824783"><ele></ele><time>2016-5-22T6:58:45Z</time></trkpt>
<trkpt lat="46.1857433" lon="7.2825400"><ele></ele><time>2016-5-22T6:58:48Z</time></trkpt>
<trkpt lat="46.1857933" lon="7.2826117"><ele></ele><time>2016-5-22T6:58:51Z</time></trkpt>
<trkpt lat="46.1858267" lon="7.2826783"><ele></ele><time>2016-5-22T6:58:54Z</time></trkpt>
<trkpt lat="46.1858700" lon="7.2827417"><ele></ele><time>2016-5-22T6:58:57Z</time></trkpt>
<trkpt lat="46.1859050" lon="7.2827933"><ele></ele><time>2016-5-22T6:59:0Z</time></trkpt>
<trkpt lat="46.1859417" lon="7.2828467"><ele></ele><time>2016-5-22T6:59:3Z</time></trkpt>
<trkpt lat="46.1859733" lon="7.2829117"><ele></ele><time>2016-5-22T6:59:6Z</time></trkpt>
<trkpt lat="46.1860100" lon="7.2829650"><ele></ele><time>2016-5-22T6:59:9Z</time></trkpt>
<trkpt lat="46.1860417" lon="7.2830167"><ele></ele><time>2016-5-22T6:59:12Z</time></trkpt>
<trkpt lat="46.1860783" lon="7.2830700"><ele></ele><time>2016-5-22T6:59:15Z</time></trkpt>
<trkpt lat="46.1861200" lon="7.2831283"><ele></ele><time>2016-5-22T6:59:18Z</time></trkpt>
<trkpt lat="46.1861533" lon="7.2831883"><ele></ele><time>2016-5-22T6:59:21Z</time></trkpt>
<trkpt lat="46.1861917" lon="7.2832533"><ele></ele><time>2016-5-22T6:59:24Z</time></trkpt>
<trkpt lat="46.1862267" lon="7.2833167"><ele></ele><time>2016-5-22T6:59:27Z</time></trkpt>
<trkpt lat="46.1862517" lon="7.2833800"><ele></ele><time>2016-5-22T6:59:30Z</time></trkpt>
<trkpt lat="46.1862800" lon="7.2834350"><ele></ele><time>2016-5-22T6:59:33Z</time></trkpt>
<trkpt lat="46.1863083" lon="7.2834933"><ele></ele><time>2016-5-22T6:59:36Z</time></trkpt>
<trkpt lat="46.1863333" lon="7.2835533"><ele></ele><time>2016-5-22T6:59:39Z</time></trkpt>
<trkpt lat="46.1863717" lon="7.2836050"><ele></ele><time>2016-5-22T6:59:42Z</time></trkpt>
<trkpt lat="46.1864067" lon="7.2836567"><ele></ele><time>2016-5-22T6:59:45Z</time></trkpt>
<trkpt lat="46.1864467" lon="7.2837150"><ele></ele><time>2016-5-22T6:59:48Z</time></trkpt>
<trkpt lat="46.1864833" lon="7.2837650"><ele></ele><time>2016-5-22T6:59:51Z</time></trkpt>
<trkpt lat="46.1865150" lon="7.2838150"><ele></ele><time>2016-5-22T6:59:54Z</time></trkpt>
<trkpt lat="46.1865467" lon="7.2838633"><ele></ele><time>2016-5-22T6:59:57Z</time></trkpt>
<trkpt lat="46.1865733" lon="7.2839200"><ele></ele><time>2016-5-22T7:0:0Z</time></trkpt>
<trkpt lat="46.1865983" lon="7.2839717"><ele></ele><time>2016-5-22T7:0:3Z</time></trkpt>
<trkpt lat="46.1866250" lon="7.2840250"><ele></ele><time>2016-5-22T7:0:6Z</time></trkpt>
<trkpt lat="46.1866483" lon="7.2840833"><ele></ele><time>2016-5-22T7:0:9Z</time></trkpt>
<trkpt lat="46.1866667" lon="7.2841433"><ele></ele><time>2016-5-22T7:0:12Z</time></trkpt>
<trkpt lat="46.1866883" lon="7.2842083"><ele></ele><time>2016-5-22T7:0:15Z</time></trkpt>
<trkpt lat="46.1867133" lon="7.2842733"><ele></ele><time>2016-5-22T7:0:18Z</time></trkpt>
<trkpt lat="46.1867433" lon="7.2843367"><ele></ele><time>2016-5-22T7:0:21Z</time></trkpt>
<trkpt lat="46.1867733" lon="7.2844000"><ele></ele><time>2016-5-22T7:0:24Z</time></trkpt>
<trkpt lat="46.1867983" lon="7.2844633"><ele></ele><time>2016-5-22T7:0:27Z</time></trkpt>
<trkpt lat="46.1868267" lon="7.2845217"><ele></ele><time>2016-5-22T7:0:30Z</time></trkpt>
<trkpt lat="46.1868500" lon="7.2845783"><ele></ele><time>2016-5-22T7:0:33Z</time></trkpt>
<trkpt lat="46.1868783" lon="7.2846333"><ele></ele><time>2016-5-22T7:0:36Z</time></trkpt>
<trkpt lat="46.1869117" lon="7.2846917"><ele></ele><time>2016-5-22T7:0:39Z</time></trkpt>
<trkpt lat="46.1869383" lon="7.2847483"><ele></ele><time>2016-5-22T7:0:42Z</time></trkpt>
<trkpt lat="46.1869717" lon="7.2848067"><ele></ele><time>2016-5-22T7:0:45Z</time></trkpt>
<trkpt lat="46.1870050" lon="7.2848700"><ele></ele><time>2016-5-22T7:0:48Z</time></trkpt>
<trkpt lat="46.1870367" lon="7.2849267"><ele></ele><time>2016-5-22T7:0:51Z</time></trkpt>
<trkpt lat="46.1870600" lon="7.2849783"><ele></ele><time>2016-5-22T7:0:54Z</time></trkpt>
<trkpt lat="46.1870850" lon="7.2850300"><ele></ele><time>2016-5-22T7:0:57Z</time></trkpt>
<trkpt lat="46.1871050" lon="7.2850800"><ele></ele><time>2016-5-22T7:1:0Z</time></trkpt>
<trkpt lat="46.1871183" lon="7.2851317"><ele></ele><time>2016-5-22T7:1:3Z</time></trkpt>
<trkpt lat="46.1871500" lon="7.2851917"><ele></ele><time>2016-5-22T7:1:6Z</time></trkpt>
<trkpt lat="46.1871733" lon="7.2852467"><ele></ele><time>2016-5-22T7:1:9Z</time></trkpt>
<trkpt lat="46.1871883" lon="7.2852967"><ele></ele><time>2016-5-22T7:1:12Z</time></trkpt>
<trkpt lat="46.1872150" lon="7.2853483"><ele></ele><time>2016-5-22T7:1:15Z</time></trkpt>
<trkpt lat="46.1872417" lon="7.2854083"><ele></ele><time>2016-5-22T7:1:18Z</time></trkpt>
<trkpt lat="46.1872617" lon="7.2854633"><ele></ele><time>2016-5-22T7:1:21Z</time></trkpt>
<trkpt lat="46.1872850" lon="7.2855167"><ele></ele><time>2016-5-22T7:1:24Z</time></trkpt>
<trkpt lat="46.1873083" lon="7.2855683"><ele></ele><time>2016-5-22T7:1:27Z</time></trkpt>
<trkpt lat="46.1873333" lon="7.2856167"><ele></ele><time>2016-5-22T7:1:30Z</time></trkpt>
<trkpt lat="46.1873767" lon="7.2856717"><ele></ele><time>2016-5-22T7:1:33Z</time></trkpt>
<trkpt lat="46.1874200" lon="7.2857217"><ele></ele><time>2016-5-22T7:1:36Z</time></trkpt>
<trkpt lat="46.1874617" lon="7.2857583"><ele></ele><time>2016-5-22T7:1:39Z</time></trkpt>
<trkpt lat="46.1875317" lon="7.2858167"><ele></ele><time>2016-5-22T7:1:42Z</time></trkpt>
<trkpt lat="46.1875850" lon="7.2858517"><ele></ele><time>2016-5-22T7:1:45Z</time></trkpt>
<trkpt lat="46.1876150" lon="7.2858917"><ele></ele><time>2016-5-22T7:1:48Z</time></trkpt>
<trkpt lat="46.1876667" lon="7.2859333"><ele></ele><time>2016-5-22T7:1:51Z</time></trkpt>
<trkpt lat="46.1877050" lon="7.2859817"><ele></ele><time>2016-5-22T7:1:54Z</time></trkpt>
<trkpt lat="46.1877483" lon="7.2860167"><ele></ele><time>2016-5-22T7:1:57Z</time></trkpt>
<trkpt lat="46.1877833" lon="7.2860467"><ele></ele><time>2016-5-22T7:2:0Z</time></trkpt>
<trkpt lat="46.1877983" lon="7.2860800"><ele></ele><time>2016-5-22T7:2:3Z</time></trkpt>
<trkpt lat="46.1878233" lon="7.2861133"><ele></ele><time>2016-5-22T7:2:6Z</time></trkpt>
<trkpt lat="46.1878767" lon="7.2861600"><ele></ele><time>2016-5-22T7:2:9Z</time></trkpt>
<trkpt lat="46.1878883" lon="7.2861933"><ele></ele><time>2016-5-22T7:2:12Z</time></trkpt>
<trkpt lat="46.1879233" lon="7.2862233"><ele></ele><time>2016-5-22T7:2:15Z</time></trkpt>
<trkpt lat="46.1879533" lon="7.2862583"><ele></ele><time>2016-5-22T7:2:18Z</time></trkpt>
<trkpt lat="46.1879733" lon="7.2863367"><ele></ele><time>2016-5-22T7:2:21Z</time></trkpt>
<trkpt lat="46.1879867" lon="7.2863967"><ele></ele><time>2016-5-22T7:2:24Z</time></trkpt>
<trkpt lat="46.1880033" lon="7.2864783"><ele></ele><time>2016-5-22T7:2:27Z</time></trkpt>
<trkpt lat="46.1880317" lon="7.2865333"><ele></ele><time>2016-5-22T7:2:30Z</time></trkpt>
<trkpt lat="46.1880450" lon="7.2865883"><ele></ele><time>2016-5-22T7:2:33Z</time></trkpt>
<trkpt lat="46.1880650" lon="7.2866050"><ele></ele><time>2016-5-22T7:2:36Z</time></trkpt>
<trkpt lat="46.1881050" lon="7.2866333"><ele></ele><time>2016-5-22T7:2:39Z</time></trkpt>
<trkpt lat="46.1881250" lon="7.2866683"><ele></ele><time>2016-5-22T7:2:42Z</time></trkpt>
<trkpt lat="46.1881517" lon="7.2867100"><ele></ele><time>2016-5-22T7:2:45Z</time></trkpt>
<trkpt lat="46.1881767" lon="7.2867400"><ele></ele><time>2016-5-22T7:2:48Z</time></trkpt>
<trkpt lat="46.1881917" lon="7.2867917"><ele></ele><time>2016-5-22T7:2:51Z</time></trkpt>
<trkpt lat="46.1882150" lon="7.2868317"><ele></ele><time>2016-5-22T7:2:54Z</time></trkpt>
<trkpt lat="46.1882233" lon="7.2868950"><ele></ele><time>2016-5-22T7:2:57Z</time></trkpt>
<trkpt lat="46.1882533" lon="7.2869167"><ele></ele><time>2016-5-22T7:3:0Z</time></trkpt>
<trkpt lat="46.1882767" lon="7.2869450"><ele></ele><time>2016-5-22T7:3:3Z</time></trkpt>
<trkpt lat="46.1883000" lon="7.2869850"><ele></ele><time>2016-5-22T7:3:6Z</time></trkpt>
<trkpt lat="46.1883217" lon="7.2870217"><ele></ele><time>2016-5-22T7:3:9Z</time></trkpt>
<trkpt lat="46.1883483" lon="7.2870567"><ele></ele><time>2016-5-22T7:3:12Z</time></trkpt>
<trkpt lat="46.1883767" lon="7.2870967"><ele></ele><time>2016-5-22T7:3:15Z</time></trkpt>
<trkpt lat="46.1884050" lon="7.2871417"><ele></ele><time>2016-5-22T7:3:18Z</time></trkpt>
<trkpt lat="46.1884317" lon="7.2871850"><ele></ele><time>2016-5-22T7:3:21Z</time></trkpt>
<trkpt lat="46.1884517" lon="7.2872267"><ele></ele><time>2016-5-22T7:3:24Z</time></trkpt>
<trkpt lat="46.1884667" lon="7.2872600"><ele></ele><time>2016-5-22T7:3:27Z</time></trkpt>
<trkpt lat="46.1884817" lon="7.2872933"><ele></ele><time>2016-5-22T7:3:30Z</time></trkpt>
<trkpt lat="46.1884967" lon="7.2873233"><ele></ele><time>2016-5-22T7:3:33Z</time></trkpt>
<trkpt lat="46.1885067" lon="7.2873483"><ele></ele><time>2016-5-22T7:3:36Z</time></trkpt>
<trkpt lat="46.1885167" lon="7.2873733"><ele></ele><time>2016-5-22T7:3:39Z</time></trkpt>
<trkpt lat="46.1885300" lon="7.2874000"><ele></ele><time>2016-5-22T7:3:42Z</time></trkpt>
<trkpt lat="46.1885433" lon="7.2874233"><ele></ele><time>2016-5-22T7:3:45Z</time></trkpt>
<trkpt lat="46.1885567" lon="7.2874467"><ele></ele><time>2016-5-22T7:3:48Z</time></trkpt>
<trkpt lat="46.1885733" lon="7.2874750"><ele></ele><time>2016-5-22T7:3:51Z</time></trkpt>
<trkpt lat="46.1885867" lon="7.2875033"><ele></ele><time>2016-5-22T7:3:54Z</time></trkpt>
<trkpt lat="46.1885983" lon="7.2875317"><ele></ele><time>2016-5-22T7:3:57Z</time></trkpt>
<trkpt lat="46.1886050" lon="7.2875583"><ele></ele><time>2016-5-22T7:4:0Z</time></trkpt>
<trkpt lat="46.1886083" lon="7.2875883"><ele></ele><time>2016-5-22T7:4:3Z</time></trkpt>
<trkpt lat="46.1886100" lon="7.2876183"><ele></ele><time>2016-5-22T7:4:6Z</time></trkpt>
<trkpt lat="46.1886083" lon="7.2876533"><ele></ele><time>2016-5-22T7:4:9Z</time></trkpt>
<trkpt lat="46.1886083" lon="7.2876917"><ele></ele><time>2016-5-22T7:4:12Z</time></trkpt>
<trkpt lat="46.1886100" lon="7.2877283"><ele></ele><time>2016-5-22T7:4:15Z</time></trkpt>
<trkpt lat="46.1886050" lon="7.2877633"><ele></ele><time>2016-5-22T7:4:18Z</time></trkpt>
<trkpt lat="46.1885983" lon="7.2878000"><ele></ele><time>2016-5-22T7:4:21Z</time></trkpt>
<trkpt lat="46.1885867" lon="7.2878383"><ele></ele><time>2016-5-22T7:4:24Z</time></trkpt>
<trkpt lat="46.1885717" lon="7.2878750"><ele></ele><time>2016-5-22T7:4:27Z</time></trkpt>
<trkpt lat="46.1885550" lon="7.2879100"><ele></ele><time>2016-5-22T7:4:30Z</time></trkpt>
<trkpt lat="46.1885350" lon="7.2879383"><ele></ele><time>2016-5-22T7:4:33Z</time></trkpt>
<trkpt lat="46.1885217" lon="7.2879600"><ele></ele><time>2016-5-22T7:4:36Z</time></trkpt>
<trkpt lat="46.1885133" lon="7.2879800"><ele></ele><time>2016-5-22T7:4:39Z</time></trkpt>
<trkpt lat="46.1885117" lon="7.2879967"><ele></ele><time>2016-5-22T7:4:42Z</time></trkpt>
<trkpt lat="46.1885150" lon="7.2880117"><ele></ele><time>2016-5-22T7:4:45Z</time></trkpt>
<trkpt lat="46.1885150" lon="7.2880333"><ele></ele><time>2016-5-22T7:4:48Z</time></trkpt>
<trkpt lat="46.1885133" lon="7.2880567"><ele></ele><time>2016-5-22T7:4:51Z</time></trkpt>
<trkpt lat="46.1885083" lon="7.2880783"><ele></ele><time>2016-5-22T7:4:54Z</time></trkpt>
<trkpt lat="46.1885000" lon="7.2881000"><ele></ele><time>2016-5-22T7:4:57Z</time></trkpt>
<trkpt lat="46.1884883" lon="7.2881233"><ele></ele><time>2016-5-22T7:5:0Z</time></trkpt>
<trkpt lat="46.1884767" lon="7.2881400"><ele></ele><time>2016-5-22T7:5:3Z</time></trkpt>
<trkpt lat="46.1884683" lon="7.2881583"><ele></ele><time>2016-5-22T7:5:6Z</time></trkpt>
<trkpt lat="46.1884617" lon="7.2881783"><ele></ele><time>2016-5-22T7:5:9Z</time></trkpt>
<trkpt lat="46.1884583" lon="7.2881967"><ele></ele><time>2016-5-22T7:5:12Z</time></trkpt>
<trkpt lat="46.1884583" lon="7.2882183"><ele></ele><time>2016-5-22T7:5:15Z</time></trkpt>
<trkpt lat="46.1884600" lon="7.2882417"><ele></ele><time>2016-5-22T7:5:18Z</time></trkpt>
<trkpt lat="46.1884567" lon="7.2882650"><ele></ele><time>2016-5-22T7:5:21Z</time></trkpt>
<trkpt lat="46.1884550" lon="7.2882850"><ele></ele><time>2016-5-22T7:5:24Z</time></trkpt>
<trkpt lat="46.1884533" lon="7.2883033"><ele></ele><time>2016-5-22T7:5:27Z</time></trkpt>
<trkpt lat="46.1884433" lon="7.2883250"><ele></ele><time>2016-5-22T7:5:30Z</time></trkpt>
<trkpt lat="46.1884350" lon="7.2883500"><ele></ele><time>2016-5-22T7:5:33Z</time></trkpt>
<trkpt lat="46.1884283" lon="7.2883717"><ele></ele><time>2016-5-22T7:5:36Z</time></trkpt>
<trkpt lat="46.1884283" lon="7.2883950"><ele></ele><time>2016-5-22T7:5:39Z</time></trkpt>
<trkpt lat="46.1884317" lon="7.2884200"><ele></ele><time>2016-5-22T7:5:42Z</time></trkpt>
<trkpt lat="46.1884350" lon="7.2884467"><ele></ele><time>2016-5-22T7:5:45Z</time></trkpt>
<trkpt lat="46.1884367" lon="7.2884683"><ele></ele><time>2016-5-22T7:5:48Z</time></trkpt>
<trkpt lat="46.1884350" lon="7.2884900"><ele></ele><time>2016-5-22T7:5:51Z</time></trkpt>
<trkpt lat="46.1884317" lon="7.2885067"><ele></ele><time>2016-5-22T7:5:54Z</time></trkpt>
<trkpt lat="46.1884300" lon="7.2885233"><ele></ele><time>2016-5-22T7:5:57Z</time></trkpt>
<trkpt lat="46.1884267" lon="7.2885450"><ele></ele><time>2016-5-22T7:6:0Z</time></trkpt>
<trkpt lat="46.1884217" lon="7.2885683"><ele></ele><time>2016-5-22T7:6:3Z</time></trkpt>
<trkpt lat="46.1884117" lon="7.2885917"><ele></ele><time>2016-5-22T7:6:6Z</time></trkpt>
<trkpt lat="46.1884000" lon="7.2886133"><ele></ele><time>2016-5-22T7:6:9Z</time></trkpt>
<trkpt lat="46.1883950" lon="7.2886350"><ele></ele><time>2016-5-22T7:6:12Z</time></trkpt>
<trkpt lat="46.1883883" lon="7.2886550"><ele></ele><time>2016-5-22T7:6:15Z</time></trkpt>
<trkpt lat="46.1884000" lon="7.2886800"><ele></ele><time>2016-5-22T7:6:18Z</time></trkpt>
<trkpt lat="46.1884183" lon="7.2887067"><ele></ele><time>2016-5-22T7:6:21Z</time></trkpt>
<trkpt lat="46.1884350" lon="7.2887333"><ele></ele><time>2016-5-22T7:6:24Z</time></trkpt>
<trkpt lat="46.1884483" lon="7.2887650"><ele></ele><time>2016-5-22T7:6:27Z</time></trkpt>
<trkpt lat="46.1884567" lon="7.2887967"><ele></ele><time>2016-5-22T7:6:30Z</time></trkpt>
<trkpt lat="46.1884667" lon="7.2888250"><ele></ele><time>2016-5-22T7:6:33Z</time></trkpt>
<trkpt lat="46.1884767" lon="7.2888483"><ele></ele><time>2016-5-22T7:6:36Z</time></trkpt>
<trkpt lat="46.1884900" lon="7.2888717"><ele></ele><time>2016-5-22T7:6:39Z</time></trkpt>
<trkpt lat="46.1885050" lon="7.2889050"><ele></ele><time>2016-5-22T7:6:42Z</time></trkpt>
<trkpt lat="46.1885267" lon="7.2889517"><ele></ele><time>2016-5-22T7:6:45Z</time></trkpt>
<trkpt lat="46.1885467" lon="7.2889933"><ele></ele><time>2016-5-22T7:6:48Z</time></trkpt>
<trkpt lat="46.1885650" lon="7.2890283"><ele></ele><time>2016-5-22T7:6:51Z</time></trkpt>
<trkpt lat="46.1885817" lon="7.2890583"><ele></ele><time>2016-5-22T7:6:54Z</time></trkpt>
<trkpt lat="46.1886050" lon="7.2890917"><ele></ele><time>2016-5-22T7:6:57Z</time></trkpt>
<trkpt lat="46.1886283" lon="7.2891283"><ele></ele><time>2016-5-22T7:7:0Z</time></trkpt>
<trkpt lat="46.1886283" lon="7.2891283"><ele></ele><time>2016-5-22T7:7:3Z</time></trkpt>
<trkpt lat="46.1886483" lon="7.2891633"><ele></ele><time>2016-5-22T7:7:6Z</time></trkpt>
<trkpt lat="46.1886633" lon="7.2891917"><ele></ele><time>2016-5-22T7:7:9Z</time></trkpt>
<trkpt lat="46.1886817" lon="7.2892200"><ele></ele><time>2016-5-22T7:7:12Z</time></trkpt>
<trkpt lat="46.1886950" lon="7.2892433"><ele></ele><time>2016-5-22T7:7:15Z</time></trkpt>
<trkpt lat="46.1887033" lon="7.2892617"><ele></ele><time>2016-5-22T7:7:18Z</time></trkpt>
<trkpt lat="46.1887100" lon="7.2892833"><ele></ele><time>2016-5-22T7:7:21Z</time></trkpt>
<trkpt lat="46.1887250" lon="7.2893083"><ele></ele><time>2016-5-22T7:7:24Z</time></trkpt>
<trkpt lat="46.1887467" lon="7.2893300"><ele></ele><time>2016-5-22T7:7:27Z</time></trkpt>
<trkpt lat="46.1887567" lon="7.2893500"><ele></ele><time>2016-5-22T7:7:30Z</time></trkpt>
<trkpt lat="46.1887667" lon="7.2893717"><ele></ele><time>2016-5-22T7:7:33Z</time></trkpt>
<trkpt lat="46.1887800" lon="7.2893950"><ele></ele><time>2016-5-22T7:7:36Z</time></trkpt>
<trkpt lat="46.1887917" lon="7.2894167"><ele></ele><time>2016-5-22T7:7:39Z</time></trkpt>
<trkpt lat="46.1887917" lon="7.2894167"><ele></ele><time>2016-5-22T7:7:42Z</time></trkpt>
<trkpt lat="46.1888017" lon="7.2894367"><ele></ele><time>2016-5-22T7:7:45Z</time></trkpt>
<trkpt lat="46.1888100" lon="7.2894533"><ele></ele><time>2016-5-22T7:7:48Z</time></trkpt>
<trkpt lat="46.1888200" lon="7.2894700"><ele></ele><time>2016-5-22T7:7:51Z</time></trkpt>
<trkpt lat="46.1888300" lon="7.2894883"><ele></ele><time>2016-5-22T7:7:54Z</time></trkpt>
<trkpt lat="46.1888383" lon="7.2895100"><ele></ele><time>2016-5-22T7:7:57Z</time></trkpt>
<trkpt lat="46.1888450" lon="7.2895400"><ele></ele><time>2016-5-22T7:8:0Z</time></trkpt>
<trkpt lat="46.1888483" lon="7.2895700"><ele></ele><time>2016-5-22T7:8:3Z</time></trkpt>
<trkpt lat="46.1888517" lon="7.2896017"><ele></ele><time>2016-5-22T7:8:6Z</time></trkpt>
<trkpt lat="46.1888567" lon="7.2896333"><ele></ele><time>2016-5-22T7:8:9Z</time></trkpt>
<trkpt lat="46.1888650" lon="7.2896650"><ele></ele><time>2016-5-22T7:8:12Z</time></trkpt>
<trkpt lat="46.1888683" lon="7.2896950"><ele></ele><time>2016-5-22T7:8:15Z</time></trkpt>
<trkpt lat="46.1888633" lon="7.2897283"><ele></ele><time>2016-5-22T7:8:18Z</time></trkpt>
<trkpt lat="46.1888633" lon="7.2897283"><ele></ele><time>2016-5-22T7:8:21Z</time></trkpt>
<trkpt lat="46.1888550" lon="7.2897600"><ele></ele><time>2016-5-22T7:8:24Z</time></trkpt>
<trkpt lat="46.1888517" lon="7.2897850"><ele></ele><time>2016-5-22T7:8:27Z</time></trkpt>
<trkpt lat="46.1888500" lon="7.2898083"><ele></ele><time>2016-5-22T7:8:30Z</time></trkpt>
<trkpt lat="46.1888533" lon="7.2898317"><ele></ele><time>2016-5-22T7:8:33Z</time></trkpt>
<trkpt lat="46.1888533" lon="7.2898533"><ele></ele><time>2016-5-22T7:8:36Z</time></trkpt>
<trkpt lat="46.1888517" lon="7.2898700"><ele></ele><time>2016-5-22T7:8:39Z</time></trkpt>
<trkpt lat="46.1888483" lon="7.2898850"><ele></ele><time>2016-5-22T7:8:42Z</time></trkpt>
<trkpt lat="46.1888433" lon="7.2899050"><ele></ele><time>2016-5-22T7:8:45Z</time></trkpt>
<trkpt lat="46.1888350" lon="7.2899233"><ele></ele><time>2016-5-22T7:8:48Z</time></trkpt>
<trkpt lat="46.1888283" lon="7.2899417"><ele></ele><time>2016-5-22T7:8:51Z</time></trkpt>
<trkpt lat="46.1888233" lon="7.2899600"><ele></ele><time>2016-5-22T7:8:54Z</time></trkpt>
<trkpt lat="46.1888150" lon="7.2899783"><ele></ele><time>2016-5-22T7:8:57Z</time></trkpt>
<trkpt lat="46.1888083" lon="7.2899950"><ele></ele><time>2016-5-22T7:9:0Z</time></trkpt>
<trkpt lat="46.1888083" lon="7.2899950"><ele></ele><time>2016-5-22T7:9:3Z</time></trkpt>
<trkpt lat="46.1888000" lon="7.2900117"><ele></ele><time>2016-5-22T7:9:6Z</time></trkpt>
<trkpt lat="46.1887933" lon="7.2900250"><ele></ele><time>2016-5-22T7:9:9Z</time></trkpt>
<trkpt lat="46.1887850" lon="7.2900350"><ele></ele><time>2016-5-22T7:9:12Z</time></trkpt>
<trkpt lat="46.1887800" lon="7.2900400"><ele></ele><time>2016-5-22T7:9:15Z</time></trkpt>
<trkpt lat="46.1887733" lon="7.2900500"><ele></ele><time>2016-5-22T7:9:18Z</time></trkpt>
<trkpt lat="46.1887650" lon="7.2900650"><ele></ele><time>2016-5-22T7:9:21Z</time></trkpt>
<trkpt lat="46.1887533" lon="7.2900833"><ele></ele><time>2016-5-22T7:9:24Z</time></trkpt>
<trkpt lat="46.1887433" lon="7.2900983"><ele></ele><time>2016-5-22T7:9:27Z</time></trkpt>
<trkpt lat="46.1887383" lon="7.2901067"><ele></ele><time>2016-5-22T7:9:30Z</time></trkpt>
<trkpt lat="46.1887333" lon="7.2901167"><ele></ele><time>2016-5-22T7:9:33Z</time></trkpt>
<trkpt lat="46.1887300" lon="7.2901300"><ele></ele><time>2016-5-22T7:9:36Z</time></trkpt>
<trkpt lat="46.1887300" lon="7.2901300"><ele></ele><time>2016-5-22T7:9:39Z</time></trkpt>
<trkpt lat="46.1887283" lon="7.2901417"><ele></ele><time>2016-5-22T7:9:42Z</time></trkpt>
<trkpt lat="46.1887267" lon="7.2901517"><ele></ele><time>2016-5-22T7:9:45Z</time></trkpt>
<trkpt lat="46.1887283" lon="7.2901633"><ele></ele><time>2016-5-22T7:9:48Z</time></trkpt>
<trkpt lat="46.1887333" lon="7.2901683"><ele></ele><time>2016-5-22T7:9:51Z</time></trkpt>
<trkpt lat="46.1887350" lon="7.2901750"><ele></ele><time>2016-5-22T7:9:54Z</time></trkpt>
<trkpt lat="46.1887367" lon="7.2901833"><ele></ele><time>2016-5-22T7:9:57Z</time></trkpt>
<trkpt lat="46.1887333" lon="7.2901917"><ele></ele><time>2016-5-22T7:10:0Z</time></trkpt>
<trkpt lat="46.1887250" lon="7.2902033"><ele></ele><time>2016-5-22T7:10:3Z</time></trkpt>
<trkpt lat="46.1887133" lon="7.2902167"><ele></ele><time>2016-5-22T7:10:6Z</time></trkpt>
<trkpt lat="46.1887050" lon="7.2902267"><ele></ele><time>2016-5-22T7:10:9Z</time></trkpt>
<trkpt lat="46.1886883" lon="7.2902350"><ele></ele><time>2016-5-22T7:10:12Z</time></trkpt>
<trkpt lat="46.1886750" lon="7.2902467"><ele></ele><time>2016-5-22T7:10:15Z</time></trkpt>
<trkpt lat="46.1886750" lon="7.2902467"><ele></ele><time>2016-5-22T7:10:18Z</time></trkpt>
<trkpt lat="46.1886600" lon="7.2902550"><ele></ele><time>2016-5-22T7:10:21Z</time></trkpt>
<trkpt lat="46.1886467" lon="7.2902617"><ele></ele><time>2016-5-22T7:10:24Z</time></trkpt>
<trkpt lat="46.1886350" lon="7.2902667"><ele></ele><time>2016-5-22T7:10:27Z</time></trkpt>
<trkpt lat="46.1886350" lon="7.2902667"><ele></ele><time>2016-5-22T7:10:30Z</time></trkpt>
<trkpt lat="46.1886350" lon="7.2902667"><ele></ele><time>2016-5-22T7:10:33Z</time></trkpt>
<trkpt lat="46.1886350" lon="7.2902667"><ele></ele><time>2016-5-22T7:10:36Z</time></trkpt>
<trkpt lat="46.1886350" lon="7.2902667"><ele></ele><time>2016-5-22T7:10:39Z</time></trkpt>
<trkpt lat="46.1886350" lon="7.2902667"><ele></ele><time>2016-5-22T7:10:42Z</time></trkpt>
<trkpt lat="46.1886350" lon="7.2902667"><ele></ele><time>2016-5-22T7:10:45Z</time></trkpt>
<trkpt lat="46.1886350" lon="7.2902667"><ele></ele><time>2016-5-22T7:10:48Z</time></trkpt>
<trkpt lat="46.1886350" lon="7.2902667"><ele></ele><time>2016-5-22T7:10:51Z</time></trkpt>
<trkpt lat="46.1886350" lon="7.2902667"><ele></ele><time>2016-5-22T7:10:54Z</time></trkpt>
<trkpt lat="46.1886350" lon="7.2902667"><ele></ele><time>2016-5-22T7:10:57Z</time></trkpt>
<trkpt lat="46.1886350" lon="7.2902667"><ele></ele><time>2016-5-22T7:11:0Z</time></trkpt>
<trkpt lat="46.1886350" lon="7.2902667"><ele></ele><time>2016-5-22T7:11:3Z</time></trkpt>
<trkpt lat="46.1886133" lon="7.2902500"><ele></ele><time>2016-5-22T7:11:6Z</time></trkpt>
<trkpt lat="46.1886133" lon="7.2902500"><ele></ele><time>2016-5-22T7:11:9Z</time></trkpt>
<trkpt lat="46.1886133" lon="7.2902500"><ele></ele><time>2016-5-22T7:11:12Z</time></trkpt>
<trkpt lat="46.1886133" lon="7.2902500"><ele></ele><time>2016-5-22T7:11:15Z</time></trkpt>
<trkpt lat="46.1886133" lon="7.2902500"><ele></ele><time>2016-5-22T7:11:18Z</time></trkpt>
<trkpt lat="46.1886133" lon="7.2902500"><ele></ele><time>2016-5-22T7:11:21Z</time></trkpt>
<trkpt lat="46.1886133" lon="7.2902500"><ele></ele><time>2016-5-22T7:11:24Z</time></trkpt>
<trkpt lat="46.1886133" lon="7.2902500"><ele></ele><time>2016-5-22T7:11:27Z</time></trkpt>
<trkpt lat="46.1886133" lon="7.2902500"><ele></ele><time>2016-5-22T7:11:30Z</time></trkpt>
<trkpt lat="46.1886133" lon="7.2902500"><ele></ele><time>2016-5-22T7:11:33Z</time></trkpt>
<trkpt lat="46.1886133" lon="7.2902500"><ele></ele><time>2016-5-22T7:11:36Z</time></trkpt>
<trkpt lat="46.1886133" lon="7.2902500"><ele></ele><time>2016-5-22T7:11:39Z</time></trkpt>
<trkpt lat="46.1886133" lon="7.2902500"><ele></ele><time>2016-5-22T7:11:42Z</time></trkpt>
<trkpt lat="46.1886133" lon="7.2902500"><ele></ele><time>2016-5-22T7:11:45Z</time></trkpt>
<trkpt lat="46.1886133" lon="7.2902500"><ele></ele><time>2016-5-22T7:11:48Z</time></trkpt>
<trkpt lat="46.1886133" lon="7.2902500"><ele></ele><time>2016-5-22T7:11:51Z</time></trkpt>
<trkpt lat="46.1886133" lon="7.2902500"><ele></ele><time>2016-5-22T7:11:54Z</time></trkpt>
<trkpt lat="46.1886133" lon="7.2902500"><ele></ele><time>2016-5-22T7:11:57Z</time></trkpt>
<trkpt lat="46.1886133" lon="7.2902500"><ele></ele><time>2016-5-22T7:12:0Z</time></trkpt>
<trkpt lat="46.1886133" lon="7.2902500"><ele></ele><time>2016-5-22T7:12:3Z</time></trkpt>
<trkpt lat="46.1886133" lon="7.2902500"><ele></ele><time>2016-5-22T7:12:6Z</time></trkpt>
<trkpt lat="46.1886133" lon="7.2902500"><ele></ele><time>2016-5-22T7:12:9Z</time></trkpt>
<trkpt lat="46.1886133" lon="7.2902500"><ele></ele><time>2016-5-22T7:12:12Z</time></trkpt>
<trkpt lat="46.1886133" lon="7.2902500"><ele></ele><time>2016-5-22T7:12:15Z</time></trkpt>
<trkpt lat="46.1886133" lon="7.2902500"><ele></ele><time>2016-5-22T7:12:18Z</time></trkpt>
<trkpt lat="46.1886133" lon="7.2902500"><ele></ele><time>2016-5-22T7:12:21Z</time></trkpt>
<trkpt lat="46.1886133" lon="7.2902500"><ele></ele><time>2016-5-22T7:12:24Z</time></trkpt>
<trkpt lat="46.1886133" lon="7.2902500"><ele></ele><time>2016-5-22T7:12:27Z</time></trkpt>
<trkpt lat="46.1886133" lon="7.2902500"><ele></ele><time>2016-5-22T7:12:30Z</time></trkpt>
<trkpt lat="46.1886133" lon="7.2902500"><ele></ele><time>2016-5-22T7:12:33Z</time></trkpt>
<trkpt lat="46.1886133" lon="7.2902500"><ele></ele><time>2016-5-22T7:12:36Z</time></trkpt>
<trkpt lat="46.1886133" lon="7.2902500"><ele></ele><time>2016-5-22T7:12:39Z</time></trkpt>
<trkpt lat="46.1886133" lon="7.2902500"><ele></ele><time>2016-5-22T7:12:42Z</time></trkpt>
<trkpt lat="46.1886133" lon="7.2902500"><ele></ele><time>2016-5-22T7:12:45Z</time></trkpt>
<trkpt lat="46.1886133" lon="7.2902500"><ele></ele><time>2016-5-22T7:12:48Z</time></trkpt>
<trkpt lat="46.1886133" lon="7.2902500"><ele></ele><time>2016-5-22T7:12:51Z</time></trkpt>
<trkpt lat="46.1886133" lon="7.2902500"><ele></ele><time>2016-5-22T7:12:54Z</time></trkpt>
<trkpt lat="46.1886133" lon="7.2902500"><ele></ele><time>2016-5-22T7:12:57Z</time></trkpt>
<trkpt lat="46.1886133" lon="7.2902500"><ele></ele><time>2016-5-22T7:13:0Z</time></trkpt>
<trkpt lat="46.1885950" lon="7.2902600"><ele></ele><time>2016-5-22T7:13:3Z</time></trkpt>
<trkpt lat="46.1886033" lon="7.2902650"><ele></ele><time>2016-5-22T7:13:6Z</time></trkpt>
<trkpt lat="46.1886033" lon="7.2902650"><ele></ele><time>2016-5-22T7:13:9Z</time></trkpt>
<trkpt lat="46.1886033" lon="7.2902650"><ele></ele><time>2016-5-22T7:13:12Z</time></trkpt>
<trkpt lat="46.1886317" lon="7.2902733"><ele></ele><time>2016-5-22T7:13:15Z</time></trkpt>
<trkpt lat="46.1886483" lon="7.2902783"><ele></ele><time>2016-5-22T7:13:18Z</time></trkpt>
<trkpt lat="46.1886633" lon="7.2902800"><ele></ele><time>2016-5-22T7:13:21Z</time></trkpt>
<trkpt lat="46.1886717" lon="7.2902800"><ele></ele><time>2016-5-22T7:13:24Z</time></trkpt>
<trkpt lat="46.1886717" lon="7.2902800"><ele></ele><time>2016-5-22T7:13:27Z</time></trkpt>
<trkpt lat="46.1886717" lon="7.2902800"><ele></ele><time>2016-5-22T7:13:30Z</time></trkpt>
<trkpt lat="46.1886717" lon="7.2902800"><ele></ele><time>2016-5-22T7:13:33Z</time></trkpt>
<trkpt lat="46.1886717" lon="7.2902800"><ele></ele><time>2016-5-22T7:13:36Z</time></trkpt>
<trkpt lat="46.1886717" lon="7.2902800"><ele></ele><time>2016-5-22T7:13:39Z</time></trkpt>
<trkpt lat="46.1886717" lon="7.2902800"><ele></ele><time>2016-5-22T7:13:42Z</time></trkpt>
<trkpt lat="46.1886717" lon="7.2902800"><ele></ele><time>2016-5-22T7:13:45Z</time></trkpt>
<trkpt lat="46.1886717" lon="7.2902800"><ele></ele><time>2016-5-22T7:13:48Z</time></trkpt>
<trkpt lat="46.1886717" lon="7.2902800"><ele></ele><time>2016-5-22T7:13:51Z</time></trkpt>
<trkpt lat="46.1886717" lon="7.2902800"><ele></ele><time>2016-5-22T7:13:54Z</time></trkpt>
<trkpt lat="46.1886717" lon="7.2902800"><ele></ele><time>2016-5-22T7:13:57Z</time></trkpt>
<trkpt lat="46.1886717" lon="7.2902800"><ele></ele><time>2016-5-22T7:14:0Z</time></trkpt>
<trkpt lat="46.1886717" lon="7.2902800"><ele></ele><time>2016-5-22T7:14:3Z</time></trkpt>
<trkpt lat="46.1886717" lon="7.2902800"><ele></ele><time>2016-5-22T7:14:6Z</time></trkpt>
<trkpt lat="46.1886717" lon="7.2902800"><ele></ele><time>2016-5-22T7:14:9Z</time></trkpt>
<trkpt lat="46.1886717" lon="7.2902800"><ele></ele><time>2016-5-22T7:14:12Z</time></trkpt>
<trkpt lat="46.1886717" lon="7.2902800"><ele></ele><time>2016-5-22T7:14:15Z</time></trkpt>
<trkpt lat="46.1886717" lon="7.2902800"><ele></ele><time>2016-5-22T7:14:18Z</time></trkpt>
<trkpt lat="46.1886717" lon="7.2902800"><ele></ele><time>2016-5-22T7:14:21Z</time></trkpt>
<trkpt lat="46.1886717" lon="7.2902800"><ele></ele><time>2016-5-22T7:14:24Z</time></trkpt>
<trkpt lat="46.1886717" lon="7.2902800"><ele></ele><time>2016-5-22T7:14:27Z</time></trkpt>
<trkpt lat="46.1886717" lon="7.2902800"><ele></ele><time>2016-5-22T7:14:30Z</time></trkpt>
<trkpt lat="46.1886717" lon="7.2902800"><ele></ele><time>2016-5-22T7:14:33Z</time></trkpt>
<trkpt lat="46.1886717" lon="7.2902800"><ele></ele><time>2016-5-22T7:14:36Z</time></trkpt>
<trkpt lat="46.1886717" lon="7.2902800"><ele></ele><time>2016-5-22T7:14:39Z</time></trkpt>
<trkpt lat="46.1886717" lon="7.2902800"><ele></ele><time>2016-5-22T7:14:42Z</time></trkpt>
<trkpt lat="46.1886717" lon="7.2902800"><ele></ele><time>2016-5-22T7:14:45Z</time></trkpt>
<trkpt lat="46.1886717" lon="7.2902800"><ele></ele><time>2016-5-22T7:14:48Z</time></trkpt>
<trkpt lat="46.1886717" lon="7.2902800"><ele></ele><time>2016-5-22T7:14:51Z</time></trkpt>
<trkpt lat="46.1886717" lon="7.2902800"><ele></ele><time>2016-5-22T7:14:54Z</time></trkpt>
<trkpt lat="46.1886717" lon="7.2902800"><ele></ele><time>2016-5-22T7:14:57Z</time></trkpt>
<trkpt lat="46.1886717" lon="7.2902800"><ele></ele><time>2016-5-22T7:15:0Z</time></trkpt>
<trkpt lat="46.1886717" lon="7.2902800"><ele></ele><time>2016-5-22T7:15:3Z</time></trkpt>
<trkpt lat="46.1886717" lon="7.2902800"><ele></ele><time>2016-5-22T7:15:6Z</time></trkpt>
<trkpt lat="46.1886717" lon="7.2902800"><ele></ele><time>2016-5-22T7:15:9Z</time></trkpt>
<trkpt lat="46.1886717" lon="7.2902800"><ele></ele><time>2016-5-22T7:15:12Z</time></trkpt>
<trkpt lat="46.1886717" lon="7.2902800"><ele></ele><time>2016-5-22T7:15:15Z</time></trkpt>
<trkpt lat="46.1886717" lon="7.2902800"><ele></ele><time>2016-5-22T7:15:18Z</time></trkpt>
<trkpt lat="46.1886717" lon="7.2902800"><ele></ele><time>2016-5-22T7:15:21Z</time></trkpt>
<trkpt lat="46.1886717" lon="7.2902800"><ele></ele><time>2016-5-22T7:15:24Z</time></trkpt>
<trkpt lat="46.1887217" lon="7.2902767"><ele></ele><time>2016-5-22T7:15:27Z</time></trkpt>
<trkpt lat="46.1887217" lon="7.2902767"><ele></ele><time>2016-5-22T7:15:30Z</time></trkpt>
<trkpt lat="46.1887217" lon="7.2902767"><ele></ele><time>2016-5-22T7:15:33Z</time></trkpt>
<trkpt lat="46.1887217" lon="7.2902767"><ele></ele><time>2016-5-22T7:15:36Z</time></trkpt>
<trkpt lat="46.1887217" lon="7.2902767"><ele></ele><time>2016-5-22T7:15:39Z</time></trkpt>
<trkpt lat="46.1887217" lon="7.2902767"><ele></ele><time>2016-5-22T7:15:42Z</time></trkpt>
<trkpt lat="46.1887217" lon="7.2902767"><ele></ele><time>2016-5-22T7:15:45Z</time></trkpt>
<trkpt lat="46.1887217" lon="7.2902767"><ele></ele><time>2016-5-22T7:15:48Z</time></trkpt>
<trkpt lat="46.1887433" lon="7.2902867"><ele></ele><time>2016-5-22T7:15:51Z</time></trkpt>
<trkpt lat="46.1887433" lon="7.2902867"><ele></ele><time>2016-5-22T7:15:54Z</time></trkpt>
<trkpt lat="46.1887433" lon="7.2902867"><ele></ele><time>2016-5-22T7:15:57Z</time></trkpt>
<trkpt lat="46.1887433" lon="7.2902867"><ele></ele><time>2016-5-22T7:16:0Z</time></trkpt>
<trkpt lat="46.1887433" lon="7.2902867"><ele></ele><time>2016-5-22T7:16:3Z</time></trkpt>
<trkpt lat="46.1887233" lon="7.2902917"><ele></ele><time>2016-5-22T7:16:6Z</time></trkpt>
<trkpt lat="46.1887233" lon="7.2902917"><ele></ele><time>2016-5-22T7:16:9Z</time></trkpt>
<trkpt lat="46.1887233" lon="7.2902917"><ele></ele><time>2016-5-22T7:16:12Z</time></trkpt>
<trkpt lat="46.1887233" lon="7.2902917"><ele></ele><time>2016-5-22T7:16:15Z</time></trkpt>
<trkpt lat="46.1887233" lon="7.2902917"><ele></ele><time>2016-5-22T7:16:18Z</time></trkpt>
<trkpt lat="46.1887233" lon="7.2902917"><ele></ele><time>2016-5-22T7:16:21Z</time></trkpt>
<trkpt lat="46.1887233" lon="7.2902917"><ele></ele><time>2016-5-22T7:16:24Z</time></trkpt>
<trkpt lat="46.1887233" lon="7.2902917"><ele></ele><time>2016-5-22T7:16:27Z</time></trkpt>
<trkpt lat="46.1887233" lon="7.2902917"><ele></ele><time>2016-5-22T7:16:30Z</time></trkpt>
<trkpt lat="46.1887233" lon="7.2902917"><ele></ele><time>2016-5-22T7:16:33Z</time></trkpt>
<trkpt lat="46.1887233" lon="7.2902917"><ele></ele><time>2016-5-22T7:16:36Z</time></trkpt>
<trkpt lat="46.1887233" lon="7.2902917"><ele></ele><time>2016-5-22T7:16:39Z</time></trkpt>
<trkpt lat="46.1887233" lon="7.2902917"><ele></ele><time>2016-5-22T7:16:42Z</time></trkpt>
<trkpt lat="46.1887233" lon="7.2902917"><ele></ele><time>2016-5-22T7:16:45Z</time></trkpt>
<trkpt lat="46.1887233" lon="7.2902917"><ele></ele><time>2016-5-22T7:16:48Z</time></trkpt>
<trkpt lat="46.1887233" lon="7.2902917"><ele></ele><time>2016-5-22T7:16:51Z</time></trkpt>
<trkpt lat="46.1887233" lon="7.2902917"><ele></ele><time>2016-5-22T7:16:54Z</time></trkpt>
<trkpt lat="46.1887200" lon="7.2903067"><ele></ele><time>2016-5-22T7:16:57Z</time></trkpt>
<trkpt lat="46.1887100" lon="7.2903267"><ele></ele><time>2016-5-22T7:17:0Z</time></trkpt>
<trkpt lat="46.1886967" lon="7.2903433"><ele></ele><time>2016-5-22T7:17:3Z</time></trkpt>
<trkpt lat="46.1886783" lon="7.2903567"><ele></ele><time>2016-5-22T7:17:6Z</time></trkpt>
<trkpt lat="46.1886617" lon="7.2903700"><ele></ele><time>2016-5-22T7:17:9Z</time></trkpt>
<trkpt lat="46.1886500" lon="7.2903833"><ele></ele><time>2016-5-22T7:17:12Z</time></trkpt>
<trkpt lat="46.1886400" lon="7.2903933"><ele></ele><time>2016-5-22T7:17:15Z</time></trkpt>
<trkpt lat="46.1886283" lon="7.2904050"><ele></ele><time>2016-5-22T7:17:18Z</time></trkpt>
<trkpt lat="46.1886183" lon="7.2904200"><ele></ele><time>2016-5-22T7:17:21Z</time></trkpt>
<trkpt lat="46.1886033" lon="7.2904367"><ele></ele><time>2016-5-22T7:17:24Z</time></trkpt>
<trkpt lat="46.1885867" lon="7.2904567"><ele></ele><time>2016-5-22T7:17:27Z</time></trkpt>
<trkpt lat="46.1885867" lon="7.2904567"><ele></ele><time>2016-5-22T7:17:30Z</time></trkpt>
<trkpt lat="46.1885700" lon="7.2904717"><ele></ele><time>2016-5-22T7:17:33Z</time></trkpt>
<trkpt lat="46.1885567" lon="7.2904867"><ele></ele><time>2016-5-22T7:17:36Z</time></trkpt>
<trkpt lat="46.1885550" lon="7.2904983"><ele></ele><time>2016-5-22T7:17:39Z</time></trkpt>
<trkpt lat="46.1885483" lon="7.2905100"><ele></ele><time>2016-5-22T7:17:42Z</time></trkpt>
<trkpt lat="46.1885467" lon="7.2905233"><ele></ele><time>2016-5-22T7:17:45Z</time></trkpt>
<trkpt lat="46.1885433" lon="7.2905350"><ele></ele><time>2016-5-22T7:17:48Z</time></trkpt>
<trkpt lat="46.1885367" lon="7.2905467"><ele></ele><time>2016-5-22T7:17:51Z</time></trkpt>
<trkpt lat="46.1885317" lon="7.2905583"><ele></ele><time>2016-5-22T7:17:54Z</time></trkpt>
<trkpt lat="46.1885317" lon="7.2905650"><ele></ele><time>2016-5-22T7:17:57Z</time></trkpt>
<trkpt lat="46.1885300" lon="7.2905767"><ele></ele><time>2016-5-22T7:18:0Z</time></trkpt>
<trkpt lat="46.1885300" lon="7.2905917"><ele></ele><time>2016-5-22T7:18:3Z</time></trkpt>
<trkpt lat="46.1885300" lon="7.2905917"><ele></ele><time>2016-5-22T7:18:6Z</time></trkpt>
<trkpt lat="46.1885250" lon="7.2906083"><ele></ele><time>2016-5-22T7:18:9Z</time></trkpt>
<trkpt lat="46.1885217" lon="7.2906233"><ele></ele><time>2016-5-22T7:18:12Z</time></trkpt>
<trkpt lat="46.1885167" lon="7.2906367"><ele></ele><time>2016-5-22T7:18:15Z</time></trkpt>
<trkpt lat="46.1885117" lon="7.2906517"><ele></ele><time>2016-5-22T7:18:18Z</time></trkpt>
<trkpt lat="46.1885017" lon="7.2906667"><ele></ele><time>2016-5-22T7:18:21Z</time></trkpt>
<trkpt lat="46.1884950" lon="7.2906817"><ele></ele><time>2016-5-22T7:18:24Z</time></trkpt>
<trkpt lat="46.1884867" lon="7.2906933"><ele></ele><time>2016-5-22T7:18:27Z</time></trkpt>
<trkpt lat="46.1884783" lon="7.2907017"><ele></ele><time>2016-5-22T7:18:30Z</time></trkpt>
<trkpt lat="46.1884700" lon="7.2907083"><ele></ele><time>2016-5-22T7:18:33Z</time></trkpt>
<trkpt lat="46.1884600" lon="7.2907183"><ele></ele><time>2016-5-22T7:18:36Z</time></trkpt>
<trkpt lat="46.1884483" lon="7.2907267"><ele></ele><time>2016-5-22T7:18:39Z</time></trkpt>
<trkpt lat="46.1884350" lon="7.2907350"><ele></ele><time>2016-5-22T7:18:42Z</time></trkpt>
<trkpt lat="46.1884350" lon="7.2907350"><ele></ele><time>2016-5-22T7:18:45Z</time></trkpt>
<trkpt lat="46.1884217" lon="7.2907450"><ele></ele><time>2016-5-22T7:18:48Z</time></trkpt>
<trkpt lat="46.1884100" lon="7.2907583"><ele></ele><time>2016-5-22T7:18:51Z</time></trkpt>
<trkpt lat="46.1884017" lon="7.2907700"><ele></ele><time>2016-5-22T7:18:54Z</time></trkpt>
<trkpt lat="46.1883933" lon="7.2907850"><ele></ele><time>2016-5-22T7:18:57Z</time></trkpt>
<trkpt lat="46.1883783" lon="7.2908000"><ele></ele><time>2016-5-22T7:19:0Z</time></trkpt>
<trkpt lat="46.1883633" lon="7.2908150"><ele></ele><time>2016-5-22T7:19:3Z</time></trkpt>
<trkpt lat="46.1883500" lon="7.2908317"><ele></ele><time>2016-5-22T7:19:6Z</time></trkpt>
<trkpt lat="46.1883400" lon="7.2908483"><ele></ele><time>2016-5-22T7:19:9Z</time></trkpt>
<trkpt lat="46.1883250" lon="7.2908650"><ele></ele><time>2016-5-22T7:19:12Z</time></trkpt>
<trkpt lat="46.1883150" lon="7.2908850"><ele></ele><time>2016-5-22T7:19:15Z</time></trkpt>
<trkpt lat="46.1883100" lon="7.2909050"><ele></ele><time>2016-5-22T7:19:18Z</time></trkpt>
<trkpt lat="46.1883033" lon="7.2909267"><ele></ele><time>2016-5-22T7:19:21Z</time></trkpt>
<trkpt lat="46.1882950" lon="7.2909500"><ele></ele><time>2016-5-22T7:19:24Z</time></trkpt>
<trkpt lat="46.1882833" lon="7.2909717"><ele></ele><time>2016-5-22T7:19:27Z</time></trkpt>
<trkpt lat="46.1882833" lon="7.2909717"><ele></ele><time>2016-5-22T7:19:30Z</time></trkpt>
<trkpt lat="46.1882717" lon="7.2909933"><ele></ele><time>2016-5-22T7:19:33Z</time></trkpt>
<trkpt lat="46.1882667" lon="7.2910083"><ele></ele><time>2016-5-22T7:19:36Z</time></trkpt>
<trkpt lat="46.1882567" lon="7.2910250"><ele></ele><time>2016-5-22T7:19:39Z</time></trkpt>
<trkpt lat="46.1882500" lon="7.2910417"><ele></ele><time>2016-5-22T7:19:42Z</time></trkpt>
<trkpt lat="46.1882400" lon="7.2910550"><ele></ele><time>2016-5-22T7:19:45Z</time></trkpt>
<trkpt lat="46.1882317" lon="7.2910717"><ele></ele><time>2016-5-22T7:19:48Z</time></trkpt>
<trkpt lat="46.1882283" lon="7.2910917"><ele></ele><time>2016-5-22T7:19:51Z</time></trkpt>
<trkpt lat="46.1882383" lon="7.2911150"><ele></ele><time>2016-5-22T7:19:54Z</time></trkpt>
<trkpt lat="46.1882483" lon="7.2911383"><ele></ele><time>2016-5-22T7:19:57Z</time></trkpt>
<trkpt lat="46.1882550" lon="7.2911617"><ele></ele><time>2016-5-22T7:20:0Z</time></trkpt>
<trkpt lat="46.1882550" lon="7.2911617"><ele></ele><time>2016-5-22T7:20:3Z</time></trkpt>
<trkpt lat="46.1882567" lon="7.2911833"><ele></ele><time>2016-5-22T7:20:6Z</time></trkpt>
<trkpt lat="46.1882567" lon="7.2912033"><ele></ele><time>2016-5-22T7:20:9Z</time></trkpt>
<trkpt lat="46.1882567" lon="7.2912200"><ele></ele><time>2016-5-22T7:20:12Z</time></trkpt>
<trkpt lat="46.1882583" lon="7.2912383"><ele></ele><time>2016-5-22T7:20:15Z</time></trkpt>
<trkpt lat="46.1882600" lon="7.2912567"><ele></ele><time>2016-5-22T7:20:18Z</time></trkpt>
<trkpt lat="46.1882617" lon="7.2912717"><ele></ele><time>2016-5-22T7:20:21Z</time></trkpt>
<trkpt lat="46.1882633" lon="7.2912900"><ele></ele><time>2016-5-22T7:20:24Z</time></trkpt>
<trkpt lat="46.1882650" lon="7.2913133"><ele></ele><time>2016-5-22T7:20:27Z</time></trkpt>
<trkpt lat="46.1882750" lon="7.2913417"><ele></ele><time>2016-5-22T7:20:30Z</time></trkpt>
<trkpt lat="46.1882850" lon="7.2913667"><ele></ele><time>2016-5-22T7:20:33Z</time></trkpt>
<trkpt lat="46.1882950" lon="7.2913933"><ele></ele><time>2016-5-22T7:20:36Z</time></trkpt>
<trkpt lat="46.1883083" lon="7.2914217"><ele></ele><time>2016-5-22T7:20:39Z</time></trkpt>
<trkpt lat="46.1883083" lon="7.2914217"><ele></ele><time>2016-5-22T7:20:42Z</time></trkpt>
<trkpt lat="46.1883200" lon="7.2914500"><ele></ele><time>2016-5-22T7:20:45Z</time></trkpt>
<trkpt lat="46.1883300" lon="7.2914733"><ele></ele><time>2016-5-22T7:20:48Z</time></trkpt>
<trkpt lat="46.1883367" lon="7.2914950"><ele></ele><time>2016-5-22T7:20:51Z</time></trkpt>
<trkpt lat="46.1883417" lon="7.2915200"><ele></ele><time>2016-5-22T7:20:54Z</time></trkpt>
<trkpt lat="46.1883467" lon="7.2915433"><ele></ele><time>2016-5-22T7:20:57Z</time></trkpt>
<trkpt lat="46.1883550" lon="7.2915683"><ele></ele><time>2016-5-22T7:21:0Z</time></trkpt>
<trkpt lat="46.1883633" lon="7.2915900"><ele></ele><time>2016-5-22T7:21:3Z</time></trkpt>
<trkpt lat="46.1883683" lon="7.2916100"><ele></ele><time>2016-5-22T7:21:6Z</time></trkpt>
<trkpt lat="46.1883767" lon="7.2916283"><ele></ele><time>2016-5-22T7:21:9Z</time></trkpt>
<trkpt lat="46.1883850" lon="7.2916483"><ele></ele><time>2016-5-22T7:21:12Z</time></trkpt>
<trkpt lat="46.1883917" lon="7.2916683"><ele></ele><time>2016-5-22T7:21:15Z</time></trkpt>
<trkpt lat="46.1884000" lon="7.2916900"><ele></ele><time>2016-5-22T7:21:18Z</time></trkpt>
<trkpt lat="46.1884000" lon="7.2916900"><ele></ele><time>2016-5-22T7:21:21Z</time></trkpt>
<trkpt lat="46.1884117" lon="7.2917083"><ele></ele><time>2016-5-22T7:21:24Z</time></trkpt>
<trkpt lat="46.1884250" lon="7.2917250"><ele></ele><time>2016-5-22T7:21:27Z</time></trkpt>
<trkpt lat="46.1884383" lon="7.2917417"><ele></ele><time>2016-5-22T7:21:30Z</time></trkpt>
<trkpt lat="46.1884467" lon="7.2917600"><ele></ele><time>2016-5-22T7:21:33Z</time></trkpt>
<trkpt lat="46.1884533" lon="7.2917817"><ele></ele><time>2016-5-22T7:21:36Z</time></trkpt>
<trkpt lat="46.1884567" lon="7.2918117"><ele></ele><time>2016-5-22T7:21:39Z</time></trkpt>
<trkpt lat="46.1884633" lon="7.2918500"><ele></ele><time>2016-5-22T7:21:42Z</time></trkpt>
<trkpt lat="46.1884717" lon="7.2918883"><ele></ele><time>2016-5-22T7:21:45Z</time></trkpt>
<trkpt lat="46.1884867" lon="7.2919200"><ele></ele><time>2016-5-22T7:21:48Z</time></trkpt>
<trkpt lat="46.1885017" lon="7.2919500"><ele></ele><time>2016-5-22T7:21:51Z</time></trkpt>
<trkpt lat="46.1885200" lon="7.2919750"><ele></ele><time>2016-5-22T7:21:54Z</time></trkpt>
<trkpt lat="46.1885333" lon="7.2920017"><ele></ele><time>2016-5-22T7:21:57Z</time></trkpt>
<trkpt lat="46.1885450" lon="7.2920233"><ele></ele><time>2016-5-22T7:22:0Z</time></trkpt>
<trkpt lat="46.1885450" lon="7.2920233"><ele></ele><time>2016-5-22T7:22:3Z</time></trkpt>
<trkpt lat="46.1885567" lon="7.2920433"><ele></ele><time>2016-5-22T7:22:6Z</time></trkpt>
<trkpt lat="46.1885717" lon="7.2920650"><ele></ele><time>2016-5-22T7:22:9Z</time></trkpt>
<trkpt lat="46.1885867" lon="7.2920850"><ele></ele><time>2016-5-22T7:22:12Z</time></trkpt>
<trkpt lat="46.1886000" lon="7.2921050"><ele></ele><time>2016-5-22T7:22:15Z</time></trkpt>
<trkpt lat="46.1886117" lon="7.2921233"><ele></ele><time>2016-5-22T7:22:18Z</time></trkpt>
<trkpt lat="46.1886233" lon="7.2921500"><ele></ele><time>2016-5-22T7:22:21Z</time></trkpt>
<trkpt lat="46.1886383" lon="7.2921733"><ele></ele><time>2016-5-22T7:22:24Z</time></trkpt>
<trkpt lat="46.1886533" lon="7.2921950"><ele></ele><time>2016-5-22T7:22:27Z</time></trkpt>
<trkpt lat="46.1886683" lon="7.2922150"><ele></ele><time>2016-5-22T7:22:30Z</time></trkpt>
<trkpt lat="46.1886817" lon="7.2922317"><ele></ele><time>2016-5-22T7:22:33Z</time></trkpt>
<trkpt lat="46.1886900" lon="7.2922483"><ele></ele><time>2016-5-22T7:22:36Z</time></trkpt>
<trkpt lat="46.1886917" lon="7.2922650"><ele></ele><time>2016-5-22T7:22:39Z</time></trkpt>
<trkpt lat="46.1886933" lon="7.2922833"><ele></ele><time>2016-5-22T7:22:42Z</time></trkpt>
<trkpt lat="46.1886983" lon="7.2923067"><ele></ele><time>2016-5-22T7:22:45Z</time></trkpt>
<trkpt lat="46.1887033" lon="7.2923250"><ele></ele><time>2016-5-22T7:22:48Z</time></trkpt>
<trkpt lat="46.1887100" lon="7.2923417"><ele></ele><time>2016-5-22T7:22:51Z</time></trkpt>
<trkpt lat="46.1887167" lon="7.2923600"><ele></ele><time>2016-5-22T7:22:54Z</time></trkpt>
<trkpt lat="46.1887233" lon="7.2923767"><ele></ele><time>2016-5-22T7:22:57Z</time></trkpt>
<trkpt lat="46.1887283" lon="7.2923933"><ele></ele><time>2016-5-22T7:23:0Z</time></trkpt>
<trkpt lat="46.1887333" lon="7.2924167"><ele></ele><time>2016-5-22T7:23:3Z</time></trkpt>
<trkpt lat="46.1887367" lon="7.2924400"><ele></ele><time>2016-5-22T7:23:6Z</time></trkpt>
<trkpt lat="46.1887383" lon="7.2924650"><ele></ele><time>2016-5-22T7:23:9Z</time></trkpt>
<trkpt lat="46.1887433" lon="7.2924883"><ele></ele><time>2016-5-22T7:23:12Z</time></trkpt>
<trkpt lat="46.1887467" lon="7.2925133"><ele></ele><time>2016-5-22T7:23:15Z</time></trkpt>
<trkpt lat="46.1887500" lon="7.2925317"><ele></ele><time>2016-5-22T7:23:18Z</time></trkpt>
<trkpt lat="46.1887550" lon="7.2925500"><ele></ele><time>2016-5-22T7:23:21Z</time></trkpt>
<trkpt lat="46.1887617" lon="7.2925700"><ele></ele><time>2016-5-22T7:23:24Z</time></trkpt>
<trkpt lat="46.1887683" lon="7.2925883"><ele></ele><time>2016-5-22T7:23:27Z</time></trkpt>
<trkpt lat="46.1887750" lon="7.2926083"><ele></ele><time>2016-5-22T7:23:30Z</time></trkpt>
<trkpt lat="46.1887783" lon="7.2926300"><ele></ele><time>2016-5-22T7:23:33Z</time></trkpt>
<trkpt lat="46.1887750" lon="7.2926467"><ele></ele><time>2016-5-22T7:23:36Z</time></trkpt>
<trkpt lat="46.1887817" lon="7.2926633"><ele></ele><time>2016-5-22T7:23:39Z</time></trkpt>
<trkpt lat="46.1887983" lon="7.2926833"><ele></ele><time>2016-5-22T7:23:42Z</time></trkpt>
<trkpt lat="46.1888150" lon="7.2927017"><ele></ele><time>2016-5-22T7:23:45Z</time></trkpt>
<trkpt lat="46.1888283" lon="7.2927183"><ele></ele><time>2016-5-22T7:23:48Z</time></trkpt>
<trkpt lat="46.1888350" lon="7.2927383"><ele></ele><time>2016-5-22T7:23:51Z</time></trkpt>
<trkpt lat="46.1888383" lon="7.2927600"><ele></ele><time>2016-5-22T7:23:54Z</time></trkpt>
<trkpt lat="46.1888367" lon="7.2927817"><ele></ele><time>2016-5-22T7:23:57Z</time></trkpt>
<trkpt lat="46.1888367" lon="7.2928000"><ele></ele><time>2016-5-22T7:24:0Z</time></trkpt>
<trkpt lat="46.1888367" lon="7.2928150"><ele></ele><time>2016-5-22T7:24:3Z</time></trkpt>
<trkpt lat="46.1888367" lon="7.2928317"><ele></ele><time>2016-5-22T7:24:6Z</time></trkpt>
<trkpt lat="46.1888367" lon="7.2928483"><ele></ele><time>2016-5-22T7:24:9Z</time></trkpt>
<trkpt lat="46.1888350" lon="7.2928667"><ele></ele><time>2016-5-22T7:24:12Z</time></trkpt>
<trkpt lat="46.1888283" lon="7.2928850"><ele></ele><time>2016-5-22T7:24:15Z</time></trkpt>
<trkpt lat="46.1888200" lon="7.2929000"><ele></ele><time>2016-5-22T7:24:18Z</time></trkpt>
<trkpt lat="46.1888133" lon="7.2929200"><ele></ele><time>2016-5-22T7:24:21Z</time></trkpt>
<trkpt lat="46.1888083" lon="7.2929400"><ele></ele><time>2016-5-22T7:24:24Z</time></trkpt>
<trkpt lat="46.1887950" lon="7.2929600"><ele></ele><time>2016-5-22T7:24:27Z</time></trkpt>
<trkpt lat="46.1887867" lon="7.2929833"><ele></ele><time>2016-5-22T7:24:30Z</time></trkpt>
<trkpt lat="46.1887833" lon="7.2930067"><ele></ele><time>2016-5-22T7:24:33Z</time></trkpt>
<trkpt lat="46.1887767" lon="7.2930300"><ele></ele><time>2016-5-22T7:24:36Z</time></trkpt>
<trkpt lat="46.1887733" lon="7.2930533"><ele></ele><time>2016-5-22T7:24:39Z</time></trkpt>
<trkpt lat="46.1887700" lon="7.2930717"><ele></ele><time>2016-5-22T7:24:42Z</time></trkpt>
<trkpt lat="46.1887667" lon="7.2930883"><ele></ele><time>2016-5-22T7:24:45Z</time></trkpt>
<trkpt lat="46.1887650" lon="7.2931117"><ele></ele><time>2016-5-22T7:24:48Z</time></trkpt>
<trkpt lat="46.1887650" lon="7.2931333"><ele></ele><time>2016-5-22T7:24:51Z</time></trkpt>
<trkpt lat="46.1887750" lon="7.2931583"><ele></ele><time>2016-5-22T7:24:54Z</time></trkpt>
<trkpt lat="46.1887817" lon="7.2931833"><ele></ele><time>2016-5-22T7:24:57Z</time></trkpt>
<trkpt lat="46.1887867" lon="7.2932067"><ele></ele><time>2016-5-22T7:25:0Z</time></trkpt>
<trkpt lat="46.1887900" lon="7.2932317"><ele></ele><time>2016-5-22T7:25:3Z</time></trkpt>
<trkpt lat="46.1887967" lon="7.2932567"><ele></ele><time>2016-5-22T7:25:6Z</time></trkpt>
<trkpt lat="46.1888033" lon="7.2932750"><ele></ele><time>2016-5-22T7:25:9Z</time></trkpt>
<trkpt lat="46.1888100" lon="7.2932950"><ele></ele><time>2016-5-22T7:25:12Z</time></trkpt>
<trkpt lat="46.1888133" lon="7.2933150"><ele></ele><time>2016-5-22T7:25:15Z</time></trkpt>
<trkpt lat="46.1888200" lon="7.2933317"><ele></ele><time>2016-5-22T7:25:18Z</time></trkpt>
<trkpt lat="46.1888250" lon="7.2933467"><ele></ele><time>2016-5-22T7:25:21Z</time></trkpt>
<trkpt lat="46.1888367" lon="7.2933600"><ele></ele><time>2016-5-22T7:25:24Z</time></trkpt>
<trkpt lat="46.1888450" lon="7.2933717"><ele></ele><time>2016-5-22T7:25:27Z</time></trkpt>
<trkpt lat="46.1888533" lon="7.2933883"><ele></ele><time>2016-5-22T7:25:30Z</time></trkpt>
<trkpt lat="46.1888567" lon="7.2934033"><ele></ele><time>2016-5-22T7:25:33Z</time></trkpt>
<trkpt lat="46.1888567" lon="7.2934200"><ele></ele><time>2016-5-22T7:25:36Z</time></trkpt>
<trkpt lat="46.1888550" lon="7.2934383"><ele></ele><time>2016-5-22T7:25:39Z</time></trkpt>
<trkpt lat="46.1888533" lon="7.2934567"><ele></ele><time>2016-5-22T7:25:42Z</time></trkpt>
<trkpt lat="46.1888517" lon="7.2934767"><ele></ele><time>2016-5-22T7:25:45Z</time></trkpt>
<trkpt lat="46.1888517" lon="7.2934933"><ele></ele><time>2016-5-22T7:25:48Z</time></trkpt>
<trkpt lat="46.1888533" lon="7.2935067"><ele></ele><time>2016-5-22T7:25:51Z</time></trkpt>
<trkpt lat="46.1888533" lon="7.2935250"><ele></ele><time>2016-5-22T7:25:54Z</time></trkpt>
<trkpt lat="46.1888533" lon="7.2935400"><ele></ele><time>2016-5-22T7:25:57Z</time></trkpt>
<trkpt lat="46.1888533" lon="7.2935550"><ele></ele><time>2016-5-22T7:26:0Z</time></trkpt>
<trkpt lat="46.1888517" lon="7.2935683"><ele></ele><time>2016-5-22T7:26:3Z</time></trkpt>
<trkpt lat="46.1888533" lon="7.2935800"><ele></ele><time>2016-5-22T7:26:6Z</time></trkpt>
<trkpt lat="46.1888533" lon="7.2935950"><ele></ele><time>2016-5-22T7:26:9Z</time></trkpt>
<trkpt lat="46.1888517" lon="7.2936133"><ele></ele><time>2016-5-22T7:26:12Z</time></trkpt>
<trkpt lat="46.1888500" lon="7.2936333"><ele></ele><time>2016-5-22T7:26:15Z</time></trkpt>
<trkpt lat="46.1888500" lon="7.2936517"><ele></ele><time>2016-5-22T7:26:18Z</time></trkpt>
<trkpt lat="46.1888517" lon="7.2936683"><ele></ele><time>2016-5-22T7:26:21Z</time></trkpt>
<trkpt lat="46.1888567" lon="7.2936833"><ele></ele><time>2016-5-22T7:26:24Z</time></trkpt>
<trkpt lat="46.1888617" lon="7.2936950"><ele></ele><time>2016-5-22T7:26:27Z</time></trkpt>
<trkpt lat="46.1888633" lon="7.2937033"><ele></ele><time>2016-5-22T7:26:30Z</time></trkpt>
<trkpt lat="46.1888600" lon="7.2937133"><ele></ele><time>2016-5-22T7:26:33Z</time></trkpt>
<trkpt lat="46.1888583" lon="7.2937283"><ele></ele><time>2016-5-22T7:26:36Z</time></trkpt>
<trkpt lat="46.1888617" lon="7.2937450"><ele></ele><time>2016-5-22T7:26:39Z</time></trkpt>
<trkpt lat="46.1888667" lon="7.2937650"><ele></ele><time>2016-5-22T7:26:42Z</time></trkpt>
<trkpt lat="46.1888717" lon="7.2937883"><ele></ele><time>2016-5-22T7:26:45Z</time></trkpt>
<trkpt lat="46.1888767" lon="7.2938083"><ele></ele><time>2016-5-22T7:26:48Z</time></trkpt>
<trkpt lat="46.1888800" lon="7.2938283"><ele></ele><time>2016-5-22T7:26:51Z</time></trkpt>
<trkpt lat="46.1888833" lon="7.2938467"><ele></ele><time>2016-5-22T7:26:54Z</time></trkpt>
<trkpt lat="46.1888900" lon="7.2938667"><ele></ele><time>2016-5-22T7:26:57Z</time></trkpt>
<trkpt lat="46.1888967" lon="7.2938883"><ele></ele><time>2016-5-22T7:27:0Z</time></trkpt>
<trkpt lat="46.1889000" lon="7.2939050"><ele></ele><time>2016-5-22T7:27:3Z</time></trkpt>
<trkpt lat="46.1889017" lon="7.2939217"><ele></ele><time>2016-5-22T7:27:6Z</time></trkpt>
<trkpt lat="46.1889033" lon="7.2939417"><ele></ele><time>2016-5-22T7:27:9Z</time></trkpt>
<trkpt lat="46.1889067" lon="7.2939617"><ele></ele><time>2016-5-22T7:27:12Z</time></trkpt>
<trkpt lat="46.1889133" lon="7.2939800"><ele></ele><time>2016-5-22T7:27:15Z</time></trkpt>
<trkpt lat="46.1889167" lon="7.2939967"><ele></ele><time>2016-5-22T7:27:18Z</time></trkpt>
<trkpt lat="46.1889200" lon="7.2940117"><ele></ele><time>2016-5-22T7:27:21Z</time></trkpt>
<trkpt lat="46.1889233" lon="7.2940300"><ele></ele><time>2016-5-22T7:27:24Z</time></trkpt>
<trkpt lat="46.1889267" lon="7.2940500"><ele></ele><time>2016-5-22T7:27:27Z</time></trkpt>
<trkpt lat="46.1889317" lon="7.2940633"><ele></ele><time>2016-5-22T7:27:30Z</time></trkpt>
<trkpt lat="46.1889367" lon="7.2940767"><ele></ele><time>2016-5-22T7:27:33Z</time></trkpt>
<trkpt lat="46.1889417" lon="7.2940967"><ele></ele><time>2016-5-22T7:27:36Z</time></trkpt>
<trkpt lat="46.1889450" lon="7.2941133"><ele></ele><time>2016-5-22T7:27:39Z</time></trkpt>
<trkpt lat="46.1889500" lon="7.2941317"><ele></ele><time>2016-5-22T7:27:42Z</time></trkpt>
<trkpt lat="46.1889517" lon="7.2941517"><ele></ele><time>2016-5-22T7:27:45Z</time></trkpt>
<trkpt lat="46.1889500" lon="7.2941733"><ele></ele><time>2016-5-22T7:27:48Z</time></trkpt>
<trkpt lat="46.1889450" lon="7.2941933"><ele></ele><time>2016-5-22T7:27:51Z</time></trkpt>
<trkpt lat="46.1889367" lon="7.2942083"><ele></ele><time>2016-5-22T7:27:54Z</time></trkpt>
<trkpt lat="46.1889300" lon="7.2942200"><ele></ele><time>2016-5-22T7:27:57Z</time></trkpt>
<trkpt lat="46.1889267" lon="7.2942367"><ele></ele><time>2016-5-22T7:28:0Z</time></trkpt>
<trkpt lat="46.1889250" lon="7.2942567"><ele></ele><time>2016-5-22T7:28:3Z</time></trkpt>
<trkpt lat="46.1889233" lon="7.2942750"><ele></ele><time>2016-5-22T7:28:6Z</time></trkpt>
<trkpt lat="46.1889250" lon="7.2942900"><ele></ele><time>2016-5-22T7:28:9Z</time></trkpt>
<trkpt lat="46.1889267" lon="7.2943067"><ele></ele><time>2016-5-22T7:28:12Z</time></trkpt>
<trkpt lat="46.1889283" lon="7.2943200"><ele></ele><time>2016-5-22T7:28:15Z</time></trkpt>
<trkpt lat="46.1889317" lon="7.2943350"><ele></ele><time>2016-5-22T7:28:18Z</time></trkpt>
<trkpt lat="46.1889317" lon="7.2943533"><ele></ele><time>2016-5-22T7:28:21Z</time></trkpt>
<trkpt lat="46.1889300" lon="7.2943700"><ele></ele><time>2016-5-22T7:28:24Z</time></trkpt>
<trkpt lat="46.1889283" lon="7.2943867"><ele></ele><time>2016-5-22T7:28:27Z</time></trkpt>
<trkpt lat="46.1889250" lon="7.2944017"><ele></ele><time>2016-5-22T7:28:30Z</time></trkpt>
<trkpt lat="46.1889233" lon="7.2944150"><ele></ele><time>2016-5-22T7:28:33Z</time></trkpt>
<trkpt lat="46.1889233" lon="7.2944317"><ele></ele><time>2016-5-22T7:28:36Z</time></trkpt>
<trkpt lat="46.1889267" lon="7.2944483"><ele></ele><time>2016-5-22T7:28:39Z</time></trkpt>
<trkpt lat="46.1889317" lon="7.2944667"><ele></ele><time>2016-5-22T7:28:42Z</time></trkpt>
<trkpt lat="46.1889367" lon="7.2944833"><ele></ele><time>2016-5-22T7:28:45Z</time></trkpt>
<trkpt lat="46.1889417" lon="7.2944967"><ele></ele><time>2016-5-22T7:28:48Z</time></trkpt>
<trkpt lat="46.1889467" lon="7.2945133"><ele></ele><time>2016-5-22T7:28:51Z</time></trkpt>
<trkpt lat="46.1889483" lon="7.2945300"><ele></ele><time>2016-5-22T7:28:54Z</time></trkpt>
<trkpt lat="46.1889450" lon="7.2945433"><ele></ele><time>2016-5-22T7:28:57Z</time></trkpt>
<trkpt lat="46.1889433" lon="7.2945600"><ele></ele><time>2016-5-22T7:29:0Z</time></trkpt>
<trkpt lat="46.1889433" lon="7.2945767"><ele></ele><time>2016-5-22T7:29:3Z</time></trkpt>
<trkpt lat="46.1889483" lon="7.2945967"><ele></ele><time>2016-5-22T7:29:6Z</time></trkpt>
<trkpt lat="46.1889550" lon="7.2946150"><ele></ele><time>2016-5-22T7:29:9Z</time></trkpt>
<trkpt lat="46.1889583" lon="7.2946333"><ele></ele><time>2016-5-22T7:29:12Z</time></trkpt>
<trkpt lat="46.1889583" lon="7.2946500"><ele></ele><time>2016-5-22T7:29:15Z</time></trkpt>
<trkpt lat="46.1889483" lon="7.2946600"><ele></ele><time>2016-5-22T7:29:18Z</time></trkpt>
<trkpt lat="46.1889317" lon="7.2946583"><ele></ele><time>2016-5-22T7:29:21Z</time></trkpt>
<trkpt lat="46.1889150" lon="7.2946400"><ele></ele><time>2016-5-22T7:29:24Z</time></trkpt>
<trkpt lat="46.1889017" lon="7.2946167"><ele></ele><time>2016-5-22T7:29:27Z</time></trkpt>
<trkpt lat="46.1888900" lon="7.2945933"><ele></ele><time>2016-5-22T7:29:30Z</time></trkpt>
<trkpt lat="46.1888767" lon="7.2945650"><ele></ele><time>2016-5-22T7:29:33Z</time></trkpt>
<trkpt lat="46.1888633" lon="7.2945367"><ele></ele><time>2016-5-22T7:29:36Z</time></trkpt>
<trkpt lat="46.1888500" lon="7.2945083"><ele></ele><time>2016-5-22T7:29:39Z</time></trkpt>
<trkpt lat="46.1888367" lon="7.2944783"><ele></ele><time>2016-5-22T7:29:42Z</time></trkpt>
<trkpt lat="46.1888217" lon="7.2944483"><ele></ele><time>2016-5-22T7:29:45Z</time></trkpt>
<trkpt lat="46.1888083" lon="7.2944183"><ele></ele><time>2016-5-22T7:29:48Z</time></trkpt>
<trkpt lat="46.1887950" lon="7.2943917"><ele></ele><time>2016-5-22T7:29:51Z</time></trkpt>
<trkpt lat="46.1887833" lon="7.2943717"><ele></ele><time>2016-5-22T7:29:54Z</time></trkpt>
<trkpt lat="46.1887717" lon="7.2943600"><ele></ele><time>2016-5-22T7:29:57Z</time></trkpt>
<trkpt lat="46.1887583" lon="7.2943533"><ele></ele><time>2016-5-22T7:30:0Z</time></trkpt>
<trkpt lat="46.1887450" lon="7.2943550"><ele></ele><time>2016-5-22T7:30:3Z</time></trkpt>
<trkpt lat="46.1887350" lon="7.2943633"><ele></ele><time>2016-5-22T7:30:6Z</time></trkpt>
<trkpt lat="46.1887283" lon="7.2943800"><ele></ele><time>2016-5-22T7:30:9Z</time></trkpt>
<trkpt lat="46.1887267" lon="7.2944017"><ele></ele><time>2016-5-22T7:30:12Z</time></trkpt>
<trkpt lat="46.1887317" lon="7.2944250"><ele></ele><time>2016-5-22T7:30:15Z</time></trkpt>
<trkpt lat="46.1887383" lon="7.2944500"><ele></ele><time>2016-5-22T7:30:18Z</time></trkpt>
<trkpt lat="46.1887467" lon="7.2944750"><ele></ele><time>2016-5-22T7:30:21Z</time></trkpt>
<trkpt lat="46.1887500" lon="7.2944950"><ele></ele><time>2016-5-22T7:30:24Z</time></trkpt>
<trkpt lat="46.1887517" lon="7.2945083"><ele></ele><time>2016-5-22T7:30:27Z</time></trkpt>
<trkpt lat="46.1887533" lon="7.2945217"><ele></ele><time>2016-5-22T7:30:30Z</time></trkpt>
<trkpt lat="46.1887567" lon="7.2945400"><ele></ele><time>2016-5-22T7:30:33Z</time></trkpt>
<trkpt lat="46.1887600" lon="7.2945617"><ele></ele><time>2016-5-22T7:30:36Z</time></trkpt>
<trkpt lat="46.1887633" lon="7.2945867"><ele></ele><time>2016-5-22T7:30:39Z</time></trkpt>
<trkpt lat="46.1887667" lon="7.2946117"><ele></ele><time>2016-5-22T7:30:42Z</time></trkpt>
<trkpt lat="46.1887717" lon="7.2946383"><ele></ele><time>2016-5-22T7:30:45Z</time></trkpt>
<trkpt lat="46.1887750" lon="7.2946650"><ele></ele><time>2016-5-22T7:30:48Z</time></trkpt>
<trkpt lat="46.1887800" lon="7.2946867"><ele></ele><time>2016-5-22T7:30:51Z</time></trkpt>
<trkpt lat="46.1887850" lon="7.2947083"><ele></ele><time>2016-5-22T7:30:54Z</time></trkpt>
<trkpt lat="46.1887900" lon="7.2947300"><ele></ele><time>2016-5-22T7:30:57Z</time></trkpt>
<trkpt lat="46.1887950" lon="7.2947517"><ele></ele><time>2016-5-22T7:31:0Z</time></trkpt>
<trkpt lat="46.1888033" lon="7.2947733"><ele></ele><time>2016-5-22T7:31:3Z</time></trkpt>
<trkpt lat="46.1888117" lon="7.2947933"><ele></ele><time>2016-5-22T7:31:6Z</time></trkpt>
<trkpt lat="46.1888167" lon="7.2948133"><ele></ele><time>2016-5-22T7:31:9Z</time></trkpt>
<trkpt lat="46.1888183" lon="7.2948367"><ele></ele><time>2016-5-22T7:31:12Z</time></trkpt>
<trkpt lat="46.1888133" lon="7.2948583"><ele></ele><time>2016-5-22T7:31:15Z</time></trkpt>
<trkpt lat="46.1888033" lon="7.2948767"><ele></ele><time>2016-5-22T7:31:18Z</time></trkpt>
<trkpt lat="46.1887900" lon="7.2948950"><ele></ele><time>2016-5-22T7:31:21Z</time></trkpt>
<trkpt lat="46.1887783" lon="7.2949083"><ele></ele><time>2016-5-22T7:31:24Z</time></trkpt>
<trkpt lat="46.1887650" lon="7.2949183"><ele></ele><time>2016-5-22T7:31:27Z</time></trkpt>
<trkpt lat="46.1887583" lon="7.2949267"><ele></ele><time>2016-5-22T7:31:30Z</time></trkpt>
<trkpt lat="46.1887500" lon="7.2949333"><ele></ele><time>2016-5-22T7:31:33Z</time></trkpt>
<trkpt lat="46.1887433" lon="7.2949417"><ele></ele><time>2016-5-22T7:31:36Z</time></trkpt>
<trkpt lat="46.1887383" lon="7.2949567"><ele></ele><time>2016-5-22T7:31:39Z</time></trkpt>
<trkpt lat="46.1887367" lon="7.2949750"><ele></ele><time>2016-5-22T7:31:42Z</time></trkpt>
<trkpt lat="46.1887350" lon="7.2949950"><ele></ele><time>2016-5-22T7:31:45Z</time></trkpt>
<trkpt lat="46.1887317" lon="7.2950117"><ele></ele><time>2016-5-22T7:31:48Z</time></trkpt>
<trkpt lat="46.1887317" lon="7.2950300"><ele></ele><time>2016-5-22T7:31:51Z</time></trkpt>
<trkpt lat="46.1887350" lon="7.2950500"><ele></ele><time>2016-5-22T7:31:54Z</time></trkpt>
<trkpt lat="46.1887350" lon="7.2950717"><ele></ele><time>2016-5-22T7:31:57Z</time></trkpt>
<trkpt lat="46.1887350" lon="7.2950917"><ele></ele><time>2016-5-22T7:32:0Z</time></trkpt>
<trkpt lat="46.1887367" lon="7.2951117"><ele></ele><time>2016-5-22T7:32:3Z</time></trkpt>
<trkpt lat="46.1887367" lon="7.2951333"><ele></ele><time>2016-5-22T7:32:6Z</time></trkpt>
<trkpt lat="46.1887333" lon="7.2951483"><ele></ele><time>2016-5-22T7:32:9Z</time></trkpt>
<trkpt lat="46.1887267" lon="7.2951633"><ele></ele><time>2016-5-22T7:32:12Z</time></trkpt>
<trkpt lat="46.1887200" lon="7.2951783"><ele></ele><time>2016-5-22T7:32:15Z</time></trkpt>
<trkpt lat="46.1887117" lon="7.2951983"><ele></ele><time>2016-5-22T7:32:18Z</time></trkpt>
<trkpt lat="46.1887033" lon="7.2952183"><ele></ele><time>2016-5-22T7:32:21Z</time></trkpt>
<trkpt lat="46.1886950" lon="7.2952400"><ele></ele><time>2016-5-22T7:32:24Z</time></trkpt>
<trkpt lat="46.1886867" lon="7.2952617"><ele></ele><time>2016-5-22T7:32:27Z</time></trkpt>
<trkpt lat="46.1886783" lon="7.2952833"><ele></ele><time>2016-5-22T7:32:30Z</time></trkpt>
<trkpt lat="46.1886700" lon="7.2953017"><ele></ele><time>2016-5-22T7:32:33Z</time></trkpt>
<trkpt lat="46.1886617" lon="7.2953183"><ele></ele><time>2016-5-22T7:32:36Z</time></trkpt>
<trkpt lat="46.1886500" lon="7.2953383"><ele></ele><time>2016-5-22T7:32:39Z</time></trkpt>
<trkpt lat="46.1886400" lon="7.2953583"><ele></ele><time>2016-5-22T7:32:42Z</time></trkpt>
<trkpt lat="46.1886317" lon="7.2953833"><ele></ele><time>2016-5-22T7:32:45Z</time></trkpt>
<trkpt lat="46.1886283" lon="7.2954100"><ele></ele><time>2016-5-22T7:32:48Z</time></trkpt>
<trkpt lat="46.1886283" lon="7.2954400"><ele></ele><time>2016-5-22T7:32:51Z</time></trkpt>
<trkpt lat="46.1886317" lon="7.2954733"><ele></ele><time>2016-5-22T7:32:54Z</time></trkpt>
<trkpt lat="46.1886333" lon="7.2955067"><ele></ele><time>2016-5-22T7:32:57Z</time></trkpt>
<trkpt lat="46.1886350" lon="7.2955417"><ele></ele><time>2016-5-22T7:33:0Z</time></trkpt>
<trkpt lat="46.1886350" lon="7.2955750"><ele></ele><time>2016-5-22T7:33:3Z</time></trkpt>
<trkpt lat="46.1886333" lon="7.2956017"><ele></ele><time>2016-5-22T7:33:6Z</time></trkpt>
<trkpt lat="46.1886300" lon="7.2956250"><ele></ele><time>2016-5-22T7:33:9Z</time></trkpt>
<trkpt lat="46.1886217" lon="7.2956483"><ele></ele><time>2016-5-22T7:33:12Z</time></trkpt>
<trkpt lat="46.1886100" lon="7.2956733"><ele></ele><time>2016-5-22T7:33:15Z</time></trkpt>
<trkpt lat="46.1885967" lon="7.2956983"><ele></ele><time>2016-5-22T7:33:18Z</time></trkpt>
<trkpt lat="46.1885833" lon="7.2957250"><ele></ele><time>2016-5-22T7:33:21Z</time></trkpt>
<trkpt lat="46.1885717" lon="7.2957517"><ele></ele><time>2016-5-22T7:33:24Z</time></trkpt>
<trkpt lat="46.1885583" lon="7.2957767"><ele></ele><time>2016-5-22T7:33:27Z</time></trkpt>
<trkpt lat="46.1885450" lon="7.2958017"><ele></ele><time>2016-5-22T7:33:30Z</time></trkpt>
<trkpt lat="46.1885400" lon="7.2958233"><ele></ele><time>2016-5-22T7:33:33Z</time></trkpt>
<trkpt lat="46.1885367" lon="7.2958450"><ele></ele><time>2016-5-22T7:33:36Z</time></trkpt>
<trkpt lat="46.1885350" lon="7.2958667"><ele></ele><time>2016-5-22T7:33:39Z</time></trkpt>
<trkpt lat="46.1885300" lon="7.2958933"><ele></ele><time>2016-5-22T7:33:42Z</time></trkpt>
<trkpt lat="46.1885250" lon="7.2959233"><ele></ele><time>2016-5-22T7:33:45Z</time></trkpt>
<trkpt lat="46.1885200" lon="7.2959583"><ele></ele><time>2016-5-22T7:33:48Z</time></trkpt>
<trkpt lat="46.1885133" lon="7.2959950"><ele></ele><time>2016-5-22T7:33:51Z</time></trkpt>
<trkpt lat="46.1885067" lon="7.2960350"><ele></ele><time>2016-5-22T7:33:54Z</time></trkpt>
<trkpt lat="46.1885017" lon="7.2960767"><ele></ele><time>2016-5-22T7:33:57Z</time></trkpt>
<trkpt lat="46.1884983" lon="7.2961183"><ele></ele><time>2016-5-22T7:34:0Z</time></trkpt>
<trkpt lat="46.1884950" lon="7.2961583"><ele></ele><time>2016-5-22T7:34:3Z</time></trkpt>
<trkpt lat="46.1884900" lon="7.2962000"><ele></ele><time>2016-5-22T7:34:6Z</time></trkpt>
<trkpt lat="46.1884850" lon="7.2962433"><ele></ele><time>2016-5-22T7:34:9Z</time></trkpt>
<trkpt lat="46.1884783" lon="7.2962883"><ele></ele><time>2016-5-22T7:34:12Z</time></trkpt>
<trkpt lat="46.1884733" lon="7.2963317"><ele></ele><time>2016-5-22T7:34:15Z</time></trkpt>
<trkpt lat="46.1884650" lon="7.2963717"><ele></ele><time>2016-5-22T7:34:18Z</time></trkpt>
<trkpt lat="46.1884583" lon="7.2964083"><ele></ele><time>2016-5-22T7:34:21Z</time></trkpt>
<trkpt lat="46.1884517" lon="7.2964417"><ele></ele><time>2016-5-22T7:34:24Z</time></trkpt>
<trkpt lat="46.1884450" lon="7.2964767"><ele></ele><time>2016-5-22T7:34:27Z</time></trkpt>
<trkpt lat="46.1884367" lon="7.2965133"><ele></ele><time>2016-5-22T7:34:30Z</time></trkpt>
<trkpt lat="46.1884283" lon="7.2965517"><ele></ele><time>2016-5-22T7:34:33Z</time></trkpt>
<trkpt lat="46.1884183" lon="7.2965950"><ele></ele><time>2016-5-22T7:34:36Z</time></trkpt>
<trkpt lat="46.1884083" lon="7.2966417"><ele></ele><time>2016-5-22T7:34:39Z</time></trkpt>
<trkpt lat="46.1883967" lon="7.2966867"><ele></ele><time>2016-5-22T7:34:42Z</time></trkpt>
<trkpt lat="46.1883850" lon="7.2967317"><ele></ele><time>2016-5-22T7:34:45Z</time></trkpt>
<trkpt lat="46.1883733" lon="7.2967733"><ele></ele><time>2016-5-22T7:34:48Z</time></trkpt>
<trkpt lat="46.1883600" lon="7.2968133"><ele></ele><time>2016-5-22T7:34:51Z</time></trkpt>
<trkpt lat="46.1883467" lon="7.2968533"><ele></ele><time>2016-5-22T7:34:54Z</time></trkpt>
<trkpt lat="46.1883317" lon="7.2968933"><ele></ele><time>2016-5-22T7:34:57Z</time></trkpt>
<trkpt lat="46.1883183" lon="7.2969317"><ele></ele><time>2016-5-22T7:35:0Z</time></trkpt>
<trkpt lat="46.1883050" lon="7.2969717"><ele></ele><time>2016-5-22T7:35:3Z</time></trkpt>
<trkpt lat="46.1882917" lon="7.2970117"><ele></ele><time>2016-5-22T7:35:6Z</time></trkpt>
<trkpt lat="46.1882783" lon="7.2970500"><ele></ele><time>2016-5-22T7:35:9Z</time></trkpt>
<trkpt lat="46.1882600" lon="7.2970817"><ele></ele><time>2016-5-22T7:35:12Z</time></trkpt>
<trkpt lat="46.1882383" lon="7.2971033"><ele></ele><time>2016-5-22T7:35:15Z</time></trkpt>
<trkpt lat="46.1882150" lon="7.2971150"><ele></ele><time>2016-5-22T7:35:18Z</time></trkpt>
<trkpt lat="46.1881867" lon="7.2971167"><ele></ele><time>2016-5-22T7:35:21Z</time></trkpt>
<trkpt lat="46.1881567" lon="7.2971150"><ele></ele><time>2016-5-22T7:35:24Z</time></trkpt>
<trkpt lat="46.1881267" lon="7.2971117"><ele></ele><time>2016-5-22T7:35:27Z</time></trkpt>
<trkpt lat="46.1880983" lon="7.2971100"><ele></ele><time>2016-5-22T7:35:30Z</time></trkpt>
<trkpt lat="46.1880683" lon="7.2971083"><ele></ele><time>2016-5-22T7:35:33Z</time></trkpt>
<trkpt lat="46.1880367" lon="7.2971083"><ele></ele><time>2016-5-22T7:35:36Z</time></trkpt>
<trkpt lat="46.1880033" lon="7.2971100"><ele></ele><time>2016-5-22T7:35:39Z</time></trkpt>
<trkpt lat="46.1879717" lon="7.2971117"><ele></ele><time>2016-5-22T7:35:42Z</time></trkpt>
<trkpt lat="46.1879383" lon="7.2971117"><ele></ele><time>2016-5-22T7:35:45Z</time></trkpt>
<trkpt lat="46.1879050" lon="7.2971117"><ele></ele><time>2016-5-22T7:35:48Z</time></trkpt>
<trkpt lat="46.1878700" lon="7.2971117"><ele></ele><time>2016-5-22T7:35:51Z</time></trkpt>
<trkpt lat="46.1878350" lon="7.2971117"><ele></ele><time>2016-5-22T7:35:54Z</time></trkpt>
<trkpt lat="46.1878000" lon="7.2971133"><ele></ele><time>2016-5-22T7:35:57Z</time></trkpt>
<trkpt lat="46.1877650" lon="7.2971150"><ele></ele><time>2016-5-22T7:36:0Z</time></trkpt>
<trkpt lat="46.1877300" lon="7.2971200"><ele></ele><time>2016-5-22T7:36:3Z</time></trkpt>
<trkpt lat="46.1876967" lon="7.2971267"><ele></ele><time>2016-5-22T7:36:6Z</time></trkpt>
<trkpt lat="46.1876633" lon="7.2971300"><ele></ele><time>2016-5-22T7:36:9Z</time></trkpt>
<trkpt lat="46.1876417" lon="7.2971333"><ele></ele><time>2016-5-22T7:36:12Z</time></trkpt>
<trkpt lat="46.1876150" lon="7.2971400"><ele></ele><time>2016-5-22T7:36:15Z</time></trkpt>
<trkpt lat="46.1875767" lon="7.2971517"><ele></ele><time>2016-5-22T7:36:18Z</time></trkpt>
<trkpt lat="46.1875483" lon="7.2971617"><ele></ele><time>2016-5-22T7:36:21Z</time></trkpt>
<trkpt lat="46.1875267" lon="7.2971683"><ele></ele><time>2016-5-22T7:36:24Z</time></trkpt>
<trkpt lat="46.1874967" lon="7.2971750"><ele></ele><time>2016-5-22T7:36:27Z</time></trkpt>
<trkpt lat="46.1874600" lon="7.2971867"><ele></ele><time>2016-5-22T7:36:30Z</time></trkpt>
<trkpt lat="46.1874233" lon="7.2971983"><ele></ele><time>2016-5-22T7:36:33Z</time></trkpt>
<trkpt lat="46.1873850" lon="7.2972100"><ele></ele><time>2016-5-22T7:36:36Z</time></trkpt>
<trkpt lat="46.1873467" lon="7.2972200"><ele></ele><time>2016-5-22T7:36:39Z</time></trkpt>
<trkpt lat="46.1873117" lon="7.2972300"><ele></ele><time>2016-5-22T7:36:42Z</time></trkpt>
<trkpt lat="46.1872800" lon="7.2972417"><ele></ele><time>2016-5-22T7:36:45Z</time></trkpt>
<trkpt lat="46.1872583" lon="7.2972617"><ele></ele><time>2016-5-22T7:36:48Z</time></trkpt>
<trkpt lat="46.1872433" lon="7.2972950"><ele></ele><time>2016-5-22T7:36:51Z</time></trkpt>
<trkpt lat="46.1872417" lon="7.2973383"><ele></ele><time>2016-5-22T7:36:54Z</time></trkpt>
<trkpt lat="46.1872467" lon="7.2973867"><ele></ele><time>2016-5-22T7:36:57Z</time></trkpt>
<trkpt lat="46.1872550" lon="7.2974250"><ele></ele><time>2016-5-22T7:37:0Z</time></trkpt>
<trkpt lat="46.1872617" lon="7.2974450"><ele></ele><time>2016-5-22T7:37:3Z</time></trkpt>
<trkpt lat="46.1872650" lon="7.2974550"><ele></ele><time>2016-5-22T7:37:6Z</time></trkpt>
<trkpt lat="46.1872667" lon="7.2974583"><ele></ele><time>2016-5-22T7:37:9Z</time></trkpt>
<trkpt lat="46.1872700" lon="7.2974583"><ele></ele><time>2016-5-22T7:37:12Z</time></trkpt>
<trkpt lat="46.1872733" lon="7.2974550"><ele></ele><time>2016-5-22T7:37:15Z</time></trkpt>
<trkpt lat="46.1872750" lon="7.2974517"><ele></ele><time>2016-5-22T7:37:18Z</time></trkpt>
<trkpt lat="46.1872750" lon="7.2974517"><ele></ele><time>2016-5-22T7:37:21Z</time></trkpt>
<trkpt lat="46.1872750" lon="7.2974517"><ele></ele><time>2016-5-22T7:37:24Z</time></trkpt>
<trkpt lat="46.1872750" lon="7.2974517"><ele></ele><time>2016-5-22T7:37:27Z</time></trkpt>
<trkpt lat="46.1872750" lon="7.2974517"><ele></ele><time>2016-5-22T7:37:30Z</time></trkpt>
<trkpt lat="46.1872750" lon="7.2974517"><ele></ele><time>2016-5-22T7:37:33Z</time></trkpt>
<trkpt lat="46.1872750" lon="7.2974517"><ele></ele><time>2016-5-22T7:37:36Z</time></trkpt>
<trkpt lat="46.1872750" lon="7.2974517"><ele></ele><time>2016-5-22T7:37:39Z</time></trkpt>
<trkpt lat="46.1872750" lon="7.2974517"><ele></ele><time>2016-5-22T7:37:42Z</time></trkpt>
<trkpt lat="46.1872750" lon="7.2974517"><ele></ele><time>2016-5-22T7:37:45Z</time></trkpt>
<trkpt lat="46.1872750" lon="7.2974517"><ele></ele><time>2016-5-22T7:37:48Z</time></trkpt>
<trkpt lat="46.1872750" lon="7.2974517"><ele></ele><time>2016-5-22T7:37:51Z</time></trkpt>
<trkpt lat="46.1872750" lon="7.2974517"><ele></ele><time>2016-5-22T7:37:54Z</time></trkpt>
<trkpt lat="46.1872750" lon="7.2974517"><ele></ele><time>2016-5-22T7:37:57Z</time></trkpt>
<trkpt lat="46.1872750" lon="7.2974517"><ele></ele><time>2016-5-22T7:38:0Z</time></trkpt>
<trkpt lat="46.1872750" lon="7.2974517"><ele></ele><time>2016-5-22T7:38:3Z</time></trkpt>
<trkpt lat="46.1872750" lon="7.2974517"><ele></ele><time>2016-5-22T7:38:6Z</time></trkpt>
<trkpt lat="46.1872750" lon="7.2974517"><ele></ele><time>2016-5-22T7:38:9Z</time></trkpt>
<trkpt lat="46.1872750" lon="7.2974517"><ele></ele><time>2016-5-22T7:38:12Z</time></trkpt>
<trkpt lat="46.1872750" lon="7.2974517"><ele></ele><time>2016-5-22T7:38:15Z</time></trkpt>
<trkpt lat="46.1872750" lon="7.2974517"><ele></ele><time>2016-5-22T7:38:18Z</time></trkpt>
<trkpt lat="46.1872750" lon="7.2974517"><ele></ele><time>2016-5-22T7:38:21Z</time></trkpt>
<trkpt lat="46.1872750" lon="7.2974517"><ele></ele><time>2016-5-22T7:38:24Z</time></trkpt>
<trkpt lat="46.1872750" lon="7.2974517"><ele></ele><time>2016-5-22T7:38:27Z</time></trkpt>
<trkpt lat="46.1872750" lon="7.2974517"><ele></ele><time>2016-5-22T7:38:30Z</time></trkpt>
<trkpt lat="46.1872750" lon="7.2974517"><ele></ele><time>2016-5-22T7:38:33Z</time></trkpt>
<trkpt lat="46.1872750" lon="7.2974517"><ele></ele><time>2016-5-22T7:38:36Z</time></trkpt>
<trkpt lat="46.1872750" lon="7.2974517"><ele></ele><time>2016-5-22T7:38:39Z</time></trkpt>
<trkpt lat="46.1872750" lon="7.2974517"><ele></ele><time>2016-5-22T7:38:42Z</time></trkpt>
<trkpt lat="46.1872750" lon="7.2974517"><ele></ele><time>2016-5-22T7:38:45Z</time></trkpt>
<trkpt lat="46.1872750" lon="7.2974517"><ele></ele><time>2016-5-22T7:38:48Z</time></trkpt>
<trkpt lat="46.1872750" lon="7.2974517"><ele></ele><time>2016-5-22T7:38:51Z</time></trkpt>
<trkpt lat="46.1872750" lon="7.2974517"><ele></ele><time>2016-5-22T7:38:54Z</time></trkpt>
<trkpt lat="46.1872750" lon="7.2974517"><ele></ele><time>2016-5-22T7:38:57Z</time></trkpt>
<trkpt lat="46.1872750" lon="7.2974517"><ele></ele><time>2016-5-22T7:39:0Z</time></trkpt>
<trkpt lat="46.1872750" lon="7.2974517"><ele></ele><time>2016-5-22T7:39:3Z</time></trkpt>
<trkpt lat="46.1872750" lon="7.2974517"><ele></ele><time>2016-5-22T7:39:6Z</time></trkpt>
<trkpt lat="46.1872750" lon="7.2974517"><ele></ele><time>2016-5-22T7:39:9Z</time></trkpt>
<trkpt lat="46.1872750" lon="7.2974517"><ele></ele><time>2016-5-22T7:39:12Z</time></trkpt>
<trkpt lat="46.1872750" lon="7.2974517"><ele></ele><time>2016-5-22T7:39:15Z</time></trkpt>
<trkpt lat="46.1872750" lon="7.2974517"><ele></ele><time>2016-5-22T7:39:18Z</time></trkpt>
<trkpt lat="46.1872750" lon="7.2974517"><ele></ele><time>2016-5-22T7:39:21Z</time></trkpt>
<trkpt lat="46.1872750" lon="7.2974517"><ele></ele><time>2016-5-22T7:39:24Z</time></trkpt>
<trkpt lat="46.1872750" lon="7.2974517"><ele></ele><time>2016-5-22T7:39:27Z</time></trkpt>
<trkpt lat="46.1872750" lon="7.2974517"><ele></ele><time>2016-5-22T7:39:30Z</time></trkpt>
<trkpt lat="46.1872750" lon="7.2974517"><ele></ele><time>2016-5-22T7:39:33Z</time></trkpt>
<trkpt lat="46.1872750" lon="7.2974517"><ele></ele><time>2016-5-22T7:39:36Z</time></trkpt>
<trkpt lat="46.1872750" lon="7.2974517"><ele></ele><time>2016-5-22T7:39:39Z</time></trkpt>
<trkpt lat="46.1872750" lon="7.2974517"><ele></ele><time>2016-5-22T7:39:42Z</time></trkpt>
<trkpt lat="46.1872750" lon="7.2974517"><ele></ele><time>2016-5-22T7:39:45Z</time></trkpt>
<trkpt lat="46.1872750" lon="7.2974517"><ele></ele><time>2016-5-22T7:39:48Z</time></trkpt>
<trkpt lat="46.1872750" lon="7.2974517"><ele></ele><time>2016-5-22T7:39:51Z</time></trkpt>
<trkpt lat="46.1872750" lon="7.2974517"><ele></ele><time>2016-5-22T7:39:54Z</time></trkpt>
<trkpt lat="46.1872750" lon="7.2974517"><ele></ele><time>2016-5-22T7:39:57Z</time></trkpt>
<trkpt lat="46.1872750" lon="7.2974517"><ele></ele><time>2016-5-22T7:40:0Z</time></trkpt>
<trkpt lat="46.1872750" lon="7.2974517"><ele></ele><time>2016-5-22T7:40:3Z</time></trkpt>
<trkpt lat="46.1872750" lon="7.2974517"><ele></ele><time>2016-5-22T7:40:6Z</time></trkpt>
<trkpt lat="46.1872750" lon="7.2974517"><ele></ele><time>2016-5-22T7:40:9Z</time></trkpt>
<trkpt lat="46.1872750" lon="7.2974517"><ele></ele><time>2016-5-22T7:40:12Z</time></trkpt>
<trkpt lat="46.1872750" lon="7.2974517"><ele></ele><time>2016-5-22T7:40:15Z</time></trkpt>
<trkpt lat="46.1872750" lon="7.2974517"><ele></ele><time>2016-5-22T7:40:18Z</time></trkpt>
<trkpt lat="46.1872750" lon="7.2974517"><ele></ele><time>2016-5-22T7:40:21Z</time></trkpt>
<trkpt lat="46.1873183" lon="7.2974300"><ele></ele><time>2016-5-22T7:40:24Z</time></trkpt>
<trkpt lat="46.1873183" lon="7.2974300"><ele></ele><time>2016-5-22T7:40:27Z</time></trkpt>
<trkpt lat="46.1873183" lon="7.2974300"><ele></ele><time>2016-5-22T7:40:30Z</time></trkpt>
<trkpt lat="46.1873183" lon="7.2974300"><ele></ele><time>2016-5-22T7:40:33Z</time></trkpt>
<trkpt lat="46.1873183" lon="7.2974300"><ele></ele><time>2016-5-22T7:40:36Z</time></trkpt>
<trkpt lat="46.1873183" lon="7.2974300"><ele></ele><time>2016-5-22T7:40:39Z</time></trkpt>
<trkpt lat="46.1873183" lon="7.2974300"><ele></ele><time>2016-5-22T7:40:42Z</time></trkpt>
<trkpt lat="46.1873183" lon="7.2974300"><ele></ele><time>2016-5-22T7:40:45Z</time></trkpt>
<trkpt lat="46.1873183" lon="7.2974300"><ele></ele><time>2016-5-22T7:40:48Z</time></trkpt>
<trkpt lat="46.1873183" lon="7.2974300"><ele></ele><time>2016-5-22T7:40:51Z</time></trkpt>
<trkpt lat="46.1873183" lon="7.2974300"><ele></ele><time>2016-5-22T7:40:54Z</time></trkpt>
<trkpt lat="46.1873183" lon="7.2974300"><ele></ele><time>2016-5-22T7:40:57Z</time></trkpt>
<trkpt lat="46.1873183" lon="7.2974300"><ele></ele><time>2016-5-22T7:41:0Z</time></trkpt>
<trkpt lat="46.1873183" lon="7.2974300"><ele></ele><time>2016-5-22T7:41:3Z</time></trkpt>
<trkpt lat="46.1873183" lon="7.2974300"><ele></ele><time>2016-5-22T7:41:6Z</time></trkpt>
<trkpt lat="46.1873183" lon="7.2974300"><ele></ele><time>2016-5-22T7:41:9Z</time></trkpt>
<trkpt lat="46.1873183" lon="7.2974300"><ele></ele><time>2016-5-22T7:41:12Z</time></trkpt>
<trkpt lat="46.1873183" lon="7.2974300"><ele></ele><time>2016-5-22T7:41:15Z</time></trkpt>
<trkpt lat="46.1873183" lon="7.2974300"><ele></ele><time>2016-5-22T7:41:18Z</time></trkpt>
<trkpt lat="46.1873183" lon="7.2974300"><ele></ele><time>2016-5-22T7:41:21Z</time></trkpt>
<trkpt lat="46.1873183" lon="7.2974300"><ele></ele><time>2016-5-22T7:41:24Z</time></trkpt>
<trkpt lat="46.1873183" lon="7.2974300"><ele></ele><time>2016-5-22T7:41:27Z</time></trkpt>
<trkpt lat="46.1873183" lon="7.2974300"><ele></ele><time>2016-5-22T7:41:30Z</time></trkpt>
<trkpt lat="46.1873183" lon="7.2974300"><ele></ele><time>2016-5-22T7:41:33Z</time></trkpt>
<trkpt lat="46.1873183" lon="7.2974300"><ele></ele><time>2016-5-22T7:41:36Z</time></trkpt>
<trkpt lat="46.1873183" lon="7.2974300"><ele></ele><time>2016-5-22T7:41:39Z</time></trkpt>
<trkpt lat="46.1873183" lon="7.2974300"><ele></ele><time>2016-5-22T7:41:42Z</time></trkpt>
<trkpt lat="46.1873183" lon="7.2974300"><ele></ele><time>2016-5-22T7:41:45Z</time></trkpt>
<trkpt lat="46.1873183" lon="7.2974300"><ele></ele><time>2016-5-22T7:41:48Z</time></trkpt>
<trkpt lat="46.1873183" lon="7.2974300"><ele></ele><time>2016-5-22T7:41:51Z</time></trkpt>
<trkpt lat="46.1873183" lon="7.2974300"><ele></ele><time>2016-5-22T7:41:54Z</time></trkpt>
<trkpt lat="46.1872933" lon="7.2974350"><ele></ele><time>2016-5-22T7:41:57Z</time></trkpt>
<trkpt lat="46.1872933" lon="7.2974350"><ele></ele><time>2016-5-22T7:42:0Z</time></trkpt>
<trkpt lat="46.1872933" lon="7.2974350"><ele></ele><time>2016-5-22T7:42:3Z</time></trkpt>
<trkpt lat="46.1872933" lon="7.2974350"><ele></ele><time>2016-5-22T7:42:6Z</time></trkpt>
<trkpt lat="46.1872933" lon="7.2974350"><ele></ele><time>2016-5-22T7:42:9Z</time></trkpt>
<trkpt lat="46.1872933" lon="7.2974350"><ele></ele><time>2016-5-22T7:42:12Z</time></trkpt>
<trkpt lat="46.1872933" lon="7.2974350"><ele></ele><time>2016-5-22T7:42:15Z</time></trkpt>
<trkpt lat="46.1872917" lon="7.2974350"><ele></ele><time>2016-5-22T7:42:18Z</time></trkpt>
<trkpt lat="46.1872917" lon="7.2974350"><ele></ele><time>2016-5-22T7:42:21Z</time></trkpt>
<trkpt lat="46.1872917" lon="7.2974350"><ele></ele><time>2016-5-22T7:42:24Z</time></trkpt>
<trkpt lat="46.1872917" lon="7.2974350"><ele></ele><time>2016-5-22T7:42:27Z</time></trkpt>
<trkpt lat="46.1872917" lon="7.2974350"><ele></ele><time>2016-5-22T7:42:30Z</time></trkpt>
<trkpt lat="46.1872917" lon="7.2974350"><ele></ele><time>2016-5-22T7:42:33Z</time></trkpt>
<trkpt lat="46.1872917" lon="7.2974350"><ele></ele><time>2016-5-22T7:42:36Z</time></trkpt>
<trkpt lat="46.1872917" lon="7.2974350"><ele></ele><time>2016-5-22T7:42:39Z</time></trkpt>
<trkpt lat="46.1872917" lon="7.2974350"><ele></ele><time>2016-5-22T7:42:42Z</time></trkpt>
<trkpt lat="46.1872917" lon="7.2974350"><ele></ele><time>2016-5-22T7:42:45Z</time></trkpt>
<trkpt lat="46.1872917" lon="7.2974350"><ele></ele><time>2016-5-22T7:42:48Z</time></trkpt>
<trkpt lat="46.1872917" lon="7.2974350"><ele></ele><time>2016-5-22T7:42:51Z</time></trkpt>
<trkpt lat="46.1872917" lon="7.2974350"><ele></ele><time>2016-5-22T7:42:54Z</time></trkpt>
<trkpt lat="46.1872917" lon="7.2974350"><ele></ele><time>2016-5-22T7:42:57Z</time></trkpt>
<trkpt lat="46.1872917" lon="7.2974350"><ele></ele><time>2016-5-22T7:43:0Z</time></trkpt>
<trkpt lat="46.1872917" lon="7.2974350"><ele></ele><time>2016-5-22T7:43:3Z</time></trkpt>
<trkpt lat="46.1872917" lon="7.2974350"><ele></ele><time>2016-5-22T7:43:6Z</time></trkpt>
<trkpt lat="46.1872917" lon="7.2974350"><ele></ele><time>2016-5-22T7:43:9Z</time></trkpt>
<trkpt lat="46.1872917" lon="7.2974350"><ele></ele><time>2016-5-22T7:43:12Z</time></trkpt>
<trkpt lat="46.1872917" lon="7.2974350"><ele></ele><time>2016-5-22T7:43:15Z</time></trkpt>
<trkpt lat="46.1872917" lon="7.2974350"><ele></ele><time>2016-5-22T7:43:18Z</time></trkpt>
<trkpt lat="46.1872917" lon="7.2974350"><ele></ele><time>2016-5-22T7:43:21Z</time></trkpt>
<trkpt lat="46.1872917" lon="7.2974350"><ele></ele><time>2016-5-22T7:43:24Z</time></trkpt>
<trkpt lat="46.1872917" lon="7.2974350"><ele></ele><time>2016-5-22T7:43:27Z</time></trkpt>
<trkpt lat="46.1872917" lon="7.2974350"><ele></ele><time>2016-5-22T7:43:30Z</time></trkpt>
<trkpt lat="46.1872917" lon="7.2974350"><ele></ele><time>2016-5-22T7:43:33Z</time></trkpt>
<trkpt lat="46.1872917" lon="7.2974350"><ele></ele><time>2016-5-22T7:43:36Z</time></trkpt>
<trkpt lat="46.1872917" lon="7.2974350"><ele></ele><time>2016-5-22T7:43:39Z</time></trkpt>
<trkpt lat="46.1872917" lon="7.2974350"><ele></ele><time>2016-5-22T7:43:42Z</time></trkpt>
<trkpt lat="46.1872917" lon="7.2974350"><ele></ele><time>2016-5-22T7:43:45Z</time></trkpt>
<trkpt lat="46.1872917" lon="7.2974350"><ele></ele><time>2016-5-22T7:43:48Z</time></trkpt>
<trkpt lat="46.1872917" lon="7.2974350"><ele></ele><time>2016-5-22T7:43:51Z</time></trkpt>
<trkpt lat="46.1872917" lon="7.2974350"><ele></ele><time>2016-5-22T7:43:54Z</time></trkpt>
<trkpt lat="46.1872917" lon="7.2974350"><ele></ele><time>2016-5-22T7:43:57Z</time></trkpt>
<trkpt lat="46.1872917" lon="7.2974350"><ele></ele><time>2016-5-22T7:44:0Z</time></trkpt>
<trkpt lat="46.1872917" lon="7.2974350"><ele></ele><time>2016-5-22T7:44:3Z</time></trkpt>
<trkpt lat="46.1872917" lon="7.2974350"><ele></ele><time>2016-5-22T7:44:6Z</time></trkpt>
<trkpt lat="46.1872917" lon="7.2974350"><ele></ele><time>2016-5-22T7:44:9Z</time></trkpt>
<trkpt lat="46.1872917" lon="7.2974350"><ele></ele><time>2016-5-22T7:44:12Z</time></trkpt>
<trkpt lat="46.1872917" lon="7.2974350"><ele></ele><time>2016-5-22T7:44:15Z</time></trkpt>
<trkpt lat="46.1872917" lon="7.2974350"><ele></ele><time>2016-5-22T7:44:18Z</time></trkpt>
<trkpt lat="46.1872917" lon="7.2974350"><ele></ele><time>2016-5-22T7:44:21Z</time></trkpt>
<trkpt lat="46.1872917" lon="7.2974350"><ele></ele><time>2016-5-22T7:44:24Z</time></trkpt>
<trkpt lat="46.1872917" lon="7.2974350"><ele></ele><time>2016-5-22T7:44:27Z</time></trkpt>
<trkpt lat="46.1872917" lon="7.2974350"><ele></ele><time>2016-5-22T7:44:30Z</time></trkpt>
<trkpt lat="46.1872917" lon="7.2974350"><ele></ele><time>2016-5-22T7:44:33Z</time></trkpt>
<trkpt lat="46.1872917" lon="7.2974350"><ele></ele><time>2016-5-22T7:44:36Z</time></trkpt>
<trkpt lat="46.1872917" lon="7.2974350"><ele></ele><time>2016-5-22T7:44:39Z</time></trkpt>
<trkpt lat="46.1872917" lon="7.2974350"><ele></ele><time>2016-5-22T7:44:42Z</time></trkpt>
<trkpt lat="46.1872917" lon="7.2974350"><ele></ele><time>2016-5-22T7:44:45Z</time></trkpt>
<trkpt lat="46.1872917" lon="7.2974350"><ele></ele><time>2016-5-22T7:44:48Z</time></trkpt>
<trkpt lat="46.1872917" lon="7.2974350"><ele></ele><time>2016-5-22T7:44:51Z</time></trkpt>
<trkpt lat="46.1872917" lon="7.2974350"><ele></ele><time>2016-5-22T7:44:54Z</time></trkpt>
<trkpt lat="46.1872917" lon="7.2974350"><ele></ele><time>2016-5-22T7:44:57Z</time></trkpt>
<trkpt lat="46.1872917" lon="7.2974350"><ele></ele><time>2016-5-22T7:45:0Z</time></trkpt>
<trkpt lat="46.1872917" lon="7.2974350"><ele></ele><time>2016-5-22T7:45:3Z</time></trkpt>
<trkpt lat="46.1872917" lon="7.2974350"><ele></ele><time>2016-5-22T7:45:6Z</time></trkpt>
<trkpt lat="46.1872917" lon="7.2974350"><ele></ele><time>2016-5-22T7:45:9Z</time></trkpt>
<trkpt lat="46.1872917" lon="7.2974350"><ele></ele><time>2016-5-22T7:45:12Z</time></trkpt>
<trkpt lat="46.1872917" lon="7.2974350"><ele></ele><time>2016-5-22T7:45:15Z</time></trkpt>
<trkpt lat="46.1872917" lon="7.2974350"><ele></ele><time>2016-5-22T7:45:18Z</time></trkpt>
<trkpt lat="46.1872917" lon="7.2974350"><ele></ele><time>2016-5-22T7:45:21Z</time></trkpt>
<trkpt lat="46.1872917" lon="7.2974350"><ele></ele><time>2016-5-22T7:45:24Z</time></trkpt>
<trkpt lat="46.1872917" lon="7.2974350"><ele></ele><time>2016-5-22T7:45:27Z</time></trkpt>
<trkpt lat="46.1872917" lon="7.2974350"><ele></ele><time>2016-5-22T7:45:30Z</time></trkpt>
<trkpt lat="46.1872917" lon="7.2974350"><ele></ele><time>2016-5-22T7:45:33Z</time></trkpt>
<trkpt lat="46.1872917" lon="7.2974350"><ele></ele><time>2016-5-22T7:45:36Z</time></trkpt>
<trkpt lat="46.1872917" lon="7.2974350"><ele></ele><time>2016-5-22T7:45:39Z</time></trkpt>
<trkpt lat="46.1872917" lon="7.2974350"><ele></ele><time>2016-5-22T7:45:42Z</time></trkpt>
<trkpt lat="46.1872917" lon="7.2974350"><ele></ele><time>2016-5-22T7:45:45Z</time></trkpt>
<trkpt lat="46.1872917" lon="7.2974350"><ele></ele><time>2016-5-22T7:45:48Z</time></trkpt>
<trkpt lat="46.1872917" lon="7.2974350"><ele></ele><time>2016-5-22T7:45:51Z</time></trkpt>
<trkpt lat="46.1872917" lon="7.2974350"><ele></ele><time>2016-5-22T7:45:54Z</time></trkpt>
<trkpt lat="46.1872917" lon="7.2974350"><ele></ele><time>2016-5-22T7:45:57Z</time></trkpt>
<trkpt lat="46.1872917" lon="7.2974350"><ele></ele><time>2016-5-22T7:46:0Z</time></trkpt>
<trkpt lat="46.1872917" lon="7.2974350"><ele></ele><time>2016-5-22T7:46:3Z</time></trkpt>
<trkpt lat="46.1872917" lon="7.2974350"><ele></ele><time>2016-5-22T7:46:6Z</time></trkpt>
<trkpt lat="46.1872917" lon="7.2974350"><ele></ele><time>2016-5-22T7:46:9Z</time></trkpt>
<trkpt lat="46.1872917" lon="7.2974350"><ele></ele><time>2016-5-22T7:46:12Z</time></trkpt>
<trkpt lat="46.1872917" lon="7.2974350"><ele></ele><time>2016-5-22T7:46:15Z</time></trkpt>
<trkpt lat="46.1872917" lon="7.2974350"><ele></ele><time>2016-5-22T7:46:18Z</time></trkpt>
<trkpt lat="46.1872917" lon="7.2974350"><ele></ele><time>2016-5-22T7:46:21Z</time></trkpt>
<trkpt lat="46.1872917" lon="7.2974350"><ele></ele><time>2016-5-22T7:46:24Z</time></trkpt>
<trkpt lat="46.1872917" lon="7.2974350"><ele></ele><time>2016-5-22T7:46:27Z</time></trkpt>
<trkpt lat="46.1872917" lon="7.2974350"><ele></ele><time>2016-5-22T7:46:30Z</time></trkpt>
<trkpt lat="46.1872917" lon="7.2974350"><ele></ele><time>2016-5-22T7:46:33Z</time></trkpt>
<trkpt lat="46.1872917" lon="7.2974350"><ele></ele><time>2016-5-22T7:46:36Z</time></trkpt>
<trkpt lat="46.1872917" lon="7.2974350"><ele></ele><time>2016-5-22T7:46:39Z</time></trkpt>
<trkpt lat="46.1872917" lon="7.2974350"><ele></ele><time>2016-5-22T7:46:42Z</time></trkpt>
<trkpt lat="46.1872917" lon="7.2974350"><ele></ele><time>2016-5-22T7:46:45Z</time></trkpt>
<trkpt lat="46.1872917" lon="7.2974350"><ele></ele><time>2016-5-22T7:46:48Z</time></trkpt>
<trkpt lat="46.1872917" lon="7.2974350"><ele></ele><time>2016-5-22T7:46:51Z</time></trkpt>
<trkpt lat="46.1872917" lon="7.2974350"><ele></ele><time>2016-5-22T7:46:54Z</time></trkpt>
<trkpt lat="46.1872917" lon="7.2974350"><ele></ele><time>2016-5-22T7:46:57Z</time></trkpt>
<trkpt lat="46.1872917" lon="7.2974350"><ele></ele><time>2016-5-22T7:47:0Z</time></trkpt>
<trkpt lat="46.1872917" lon="7.2974350"><ele></ele><time>2016-5-22T7:47:3Z</time></trkpt>
<trkpt lat="46.1872917" lon="7.2974350"><ele></ele><time>2016-5-22T7:47:6Z</time></trkpt>
<trkpt lat="46.1872917" lon="7.2974350"><ele></ele><time>2016-5-22T7:47:9Z</time></trkpt>
<trkpt lat="46.1872917" lon="7.2974350"><ele></ele><time>2016-5-22T7:47:12Z</time></trkpt>
<trkpt lat="46.1872917" lon="7.2974350"><ele></ele><time>2016-5-22T7:47:15Z</time></trkpt>
<trkpt lat="46.1872917" lon="7.2974350"><ele></ele><time>2016-5-22T7:47:18Z</time></trkpt>
<trkpt lat="46.1872917" lon="7.2974350"><ele></ele><time>2016-5-22T7:47:21Z</time></trkpt>
<trkpt lat="46.1872917" lon="7.2974350"><ele></ele><time>2016-5-22T7:47:24Z</time></trkpt>
<trkpt lat="46.1872917" lon="7.2974350"><ele></ele><time>2016-5-22T7:47:27Z</time></trkpt>
<trkpt lat="46.1873017" lon="7.2974467"><ele></ele><time>2016-5-22T7:47:30Z</time></trkpt>
<trkpt lat="46.1873033" lon="7.2974483"><ele></ele><time>2016-5-22T7:47:33Z</time></trkpt>
<trkpt lat="46.1873033" lon="7.2974483"><ele></ele><time>2016-5-22T7:47:36Z</time></trkpt>
<trkpt lat="46.1873033" lon="7.2974483"><ele></ele><time>2016-5-22T7:47:39Z</time></trkpt>
<trkpt lat="46.1873033" lon="7.2974483"><ele></ele><time>2016-5-22T7:47:42Z</time></trkpt>
<trkpt lat="46.1873033" lon="7.2974483"><ele></ele><time>2016-5-22T7:47:45Z</time></trkpt>
<trkpt lat="46.1873033" lon="7.2974483"><ele></ele><time>2016-5-22T7:47:48Z</time></trkpt>
<trkpt lat="46.1873033" lon="7.2974483"><ele></ele><time>2016-5-22T7:47:51Z</time></trkpt>
<trkpt lat="46.1873033" lon="7.2974483"><ele></ele><time>2016-5-22T7:47:54Z</time></trkpt>
<trkpt lat="46.1873033" lon="7.2974483"><ele></ele><time>2016-5-22T7:47:57Z</time></trkpt>
<trkpt lat="46.1873033" lon="7.2974483"><ele></ele><time>2016-5-22T7:48:0Z</time></trkpt>
<trkpt lat="46.1873033" lon="7.2974483"><ele></ele><time>2016-5-22T7:48:3Z</time></trkpt>
<trkpt lat="46.1873033" lon="7.2974483"><ele></ele><time>2016-5-22T7:48:6Z</time></trkpt>
<trkpt lat="46.1873033" lon="7.2974483"><ele></ele><time>2016-5-22T7:48:9Z</time></trkpt>
<trkpt lat="46.1873033" lon="7.2974483"><ele></ele><time>2016-5-22T7:48:12Z</time></trkpt>
<trkpt lat="46.1873033" lon="7.2974483"><ele></ele><time>2016-5-22T7:48:15Z</time></trkpt>
<trkpt lat="46.1873033" lon="7.2974483"><ele></ele><time>2016-5-22T7:48:18Z</time></trkpt>
<trkpt lat="46.1873033" lon="7.2974483"><ele></ele><time>2016-5-22T7:48:21Z</time></trkpt>
<trkpt lat="46.1873033" lon="7.2974483"><ele></ele><time>2016-5-22T7:48:24Z</time></trkpt>
<trkpt lat="46.1873033" lon="7.2974483"><ele></ele><time>2016-5-22T7:48:27Z</time></trkpt>
<trkpt lat="46.1873033" lon="7.2974483"><ele></ele><time>2016-5-22T7:48:30Z</time></trkpt>
<trkpt lat="46.1873033" lon="7.2974483"><ele></ele><time>2016-5-22T7:48:33Z</time></trkpt>
<trkpt lat="46.1873033" lon="7.2974483"><ele></ele><time>2016-5-22T7:48:36Z</time></trkpt>
<trkpt lat="46.1873033" lon="7.2974483"><ele></ele><time>2016-5-22T7:48:39Z</time></trkpt>
<trkpt lat="46.1873033" lon="7.2974483"><ele></ele><time>2016-5-22T7:48:42Z</time></trkpt>
<trkpt lat="46.1873033" lon="7.2974483"><ele></ele><time>2016-5-22T7:48:45Z</time></trkpt>
<trkpt lat="46.1873033" lon="7.2974483"><ele></ele><time>2016-5-22T7:48:48Z</time></trkpt>
<trkpt lat="46.1873033" lon="7.2974483"><ele></ele><time>2016-5-22T7:48:51Z</time></trkpt>
<trkpt lat="46.1873033" lon="7.2974483"><ele></ele><time>2016-5-22T7:48:54Z</time></trkpt>
<trkpt lat="46.1873033" lon="7.2974483"><ele></ele><time>2016-5-22T7:48:57Z</time></trkpt>
<trkpt lat="46.1873033" lon="7.2974483"><ele></ele><time>2016-5-22T7:49:0Z</time></trkpt>
<trkpt lat="46.1873033" lon="7.2974483"><ele></ele><time>2016-5-22T7:49:3Z</time></trkpt>
<trkpt lat="46.1873033" lon="7.2974483"><ele></ele><time>2016-5-22T7:49:6Z</time></trkpt>
<trkpt lat="46.1873033" lon="7.2974483"><ele></ele><time>2016-5-22T7:49:9Z</time></trkpt>
<trkpt lat="46.1873033" lon="7.2974483"><ele></ele><time>2016-5-22T7:49:12Z</time></trkpt>
<trkpt lat="46.1873033" lon="7.2974483"><ele></ele><time>2016-5-22T7:49:15Z</time></trkpt>
<trkpt lat="46.1873033" lon="7.2974483"><ele></ele><time>2016-5-22T7:49:18Z</time></trkpt>
<trkpt lat="46.1873033" lon="7.2974483"><ele></ele><time>2016-5-22T7:49:21Z</time></trkpt>
<trkpt lat="46.1873033" lon="7.2974483"><ele></ele><time>2016-5-22T7:49:24Z</time></trkpt>
<trkpt lat="46.1873033" lon="7.2974483"><ele></ele><time>2016-5-22T7:49:27Z</time></trkpt>
<trkpt lat="46.1873033" lon="7.2974483"><ele></ele><time>2016-5-22T7:49:30Z</time></trkpt>
<trkpt lat="46.1873033" lon="7.2974483"><ele></ele><time>2016-5-22T7:49:33Z</time></trkpt>
<trkpt lat="46.1873033" lon="7.2974483"><ele></ele><time>2016-5-22T7:49:36Z</time></trkpt>
<trkpt lat="46.1873033" lon="7.2974483"><ele></ele><time>2016-5-22T7:49:39Z</time></trkpt>
<trkpt lat="46.1873033" lon="7.2974483"><ele></ele><time>2016-5-22T7:49:42Z</time></trkpt>
<trkpt lat="46.1873033" lon="7.2974483"><ele></ele><time>2016-5-22T7:49:45Z</time></trkpt>
<trkpt lat="46.1873033" lon="7.2974483"><ele></ele><time>2016-5-22T7:49:48Z</time></trkpt>
<trkpt lat="46.1873033" lon="7.2974483"><ele></ele><time>2016-5-22T7:49:51Z</time></trkpt>
<trkpt lat="46.1873033" lon="7.2974483"><ele></ele><time>2016-5-22T7:49:54Z</time></trkpt>
<trkpt lat="46.1873033" lon="7.2974483"><ele></ele><time>2016-5-22T7:49:57Z</time></trkpt>
<trkpt lat="46.1873033" lon="7.2974483"><ele></ele><time>2016-5-22T7:50:0Z</time></trkpt>
<trkpt lat="46.1873033" lon="7.2974483"><ele></ele><time>2016-5-22T7:50:3Z</time></trkpt>
<trkpt lat="46.1873033" lon="7.2974483"><ele></ele><time>2016-5-22T7:50:6Z</time></trkpt>
<trkpt lat="46.1873033" lon="7.2974483"><ele></ele><time>2016-5-22T7:50:9Z</time></trkpt>
<trkpt lat="46.1873033" lon="7.2974483"><ele></ele><time>2016-5-22T7:50:12Z</time></trkpt>
<trkpt lat="46.1873033" lon="7.2974483"><ele></ele><time>2016-5-22T7:50:15Z</time></trkpt>
<trkpt lat="46.1873033" lon="7.2974483"><ele></ele><time>2016-5-22T7:50:18Z</time></trkpt>
<trkpt lat="46.1873033" lon="7.2974483"><ele></ele><time>2016-5-22T7:50:21Z</time></trkpt>
<trkpt lat="46.1873033" lon="7.2974483"><ele></ele><time>2016-5-22T7:50:24Z</time></trkpt>
<trkpt lat="46.1873033" lon="7.2974483"><ele></ele><time>2016-5-22T7:50:27Z</time></trkpt>
<trkpt lat="46.1873033" lon="7.2974483"><ele></ele><time>2016-5-22T7:50:30Z</time></trkpt>
<trkpt lat="46.1872917" lon="7.2974533"><ele></ele><time>2016-5-22T7:50:33Z</time></trkpt>
<trkpt lat="46.1872917" lon="7.2974533"><ele></ele><time>2016-5-22T7:50:36Z</time></trkpt>
<trkpt lat="46.1872917" lon="7.2974533"><ele></ele><time>2016-5-22T7:50:39Z</time></trkpt>
<trkpt lat="46.1872917" lon="7.2974533"><ele></ele><time>2016-5-22T7:50:42Z</time></trkpt>
<trkpt lat="46.1872917" lon="7.2974533"><ele></ele><time>2016-5-22T7:50:45Z</time></trkpt>
<trkpt lat="46.1872917" lon="7.2974533"><ele></ele><time>2016-5-22T7:50:48Z</time></trkpt>
<trkpt lat="46.1872917" lon="7.2974533"><ele></ele><time>2016-5-22T7:50:51Z</time></trkpt>
<trkpt lat="46.1872917" lon="7.2974533"><ele></ele><time>2016-5-22T7:50:54Z</time></trkpt>
<trkpt lat="46.1872917" lon="7.2974533"><ele></ele><time>2016-5-22T7:50:57Z</time></trkpt>
<trkpt lat="46.1872917" lon="7.2974533"><ele></ele><time>2016-5-22T7:51:0Z</time></trkpt>
<trkpt lat="46.1872917" lon="7.2974533"><ele></ele><time>2016-5-22T7:51:3Z</time></trkpt>
<trkpt lat="46.1872917" lon="7.2974533"><ele></ele><time>2016-5-22T7:51:6Z</time></trkpt>
<trkpt lat="46.1872917" lon="7.2974533"><ele></ele><time>2016-5-22T7:51:9Z</time></trkpt>
<trkpt lat="46.1872917" lon="7.2974533"><ele></ele><time>2016-5-22T7:51:12Z</time></trkpt>
<trkpt lat="46.1872917" lon="7.2974533"><ele></ele><time>2016-5-22T7:51:15Z</time></trkpt>
<trkpt lat="46.1872917" lon="7.2974533"><ele></ele><time>2016-5-22T7:51:18Z</time></trkpt>
<trkpt lat="46.1872917" lon="7.2974533"><ele></ele><time>2016-5-22T7:51:21Z</time></trkpt>
<trkpt lat="46.1872917" lon="7.2974533"><ele></ele><time>2016-5-22T7:51:24Z</time></trkpt>
<trkpt lat="46.1872917" lon="7.2974533"><ele></ele><time>2016-5-22T7:51:27Z</time></trkpt>
<trkpt lat="46.1872917" lon="7.2974533"><ele></ele><time>2016-5-22T7:51:30Z</time></trkpt>
<trkpt lat="46.1872917" lon="7.2974533"><ele></ele><time>2016-5-22T7:51:33Z</time></trkpt>
<trkpt lat="46.1872917" lon="7.2974533"><ele></ele><time>2016-5-22T7:51:36Z</time></trkpt>
<trkpt lat="46.1872917" lon="7.2974533"><ele></ele><time>2016-5-22T7:51:39Z</time></trkpt>
<trkpt lat="46.1872917" lon="7.2974533"><ele></ele><time>2016-5-22T7:51:42Z</time></trkpt>
<trkpt lat="46.1872917" lon="7.2974533"><ele></ele><time>2016-5-22T7:51:45Z</time></trkpt>
<trkpt lat="46.1872917" lon="7.2974533"><ele></ele><time>2016-5-22T7:51:48Z</time></trkpt>
<trkpt lat="46.1872917" lon="7.2974533"><ele></ele><time>2016-5-22T7:51:51Z</time></trkpt>
<trkpt lat="46.1872917" lon="7.2974533"><ele></ele><time>2016-5-22T7:51:54Z</time></trkpt>
<trkpt lat="46.1872917" lon="7.2974533"><ele></ele><time>2016-5-22T7:51:57Z</time></trkpt>
<trkpt lat="46.1872917" lon="7.2974533"><ele></ele><time>2016-5-22T7:52:0Z</time></trkpt>
<trkpt lat="46.1872917" lon="7.2974533"><ele></ele><time>2016-5-22T7:52:3Z</time></trkpt>
<trkpt lat="46.1872917" lon="7.2974533"><ele></ele><time>2016-5-22T7:52:6Z</time></trkpt>
<trkpt lat="46.1872917" lon="7.2974533"><ele></ele><time>2016-5-22T7:52:9Z</time></trkpt>
<trkpt lat="46.1872917" lon="7.2974533"><ele></ele><time>2016-5-22T7:52:12Z</time></trkpt>
<trkpt lat="46.1872917" lon="7.2974533"><ele></ele><time>2016-5-22T7:52:15Z</time></trkpt>
<trkpt lat="46.1872917" lon="7.2974533"><ele></ele><time>2016-5-22T7:52:18Z</time></trkpt>
<trkpt lat="46.1872917" lon="7.2974533"><ele></ele><time>2016-5-22T7:52:21Z</time></trkpt>
<trkpt lat="46.1872917" lon="7.2974533"><ele></ele><time>2016-5-22T7:52:24Z</time></trkpt>
<trkpt lat="46.1872917" lon="7.2974533"><ele></ele><time>2016-5-22T7:52:27Z</time></trkpt>
<trkpt lat="46.1872917" lon="7.2974533"><ele></ele><time>2016-5-22T7:52:30Z</time></trkpt>
<trkpt lat="46.1872917" lon="7.2974533"><ele></ele><time>2016-5-22T7:52:33Z</time></trkpt>
<trkpt lat="46.1872917" lon="7.2974533"><ele></ele><time>2016-5-22T7:52:36Z</time></trkpt>
<trkpt lat="46.1872917" lon="7.2974533"><ele></ele><time>2016-5-22T7:52:39Z</time></trkpt>
<trkpt lat="46.1872917" lon="7.2974533"><ele></ele><time>2016-5-22T7:52:42Z</time></trkpt>
<trkpt lat="46.1872917" lon="7.2974533"><ele></ele><time>2016-5-22T7:52:45Z</time></trkpt>
<trkpt lat="46.1872917" lon="7.2974533"><ele></ele><time>2016-5-22T7:52:48Z</time></trkpt>
<trkpt lat="46.1872917" lon="7.2974533"><ele></ele><time>2016-5-22T7:52:51Z</time></trkpt>
<trkpt lat="46.1872917" lon="7.2974533"><ele></ele><time>2016-5-22T7:52:54Z</time></trkpt>
<trkpt lat="46.1872917" lon="7.2974533"><ele></ele><time>2016-5-22T7:52:57Z</time></trkpt>
<trkpt lat="46.1872917" lon="7.2974533"><ele></ele><time>2016-5-22T7:53:0Z</time></trkpt>
<trkpt lat="46.1872917" lon="7.2974533"><ele></ele><time>2016-5-22T7:53:3Z</time></trkpt>
<trkpt lat="46.1872917" lon="7.2974533"><ele></ele><time>2016-5-22T7:53:6Z</time></trkpt>
<trkpt lat="46.1872917" lon="7.2974533"><ele></ele><time>2016-5-22T7:53:9Z</time></trkpt>
<trkpt lat="46.1872917" lon="7.2974533"><ele></ele><time>2016-5-22T7:53:12Z</time></trkpt>
<trkpt lat="46.1872917" lon="7.2974533"><ele></ele><time>2016-5-22T7:53:15Z</time></trkpt>
<trkpt lat="46.1872917" lon="7.2974533"><ele></ele><time>2016-5-22T7:53:18Z</time></trkpt>
<trkpt lat="46.1872917" lon="7.2974533"><ele></ele><time>2016-5-22T7:53:21Z</time></trkpt>
<trkpt lat="46.1872917" lon="7.2974533"><ele></ele><time>2016-5-22T7:53:24Z</time></trkpt>
<trkpt lat="46.1872917" lon="7.2974533"><ele></ele><time>2016-5-22T7:53:27Z</time></trkpt>
<trkpt lat="46.1872917" lon="7.2974533"><ele></ele><time>2016-5-22T7:53:30Z</time></trkpt>
<trkpt lat="46.1872917" lon="7.2974533"><ele></ele><time>2016-5-22T7:53:33Z</time></trkpt>
<trkpt lat="46.1872917" lon="7.2974533"><ele></ele><time>2016-5-22T7:53:36Z</time></trkpt>
<trkpt lat="46.1872917" lon="7.2974533"><ele></ele><time>2016-5-22T7:53:39Z</time></trkpt>
<trkpt lat="46.1872917" lon="7.2974533"><ele></ele><time>2016-5-22T7:53:42Z</time></trkpt>
<trkpt lat="46.1872917" lon="7.2974533"><ele></ele><time>2016-5-22T7:53:45Z</time></trkpt>
<trkpt lat="46.1872917" lon="7.2974533"><ele></ele><time>2016-5-22T7:53:48Z</time></trkpt>
<trkpt lat="46.1872917" lon="7.2974533"><ele></ele><time>2016-5-22T7:53:51Z</time></trkpt>
<trkpt lat="46.1872917" lon="7.2974533"><ele></ele><time>2016-5-22T7:53:54Z</time></trkpt>
<trkpt lat="46.1872917" lon="7.2974533"><ele></ele><time>2016-5-22T7:53:57Z</time></trkpt>
<trkpt lat="46.1872917" lon="7.2974533"><ele></ele><time>2016-5-22T7:54:0Z</time></trkpt>
<trkpt lat="46.1872917" lon="7.2974533"><ele></ele><time>2016-5-22T7:54:3Z</time></trkpt>
<trkpt lat="46.1872917" lon="7.2974533"><ele></ele><time>2016-5-22T7:54:6Z</time></trkpt>
<trkpt lat="46.1872917" lon="7.2974533"><ele></ele><time>2016-5-22T7:54:9Z</time></trkpt>
<trkpt lat="46.1872917" lon="7.2974533"><ele></ele><time>2016-5-22T7:54:12Z</time></trkpt>
<trkpt lat="46.1872917" lon="7.2974533"><ele></ele><time>2016-5-22T7:54:15Z</time></trkpt>
<trkpt lat="46.1872917" lon="7.2974533"><ele></ele><time>2016-5-22T7:54:18Z</time></trkpt>
<trkpt lat="46.1872917" lon="7.2974533"><ele></ele><time>2016-5-22T7:54:21Z</time></trkpt>
<trkpt lat="46.1872917" lon="7.2974533"><ele></ele><time>2016-5-22T7:54:24Z</time></trkpt>
<trkpt lat="46.1872917" lon="7.2974533"><ele></ele><time>2016-5-22T7:54:27Z</time></trkpt>
<trkpt lat="46.1872917" lon="7.2974533"><ele></ele><time>2016-5-22T7:54:30Z</time></trkpt>
<trkpt lat="46.1872917" lon="7.2974533"><ele></ele><time>2016-5-22T7:54:33Z</time></trkpt>
<trkpt lat="46.1872917" lon="7.2974533"><ele></ele><time>2016-5-22T7:54:36Z</time></trkpt>
<trkpt lat="46.1872917" lon="7.2974533"><ele></ele><time>2016-5-22T7:54:39Z</time></trkpt>
<trkpt lat="46.1872917" lon="7.2974533"><ele></ele><time>2016-5-22T7:54:42Z</time></trkpt>
<trkpt lat="46.1872917" lon="7.2974533"><ele></ele><time>2016-5-22T7:54:45Z</time></trkpt>
<trkpt lat="46.1872917" lon="7.2974533"><ele></ele><time>2016-5-22T7:54:48Z</time></trkpt>
<trkpt lat="46.1872917" lon="7.2974533"><ele></ele><time>2016-5-22T7:54:51Z</time></trkpt>
<trkpt lat="46.1872917" lon="7.2974533"><ele></ele><time>2016-5-22T7:54:54Z</time></trkpt>
<trkpt lat="46.1872850" lon="7.2974683"><ele></ele><time>2016-5-22T7:54:57Z</time></trkpt>
<trkpt lat="46.1872850" lon="7.2974683"><ele></ele><time>2016-5-22T7:55:0Z</time></trkpt>
<trkpt lat="46.1872850" lon="7.2974683"><ele></ele><time>2016-5-22T7:55:3Z</time></trkpt>
<trkpt lat="46.1872850" lon="7.2974683"><ele></ele><time>2016-5-22T7:55:6Z</time></trkpt>
<trkpt lat="46.1872850" lon="7.2974683"><ele></ele><time>2016-5-22T7:55:9Z</time></trkpt>
<trkpt lat="46.1872850" lon="7.2974683"><ele></ele><time>2016-5-22T7:55:12Z</time></trkpt>
<trkpt lat="46.1872850" lon="7.2974683"><ele></ele><time>2016-5-22T7:55:15Z</time></trkpt>
<trkpt lat="46.1872850" lon="7.2974683"><ele></ele><time>2016-5-22T7:55:18Z</time></trkpt>
<trkpt lat="46.1872850" lon="7.2974683"><ele></ele><time>2016-5-22T7:55:21Z</time></trkpt>
<trkpt lat="46.1872850" lon="7.2974683"><ele></ele><time>2016-5-22T7:55:24Z</time></trkpt>
<trkpt lat="46.1872850" lon="7.2974683"><ele></ele><time>2016-5-22T7:55:27Z</time></trkpt>
<trkpt lat="46.1872850" lon="7.2974683"><ele></ele><time>2016-5-22T7:55:30Z</time></trkpt>
<trkpt lat="46.1872850" lon="7.2974683"><ele></ele><time>2016-5-22T7:55:33Z</time></trkpt>
<trkpt lat="46.1872850" lon="7.2974683"><ele></ele><time>2016-5-22T7:55:36Z</time></trkpt>
<trkpt lat="46.1872850" lon="7.2974683"><ele></ele><time>2016-5-22T7:55:39Z</time></trkpt>
<trkpt lat="46.1872850" lon="7.2974683"><ele></ele><time>2016-5-22T7:55:42Z</time></trkpt>
<trkpt lat="46.1872850" lon="7.2974683"><ele></ele><time>2016-5-22T7:55:45Z</time></trkpt>
<trkpt lat="46.1872850" lon="7.2974683"><ele></ele><time>2016-5-22T7:55:48Z</time></trkpt>
<trkpt lat="46.1872850" lon="7.2974683"><ele></ele><time>2016-5-22T7:55:51Z</time></trkpt>
<trkpt lat="46.1872850" lon="7.2974683"><ele></ele><time>2016-5-22T7:55:54Z</time></trkpt>
<trkpt lat="46.1872850" lon="7.2974683"><ele></ele><time>2016-5-22T7:55:57Z</time></trkpt>
<trkpt lat="46.1872850" lon="7.2974683"><ele></ele><time>2016-5-22T7:56:0Z</time></trkpt>
<trkpt lat="46.1872850" lon="7.2974683"><ele></ele><time>2016-5-22T7:56:3Z</time></trkpt>
<trkpt lat="46.1872850" lon="7.2974683"><ele></ele><time>2016-5-22T7:56:6Z</time></trkpt>
<trkpt lat="46.1872850" lon="7.2974683"><ele></ele><time>2016-5-22T7:56:9Z</time></trkpt>
<trkpt lat="46.1872850" lon="7.2974683"><ele></ele><time>2016-5-22T7:56:12Z</time></trkpt>
<trkpt lat="46.1872850" lon="7.2974683"><ele></ele><time>2016-5-22T7:56:15Z</time></trkpt>
<trkpt lat="46.1872850" lon="7.2974683"><ele></ele><time>2016-5-22T7:56:18Z</time></trkpt>
<trkpt lat="46.1872850" lon="7.2974683"><ele></ele><time>2016-5-22T7:56:21Z</time></trkpt>
<trkpt lat="46.1872850" lon="7.2974683"><ele></ele><time>2016-5-22T7:56:24Z</time></trkpt>
<trkpt lat="46.1872850" lon="7.2974683"><ele></ele><time>2016-5-22T7:56:27Z</time></trkpt>
<trkpt lat="46.1872850" lon="7.2974683"><ele></ele><time>2016-5-22T7:56:30Z</time></trkpt>
<trkpt lat="46.1872850" lon="7.2974683"><ele></ele><time>2016-5-22T7:56:33Z</time></trkpt>
<trkpt lat="46.1872850" lon="7.2974683"><ele></ele><time>2016-5-22T7:56:36Z</time></trkpt>
<trkpt lat="46.1872850" lon="7.2974683"><ele></ele><time>2016-5-22T7:56:39Z</time></trkpt>
<trkpt lat="46.1872833" lon="7.2974683"><ele></ele><time>2016-5-22T7:56:42Z</time></trkpt>
<trkpt lat="46.1872833" lon="7.2974683"><ele></ele><time>2016-5-22T7:56:45Z</time></trkpt>
<trkpt lat="46.1872833" lon="7.2974683"><ele></ele><time>2016-5-22T7:56:48Z</time></trkpt>
<trkpt lat="46.1872833" lon="7.2974683"><ele></ele><time>2016-5-22T7:56:51Z</time></trkpt>
<trkpt lat="46.1872833" lon="7.2974683"><ele></ele><time>2016-5-22T7:56:54Z</time></trkpt>
<trkpt lat="46.1872833" lon="7.2974683"><ele></ele><time>2016-5-22T7:56:57Z</time></trkpt>
<trkpt lat="46.1872833" lon="7.2974683"><ele></ele><time>2016-5-22T7:57:0Z</time></trkpt>
<trkpt lat="46.1872833" lon="7.2974683"><ele></ele><time>2016-5-22T7:57:3Z</time></trkpt>
<trkpt lat="46.1872833" lon="7.2974683"><ele></ele><time>2016-5-22T7:57:6Z</time></trkpt>
<trkpt lat="46.1872833" lon="7.2974683"><ele></ele><time>2016-5-22T7:57:9Z</time></trkpt>
<trkpt lat="46.1872833" lon="7.2974683"><ele></ele><time>2016-5-22T7:57:12Z</time></trkpt>
<trkpt lat="46.1872800" lon="7.2974600"><ele></ele><time>2016-5-22T7:57:15Z</time></trkpt>
<trkpt lat="46.1872800" lon="7.2974600"><ele></ele><time>2016-5-22T7:57:18Z</time></trkpt>
<trkpt lat="46.1872800" lon="7.2974617"><ele></ele><time>2016-5-22T7:57:21Z</time></trkpt>
<trkpt lat="46.1872767" lon="7.2974733"><ele></ele><time>2016-5-22T7:57:24Z</time></trkpt>
<trkpt lat="46.1872750" lon="7.2974950"><ele></ele><time>2016-5-22T7:57:27Z</time></trkpt>
<trkpt lat="46.1872767" lon="7.2975150"><ele></ele><time>2016-5-22T7:57:30Z</time></trkpt>
<trkpt lat="46.1872850" lon="7.2975383"><ele></ele><time>2016-5-22T7:57:33Z</time></trkpt>
<trkpt lat="46.1872983" lon="7.2975783"><ele></ele><time>2016-5-22T7:57:36Z</time></trkpt>
<trkpt lat="46.1873133" lon="7.2976300"><ele></ele><time>2016-5-22T7:57:39Z</time></trkpt>
<trkpt lat="46.1873317" lon="7.2976967"><ele></ele><time>2016-5-22T7:57:42Z</time></trkpt>
<trkpt lat="46.1873533" lon="7.2977850"><ele></ele><time>2016-5-22T7:57:45Z</time></trkpt>
<trkpt lat="46.1873800" lon="7.2978933"><ele></ele><time>2016-5-22T7:57:48Z</time></trkpt>
<trkpt lat="46.1874233" lon="7.2980517"><ele></ele><time>2016-5-22T7:57:51Z</time></trkpt>
<trkpt lat="46.1874450" lon="7.2981383"><ele></ele><time>2016-5-22T7:57:54Z</time></trkpt>
<trkpt lat="46.1874450" lon="7.2981383"><ele></ele><time>2016-5-22T7:57:57Z</time></trkpt>
<trkpt lat="46.1874683" lon="7.2982283"><ele></ele><time>2016-5-22T7:58:0Z</time></trkpt>
<trkpt lat="46.1875117" lon="7.2983167"><ele></ele><time>2016-5-22T7:58:3Z</time></trkpt>
<trkpt lat="46.1875717" lon="7.2984083"><ele></ele><time>2016-5-22T7:58:6Z</time></trkpt>
<trkpt lat="46.1876300" lon="7.2984817"><ele></ele><time>2016-5-22T7:58:9Z</time></trkpt>
<trkpt lat="46.1876850" lon="7.2985417"><ele></ele><time>2016-5-22T7:58:12Z</time></trkpt>
<trkpt lat="46.1877417" lon="7.2986017"><ele></ele><time>2016-5-22T7:58:15Z</time></trkpt>
<trkpt lat="46.1877967" lon="7.2986483"><ele></ele><time>2016-5-22T7:58:18Z</time></trkpt>
<trkpt lat="46.1878517" lon="7.2986617"><ele></ele><time>2016-5-22T7:58:21Z</time></trkpt>
<trkpt lat="46.1879033" lon="7.2986483"><ele></ele><time>2016-5-22T7:58:24Z</time></trkpt>
<trkpt lat="46.1879283" lon="7.2987183"><ele></ele><time>2016-5-22T7:58:27Z</time></trkpt>
<trkpt lat="46.1879567" lon="7.2988117"><ele></ele><time>2016-5-22T7:58:30Z</time></trkpt>
<trkpt lat="46.1879583" lon="7.2989083"><ele></ele><time>2016-5-22T7:58:33Z</time></trkpt>
<trkpt lat="46.1879650" lon="7.2990117"><ele></ele><time>2016-5-22T7:58:36Z</time></trkpt>
<trkpt lat="46.1879483" lon="7.2991250"><ele></ele><time>2016-5-22T7:58:39Z</time></trkpt>
<trkpt lat="46.1879350" lon="7.2992467"><ele></ele><time>2016-5-22T7:58:42Z</time></trkpt>
<trkpt lat="46.1879233" lon="7.2993900"><ele></ele><time>2016-5-22T7:58:45Z</time></trkpt>
<trkpt lat="46.1879150" lon="7.2995450"><ele></ele><time>2016-5-22T7:58:48Z</time></trkpt>
<trkpt lat="46.1879100" lon="7.2996967"><ele></ele><time>2016-5-22T7:58:51Z</time></trkpt>
<trkpt lat="46.1879100" lon="7.2998550"><ele></ele><time>2016-5-22T7:58:54Z</time></trkpt>
<trkpt lat="46.1879100" lon="7.3000217"><ele></ele><time>2016-5-22T7:58:57Z</time></trkpt>
<trkpt lat="46.1879117" lon="7.3001900"><ele></ele><time>2016-5-22T7:59:0Z</time></trkpt>
<trkpt lat="46.1879150" lon="7.3003450"><ele></ele><time>2016-5-22T7:59:3Z</time></trkpt>
<trkpt lat="46.1879300" lon="7.3005117"><ele></ele><time>2016-5-22T7:59:6Z</time></trkpt>
<trkpt lat="46.1879400" lon="7.3006600"><ele></ele><time>2016-5-22T7:59:9Z</time></trkpt>
<trkpt lat="46.1879450" lon="7.3007817"><ele></ele><time>2016-5-22T7:59:12Z</time></trkpt>
<trkpt lat="46.1879267" lon="7.3009033"><ele></ele><time>2016-5-22T7:59:15Z</time></trkpt>
<trkpt lat="46.1878817" lon="7.3010250"><ele></ele><time>2016-5-22T7:59:18Z</time></trkpt>
<trkpt lat="46.1878233" lon="7.3011433"><ele></ele><time>2016-5-22T7:59:21Z</time></trkpt>
<trkpt lat="46.1877550" lon="7.3012517"><ele></ele><time>2016-5-22T7:59:24Z</time></trkpt>
<trkpt lat="46.1876867" lon="7.3013467"><ele></ele><time>2016-5-22T7:59:27Z</time></trkpt>
<trkpt lat="46.1876300" lon="7.3014667"><ele></ele><time>2016-5-22T7:59:30Z</time></trkpt>
<trkpt lat="46.1875767" lon="7.3015850"><ele></ele><time>2016-5-22T7:59:33Z</time></trkpt>
<trkpt lat="46.1875300" lon="7.3017067"><ele></ele><time>2016-5-22T7:59:36Z</time></trkpt>
<trkpt lat="46.1874800" lon="7.3018267"><ele></ele><time>2016-5-22T7:59:39Z</time></trkpt>
<trkpt lat="46.1874183" lon="7.3019833"><ele></ele><time>2016-5-22T7:59:42Z</time></trkpt>
<trkpt lat="46.1873633" lon="7.3021250"><ele></ele><time>2016-5-22T7:59:45Z</time></trkpt>
<trkpt lat="46.1873083" lon="7.3022550"><ele></ele><time>2016-5-22T7:59:48Z</time></trkpt>
<trkpt lat="46.1872600" lon="7.3023617"><ele></ele><time>2016-5-22T7:59:51Z</time></trkpt>
<trkpt lat="46.1872183" lon="7.3024600"><ele></ele><time>2016-5-22T7:59:54Z</time></trkpt>
<trkpt lat="46.1871950" lon="7.3025350"><ele></ele><time>2016-5-22T7:59:57Z</time></trkpt>
<trkpt lat="46.1871867" lon="7.3025850"><ele></ele><time>2016-5-22T8:0:0Z</time></trkpt>
<trkpt lat="46.1871850" lon="7.3026333"><ele></ele><time>2016-5-22T8:0:3Z</time></trkpt>
<trkpt lat="46.1871800" lon="7.3026783"><ele></ele><time>2016-5-22T8:0:6Z</time></trkpt>
<trkpt lat="46.1871533" lon="7.3027333"><ele></ele><time>2016-5-22T8:0:9Z</time></trkpt>
<trkpt lat="46.1871083" lon="7.3027800"><ele></ele><time>2016-5-22T8:0:12Z</time></trkpt>
<trkpt lat="46.1870467" lon="7.3028433"><ele></ele><time>2016-5-22T8:0:15Z</time></trkpt>
<trkpt lat="46.1869800" lon="7.3029000"><ele></ele><time>2016-5-22T8:0:18Z</time></trkpt>
<trkpt lat="46.1869050" lon="7.3029533"><ele></ele><time>2016-5-22T8:0:21Z</time></trkpt>
<trkpt lat="46.1868300" lon="7.3030267"><ele></ele><time>2016-5-22T8:0:24Z</time></trkpt>
<trkpt lat="46.1867717" lon="7.3030667"><ele></ele><time>2016-5-22T8:0:27Z</time></trkpt>
<trkpt lat="46.1867033" lon="7.3031050"><ele></ele><time>2016-5-22T8:0:30Z</time></trkpt>
<trkpt lat="46.1866200" lon="7.3031817"><ele></ele><time>2016-5-22T8:0:33Z</time></trkpt>
<trkpt lat="46.1865417" lon="7.3032633"><ele></ele><time>2016-5-22T8:0:36Z</time></trkpt>
<trkpt lat="46.1864767" lon="7.3033533"><ele></ele><time>2016-5-22T8:0:39Z</time></trkpt>
<trkpt lat="46.1864117" lon="7.3034767"><ele></ele><time>2016-5-22T8:0:42Z</time></trkpt>
<trkpt lat="46.1863517" lon="7.3036183"><ele></ele><time>2016-5-22T8:0:45Z</time></trkpt>
<trkpt lat="46.1862967" lon="7.3037500"><ele></ele><time>2016-5-22T8:0:48Z</time></trkpt>
<trkpt lat="46.1862333" lon="7.3038900"><ele></ele><time>2016-5-22T8:0:51Z</time></trkpt>
<trkpt lat="46.1861700" lon="7.3040317"><ele></ele><time>2016-5-22T8:0:54Z</time></trkpt>
<trkpt lat="46.1861033" lon="7.3041667"><ele></ele><time>2016-5-22T8:0:57Z</time></trkpt>
<trkpt lat="46.1860133" lon="7.3042867"><ele></ele><time>2016-5-22T8:1:0Z</time></trkpt>
<trkpt lat="46.1859033" lon="7.3043833"><ele></ele><time>2016-5-22T8:1:3Z</time></trkpt>
<trkpt lat="46.1858050" lon="7.3044917"><ele></ele><time>2016-5-22T8:1:6Z</time></trkpt>
<trkpt lat="46.1856883" lon="7.3045800"><ele></ele><time>2016-5-22T8:1:9Z</time></trkpt>
<trkpt lat="46.1855867" lon="7.3046783"><ele></ele><time>2016-5-22T8:1:12Z</time></trkpt>
<trkpt lat="46.1854750" lon="7.3047733"><ele></ele><time>2016-5-22T8:1:15Z</time></trkpt>
<trkpt lat="46.1853667" lon="7.3048550"><ele></ele><time>2016-5-22T8:1:18Z</time></trkpt>
<trkpt lat="46.1852483" lon="7.3049567"><ele></ele><time>2016-5-22T8:1:21Z</time></trkpt>
<trkpt lat="46.1851433" lon="7.3050750"><ele></ele><time>2016-5-22T8:1:24Z</time></trkpt>
<trkpt lat="46.1850583" lon="7.3052183"><ele></ele><time>2016-5-22T8:1:27Z</time></trkpt>
<trkpt lat="46.1849833" lon="7.3053817"><ele></ele><time>2016-5-22T8:1:30Z</time></trkpt>
<trkpt lat="46.1849183" lon="7.3055517"><ele></ele><time>2016-5-22T8:1:33Z</time></trkpt>
<trkpt lat="46.1848517" lon="7.3057233"><ele></ele><time>2016-5-22T8:1:36Z</time></trkpt>
<trkpt lat="46.1847733" lon="7.3058850"><ele></ele><time>2016-5-22T8:1:39Z</time></trkpt>
<trkpt lat="46.1846833" lon="7.3060367"><ele></ele><time>2016-5-22T8:1:42Z</time></trkpt>
<trkpt lat="46.1845917" lon="7.3061850"><ele></ele><time>2016-5-22T8:1:45Z</time></trkpt>
<trkpt lat="46.1845033" lon="7.3063317"><ele></ele><time>2016-5-22T8:1:48Z</time></trkpt>
<trkpt lat="46.1844150" lon="7.3064817"><ele></ele><time>2016-5-22T8:1:51Z</time></trkpt>
<trkpt lat="46.1843250" lon="7.3066317"><ele></ele><time>2016-5-22T8:1:54Z</time></trkpt>
<trkpt lat="46.1842300" lon="7.3067850"><ele></ele><time>2016-5-22T8:1:57Z</time></trkpt>
<trkpt lat="46.1841367" lon="7.3069267"><ele></ele><time>2016-5-22T8:2:0Z</time></trkpt>
<trkpt lat="46.1840533" lon="7.3070867"><ele></ele><time>2016-5-22T8:2:3Z</time></trkpt>
<trkpt lat="46.1839867" lon="7.3072583"><ele></ele><time>2016-5-22T8:2:6Z</time></trkpt>
<trkpt lat="46.1839483" lon="7.3074500"><ele></ele><time>2016-5-22T8:2:9Z</time></trkpt>
<trkpt lat="46.1839383" lon="7.3076450"><ele></ele><time>2016-5-22T8:2:12Z</time></trkpt>
<trkpt lat="46.1839367" lon="7.3078433"><ele></ele><time>2016-5-22T8:2:15Z</time></trkpt>
<trkpt lat="46.1839267" lon="7.3080367"><ele></ele><time>2016-5-22T8:2:18Z</time></trkpt>
<trkpt lat="46.1839250" lon="7.3082300"><ele></ele><time>2016-5-22T8:2:21Z</time></trkpt>
<trkpt lat="46.1839017" lon="7.3084117"><ele></ele><time>2016-5-22T8:2:24Z</time></trkpt>
<trkpt lat="46.1838767" lon="7.3086083"><ele></ele><time>2016-5-22T8:2:27Z</time></trkpt>
<trkpt lat="46.1838350" lon="7.3087817"><ele></ele><time>2016-5-22T8:2:30Z</time></trkpt>
<trkpt lat="46.1837767" lon="7.3089367"><ele></ele><time>2016-5-22T8:2:33Z</time></trkpt>
<trkpt lat="46.1837167" lon="7.3090867"><ele></ele><time>2016-5-22T8:2:36Z</time></trkpt>
<trkpt lat="46.1836417" lon="7.3091683"><ele></ele><time>2016-5-22T8:2:39Z</time></trkpt>
<trkpt lat="46.1835933" lon="7.3093250"><ele></ele><time>2016-5-22T8:2:42Z</time></trkpt>
<trkpt lat="46.1835667" lon="7.3094833"><ele></ele><time>2016-5-22T8:2:45Z</time></trkpt>
<trkpt lat="46.1835300" lon="7.3096283"><ele></ele><time>2016-5-22T8:2:48Z</time></trkpt>
<trkpt lat="46.1834933" lon="7.3097767"><ele></ele><time>2016-5-22T8:2:51Z</time></trkpt>
<trkpt lat="46.1834483" lon="7.3099033"><ele></ele><time>2016-5-22T8:2:54Z</time></trkpt>
<trkpt lat="46.1834083" lon="7.3100233"><ele></ele><time>2016-5-22T8:2:57Z</time></trkpt>
<trkpt lat="46.1834117" lon="7.3101400"><ele></ele><time>2016-5-22T8:3:0Z</time></trkpt>
<trkpt lat="46.1834150" lon="7.3102400"><ele></ele><time>2016-5-22T8:3:3Z</time></trkpt>
<trkpt lat="46.1834383" lon="7.3103633"><ele></ele><time>2016-5-22T8:3:6Z</time></trkpt>
<trkpt lat="46.1834550" lon="7.3104733"><ele></ele><time>2016-5-22T8:3:9Z</time></trkpt>
<trkpt lat="46.1834633" lon="7.3105600"><ele></ele><time>2016-5-22T8:3:12Z</time></trkpt>
<trkpt lat="46.1834600" lon="7.3106483"><ele></ele><time>2016-5-22T8:3:15Z</time></trkpt>
<trkpt lat="46.1834567" lon="7.3107217"><ele></ele><time>2016-5-22T8:3:18Z</time></trkpt>
<trkpt lat="46.1834600" lon="7.3107883"><ele></ele><time>2016-5-22T8:3:21Z</time></trkpt>
<trkpt lat="46.1834700" lon="7.3108567"><ele></ele><time>2016-5-22T8:3:24Z</time></trkpt>
<trkpt lat="46.1834617" lon="7.3109133"><ele></ele><time>2016-5-22T8:3:27Z</time></trkpt>
<trkpt lat="46.1834417" lon="7.3109683"><ele></ele><time>2016-5-22T8:3:30Z</time></trkpt>
<trkpt lat="46.1834383" lon="7.3110283"><ele></ele><time>2016-5-22T8:3:33Z</time></trkpt>
<trkpt lat="46.1834250" lon="7.3110817"><ele></ele><time>2016-5-22T8:3:36Z</time></trkpt>
<trkpt lat="46.1834250" lon="7.3111283"><ele></ele><time>2016-5-22T8:3:39Z</time></trkpt>
<trkpt lat="46.1834133" lon="7.3111717"><ele></ele><time>2016-5-22T8:3:42Z</time></trkpt>
<trkpt lat="46.1834200" lon="7.3112183"><ele></ele><time>2016-5-22T8:3:45Z</time></trkpt>
<trkpt lat="46.1834133" lon="7.3112667"><ele></ele><time>2016-5-22T8:3:48Z</time></trkpt>
<trkpt lat="46.1834017" lon="7.3113167"><ele></ele><time>2016-5-22T8:3:51Z</time></trkpt>
<trkpt lat="46.1833917" lon="7.3113650"><ele></ele><time>2016-5-22T8:3:54Z</time></trkpt>
<trkpt lat="46.1833833" lon="7.3114100"><ele></ele><time>2016-5-22T8:3:57Z</time></trkpt>
<trkpt lat="46.1833800" lon="7.3114567"><ele></ele><time>2016-5-22T8:4:0Z</time></trkpt>
<trkpt lat="46.1833750" lon="7.3115000"><ele></ele><time>2016-5-22T8:4:3Z</time></trkpt>
<trkpt lat="46.1833717" lon="7.3115417"><ele></ele><time>2016-5-22T8:4:6Z</time></trkpt>
<trkpt lat="46.1833633" lon="7.3115817"><ele></ele><time>2016-5-22T8:4:9Z</time></trkpt>
<trkpt lat="46.1833583" lon="7.3116133"><ele></ele><time>2016-5-22T8:4:12Z</time></trkpt>
<trkpt lat="46.1833517" lon="7.3116433"><ele></ele><time>2016-5-22T8:4:15Z</time></trkpt>
<trkpt lat="46.1833483" lon="7.3116800"><ele></ele><time>2016-5-22T8:4:18Z</time></trkpt>
<trkpt lat="46.1833483" lon="7.3117200"><ele></ele><time>2016-5-22T8:4:21Z</time></trkpt>
<trkpt lat="46.1833517" lon="7.3117600"><ele></ele><time>2016-5-22T8:4:24Z</time></trkpt>
<trkpt lat="46.1833550" lon="7.3117983"><ele></ele><time>2016-5-22T8:4:27Z</time></trkpt>
<trkpt lat="46.1833550" lon="7.3118367"><ele></ele><time>2016-5-22T8:4:30Z</time></trkpt>
<trkpt lat="46.1833500" lon="7.3118750"><ele></ele><time>2016-5-22T8:4:33Z</time></trkpt>
<trkpt lat="46.1833450" lon="7.3119100"><ele></ele><time>2016-5-22T8:4:36Z</time></trkpt>
<trkpt lat="46.1833367" lon="7.3119483"><ele></ele><time>2016-5-22T8:4:39Z</time></trkpt>
<trkpt lat="46.1833333" lon="7.3119883"><ele></ele><time>2016-5-22T8:4:42Z</time></trkpt>
<trkpt lat="46.1833333" lon="7.3120300"><ele></ele><time>2016-5-22T8:4:45Z</time></trkpt>
<trkpt lat="46.1833367" lon="7.3120683"><ele></ele><time>2016-5-22T8:4:48Z</time></trkpt>
<trkpt lat="46.1833383" lon="7.3121067"><ele></ele><time>2016-5-22T8:4:51Z</time></trkpt>
<trkpt lat="46.1833400" lon="7.3121433"><ele></ele><time>2016-5-22T8:4:54Z</time></trkpt>
<trkpt lat="46.1833417" lon="7.3121833"><ele></ele><time>2016-5-22T8:4:57Z</time></trkpt>
<trkpt lat="46.1833433" lon="7.3122217"><ele></ele><time>2016-5-22T8:5:0Z</time></trkpt>
<trkpt lat="46.1833400" lon="7.3122600"><ele></ele><time>2016-5-22T8:5:3Z</time></trkpt>
<trkpt lat="46.1833383" lon="7.3123033"><ele></ele><time>2016-5-22T8:5:6Z</time></trkpt>
<trkpt lat="46.1833350" lon="7.3123450"><ele></ele><time>2016-5-22T8:5:9Z</time></trkpt>
<trkpt lat="46.1833300" lon="7.3123883"><ele></ele><time>2016-5-22T8:5:12Z</time></trkpt>
<trkpt lat="46.1833267" lon="7.3124283"><ele></ele><time>2016-5-22T8:5:15Z</time></trkpt>
<trkpt lat="46.1833233" lon="7.3124700"><ele></ele><time>2016-5-22T8:5:18Z</time></trkpt>
<trkpt lat="46.1833233" lon="7.3125117"><ele></ele><time>2016-5-22T8:5:21Z</time></trkpt>
<trkpt lat="46.1833233" lon="7.3125550"><ele></ele><time>2016-5-22T8:5:24Z</time></trkpt>
<trkpt lat="46.1833233" lon="7.3125950"><ele></ele><time>2016-5-22T8:5:27Z</time></trkpt>
<trkpt lat="46.1833233" lon="7.3126350"><ele></ele><time>2016-5-22T8:5:30Z</time></trkpt>
<trkpt lat="46.1833217" lon="7.3126733"><ele></ele><time>2016-5-22T8:5:33Z</time></trkpt>
<trkpt lat="46.1833200" lon="7.3127100"><ele></ele><time>2016-5-22T8:5:36Z</time></trkpt>
<trkpt lat="46.1833150" lon="7.3127483"><ele></ele><time>2016-5-22T8:5:39Z</time></trkpt>
<trkpt lat="46.1833083" lon="7.3127883"><ele></ele><time>2016-5-22T8:5:42Z</time></trkpt>
<trkpt lat="46.1833017" lon="7.3128283"><ele></ele><time>2016-5-22T8:5:45Z</time></trkpt>
<trkpt lat="46.1832967" lon="7.3128667"><ele></ele><time>2016-5-22T8:5:48Z</time></trkpt>
<trkpt lat="46.1832917" lon="7.3129050"><ele></ele><time>2016-5-22T8:5:51Z</time></trkpt>
<trkpt lat="46.1832917" lon="7.3129467"><ele></ele><time>2016-5-22T8:5:54Z</time></trkpt>
<trkpt lat="46.1832917" lon="7.3129867"><ele></ele><time>2016-5-22T8:5:57Z</time></trkpt>
<trkpt lat="46.1832933" lon="7.3130233"><ele></ele><time>2016-5-22T8:6:0Z</time></trkpt>
<trkpt lat="46.1832917" lon="7.3130600"><ele></ele><time>2016-5-22T8:6:3Z</time></trkpt>
<trkpt lat="46.1832917" lon="7.3130967"><ele></ele><time>2016-5-22T8:6:6Z</time></trkpt>
<trkpt lat="46.1832883" lon="7.3131350"><ele></ele><time>2016-5-22T8:6:9Z</time></trkpt>
<trkpt lat="46.1832850" lon="7.3131717"><ele></ele><time>2016-5-22T8:6:12Z</time></trkpt>
<trkpt lat="46.1832800" lon="7.3132083"><ele></ele><time>2016-5-22T8:6:15Z</time></trkpt>
<trkpt lat="46.1832750" lon="7.3132450"><ele></ele><time>2016-5-22T8:6:18Z</time></trkpt>
<trkpt lat="46.1832717" lon="7.3132817"><ele></ele><time>2016-5-22T8:6:21Z</time></trkpt>
<trkpt lat="46.1832650" lon="7.3133167"><ele></ele><time>2016-5-22T8:6:24Z</time></trkpt>
<trkpt lat="46.1832600" lon="7.3133550"><ele></ele><time>2016-5-22T8:6:27Z</time></trkpt>
<trkpt lat="46.1832550" lon="7.3133950"><ele></ele><time>2016-5-22T8:6:30Z</time></trkpt>
<trkpt lat="46.1832500" lon="7.3134367"><ele></ele><time>2016-5-22T8:6:33Z</time></trkpt>
<trkpt lat="46.1832483" lon="7.3134783"><ele></ele><time>2016-5-22T8:6:36Z</time></trkpt>
<trkpt lat="46.1832450" lon="7.3135183"><ele></ele><time>2016-5-22T8:6:39Z</time></trkpt>
<trkpt lat="46.1832400" lon="7.3135550"><ele></ele><time>2016-5-22T8:6:42Z</time></trkpt>
<trkpt lat="46.1832317" lon="7.3135883"><ele></ele><time>2016-5-22T8:6:45Z</time></trkpt>
<trkpt lat="46.1832217" lon="7.3136200"><ele></ele><time>2016-5-22T8:6:48Z</time></trkpt>
<trkpt lat="46.1832133" lon="7.3136533"><ele></ele><time>2016-5-22T8:6:51Z</time></trkpt>
<trkpt lat="46.1832033" lon="7.3136900"><ele></ele><time>2016-5-22T8:6:54Z</time></trkpt>
<trkpt lat="46.1831950" lon="7.3137250"><ele></ele><time>2016-5-22T8:6:57Z</time></trkpt>
<trkpt lat="46.1831883" lon="7.3137567"><ele></ele><time>2016-5-22T8:7:0Z</time></trkpt>
<trkpt lat="46.1831800" lon="7.3137867"><ele></ele><time>2016-5-22T8:7:3Z</time></trkpt>
<trkpt lat="46.1831733" lon="7.3138200"><ele></ele><time>2016-5-22T8:7:6Z</time></trkpt>
<trkpt lat="46.1831683" lon="7.3138550"><ele></ele><time>2016-5-22T8:7:9Z</time></trkpt>
<trkpt lat="46.1831667" lon="7.3138900"><ele></ele><time>2016-5-22T8:7:12Z</time></trkpt>
<trkpt lat="46.1831633" lon="7.3139267"><ele></ele><time>2016-5-22T8:7:15Z</time></trkpt>
<trkpt lat="46.1831550" lon="7.3139650"><ele></ele><time>2016-5-22T8:7:18Z</time></trkpt>
<trkpt lat="46.1831450" lon="7.3140017"><ele></ele><time>2016-5-22T8:7:21Z</time></trkpt>
<trkpt lat="46.1831350" lon="7.3140367"><ele></ele><time>2016-5-22T8:7:24Z</time></trkpt>
<trkpt lat="46.1831200" lon="7.3140717"><ele></ele><time>2016-5-22T8:7:27Z</time></trkpt>
<trkpt lat="46.1831050" lon="7.3141067"><ele></ele><time>2016-5-22T8:7:30Z</time></trkpt>
<trkpt lat="46.1830900" lon="7.3141417"><ele></ele><time>2016-5-22T8:7:33Z</time></trkpt>
<trkpt lat="46.1830767" lon="7.3141733"><ele></ele><time>2016-5-22T8:7:36Z</time></trkpt>
<trkpt lat="46.1830650" lon="7.3142050"><ele></ele><time>2016-5-22T8:7:39Z</time></trkpt>
<trkpt lat="46.1830533" lon="7.3142383"><ele></ele><time>2016-5-22T8:7:42Z</time></trkpt>
<trkpt lat="46.1830417" lon="7.3142700"><ele></ele><time>2016-5-22T8:7:45Z</time></trkpt>
<trkpt lat="46.1830283" lon="7.3143017"><ele></ele><time>2016-5-22T8:7:48Z</time></trkpt>
<trkpt lat="46.1830150" lon="7.3143333"><ele></ele><time>2016-5-22T8:7:51Z</time></trkpt>
<trkpt lat="46.1830033" lon="7.3143650"><ele></ele><time>2016-5-22T8:7:54Z</time></trkpt>
<trkpt lat="46.1829917" lon="7.3143983"><ele></ele><time>2016-5-22T8:7:57Z</time></trkpt>
<trkpt lat="46.1829817" lon="7.3144350"><ele></ele><time>2016-5-22T8:8:0Z</time></trkpt>
<trkpt lat="46.1829717" lon="7.3144683"><ele></ele><time>2016-5-22T8:8:3Z</time></trkpt>
<trkpt lat="46.1829650" lon="7.3145017"><ele></ele><time>2016-5-22T8:8:6Z</time></trkpt>
<trkpt lat="46.1829567" lon="7.3145367"><ele></ele><time>2016-5-22T8:8:9Z</time></trkpt>
<trkpt lat="46.1829483" lon="7.3145733"><ele></ele><time>2016-5-22T8:8:12Z</time></trkpt>
<trkpt lat="46.1829383" lon="7.3146067"><ele></ele><time>2016-5-22T8:8:15Z</time></trkpt>
<trkpt lat="46.1829317" lon="7.3146433"><ele></ele><time>2016-5-22T8:8:18Z</time></trkpt>
<trkpt lat="46.1829233" lon="7.3146817"><ele></ele><time>2016-5-22T8:8:21Z</time></trkpt>
<trkpt lat="46.1829150" lon="7.3147200"><ele></ele><time>2016-5-22T8:8:24Z</time></trkpt>
<trkpt lat="46.1829050" lon="7.3147550"><ele></ele><time>2016-5-22T8:8:27Z</time></trkpt>
<trkpt lat="46.1828950" lon="7.3147833"><ele></ele><time>2016-5-22T8:8:30Z</time></trkpt>
<trkpt lat="46.1828850" lon="7.3148183"><ele></ele><time>2016-5-22T8:8:33Z</time></trkpt>
<trkpt lat="46.1828783" lon="7.3148533"><ele></ele><time>2016-5-22T8:8:36Z</time></trkpt>
<trkpt lat="46.1828733" lon="7.3148867"><ele></ele><time>2016-5-22T8:8:39Z</time></trkpt>
<trkpt lat="46.1828717" lon="7.3149233"><ele></ele><time>2016-5-22T8:8:42Z</time></trkpt>
<trkpt lat="46.1828667" lon="7.3149600"><ele></ele><time>2016-5-22T8:8:45Z</time></trkpt>
<trkpt lat="46.1828617" lon="7.3149917"><ele></ele><time>2016-5-22T8:8:48Z</time></trkpt>
<trkpt lat="46.1828583" lon="7.3150233"><ele></ele><time>2016-5-22T8:8:51Z</time></trkpt>
<trkpt lat="46.1828550" lon="7.3150583"><ele></ele><time>2016-5-22T8:8:54Z</time></trkpt>
<trkpt lat="46.1828500" lon="7.3150950"><ele></ele><time>2016-5-22T8:8:57Z</time></trkpt>
<trkpt lat="46.1828433" lon="7.3151333"><ele></ele><time>2016-5-22T8:9:0Z</time></trkpt>
<trkpt lat="46.1828383" lon="7.3151717"><ele></ele><time>2016-5-22T8:9:3Z</time></trkpt>
<trkpt lat="46.1828350" lon="7.3152083"><ele></ele><time>2016-5-22T8:9:6Z</time></trkpt>
<trkpt lat="46.1828317" lon="7.3152450"><ele></ele><time>2016-5-22T8:9:9Z</time></trkpt>
<trkpt lat="46.1828267" lon="7.3152817"><ele></ele><time>2016-5-22T8:9:12Z</time></trkpt>
<trkpt lat="46.1828183" lon="7.3153183"><ele></ele><time>2016-5-22T8:9:15Z</time></trkpt>
<trkpt lat="46.1828050" lon="7.3153583"><ele></ele><time>2016-5-22T8:9:18Z</time></trkpt>
<trkpt lat="46.1827900" lon="7.3153950"><ele></ele><time>2016-5-22T8:9:21Z</time></trkpt>
<trkpt lat="46.1827767" lon="7.3154283"><ele></ele><time>2016-5-22T8:9:24Z</time></trkpt>
<trkpt lat="46.1827617" lon="7.3154633"><ele></ele><time>2016-5-22T8:9:27Z</time></trkpt>
<trkpt lat="46.1827467" lon="7.3154983"><ele></ele><time>2016-5-22T8:9:30Z</time></trkpt>
<trkpt lat="46.1827300" lon="7.3155333"><ele></ele><time>2016-5-22T8:9:33Z</time></trkpt>
<trkpt lat="46.1827133" lon="7.3155650"><ele></ele><time>2016-5-22T8:9:36Z</time></trkpt>
<trkpt lat="46.1826933" lon="7.3155933"><ele></ele><time>2016-5-22T8:9:39Z</time></trkpt>
<trkpt lat="46.1826750" lon="7.3156200"><ele></ele><time>2016-5-22T8:9:42Z</time></trkpt>
<trkpt lat="46.1826583" lon="7.3156500"><ele></ele><time>2016-5-22T8:9:45Z</time></trkpt>
<trkpt lat="46.1826400" lon="7.3156817"><ele></ele><time>2016-5-22T8:9:48Z</time></trkpt>
<trkpt lat="46.1826233" lon="7.3157117"><ele></ele><time>2016-5-22T8:9:51Z</time></trkpt>
<trkpt lat="46.1826067" lon="7.3157400"><ele></ele><time>2016-5-22T8:9:54Z</time></trkpt>
<trkpt lat="46.1825900" lon="7.3157667"><ele></ele><time>2016-5-22T8:9:57Z</time></trkpt>
<trkpt lat="46.1825733" lon="7.3157917"><ele></ele><time>2016-5-22T8:10:0Z</time></trkpt>
<trkpt lat="46.1825583" lon="7.3158167"><ele></ele><time>2016-5-22T8:10:3Z</time></trkpt>
<trkpt lat="46.1825400" lon="7.3158450"><ele></ele><time>2016-5-22T8:10:6Z</time></trkpt>
<trkpt lat="46.1825217" lon="7.3158717"><ele></ele><time>2016-5-22T8:10:9Z</time></trkpt>
<trkpt lat="46.1825017" lon="7.3158983"><ele></ele><time>2016-5-22T8:10:12Z</time></trkpt>
<trkpt lat="46.1824800" lon="7.3159217"><ele></ele><time>2016-5-22T8:10:15Z</time></trkpt>
<trkpt lat="46.1824583" lon="7.3159483"><ele></ele><time>2016-5-22T8:10:18Z</time></trkpt>
<trkpt lat="46.1824383" lon="7.3159750"><ele></ele><time>2016-5-22T8:10:21Z</time></trkpt>
<trkpt lat="46.1824200" lon="7.3160017"><ele></ele><time>2016-5-22T8:10:24Z</time></trkpt>
<trkpt lat="46.1824017" lon="7.3160267"><ele></ele><time>2016-5-22T8:10:27Z</time></trkpt>
<trkpt lat="46.1823833" lon="7.3160517"><ele></ele><time>2016-5-22T8:10:30Z</time></trkpt>
<trkpt lat="46.1823650" lon="7.3160733"><ele></ele><time>2016-5-22T8:10:33Z</time></trkpt>
<trkpt lat="46.1823500" lon="7.3160983"><ele></ele><time>2016-5-22T8:10:36Z</time></trkpt>
<trkpt lat="46.1823350" lon="7.3161233"><ele></ele><time>2016-5-22T8:10:39Z</time></trkpt>
<trkpt lat="46.1823233" lon="7.3161483"><ele></ele><time>2016-5-22T8:10:42Z</time></trkpt>
<trkpt lat="46.1823117" lon="7.3161733"><ele></ele><time>2016-5-22T8:10:45Z</time></trkpt>
<trkpt lat="46.1823000" lon="7.3162000"><ele></ele><time>2016-5-22T8:10:48Z</time></trkpt>
<trkpt lat="46.1822900" lon="7.3162300"><ele></ele><time>2016-5-22T8:10:51Z</time></trkpt>
<trkpt lat="46.1822800" lon="7.3162617"><ele></ele><time>2016-5-22T8:10:54Z</time></trkpt>
<trkpt lat="46.1822683" lon="7.3162950"><ele></ele><time>2016-5-22T8:10:57Z</time></trkpt>
<trkpt lat="46.1822550" lon="7.3163317"><ele></ele><time>2016-5-22T8:11:0Z</time></trkpt>
<trkpt lat="46.1822417" lon="7.3163683"><ele></ele><time>2016-5-22T8:11:3Z</time></trkpt>
<trkpt lat="46.1822333" lon="7.3164050"><ele></ele><time>2016-5-22T8:11:6Z</time></trkpt>
<trkpt lat="46.1822233" lon="7.3164400"><ele></ele><time>2016-5-22T8:11:9Z</time></trkpt>
<trkpt lat="46.1822133" lon="7.3164750"><ele></ele><time>2016-5-22T8:11:12Z</time></trkpt>
<trkpt lat="46.1822050" lon="7.3165117"><ele></ele><time>2016-5-22T8:11:15Z</time></trkpt>
<trkpt lat="46.1821967" lon="7.3165467"><ele></ele><time>2016-5-22T8:11:18Z</time></trkpt>
<trkpt lat="46.1821883" lon="7.3165800"><ele></ele><time>2016-5-22T8:11:21Z</time></trkpt>
<trkpt lat="46.1821833" lon="7.3166133"><ele></ele><time>2016-5-22T8:11:24Z</time></trkpt>
<trkpt lat="46.1821767" lon="7.3166483"><ele></ele><time>2016-5-22T8:11:27Z</time></trkpt>
<trkpt lat="46.1821717" lon="7.3166833"><ele></ele><time>2016-5-22T8:11:30Z</time></trkpt>
<trkpt lat="46.1821683" lon="7.3167150"><ele></ele><time>2016-5-22T8:11:33Z</time></trkpt>
<trkpt lat="46.1821633" lon="7.3167500"><ele></ele><time>2016-5-22T8:11:36Z</time></trkpt>
<trkpt lat="46.1821617" lon="7.3167867"><ele></ele><time>2016-5-22T8:11:39Z</time></trkpt>
<trkpt lat="46.1821583" lon="7.3168217"><ele></ele><time>2016-5-22T8:11:42Z</time></trkpt>
<trkpt lat="46.1821550" lon="7.3168583"><ele></ele><time>2016-5-22T8:11:45Z</time></trkpt>
<trkpt lat="46.1821483" lon="7.3168933"><ele></ele><time>2016-5-22T8:11:48Z</time></trkpt>
<trkpt lat="46.1821417" lon="7.3169300"><ele></ele><time>2016-5-22T8:11:51Z</time></trkpt>
<trkpt lat="46.1821317" lon="7.3169633"><ele></ele><time>2016-5-22T8:11:54Z</time></trkpt>
<trkpt lat="46.1821217" lon="7.3169983"><ele></ele><time>2016-5-22T8:11:57Z</time></trkpt>
<trkpt lat="46.1821133" lon="7.3170333"><ele></ele><time>2016-5-22T8:12:0Z</time></trkpt>
<trkpt lat="46.1821050" lon="7.3170700"><ele></ele><time>2016-5-22T8:12:3Z</time></trkpt>
<trkpt lat="46.1820950" lon="7.3171067"><ele></ele><time>2016-5-22T8:12:6Z</time></trkpt>
<trkpt lat="46.1820883" lon="7.3171433"><ele></ele><time>2016-5-22T8:12:9Z</time></trkpt>
<trkpt lat="46.1820800" lon="7.3171817"><ele></ele><time>2016-5-22T8:12:12Z</time></trkpt>
<trkpt lat="46.1820733" lon="7.3172167"><ele></ele><time>2016-5-22T8:12:15Z</time></trkpt>
<trkpt lat="46.1820633" lon="7.3172517"><ele></ele><time>2016-5-22T8:12:18Z</time></trkpt>
<trkpt lat="46.1820533" lon="7.3172867"><ele></ele><time>2016-5-22T8:12:21Z</time></trkpt>
<trkpt lat="46.1820417" lon="7.3173217"><ele></ele><time>2016-5-22T8:12:24Z</time></trkpt>
<trkpt lat="46.1820283" lon="7.3173533"><ele></ele><time>2016-5-22T8:12:27Z</time></trkpt>
<trkpt lat="46.1820133" lon="7.3173867"><ele></ele><time>2016-5-22T8:12:30Z</time></trkpt>
<trkpt lat="46.1820000" lon="7.3174217"><ele></ele><time>2016-5-22T8:12:33Z</time></trkpt>
<trkpt lat="46.1819850" lon="7.3174550"><ele></ele><time>2016-5-22T8:12:36Z</time></trkpt>
<trkpt lat="46.1819683" lon="7.3174883"><ele></ele><time>2016-5-22T8:12:39Z</time></trkpt>
<trkpt lat="46.1819517" lon="7.3175217"><ele></ele><time>2016-5-22T8:12:42Z</time></trkpt>
<trkpt lat="46.1819350" lon="7.3175550"><ele></ele><time>2016-5-22T8:12:45Z</time></trkpt>
<trkpt lat="46.1819183" lon="7.3175883"><ele></ele><time>2016-5-22T8:12:48Z</time></trkpt>
<trkpt lat="46.1819000" lon="7.3176200"><ele></ele><time>2016-5-22T8:12:51Z</time></trkpt>
<trkpt lat="46.1818833" lon="7.3176517"><ele></ele><time>2016-5-22T8:12:54Z</time></trkpt>
<trkpt lat="46.1818667" lon="7.3176817"><ele></ele><time>2016-5-22T8:12:57Z</time></trkpt>
<trkpt lat="46.1818517" lon="7.3177067"><ele></ele><time>2016-5-22T8:13:0Z</time></trkpt>
<trkpt lat="46.1818350" lon="7.3177333"><ele></ele><time>2016-5-22T8:13:3Z</time></trkpt>
<trkpt lat="46.1818183" lon="7.3177583"><ele></ele><time>2016-5-22T8:13:6Z</time></trkpt>
<trkpt lat="46.1818050" lon="7.3177750"><ele></ele><time>2016-5-22T8:13:9Z</time></trkpt>
<trkpt lat="46.1817917" lon="7.3177883"><ele></ele><time>2016-5-22T8:13:12Z</time></trkpt>
<trkpt lat="46.1817717" lon="7.3178050"><ele></ele><time>2016-5-22T8:13:15Z</time></trkpt>
<trkpt lat="46.1817517" lon="7.3178233"><ele></ele><time>2016-5-22T8:13:18Z</time></trkpt>
<trkpt lat="46.1817317" lon="7.3178450"><ele></ele><time>2016-5-22T8:13:21Z</time></trkpt>
<trkpt lat="46.1817167" lon="7.3178650"><ele></ele><time>2016-5-22T8:13:24Z</time></trkpt>
<trkpt lat="46.1816983" lon="7.3178867"><ele></ele><time>2016-5-22T8:13:27Z</time></trkpt>
<trkpt lat="46.1816833" lon="7.3179067"><ele></ele><time>2016-5-22T8:13:30Z</time></trkpt>
<trkpt lat="46.1816683" lon="7.3179233"><ele></ele><time>2016-5-22T8:13:33Z</time></trkpt>
<trkpt lat="46.1816500" lon="7.3179433"><ele></ele><time>2016-5-22T8:13:36Z</time></trkpt>
<trkpt lat="46.1816333" lon="7.3179617"><ele></ele><time>2016-5-22T8:13:39Z</time></trkpt>
<trkpt lat="46.1816150" lon="7.3179767"><ele></ele><time>2016-5-22T8:13:42Z</time></trkpt>
<trkpt lat="46.1815950" lon="7.3179900"><ele></ele><time>2016-5-22T8:13:45Z</time></trkpt>
<trkpt lat="46.1815717" lon="7.3180067"><ele></ele><time>2016-5-22T8:13:48Z</time></trkpt>
<trkpt lat="46.1815483" lon="7.3180233"><ele></ele><time>2016-5-22T8:13:51Z</time></trkpt>
<trkpt lat="46.1815250" lon="7.3180417"><ele></ele><time>2016-5-22T8:13:54Z</time></trkpt>
<trkpt lat="46.1815017" lon="7.3180583"><ele></ele><time>2016-5-22T8:13:57Z</time></trkpt>
<trkpt lat="46.1814783" lon="7.3180733"><ele></ele><time>2016-5-22T8:14:0Z</time></trkpt>
<trkpt lat="46.1814550" lon="7.3180850"><ele></ele><time>2016-5-22T8:14:3Z</time></trkpt>
<trkpt lat="46.1814317" lon="7.3180983"><ele></ele><time>2016-5-22T8:14:6Z</time></trkpt>
<trkpt lat="46.1814083" lon="7.3181150"><ele></ele><time>2016-5-22T8:14:9Z</time></trkpt>
<trkpt lat="46.1813833" lon="7.3181317"><ele></ele><time>2016-5-22T8:14:12Z</time></trkpt>
<trkpt lat="46.1813583" lon="7.3181450"><ele></ele><time>2016-5-22T8:14:15Z</time></trkpt>
<trkpt lat="46.1813333" lon="7.3181567"><ele></ele><time>2016-5-22T8:14:18Z</time></trkpt>
<trkpt lat="46.1813083" lon="7.3181683"><ele></ele><time>2016-5-22T8:14:21Z</time></trkpt>
<trkpt lat="46.1812850" lon="7.3181767"><ele></ele><time>2016-5-22T8:14:24Z</time></trkpt>
<trkpt lat="46.1812600" lon="7.3181867"><ele></ele><time>2016-5-22T8:14:27Z</time></trkpt>
<trkpt lat="46.1812383" lon="7.3181983"><ele></ele><time>2016-5-22T8:14:30Z</time></trkpt>
<trkpt lat="46.1812133" lon="7.3182067"><ele></ele><time>2016-5-22T8:14:33Z</time></trkpt>
<trkpt lat="46.1811867" lon="7.3182167"><ele></ele><time>2016-5-22T8:14:36Z</time></trkpt>
<trkpt lat="46.1811600" lon="7.3182267"><ele></ele><time>2016-5-22T8:14:39Z</time></trkpt>
<trkpt lat="46.1811333" lon="7.3182433"><ele></ele><time>2016-5-22T8:14:42Z</time></trkpt>
<trkpt lat="46.1811067" lon="7.3182667"><ele></ele><time>2016-5-22T8:14:45Z</time></trkpt>
<trkpt lat="46.1810833" lon="7.3182883"><ele></ele><time>2016-5-22T8:14:48Z</time></trkpt>
<trkpt lat="46.1810617" lon="7.3183033"><ele></ele><time>2016-5-22T8:14:51Z</time></trkpt>
<trkpt lat="46.1810400" lon="7.3183217"><ele></ele><time>2016-5-22T8:14:54Z</time></trkpt>
<trkpt lat="46.1810183" lon="7.3183400"><ele></ele><time>2016-5-22T8:14:57Z</time></trkpt>
<trkpt lat="46.1809950" lon="7.3183600"><ele></ele><time>2016-5-22T8:15:0Z</time></trkpt>
<trkpt lat="46.1809733" lon="7.3183800"><ele></ele><time>2016-5-22T8:15:3Z</time></trkpt>
<trkpt lat="46.1809550" lon="7.3183950"><ele></ele><time>2016-5-22T8:15:6Z</time></trkpt>
<trkpt lat="46.1809367" lon="7.3184133"><ele></ele><time>2016-5-22T8:15:9Z</time></trkpt>
<trkpt lat="46.1809167" lon="7.3184300"><ele></ele><time>2016-5-22T8:15:12Z</time></trkpt>
<trkpt lat="46.1809000" lon="7.3184467"><ele></ele><time>2016-5-22T8:15:15Z</time></trkpt>
<trkpt lat="46.1808867" lon="7.3184683"><ele></ele><time>2016-5-22T8:15:18Z</time></trkpt>
<trkpt lat="46.1808717" lon="7.3184867"><ele></ele><time>2016-5-22T8:15:21Z</time></trkpt>
<trkpt lat="46.1808533" lon="7.3185050"><ele></ele><time>2016-5-22T8:15:24Z</time></trkpt>
<trkpt lat="46.1808333" lon="7.3185233"><ele></ele><time>2016-5-22T8:15:27Z</time></trkpt>
<trkpt lat="46.1808133" lon="7.3185417"><ele></ele><time>2016-5-22T8:15:30Z</time></trkpt>
<trkpt lat="46.1807900" lon="7.3185617"><ele></ele><time>2016-5-22T8:15:33Z</time></trkpt>
<trkpt lat="46.1807667" lon="7.3185800"><ele></ele><time>2016-5-22T8:15:36Z</time></trkpt>
<trkpt lat="46.1807417" lon="7.3185950"><ele></ele><time>2016-5-22T8:15:39Z</time></trkpt>
<trkpt lat="46.1807200" lon="7.3186083"><ele></ele><time>2016-5-22T8:15:42Z</time></trkpt>
<trkpt lat="46.1806967" lon="7.3186217"><ele></ele><time>2016-5-22T8:15:45Z</time></trkpt>
<trkpt lat="46.1806717" lon="7.3186367"><ele></ele><time>2016-5-22T8:15:48Z</time></trkpt>
<trkpt lat="46.1806500" lon="7.3186433"><ele></ele><time>2016-5-22T8:15:51Z</time></trkpt>
<trkpt lat="46.1806300" lon="7.3186483"><ele></ele><time>2016-5-22T8:15:54Z</time></trkpt>
<trkpt lat="46.1806033" lon="7.3186500"><ele></ele><time>2016-5-22T8:15:57Z</time></trkpt>
<trkpt lat="46.1805733" lon="7.3186550"><ele></ele><time>2016-5-22T8:16:0Z</time></trkpt>
<trkpt lat="46.1805450" lon="7.3186617"><ele></ele><time>2016-5-22T8:16:3Z</time></trkpt>
<trkpt lat="46.1805200" lon="7.3186683"><ele></ele><time>2016-5-22T8:16:6Z</time></trkpt>
<trkpt lat="46.1804950" lon="7.3186717"><ele></ele><time>2016-5-22T8:16:9Z</time></trkpt>
<trkpt lat="46.1804717" lon="7.3186700"><ele></ele><time>2016-5-22T8:16:12Z</time></trkpt>
<trkpt lat="46.1804500" lon="7.3186633"><ele></ele><time>2016-5-22T8:16:15Z</time></trkpt>
<trkpt lat="46.1804300" lon="7.3186567"><ele></ele><time>2016-5-22T8:16:18Z</time></trkpt>
<trkpt lat="46.1804067" lon="7.3186517"><ele></ele><time>2016-5-22T8:16:21Z</time></trkpt>
<trkpt lat="46.1803850" lon="7.3186500"><ele></ele><time>2016-5-22T8:16:24Z</time></trkpt>
<trkpt lat="46.1803600" lon="7.3186483"><ele></ele><time>2016-5-22T8:16:27Z</time></trkpt>
<trkpt lat="46.1803333" lon="7.3186433"><ele></ele><time>2016-5-22T8:16:30Z</time></trkpt>
<trkpt lat="46.1803083" lon="7.3186350"><ele></ele><time>2016-5-22T8:16:33Z</time></trkpt>
<trkpt lat="46.1802817" lon="7.3186217"><ele></ele><time>2016-5-22T8:16:36Z</time></trkpt>
<trkpt lat="46.1802567" lon="7.3186083"><ele></ele><time>2016-5-22T8:16:39Z</time></trkpt>
<trkpt lat="46.1802333" lon="7.3185967"><ele></ele><time>2016-5-22T8:16:42Z</time></trkpt>
<trkpt lat="46.1802100" lon="7.3185833"><ele></ele><time>2016-5-22T8:16:45Z</time></trkpt>
<trkpt lat="46.1801867" lon="7.3185733"><ele></ele><time>2016-5-22T8:16:48Z</time></trkpt>
<trkpt lat="46.1801650" lon="7.3185617"><ele></ele><time>2016-5-22T8:16:51Z</time></trkpt>
<trkpt lat="46.1801433" lon="7.3185483"><ele></ele><time>2016-5-22T8:16:54Z</time></trkpt>
<trkpt lat="46.1801283" lon="7.3185350"><ele></ele><time>2016-5-22T8:16:57Z</time></trkpt>
<trkpt lat="46.1801117" lon="7.3185200"><ele></ele><time>2016-5-22T8:17:0Z</time></trkpt>
<trkpt lat="46.1800883" lon="7.3185033"><ele></ele><time>2016-5-22T8:17:3Z</time></trkpt>
<trkpt lat="46.1800650" lon="7.3184900"><ele></ele><time>2016-5-22T8:17:6Z</time></trkpt>
<trkpt lat="46.1800433" lon="7.3184783"><ele></ele><time>2016-5-22T8:17:9Z</time></trkpt>
<trkpt lat="46.1800200" lon="7.3184700"><ele></ele><time>2016-5-22T8:17:12Z</time></trkpt>
<trkpt lat="46.1799967" lon="7.3184633"><ele></ele><time>2016-5-22T8:17:15Z</time></trkpt>
<trkpt lat="46.1799717" lon="7.3184633"><ele></ele><time>2016-5-22T8:17:18Z</time></trkpt>
<trkpt lat="46.1799450" lon="7.3184600"><ele></ele><time>2016-5-22T8:17:21Z</time></trkpt>
<trkpt lat="46.1799183" lon="7.3184567"><ele></ele><time>2016-5-22T8:17:24Z</time></trkpt>
<trkpt lat="46.1798917" lon="7.3184500"><ele></ele><time>2016-5-22T8:17:27Z</time></trkpt>
<trkpt lat="46.1798633" lon="7.3184450"><ele></ele><time>2016-5-22T8:17:30Z</time></trkpt>
<trkpt lat="46.1798333" lon="7.3184433"><ele></ele><time>2016-5-22T8:17:33Z</time></trkpt>
<trkpt lat="46.1798067" lon="7.3184450"><ele></ele><time>2016-5-22T8:17:36Z</time></trkpt>
<trkpt lat="46.1797800" lon="7.3184467"><ele></ele><time>2016-5-22T8:17:39Z</time></trkpt>
<trkpt lat="46.1797533" lon="7.3184483"><ele></ele><time>2016-5-22T8:17:42Z</time></trkpt>
<trkpt lat="46.1797283" lon="7.3184500"><ele></ele><time>2016-5-22T8:17:45Z</time></trkpt>
<trkpt lat="46.1797000" lon="7.3184533"><ele></ele><time>2016-5-22T8:17:48Z</time></trkpt>
<trkpt lat="46.1796717" lon="7.3184617"><ele></ele><time>2016-5-22T8:17:51Z</time></trkpt>
<trkpt lat="46.1796500" lon="7.3184650"><ele></ele><time>2016-5-22T8:17:54Z</time></trkpt>
<trkpt lat="46.1796283" lon="7.3184683"><ele></ele><time>2016-5-22T8:17:57Z</time></trkpt>
<trkpt lat="46.1796050" lon="7.3184733"><ele></ele><time>2016-5-22T8:18:0Z</time></trkpt>
<trkpt lat="46.1795817" lon="7.3184783"><ele></ele><time>2016-5-22T8:18:3Z</time></trkpt>
<trkpt lat="46.1795617" lon="7.3184800"><ele></ele><time>2016-5-22T8:18:6Z</time></trkpt>
<trkpt lat="46.1795417" lon="7.3184800"><ele></ele><time>2016-5-22T8:18:9Z</time></trkpt>
<trkpt lat="46.1795200" lon="7.3184800"><ele></ele><time>2016-5-22T8:18:12Z</time></trkpt>
<trkpt lat="46.1794967" lon="7.3184833"><ele></ele><time>2016-5-22T8:18:15Z</time></trkpt>
<trkpt lat="46.1794733" lon="7.3184883"><ele></ele><time>2016-5-22T8:18:18Z</time></trkpt>
<trkpt lat="46.1794500" lon="7.3184950"><ele></ele><time>2016-5-22T8:18:21Z</time></trkpt>
<trkpt lat="46.1794500" lon="7.3184950"><ele></ele><time>2016-5-22T8:18:24Z</time></trkpt>
<trkpt lat="46.1794283" lon="7.3185050"><ele></ele><time>2016-5-22T8:18:27Z</time></trkpt>
<trkpt lat="46.1794067" lon="7.3185083"><ele></ele><time>2016-5-22T8:18:30Z</time></trkpt>
<trkpt lat="46.1793817" lon="7.3185100"><ele></ele><time>2016-5-22T8:18:33Z</time></trkpt>
<trkpt lat="46.1793533" lon="7.3185150"><ele></ele><time>2016-5-22T8:18:36Z</time></trkpt>
<trkpt lat="46.1793233" lon="7.3185317"><ele></ele><time>2016-5-22T8:18:39Z</time></trkpt>
<trkpt lat="46.1792917" lon="7.3185550"><ele></ele><time>2016-5-22T8:18:42Z</time></trkpt>
<trkpt lat="46.1792600" lon="7.3185800"><ele></ele><time>2016-5-22T8:18:45Z</time></trkpt>
<trkpt lat="46.1792367" lon="7.3186033"><ele></ele><time>2016-5-22T8:18:48Z</time></trkpt>
<trkpt lat="46.1792133" lon="7.3186283"><ele></ele><time>2016-5-22T8:18:51Z</time></trkpt>
<trkpt lat="46.1791883" lon="7.3186483"><ele></ele><time>2016-5-22T8:18:54Z</time></trkpt>
<trkpt lat="46.1791667" lon="7.3186700"><ele></ele><time>2016-5-22T8:18:57Z</time></trkpt>
<trkpt lat="46.1791417" lon="7.3186900"><ele></ele><time>2016-5-22T8:19:0Z</time></trkpt>
<trkpt lat="46.1791417" lon="7.3186900"><ele></ele><time>2016-5-22T8:19:3Z</time></trkpt>
<trkpt lat="46.1791167" lon="7.3187083"><ele></ele><time>2016-5-22T8:19:6Z</time></trkpt>
<trkpt lat="46.1790950" lon="7.3187250"><ele></ele><time>2016-5-22T8:19:9Z</time></trkpt>
<trkpt lat="46.1790717" lon="7.3187417"><ele></ele><time>2016-5-22T8:19:12Z</time></trkpt>
<trkpt lat="46.1790483" lon="7.3187600"><ele></ele><time>2016-5-22T8:19:15Z</time></trkpt>
<trkpt lat="46.1790250" lon="7.3187783"><ele></ele><time>2016-5-22T8:19:18Z</time></trkpt>
<trkpt lat="46.1789983" lon="7.3187950"><ele></ele><time>2016-5-22T8:19:21Z</time></trkpt>
<trkpt lat="46.1789750" lon="7.3188117"><ele></ele><time>2016-5-22T8:19:24Z</time></trkpt>
<trkpt lat="46.1789500" lon="7.3188233"><ele></ele><time>2016-5-22T8:19:27Z</time></trkpt>
<trkpt lat="46.1789250" lon="7.3188317"><ele></ele><time>2016-5-22T8:19:30Z</time></trkpt>
<trkpt lat="46.1788917" lon="7.3188333"><ele></ele><time>2016-5-22T8:19:33Z</time></trkpt>
<trkpt lat="46.1788583" lon="7.3188317"><ele></ele><time>2016-5-22T8:19:36Z</time></trkpt>
<trkpt lat="46.1788250" lon="7.3188283"><ele></ele><time>2016-5-22T8:19:39Z</time></trkpt>
<trkpt lat="46.1788250" lon="7.3188283"><ele></ele><time>2016-5-22T8:19:42Z</time></trkpt>
<trkpt lat="46.1787917" lon="7.3188217"><ele></ele><time>2016-5-22T8:19:45Z</time></trkpt>
<trkpt lat="46.1787633" lon="7.3188167"><ele></ele><time>2016-5-22T8:19:48Z</time></trkpt>
<trkpt lat="46.1787383" lon="7.3188100"><ele></ele><time>2016-5-22T8:19:51Z</time></trkpt>
<trkpt lat="46.1787150" lon="7.3188033"><ele></ele><time>2016-5-22T8:19:54Z</time></trkpt>
<trkpt lat="46.1786917" lon="7.3187967"><ele></ele><time>2016-5-22T8:19:57Z</time></trkpt>
<trkpt lat="46.1786650" lon="7.3187933"><ele></ele><time>2016-5-22T8:20:0Z</time></trkpt>
<trkpt lat="46.1786383" lon="7.3187917"><ele></ele><time>2016-5-22T8:20:3Z</time></trkpt>
<trkpt lat="46.1786133" lon="7.3187867"><ele></ele><time>2016-5-22T8:20:6Z</time></trkpt>
<trkpt lat="46.1785900" lon="7.3187817"><ele></ele><time>2016-5-22T8:20:9Z</time></trkpt>
<trkpt lat="46.1785683" lon="7.3187783"><ele></ele><time>2016-5-22T8:20:12Z</time></trkpt>
<trkpt lat="46.1785467" lon="7.3187750"><ele></ele><time>2016-5-22T8:20:15Z</time></trkpt>
<trkpt lat="46.1785250" lon="7.3187750"><ele></ele><time>2016-5-22T8:20:18Z</time></trkpt>
<trkpt lat="46.1785250" lon="7.3187750"><ele></ele><time>2016-5-22T8:20:21Z</time></trkpt>
<trkpt lat="46.1785017" lon="7.3187767"><ele></ele><time>2016-5-22T8:20:24Z</time></trkpt>
<trkpt lat="46.1784817" lon="7.3187783"><ele></ele><time>2016-5-22T8:20:27Z</time></trkpt>
<trkpt lat="46.1784583" lon="7.3187833"><ele></ele><time>2016-5-22T8:20:30Z</time></trkpt>
<trkpt lat="46.1784417" lon="7.3187900"><ele></ele><time>2016-5-22T8:20:33Z</time></trkpt>
<trkpt lat="46.1784217" lon="7.3187967"><ele></ele><time>2016-5-22T8:20:36Z</time></trkpt>
<trkpt lat="46.1783983" lon="7.3188017"><ele></ele><time>2016-5-22T8:20:39Z</time></trkpt>
<trkpt lat="46.1783717" lon="7.3188100"><ele></ele><time>2016-5-22T8:20:42Z</time></trkpt>
<trkpt lat="46.1783400" lon="7.3188183"><ele></ele><time>2016-5-22T8:20:45Z</time></trkpt>
<trkpt lat="46.1783117" lon="7.3188217"><ele></ele><time>2016-5-22T8:20:48Z</time></trkpt>
<trkpt lat="46.1782867" lon="7.3188267"><ele></ele><time>2016-5-22T8:20:51Z</time></trkpt>
<trkpt lat="46.1782667" lon="7.3188317"><ele></ele><time>2016-5-22T8:20:54Z</time></trkpt>
<trkpt lat="46.1782433" lon="7.3188450"><ele></ele><time>2016-5-22T8:20:57Z</time></trkpt>
<trkpt lat="46.1782433" lon="7.3188450"><ele></ele><time>2016-5-22T8:21:0Z</time></trkpt>
<trkpt lat="46.1782200" lon="7.3188633"><ele></ele><time>2016-5-22T8:21:3Z</time></trkpt>
<trkpt lat="46.1781950" lon="7.3188817"><ele></ele><time>2016-5-22T8:21:6Z</time></trkpt>
<trkpt lat="46.1781700" lon="7.3189017"><ele></ele><time>2016-5-22T8:21:9Z</time></trkpt>
<trkpt lat="46.1781383" lon="7.3189183"><ele></ele><time>2016-5-22T8:21:12Z</time></trkpt>
<trkpt lat="46.1781050" lon="7.3189350"><ele></ele><time>2016-5-22T8:21:15Z</time></trkpt>
<trkpt lat="46.1780717" lon="7.3189500"><ele></ele><time>2016-5-22T8:21:18Z</time></trkpt>
<trkpt lat="46.1780383" lon="7.3189650"><ele></ele><time>2016-5-22T8:21:21Z</time></trkpt>
<trkpt lat="46.1780050" lon="7.3189817"><ele></ele><time>2016-5-22T8:21:24Z</time></trkpt>
<trkpt lat="46.1779750" lon="7.3189983"><ele></ele><time>2016-5-22T8:21:27Z</time></trkpt>
<trkpt lat="46.1779450" lon="7.3190100"><ele></ele><time>2016-5-22T8:21:30Z</time></trkpt>
<trkpt lat="46.1779133" lon="7.3190183"><ele></ele><time>2016-5-22T8:21:33Z</time></trkpt>
<trkpt lat="46.1778783" lon="7.3190283"><ele></ele><time>2016-5-22T8:21:36Z</time></trkpt>
<trkpt lat="46.1778783" lon="7.3190283"><ele></ele><time>2016-5-22T8:21:39Z</time></trkpt>
<trkpt lat="46.1778433" lon="7.3190367"><ele></ele><time>2016-5-22T8:21:42Z</time></trkpt>
<trkpt lat="46.1778067" lon="7.3190450"><ele></ele><time>2016-5-22T8:21:45Z</time></trkpt>
<trkpt lat="46.1777700" lon="7.3190533"><ele></ele><time>2016-5-22T8:21:48Z</time></trkpt>
<trkpt lat="46.1777350" lon="7.3190617"><ele></ele><time>2016-5-22T8:21:51Z</time></trkpt>
<trkpt lat="46.1777000" lon="7.3190683"><ele></ele><time>2016-5-22T8:21:54Z</time></trkpt>
<trkpt lat="46.1776650" lon="7.3190767"><ele></ele><time>2016-5-22T8:21:57Z</time></trkpt>
<trkpt lat="46.1776300" lon="7.3190833"><ele></ele><time>2016-5-22T8:22:0Z</time></trkpt>
<trkpt lat="46.1775950" lon="7.3190883"><ele></ele><time>2016-5-22T8:22:3Z</time></trkpt>
<trkpt lat="46.1775600" lon="7.3190900"><ele></ele><time>2016-5-22T8:22:6Z</time></trkpt>
<trkpt lat="46.1775233" lon="7.3190883"><ele></ele><time>2016-5-22T8:22:9Z</time></trkpt>
<trkpt lat="46.1774883" lon="7.3190850"><ele></ele><time>2016-5-22T8:22:12Z</time></trkpt>
<trkpt lat="46.1774550" lon="7.3190783"><ele></ele><time>2016-5-22T8:22:15Z</time></trkpt>
<trkpt lat="46.1774550" lon="7.3190783"><ele></ele><time>2016-5-22T8:22:18Z</time></trkpt>
<trkpt lat="46.1774200" lon="7.3190717"><ele></ele><time>2016-5-22T8:22:21Z</time></trkpt>
<trkpt lat="46.1773867" lon="7.3190667"><ele></ele><time>2016-5-22T8:22:24Z</time></trkpt>
<trkpt lat="46.1773567" lon="7.3190633"><ele></ele><time>2016-5-22T8:22:27Z</time></trkpt>
<trkpt lat="46.1773267" lon="7.3190567"><ele></ele><time>2016-5-22T8:22:30Z</time></trkpt>
<trkpt lat="46.1772950" lon="7.3190467"><ele></ele><time>2016-5-22T8:22:33Z</time></trkpt>
<trkpt lat="46.1772633" lon="7.3190383"><ele></ele><time>2016-5-22T8:22:36Z</time></trkpt>
<trkpt lat="46.1772317" lon="7.3190333"><ele></ele><time>2016-5-22T8:22:39Z</time></trkpt>
<trkpt lat="46.1772000" lon="7.3190317"><ele></ele><time>2016-5-22T8:22:42Z</time></trkpt>
<trkpt lat="46.1771617" lon="7.3190300"><ele></ele><time>2016-5-22T8:22:45Z</time></trkpt>
<trkpt lat="46.1771200" lon="7.3190250"><ele></ele><time>2016-5-22T8:22:48Z</time></trkpt>
<trkpt lat="46.1770817" lon="7.3190233"><ele></ele><time>2016-5-22T8:22:51Z</time></trkpt>
<trkpt lat="46.1770483" lon="7.3190117"><ele></ele><time>2016-5-22T8:22:54Z</time></trkpt>
<trkpt lat="46.1770483" lon="7.3190117"><ele></ele><time>2016-5-22T8:22:57Z</time></trkpt>
<trkpt lat="46.1770183" lon="7.3189983"><ele></ele><time>2016-5-22T8:23:0Z</time></trkpt>
<trkpt lat="46.1769883" lon="7.3189850"><ele></ele><time>2016-5-22T8:23:3Z</time></trkpt>
<trkpt lat="46.1769583" lon="7.3189733"><ele></ele><time>2016-5-22T8:23:6Z</time></trkpt>
<trkpt lat="46.1769233" lon="7.3189667"><ele></ele><time>2016-5-22T8:23:9Z</time></trkpt>
<trkpt lat="46.1768883" lon="7.3189633"><ele></ele><time>2016-5-22T8:23:12Z</time></trkpt>
<trkpt lat="46.1768550" lon="7.3189567"><ele></ele><time>2016-5-22T8:23:15Z</time></trkpt>
<trkpt lat="46.1768217" lon="7.3189500"><ele></ele><time>2016-5-22T8:23:18Z</time></trkpt>
<trkpt lat="46.1767867" lon="7.3189367"><ele></ele><time>2016-5-22T8:23:21Z</time></trkpt>
<trkpt lat="46.1767567" lon="7.3189267"><ele></ele><time>2016-5-22T8:23:24Z</time></trkpt>
<trkpt lat="46.1767233" lon="7.3189167"><ele></ele><time>2016-5-22T8:23:27Z</time></trkpt>
<trkpt lat="46.1766867" lon="7.3189033"><ele></ele><time>2016-5-22T8:23:30Z</time></trkpt>
<trkpt lat="46.1766500" lon="7.3188917"><ele></ele><time>2016-5-22T8:23:33Z</time></trkpt>
<trkpt lat="46.1766500" lon="7.3188917"><ele></ele><time>2016-5-22T8:23:36Z</time></trkpt>
<trkpt lat="46.1766200" lon="7.3188750"><ele></ele><time>2016-5-22T8:23:39Z</time></trkpt>
<trkpt lat="46.1765933" lon="7.3188650"><ele></ele><time>2016-5-22T8:23:42Z</time></trkpt>
<trkpt lat="46.1765683" lon="7.3188583"><ele></ele><time>2016-5-22T8:23:45Z</time></trkpt>
<trkpt lat="46.1765450" lon="7.3188533"><ele></ele><time>2016-5-22T8:23:48Z</time></trkpt>
<trkpt lat="46.1765183" lon="7.3188533"><ele></ele><time>2016-5-22T8:23:51Z</time></trkpt>
<trkpt lat="46.1764850" lon="7.3188500"><ele></ele><time>2016-5-22T8:23:54Z</time></trkpt>
<trkpt lat="46.1764550" lon="7.3188533"><ele></ele><time>2016-5-22T8:23:57Z</time></trkpt>
<trkpt lat="46.1764250" lon="7.3188583"><ele></ele><time>2016-5-22T8:24:0Z</time></trkpt>
<trkpt lat="46.1763933" lon="7.3188733"><ele></ele><time>2016-5-22T8:24:3Z</time></trkpt>
<trkpt lat="46.1763600" lon="7.3189000"><ele></ele><time>2016-5-22T8:24:6Z</time></trkpt>
<trkpt lat="46.1763300" lon="7.3189317"><ele></ele><time>2016-5-22T8:24:9Z</time></trkpt>
<trkpt lat="46.1763033" lon="7.3189667"><ele></ele><time>2016-5-22T8:24:12Z</time></trkpt>
<trkpt lat="46.1763033" lon="7.3189667"><ele></ele><time>2016-5-22T8:24:15Z</time></trkpt>
<trkpt lat="46.1762800" lon="7.3190033"><ele></ele><time>2016-5-22T8:24:18Z</time></trkpt>
<trkpt lat="46.1762617" lon="7.3190417"><ele></ele><time>2016-5-22T8:24:21Z</time></trkpt>
<trkpt lat="46.1762450" lon="7.3190833"><ele></ele><time>2016-5-22T8:24:24Z</time></trkpt>
<trkpt lat="46.1762300" lon="7.3191267"><ele></ele><time>2016-5-22T8:24:27Z</time></trkpt>
<trkpt lat="46.1762150" lon="7.3191750"><ele></ele><time>2016-5-22T8:24:30Z</time></trkpt>
<trkpt lat="46.1761983" lon="7.3192233"><ele></ele><time>2016-5-22T8:24:33Z</time></trkpt>
<trkpt lat="46.1761850" lon="7.3192700"><ele></ele><time>2016-5-22T8:24:36Z</time></trkpt>
<trkpt lat="46.1761700" lon="7.3193150"><ele></ele><time>2016-5-22T8:24:39Z</time></trkpt>
<trkpt lat="46.1761533" lon="7.3193600"><ele></ele><time>2016-5-22T8:24:42Z</time></trkpt>
<trkpt lat="46.1761333" lon="7.3194017"><ele></ele><time>2016-5-22T8:24:45Z</time></trkpt>
<trkpt lat="46.1761117" lon="7.3194417"><ele></ele><time>2016-5-22T8:24:48Z</time></trkpt>
<trkpt lat="46.1760850" lon="7.3194800"><ele></ele><time>2016-5-22T8:24:51Z</time></trkpt>
<trkpt lat="46.1760850" lon="7.3194800"><ele></ele><time>2016-5-22T8:24:54Z</time></trkpt>
<trkpt lat="46.1760567" lon="7.3195117"><ele></ele><time>2016-5-22T8:24:57Z</time></trkpt>
<trkpt lat="46.1760283" lon="7.3195367"><ele></ele><time>2016-5-22T8:25:0Z</time></trkpt>
<trkpt lat="46.1760017" lon="7.3195500"><ele></ele><time>2016-5-22T8:25:3Z</time></trkpt>
<trkpt lat="46.1759783" lon="7.3195533"><ele></ele><time>2016-5-22T8:25:6Z</time></trkpt>
<trkpt lat="46.1759583" lon="7.3195500"><ele></ele><time>2016-5-22T8:25:9Z</time></trkpt>
<trkpt lat="46.1759400" lon="7.3195417"><ele></ele><time>2016-5-22T8:25:12Z</time></trkpt>
<trkpt lat="46.1759250" lon="7.3195350"><ele></ele><time>2016-5-22T8:25:15Z</time></trkpt>
<trkpt lat="46.1759117" lon="7.3195283"><ele></ele><time>2016-5-22T8:25:18Z</time></trkpt>
<trkpt lat="46.1759000" lon="7.3195217"><ele></ele><time>2016-5-22T8:25:21Z</time></trkpt>
<trkpt lat="46.1758850" lon="7.3195133"><ele></ele><time>2016-5-22T8:25:24Z</time></trkpt>
<trkpt lat="46.1758683" lon="7.3195067"><ele></ele><time>2016-5-22T8:25:27Z</time></trkpt>
<trkpt lat="46.1758550" lon="7.3195000"><ele></ele><time>2016-5-22T8:25:30Z</time></trkpt>
<trkpt lat="46.1758550" lon="7.3195000"><ele></ele><time>2016-5-22T8:25:33Z</time></trkpt>
<trkpt lat="46.1758400" lon="7.3194933"><ele></ele><time>2016-5-22T8:25:36Z</time></trkpt>
<trkpt lat="46.1758267" lon="7.3194850"><ele></ele><time>2016-5-22T8:25:39Z</time></trkpt>
<trkpt lat="46.1758150" lon="7.3194783"><ele></ele><time>2016-5-22T8:25:42Z</time></trkpt>
<trkpt lat="46.1758083" lon="7.3194750"><ele></ele><time>2016-5-22T8:25:45Z</time></trkpt>
<trkpt lat="46.1758017" lon="7.3194667"><ele></ele><time>2016-5-22T8:25:48Z</time></trkpt>
<trkpt lat="46.1757883" lon="7.3194583"><ele></ele><time>2016-5-22T8:25:51Z</time></trkpt>
<trkpt lat="46.1757750" lon="7.3194467"><ele></ele><time>2016-5-22T8:25:54Z</time></trkpt>
<trkpt lat="46.1757600" lon="7.3194350"><ele></ele><time>2016-5-22T8:25:57Z</time></trkpt>
<trkpt lat="46.1757450" lon="7.3194233"><ele></ele><time>2016-5-22T8:26:0Z</time></trkpt>
<trkpt lat="46.1757283" lon="7.3194133"><ele></ele><time>2016-5-22T8:26:3Z</time></trkpt>
<trkpt lat="46.1757183" lon="7.3194067"><ele></ele><time>2016-5-22T8:26:6Z</time></trkpt>
<trkpt lat="46.1757083" lon="7.3194000"><ele></ele><time>2016-5-22T8:26:9Z</time></trkpt>
<trkpt lat="46.1757083" lon="7.3194000"><ele></ele><time>2016-5-22T8:26:12Z</time></trkpt>
<trkpt lat="46.1756950" lon="7.3193900"><ele></ele><time>2016-5-22T8:26:15Z</time></trkpt>
<trkpt lat="46.1756800" lon="7.3193800"><ele></ele><time>2016-5-22T8:26:18Z</time></trkpt>
<trkpt lat="46.1756650" lon="7.3193700"><ele></ele><time>2016-5-22T8:26:21Z</time></trkpt>
<trkpt lat="46.1756517" lon="7.3193567"><ele></ele><time>2016-5-22T8:26:24Z</time></trkpt>
<trkpt lat="46.1756317" lon="7.3193433"><ele></ele><time>2016-5-22T8:26:27Z</time></trkpt>
<trkpt lat="46.1756150" lon="7.3193283"><ele></ele><time>2016-5-22T8:26:30Z</time></trkpt>
<trkpt lat="46.1755983" lon="7.3193150"><ele></ele><time>2016-5-22T8:26:33Z</time></trkpt>
<trkpt lat="46.1755833" lon="7.3193017"><ele></ele><time>2016-5-22T8:26:36Z</time></trkpt>
<trkpt lat="46.1755667" lon="7.3192883"><ele></ele><time>2016-5-22T8:26:39Z</time></trkpt>
<trkpt lat="46.1755500" lon="7.3192767"><ele></ele><time>2016-5-22T8:26:42Z</time></trkpt>
<trkpt lat="46.1755333" lon="7.3192667"><ele></ele><time>2016-5-22T8:26:45Z</time></trkpt>
<trkpt lat="46.1755183" lon="7.3192550"><ele></ele><time>2016-5-22T8:26:48Z</time></trkpt>
<trkpt lat="46.1755183" lon="7.3192550"><ele></ele><time>2016-5-22T8:26:51Z</time></trkpt>
<trkpt lat="46.1755067" lon="7.3192433"><ele></ele><time>2016-5-22T8:26:54Z</time></trkpt>
<trkpt lat="46.1755067" lon="7.3192350"><ele></ele><time>2016-5-22T8:26:57Z</time></trkpt>
<trkpt lat="46.1755033" lon="7.3192200"><ele></ele><time>2016-5-22T8:27:0Z</time></trkpt>
<trkpt lat="46.1754933" lon="7.3192000"><ele></ele><time>2016-5-22T8:27:3Z</time></trkpt>
<trkpt lat="46.1754817" lon="7.3191800"><ele></ele><time>2016-5-22T8:27:6Z</time></trkpt>
<trkpt lat="46.1754700" lon="7.3191633"><ele></ele><time>2016-5-22T8:27:9Z</time></trkpt>
<trkpt lat="46.1754550" lon="7.3191500"><ele></ele><time>2016-5-22T8:27:12Z</time></trkpt>
<trkpt lat="46.1754417" lon="7.3191383"><ele></ele><time>2016-5-22T8:27:15Z</time></trkpt>
<trkpt lat="46.1754267" lon="7.3191250"><ele></ele><time>2016-5-22T8:27:18Z</time></trkpt>
<trkpt lat="46.1754133" lon="7.3191100"><ele></ele><time>2016-5-22T8:27:21Z</time></trkpt>
<trkpt lat="46.1754000" lon="7.3190967"><ele></ele><time>2016-5-22T8:27:24Z</time></trkpt>
<trkpt lat="46.1753833" lon="7.3190850"><ele></ele><time>2016-5-22T8:27:27Z</time></trkpt>
<trkpt lat="46.1753833" lon="7.3190850"><ele></ele><time>2016-5-22T8:27:30Z</time></trkpt>
<trkpt lat="46.1753667" lon="7.3190733"><ele></ele><time>2016-5-22T8:27:33Z</time></trkpt>
<trkpt lat="46.1753483" lon="7.3190617"><ele></ele><time>2016-5-22T8:27:36Z</time></trkpt>
<trkpt lat="46.1753317" lon="7.3190517"><ele></ele><time>2016-5-22T8:27:39Z</time></trkpt>
<trkpt lat="46.1753167" lon="7.3190400"><ele></ele><time>2016-5-22T8:27:42Z</time></trkpt>
<trkpt lat="46.1753000" lon="7.3190267"><ele></ele><time>2016-5-22T8:27:45Z</time></trkpt>
<trkpt lat="46.1752817" lon="7.3190150"><ele></ele><time>2016-5-22T8:27:48Z</time></trkpt>
<trkpt lat="46.1752633" lon="7.3190033"><ele></ele><time>2016-5-22T8:27:51Z</time></trkpt>
<trkpt lat="46.1752433" lon="7.3189933"><ele></ele><time>2016-5-22T8:27:54Z</time></trkpt>
<trkpt lat="46.1752233" lon="7.3189833"><ele></ele><time>2016-5-22T8:27:57Z</time></trkpt>
<trkpt lat="46.1752017" lon="7.3189733"><ele></ele><time>2016-5-22T8:28:0Z</time></trkpt>
<trkpt lat="46.1751817" lon="7.3189633"><ele></ele><time>2016-5-22T8:28:3Z</time></trkpt>
<trkpt lat="46.1751633" lon="7.3189550"><ele></ele><time>2016-5-22T8:28:6Z</time></trkpt>
<trkpt lat="46.1751633" lon="7.3189550"><ele></ele><time>2016-5-22T8:28:9Z</time></trkpt>
<trkpt lat="46.1751400" lon="7.3189467"><ele></ele><time>2016-5-22T8:28:12Z</time></trkpt>
<trkpt lat="46.1751133" lon="7.3189333"><ele></ele><time>2016-5-22T8:28:15Z</time></trkpt>
<trkpt lat="46.1750833" lon="7.3189250"><ele></ele><time>2016-5-22T8:28:18Z</time></trkpt>
<trkpt lat="46.1750500" lon="7.3189200"><ele></ele><time>2016-5-22T8:28:21Z</time></trkpt>
<trkpt lat="46.1750133" lon="7.3189183"><ele></ele><time>2016-5-22T8:28:24Z</time></trkpt>
<trkpt lat="46.1749783" lon="7.3189167"><ele></ele><time>2016-5-22T8:28:27Z</time></trkpt>
<trkpt lat="46.1749417" lon="7.3189183"><ele></ele><time>2016-5-22T8:28:30Z</time></trkpt>
<trkpt lat="46.1749067" lon="7.3189217"><ele></ele><time>2016-5-22T8:28:33Z</time></trkpt>
<trkpt lat="46.1748717" lon="7.3189250"><ele></ele><time>2016-5-22T8:28:36Z</time></trkpt>
<trkpt lat="46.1748383" lon="7.3189300"><ele></ele><time>2016-5-22T8:28:39Z</time></trkpt>
<trkpt lat="46.1748033" lon="7.3189350"><ele></ele><time>2016-5-22T8:28:42Z</time></trkpt>
<trkpt lat="46.1747667" lon="7.3189417"><ele></ele><time>2016-5-22T8:28:45Z</time></trkpt>
<trkpt lat="46.1747667" lon="7.3189417"><ele></ele><time>2016-5-22T8:28:48Z</time></trkpt>
<trkpt lat="46.1747350" lon="7.3189433"><ele></ele><time>2016-5-22T8:28:51Z</time></trkpt>
<trkpt lat="46.1747000" lon="7.3189400"><ele></ele><time>2016-5-22T8:28:54Z</time></trkpt>
<trkpt lat="46.1746650" lon="7.3189317"><ele></ele><time>2016-5-22T8:28:57Z</time></trkpt>
<trkpt lat="46.1746317" lon="7.3189183"><ele></ele><time>2016-5-22T8:29:0Z</time></trkpt>
<trkpt lat="46.1746017" lon="7.3188983"><ele></ele><time>2016-5-22T8:29:3Z</time></trkpt>
<trkpt lat="46.1745783" lon="7.3188733"><ele></ele><time>2016-5-22T8:29:6Z</time></trkpt>
<trkpt lat="46.1745567" lon="7.3188483"><ele></ele><time>2016-5-22T8:29:9Z</time></trkpt>
<trkpt lat="46.1745417" lon="7.3188233"><ele></ele><time>2016-5-22T8:29:12Z</time></trkpt>
<trkpt lat="46.1745267" lon="7.3188033"><ele></ele><time>2016-5-22T8:29:15Z</time></trkpt>
<trkpt lat="46.1745100" lon="7.3187850"><ele></ele><time>2016-5-22T8:29:18Z</time></trkpt>
<trkpt lat="46.1744933" lon="7.3187700"><ele></ele><time>2016-5-22T8:29:21Z</time></trkpt>
<trkpt lat="46.1744783" lon="7.3187600"><ele></ele><time>2016-5-22T8:29:24Z</time></trkpt>
<trkpt lat="46.1744783" lon="7.3187600"><ele></ele><time>2016-5-22T8:29:27Z</time></trkpt>
<trkpt lat="46.1744650" lon="7.3187517"><ele></ele><time>2016-5-22T8:29:30Z</time></trkpt>
<trkpt lat="46.1744483" lon="7.3187467"><ele></ele><time>2016-5-22T8:29:33Z</time></trkpt>
<trkpt lat="46.1744283" lon="7.3187400"><ele></ele><time>2016-5-22T8:29:36Z</time></trkpt>
<trkpt lat="46.1744067" lon="7.3187317"><ele></ele><time>2016-5-22T8:29:39Z</time></trkpt>
<trkpt lat="46.1743883" lon="7.3187233"><ele></ele><time>2016-5-22T8:29:42Z</time></trkpt>
<trkpt lat="46.1743783" lon="7.3187167"><ele></ele><time>2016-5-22T8:29:45Z</time></trkpt>
<trkpt lat="46.1743683" lon="7.3187100"><ele></ele><time>2016-5-22T8:29:48Z</time></trkpt>
<trkpt lat="46.1743617" lon="7.3187100"><ele></ele><time>2016-5-22T8:29:51Z</time></trkpt>
<trkpt lat="46.1743517" lon="7.3187117"><ele></ele><time>2016-5-22T8:29:54Z</time></trkpt>
<trkpt lat="46.1743417" lon="7.3187183"><ele></ele><time>2016-5-22T8:29:57Z</time></trkpt>
<trkpt lat="46.1743333" lon="7.3187233"><ele></ele><time>2016-5-22T8:30:0Z</time></trkpt>
<trkpt lat="46.1743250" lon="7.3187267"><ele></ele><time>2016-5-22T8:30:3Z</time></trkpt>
<trkpt lat="46.1743250" lon="7.3187267"><ele></ele><time>2016-5-22T8:30:6Z</time></trkpt>
<trkpt lat="46.1743167" lon="7.3187300"><ele></ele><time>2016-5-22T8:30:9Z</time></trkpt>
<trkpt lat="46.1743083" lon="7.3187300"><ele></ele><time>2016-5-22T8:30:12Z</time></trkpt>
<trkpt lat="46.1743017" lon="7.3187267"><ele></ele><time>2016-5-22T8:30:15Z</time></trkpt>
<trkpt lat="46.1742933" lon="7.3187250"><ele></ele><time>2016-5-22T8:30:18Z</time></trkpt>
<trkpt lat="46.1742817" lon="7.3187183"><ele></ele><time>2016-5-22T8:30:21Z</time></trkpt>
<trkpt lat="46.1742650" lon="7.3187133"><ele></ele><time>2016-5-22T8:30:24Z</time></trkpt>
<trkpt lat="46.1742483" lon="7.3187083"><ele></ele><time>2016-5-22T8:30:27Z</time></trkpt>
<trkpt lat="46.1742300" lon="7.3187050"><ele></ele><time>2016-5-22T8:30:30Z</time></trkpt>
<trkpt lat="46.1742117" lon="7.3187050"><ele></ele><time>2016-5-22T8:30:33Z</time></trkpt>
<trkpt lat="46.1741933" lon="7.3187050"><ele></ele><time>2016-5-22T8:30:36Z</time></trkpt>
<trkpt lat="46.1741750" lon="7.3187150"><ele></ele><time>2016-5-22T8:30:39Z</time></trkpt>
<trkpt lat="46.1741600" lon="7.3187250"><ele></ele><time>2016-5-22T8:30:42Z</time></trkpt>
<trkpt lat="46.1741600" lon="7.3187250"><ele></ele><time>2016-5-22T8:30:45Z</time></trkpt>
<trkpt lat="46.1741467" lon="7.3187367"><ele></ele><time>2016-5-22T8:30:48Z</time></trkpt>
<trkpt lat="46.1741400" lon="7.3187433"><ele></ele><time>2016-5-22T8:30:51Z</time></trkpt>
<trkpt lat="46.1741317" lon="7.3187467"><ele></ele><time>2016-5-22T8:30:54Z</time></trkpt>
<trkpt lat="46.1741233" lon="7.3187567"><ele></ele><time>2016-5-22T8:30:57Z</time></trkpt>
<trkpt lat="46.1741083" lon="7.3187667"><ele></ele><time>2016-5-22T8:31:0Z</time></trkpt>
<trkpt lat="46.1740967" lon="7.3187700"><ele></ele><time>2016-5-22T8:31:3Z</time></trkpt>
<trkpt lat="46.1740767" lon="7.3187783"><ele></ele><time>2016-5-22T8:31:6Z</time></trkpt>
<trkpt lat="46.1740533" lon="7.3187917"><ele></ele><time>2016-5-22T8:31:9Z</time></trkpt>
<trkpt lat="46.1740333" lon="7.3188000"><ele></ele><time>2016-5-22T8:31:12Z</time></trkpt>
<trkpt lat="46.1740133" lon="7.3188050"><ele></ele><time>2016-5-22T8:31:15Z</time></trkpt>
<trkpt lat="46.1739900" lon="7.3188083"><ele></ele><time>2016-5-22T8:31:18Z</time></trkpt>
<trkpt lat="46.1739700" lon="7.3188067"><ele></ele><time>2016-5-22T8:31:21Z</time></trkpt>
<trkpt lat="46.1739700" lon="7.3188067"><ele></ele><time>2016-5-22T8:31:24Z</time></trkpt>
<trkpt lat="46.1739483" lon="7.3188033"><ele></ele><time>2016-5-22T8:31:27Z</time></trkpt>
<trkpt lat="46.1739317" lon="7.3187967"><ele></ele><time>2016-5-22T8:31:30Z</time></trkpt>
<trkpt lat="46.1739150" lon="7.3187917"><ele></ele><time>2016-5-22T8:31:33Z</time></trkpt>
<trkpt lat="46.1738983" lon="7.3187867"><ele></ele><time>2016-5-22T8:31:36Z</time></trkpt>
<trkpt lat="46.1738817" lon="7.3187817"><ele></ele><time>2016-5-22T8:31:39Z</time></trkpt>
<trkpt lat="46.1738633" lon="7.3187800"><ele></ele><time>2016-5-22T8:31:42Z</time></trkpt>
<trkpt lat="46.1738467" lon="7.3187783"><ele></ele><time>2016-5-22T8:31:45Z</time></trkpt>
<trkpt lat="46.1738300" lon="7.3187767"><ele></ele><time>2016-5-22T8:31:48Z</time></trkpt>
<trkpt lat="46.1738133" lon="7.3187733"><ele></ele><time>2016-5-22T8:31:51Z</time></trkpt>
<trkpt lat="46.1737983" lon="7.3187717"><ele></ele><time>2016-5-22T8:31:54Z</time></trkpt>
<trkpt lat="46.1737817" lon="7.3187683"><ele></ele><time>2016-5-22T8:31:57Z</time></trkpt>
<trkpt lat="46.1737617" lon="7.3187633"><ele></ele><time>2016-5-22T8:32:0Z</time></trkpt>
<trkpt lat="46.1737617" lon="7.3187633"><ele></ele><time>2016-5-22T8:32:3Z</time></trkpt>
<trkpt lat="46.1737433" lon="7.3187550"><ele></ele><time>2016-5-22T8:32:6Z</time></trkpt>
<trkpt lat="46.1737283" lon="7.3187433"><ele></ele><time>2016-5-22T8:32:9Z</time></trkpt>
<trkpt lat="46.1737183" lon="7.3187300"><ele></ele><time>2016-5-22T8:32:12Z</time></trkpt>
<trkpt lat="46.1737100" lon="7.3187150"><ele></ele><time>2016-5-22T8:32:15Z</time></trkpt>
<trkpt lat="46.1736967" lon="7.3187033"><ele></ele><time>2016-5-22T8:32:18Z</time></trkpt>
<trkpt lat="46.1736867" lon="7.3186917"><ele></ele><time>2016-5-22T8:32:21Z</time></trkpt>
<trkpt lat="46.1736750" lon="7.3186783"><ele></ele><time>2016-5-22T8:32:24Z</time></trkpt>
<trkpt lat="46.1736633" lon="7.3186650"><ele></ele><time>2016-5-22T8:32:27Z</time></trkpt>
<trkpt lat="46.1736517" lon="7.3186483"><ele></ele><time>2016-5-22T8:32:30Z</time></trkpt>
<trkpt lat="46.1736417" lon="7.3186300"><ele></ele><time>2016-5-22T8:32:33Z</time></trkpt>
<trkpt lat="46.1736333" lon="7.3186117"><ele></ele><time>2016-5-22T8:32:36Z</time></trkpt>
<trkpt lat="46.1736217" lon="7.3185933"><ele></ele><time>2016-5-22T8:32:39Z</time></trkpt>
<trkpt lat="46.1736217" lon="7.3185933"><ele></ele><time>2016-5-22T8:32:42Z</time></trkpt>
<trkpt lat="46.1736083" lon="7.3185733"><ele></ele><time>2016-5-22T8:32:45Z</time></trkpt>
<trkpt lat="46.1735950" lon="7.3185617"><ele></ele><time>2016-5-22T8:32:48Z</time></trkpt>
<trkpt lat="46.1735833" lon="7.3185517"><ele></ele><time>2016-5-22T8:32:51Z</time></trkpt>
<trkpt lat="46.1735700" lon="7.3185450"><ele></ele><time>2016-5-22T8:32:54Z</time></trkpt>
<trkpt lat="46.1735550" lon="7.3185333"><ele></ele><time>2016-5-22T8:32:57Z</time></trkpt>
<trkpt lat="46.1735400" lon="7.3185200"><ele></ele><time>2016-5-22T8:33:0Z</time></trkpt>
<trkpt lat="46.1735250" lon="7.3185050"><ele></ele><time>2016-5-22T8:33:3Z</time></trkpt>
<trkpt lat="46.1735150" lon="7.3184900"><ele></ele><time>2016-5-22T8:33:6Z</time></trkpt>
<trkpt lat="46.1735100" lon="7.3184733"><ele></ele><time>2016-5-22T8:33:9Z</time></trkpt>
<trkpt lat="46.1735017" lon="7.3184517"><ele></ele><time>2016-5-22T8:33:12Z</time></trkpt>
<trkpt lat="46.1734917" lon="7.3184317"><ele></ele><time>2016-5-22T8:33:15Z</time></trkpt>
<trkpt lat="46.1734783" lon="7.3184167"><ele></ele><time>2016-5-22T8:33:18Z</time></trkpt>
<trkpt lat="46.1734783" lon="7.3184167"><ele></ele><time>2016-5-22T8:33:21Z</time></trkpt>
<trkpt lat="46.1734683" lon="7.3184017"><ele></ele><time>2016-5-22T8:33:24Z</time></trkpt>
<trkpt lat="46.1734600" lon="7.3183867"><ele></ele><time>2016-5-22T8:33:27Z</time></trkpt>
<trkpt lat="46.1734533" lon="7.3183700"><ele></ele><time>2016-5-22T8:33:30Z</time></trkpt>
<trkpt lat="46.1734433" lon="7.3183617"><ele></ele><time>2016-5-22T8:33:33Z</time></trkpt>
<trkpt lat="46.1734283" lon="7.3183617"><ele></ele><time>2016-5-22T8:33:36Z</time></trkpt>
<trkpt lat="46.1734067" lon="7.3183650"><ele></ele><time>2016-5-22T8:33:39Z</time></trkpt>
<trkpt lat="46.1733850" lon="7.3183617"><ele></ele><time>2016-5-22T8:33:42Z</time></trkpt>
<trkpt lat="46.1733633" lon="7.3183517"><ele></ele><time>2016-5-22T8:33:45Z</time></trkpt>
<trkpt lat="46.1733433" lon="7.3183367"><ele></ele><time>2016-5-22T8:33:48Z</time></trkpt>
<trkpt lat="46.1733217" lon="7.3183217"><ele></ele><time>2016-5-22T8:33:51Z</time></trkpt>
<trkpt lat="46.1733000" lon="7.3183100"><ele></ele><time>2016-5-22T8:33:54Z</time></trkpt>
<trkpt lat="46.1732767" lon="7.3182967"><ele></ele><time>2016-5-22T8:33:57Z</time></trkpt>
<trkpt lat="46.1732767" lon="7.3182967"><ele></ele><time>2016-5-22T8:34:0Z</time></trkpt>
<trkpt lat="46.1732550" lon="7.3182867"><ele></ele><time>2016-5-22T8:34:3Z</time></trkpt>
<trkpt lat="46.1732350" lon="7.3182783"><ele></ele><time>2016-5-22T8:34:6Z</time></trkpt>
<trkpt lat="46.1732133" lon="7.3182700"><ele></ele><time>2016-5-22T8:34:9Z</time></trkpt>
<trkpt lat="46.1731917" lon="7.3182633"><ele></ele><time>2016-5-22T8:34:12Z</time></trkpt>
<trkpt lat="46.1731700" lon="7.3182600"><ele></ele><time>2016-5-22T8:34:15Z</time></trkpt>
<trkpt lat="46.1731483" lon="7.3182550"><ele></ele><time>2016-5-22T8:34:18Z</time></trkpt>
<trkpt lat="46.1731283" lon="7.3182500"><ele></ele><time>2016-5-22T8:34:21Z</time></trkpt>
<trkpt lat="46.1731117" lon="7.3182483"><ele></ele><time>2016-5-22T8:34:24Z</time></trkpt>
<trkpt lat="46.1730917" lon="7.3182483"><ele></ele><time>2016-5-22T8:34:27Z</time></trkpt>
<trkpt lat="46.1730717" lon="7.3182450"><ele></ele><time>2016-5-22T8:34:30Z</time></trkpt>
<trkpt lat="46.1730517" lon="7.3182383"><ele></ele><time>2016-5-22T8:34:33Z</time></trkpt>
<trkpt lat="46.1730333" lon="7.3182267"><ele></ele><time>2016-5-22T8:34:36Z</time></trkpt>
<trkpt lat="46.1730333" lon="7.3182267"><ele></ele><time>2016-5-22T8:34:39Z</time></trkpt>
<trkpt lat="46.1730133" lon="7.3182133"><ele></ele><time>2016-5-22T8:34:42Z</time></trkpt>
<trkpt lat="46.1729933" lon="7.3182033"><ele></ele><time>2016-5-22T8:34:45Z</time></trkpt>
<trkpt lat="46.1729733" lon="7.3181950"><ele></ele><time>2016-5-22T8:34:48Z</time></trkpt>
<trkpt lat="46.1729533" lon="7.3181867"><ele></ele><time>2016-5-22T8:34:51Z</time></trkpt>
<trkpt lat="46.1729350" lon="7.3181767"><ele></ele><time>2016-5-22T8:34:54Z</time></trkpt>
<trkpt lat="46.1729150" lon="7.3181633"><ele></ele><time>2016-5-22T8:34:57Z</time></trkpt>
<trkpt lat="46.1728983" lon="7.3181483"><ele></ele><time>2016-5-22T8:35:0Z</time></trkpt>
<trkpt lat="46.1728783" lon="7.3181300"><ele></ele><time>2016-5-22T8:35:3Z</time></trkpt>
<trkpt lat="46.1728550" lon="7.3181167"><ele></ele><time>2016-5-22T8:35:6Z</time></trkpt>
<trkpt lat="46.1728233" lon="7.3181017"><ele></ele><time>2016-5-22T8:35:9Z</time></trkpt>
<trkpt lat="46.1727850" lon="7.3180900"><ele></ele><time>2016-5-22T8:35:12Z</time></trkpt>
<trkpt lat="46.1727267" lon="7.3181100"><ele></ele><time>2016-5-22T8:35:15Z</time></trkpt>
<trkpt lat="46.1726850" lon="7.3181317"><ele></ele><time>2016-5-22T8:35:18Z</time></trkpt>
<trkpt lat="46.1726517" lon="7.3181650"><ele></ele><time>2016-5-22T8:35:21Z</time></trkpt>
<trkpt lat="46.1726267" lon="7.3181800"><ele></ele><time>2016-5-22T8:35:24Z</time></trkpt>
<trkpt lat="46.1725817" lon="7.3181800"><ele></ele><time>2016-5-22T8:35:27Z</time></trkpt>
<trkpt lat="46.1725517" lon="7.3181767"><ele></ele><time>2016-5-22T8:35:30Z</time></trkpt>
<trkpt lat="46.1725150" lon="7.3181600"><ele></ele><time>2016-5-22T8:35:33Z</time></trkpt>
<trkpt lat="46.1724717" lon="7.3181650"><ele></ele><time>2016-5-22T8:35:36Z</time></trkpt>
<trkpt lat="46.1724183" lon="7.3181650"><ele></ele><time>2016-5-22T8:35:39Z</time></trkpt>
<trkpt lat="46.1723783" lon="7.3181567"><ele></ele><time>2016-5-22T8:35:42Z</time></trkpt>
<trkpt lat="46.1723267" lon="7.3181733"><ele></ele><time>2016-5-22T8:35:45Z</time></trkpt>
<trkpt lat="46.1722533" lon="7.3182250"><ele></ele><time>2016-5-22T8:35:48Z</time></trkpt>
<trkpt lat="46.1721850" lon="7.3182933"><ele></ele><time>2016-5-22T8:35:51Z</time></trkpt>
<trkpt lat="46.1721150" lon="7.3183283"><ele></ele><time>2016-5-22T8:35:54Z</time></trkpt>
<trkpt lat="46.1720417" lon="7.3183617"><ele></ele><time>2016-5-22T8:35:57Z</time></trkpt>
<trkpt lat="46.1719817" lon="7.3183833"><ele></ele><time>2016-5-22T8:36:0Z</time></trkpt>
<trkpt lat="46.1719067" lon="7.3183933"><ele></ele><time>2016-5-22T8:36:3Z</time></trkpt>
<trkpt lat="46.1718533" lon="7.3184333"><ele></ele><time>2016-5-22T8:36:6Z</time></trkpt>
<trkpt lat="46.1717833" lon="7.3184400"><ele></ele><time>2016-5-22T8:36:9Z</time></trkpt>
<trkpt lat="46.1717467" lon="7.3184317"><ele></ele><time>2016-5-22T8:36:12Z</time></trkpt>
<trkpt lat="46.1717117" lon="7.3184450"><ele></ele><time>2016-5-22T8:36:15Z</time></trkpt>
<trkpt lat="46.1716817" lon="7.3184533"><ele></ele><time>2016-5-22T8:36:18Z</time></trkpt>
<trkpt lat="46.1716617" lon="7.3184667"><ele></ele><time>2016-5-22T8:36:21Z</time></trkpt>
<trkpt lat="46.1716483" lon="7.3184717"><ele></ele><time>2016-5-22T8:36:24Z</time></trkpt>
<trkpt lat="46.1716233" lon="7.3184850"><ele></ele><time>2016-5-22T8:36:27Z</time></trkpt>
<trkpt lat="46.1715733" lon="7.3184667"><ele></ele><time>2016-5-22T8:36:30Z</time></trkpt>
<trkpt lat="46.1715367" lon="7.3184767"><ele></ele><time>2016-5-22T8:36:33Z</time></trkpt>
<trkpt lat="46.1715083" lon="7.3184867"><ele></ele><time>2016-5-22T8:36:36Z</time></trkpt>
<trkpt lat="46.1714650" lon="7.3184867"><ele></ele><time>2016-5-22T8:36:39Z</time></trkpt>
<trkpt lat="46.1714150" lon="7.3184867"><ele></ele><time>2016-5-22T8:36:42Z</time></trkpt>
<trkpt lat="46.1713700" lon="7.3184750"><ele></ele><time>2016-5-22T8:36:45Z</time></trkpt>
<trkpt lat="46.1713333" lon="7.3184967"><ele></ele><time>2016-5-22T8:36:48Z</time></trkpt>
<trkpt lat="46.1712933" lon="7.3185050"><ele></ele><time>2016-5-22T8:36:51Z</time></trkpt>
<trkpt lat="46.1712400" lon="7.3185100"><ele></ele><time>2016-5-22T8:36:54Z</time></trkpt>
<trkpt lat="46.1712000" lon="7.3185367"><ele></ele><time>2016-5-22T8:36:57Z</time></trkpt>
<trkpt lat="46.1711533" lon="7.3185517"><ele></ele><time>2016-5-22T8:37:0Z</time></trkpt>
<trkpt lat="46.1711417" lon="7.3185617"><ele></ele><time>2016-5-22T8:37:3Z</time></trkpt>
<trkpt lat="46.1711050" lon="7.3185683"><ele></ele><time>2016-5-22T8:37:6Z</time></trkpt>
<trkpt lat="46.1710733" lon="7.3185933"><ele></ele><time>2016-5-22T8:37:9Z</time></trkpt>
<trkpt lat="46.1710283" lon="7.3186083"><ele></ele><time>2016-5-22T8:37:12Z</time></trkpt>
<trkpt lat="46.1709817" lon="7.3186017"><ele></ele><time>2016-5-22T8:37:15Z</time></trkpt>
<trkpt lat="46.1709417" lon="7.3185933"><ele></ele><time>2016-5-22T8:37:18Z</time></trkpt>
<trkpt lat="46.1709000" lon="7.3185700"><ele></ele><time>2016-5-22T8:37:21Z</time></trkpt>
<trkpt lat="46.1708583" lon="7.3185417"><ele></ele><time>2016-5-22T8:37:24Z</time></trkpt>
<trkpt lat="46.1708100" lon="7.3184933"><ele></ele><time>2016-5-22T8:37:27Z</time></trkpt>
<trkpt lat="46.1707717" lon="7.3184483"><ele></ele><time>2016-5-22T8:37:30Z</time></trkpt>
<trkpt lat="46.1707333" lon="7.3184017"><ele></ele><time>2016-5-22T8:37:33Z</time></trkpt>
<trkpt lat="46.1706967" lon="7.3183617"><ele></ele><time>2016-5-22T8:37:36Z</time></trkpt>
<trkpt lat="46.1706517" lon="7.3183100"><ele></ele><time>2016-5-22T8:37:39Z</time></trkpt>
<trkpt lat="46.1706050" lon="7.3182550"><ele></ele><time>2016-5-22T8:37:42Z</time></trkpt>
<trkpt lat="46.1705600" lon="7.3182117"><ele></ele><time>2016-5-22T8:37:45Z</time></trkpt>
<trkpt lat="46.1705167" lon="7.3181333"><ele></ele><time>2016-5-22T8:37:48Z</time></trkpt>
<trkpt lat="46.1704650" lon="7.3180850"><ele></ele><time>2016-5-22T8:37:51Z</time></trkpt>
<trkpt lat="46.1704100" lon="7.3180267"><ele></ele><time>2016-5-22T8:37:54Z</time></trkpt>
<trkpt lat="46.1703533" lon="7.3179750"><ele></ele><time>2016-5-22T8:37:57Z</time></trkpt>
<trkpt lat="46.1702800" lon="7.3179283"><ele></ele><time>2016-5-22T8:38:0Z</time></trkpt>
<trkpt lat="46.1702033" lon="7.3178650"><ele></ele><time>2016-5-22T8:38:3Z</time></trkpt>
<trkpt lat="46.1701283" lon="7.3178183"><ele></ele><time>2016-5-22T8:38:6Z</time></trkpt>
<trkpt lat="46.1700367" lon="7.3178483"><ele></ele><time>2016-5-22T8:38:9Z</time></trkpt>
<trkpt lat="46.1699550" lon="7.3178817"><ele></ele><time>2016-5-22T8:38:12Z</time></trkpt>
<trkpt lat="46.1698967" lon="7.3179400"><ele></ele><time>2016-5-22T8:38:15Z</time></trkpt>
<trkpt lat="46.1698383" lon="7.3180200"><ele></ele><time>2016-5-22T8:38:18Z</time></trkpt>
<trkpt lat="46.1697750" lon="7.3181033"><ele></ele><time>2016-5-22T8:38:21Z</time></trkpt>
<trkpt lat="46.1697317" lon="7.3181800"><ele></ele><time>2016-5-22T8:38:24Z</time></trkpt>
<trkpt lat="46.1696800" lon="7.3182533"><ele></ele><time>2016-5-22T8:38:27Z</time></trkpt>
<trkpt lat="46.1696167" lon="7.3182933"><ele></ele><time>2016-5-22T8:38:30Z</time></trkpt>
<trkpt lat="46.1695617" lon="7.3183400"><ele></ele><time>2016-5-22T8:38:33Z</time></trkpt>
<trkpt lat="46.1694950" lon="7.3183700"><ele></ele><time>2016-5-22T8:38:36Z</time></trkpt>
<trkpt lat="46.1694200" lon="7.3183800"><ele></ele><time>2016-5-22T8:38:39Z</time></trkpt>
<trkpt lat="46.1693450" lon="7.3183900"><ele></ele><time>2016-5-22T8:38:42Z</time></trkpt>
<trkpt lat="46.1692617" lon="7.3184067"><ele></ele><time>2016-5-22T8:38:45Z</time></trkpt>
<trkpt lat="46.1691933" lon="7.3184467"><ele></ele><time>2016-5-22T8:38:48Z</time></trkpt>
<trkpt lat="46.1690817" lon="7.3184800"><ele></ele><time>2016-5-22T8:38:51Z</time></trkpt>
<trkpt lat="46.1690283" lon="7.3184867"><ele></ele><time>2016-5-22T8:38:54Z</time></trkpt>
<trkpt lat="46.1689483" lon="7.3185000"><ele></ele><time>2016-5-22T8:38:57Z</time></trkpt>
<trkpt lat="46.1688517" lon="7.3185100"><ele></ele><time>2016-5-22T8:39:0Z</time></trkpt>
<trkpt lat="46.1688133" lon="7.3184783"><ele></ele><time>2016-5-22T8:39:3Z</time></trkpt>
<trkpt lat="46.1687467" lon="7.3185100"><ele></ele><time>2016-5-22T8:39:6Z</time></trkpt>
<trkpt lat="46.1686867" lon="7.3185183"><ele></ele><time>2016-5-22T8:39:9Z</time></trkpt>
<trkpt lat="46.1686433" lon="7.3184967"><ele></ele><time>2016-5-22T8:39:12Z</time></trkpt>
<trkpt lat="46.1685933" lon="7.3184933"><ele></ele><time>2016-5-22T8:39:15Z</time></trkpt>
<trkpt lat="46.1685733" lon="7.3184817"><ele></ele><time>2016-5-22T8:39:18Z</time></trkpt>
<trkpt lat="46.1685433" lon="7.3184483"><ele></ele><time>2016-5-22T8:39:21Z</time></trkpt>
<trkpt lat="46.1684967" lon="7.3184317"><ele></ele><time>2016-5-22T8:39:24Z</time></trkpt>
<trkpt lat="46.1684700" lon="7.3184133"><ele></ele><time>2016-5-22T8:39:27Z</time></trkpt>
<trkpt lat="46.1684433" lon="7.3183767"><ele></ele><time>2016-5-22T8:39:30Z</time></trkpt>
<trkpt lat="46.1684117" lon="7.3183583"><ele></ele><time>2016-5-22T8:39:33Z</time></trkpt>
<trkpt lat="46.1683650" lon="7.3183500"><ele></ele><time>2016-5-22T8:39:36Z</time></trkpt>
<trkpt lat="46.1683300" lon="7.3183317"><ele></ele><time>2016-5-22T8:39:39Z</time></trkpt>
<trkpt lat="46.1682717" lon="7.3183883"><ele></ele><time>2016-5-22T8:39:42Z</time></trkpt>
<trkpt lat="46.1682400" lon="7.3184050"><ele></ele><time>2016-5-22T8:39:45Z</time></trkpt>
<trkpt lat="46.1682033" lon="7.3184150"><ele></ele><time>2016-5-22T8:39:48Z</time></trkpt>
<trkpt lat="46.1681650" lon="7.3184350"><ele></ele><time>2016-5-22T8:39:51Z</time></trkpt>
<trkpt lat="46.1681133" lon="7.3184517"><ele></ele><time>2016-5-22T8:39:54Z</time></trkpt>
<trkpt lat="46.1680700" lon="7.3184633"><ele></ele><time>2016-5-22T8:39:57Z</time></trkpt>
<trkpt lat="46.1680100" lon="7.3185017"><ele></ele><time>2016-5-22T8:40:0Z</time></trkpt>
<trkpt lat="46.1679750" lon="7.3185017"><ele></ele><time>2016-5-22T8:40:3Z</time></trkpt>
<trkpt lat="46.1679350" lon="7.3184800"><ele></ele><time>2016-5-22T8:40:6Z</time></trkpt>
<trkpt lat="46.1678900" lon="7.3184883"><ele></ele><time>2016-5-22T8:40:9Z</time></trkpt>
<trkpt lat="46.1678617" lon="7.3184950"><ele></ele><time>2016-5-22T8:40:12Z</time></trkpt>
<trkpt lat="46.1678217" lon="7.3185050"><ele></ele><time>2016-5-22T8:40:15Z</time></trkpt>
<trkpt lat="46.1677783" lon="7.3185250"><ele></ele><time>2016-5-22T8:40:18Z</time></trkpt>
<trkpt lat="46.1677417" lon="7.3185417"><ele></ele><time>2016-5-22T8:40:21Z</time></trkpt>
<trkpt lat="46.1676833" lon="7.3186300"><ele></ele><time>2016-5-22T8:40:24Z</time></trkpt>
<trkpt lat="46.1676167" lon="7.3186933"><ele></ele><time>2016-5-22T8:40:27Z</time></trkpt>
<trkpt lat="46.1675900" lon="7.3187300"><ele></ele><time>2016-5-22T8:40:30Z</time></trkpt>
<trkpt lat="46.1675517" lon="7.3187450"><ele></ele><time>2016-5-22T8:40:33Z</time></trkpt>
<trkpt lat="46.1675050" lon="7.3187667"><ele></ele><time>2016-5-22T8:40:36Z</time></trkpt>
<trkpt lat="46.1674567" lon="7.3188000"><ele></ele><time>2016-5-22T8:40:39Z</time></trkpt>
<trkpt lat="46.1673917" lon="7.3188450"><ele></ele><time>2016-5-22T8:40:42Z</time></trkpt>
<trkpt lat="46.1673533" lon="7.3188833"><ele></ele><time>2016-5-22T8:40:45Z</time></trkpt>
<trkpt lat="46.1673117" lon="7.3189300"><ele></ele><time>2016-5-22T8:40:48Z</time></trkpt>
<trkpt lat="46.1672650" lon="7.3189750"><ele></ele><time>2016-5-22T8:40:51Z</time></trkpt>
<trkpt lat="46.1672333" lon="7.3190083"><ele></ele><time>2016-5-22T8:40:54Z</time></trkpt>
<trkpt lat="46.1672233" lon="7.3190383"><ele></ele><time>2016-5-22T8:40:57Z</time></trkpt>
<trkpt lat="46.1672017" lon="7.3190700"><ele></ele><time>2016-5-22T8:41:0Z</time></trkpt>
<trkpt lat="46.1671733" lon="7.3190900"><ele></ele><time>2016-5-22T8:41:3Z</time></trkpt>
<trkpt lat="46.1671617" lon="7.3191133"><ele></ele><time>2016-5-22T8:41:6Z</time></trkpt>
<trkpt lat="46.1671467" lon="7.3191117"><ele></ele><time>2016-5-22T8:41:9Z</time></trkpt>
<trkpt lat="46.1671117" lon="7.3191183"><ele></ele><time>2016-5-22T8:41:12Z</time></trkpt>
<trkpt lat="46.1670917" lon="7.3191317"><ele></ele><time>2016-5-22T8:41:15Z</time></trkpt>
<trkpt lat="46.1670817" lon="7.3191467"><ele></ele><time>2016-5-22T8:41:18Z</time></trkpt>
<trkpt lat="46.1670650" lon="7.3191517"><ele></ele><time>2016-5-22T8:41:21Z</time></trkpt>
<trkpt lat="46.1670467" lon="7.3191583"><ele></ele><time>2016-5-22T8:41:24Z</time></trkpt>
<trkpt lat="46.1670317" lon="7.3191633"><ele></ele><time>2016-5-22T8:41:27Z</time></trkpt>
<trkpt lat="46.1670117" lon="7.3191667"><ele></ele><time>2016-5-22T8:41:30Z</time></trkpt>
<trkpt lat="46.1669917" lon="7.3191717"><ele></ele><time>2016-5-22T8:41:33Z</time></trkpt>
<trkpt lat="46.1669717" lon="7.3191783"><ele></ele><time>2016-5-22T8:41:36Z</time></trkpt>
<trkpt lat="46.1669533" lon="7.3191850"><ele></ele><time>2016-5-22T8:41:39Z</time></trkpt>
<trkpt lat="46.1669383" lon="7.3191883"><ele></ele><time>2016-5-22T8:41:42Z</time></trkpt>
<trkpt lat="46.1669217" lon="7.3191917"><ele></ele><time>2016-5-22T8:41:45Z</time></trkpt>
<trkpt lat="46.1669050" lon="7.3191967"><ele></ele><time>2016-5-22T8:41:48Z</time></trkpt>
<trkpt lat="46.1668917" lon="7.3192000"><ele></ele><time>2016-5-22T8:41:51Z</time></trkpt>
<trkpt lat="46.1668767" lon="7.3192017"><ele></ele><time>2016-5-22T8:41:54Z</time></trkpt>
<trkpt lat="46.1668600" lon="7.3192000"><ele></ele><time>2016-5-22T8:41:57Z</time></trkpt>
<trkpt lat="46.1668433" lon="7.3191983"><ele></ele><time>2016-5-22T8:42:0Z</time></trkpt>
<trkpt lat="46.1668283" lon="7.3191967"><ele></ele><time>2016-5-22T8:42:3Z</time></trkpt>
<trkpt lat="46.1668133" lon="7.3191933"><ele></ele><time>2016-5-22T8:42:6Z</time></trkpt>
<trkpt lat="46.1667967" lon="7.3191900"><ele></ele><time>2016-5-22T8:42:9Z</time></trkpt>
<trkpt lat="46.1667750" lon="7.3191833"><ele></ele><time>2016-5-22T8:42:12Z</time></trkpt>
<trkpt lat="46.1667550" lon="7.3191733"><ele></ele><time>2016-5-22T8:42:15Z</time></trkpt>
<trkpt lat="46.1667400" lon="7.3191650"><ele></ele><time>2016-5-22T8:42:18Z</time></trkpt>
<trkpt lat="46.1667233" lon="7.3191567"><ele></ele><time>2016-5-22T8:42:21Z</time></trkpt>
<trkpt lat="46.1667083" lon="7.3191483"><ele></ele><time>2016-5-22T8:42:24Z</time></trkpt>
<trkpt lat="46.1666967" lon="7.3191367"><ele></ele><time>2016-5-22T8:42:27Z</time></trkpt>
<trkpt lat="46.1666833" lon="7.3191250"><ele></ele><time>2016-5-22T8:42:30Z</time></trkpt>
<trkpt lat="46.1666750" lon="7.3191133"><ele></ele><time>2016-5-22T8:42:33Z</time></trkpt>
<trkpt lat="46.1666650" lon="7.3191017"><ele></ele><time>2016-5-22T8:42:36Z</time></trkpt>
<trkpt lat="46.1666550" lon="7.3190900"><ele></ele><time>2016-5-22T8:42:39Z</time></trkpt>
<trkpt lat="46.1666433" lon="7.3190800"><ele></ele><time>2016-5-22T8:42:42Z</time></trkpt>
<trkpt lat="46.1666317" lon="7.3190700"><ele></ele><time>2016-5-22T8:42:45Z</time></trkpt>
<trkpt lat="46.1666200" lon="7.3190633"><ele></ele><time>2016-5-22T8:42:48Z</time></trkpt>
<trkpt lat="46.1666083" lon="7.3190550"><ele></ele><time>2016-5-22T8:42:51Z</time></trkpt>
<trkpt lat="46.1666017" lon="7.3190500"><ele></ele><time>2016-5-22T8:42:54Z</time></trkpt>
<trkpt lat="46.1665983" lon="7.3190433"><ele></ele><time>2016-5-22T8:42:57Z</time></trkpt>
<trkpt lat="46.1665933" lon="7.3190300"><ele></ele><time>2016-5-22T8:43:0Z</time></trkpt>
<trkpt lat="46.1665867" lon="7.3190117"><ele></ele><time>2016-5-22T8:43:3Z</time></trkpt>
<trkpt lat="46.1665800" lon="7.3189933"><ele></ele><time>2016-5-22T8:43:6Z</time></trkpt>
<trkpt lat="46.1665717" lon="7.3189783"><ele></ele><time>2016-5-22T8:43:9Z</time></trkpt>
<trkpt lat="46.1665667" lon="7.3189700"><ele></ele><time>2016-5-22T8:43:12Z</time></trkpt>
<trkpt lat="46.1665600" lon="7.3189633"><ele></ele><time>2016-5-22T8:43:15Z</time></trkpt>
<trkpt lat="46.1665500" lon="7.3189550"><ele></ele><time>2016-5-22T8:43:18Z</time></trkpt>
<trkpt lat="46.1665367" lon="7.3189450"><ele></ele><time>2016-5-22T8:43:21Z</time></trkpt>
<trkpt lat="46.1665233" lon="7.3189367"><ele></ele><time>2016-5-22T8:43:24Z</time></trkpt>
<trkpt lat="46.1665067" lon="7.3189300"><ele></ele><time>2016-5-22T8:43:27Z</time></trkpt>
<trkpt lat="46.1664900" lon="7.3189283"><ele></ele><time>2016-5-22T8:43:30Z</time></trkpt>
<trkpt lat="46.1664750" lon="7.3189267"><ele></ele><time>2016-5-22T8:43:33Z</time></trkpt>
<trkpt lat="46.1664583" lon="7.3189250"><ele></ele><time>2016-5-22T8:43:36Z</time></trkpt>
<trkpt lat="46.1664400" lon="7.3189200"><ele></ele><time>2016-5-22T8:43:39Z</time></trkpt>
<trkpt lat="46.1664233" lon="7.3189150"><ele></ele><time>2016-5-22T8:43:42Z</time></trkpt>
<trkpt lat="46.1664067" lon="7.3189117"><ele></ele><time>2016-5-22T8:43:45Z</time></trkpt>
<trkpt lat="46.1663917" lon="7.3189083"><ele></ele><time>2016-5-22T8:43:48Z</time></trkpt>
<trkpt lat="46.1663833" lon="7.3189017"><ele></ele><time>2016-5-22T8:43:51Z</time></trkpt>
<trkpt lat="46.1663733" lon="7.3188933"><ele></ele><time>2016-5-22T8:43:54Z</time></trkpt>
<trkpt lat="46.1663600" lon="7.3188800"><ele></ele><time>2016-5-22T8:43:57Z</time></trkpt>
<trkpt lat="46.1663450" lon="7.3188683"><ele></ele><time>2016-5-22T8:44:0Z</time></trkpt>
<trkpt lat="46.1663283" lon="7.3188583"><ele></ele><time>2016-5-22T8:44:3Z</time></trkpt>
<trkpt lat="46.1663117" lon="7.3188517"><ele></ele><time>2016-5-22T8:44:6Z</time></trkpt>
<trkpt lat="46.1663000" lon="7.3188467"><ele></ele><time>2016-5-22T8:44:9Z</time></trkpt>
<trkpt lat="46.1662900" lon="7.3188467"><ele></ele><time>2016-5-22T8:44:12Z</time></trkpt>
<trkpt lat="46.1662750" lon="7.3188433"><ele></ele><time>2016-5-22T8:44:15Z</time></trkpt>
<trkpt lat="46.1662583" lon="7.3188433"><ele></ele><time>2016-5-22T8:44:18Z</time></trkpt>
<trkpt lat="46.1662417" lon="7.3188483"><ele></ele><time>2016-5-22T8:44:21Z</time></trkpt>
<trkpt lat="46.1662267" lon="7.3188600"><ele></ele><time>2016-5-22T8:44:24Z</time></trkpt>
<trkpt lat="46.1662150" lon="7.3188750"><ele></ele><time>2016-5-22T8:44:27Z</time></trkpt>
<trkpt lat="46.1662067" lon="7.3188950"><ele></ele><time>2016-5-22T8:44:30Z</time></trkpt>
<trkpt lat="46.1662000" lon="7.3189217"><ele></ele><time>2016-5-22T8:44:33Z</time></trkpt>
<trkpt lat="46.1661933" lon="7.3189483"><ele></ele><time>2016-5-22T8:44:36Z</time></trkpt>
<trkpt lat="46.1661833" lon="7.3189733"><ele></ele><time>2016-5-22T8:44:39Z</time></trkpt>
<trkpt lat="46.1661750" lon="7.3189917"><ele></ele><time>2016-5-22T8:44:42Z</time></trkpt>
<trkpt lat="46.1661700" lon="7.3190067"><ele></ele><time>2016-5-22T8:44:45Z</time></trkpt>
<trkpt lat="46.1661633" lon="7.3190267"><ele></ele><time>2016-5-22T8:44:48Z</time></trkpt>
<trkpt lat="46.1661567" lon="7.3190467"><ele></ele><time>2016-5-22T8:44:51Z</time></trkpt>
<trkpt lat="46.1661467" lon="7.3190650"><ele></ele><time>2016-5-22T8:44:54Z</time></trkpt>
<trkpt lat="46.1661383" lon="7.3190833"><ele></ele><time>2016-5-22T8:44:57Z</time></trkpt>
<trkpt lat="46.1661300" lon="7.3191017"><ele></ele><time>2016-5-22T8:45:0Z</time></trkpt>
<trkpt lat="46.1661267" lon="7.3191217"><ele></ele><time>2016-5-22T8:45:3Z</time></trkpt>
<trkpt lat="46.1661250" lon="7.3191417"><ele></ele><time>2016-5-22T8:45:6Z</time></trkpt>
<trkpt lat="46.1661267" lon="7.3191567"><ele></ele><time>2016-5-22T8:45:9Z</time></trkpt>
<trkpt lat="46.1661333" lon="7.3191683"><ele></ele><time>2016-5-22T8:45:12Z</time></trkpt>
<trkpt lat="46.1661400" lon="7.3191800"><ele></ele><time>2016-5-22T8:45:15Z</time></trkpt>
<trkpt lat="46.1661483" lon="7.3191917"><ele></ele><time>2016-5-22T8:45:18Z</time></trkpt>
<trkpt lat="46.1661583" lon="7.3192000"><ele></ele><time>2016-5-22T8:45:21Z</time></trkpt>
<trkpt lat="46.1661667" lon="7.3192067"><ele></ele><time>2016-5-22T8:45:24Z</time></trkpt>
<trkpt lat="46.1661750" lon="7.3192117"><ele></ele><time>2016-5-22T8:45:27Z</time></trkpt>
<trkpt lat="46.1661850" lon="7.3192167"><ele></ele><time>2016-5-22T8:45:30Z</time></trkpt>
<trkpt lat="46.1661967" lon="7.3192250"><ele></ele><time>2016-5-22T8:45:33Z</time></trkpt>
<trkpt lat="46.1662067" lon="7.3192350"><ele></ele><time>2016-5-22T8:45:36Z</time></trkpt>
<trkpt lat="46.1662117" lon="7.3192483"><ele></ele><time>2016-5-22T8:45:39Z</time></trkpt>
<trkpt lat="46.1662133" lon="7.3192650"><ele></ele><time>2016-5-22T8:45:42Z</time></trkpt>
<trkpt lat="46.1662133" lon="7.3192800"><ele></ele><time>2016-5-22T8:45:45Z</time></trkpt>
<trkpt lat="46.1662167" lon="7.3192917"><ele></ele><time>2016-5-22T8:45:48Z</time></trkpt>
<trkpt lat="46.1662233" lon="7.3193033"><ele></ele><time>2016-5-22T8:45:51Z</time></trkpt>
<trkpt lat="46.1662333" lon="7.3193150"><ele></ele><time>2016-5-22T8:45:54Z</time></trkpt>
<trkpt lat="46.1662417" lon="7.3193283"><ele></ele><time>2016-5-22T8:45:57Z</time></trkpt>
<trkpt lat="46.1662467" lon="7.3193400"><ele></ele><time>2016-5-22T8:46:0Z</time></trkpt>
<trkpt lat="46.1662517" lon="7.3193567"><ele></ele><time>2016-5-22T8:46:3Z</time></trkpt>
<trkpt lat="46.1662533" lon="7.3193750"><ele></ele><time>2016-5-22T8:46:6Z</time></trkpt>
<trkpt lat="46.1662533" lon="7.3193933"><ele></ele><time>2016-5-22T8:46:9Z</time></trkpt>
<trkpt lat="46.1662550" lon="7.3194117"><ele></ele><time>2016-5-22T8:46:12Z</time></trkpt>
<trkpt lat="46.1662567" lon="7.3194267"><ele></ele><time>2016-5-22T8:46:15Z</time></trkpt>
<trkpt lat="46.1662583" lon="7.3194400"><ele></ele><time>2016-5-22T8:46:18Z</time></trkpt>
<trkpt lat="46.1662600" lon="7.3194550"><ele></ele><time>2016-5-22T8:46:21Z</time></trkpt>
<trkpt lat="46.1662600" lon="7.3194700"><ele></ele><time>2016-5-22T8:46:24Z</time></trkpt>
<trkpt lat="46.1662633" lon="7.3194817"><ele></ele><time>2016-5-22T8:46:27Z</time></trkpt>
<trkpt lat="46.1662683" lon="7.3194950"><ele></ele><time>2016-5-22T8:46:30Z</time></trkpt>
<trkpt lat="46.1662717" lon="7.3195067"><ele></ele><time>2016-5-22T8:46:33Z</time></trkpt>
<trkpt lat="46.1662767" lon="7.3195183"><ele></ele><time>2016-5-22T8:46:36Z</time></trkpt>
<trkpt lat="46.1662817" lon="7.3195367"><ele></ele><time>2016-5-22T8:46:39Z</time></trkpt>
<trkpt lat="46.1662850" lon="7.3195517"><ele></ele><time>2016-5-22T8:46:42Z</time></trkpt>
<trkpt lat="46.1662900" lon="7.3195717"><ele></ele><time>2016-5-22T8:46:45Z</time></trkpt>
<trkpt lat="46.1662983" lon="7.3195900"><ele></ele><time>2016-5-22T8:46:48Z</time></trkpt>
<trkpt lat="46.1663067" lon="7.3196083"><ele></ele><time>2016-5-22T8:46:51Z</time></trkpt>
<trkpt lat="46.1663133" lon="7.3196233"><ele></ele><time>2016-5-22T8:46:54Z</time></trkpt>
<trkpt lat="46.1663167" lon="7.3196417"><ele></ele><time>2016-5-22T8:46:57Z</time></trkpt>
<trkpt lat="46.1663183" lon="7.3196567"><ele></ele><time>2016-5-22T8:47:0Z</time></trkpt>
<trkpt lat="46.1663267" lon="7.3196700"><ele></ele><time>2016-5-22T8:47:3Z</time></trkpt>
<trkpt lat="46.1663433" lon="7.3196850"><ele></ele><time>2016-5-22T8:47:6Z</time></trkpt>
<trkpt lat="46.1663567" lon="7.3197017"><ele></ele><time>2016-5-22T8:47:9Z</time></trkpt>
<trkpt lat="46.1663700" lon="7.3197217"><ele></ele><time>2016-5-22T8:47:12Z</time></trkpt>
<trkpt lat="46.1663883" lon="7.3197500"><ele></ele><time>2016-5-22T8:47:15Z</time></trkpt>
<trkpt lat="46.1664117" lon="7.3197850"><ele></ele><time>2016-5-22T8:47:18Z</time></trkpt>
<trkpt lat="46.1664383" lon="7.3198283"><ele></ele><time>2016-5-22T8:47:21Z</time></trkpt>
<trkpt lat="46.1664900" lon="7.3198750"><ele></ele><time>2016-5-22T8:47:24Z</time></trkpt>
<trkpt lat="46.1665333" lon="7.3199050"><ele></ele><time>2016-5-22T8:47:27Z</time></trkpt>
<trkpt lat="46.1665883" lon="7.3199367"><ele></ele><time>2016-5-22T8:47:30Z</time></trkpt>
<trkpt lat="46.1666383" lon="7.3199650"><ele></ele><time>2016-5-22T8:47:33Z</time></trkpt>
<trkpt lat="46.1666983" lon="7.3199967"><ele></ele><time>2016-5-22T8:47:36Z</time></trkpt>
<trkpt lat="46.1667717" lon="7.3200033"><ele></ele><time>2016-5-22T8:47:39Z</time></trkpt>
<trkpt lat="46.1668483" lon="7.3200100"><ele></ele><time>2016-5-22T8:47:42Z</time></trkpt>
<trkpt lat="46.1669200" lon="7.3200117"><ele></ele><time>2016-5-22T8:47:45Z</time></trkpt>
<trkpt lat="46.1670067" lon="7.3200150"><ele></ele><time>2016-5-22T8:47:48Z</time></trkpt>
<trkpt lat="46.1670850" lon="7.3200367"><ele></ele><time>2016-5-22T8:47:51Z</time></trkpt>
<trkpt lat="46.1671767" lon="7.3200033"><ele></ele><time>2016-5-22T8:47:54Z</time></trkpt>
<trkpt lat="46.1672617" lon="7.3199483"><ele></ele><time>2016-5-22T8:47:57Z</time></trkpt>
<trkpt lat="46.1673583" lon="7.3198900"><ele></ele><time>2016-5-22T8:48:0Z</time></trkpt>
<trkpt lat="46.1674583" lon="7.3197983"><ele></ele><time>2016-5-22T8:48:3Z</time></trkpt>
<trkpt lat="46.1675117" lon="7.3197467"><ele></ele><time>2016-5-22T8:48:6Z</time></trkpt>
<trkpt lat="46.1675767" lon="7.3197050"><ele></ele><time>2016-5-22T8:48:9Z</time></trkpt>
<trkpt lat="46.1676100" lon="7.3197067"><ele></ele><time>2016-5-22T8:48:12Z</time></trkpt>
<trkpt lat="46.1676600" lon="7.3197467"><ele></ele><time>2016-5-22T8:48:15Z</time></trkpt>
<trkpt lat="46.1677133" lon="7.3197450"><ele></ele><time>2016-5-22T8:48:18Z</time></trkpt>
<trkpt lat="46.1677683" lon="7.3197283"><ele></ele><time>2016-5-22T8:48:21Z</time></trkpt>
<trkpt lat="46.1678183" lon="7.3197150"><ele></ele><time>2016-5-22T8:48:24Z</time></trkpt>
<trkpt lat="46.1678867" lon="7.3196883"><ele></ele><time>2016-5-22T8:48:27Z</time></trkpt>
<trkpt lat="46.1679617" lon="7.3196917"><ele></ele><time>2016-5-22T8:48:30Z</time></trkpt>
<trkpt lat="46.1680617" lon="7.3197067"><ele></ele><time>2016-5-22T8:48:33Z</time></trkpt>
<trkpt lat="46.1681583" lon="7.3197900"><ele></ele><time>2016-5-22T8:48:36Z</time></trkpt>
<trkpt lat="46.1682417" lon="7.3198983"><ele></ele><time>2016-5-22T8:48:39Z</time></trkpt>
<trkpt lat="46.1683500" lon="7.3199617"><ele></ele><time>2016-5-22T8:48:42Z</time></trkpt>
<trkpt lat="46.1684417" lon="7.3200467"><ele></ele><time>2016-5-22T8:48:45Z</time></trkpt>
<trkpt lat="46.1685167" lon="7.3201383"><ele></ele><time>2016-5-22T8:48:48Z</time></trkpt>
<trkpt lat="46.1686233" lon="7.3202417"><ele></ele><time>2016-5-22T8:48:51Z</time></trkpt>
<trkpt lat="46.1686967" lon="7.3203483"><ele></ele><time>2016-5-22T8:48:54Z</time></trkpt>
<trkpt lat="46.1687700" lon="7.3204667"><ele></ele><time>2016-5-22T8:48:57Z</time></trkpt>
<trkpt lat="46.1688400" lon="7.3206033"><ele></ele><time>2016-5-22T8:49:0Z</time></trkpt>
<trkpt lat="46.1689200" lon="7.3207333"><ele></ele><time>2016-5-22T8:49:3Z</time></trkpt>
<trkpt lat="46.1690083" lon="7.3208600"><ele></ele><time>2016-5-22T8:49:6Z</time></trkpt>
<trkpt lat="46.1690983" lon="7.3209967"><ele></ele><time>2016-5-22T8:49:9Z</time></trkpt>
<trkpt lat="46.1691900" lon="7.3211200"><ele></ele><time>2016-5-22T8:49:12Z</time></trkpt>
<trkpt lat="46.1692917" lon="7.3212600"><ele></ele><time>2016-5-22T8:49:15Z</time></trkpt>
<trkpt lat="46.1693883" lon="7.3214117"><ele></ele><time>2016-5-22T8:49:18Z</time></trkpt>
<trkpt lat="46.1694500" lon="7.3215617"><ele></ele><time>2016-5-22T8:49:21Z</time></trkpt>
<trkpt lat="46.1694767" lon="7.3217017"><ele></ele><time>2016-5-22T8:49:24Z</time></trkpt>
<trkpt lat="46.1694917" lon="7.3218383"><ele></ele><time>2016-5-22T8:49:27Z</time></trkpt>
<trkpt lat="46.1694983" lon="7.3219567"><ele></ele><time>2016-5-22T8:49:30Z</time></trkpt>
<trkpt lat="46.1695067" lon="7.3220583"><ele></ele><time>2016-5-22T8:49:33Z</time></trkpt>
<trkpt lat="46.1695133" lon="7.3221517"><ele></ele><time>2016-5-22T8:49:36Z</time></trkpt>
<trkpt lat="46.1695217" lon="7.3222317"><ele></ele><time>2016-5-22T8:49:39Z</time></trkpt>
<trkpt lat="46.1695517" lon="7.3223100"><ele></ele><time>2016-5-22T8:49:42Z</time></trkpt>
<trkpt lat="46.1695783" lon="7.3223817"><ele></ele><time>2016-5-22T8:49:45Z</time></trkpt>
<trkpt lat="46.1696067" lon="7.3224317"><ele></ele><time>2016-5-22T8:49:48Z</time></trkpt>
<trkpt lat="46.1696317" lon="7.3224750"><ele></ele><time>2016-5-22T8:49:51Z</time></trkpt>
<trkpt lat="46.1696600" lon="7.3225150"><ele></ele><time>2016-5-22T8:49:54Z</time></trkpt>
<trkpt lat="46.1696833" lon="7.3225333"><ele></ele><time>2016-5-22T8:49:57Z</time></trkpt>
<trkpt lat="46.1697050" lon="7.3225500"><ele></ele><time>2016-5-22T8:50:0Z</time></trkpt>
<trkpt lat="46.1697217" lon="7.3225667"><ele></ele><time>2016-5-22T8:50:3Z</time></trkpt>
<trkpt lat="46.1697383" lon="7.3225850"><ele></ele><time>2016-5-22T8:50:6Z</time></trkpt>
<trkpt lat="46.1697550" lon="7.3226033"><ele></ele><time>2016-5-22T8:50:9Z</time></trkpt>
<trkpt lat="46.1697650" lon="7.3226217"><ele></ele><time>2016-5-22T8:50:12Z</time></trkpt>
<trkpt lat="46.1697750" lon="7.3226383"><ele></ele><time>2016-5-22T8:50:15Z</time></trkpt>
<trkpt lat="46.1697883" lon="7.3226567"><ele></ele><time>2016-5-22T8:50:18Z</time></trkpt>
<trkpt lat="46.1698017" lon="7.3226833"><ele></ele><time>2016-5-22T8:50:21Z</time></trkpt>
<trkpt lat="46.1698133" lon="7.3227067"><ele></ele><time>2016-5-22T8:50:24Z</time></trkpt>
<trkpt lat="46.1698250" lon="7.3227367"><ele></ele><time>2016-5-22T8:50:27Z</time></trkpt>
<trkpt lat="46.1698367" lon="7.3227617"><ele></ele><time>2016-5-22T8:50:30Z</time></trkpt>
<trkpt lat="46.1698417" lon="7.3227783"><ele></ele><time>2016-5-22T8:50:33Z</time></trkpt>
<trkpt lat="46.1698500" lon="7.3228033"><ele></ele><time>2016-5-22T8:50:36Z</time></trkpt>
<trkpt lat="46.1698550" lon="7.3228250"><ele></ele><time>2016-5-22T8:50:39Z</time></trkpt>
<trkpt lat="46.1698633" lon="7.3228517"><ele></ele><time>2016-5-22T8:50:42Z</time></trkpt>
<trkpt lat="46.1698683" lon="7.3228783"><ele></ele><time>2016-5-22T8:50:45Z</time></trkpt>
<trkpt lat="46.1698717" lon="7.3229017"><ele></ele><time>2016-5-22T8:50:48Z</time></trkpt>
<trkpt lat="46.1698767" lon="7.3229217"><ele></ele><time>2016-5-22T8:50:51Z</time></trkpt>
<trkpt lat="46.1698800" lon="7.3229433"><ele></ele><time>2016-5-22T8:50:54Z</time></trkpt>
<trkpt lat="46.1698850" lon="7.3229683"><ele></ele><time>2016-5-22T8:50:57Z</time></trkpt>
<trkpt lat="46.1698883" lon="7.3229967"><ele></ele><time>2016-5-22T8:51:0Z</time></trkpt>
<trkpt lat="46.1698933" lon="7.3230233"><ele></ele><time>2016-5-22T8:51:3Z</time></trkpt>
<trkpt lat="46.1699000" lon="7.3230483"><ele></ele><time>2016-5-22T8:51:6Z</time></trkpt>
<trkpt lat="46.1699083" lon="7.3230717"><ele></ele><time>2016-5-22T8:51:9Z</time></trkpt>
<trkpt lat="46.1699167" lon="7.3231000"><ele></ele><time>2016-5-22T8:51:12Z</time></trkpt>
<trkpt lat="46.1699217" lon="7.3231283"><ele></ele><time>2016-5-22T8:51:15Z</time></trkpt>
<trkpt lat="46.1699250" lon="7.3231533"><ele></ele><time>2016-5-22T8:51:18Z</time></trkpt>
<trkpt lat="46.1699267" lon="7.3231767"><ele></ele><time>2016-5-22T8:51:21Z</time></trkpt>
<trkpt lat="46.1699333" lon="7.3231983"><ele></ele><time>2016-5-22T8:51:24Z</time></trkpt>
<trkpt lat="46.1699417" lon="7.3232183"><ele></ele><time>2016-5-22T8:51:27Z</time></trkpt>
<trkpt lat="46.1699450" lon="7.3232350"><ele></ele><time>2016-5-22T8:51:30Z</time></trkpt>
<trkpt lat="46.1699483" lon="7.3232567"><ele></ele><time>2016-5-22T8:51:33Z</time></trkpt>
<trkpt lat="46.1699517" lon="7.3232800"><ele></ele><time>2016-5-22T8:51:36Z</time></trkpt>
<trkpt lat="46.1699567" lon="7.3233000"><ele></ele><time>2016-5-22T8:51:39Z</time></trkpt>
<trkpt lat="46.1699633" lon="7.3233183"><ele></ele><time>2016-5-22T8:51:42Z</time></trkpt>
<trkpt lat="46.1699700" lon="7.3233350"><ele></ele><time>2016-5-22T8:51:45Z</time></trkpt>
<trkpt lat="46.1699767" lon="7.3233500"><ele></ele><time>2016-5-22T8:51:48Z</time></trkpt>
<trkpt lat="46.1699833" lon="7.3233667"><ele></ele><time>2016-5-22T8:51:51Z</time></trkpt>
<trkpt lat="46.1699900" lon="7.3233850"><ele></ele><time>2016-5-22T8:51:54Z</time></trkpt>
<trkpt lat="46.1699967" lon="7.3234050"><ele></ele><time>2016-5-22T8:51:57Z</time></trkpt>
<trkpt lat="46.1700000" lon="7.3234283"><ele></ele><time>2016-5-22T8:52:0Z</time></trkpt>
<trkpt lat="46.1700017" lon="7.3234517"><ele></ele><time>2016-5-22T8:52:3Z</time></trkpt>
<trkpt lat="46.1700033" lon="7.3234717"><ele></ele><time>2016-5-22T8:52:6Z</time></trkpt>
<trkpt lat="46.1700050" lon="7.3234900"><ele></ele><time>2016-5-22T8:52:9Z</time></trkpt>
<trkpt lat="46.1700083" lon="7.3235117"><ele></ele><time>2016-5-22T8:52:12Z</time></trkpt>
<trkpt lat="46.1700117" lon="7.3235317"><ele></ele><time>2016-5-22T8:52:15Z</time></trkpt>
<trkpt lat="46.1700167" lon="7.3235500"><ele></ele><time>2016-5-22T8:52:18Z</time></trkpt>
<trkpt lat="46.1700233" lon="7.3235650"><ele></ele><time>2016-5-22T8:52:21Z</time></trkpt>
<trkpt lat="46.1700300" lon="7.3235800"><ele></ele><time>2016-5-22T8:52:24Z</time></trkpt>
<trkpt lat="46.1700383" lon="7.3235950"><ele></ele><time>2016-5-22T8:52:27Z</time></trkpt>
<trkpt lat="46.1700450" lon="7.3236117"><ele></ele><time>2016-5-22T8:52:30Z</time></trkpt>
<trkpt lat="46.1700517" lon="7.3236283"><ele></ele><time>2016-5-22T8:52:33Z</time></trkpt>
<trkpt lat="46.1700550" lon="7.3236483"><ele></ele><time>2016-5-22T8:52:36Z</time></trkpt>
<trkpt lat="46.1700583" lon="7.3236700"><ele></ele><time>2016-5-22T8:52:39Z</time></trkpt>
<trkpt lat="46.1700583" lon="7.3236933"><ele></ele><time>2016-5-22T8:52:42Z</time></trkpt>
<trkpt lat="46.1700567" lon="7.3237167"><ele></ele><time>2016-5-22T8:52:45Z</time></trkpt>
<trkpt lat="46.1700567" lon="7.3237383"><ele></ele><time>2016-5-22T8:52:48Z</time></trkpt>
<trkpt lat="46.1700583" lon="7.3237583"><ele></ele><time>2016-5-22T8:52:51Z</time></trkpt>
<trkpt lat="46.1700633" lon="7.3237767"><ele></ele><time>2016-5-22T8:52:54Z</time></trkpt>
<trkpt lat="46.1700667" lon="7.3237933"><ele></ele><time>2016-5-22T8:52:57Z</time></trkpt>
<trkpt lat="46.1700683" lon="7.3238133"><ele></ele><time>2016-5-22T8:53:0Z</time></trkpt>
<trkpt lat="46.1700683" lon="7.3238333"><ele></ele><time>2016-5-22T8:53:3Z</time></trkpt>
<trkpt lat="46.1700683" lon="7.3238500"><ele></ele><time>2016-5-22T8:53:6Z</time></trkpt>
<trkpt lat="46.1700700" lon="7.3238683"><ele></ele><time>2016-5-22T8:53:9Z</time></trkpt>
<trkpt lat="46.1700717" lon="7.3238867"><ele></ele><time>2016-5-22T8:53:12Z</time></trkpt>
<trkpt lat="46.1700750" lon="7.3239050"><ele></ele><time>2016-5-22T8:53:15Z</time></trkpt>
<trkpt lat="46.1700767" lon="7.3239283"><ele></ele><time>2016-5-22T8:53:18Z</time></trkpt>
<trkpt lat="46.1700800" lon="7.3239467"><ele></ele><time>2016-5-22T8:53:21Z</time></trkpt>
<trkpt lat="46.1700800" lon="7.3239633"><ele></ele><time>2016-5-22T8:53:24Z</time></trkpt>
<trkpt lat="46.1700800" lon="7.3239833"><ele></ele><time>2016-5-22T8:53:27Z</time></trkpt>
<trkpt lat="46.1700833" lon="7.3240050"><ele></ele><time>2016-5-22T8:53:30Z</time></trkpt>
<trkpt lat="46.1700883" lon="7.3240283"><ele></ele><time>2016-5-22T8:53:33Z</time></trkpt>
<trkpt lat="46.1700933" lon="7.3240517"><ele></ele><time>2016-5-22T8:53:36Z</time></trkpt>
<trkpt lat="46.1700967" lon="7.3240717"><ele></ele><time>2016-5-22T8:53:39Z</time></trkpt>
<trkpt lat="46.1701017" lon="7.3240900"><ele></ele><time>2016-5-22T8:53:42Z</time></trkpt>
<trkpt lat="46.1701083" lon="7.3241100"><ele></ele><time>2016-5-22T8:53:45Z</time></trkpt>
<trkpt lat="46.1701150" lon="7.3241233"><ele></ele><time>2016-5-22T8:53:48Z</time></trkpt>
<trkpt lat="46.1701233" lon="7.3241333"><ele></ele><time>2016-5-22T8:53:51Z</time></trkpt>
<trkpt lat="46.1701300" lon="7.3241467"><ele></ele><time>2016-5-22T8:53:54Z</time></trkpt>
<trkpt lat="46.1701333" lon="7.3241633"><ele></ele><time>2016-5-22T8:53:57Z</time></trkpt>
<trkpt lat="46.1701350" lon="7.3241833"><ele></ele><time>2016-5-22T8:54:0Z</time></trkpt>
<trkpt lat="46.1701383" lon="7.3242017"><ele></ele><time>2016-5-22T8:54:3Z</time></trkpt>
<trkpt lat="46.1701383" lon="7.3242183"><ele></ele><time>2016-5-22T8:54:6Z</time></trkpt>
<trkpt lat="46.1701350" lon="7.3242333"><ele></ele><time>2016-5-22T8:54:9Z</time></trkpt>
<trkpt lat="46.1701283" lon="7.3242483"><ele></ele><time>2016-5-22T8:54:12Z</time></trkpt>
<trkpt lat="46.1701267" lon="7.3242633"><ele></ele><time>2016-5-22T8:54:15Z</time></trkpt>
<trkpt lat="46.1701300" lon="7.3242767"><ele></ele><time>2016-5-22T8:54:18Z</time></trkpt>
<trkpt lat="46.1701400" lon="7.3242867"><ele></ele><time>2016-5-22T8:54:21Z</time></trkpt>
<trkpt lat="46.1701483" lon="7.3242950"><ele></ele><time>2016-5-22T8:54:24Z</time></trkpt>
<trkpt lat="46.1701567" lon="7.3243050"><ele></ele><time>2016-5-22T8:54:27Z</time></trkpt>
<trkpt lat="46.1701617" lon="7.3243150"><ele></ele><time>2016-5-22T8:54:30Z</time></trkpt>
<trkpt lat="46.1701683" lon="7.3243250"><ele></ele><time>2016-5-22T8:54:33Z</time></trkpt>
<trkpt lat="46.1701733" lon="7.3243333"><ele></ele><time>2016-5-22T8:54:36Z</time></trkpt>
<trkpt lat="46.1701783" lon="7.3243450"><ele></ele><time>2016-5-22T8:54:39Z</time></trkpt>
<trkpt lat="46.1701850" lon="7.3243550"><ele></ele><time>2016-5-22T8:54:42Z</time></trkpt>
<trkpt lat="46.1701917" lon="7.3243683"><ele></ele><time>2016-5-22T8:54:45Z</time></trkpt>
<trkpt lat="46.1702000" lon="7.3243800"><ele></ele><time>2016-5-22T8:54:48Z</time></trkpt>
<trkpt lat="46.1702033" lon="7.3243900"><ele></ele><time>2016-5-22T8:54:51Z</time></trkpt>
<trkpt lat="46.1702100" lon="7.3243983"><ele></ele><time>2016-5-22T8:54:54Z</time></trkpt>
<trkpt lat="46.1702150" lon="7.3244083"><ele></ele><time>2016-5-22T8:54:57Z</time></trkpt>
<trkpt lat="46.1702183" lon="7.3244200"><ele></ele><time>2016-5-22T8:55:0Z</time></trkpt>
<trkpt lat="46.1702217" lon="7.3244283"><ele></ele><time>2016-5-22T8:55:3Z</time></trkpt>
<trkpt lat="46.1702233" lon="7.3244400"><ele></ele><time>2016-5-22T8:55:6Z</time></trkpt>
<trkpt lat="46.1702250" lon="7.3244583"><ele></ele><time>2016-5-22T8:55:9Z</time></trkpt>
<trkpt lat="46.1702283" lon="7.3244767"><ele></ele><time>2016-5-22T8:55:12Z</time></trkpt>
<trkpt lat="46.1702317" lon="7.3244933"><ele></ele><time>2016-5-22T8:55:15Z</time></trkpt>
<trkpt lat="46.1702333" lon="7.3245100"><ele></ele><time>2016-5-22T8:55:18Z</time></trkpt>
<trkpt lat="46.1702350" lon="7.3245233"><ele></ele><time>2016-5-22T8:55:21Z</time></trkpt>
<trkpt lat="46.1702383" lon="7.3245350"><ele></ele><time>2016-5-22T8:55:24Z</time></trkpt>
<trkpt lat="46.1702450" lon="7.3245517"><ele></ele><time>2016-5-22T8:55:27Z</time></trkpt>
<trkpt lat="46.1702500" lon="7.3245683"><ele></ele><time>2016-5-22T8:55:30Z</time></trkpt>
<trkpt lat="46.1702550" lon="7.3245833"><ele></ele><time>2016-5-22T8:55:33Z</time></trkpt>
<trkpt lat="46.1702600" lon="7.3245967"><ele></ele><time>2016-5-22T8:55:36Z</time></trkpt>
<trkpt lat="46.1702617" lon="7.3246100"><ele></ele><time>2016-5-22T8:55:39Z</time></trkpt>
<trkpt lat="46.1702617" lon="7.3246100"><ele></ele><time>2016-5-22T8:55:42Z</time></trkpt>
<trkpt lat="46.1702633" lon="7.3246317"><ele></ele><time>2016-5-22T8:55:45Z</time></trkpt>
<trkpt lat="46.1702617" lon="7.3246517"><ele></ele><time>2016-5-22T8:55:48Z</time></trkpt>
<trkpt lat="46.1702567" lon="7.3246683"><ele></ele><time>2016-5-22T8:55:51Z</time></trkpt>
<trkpt lat="46.1702517" lon="7.3246850"><ele></ele><time>2016-5-22T8:55:54Z</time></trkpt>
<trkpt lat="46.1702450" lon="7.3247000"><ele></ele><time>2016-5-22T8:55:57Z</time></trkpt>
<trkpt lat="46.1702450" lon="7.3247033"><ele></ele><time>2016-5-22T8:56:0Z</time></trkpt>
<trkpt lat="46.1702433" lon="7.3247033"><ele></ele><time>2016-5-22T8:56:3Z</time></trkpt>
<trkpt lat="46.1702383" lon="7.3247050"><ele></ele><time>2016-5-22T8:56:6Z</time></trkpt>
<trkpt lat="46.1702300" lon="7.3247167"><ele></ele><time>2016-5-22T8:56:9Z</time></trkpt>
<trkpt lat="46.1702217" lon="7.3247317"><ele></ele><time>2016-5-22T8:56:12Z</time></trkpt>
<trkpt lat="46.1702167" lon="7.3247483"><ele></ele><time>2016-5-22T8:56:15Z</time></trkpt>
<trkpt lat="46.1702133" lon="7.3247617"><ele></ele><time>2016-5-22T8:56:18Z</time></trkpt>
<trkpt lat="46.1702133" lon="7.3247617"><ele></ele><time>2016-5-22T8:56:21Z</time></trkpt>
<trkpt lat="46.1702083" lon="7.3247767"><ele></ele><time>2016-5-22T8:56:24Z</time></trkpt>
<trkpt lat="46.1702033" lon="7.3247967"><ele></ele><time>2016-5-22T8:56:27Z</time></trkpt>
<trkpt lat="46.1701983" lon="7.3248200"><ele></ele><time>2016-5-22T8:56:30Z</time></trkpt>
<trkpt lat="46.1701967" lon="7.3248450"><ele></ele><time>2016-5-22T8:56:33Z</time></trkpt>
<trkpt lat="46.1701950" lon="7.3248667"><ele></ele><time>2016-5-22T8:56:36Z</time></trkpt>
<trkpt lat="46.1701967" lon="7.3248883"><ele></ele><time>2016-5-22T8:56:39Z</time></trkpt>
<trkpt lat="46.1701983" lon="7.3249100"><ele></ele><time>2016-5-22T8:56:42Z</time></trkpt>
<trkpt lat="46.1702017" lon="7.3249283"><ele></ele><time>2016-5-22T8:56:45Z</time></trkpt>
<trkpt lat="46.1702050" lon="7.3249500"><ele></ele><time>2016-5-22T8:56:48Z</time></trkpt>
<trkpt lat="46.1702083" lon="7.3249683"><ele></ele><time>2016-5-22T8:56:51Z</time></trkpt>
<trkpt lat="46.1702117" lon="7.3249867"><ele></ele><time>2016-5-22T8:56:54Z</time></trkpt>
<trkpt lat="46.1702133" lon="7.3250050"><ele></ele><time>2016-5-22T8:56:57Z</time></trkpt>
<trkpt lat="46.1702133" lon="7.3250050"><ele></ele><time>2016-5-22T8:57:0Z</time></trkpt>
<trkpt lat="46.1702167" lon="7.3250200"><ele></ele><time>2016-5-22T8:57:3Z</time></trkpt>
<trkpt lat="46.1702200" lon="7.3250367"><ele></ele><time>2016-5-22T8:57:6Z</time></trkpt>
<trkpt lat="46.1702267" lon="7.3250517"><ele></ele><time>2016-5-22T8:57:9Z</time></trkpt>
<trkpt lat="46.1702333" lon="7.3250683"><ele></ele><time>2016-5-22T8:57:12Z</time></trkpt>
<trkpt lat="46.1702383" lon="7.3250850"><ele></ele><time>2016-5-22T8:57:15Z</time></trkpt>
<trkpt lat="46.1702417" lon="7.3251000"><ele></ele><time>2016-5-22T8:57:18Z</time></trkpt>
<trkpt lat="46.1702450" lon="7.3251150"><ele></ele><time>2016-5-22T8:57:21Z</time></trkpt>
<trkpt lat="46.1702517" lon="7.3251283"><ele></ele><time>2016-5-22T8:57:24Z</time></trkpt>
<trkpt lat="46.1702567" lon="7.3251367"><ele></ele><time>2016-5-22T8:57:27Z</time></trkpt>
<trkpt lat="46.1702633" lon="7.3251450"><ele></ele><time>2016-5-22T8:57:30Z</time></trkpt>
<trkpt lat="46.1702717" lon="7.3251517"><ele></ele><time>2016-5-22T8:57:33Z</time></trkpt>
<trkpt lat="46.1702800" lon="7.3251583"><ele></ele><time>2016-5-22T8:57:36Z</time></trkpt>
<trkpt lat="46.1702800" lon="7.3251583"><ele></ele><time>2016-5-22T8:57:39Z</time></trkpt>
<trkpt lat="46.1702883" lon="7.3251700"><ele></ele><time>2016-5-22T8:57:42Z</time></trkpt>
<trkpt lat="46.1702950" lon="7.3251783"><ele></ele><time>2016-5-22T8:57:45Z</time></trkpt>
<trkpt lat="46.1702983" lon="7.3251900"><ele></ele><time>2016-5-22T8:57:48Z</time></trkpt>
<trkpt lat="46.1703033" lon="7.3252017"><ele></ele><time>2016-5-22T8:57:51Z</time></trkpt>
<trkpt lat="46.1703083" lon="7.3252133"><ele></ele><time>2016-5-22T8:57:54Z</time></trkpt>
<trkpt lat="46.1703167" lon="7.3252233"><ele></ele><time>2016-5-22T8:57:57Z</time></trkpt>
<trkpt lat="46.1703250" lon="7.3252300"><ele></ele><time>2016-5-22T8:58:0Z</time></trkpt>
<trkpt lat="46.1703350" lon="7.3252383"><ele></ele><time>2016-5-22T8:58:3Z</time></trkpt>
<trkpt lat="46.1703467" lon="7.3252450"><ele></ele><time>2016-5-22T8:58:6Z</time></trkpt>
<trkpt lat="46.1703583" lon="7.3252533"><ele></ele><time>2016-5-22T8:58:9Z</time></trkpt>
<trkpt lat="46.1703683" lon="7.3252583"><ele></ele><time>2016-5-22T8:58:12Z</time></trkpt>
<trkpt lat="46.1703767" lon="7.3252633"><ele></ele><time>2016-5-22T8:58:15Z</time></trkpt>
<trkpt lat="46.1703767" lon="7.3252633"><ele></ele><time>2016-5-22T8:58:18Z</time></trkpt>
<trkpt lat="46.1703817" lon="7.3252650"><ele></ele><time>2016-5-22T8:58:21Z</time></trkpt>
<trkpt lat="46.1703817" lon="7.3252650"><ele></ele><time>2016-5-22T8:58:24Z</time></trkpt>
<trkpt lat="46.1703817" lon="7.3252650"><ele></ele><time>2016-5-22T8:58:27Z</time></trkpt>
<trkpt lat="46.1703817" lon="7.3252650"><ele></ele><time>2016-5-22T8:58:30Z</time></trkpt>
<trkpt lat="46.1703817" lon="7.3252650"><ele></ele><time>2016-5-22T8:58:33Z</time></trkpt>
<trkpt lat="46.1703883" lon="7.3252533"><ele></ele><time>2016-5-22T8:58:36Z</time></trkpt>
<trkpt lat="46.1703967" lon="7.3252550"><ele></ele><time>2016-5-22T8:58:39Z</time></trkpt>
<trkpt lat="46.1704100" lon="7.3252583"><ele></ele><time>2016-5-22T8:58:42Z</time></trkpt>
<trkpt lat="46.1704250" lon="7.3252633"><ele></ele><time>2016-5-22T8:58:45Z</time></trkpt>
<trkpt lat="46.1704367" lon="7.3252617"><ele></ele><time>2016-5-22T8:58:48Z</time></trkpt>
<trkpt lat="46.1704483" lon="7.3252617"><ele></ele><time>2016-5-22T8:58:51Z</time></trkpt>
<trkpt lat="46.1704617" lon="7.3252667"><ele></ele><time>2016-5-22T8:58:54Z</time></trkpt>
<trkpt lat="46.1704617" lon="7.3252667"><ele></ele><time>2016-5-22T8:58:57Z</time></trkpt>
<trkpt lat="46.1704733" lon="7.3252717"><ele></ele><time>2016-5-22T8:59:0Z</time></trkpt>
<trkpt lat="46.1704833" lon="7.3252750"><ele></ele><time>2016-5-22T8:59:3Z</time></trkpt>
<trkpt lat="46.1704950" lon="7.3252783"><ele></ele><time>2016-5-22T8:59:6Z</time></trkpt>
<trkpt lat="46.1705067" lon="7.3252800"><ele></ele><time>2016-5-22T8:59:9Z</time></trkpt>
<trkpt lat="46.1705183" lon="7.3252883"><ele></ele><time>2016-5-22T8:59:12Z</time></trkpt>
<trkpt lat="46.1705300" lon="7.3253050"><ele></ele><time>2016-5-22T8:59:15Z</time></trkpt>
<trkpt lat="46.1705417" lon="7.3253233"><ele></ele><time>2016-5-22T8:59:18Z</time></trkpt>
<trkpt lat="46.1705533" lon="7.3253367"><ele></ele><time>2016-5-22T8:59:21Z</time></trkpt>
<trkpt lat="46.1705667" lon="7.3253417"><ele></ele><time>2016-5-22T8:59:24Z</time></trkpt>
<trkpt lat="46.1705783" lon="7.3253433"><ele></ele><time>2016-5-22T8:59:27Z</time></trkpt>
<trkpt lat="46.1705917" lon="7.3253450"><ele></ele><time>2016-5-22T8:59:30Z</time></trkpt>
<trkpt lat="46.1706033" lon="7.3253483"><ele></ele><time>2016-5-22T8:59:33Z</time></trkpt>
<trkpt lat="46.1706033" lon="7.3253483"><ele></ele><time>2016-5-22T8:59:36Z</time></trkpt>
<trkpt lat="46.1706167" lon="7.3253617"><ele></ele><time>2016-5-22T8:59:39Z</time></trkpt>
<trkpt lat="46.1706300" lon="7.3253750"><ele></ele><time>2016-5-22T8:59:42Z</time></trkpt>
<trkpt lat="46.1706400" lon="7.3253883"><ele></ele><time>2016-5-22T8:59:45Z</time></trkpt>
<trkpt lat="46.1706500" lon="7.3254033"><ele></ele><time>2016-5-22T8:59:48Z</time></trkpt>
<trkpt lat="46.1706633" lon="7.3254150"><ele></ele><time>2016-5-22T8:59:51Z</time></trkpt>
<trkpt lat="46.1706800" lon="7.3254250"><ele></ele><time>2016-5-22T8:59:54Z</time></trkpt>
<trkpt lat="46.1706967" lon="7.3254333"><ele></ele><time>2016-5-22T8:59:57Z</time></trkpt>
<trkpt lat="46.1707117" lon="7.3254400"><ele></ele><time>2016-5-22T9:0:0Z</time></trkpt>
<trkpt lat="46.1707233" lon="7.3254500"><ele></ele><time>2016-5-22T9:0:3Z</time></trkpt>
<trkpt lat="46.1707350" lon="7.3254617"><ele></ele><time>2016-5-22T9:0:6Z</time></trkpt>
<trkpt lat="46.1707467" lon="7.3254750"><ele></ele><time>2016-5-22T9:0:9Z</time></trkpt>
<trkpt lat="46.1707600" lon="7.3254917"><ele></ele><time>2016-5-22T9:0:12Z</time></trkpt>
<trkpt lat="46.1707600" lon="7.3254917"><ele></ele><time>2016-5-22T9:0:15Z</time></trkpt>
<trkpt lat="46.1707733" lon="7.3255100"><ele></ele><time>2016-5-22T9:0:18Z</time></trkpt>
<trkpt lat="46.1707850" lon="7.3255250"><ele></ele><time>2016-5-22T9:0:21Z</time></trkpt>
<trkpt lat="46.1707967" lon="7.3255400"><ele></ele><time>2016-5-22T9:0:24Z</time></trkpt>
<trkpt lat="46.1708050" lon="7.3255550"><ele></ele><time>2016-5-22T9:0:27Z</time></trkpt>
<trkpt lat="46.1708083" lon="7.3255683"><ele></ele><time>2016-5-22T9:0:30Z</time></trkpt>
<trkpt lat="46.1708167" lon="7.3255850"><ele></ele><time>2016-5-22T9:0:33Z</time></trkpt>
<trkpt lat="46.1708283" lon="7.3256017"><ele></ele><time>2016-5-22T9:0:36Z</time></trkpt>
<trkpt lat="46.1708433" lon="7.3256167"><ele></ele><time>2016-5-22T9:0:39Z</time></trkpt>
<trkpt lat="46.1708600" lon="7.3256367"><ele></ele><time>2016-5-22T9:0:42Z</time></trkpt>
<trkpt lat="46.1708733" lon="7.3256517"><ele></ele><time>2016-5-22T9:0:45Z</time></trkpt>
<trkpt lat="46.1708850" lon="7.3256633"><ele></ele><time>2016-5-22T9:0:48Z</time></trkpt>
<trkpt lat="46.1708983" lon="7.3256750"><ele></ele><time>2016-5-22T9:0:51Z</time></trkpt>
<trkpt lat="46.1708983" lon="7.3256750"><ele></ele><time>2016-5-22T9:0:54Z</time></trkpt>
<trkpt lat="46.1709133" lon="7.3256817"><ele></ele><time>2016-5-22T9:0:57Z</time></trkpt>
<trkpt lat="46.1709283" lon="7.3256867"><ele></ele><time>2016-5-22T9:1:0Z</time></trkpt>
<trkpt lat="46.1709450" lon="7.3256917"><ele></ele><time>2016-5-22T9:1:3Z</time></trkpt>
<trkpt lat="46.1709633" lon="7.3257000"><ele></ele><time>2016-5-22T9:1:6Z</time></trkpt>
<trkpt lat="46.1709800" lon="7.3257100"><ele></ele><time>2016-5-22T9:1:9Z</time></trkpt>
<trkpt lat="46.1709917" lon="7.3257183"><ele></ele><time>2016-5-22T9:1:12Z</time></trkpt>
<trkpt lat="46.1710000" lon="7.3257300"><ele></ele><time>2016-5-22T9:1:15Z</time></trkpt>
<trkpt lat="46.1710100" lon="7.3257367"><ele></ele><time>2016-5-22T9:1:18Z</time></trkpt>
<trkpt lat="46.1710283" lon="7.3257467"><ele></ele><time>2016-5-22T9:1:21Z</time></trkpt>
<trkpt lat="46.1710483" lon="7.3257583"><ele></ele><time>2016-5-22T9:1:24Z</time></trkpt>
<trkpt lat="46.1710650" lon="7.3257700"><ele></ele><time>2016-5-22T9:1:27Z</time></trkpt>
<trkpt lat="46.1710817" lon="7.3257850"><ele></ele><time>2016-5-22T9:1:30Z</time></trkpt>
<trkpt lat="46.1710817" lon="7.3257850"><ele></ele><time>2016-5-22T9:1:33Z</time></trkpt>
<trkpt lat="46.1711000" lon="7.3257950"><ele></ele><time>2016-5-22T9:1:36Z</time></trkpt>
<trkpt lat="46.1711217" lon="7.3258017"><ele></ele><time>2016-5-22T9:1:39Z</time></trkpt>
<trkpt lat="46.1711367" lon="7.3258050"><ele></ele><time>2016-5-22T9:1:42Z</time></trkpt>
<trkpt lat="46.1711500" lon="7.3258050"><ele></ele><time>2016-5-22T9:1:45Z</time></trkpt>
<trkpt lat="46.1711700" lon="7.3258033"><ele></ele><time>2016-5-22T9:1:48Z</time></trkpt>
<trkpt lat="46.1711850" lon="7.3258017"><ele></ele><time>2016-5-22T9:1:51Z</time></trkpt>
<trkpt lat="46.1711967" lon="7.3258000"><ele></ele><time>2016-5-22T9:1:54Z</time></trkpt>
<trkpt lat="46.1712083" lon="7.3258017"><ele></ele><time>2016-5-22T9:1:57Z</time></trkpt>
<trkpt lat="46.1712167" lon="7.3258033"><ele></ele><time>2016-5-22T9:2:0Z</time></trkpt>
<trkpt lat="46.1712300" lon="7.3258117"><ele></ele><time>2016-5-22T9:2:3Z</time></trkpt>
<trkpt lat="46.1712433" lon="7.3258267"><ele></ele><time>2016-5-22T9:2:6Z</time></trkpt>
<trkpt lat="46.1712567" lon="7.3258400"><ele></ele><time>2016-5-22T9:2:9Z</time></trkpt>
<trkpt lat="46.1712567" lon="7.3258400"><ele></ele><time>2016-5-22T9:2:12Z</time></trkpt>
<trkpt lat="46.1712700" lon="7.3258500"><ele></ele><time>2016-5-22T9:2:15Z</time></trkpt>
<trkpt lat="46.1712800" lon="7.3258567"><ele></ele><time>2016-5-22T9:2:18Z</time></trkpt>
<trkpt lat="46.1712917" lon="7.3258650"><ele></ele><time>2016-5-22T9:2:21Z</time></trkpt>
<trkpt lat="46.1713033" lon="7.3258733"><ele></ele><time>2016-5-22T9:2:24Z</time></trkpt>
<trkpt lat="46.1713150" lon="7.3258867"><ele></ele><time>2016-5-22T9:2:27Z</time></trkpt>
<trkpt lat="46.1713267" lon="7.3259050"><ele></ele><time>2016-5-22T9:2:30Z</time></trkpt>
<trkpt lat="46.1713350" lon="7.3259250"><ele></ele><time>2016-5-22T9:2:33Z</time></trkpt>
<trkpt lat="46.1713450" lon="7.3259433"><ele></ele><time>2016-5-22T9:2:36Z</time></trkpt>
<trkpt lat="46.1713567" lon="7.3259600"><ele></ele><time>2016-5-22T9:2:39Z</time></trkpt>
<trkpt lat="46.1713683" lon="7.3259800"><ele></ele><time>2016-5-22T9:2:42Z</time></trkpt>
<trkpt lat="46.1713783" lon="7.3260000"><ele></ele><time>2016-5-22T9:2:45Z</time></trkpt>
<trkpt lat="46.1713883" lon="7.3260150"><ele></ele><time>2016-5-22T9:2:48Z</time></trkpt>
<trkpt lat="46.1713883" lon="7.3260150"><ele></ele><time>2016-5-22T9:2:51Z</time></trkpt>
<trkpt lat="46.1713950" lon="7.3260300"><ele></ele><time>2016-5-22T9:2:54Z</time></trkpt>
<trkpt lat="46.1714017" lon="7.3260467"><ele></ele><time>2016-5-22T9:2:57Z</time></trkpt>
<trkpt lat="46.1714100" lon="7.3260667"><ele></ele><time>2016-5-22T9:3:0Z</time></trkpt>
<trkpt lat="46.1714200" lon="7.3260900"><ele></ele><time>2016-5-22T9:3:3Z</time></trkpt>
<trkpt lat="46.1714267" lon="7.3261100"><ele></ele><time>2016-5-22T9:3:6Z</time></trkpt>
<trkpt lat="46.1714383" lon="7.3261283"><ele></ele><time>2016-5-22T9:3:9Z</time></trkpt>
<trkpt lat="46.1714517" lon="7.3261450"><ele></ele><time>2016-5-22T9:3:12Z</time></trkpt>
<trkpt lat="46.1714617" lon="7.3261550"><ele></ele><time>2016-5-22T9:3:15Z</time></trkpt>
<trkpt lat="46.1714733" lon="7.3261667"><ele></ele><time>2016-5-22T9:3:18Z</time></trkpt>
<trkpt lat="46.1714900" lon="7.3261733"><ele></ele><time>2016-5-22T9:3:21Z</time></trkpt>
<trkpt lat="46.1715083" lon="7.3261800"><ele></ele><time>2016-5-22T9:3:24Z</time></trkpt>
<trkpt lat="46.1715300" lon="7.3261850"><ele></ele><time>2016-5-22T9:3:27Z</time></trkpt>
<trkpt lat="46.1715300" lon="7.3261850"><ele></ele><time>2016-5-22T9:3:30Z</time></trkpt>
<trkpt lat="46.1715517" lon="7.3261917"><ele></ele><time>2016-5-22T9:3:33Z</time></trkpt>
<trkpt lat="46.1715717" lon="7.3261967"><ele></ele><time>2016-5-22T9:3:36Z</time></trkpt>
<trkpt lat="46.1715933" lon="7.3262083"><ele></ele><time>2016-5-22T9:3:39Z</time></trkpt>
<trkpt lat="46.1716117" lon="7.3262200"><ele></ele><time>2016-5-22T9:3:42Z</time></trkpt>
<trkpt lat="46.1716283" lon="7.3262300"><ele></ele><time>2016-5-22T9:3:45Z</time></trkpt>
<trkpt lat="46.1716450" lon="7.3262283"><ele></ele><time>2016-5-22T9:3:48Z</time></trkpt>
<trkpt lat="46.1716600" lon="7.3262200"><ele></ele><time>2016-5-22T9:3:51Z</time></trkpt>
<trkpt lat="46.1716733" lon="7.3262100"><ele></ele><time>2016-5-22T9:3:54Z</time></trkpt>
<trkpt lat="46.1716867" lon="7.3262100"><ele></ele><time>2016-5-22T9:3:57Z</time></trkpt>
<trkpt lat="46.1716983" lon="7.3262200"><ele></ele><time>2016-5-22T9:4:0Z</time></trkpt>
<trkpt lat="46.1717083" lon="7.3262333"><ele></ele><time>2016-5-22T9:4:3Z</time></trkpt>
<trkpt lat="46.1717200" lon="7.3262433"><ele></ele><time>2016-5-22T9:4:6Z</time></trkpt>
<trkpt lat="46.1717200" lon="7.3262433"><ele></ele><time>2016-5-22T9:4:9Z</time></trkpt>
<trkpt lat="46.1717317" lon="7.3262533"><ele></ele><time>2016-5-22T9:4:12Z</time></trkpt>
<trkpt lat="46.1717433" lon="7.3262600"><ele></ele><time>2016-5-22T9:4:15Z</time></trkpt>
<trkpt lat="46.1717550" lon="7.3262700"><ele></ele><time>2016-5-22T9:4:18Z</time></trkpt>
<trkpt lat="46.1717650" lon="7.3262883"><ele></ele><time>2016-5-22T9:4:21Z</time></trkpt>
<trkpt lat="46.1717733" lon="7.3263117"><ele></ele><time>2016-5-22T9:4:24Z</time></trkpt>
<trkpt lat="46.1717817" lon="7.3263300"><ele></ele><time>2016-5-22T9:4:27Z</time></trkpt>
<trkpt lat="46.1717867" lon="7.3263467"><ele></ele><time>2016-5-22T9:4:30Z</time></trkpt>
<trkpt lat="46.1717900" lon="7.3263667"><ele></ele><time>2016-5-22T9:4:33Z</time></trkpt>
<trkpt lat="46.1717900" lon="7.3263900"><ele></ele><time>2016-5-22T9:4:36Z</time></trkpt>
<trkpt lat="46.1717833" lon="7.3264167"><ele></ele><time>2016-5-22T9:4:39Z</time></trkpt>
<trkpt lat="46.1717850" lon="7.3264367"><ele></ele><time>2016-5-22T9:4:42Z</time></trkpt>
<trkpt lat="46.1717917" lon="7.3264583"><ele></ele><time>2016-5-22T9:4:45Z</time></trkpt>
<trkpt lat="46.1717917" lon="7.3264583"><ele></ele><time>2016-5-22T9:4:48Z</time></trkpt>
<trkpt lat="46.1718050" lon="7.3264800"><ele></ele><time>2016-5-22T9:4:51Z</time></trkpt>
<trkpt lat="46.1718200" lon="7.3265017"><ele></ele><time>2016-5-22T9:4:54Z</time></trkpt>
<trkpt lat="46.1718350" lon="7.3265217"><ele></ele><time>2016-5-22T9:4:57Z</time></trkpt>
<trkpt lat="46.1718500" lon="7.3265383"><ele></ele><time>2016-5-22T9:5:0Z</time></trkpt>
<trkpt lat="46.1718617" lon="7.3265567"><ele></ele><time>2016-5-22T9:5:3Z</time></trkpt>
<trkpt lat="46.1718750" lon="7.3265750"><ele></ele><time>2016-5-22T9:5:6Z</time></trkpt>
<trkpt lat="46.1718867" lon="7.3265883"><ele></ele><time>2016-5-22T9:5:9Z</time></trkpt>
<trkpt lat="46.1719017" lon="7.3266017"><ele></ele><time>2016-5-22T9:5:12Z</time></trkpt>
<trkpt lat="46.1719167" lon="7.3266117"><ele></ele><time>2016-5-22T9:5:15Z</time></trkpt>
<trkpt lat="46.1719317" lon="7.3266183"><ele></ele><time>2016-5-22T9:5:18Z</time></trkpt>
<trkpt lat="46.1719483" lon="7.3266283"><ele></ele><time>2016-5-22T9:5:21Z</time></trkpt>
<trkpt lat="46.1719617" lon="7.3266383"><ele></ele><time>2016-5-22T9:5:24Z</time></trkpt>
<trkpt lat="46.1719617" lon="7.3266383"><ele></ele><time>2016-5-22T9:5:27Z</time></trkpt>
<trkpt lat="46.1719750" lon="7.3266483"><ele></ele><time>2016-5-22T9:5:30Z</time></trkpt>
<trkpt lat="46.1719867" lon="7.3266583"><ele></ele><time>2016-5-22T9:5:33Z</time></trkpt>
<trkpt lat="46.1719983" lon="7.3266700"><ele></ele><time>2016-5-22T9:5:36Z</time></trkpt>
<trkpt lat="46.1720117" lon="7.3266850"><ele></ele><time>2016-5-22T9:5:39Z</time></trkpt>
<trkpt lat="46.1720267" lon="7.3267050"><ele></ele><time>2016-5-22T9:5:42Z</time></trkpt>
<trkpt lat="46.1720400" lon="7.3267233"><ele></ele><time>2016-5-22T9:5:45Z</time></trkpt>
<trkpt lat="46.1720483" lon="7.3267400"><ele></ele><time>2016-5-22T9:5:48Z</time></trkpt>
<trkpt lat="46.1720550" lon="7.3267533"><ele></ele><time>2016-5-22T9:5:51Z</time></trkpt>
<trkpt lat="46.1720617" lon="7.3267683"><ele></ele><time>2016-5-22T9:5:54Z</time></trkpt>
<trkpt lat="46.1720683" lon="7.3267900"><ele></ele><time>2016-5-22T9:5:57Z</time></trkpt>
<trkpt lat="46.1720733" lon="7.3268133"><ele></ele><time>2016-5-22T9:6:0Z</time></trkpt>
<trkpt lat="46.1720783" lon="7.3268350"><ele></ele><time>2016-5-22T9:6:3Z</time></trkpt>
<trkpt lat="46.1720783" lon="7.3268350"><ele></ele><time>2016-5-22T9:6:6Z</time></trkpt>
<trkpt lat="46.1720817" lon="7.3268533"><ele></ele><time>2016-5-22T9:6:9Z</time></trkpt>
<trkpt lat="46.1720867" lon="7.3268750"><ele></ele><time>2016-5-22T9:6:12Z</time></trkpt>
<trkpt lat="46.1720933" lon="7.3268950"><ele></ele><time>2016-5-22T9:6:15Z</time></trkpt>
<trkpt lat="46.1720983" lon="7.3269167"><ele></ele><time>2016-5-22T9:6:18Z</time></trkpt>
<trkpt lat="46.1721000" lon="7.3269367"><ele></ele><time>2016-5-22T9:6:21Z</time></trkpt>
<trkpt lat="46.1721050" lon="7.3269567"><ele></ele><time>2016-5-22T9:6:24Z</time></trkpt>
<trkpt lat="46.1721083" lon="7.3269750"><ele></ele><time>2016-5-22T9:6:27Z</time></trkpt>
<trkpt lat="46.1721133" lon="7.3269900"><ele></ele><time>2016-5-22T9:6:30Z</time></trkpt>
<trkpt lat="46.1721167" lon="7.3270117"><ele></ele><time>2016-5-22T9:6:33Z</time></trkpt>
<trkpt lat="46.1721200" lon="7.3270317"><ele></ele><time>2016-5-22T9:6:36Z</time></trkpt>
<trkpt lat="46.1721233" lon="7.3270533"><ele></ele><time>2016-5-22T9:6:39Z</time></trkpt>
<trkpt lat="46.1721267" lon="7.3270733"><ele></ele><time>2016-5-22T9:6:42Z</time></trkpt>
<trkpt lat="46.1721267" lon="7.3270733"><ele></ele><time>2016-5-22T9:6:45Z</time></trkpt>
<trkpt lat="46.1721300" lon="7.3270933"><ele></ele><time>2016-5-22T9:6:48Z</time></trkpt>
<trkpt lat="46.1721333" lon="7.3271117"><ele></ele><time>2016-5-22T9:6:51Z</time></trkpt>
<trkpt lat="46.1721350" lon="7.3271283"><ele></ele><time>2016-5-22T9:6:54Z</time></trkpt>
<trkpt lat="46.1721350" lon="7.3271433"><ele></ele><time>2016-5-22T9:6:57Z</time></trkpt>
<trkpt lat="46.1721350" lon="7.3271600"><ele></ele><time>2016-5-22T9:7:0Z</time></trkpt>
<trkpt lat="46.1721367" lon="7.3271767"><ele></ele><time>2016-5-22T9:7:3Z</time></trkpt>
<trkpt lat="46.1721417" lon="7.3271950"><ele></ele><time>2016-5-22T9:7:6Z</time></trkpt>
<trkpt lat="46.1721450" lon="7.3272133"><ele></ele><time>2016-5-22T9:7:9Z</time></trkpt>
<trkpt lat="46.1721483" lon="7.3272317"><ele></ele><time>2016-5-22T9:7:12Z</time></trkpt>
<trkpt lat="46.1721500" lon="7.3272500"><ele></ele><time>2016-5-22T9:7:15Z</time></trkpt>
<trkpt lat="46.1721533" lon="7.3272683"><ele></ele><time>2016-5-22T9:7:18Z</time></trkpt>
<trkpt lat="46.1721533" lon="7.3272850"><ele></ele><time>2016-5-22T9:7:21Z</time></trkpt>
<trkpt lat="46.1721533" lon="7.3272850"><ele></ele><time>2016-5-22T9:7:24Z</time></trkpt>
<trkpt lat="46.1721517" lon="7.3273017"><ele></ele><time>2016-5-22T9:7:27Z</time></trkpt>
<trkpt lat="46.1721517" lon="7.3273200"><ele></ele><time>2016-5-22T9:7:30Z</time></trkpt>
<trkpt lat="46.1721533" lon="7.3273383"><ele></ele><time>2016-5-22T9:7:33Z</time></trkpt>
<trkpt lat="46.1721550" lon="7.3273583"><ele></ele><time>2016-5-22T9:7:36Z</time></trkpt>
<trkpt lat="46.1721567" lon="7.3273767"><ele></ele><time>2016-5-22T9:7:39Z</time></trkpt>
<trkpt lat="46.1721550" lon="7.3273950"><ele></ele><time>2016-5-22T9:7:42Z</time></trkpt>
<trkpt lat="46.1721533" lon="7.3274150"><ele></ele><time>2016-5-22T9:7:45Z</time></trkpt>
<trkpt lat="46.1721500" lon="7.3274350"><ele></ele><time>2016-5-22T9:7:48Z</time></trkpt>
<trkpt lat="46.1721467" lon="7.3274550"><ele></ele><time>2016-5-22T9:7:51Z</time></trkpt>
<trkpt lat="46.1721467" lon="7.3274750"><ele></ele><time>2016-5-22T9:7:54Z</time></trkpt>
<trkpt lat="46.1721483" lon="7.3274967"><ele></ele><time>2016-5-22T9:7:57Z</time></trkpt>
<trkpt lat="46.1721517" lon="7.3275167"><ele></ele><time>2016-5-22T9:8:0Z</time></trkpt>
<trkpt lat="46.1721517" lon="7.3275167"><ele></ele><time>2016-5-22T9:8:3Z</time></trkpt>
<trkpt lat="46.1721567" lon="7.3275350"><ele></ele><time>2016-5-22T9:8:6Z</time></trkpt>
<trkpt lat="46.1721633" lon="7.3275500"><ele></ele><time>2016-5-22T9:8:9Z</time></trkpt>
<trkpt lat="46.1721717" lon="7.3275667"><ele></ele><time>2016-5-22T9:8:12Z</time></trkpt>
<trkpt lat="46.1721783" lon="7.3275833"><ele></ele><time>2016-5-22T9:8:15Z</time></trkpt>
<trkpt lat="46.1721850" lon="7.3276033"><ele></ele><time>2016-5-22T9:8:18Z</time></trkpt>
<trkpt lat="46.1721900" lon="7.3276233"><ele></ele><time>2016-5-22T9:8:21Z</time></trkpt>
<trkpt lat="46.1721933" lon="7.3276417"><ele></ele><time>2016-5-22T9:8:24Z</time></trkpt>
<trkpt lat="46.1721983" lon="7.3276617"><ele></ele><time>2016-5-22T9:8:27Z</time></trkpt>
<trkpt lat="46.1722033" lon="7.3276783"><ele></ele><time>2016-5-22T9:8:30Z</time></trkpt>
<trkpt lat="46.1722133" lon="7.3276917"><ele></ele><time>2016-5-22T9:8:33Z</time></trkpt>
<trkpt lat="46.1722250" lon="7.3277033"><ele></ele><time>2016-5-22T9:8:36Z</time></trkpt>
<trkpt lat="46.1722383" lon="7.3277133"><ele></ele><time>2016-5-22T9:8:39Z</time></trkpt>
<trkpt lat="46.1722383" lon="7.3277133"><ele></ele><time>2016-5-22T9:8:42Z</time></trkpt>
<trkpt lat="46.1722500" lon="7.3277233"><ele></ele><time>2016-5-22T9:8:45Z</time></trkpt>
<trkpt lat="46.1722667" lon="7.3277350"><ele></ele><time>2016-5-22T9:8:48Z</time></trkpt>
<trkpt lat="46.1722800" lon="7.3277467"><ele></ele><time>2016-5-22T9:8:51Z</time></trkpt>
<trkpt lat="46.1722950" lon="7.3277533"><ele></ele><time>2016-5-22T9:8:54Z</time></trkpt>
<trkpt lat="46.1723100" lon="7.3277617"><ele></ele><time>2016-5-22T9:8:57Z</time></trkpt>
<trkpt lat="46.1723267" lon="7.3277700"><ele></ele><time>2016-5-22T9:9:0Z</time></trkpt>
<trkpt lat="46.1723433" lon="7.3277767"><ele></ele><time>2016-5-22T9:9:3Z</time></trkpt>
<trkpt lat="46.1723567" lon="7.3277817"><ele></ele><time>2016-5-22T9:9:6Z</time></trkpt>
<trkpt lat="46.1723700" lon="7.3277883"><ele></ele><time>2016-5-22T9:9:9Z</time></trkpt>
<trkpt lat="46.1723833" lon="7.3277967"><ele></ele><time>2016-5-22T9:9:12Z</time></trkpt>
<trkpt lat="46.1723983" lon="7.3278067"><ele></ele><time>2016-5-22T9:9:15Z</time></trkpt>
<trkpt lat="46.1724150" lon="7.3278117"><ele></ele><time>2016-5-22T9:9:18Z</time></trkpt>
<trkpt lat="46.1724150" lon="7.3278117"><ele></ele><time>2016-5-22T9:9:21Z</time></trkpt>
<trkpt lat="46.1724317" lon="7.3278150"><ele></ele><time>2016-5-22T9:9:24Z</time></trkpt>
<trkpt lat="46.1724467" lon="7.3278200"><ele></ele><time>2016-5-22T9:9:27Z</time></trkpt>
<trkpt lat="46.1724583" lon="7.3278300"><ele></ele><time>2016-5-22T9:9:30Z</time></trkpt>
<trkpt lat="46.1724683" lon="7.3278433"><ele></ele><time>2016-5-22T9:9:33Z</time></trkpt>
<trkpt lat="46.1724750" lon="7.3278600"><ele></ele><time>2016-5-22T9:9:36Z</time></trkpt>
<trkpt lat="46.1724800" lon="7.3278767"><ele></ele><time>2016-5-22T9:9:39Z</time></trkpt>
<trkpt lat="46.1724850" lon="7.3278867"><ele></ele><time>2016-5-22T9:9:42Z</time></trkpt>
<trkpt lat="46.1724917" lon="7.3278967"><ele></ele><time>2016-5-22T9:9:45Z</time></trkpt>
<trkpt lat="46.1725017" lon="7.3279083"><ele></ele><time>2016-5-22T9:9:48Z</time></trkpt>
<trkpt lat="46.1725117" lon="7.3279183"><ele></ele><time>2016-5-22T9:9:51Z</time></trkpt>
<trkpt lat="46.1725183" lon="7.3279283"><ele></ele><time>2016-5-22T9:9:54Z</time></trkpt>
<trkpt lat="46.1725250" lon="7.3279417"><ele></ele><time>2016-5-22T9:9:57Z</time></trkpt>
<trkpt lat="46.1725250" lon="7.3279417"><ele></ele><time>2016-5-22T9:10:0Z</time></trkpt>
<trkpt lat="46.1725283" lon="7.3279617"><ele></ele><time>2016-5-22T9:10:3Z</time></trkpt>
<trkpt lat="46.1725333" lon="7.3279833"><ele></ele><time>2016-5-22T9:10:6Z</time></trkpt>
<trkpt lat="46.1725367" lon="7.3280050"><ele></ele><time>2016-5-22T9:10:9Z</time></trkpt>
<trkpt lat="46.1725417" lon="7.3280267"><ele></ele><time>2016-5-22T9:10:12Z</time></trkpt>
<trkpt lat="46.1725433" lon="7.3280450"><ele></ele><time>2016-5-22T9:10:15Z</time></trkpt>
<trkpt lat="46.1725450" lon="7.3280633"><ele></ele><time>2016-5-22T9:10:18Z</time></trkpt>
<trkpt lat="46.1725483" lon="7.3280850"><ele></ele><time>2016-5-22T9:10:21Z</time></trkpt>
<trkpt lat="46.1725517" lon="7.3281033"><ele></ele><time>2016-5-22T9:10:24Z</time></trkpt>
<trkpt lat="46.1725533" lon="7.3281233"><ele></ele><time>2016-5-22T9:10:27Z</time></trkpt>
<trkpt lat="46.1725550" lon="7.3281450"><ele></ele><time>2016-5-22T9:10:30Z</time></trkpt>
<trkpt lat="46.1725550" lon="7.3281667"><ele></ele><time>2016-5-22T9:10:33Z</time></trkpt>
<trkpt lat="46.1725550" lon="7.3281867"><ele></ele><time>2016-5-22T9:10:36Z</time></trkpt>
<trkpt lat="46.1725550" lon="7.3281867"><ele></ele><time>2016-5-22T9:10:39Z</time></trkpt>
<trkpt lat="46.1725550" lon="7.3282067"><ele></ele><time>2016-5-22T9:10:42Z</time></trkpt>
<trkpt lat="46.1725567" lon="7.3282250"><ele></ele><time>2016-5-22T9:10:45Z</time></trkpt>
<trkpt lat="46.1725567" lon="7.3282417"><ele></ele><time>2016-5-22T9:10:48Z</time></trkpt>
<trkpt lat="46.1725600" lon="7.3282600"><ele></ele><time>2016-5-22T9:10:51Z</time></trkpt>
<trkpt lat="46.1725633" lon="7.3282817"><ele></ele><time>2016-5-22T9:10:54Z</time></trkpt>
<trkpt lat="46.1725683" lon="7.3283000"><ele></ele><time>2016-5-22T9:10:57Z</time></trkpt>
<trkpt lat="46.1725750" lon="7.3283200"><ele></ele><time>2016-5-22T9:11:0Z</time></trkpt>
<trkpt lat="46.1725800" lon="7.3283383"><ele></ele><time>2016-5-22T9:11:3Z</time></trkpt>
<trkpt lat="46.1725817" lon="7.3283567"><ele></ele><time>2016-5-22T9:11:6Z</time></trkpt>
<trkpt lat="46.1725833" lon="7.3283733"><ele></ele><time>2016-5-22T9:11:9Z</time></trkpt>
<trkpt lat="46.1725850" lon="7.3283917"><ele></ele><time>2016-5-22T9:11:12Z</time></trkpt>
<trkpt lat="46.1725883" lon="7.3284100"><ele></ele><time>2016-5-22T9:11:15Z</time></trkpt>
<trkpt lat="46.1725883" lon="7.3284100"><ele></ele><time>2016-5-22T9:11:18Z</time></trkpt>
<trkpt lat="46.1725917" lon="7.3284250"><ele></ele><time>2016-5-22T9:11:21Z</time></trkpt>
<trkpt lat="46.1725967" lon="7.3284417"><ele></ele><time>2016-5-22T9:11:24Z</time></trkpt>
<trkpt lat="46.1726000" lon="7.3284617"><ele></ele><time>2016-5-22T9:11:27Z</time></trkpt>
<trkpt lat="46.1726050" lon="7.3284800"><ele></ele><time>2016-5-22T9:11:30Z</time></trkpt>
<trkpt lat="46.1726083" lon="7.3284983"><ele></ele><time>2016-5-22T9:11:33Z</time></trkpt>
<trkpt lat="46.1726150" lon="7.3285200"><ele></ele><time>2016-5-22T9:11:36Z</time></trkpt>
<trkpt lat="46.1726217" lon="7.3285400"><ele></ele><time>2016-5-22T9:11:39Z</time></trkpt>
<trkpt lat="46.1726283" lon="7.3285600"><ele></ele><time>2016-5-22T9:11:42Z</time></trkpt>
<trkpt lat="46.1726333" lon="7.3285783"><ele></ele><time>2016-5-22T9:11:45Z</time></trkpt>
<trkpt lat="46.1726383" lon="7.3285967"><ele></ele><time>2016-5-22T9:11:48Z</time></trkpt>
<trkpt lat="46.1726417" lon="7.3286183"><ele></ele><time>2016-5-22T9:11:51Z</time></trkpt>
<trkpt lat="46.1726467" lon="7.3286400"><ele></ele><time>2016-5-22T9:11:54Z</time></trkpt>
<trkpt lat="46.1726483" lon="7.3286617"><ele></ele><time>2016-5-22T9:11:57Z</time></trkpt>
<trkpt lat="46.1726533" lon="7.3286817"><ele></ele><time>2016-5-22T9:12:0Z</time></trkpt>
<trkpt lat="46.1726583" lon="7.3287033"><ele></ele><time>2016-5-22T9:12:3Z</time></trkpt>
<trkpt lat="46.1726633" lon="7.3287250"><ele></ele><time>2016-5-22T9:12:6Z</time></trkpt>
<trkpt lat="46.1726700" lon="7.3287450"><ele></ele><time>2016-5-22T9:12:9Z</time></trkpt>
<trkpt lat="46.1726767" lon="7.3287650"><ele></ele><time>2016-5-22T9:12:12Z</time></trkpt>
<trkpt lat="46.1726850" lon="7.3287833"><ele></ele><time>2016-5-22T9:12:15Z</time></trkpt>
<trkpt lat="46.1726933" lon="7.3288000"><ele></ele><time>2016-5-22T9:12:18Z</time></trkpt>
<trkpt lat="46.1727017" lon="7.3288167"><ele></ele><time>2016-5-22T9:12:21Z</time></trkpt>
<trkpt lat="46.1727083" lon="7.3288350"><ele></ele><time>2016-5-22T9:12:24Z</time></trkpt>
<trkpt lat="46.1727150" lon="7.3288517"><ele></ele><time>2016-5-22T9:12:27Z</time></trkpt>
<trkpt lat="46.1727200" lon="7.3288683"><ele></ele><time>2016-5-22T9:12:30Z</time></trkpt>
<trkpt lat="46.1727300" lon="7.3288850"><ele></ele><time>2016-5-22T9:12:33Z</time></trkpt>
<trkpt lat="46.1727383" lon="7.3289017"><ele></ele><time>2016-5-22T9:12:36Z</time></trkpt>
<trkpt lat="46.1727467" lon="7.3289150"><ele></ele><time>2016-5-22T9:12:39Z</time></trkpt>
<trkpt lat="46.1727500" lon="7.3289300"><ele></ele><time>2016-5-22T9:12:42Z</time></trkpt>
<trkpt lat="46.1727500" lon="7.3289500"><ele></ele><time>2016-5-22T9:12:45Z</time></trkpt>
<trkpt lat="46.1727483" lon="7.3289717"><ele></ele><time>2016-5-22T9:12:48Z</time></trkpt>
<trkpt lat="46.1727467" lon="7.3289950"><ele></ele><time>2016-5-22T9:12:51Z</time></trkpt>
<trkpt lat="46.1727517" lon="7.3290217"><ele></ele><time>2016-5-22T9:12:54Z</time></trkpt>
<trkpt lat="46.1727600" lon="7.3290467"><ele></ele><time>2016-5-22T9:12:57Z</time></trkpt>
<trkpt lat="46.1727717" lon="7.3290667"><ele></ele><time>2016-5-22T9:13:0Z</time></trkpt>
<trkpt lat="46.1727817" lon="7.3290833"><ele></ele><time>2016-5-22T9:13:3Z</time></trkpt>
<trkpt lat="46.1727900" lon="7.3291017"><ele></ele><time>2016-5-22T9:13:6Z</time></trkpt>
<trkpt lat="46.1727950" lon="7.3291217"><ele></ele><time>2016-5-22T9:13:9Z</time></trkpt>
<trkpt lat="46.1728000" lon="7.3291400"><ele></ele><time>2016-5-22T9:13:12Z</time></trkpt>
<trkpt lat="46.1728017" lon="7.3291567"><ele></ele><time>2016-5-22T9:13:15Z</time></trkpt>
<trkpt lat="46.1728083" lon="7.3291767"><ele></ele><time>2016-5-22T9:13:18Z</time></trkpt>
<trkpt lat="46.1728117" lon="7.3291967"><ele></ele><time>2016-5-22T9:13:21Z</time></trkpt>
<trkpt lat="46.1728133" lon="7.3292167"><ele></ele><time>2016-5-22T9:13:24Z</time></trkpt>
<trkpt lat="46.1728150" lon="7.3292400"><ele></ele><time>2016-5-22T9:13:27Z</time></trkpt>
<trkpt lat="46.1728150" lon="7.3292650"><ele></ele><time>2016-5-22T9:13:30Z</time></trkpt>
<trkpt lat="46.1728167" lon="7.3292900"><ele></ele><time>2016-5-22T9:13:33Z</time></trkpt>
<trkpt lat="46.1728183" lon="7.3293067"><ele></ele><time>2016-5-22T9:13:36Z</time></trkpt>
<trkpt lat="46.1728183" lon="7.3293283"><ele></ele><time>2016-5-22T9:13:39Z</time></trkpt>
<trkpt lat="46.1728233" lon="7.3293533"><ele></ele><time>2016-5-22T9:13:42Z</time></trkpt>
<trkpt lat="46.1728267" lon="7.3293783"><ele></ele><time>2016-5-22T9:13:45Z</time></trkpt>
<trkpt lat="46.1728317" lon="7.3294033"><ele></ele><time>2016-5-22T9:13:48Z</time></trkpt>
<trkpt lat="46.1728367" lon="7.3294283"><ele></ele><time>2016-5-22T9:13:51Z</time></trkpt>
<trkpt lat="46.1728400" lon="7.3294533"><ele></ele><time>2016-5-22T9:13:54Z</time></trkpt>
<trkpt lat="46.1728433" lon="7.3294750"><ele></ele><time>2016-5-22T9:13:57Z</time></trkpt>
<trkpt lat="46.1728450" lon="7.3295000"><ele></ele><time>2016-5-22T9:14:0Z</time></trkpt>
<trkpt lat="46.1728483" lon="7.3295233"><ele></ele><time>2016-5-22T9:14:3Z</time></trkpt>
<trkpt lat="46.1728533" lon="7.3295483"><ele></ele><time>2016-5-22T9:14:6Z</time></trkpt>
<trkpt lat="46.1728550" lon="7.3295683"><ele></ele><time>2016-5-22T9:14:9Z</time></trkpt>
<trkpt lat="46.1728583" lon="7.3295917"><ele></ele><time>2016-5-22T9:14:12Z</time></trkpt>
<trkpt lat="46.1728617" lon="7.3296117"><ele></ele><time>2016-5-22T9:14:15Z</time></trkpt>
<trkpt lat="46.1728667" lon="7.3296317"><ele></ele><time>2016-5-22T9:14:18Z</time></trkpt>
<trkpt lat="46.1728717" lon="7.3296517"><ele></ele><time>2016-5-22T9:14:21Z</time></trkpt>
<trkpt lat="46.1728750" lon="7.3296683"><ele></ele><time>2016-5-22T9:14:24Z</time></trkpt>
<trkpt lat="46.1728800" lon="7.3296817"><ele></ele><time>2016-5-22T9:14:27Z</time></trkpt>
<trkpt lat="46.1728883" lon="7.3296967"><ele></ele><time>2016-5-22T9:14:30Z</time></trkpt>
<trkpt lat="46.1728950" lon="7.3297167"><ele></ele><time>2016-5-22T9:14:33Z</time></trkpt>
<trkpt lat="46.1728983" lon="7.3297400"><ele></ele><time>2016-5-22T9:14:36Z</time></trkpt>
<trkpt lat="46.1729033" lon="7.3297650"><ele></ele><time>2016-5-22T9:14:39Z</time></trkpt>
<trkpt lat="46.1729050" lon="7.3297883"><ele></ele><time>2016-5-22T9:14:42Z</time></trkpt>
<trkpt lat="46.1729083" lon="7.3298117"><ele></ele><time>2016-5-22T9:14:45Z</time></trkpt>
<trkpt lat="46.1729083" lon="7.3298367"><ele></ele><time>2016-5-22T9:14:48Z</time></trkpt>
<trkpt lat="46.1729117" lon="7.3298633"><ele></ele><time>2016-5-22T9:14:51Z</time></trkpt>
<trkpt lat="46.1729150" lon="7.3298917"><ele></ele><time>2016-5-22T9:14:54Z</time></trkpt>
<trkpt lat="46.1729200" lon="7.3299200"><ele></ele><time>2016-5-22T9:14:57Z</time></trkpt>
<trkpt lat="46.1729250" lon="7.3299483"><ele></ele><time>2016-5-22T9:15:0Z</time></trkpt>
<trkpt lat="46.1729317" lon="7.3299733"><ele></ele><time>2016-5-22T9:15:3Z</time></trkpt>
<trkpt lat="46.1729350" lon="7.3300000"><ele></ele><time>2016-5-22T9:15:6Z</time></trkpt>
<trkpt lat="46.1729367" lon="7.3300233"><ele></ele><time>2016-5-22T9:15:9Z</time></trkpt>
<trkpt lat="46.1729350" lon="7.3300450"><ele></ele><time>2016-5-22T9:15:12Z</time></trkpt>
<trkpt lat="46.1729367" lon="7.3300667"><ele></ele><time>2016-5-22T9:15:15Z</time></trkpt>
<trkpt lat="46.1729383" lon="7.3300900"><ele></ele><time>2016-5-22T9:15:18Z</time></trkpt>
<trkpt lat="46.1729383" lon="7.3301133"><ele></ele><time>2016-5-22T9:15:21Z</time></trkpt>
<trkpt lat="46.1729367" lon="7.3301400"><ele></ele><time>2016-5-22T9:15:24Z</time></trkpt>
<trkpt lat="46.1729350" lon="7.3301683"><ele></ele><time>2016-5-22T9:15:27Z</time></trkpt>
<trkpt lat="46.1729367" lon="7.3301950"><ele></ele><time>2016-5-22T9:15:30Z</time></trkpt>
<trkpt lat="46.1729450" lon="7.3302233"><ele></ele><time>2016-5-22T9:15:33Z</time></trkpt>
<trkpt lat="46.1729533" lon="7.3302467"><ele></ele><time>2016-5-22T9:15:36Z</time></trkpt>
<trkpt lat="46.1729583" lon="7.3302617"><ele></ele><time>2016-5-22T9:15:39Z</time></trkpt>
<trkpt lat="46.1729633" lon="7.3302733"><ele></ele><time>2016-5-22T9:15:42Z</time></trkpt>
<trkpt lat="46.1729717" lon="7.3302917"><ele></ele><time>2016-5-22T9:15:45Z</time></trkpt>
<trkpt lat="46.1729783" lon="7.3303067"><ele></ele><time>2016-5-22T9:15:48Z</time></trkpt>
<trkpt lat="46.1729867" lon="7.3303250"><ele></ele><time>2016-5-22T9:15:51Z</time></trkpt>
<trkpt lat="46.1729983" lon="7.3303500"><ele></ele><time>2016-5-22T9:15:54Z</time></trkpt>
<trkpt lat="46.1730083" lon="7.3303767"><ele></ele><time>2016-5-22T9:15:57Z</time></trkpt>
<trkpt lat="46.1730167" lon="7.3304033"><ele></ele><time>2016-5-22T9:16:0Z</time></trkpt>
<trkpt lat="46.1730233" lon="7.3304300"><ele></ele><time>2016-5-22T9:16:3Z</time></trkpt>
<trkpt lat="46.1730317" lon="7.3304550"><ele></ele><time>2016-5-22T9:16:6Z</time></trkpt>
<trkpt lat="46.1730400" lon="7.3304833"><ele></ele><time>2016-5-22T9:16:9Z</time></trkpt>
<trkpt lat="46.1730483" lon="7.3305100"><ele></ele><time>2016-5-22T9:16:12Z</time></trkpt>
<trkpt lat="46.1730533" lon="7.3305317"><ele></ele><time>2016-5-22T9:16:15Z</time></trkpt>
<trkpt lat="46.1730600" lon="7.3305517"><ele></ele><time>2016-5-22T9:16:18Z</time></trkpt>
<trkpt lat="46.1730667" lon="7.3305767"><ele></ele><time>2016-5-22T9:16:21Z</time></trkpt>
<trkpt lat="46.1730733" lon="7.3306050"><ele></ele><time>2016-5-22T9:16:24Z</time></trkpt>
<trkpt lat="46.1730750" lon="7.3306333"><ele></ele><time>2016-5-22T9:16:27Z</time></trkpt>
<trkpt lat="46.1730750" lon="7.3306617"><ele></ele><time>2016-5-22T9:16:30Z</time></trkpt>
<trkpt lat="46.1730733" lon="7.3306917"><ele></ele><time>2016-5-22T9:16:33Z</time></trkpt>
<trkpt lat="46.1730733" lon="7.3307167"><ele></ele><time>2016-5-22T9:16:36Z</time></trkpt>
<trkpt lat="46.1730700" lon="7.3307400"><ele></ele><time>2016-5-22T9:16:39Z</time></trkpt>
<trkpt lat="46.1730667" lon="7.3307617"><ele></ele><time>2016-5-22T9:16:42Z</time></trkpt>
<trkpt lat="46.1730650" lon="7.3307850"><ele></ele><time>2016-5-22T9:16:45Z</time></trkpt>
<trkpt lat="46.1730617" lon="7.3308100"><ele></ele><time>2016-5-22T9:16:48Z</time></trkpt>
<trkpt lat="46.1730600" lon="7.3308333"><ele></ele><time>2016-5-22T9:16:51Z</time></trkpt>
<trkpt lat="46.1730583" lon="7.3308550"><ele></ele><time>2016-5-22T9:16:54Z</time></trkpt>
<trkpt lat="46.1730533" lon="7.3308733"><ele></ele><time>2016-5-22T9:16:57Z</time></trkpt>
<trkpt lat="46.1730483" lon="7.3308950"><ele></ele><time>2016-5-22T9:17:0Z</time></trkpt>
<trkpt lat="46.1730417" lon="7.3309200"><ele></ele><time>2016-5-22T9:17:3Z</time></trkpt>
<trkpt lat="46.1730383" lon="7.3309433"><ele></ele><time>2016-5-22T9:17:6Z</time></trkpt>
<trkpt lat="46.1730383" lon="7.3309667"><ele></ele><time>2016-5-22T9:17:9Z</time></trkpt>
<trkpt lat="46.1730367" lon="7.3309917"><ele></ele><time>2016-5-22T9:17:12Z</time></trkpt>
<trkpt lat="46.1730367" lon="7.3310167"><ele></ele><time>2016-5-22T9:17:15Z</time></trkpt>
<trkpt lat="46.1730350" lon="7.3310450"><ele></ele><time>2016-5-22T9:17:18Z</time></trkpt>
<trkpt lat="46.1730317" lon="7.3310733"><ele></ele><time>2016-5-22T9:17:21Z</time></trkpt>
<trkpt lat="46.1730283" lon="7.3311000"><ele></ele><time>2016-5-22T9:17:24Z</time></trkpt>
<trkpt lat="46.1730250" lon="7.3311250"><ele></ele><time>2016-5-22T9:17:27Z</time></trkpt>
<trkpt lat="46.1730233" lon="7.3311517"><ele></ele><time>2016-5-22T9:17:30Z</time></trkpt>
<trkpt lat="46.1730217" lon="7.3311783"><ele></ele><time>2016-5-22T9:17:33Z</time></trkpt>
<trkpt lat="46.1730200" lon="7.3312033"><ele></ele><time>2016-5-22T9:17:36Z</time></trkpt>
<trkpt lat="46.1730183" lon="7.3312300"><ele></ele><time>2016-5-22T9:17:39Z</time></trkpt>
<trkpt lat="46.1730167" lon="7.3312567"><ele></ele><time>2016-5-22T9:17:42Z</time></trkpt>
<trkpt lat="46.1730117" lon="7.3312833"><ele></ele><time>2016-5-22T9:17:45Z</time></trkpt>
<trkpt lat="46.1730083" lon="7.3313067"><ele></ele><time>2016-5-22T9:17:48Z</time></trkpt>
<trkpt lat="46.1730050" lon="7.3313267"><ele></ele><time>2016-5-22T9:17:51Z</time></trkpt>
<trkpt lat="46.1730017" lon="7.3313517"><ele></ele><time>2016-5-22T9:17:54Z</time></trkpt>
<trkpt lat="46.1730017" lon="7.3313767"><ele></ele><time>2016-5-22T9:17:57Z</time></trkpt>
<trkpt lat="46.1730017" lon="7.3314017"><ele></ele><time>2016-5-22T9:18:0Z</time></trkpt>
<trkpt lat="46.1730033" lon="7.3314267"><ele></ele><time>2016-5-22T9:18:3Z</time></trkpt>
<trkpt lat="46.1730067" lon="7.3314517"><ele></ele><time>2016-5-22T9:18:6Z</time></trkpt>
<trkpt lat="46.1730117" lon="7.3314800"><ele></ele><time>2016-5-22T9:18:9Z</time></trkpt>
<trkpt lat="46.1730167" lon="7.3315067"><ele></ele><time>2016-5-22T9:18:12Z</time></trkpt>
<trkpt lat="46.1730233" lon="7.3315317"><ele></ele><time>2016-5-22T9:18:15Z</time></trkpt>
<trkpt lat="46.1730300" lon="7.3315517"><ele></ele><time>2016-5-22T9:18:18Z</time></trkpt>
<trkpt lat="46.1730350" lon="7.3315700"><ele></ele><time>2016-5-22T9:18:21Z</time></trkpt>
<trkpt lat="46.1730400" lon="7.3315883"><ele></ele><time>2016-5-22T9:18:24Z</time></trkpt>
<trkpt lat="46.1730467" lon="7.3316067"><ele></ele><time>2016-5-22T9:18:27Z</time></trkpt>
<trkpt lat="46.1730517" lon="7.3316267"><ele></ele><time>2016-5-22T9:18:30Z</time></trkpt>
<trkpt lat="46.1730567" lon="7.3316450"><ele></ele><time>2016-5-22T9:18:33Z</time></trkpt>
<trkpt lat="46.1730667" lon="7.3316633"><ele></ele><time>2016-5-22T9:18:36Z</time></trkpt>
<trkpt lat="46.1730750" lon="7.3316783"><ele></ele><time>2016-5-22T9:18:39Z</time></trkpt>
<trkpt lat="46.1730817" lon="7.3316833"><ele></ele><time>2016-5-22T9:18:42Z</time></trkpt>
<trkpt lat="46.1731050" lon="7.3316867"><ele></ele><time>2016-5-22T9:18:45Z</time></trkpt>
<trkpt lat="46.1731333" lon="7.3316767"><ele></ele><time>2016-5-22T9:18:48Z</time></trkpt>
<trkpt lat="46.1731567" lon="7.3316583"><ele></ele><time>2016-5-22T9:18:51Z</time></trkpt>
<trkpt lat="46.1731783" lon="7.3316333"><ele></ele><time>2016-5-22T9:18:54Z</time></trkpt>
<trkpt lat="46.1731983" lon="7.3316050"><ele></ele><time>2016-5-22T9:18:57Z</time></trkpt>
<trkpt lat="46.1732167" lon="7.3315733"><ele></ele><time>2016-5-22T9:19:0Z</time></trkpt>
<trkpt lat="46.1732333" lon="7.3315400"><ele></ele><time>2016-5-22T9:19:3Z</time></trkpt>
<trkpt lat="46.1732483" lon="7.3315083"><ele></ele><time>2016-5-22T9:19:6Z</time></trkpt>
<trkpt lat="46.1732600" lon="7.3314817"><ele></ele><time>2016-5-22T9:19:9Z</time></trkpt>
<trkpt lat="46.1732717" lon="7.3314533"><ele></ele><time>2016-5-22T9:19:12Z</time></trkpt>
<trkpt lat="46.1732833" lon="7.3314267"><ele></ele><time>2016-5-22T9:19:15Z</time></trkpt>
<trkpt lat="46.1733000" lon="7.3314050"><ele></ele><time>2016-5-22T9:19:18Z</time></trkpt>
<trkpt lat="46.1733200" lon="7.3313867"><ele></ele><time>2016-5-22T9:19:21Z</time></trkpt>
<trkpt lat="46.1733333" lon="7.3313617"><ele></ele><time>2016-5-22T9:19:24Z</time></trkpt>
<trkpt lat="46.1733433" lon="7.3313367"><ele></ele><time>2016-5-22T9:19:27Z</time></trkpt>
<trkpt lat="46.1733500" lon="7.3313150"><ele></ele><time>2016-5-22T9:19:30Z</time></trkpt>
<trkpt lat="46.1733633" lon="7.3312967"><ele></ele><time>2016-5-22T9:19:33Z</time></trkpt>
<trkpt lat="46.1733800" lon="7.3312833"><ele></ele><time>2016-5-22T9:19:36Z</time></trkpt>
<trkpt lat="46.1734000" lon="7.3312717"><ele></ele><time>2016-5-22T9:19:39Z</time></trkpt>
<trkpt lat="46.1734183" lon="7.3312583"><ele></ele><time>2016-5-22T9:19:42Z</time></trkpt>
<trkpt lat="46.1734417" lon="7.3312450"><ele></ele><time>2016-5-22T9:19:45Z</time></trkpt>
<trkpt lat="46.1734633" lon="7.3312300"><ele></ele><time>2016-5-22T9:19:48Z</time></trkpt>
<trkpt lat="46.1734817" lon="7.3312200"><ele></ele><time>2016-5-22T9:19:51Z</time></trkpt>
<trkpt lat="46.1735017" lon="7.3312133"><ele></ele><time>2016-5-22T9:19:54Z</time></trkpt>
<trkpt lat="46.1735200" lon="7.3312033"><ele></ele><time>2016-5-22T9:19:57Z</time></trkpt>
<trkpt lat="46.1735400" lon="7.3311917"><ele></ele><time>2016-5-22T9:20:0Z</time></trkpt>
<trkpt lat="46.1735633" lon="7.3311783"><ele></ele><time>2016-5-22T9:20:3Z</time></trkpt>
<trkpt lat="46.1735867" lon="7.3311583"><ele></ele><time>2016-5-22T9:20:6Z</time></trkpt>
<trkpt lat="46.1736100" lon="7.3311350"><ele></ele><time>2016-5-22T9:20:9Z</time></trkpt>
<trkpt lat="46.1736317" lon="7.3311100"><ele></ele><time>2016-5-22T9:20:12Z</time></trkpt>
<trkpt lat="46.1736467" lon="7.3310883"><ele></ele><time>2016-5-22T9:20:15Z</time></trkpt>
<trkpt lat="46.1736633" lon="7.3310667"><ele></ele><time>2016-5-22T9:20:18Z</time></trkpt>
<trkpt lat="46.1736783" lon="7.3310500"><ele></ele><time>2016-5-22T9:20:21Z</time></trkpt>
<trkpt lat="46.1737000" lon="7.3310450"><ele></ele><time>2016-5-22T9:20:24Z</time></trkpt>
<trkpt lat="46.1737267" lon="7.3310400"><ele></ele><time>2016-5-22T9:20:27Z</time></trkpt>
<trkpt lat="46.1737533" lon="7.3310383"><ele></ele><time>2016-5-22T9:20:30Z</time></trkpt>
<trkpt lat="46.1737800" lon="7.3310350"><ele></ele><time>2016-5-22T9:20:33Z</time></trkpt>
<trkpt lat="46.1738033" lon="7.3310283"><ele></ele><time>2016-5-22T9:20:36Z</time></trkpt>
<trkpt lat="46.1738233" lon="7.3310183"><ele></ele><time>2016-5-22T9:20:39Z</time></trkpt>
<trkpt lat="46.1738383" lon="7.3310033"><ele></ele><time>2016-5-22T9:20:42Z</time></trkpt>
<trkpt lat="46.1738500" lon="7.3309867"><ele></ele><time>2016-5-22T9:20:45Z</time></trkpt>
<trkpt lat="46.1738600" lon="7.3309700"><ele></ele><time>2016-5-22T9:20:48Z</time></trkpt>
<trkpt lat="46.1738717" lon="7.3309467"><ele></ele><time>2016-5-22T9:20:51Z</time></trkpt>
<trkpt lat="46.1738850" lon="7.3309250"><ele></ele><time>2016-5-22T9:20:54Z</time></trkpt>
<trkpt lat="46.1738967" lon="7.3308983"><ele></ele><time>2016-5-22T9:20:57Z</time></trkpt>
<trkpt lat="46.1739083" lon="7.3308717"><ele></ele><time>2016-5-22T9:21:0Z</time></trkpt>
<trkpt lat="46.1739233" lon="7.3308467"><ele></ele><time>2016-5-22T9:21:3Z</time></trkpt>
<trkpt lat="46.1739383" lon="7.3308233"><ele></ele><time>2016-5-22T9:21:6Z</time></trkpt>
<trkpt lat="46.1739550" lon="7.3308017"><ele></ele><time>2016-5-22T9:21:9Z</time></trkpt>
<trkpt lat="46.1739683" lon="7.3307817"><ele></ele><time>2016-5-22T9:21:12Z</time></trkpt>
<trkpt lat="46.1739833" lon="7.3307683"><ele></ele><time>2016-5-22T9:21:15Z</time></trkpt>
<trkpt lat="46.1740000" lon="7.3307617"><ele></ele><time>2016-5-22T9:21:18Z</time></trkpt>
<trkpt lat="46.1740183" lon="7.3307600"><ele></ele><time>2016-5-22T9:21:21Z</time></trkpt>
<trkpt lat="46.1740383" lon="7.3307650"><ele></ele><time>2016-5-22T9:21:24Z</time></trkpt>
<trkpt lat="46.1740583" lon="7.3307717"><ele></ele><time>2016-5-22T9:21:27Z</time></trkpt>
<trkpt lat="46.1740783" lon="7.3307800"><ele></ele><time>2016-5-22T9:21:30Z</time></trkpt>
<trkpt lat="46.1741000" lon="7.3307833"><ele></ele><time>2016-5-22T9:21:33Z</time></trkpt>
<trkpt lat="46.1741183" lon="7.3307833"><ele></ele><time>2016-5-22T9:21:36Z</time></trkpt>
<trkpt lat="46.1741367" lon="7.3307833"><ele></ele><time>2016-5-22T9:21:39Z</time></trkpt>
<trkpt lat="46.1741517" lon="7.3307883"><ele></ele><time>2016-5-22T9:21:42Z</time></trkpt>
<trkpt lat="46.1741683" lon="7.3307983"><ele></ele><time>2016-5-22T9:21:45Z</time></trkpt>
<trkpt lat="46.1741850" lon="7.3308167"><ele></ele><time>2016-5-22T9:21:48Z</time></trkpt>
<trkpt lat="46.1742033" lon="7.3308367"><ele></ele><time>2016-5-22T9:21:51Z</time></trkpt>
<trkpt lat="46.1742217" lon="7.3308550"><ele></ele><time>2016-5-22T9:21:54Z</time></trkpt>
<trkpt lat="46.1742367" lon="7.3308717"><ele></ele><time>2016-5-22T9:21:57Z</time></trkpt>
<trkpt lat="46.1742517" lon="7.3308833"><ele></ele><time>2016-5-22T9:22:0Z</time></trkpt>
<trkpt lat="46.1742700" lon="7.3308967"><ele></ele><time>2016-5-22T9:22:3Z</time></trkpt>
<trkpt lat="46.1742800" lon="7.3309017"><ele></ele><time>2016-5-22T9:22:6Z</time></trkpt>
<trkpt lat="46.1742867" lon="7.3309033"><ele></ele><time>2016-5-22T9:22:9Z</time></trkpt>
<trkpt lat="46.1743017" lon="7.3309117"><ele></ele><time>2016-5-22T9:22:12Z</time></trkpt>
<trkpt lat="46.1743200" lon="7.3309233"><ele></ele><time>2016-5-22T9:22:15Z</time></trkpt>
<trkpt lat="46.1743417" lon="7.3309400"><ele></ele><time>2016-5-22T9:22:18Z</time></trkpt>
<trkpt lat="46.1743617" lon="7.3309567"><ele></ele><time>2016-5-22T9:22:21Z</time></trkpt>
<trkpt lat="46.1743817" lon="7.3309733"><ele></ele><time>2016-5-22T9:22:24Z</time></trkpt>
<trkpt lat="46.1744033" lon="7.3309950"><ele></ele><time>2016-5-22T9:22:27Z</time></trkpt>
<trkpt lat="46.1744233" lon="7.3310167"><ele></ele><time>2016-5-22T9:22:30Z</time></trkpt>
<trkpt lat="46.1744417" lon="7.3310367"><ele></ele><time>2016-5-22T9:22:33Z</time></trkpt>
<trkpt lat="46.1744600" lon="7.3310533"><ele></ele><time>2016-5-22T9:22:36Z</time></trkpt>
<trkpt lat="46.1744800" lon="7.3310650"><ele></ele><time>2016-5-22T9:22:39Z</time></trkpt>
<trkpt lat="46.1745033" lon="7.3310767"><ele></ele><time>2016-5-22T9:22:42Z</time></trkpt>
<trkpt lat="46.1745317" lon="7.3310933"><ele></ele><time>2016-5-22T9:22:45Z</time></trkpt>
<trkpt lat="46.1745567" lon="7.3311100"><ele></ele><time>2016-5-22T9:22:48Z</time></trkpt>
<trkpt lat="46.1745733" lon="7.3311267"><ele></ele><time>2016-5-22T9:22:51Z</time></trkpt>
<trkpt lat="46.1745833" lon="7.3311483"><ele></ele><time>2016-5-22T9:22:54Z</time></trkpt>
<trkpt lat="46.1745900" lon="7.3311700"><ele></ele><time>2016-5-22T9:22:57Z</time></trkpt>
<trkpt lat="46.1745967" lon="7.3311833"><ele></ele><time>2016-5-22T9:23:0Z</time></trkpt>
<trkpt lat="46.1746083" lon="7.3311900"><ele></ele><time>2016-5-22T9:23:3Z</time></trkpt>
<trkpt lat="46.1746250" lon="7.3311967"><ele></ele><time>2016-5-22T9:23:6Z</time></trkpt>
<trkpt lat="46.1746417" lon="7.3312033"><ele></ele><time>2016-5-22T9:23:9Z</time></trkpt>
<trkpt lat="46.1746583" lon="7.3312117"><ele></ele><time>2016-5-22T9:23:12Z</time></trkpt>
<trkpt lat="46.1746750" lon="7.3312217"><ele></ele><time>2016-5-22T9:23:15Z</time></trkpt>
<trkpt lat="46.1746883" lon="7.3312300"><ele></ele><time>2016-5-22T9:23:18Z</time></trkpt>
<trkpt lat="46.1747050" lon="7.3312367"><ele></ele><time>2016-5-22T9:23:21Z</time></trkpt>
<trkpt lat="46.1747217" lon="7.3312417"><ele></ele><time>2016-5-22T9:23:24Z</time></trkpt>
<trkpt lat="46.1747417" lon="7.3312367"><ele></ele><time>2016-5-22T9:23:27Z</time></trkpt>
<trkpt lat="46.1747633" lon="7.3312283"><ele></ele><time>2016-5-22T9:23:30Z</time></trkpt>
<trkpt lat="46.1747850" lon="7.3312217"><ele></ele><time>2016-5-22T9:23:33Z</time></trkpt>
<trkpt lat="46.1748033" lon="7.3312167"><ele></ele><time>2016-5-22T9:23:36Z</time></trkpt>
<trkpt lat="46.1748217" lon="7.3312117"><ele></ele><time>2016-5-22T9:23:39Z</time></trkpt>
<trkpt lat="46.1748417" lon="7.3312050"><ele></ele><time>2016-5-22T9:23:42Z</time></trkpt>
<trkpt lat="46.1748633" lon="7.3312000"><ele></ele><time>2016-5-22T9:23:45Z</time></trkpt>
<trkpt lat="46.1748833" lon="7.3311917"><ele></ele><time>2016-5-22T9:23:48Z</time></trkpt>
<trkpt lat="46.1749033" lon="7.3311850"><ele></ele><time>2016-5-22T9:23:51Z</time></trkpt>
<trkpt lat="46.1749200" lon="7.3311750"><ele></ele><time>2016-5-22T9:23:54Z</time></trkpt>
<trkpt lat="46.1749367" lon="7.3311650"><ele></ele><time>2016-5-22T9:23:57Z</time></trkpt>
<trkpt lat="46.1749550" lon="7.3311533"><ele></ele><time>2016-5-22T9:24:0Z</time></trkpt>
<trkpt lat="46.1749733" lon="7.3311417"><ele></ele><time>2016-5-22T9:24:3Z</time></trkpt>
<trkpt lat="46.1749933" lon="7.3311350"><ele></ele><time>2016-5-22T9:24:6Z</time></trkpt>
<trkpt lat="46.1750117" lon="7.3311300"><ele></ele><time>2016-5-22T9:24:9Z</time></trkpt>
<trkpt lat="46.1750300" lon="7.3311233"><ele></ele><time>2016-5-22T9:24:12Z</time></trkpt>
<trkpt lat="46.1750483" lon="7.3311150"><ele></ele><time>2016-5-22T9:24:15Z</time></trkpt>
<trkpt lat="46.1750667" lon="7.3311117"><ele></ele><time>2016-5-22T9:24:18Z</time></trkpt>
<trkpt lat="46.1750800" lon="7.3311083"><ele></ele><time>2016-5-22T9:24:21Z</time></trkpt>
<trkpt lat="46.1750933" lon="7.3311050"><ele></ele><time>2016-5-22T9:24:24Z</time></trkpt>
<trkpt lat="46.1751050" lon="7.3311000"><ele></ele><time>2016-5-22T9:24:27Z</time></trkpt>
<trkpt lat="46.1751183" lon="7.3310933"><ele></ele><time>2016-5-22T9:24:30Z</time></trkpt>
<trkpt lat="46.1751317" lon="7.3310900"><ele></ele><time>2016-5-22T9:24:33Z</time></trkpt>
<trkpt lat="46.1751450" lon="7.3310800"><ele></ele><time>2016-5-22T9:24:36Z</time></trkpt>
<trkpt lat="46.1751583" lon="7.3310683"><ele></ele><time>2016-5-22T9:24:39Z</time></trkpt>
<trkpt lat="46.1751717" lon="7.3310583"><ele></ele><time>2016-5-22T9:24:42Z</time></trkpt>
<trkpt lat="46.1751850" lon="7.3310467"><ele></ele><time>2016-5-22T9:24:45Z</time></trkpt>
<trkpt lat="46.1752000" lon="7.3310367"><ele></ele><time>2016-5-22T9:24:48Z</time></trkpt>
<trkpt lat="46.1752183" lon="7.3310333"><ele></ele><time>2016-5-22T9:24:51Z</time></trkpt>
<trkpt lat="46.1752350" lon="7.3310317"><ele></ele><time>2016-5-22T9:24:54Z</time></trkpt>
<trkpt lat="46.1752517" lon="7.3310333"><ele></ele><time>2016-5-22T9:24:57Z</time></trkpt>
<trkpt lat="46.1752683" lon="7.3310350"><ele></ele><time>2016-5-22T9:25:0Z</time></trkpt>
<trkpt lat="46.1752867" lon="7.3310367"><ele></ele><time>2016-5-22T9:25:3Z</time></trkpt>
<trkpt lat="46.1753050" lon="7.3310417"><ele></ele><time>2016-5-22T9:25:6Z</time></trkpt>
<trkpt lat="46.1753200" lon="7.3310450"><ele></ele><time>2016-5-22T9:25:9Z</time></trkpt>
<trkpt lat="46.1753317" lon="7.3310517"><ele></ele><time>2016-5-22T9:25:12Z</time></trkpt>
<trkpt lat="46.1753450" lon="7.3310600"><ele></ele><time>2016-5-22T9:25:15Z</time></trkpt>
<trkpt lat="46.1753567" lon="7.3310683"><ele></ele><time>2016-5-22T9:25:18Z</time></trkpt>
<trkpt lat="46.1753717" lon="7.3310733"><ele></ele><time>2016-5-22T9:25:21Z</time></trkpt>
<trkpt lat="46.1753883" lon="7.3310750"><ele></ele><time>2016-5-22T9:25:24Z</time></trkpt>
<trkpt lat="46.1754050" lon="7.3310783"><ele></ele><time>2016-5-22T9:25:27Z</time></trkpt>
<trkpt lat="46.1754217" lon="7.3310783"><ele></ele><time>2016-5-22T9:25:30Z</time></trkpt>
<trkpt lat="46.1754383" lon="7.3310800"><ele></ele><time>2016-5-22T9:25:33Z</time></trkpt>
<trkpt lat="46.1754567" lon="7.3310800"><ele></ele><time>2016-5-22T9:25:36Z</time></trkpt>
<trkpt lat="46.1754767" lon="7.3310867"><ele></ele><time>2016-5-22T9:25:39Z</time></trkpt>
<trkpt lat="46.1754933" lon="7.3310983"><ele></ele><time>2016-5-22T9:25:42Z</time></trkpt>
<trkpt lat="46.1755050" lon="7.3311150"><ele></ele><time>2016-5-22T9:25:45Z</time></trkpt>
<trkpt lat="46.1755183" lon="7.3311317"><ele></ele><time>2016-5-22T9:25:48Z</time></trkpt>
<trkpt lat="46.1755333" lon="7.3311467"><ele></ele><time>2016-5-22T9:25:51Z</time></trkpt>
<trkpt lat="46.1755500" lon="7.3311617"><ele></ele><time>2016-5-22T9:25:54Z</time></trkpt>
<trkpt lat="46.1755700" lon="7.3311767"><ele></ele><time>2016-5-22T9:25:57Z</time></trkpt>
<trkpt lat="46.1755867" lon="7.3311833"><ele></ele><time>2016-5-22T9:26:0Z</time></trkpt>
<trkpt lat="46.1756033" lon="7.3311900"><ele></ele><time>2016-5-22T9:26:3Z</time></trkpt>
<trkpt lat="46.1756150" lon="7.3311950"><ele></ele><time>2016-5-22T9:26:6Z</time></trkpt>
<trkpt lat="46.1756233" lon="7.3311983"><ele></ele><time>2016-5-22T9:26:9Z</time></trkpt>
<trkpt lat="46.1756333" lon="7.3311983"><ele></ele><time>2016-5-22T9:26:12Z</time></trkpt>
<trkpt lat="46.1756483" lon="7.3311967"><ele></ele><time>2016-5-22T9:26:15Z</time></trkpt>
<trkpt lat="46.1756650" lon="7.3311933"><ele></ele><time>2016-5-22T9:26:18Z</time></trkpt>
<trkpt lat="46.1756833" lon="7.3311950"><ele></ele><time>2016-5-22T9:26:21Z</time></trkpt>
<trkpt lat="46.1757000" lon="7.3311950"><ele></ele><time>2016-5-22T9:26:24Z</time></trkpt>
<trkpt lat="46.1757183" lon="7.3311933"><ele></ele><time>2016-5-22T9:26:27Z</time></trkpt>
<trkpt lat="46.1757383" lon="7.3311917"><ele></ele><time>2016-5-22T9:26:30Z</time></trkpt>
<trkpt lat="46.1757583" lon="7.3311950"><ele></ele><time>2016-5-22T9:26:33Z</time></trkpt>
<trkpt lat="46.1757767" lon="7.3312033"><ele></ele><time>2016-5-22T9:26:36Z</time></trkpt>
<trkpt lat="46.1757950" lon="7.3312167"><ele></ele><time>2016-5-22T9:26:39Z</time></trkpt>
<trkpt lat="46.1758133" lon="7.3312283"><ele></ele><time>2016-5-22T9:26:42Z</time></trkpt>
<trkpt lat="46.1758317" lon="7.3312350"><ele></ele><time>2016-5-22T9:26:45Z</time></trkpt>
<trkpt lat="46.1758483" lon="7.3312417"><ele></ele><time>2016-5-22T9:26:48Z</time></trkpt>
<trkpt lat="46.1758650" lon="7.3312517"><ele></ele><time>2016-5-22T9:26:51Z</time></trkpt>
<trkpt lat="46.1758833" lon="7.3312600"><ele></ele><time>2016-5-22T9:26:54Z</time></trkpt>
<trkpt lat="46.1759017" lon="7.3312733"><ele></ele><time>2016-5-22T9:26:57Z</time></trkpt>
<trkpt lat="46.1759217" lon="7.3312783"><ele></ele><time>2016-5-22T9:27:0Z</time></trkpt>
<trkpt lat="46.1759417" lon="7.3312883"><ele></ele><time>2016-5-22T9:27:3Z</time></trkpt>
<trkpt lat="46.1759583" lon="7.3312900"><ele></ele><time>2016-5-22T9:27:6Z</time></trkpt>
<trkpt lat="46.1759750" lon="7.3312883"><ele></ele><time>2016-5-22T9:27:9Z</time></trkpt>
<trkpt lat="46.1759917" lon="7.3312883"><ele></ele><time>2016-5-22T9:27:12Z</time></trkpt>
<trkpt lat="46.1760067" lon="7.3312867"><ele></ele><time>2016-5-22T9:27:15Z</time></trkpt>
<trkpt lat="46.1760233" lon="7.3312850"><ele></ele><time>2016-5-22T9:27:18Z</time></trkpt>
<trkpt lat="46.1760417" lon="7.3312917"><ele></ele><time>2016-5-22T9:27:21Z</time></trkpt>
<trkpt lat="46.1760567" lon="7.3312967"><ele></ele><time>2016-5-22T9:27:24Z</time></trkpt>
<trkpt lat="46.1760733" lon="7.3312967"><ele></ele><time>2016-5-22T9:27:27Z</time></trkpt>
<trkpt lat="46.1760917" lon="7.3312867"><ele></ele><time>2016-5-22T9:27:30Z</time></trkpt>
<trkpt lat="46.1761133" lon="7.3312767"><ele></ele><time>2016-5-22T9:27:33Z</time></trkpt>
<trkpt lat="46.1761333" lon="7.3312700"><ele></ele><time>2016-5-22T9:27:36Z</time></trkpt>
<trkpt lat="46.1761550" lon="7.3312617"><ele></ele><time>2016-5-22T9:27:39Z</time></trkpt>
<trkpt lat="46.1761750" lon="7.3312583"><ele></ele><time>2016-5-22T9:27:42Z</time></trkpt>
<trkpt lat="46.1761933" lon="7.3312633"><ele></ele><time>2016-5-22T9:27:45Z</time></trkpt>
<trkpt lat="46.1762100" lon="7.3312733"><ele></ele><time>2016-5-22T9:27:48Z</time></trkpt>
<trkpt lat="46.1762267" lon="7.3312867"><ele></ele><time>2016-5-22T9:27:51Z</time></trkpt>
<trkpt lat="46.1762400" lon="7.3313100"><ele></ele><time>2016-5-22T9:27:54Z</time></trkpt>
<trkpt lat="46.1762533" lon="7.3313367"><ele></ele><time>2016-5-22T9:27:57Z</time></trkpt>
<trkpt lat="46.1762683" lon="7.3313667"><ele></ele><time>2016-5-22T9:28:0Z</time></trkpt>
<trkpt lat="46.1762850" lon="7.3313900"><ele></ele><time>2016-5-22T9:28:3Z</time></trkpt>
<trkpt lat="46.1763017" lon="7.3314150"><ele></ele><time>2016-5-22T9:28:6Z</time></trkpt>
<trkpt lat="46.1763200" lon="7.3314367"><ele></ele><time>2016-5-22T9:28:9Z</time></trkpt>
<trkpt lat="46.1763383" lon="7.3314517"><ele></ele><time>2016-5-22T9:28:12Z</time></trkpt>
<trkpt lat="46.1763550" lon="7.3314650"><ele></ele><time>2016-5-22T9:28:15Z</time></trkpt>
<trkpt lat="46.1763733" lon="7.3314783"><ele></ele><time>2016-5-22T9:28:18Z</time></trkpt>
<trkpt lat="46.1763900" lon="7.3314883"><ele></ele><time>2016-5-22T9:28:21Z</time></trkpt>
<trkpt lat="46.1764067" lon="7.3314983"><ele></ele><time>2016-5-22T9:28:24Z</time></trkpt>
<trkpt lat="46.1764217" lon="7.3315100"><ele></ele><time>2016-5-22T9:28:27Z</time></trkpt>
<trkpt lat="46.1764383" lon="7.3315200"><ele></ele><time>2016-5-22T9:28:30Z</time></trkpt>
<trkpt lat="46.1764550" lon="7.3315267"><ele></ele><time>2016-5-22T9:28:33Z</time></trkpt>
<trkpt lat="46.1764683" lon="7.3315333"><ele></ele><time>2016-5-22T9:28:36Z</time></trkpt>
<trkpt lat="46.1764800" lon="7.3315433"><ele></ele><time>2016-5-22T9:28:39Z</time></trkpt>
<trkpt lat="46.1764917" lon="7.3315650"><ele></ele><time>2016-5-22T9:28:42Z</time></trkpt>
<trkpt lat="46.1765033" lon="7.3315850"><ele></ele><time>2016-5-22T9:28:45Z</time></trkpt>
<trkpt lat="46.1765167" lon="7.3316050"><ele></ele><time>2016-5-22T9:28:48Z</time></trkpt>
<trkpt lat="46.1765300" lon="7.3316283"><ele></ele><time>2016-5-22T9:28:51Z</time></trkpt>
<trkpt lat="46.1765400" lon="7.3316500"><ele></ele><time>2016-5-22T9:28:54Z</time></trkpt>
<trkpt lat="46.1765483" lon="7.3316733"><ele></ele><time>2016-5-22T9:28:57Z</time></trkpt>
<trkpt lat="46.1765550" lon="7.3316967"><ele></ele><time>2016-5-22T9:29:0Z</time></trkpt>
<trkpt lat="46.1765633" lon="7.3317183"><ele></ele><time>2016-5-22T9:29:3Z</time></trkpt>
<trkpt lat="46.1765733" lon="7.3317433"><ele></ele><time>2016-5-22T9:29:6Z</time></trkpt>
<trkpt lat="46.1765817" lon="7.3317683"><ele></ele><time>2016-5-22T9:29:9Z</time></trkpt>
<trkpt lat="46.1765900" lon="7.3317933"><ele></ele><time>2016-5-22T9:29:12Z</time></trkpt>
<trkpt lat="46.1765967" lon="7.3318150"><ele></ele><time>2016-5-22T9:29:15Z</time></trkpt>
<trkpt lat="46.1766017" lon="7.3318350"><ele></ele><time>2016-5-22T9:29:18Z</time></trkpt>
<trkpt lat="46.1766067" lon="7.3318567"><ele></ele><time>2016-5-22T9:29:21Z</time></trkpt>
<trkpt lat="46.1766133" lon="7.3318767"><ele></ele><time>2016-5-22T9:29:24Z</time></trkpt>
<trkpt lat="46.1766200" lon="7.3318967"><ele></ele><time>2016-5-22T9:29:27Z</time></trkpt>
<trkpt lat="46.1766283" lon="7.3319100"><ele></ele><time>2016-5-22T9:29:30Z</time></trkpt>
<trkpt lat="46.1766350" lon="7.3319233"><ele></ele><time>2016-5-22T9:29:33Z</time></trkpt>
<trkpt lat="46.1766417" lon="7.3319400"><ele></ele><time>2016-5-22T9:29:36Z</time></trkpt>
<trkpt lat="46.1766467" lon="7.3319550"><ele></ele><time>2016-5-22T9:29:39Z</time></trkpt>
<trkpt lat="46.1766533" lon="7.3319700"><ele></ele><time>2016-5-22T9:29:42Z</time></trkpt>
<trkpt lat="46.1766633" lon="7.3319867"><ele></ele><time>2016-5-22T9:29:45Z</time></trkpt>
<trkpt lat="46.1766733" lon="7.3320017"><ele></ele><time>2016-5-22T9:29:48Z</time></trkpt>
<trkpt lat="46.1766850" lon="7.3320167"><ele></ele><time>2016-5-22T9:29:51Z</time></trkpt>
<trkpt lat="46.1766967" lon="7.3320367"><ele></ele><time>2016-5-22T9:29:54Z</time></trkpt>
<trkpt lat="46.1767083" lon="7.3320583"><ele></ele><time>2016-5-22T9:29:57Z</time></trkpt>
<trkpt lat="46.1767167" lon="7.3320767"><ele></ele><time>2016-5-22T9:30:0Z</time></trkpt>
<trkpt lat="46.1767233" lon="7.3320933"><ele></ele><time>2016-5-22T9:30:3Z</time></trkpt>
<trkpt lat="46.1767350" lon="7.3321100"><ele></ele><time>2016-5-22T9:30:6Z</time></trkpt>
<trkpt lat="46.1767467" lon="7.3321317"><ele></ele><time>2016-5-22T9:30:9Z</time></trkpt>
<trkpt lat="46.1767533" lon="7.3321517"><ele></ele><time>2016-5-22T9:30:12Z</time></trkpt>
<trkpt lat="46.1767617" lon="7.3321717"><ele></ele><time>2016-5-22T9:30:15Z</time></trkpt>
<trkpt lat="46.1767700" lon="7.3321867"><ele></ele><time>2016-5-22T9:30:18Z</time></trkpt>
<trkpt lat="46.1767850" lon="7.3321983"><ele></ele><time>2016-5-22T9:30:21Z</time></trkpt>
<trkpt lat="46.1767983" lon="7.3322133"><ele></ele><time>2016-5-22T9:30:24Z</time></trkpt>
<trkpt lat="46.1768117" lon="7.3322283"><ele></ele><time>2016-5-22T9:30:27Z</time></trkpt>
<trkpt lat="46.1768217" lon="7.3322483"><ele></ele><time>2016-5-22T9:30:30Z</time></trkpt>
<trkpt lat="46.1768333" lon="7.3322683"><ele></ele><time>2016-5-22T9:30:33Z</time></trkpt>
<trkpt lat="46.1768417" lon="7.3322867"><ele></ele><time>2016-5-22T9:30:36Z</time></trkpt>
<trkpt lat="46.1768500" lon="7.3323033"><ele></ele><time>2016-5-22T9:30:39Z</time></trkpt>
<trkpt lat="46.1768583" lon="7.3323233"><ele></ele><time>2016-5-22T9:30:42Z</time></trkpt>
<trkpt lat="46.1768667" lon="7.3323400"><ele></ele><time>2016-5-22T9:30:45Z</time></trkpt>
<trkpt lat="46.1768733" lon="7.3323583"><ele></ele><time>2016-5-22T9:30:48Z</time></trkpt>
<trkpt lat="46.1768800" lon="7.3323733"><ele></ele><time>2016-5-22T9:30:51Z</time></trkpt>
<trkpt lat="46.1768850" lon="7.3323883"><ele></ele><time>2016-5-22T9:30:54Z</time></trkpt>
<trkpt lat="46.1768900" lon="7.3324033"><ele></ele><time>2016-5-22T9:30:57Z</time></trkpt>
<trkpt lat="46.1768967" lon="7.3324183"><ele></ele><time>2016-5-22T9:31:0Z</time></trkpt>
<trkpt lat="46.1769067" lon="7.3324333"><ele></ele><time>2016-5-22T9:31:3Z</time></trkpt>
<trkpt lat="46.1769133" lon="7.3324483"><ele></ele><time>2016-5-22T9:31:6Z</time></trkpt>
<trkpt lat="46.1769200" lon="7.3324617"><ele></ele><time>2016-5-22T9:31:9Z</time></trkpt>
<trkpt lat="46.1769267" lon="7.3324733"><ele></ele><time>2016-5-22T9:31:12Z</time></trkpt>
<trkpt lat="46.1769350" lon="7.3324883"><ele></ele><time>2016-5-22T9:31:15Z</time></trkpt>
<trkpt lat="46.1769417" lon="7.3325067"><ele></ele><time>2016-5-22T9:31:18Z</time></trkpt>
<trkpt lat="46.1769483" lon="7.3325267"><ele></ele><time>2016-5-22T9:31:21Z</time></trkpt>
<trkpt lat="46.1769550" lon="7.3325467"><ele></ele><time>2016-5-22T9:31:24Z</time></trkpt>
<trkpt lat="46.1769633" lon="7.3325650"><ele></ele><time>2016-5-22T9:31:27Z</time></trkpt>
<trkpt lat="46.1769700" lon="7.3325800"><ele></ele><time>2016-5-22T9:31:30Z</time></trkpt>
<trkpt lat="46.1769783" lon="7.3325967"><ele></ele><time>2016-5-22T9:31:33Z</time></trkpt>
<trkpt lat="46.1769883" lon="7.3326133"><ele></ele><time>2016-5-22T9:31:36Z</time></trkpt>
<trkpt lat="46.1769967" lon="7.3326267"><ele></ele><time>2016-5-22T9:31:39Z</time></trkpt>
<trkpt lat="46.1770067" lon="7.3326383"><ele></ele><time>2016-5-22T9:31:42Z</time></trkpt>
<trkpt lat="46.1770067" lon="7.3326383"><ele></ele><time>2016-5-22T9:31:45Z</time></trkpt>
<trkpt lat="46.1770183" lon="7.3326500"><ele></ele><time>2016-5-22T9:31:48Z</time></trkpt>
<trkpt lat="46.1770283" lon="7.3326617"><ele></ele><time>2016-5-22T9:31:51Z</time></trkpt>
<trkpt lat="46.1770383" lon="7.3326733"><ele></ele><time>2016-5-22T9:31:54Z</time></trkpt>
<trkpt lat="46.1770483" lon="7.3326850"><ele></ele><time>2016-5-22T9:31:57Z</time></trkpt>
<trkpt lat="46.1770567" lon="7.3326983"><ele></ele><time>2016-5-22T9:32:0Z</time></trkpt>
<trkpt lat="46.1770650" lon="7.3327100"><ele></ele><time>2016-5-22T9:32:3Z</time></trkpt>
<trkpt lat="46.1770750" lon="7.3327217"><ele></ele><time>2016-5-22T9:32:6Z</time></trkpt>
<trkpt lat="46.1770817" lon="7.3327317"><ele></ele><time>2016-5-22T9:32:9Z</time></trkpt>
<trkpt lat="46.1770883" lon="7.3327417"><ele></ele><time>2016-5-22T9:32:12Z</time></trkpt>
<trkpt lat="46.1770967" lon="7.3327500"><ele></ele><time>2016-5-22T9:32:15Z</time></trkpt>
<trkpt lat="46.1771033" lon="7.3327567"><ele></ele><time>2016-5-22T9:32:18Z</time></trkpt>
<trkpt lat="46.1771117" lon="7.3327667"><ele></ele><time>2016-5-22T9:32:21Z</time></trkpt>
<trkpt lat="46.1771117" lon="7.3327667"><ele></ele><time>2016-5-22T9:32:24Z</time></trkpt>
<trkpt lat="46.1771183" lon="7.3327817"><ele></ele><time>2016-5-22T9:32:27Z</time></trkpt>
<trkpt lat="46.1771267" lon="7.3327983"><ele></ele><time>2016-5-22T9:32:30Z</time></trkpt>
<trkpt lat="46.1771367" lon="7.3328100"><ele></ele><time>2016-5-22T9:32:33Z</time></trkpt>
<trkpt lat="46.1771500" lon="7.3328100"><ele></ele><time>2016-5-22T9:32:36Z</time></trkpt>
<trkpt lat="46.1771633" lon="7.3328050"><ele></ele><time>2016-5-22T9:32:39Z</time></trkpt>
<trkpt lat="46.1771750" lon="7.3327983"><ele></ele><time>2016-5-22T9:32:42Z</time></trkpt>
<trkpt lat="46.1771817" lon="7.3327967"><ele></ele><time>2016-5-22T9:32:45Z</time></trkpt>
<trkpt lat="46.1771867" lon="7.3328050"><ele></ele><time>2016-5-22T9:32:48Z</time></trkpt>
<trkpt lat="46.1771933" lon="7.3328217"><ele></ele><time>2016-5-22T9:32:51Z</time></trkpt>
<trkpt lat="46.1771967" lon="7.3328433"><ele></ele><time>2016-5-22T9:32:54Z</time></trkpt>
<trkpt lat="46.1772050" lon="7.3328650"><ele></ele><time>2016-5-22T9:32:57Z</time></trkpt>
<trkpt lat="46.1772183" lon="7.3328850"><ele></ele><time>2016-5-22T9:33:0Z</time></trkpt>
<trkpt lat="46.1772183" lon="7.3328850"><ele></ele><time>2016-5-22T9:33:3Z</time></trkpt>
<trkpt lat="46.1772333" lon="7.3329017"><ele></ele><time>2016-5-22T9:33:6Z</time></trkpt>
<trkpt lat="46.1772467" lon="7.3329200"><ele></ele><time>2016-5-22T9:33:9Z</time></trkpt>
<trkpt lat="46.1772617" lon="7.3329383"><ele></ele><time>2016-5-22T9:33:12Z</time></trkpt>
<trkpt lat="46.1772750" lon="7.3329483"><ele></ele><time>2016-5-22T9:33:15Z</time></trkpt>
<trkpt lat="46.1772850" lon="7.3329667"><ele></ele><time>2016-5-22T9:33:18Z</time></trkpt>
<trkpt lat="46.1772983" lon="7.3329850"><ele></ele><time>2016-5-22T9:33:21Z</time></trkpt>
<trkpt lat="46.1773117" lon="7.3330017"><ele></ele><time>2016-5-22T9:33:24Z</time></trkpt>
<trkpt lat="46.1773267" lon="7.3330100"><ele></ele><time>2016-5-22T9:33:27Z</time></trkpt>
<trkpt lat="46.1773450" lon="7.3330150"><ele></ele><time>2016-5-22T9:33:30Z</time></trkpt>
<trkpt lat="46.1773667" lon="7.3330233"><ele></ele><time>2016-5-22T9:33:33Z</time></trkpt>
<trkpt lat="46.1773867" lon="7.3330300"><ele></ele><time>2016-5-22T9:33:36Z</time></trkpt>
<trkpt lat="46.1774067" lon="7.3330367"><ele></ele><time>2016-5-22T9:33:39Z</time></trkpt>
<trkpt lat="46.1774067" lon="7.3330367"><ele></ele><time>2016-5-22T9:33:42Z</time></trkpt>
<trkpt lat="46.1774250" lon="7.3330433"><ele></ele><time>2016-5-22T9:33:45Z</time></trkpt>
<trkpt lat="46.1774450" lon="7.3330533"><ele></ele><time>2016-5-22T9:33:48Z</time></trkpt>
<trkpt lat="46.1774633" lon="7.3330667"><ele></ele><time>2016-5-22T9:33:51Z</time></trkpt>
<trkpt lat="46.1774783" lon="7.3330750"><ele></ele><time>2016-5-22T9:33:54Z</time></trkpt>
<trkpt lat="46.1774917" lon="7.3330817"><ele></ele><time>2016-5-22T9:33:57Z</time></trkpt>
<trkpt lat="46.1775033" lon="7.3330850"><ele></ele><time>2016-5-22T9:34:0Z</time></trkpt>
<trkpt lat="46.1775150" lon="7.3330883"><ele></ele><time>2016-5-22T9:34:3Z</time></trkpt>
<trkpt lat="46.1775283" lon="7.3330900"><ele></ele><time>2016-5-22T9:34:6Z</time></trkpt>
<trkpt lat="46.1775450" lon="7.3330917"><ele></ele><time>2016-5-22T9:34:9Z</time></trkpt>
<trkpt lat="46.1775633" lon="7.3330933"><ele></ele><time>2016-5-22T9:34:12Z</time></trkpt>
<trkpt lat="46.1775817" lon="7.3331000"><ele></ele><time>2016-5-22T9:34:15Z</time></trkpt>
<trkpt lat="46.1776000" lon="7.3331117"><ele></ele><time>2016-5-22T9:34:18Z</time></trkpt>
<trkpt lat="46.1776000" lon="7.3331117"><ele></ele><time>2016-5-22T9:34:21Z</time></trkpt>
<trkpt lat="46.1776183" lon="7.3331233"><ele></ele><time>2016-5-22T9:34:24Z</time></trkpt>
<trkpt lat="46.1776367" lon="7.3331317"><ele></ele><time>2016-5-22T9:34:27Z</time></trkpt>
<trkpt lat="46.1776550" lon="7.3331367"><ele></ele><time>2016-5-22T9:34:30Z</time></trkpt>
<trkpt lat="46.1776733" lon="7.3331417"><ele></ele><time>2016-5-22T9:34:33Z</time></trkpt>
<trkpt lat="46.1776917" lon="7.3331483"><ele></ele><time>2016-5-22T9:34:36Z</time></trkpt>
<trkpt lat="46.1777083" lon="7.3331583"><ele></ele><time>2016-5-22T9:34:39Z</time></trkpt>
<trkpt lat="46.1777267" lon="7.3331733"><ele></ele><time>2016-5-22T9:34:42Z</time></trkpt>
<trkpt lat="46.1777433" lon="7.3331867"><ele></ele><time>2016-5-22T9:34:45Z</time></trkpt>
<trkpt lat="46.1777583" lon="7.3331950"><ele></ele><time>2016-5-22T9:34:48Z</time></trkpt>
<trkpt lat="46.1777700" lon="7.3332000"><ele></ele><time>2016-5-22T9:34:51Z</time></trkpt>
<trkpt lat="46.1777783" lon="7.3332067"><ele></ele><time>2016-5-22T9:34:54Z</time></trkpt>
<trkpt lat="46.1777867" lon="7.3332133"><ele></ele><time>2016-5-22T9:34:57Z</time></trkpt>
<trkpt lat="46.1777867" lon="7.3332133"><ele></ele><time>2016-5-22T9:35:0Z</time></trkpt>
<trkpt lat="46.1778000" lon="7.3332217"><ele></ele><time>2016-5-22T9:35:3Z</time></trkpt>
<trkpt lat="46.1778133" lon="7.3332400"><ele></ele><time>2016-5-22T9:35:6Z</time></trkpt>
<trkpt lat="46.1778250" lon="7.3332617"><ele></ele><time>2016-5-22T9:35:9Z</time></trkpt>
<trkpt lat="46.1778317" lon="7.3332767"><ele></ele><time>2016-5-22T9:35:12Z</time></trkpt>
<trkpt lat="46.1778400" lon="7.3332883"><ele></ele><time>2016-5-22T9:35:15Z</time></trkpt>
<trkpt lat="46.1778500" lon="7.3333050"><ele></ele><time>2016-5-22T9:35:18Z</time></trkpt>
<trkpt lat="46.1778600" lon="7.3333183"><ele></ele><time>2016-5-22T9:35:21Z</time></trkpt>
<trkpt lat="46.1778700" lon="7.3333267"><ele></ele><time>2016-5-22T9:35:24Z</time></trkpt>
<trkpt lat="46.1778850" lon="7.3333350"><ele></ele><time>2016-5-22T9:35:27Z</time></trkpt>
<trkpt lat="46.1779017" lon="7.3333417"><ele></ele><time>2016-5-22T9:35:30Z</time></trkpt>
<trkpt lat="46.1779200" lon="7.3333500"><ele></ele><time>2016-5-22T9:35:33Z</time></trkpt>
<trkpt lat="46.1779333" lon="7.3333550"><ele></ele><time>2016-5-22T9:35:36Z</time></trkpt>
<trkpt lat="46.1779333" lon="7.3333550"><ele></ele><time>2016-5-22T9:35:39Z</time></trkpt>
<trkpt lat="46.1779500" lon="7.3333550"><ele></ele><time>2016-5-22T9:35:42Z</time></trkpt>
<trkpt lat="46.1779667" lon="7.3333550"><ele></ele><time>2016-5-22T9:35:45Z</time></trkpt>
<trkpt lat="46.1779833" lon="7.3333617"><ele></ele><time>2016-5-22T9:35:48Z</time></trkpt>
<trkpt lat="46.1780000" lon="7.3333700"><ele></ele><time>2016-5-22T9:35:51Z</time></trkpt>
<trkpt lat="46.1780167" lon="7.3333817"><ele></ele><time>2016-5-22T9:35:54Z</time></trkpt>
<trkpt lat="46.1780350" lon="7.3333950"><ele></ele><time>2016-5-22T9:35:57Z</time></trkpt>
<trkpt lat="46.1780517" lon="7.3333950"><ele></ele><time>2016-5-22T9:36:0Z</time></trkpt>
<trkpt lat="46.1780667" lon="7.3333967"><ele></ele><time>2016-5-22T9:36:3Z</time></trkpt>
<trkpt lat="46.1780833" lon="7.3334167"><ele></ele><time>2016-5-22T9:36:6Z</time></trkpt>
<trkpt lat="46.1780983" lon="7.3334317"><ele></ele><time>2016-5-22T9:36:9Z</time></trkpt>
<trkpt lat="46.1781150" lon="7.3334467"><ele></ele><time>2016-5-22T9:36:12Z</time></trkpt>
<trkpt lat="46.1781317" lon="7.3334617"><ele></ele><time>2016-5-22T9:36:15Z</time></trkpt>
<trkpt lat="46.1781317" lon="7.3334617"><ele></ele><time>2016-5-22T9:36:18Z</time></trkpt>
<trkpt lat="46.1781517" lon="7.3334683"><ele></ele><time>2016-5-22T9:36:21Z</time></trkpt>
<trkpt lat="46.1781717" lon="7.3334717"><ele></ele><time>2016-5-22T9:36:24Z</time></trkpt>
<trkpt lat="46.1781867" lon="7.3334783"><ele></ele><time>2016-5-22T9:36:27Z</time></trkpt>
<trkpt lat="46.1782000" lon="7.3334883"><ele></ele><time>2016-5-22T9:36:30Z</time></trkpt>
<trkpt lat="46.1782183" lon="7.3335033"><ele></ele><time>2016-5-22T9:36:33Z</time></trkpt>
<trkpt lat="46.1782400" lon="7.3335150"><ele></ele><time>2016-5-22T9:36:36Z</time></trkpt>
<trkpt lat="46.1782583" lon="7.3335233"><ele></ele><time>2016-5-22T9:36:39Z</time></trkpt>
<trkpt lat="46.1782767" lon="7.3335333"><ele></ele><time>2016-5-22T9:36:42Z</time></trkpt>
<trkpt lat="46.1782950" lon="7.3335467"><ele></ele><time>2016-5-22T9:36:45Z</time></trkpt>
<trkpt lat="46.1783083" lon="7.3335583"><ele></ele><time>2016-5-22T9:36:48Z</time></trkpt>
<trkpt lat="46.1783167" lon="7.3335683"><ele></ele><time>2016-5-22T9:36:51Z</time></trkpt>
<trkpt lat="46.1783300" lon="7.3335783"><ele></ele><time>2016-5-22T9:36:54Z</time></trkpt>
<trkpt lat="46.1783300" lon="7.3335783"><ele></ele><time>2016-5-22T9:36:57Z</time></trkpt>
<trkpt lat="46.1783483" lon="7.3335933"><ele></ele><time>2016-5-22T9:37:0Z</time></trkpt>
<trkpt lat="46.1783667" lon="7.3336083"><ele></ele><time>2016-5-22T9:37:3Z</time></trkpt>
<trkpt lat="46.1783817" lon="7.3336217"><ele></ele><time>2016-5-22T9:37:6Z</time></trkpt>
<trkpt lat="46.1783967" lon="7.3336367"><ele></ele><time>2016-5-22T9:37:9Z</time></trkpt>
<trkpt lat="46.1784150" lon="7.3336550"><ele></ele><time>2016-5-22T9:37:12Z</time></trkpt>
<trkpt lat="46.1784317" lon="7.3336717"><ele></ele><time>2016-5-22T9:37:15Z</time></trkpt>
<trkpt lat="46.1784467" lon="7.3336900"><ele></ele><time>2016-5-22T9:37:18Z</time></trkpt>
<trkpt lat="46.1784600" lon="7.3337083"><ele></ele><time>2016-5-22T9:37:21Z</time></trkpt>
<trkpt lat="46.1784700" lon="7.3337283"><ele></ele><time>2016-5-22T9:37:24Z</time></trkpt>
<trkpt lat="46.1784833" lon="7.3337500"><ele></ele><time>2016-5-22T9:37:27Z</time></trkpt>
<trkpt lat="46.1784950" lon="7.3337700"><ele></ele><time>2016-5-22T9:37:30Z</time></trkpt>
<trkpt lat="46.1785050" lon="7.3337867"><ele></ele><time>2016-5-22T9:37:33Z</time></trkpt>
<trkpt lat="46.1785050" lon="7.3337867"><ele></ele><time>2016-5-22T9:37:36Z</time></trkpt>
<trkpt lat="46.1785150" lon="7.3338083"><ele></ele><time>2016-5-22T9:37:39Z</time></trkpt>
<trkpt lat="46.1785233" lon="7.3338283"><ele></ele><time>2016-5-22T9:37:42Z</time></trkpt>
<trkpt lat="46.1785317" lon="7.3338500"><ele></ele><time>2016-5-22T9:37:45Z</time></trkpt>
<trkpt lat="46.1785400" lon="7.3338700"><ele></ele><time>2016-5-22T9:37:48Z</time></trkpt>
<trkpt lat="46.1785500" lon="7.3338967"><ele></ele><time>2016-5-22T9:37:51Z</time></trkpt>
<trkpt lat="46.1785600" lon="7.3339217"><ele></ele><time>2016-5-22T9:37:54Z</time></trkpt>
<trkpt lat="46.1785683" lon="7.3339467"><ele></ele><time>2016-5-22T9:37:57Z</time></trkpt>
<trkpt lat="46.1785767" lon="7.3339700"><ele></ele><time>2016-5-22T9:38:0Z</time></trkpt>
<trkpt lat="46.1785833" lon="7.3339900"><ele></ele><time>2016-5-22T9:38:3Z</time></trkpt>
<trkpt lat="46.1785900" lon="7.3340133"><ele></ele><time>2016-5-22T9:38:6Z</time></trkpt>
<trkpt lat="46.1785950" lon="7.3340367"><ele></ele><time>2016-5-22T9:38:9Z</time></trkpt>
<trkpt lat="46.1786000" lon="7.3340600"><ele></ele><time>2016-5-22T9:38:12Z</time></trkpt>
<trkpt lat="46.1786000" lon="7.3340600"><ele></ele><time>2016-5-22T9:38:15Z</time></trkpt>
<trkpt lat="46.1786050" lon="7.3340850"><ele></ele><time>2016-5-22T9:38:18Z</time></trkpt>
<trkpt lat="46.1786117" lon="7.3341100"><ele></ele><time>2016-5-22T9:38:21Z</time></trkpt>
<trkpt lat="46.1786200" lon="7.3341317"><ele></ele><time>2016-5-22T9:38:24Z</time></trkpt>
<trkpt lat="46.1786267" lon="7.3341517"><ele></ele><time>2016-5-22T9:38:27Z</time></trkpt>
<trkpt lat="46.1786300" lon="7.3341733"><ele></ele><time>2016-5-22T9:38:30Z</time></trkpt>
<trkpt lat="46.1786283" lon="7.3341950"><ele></ele><time>2016-5-22T9:38:33Z</time></trkpt>
<trkpt lat="46.1786250" lon="7.3342167"><ele></ele><time>2016-5-22T9:38:36Z</time></trkpt>
<trkpt lat="46.1786233" lon="7.3342350"><ele></ele><time>2016-5-22T9:38:39Z</time></trkpt>
<trkpt lat="46.1786217" lon="7.3342500"><ele></ele><time>2016-5-22T9:38:42Z</time></trkpt>
<trkpt lat="46.1786217" lon="7.3342667"><ele></ele><time>2016-5-22T9:38:45Z</time></trkpt>
<trkpt lat="46.1786217" lon="7.3342850"><ele></ele><time>2016-5-22T9:38:48Z</time></trkpt>
<trkpt lat="46.1786233" lon="7.3343083"><ele></ele><time>2016-5-22T9:38:51Z</time></trkpt>
<trkpt lat="46.1786233" lon="7.3343083"><ele></ele><time>2016-5-22T9:38:54Z</time></trkpt>
<trkpt lat="46.1786250" lon="7.3343300"><ele></ele><time>2016-5-22T9:38:57Z</time></trkpt>
<trkpt lat="46.1786267" lon="7.3343533"><ele></ele><time>2016-5-22T9:39:0Z</time></trkpt>
<trkpt lat="46.1786283" lon="7.3343767"><ele></ele><time>2016-5-22T9:39:3Z</time></trkpt>
<trkpt lat="46.1786300" lon="7.3343983"><ele></ele><time>2016-5-22T9:39:6Z</time></trkpt>
<trkpt lat="46.1786317" lon="7.3344217"><ele></ele><time>2016-5-22T9:39:9Z</time></trkpt>
<trkpt lat="46.1786367" lon="7.3344467"><ele></ele><time>2016-5-22T9:39:12Z</time></trkpt>
<trkpt lat="46.1786400" lon="7.3344717"><ele></ele><time>2016-5-22T9:39:15Z</time></trkpt>
<trkpt lat="46.1786400" lon="7.3344983"><ele></ele><time>2016-5-22T9:39:18Z</time></trkpt>
<trkpt lat="46.1786383" lon="7.3345250"><ele></ele><time>2016-5-22T9:39:21Z</time></trkpt>
<trkpt lat="46.1786350" lon="7.3345533"><ele></ele><time>2016-5-22T9:39:24Z</time></trkpt>
<trkpt lat="46.1786317" lon="7.3345800"><ele></ele><time>2016-5-22T9:39:27Z</time></trkpt>
<trkpt lat="46.1786283" lon="7.3346083"><ele></ele><time>2016-5-22T9:39:30Z</time></trkpt>
<trkpt lat="46.1786283" lon="7.3346083"><ele></ele><time>2016-5-22T9:39:33Z</time></trkpt>
<trkpt lat="46.1786233" lon="7.3346367"><ele></ele><time>2016-5-22T9:39:36Z</time></trkpt>
<trkpt lat="46.1786200" lon="7.3346633"><ele></ele><time>2016-5-22T9:39:39Z</time></trkpt>
<trkpt lat="46.1786167" lon="7.3346867"><ele></ele><time>2016-5-22T9:39:42Z</time></trkpt>
<trkpt lat="46.1786117" lon="7.3347133"><ele></ele><time>2016-5-22T9:39:45Z</time></trkpt>
<trkpt lat="46.1786083" lon="7.3347433"><ele></ele><time>2016-5-22T9:39:48Z</time></trkpt>
<trkpt lat="46.1786067" lon="7.3347717"><ele></ele><time>2016-5-22T9:39:51Z</time></trkpt>
<trkpt lat="46.1786050" lon="7.3347950"><ele></ele><time>2016-5-22T9:39:54Z</time></trkpt>
<trkpt lat="46.1786033" lon="7.3348200"><ele></ele><time>2016-5-22T9:39:57Z</time></trkpt>
<trkpt lat="46.1786017" lon="7.3348467"><ele></ele><time>2016-5-22T9:40:0Z</time></trkpt>
<trkpt lat="46.1785967" lon="7.3348700"><ele></ele><time>2016-5-22T9:40:3Z</time></trkpt>
<trkpt lat="46.1785933" lon="7.3348867"><ele></ele><time>2016-5-22T9:40:6Z</time></trkpt>
<trkpt lat="46.1785900" lon="7.3349067"><ele></ele><time>2016-5-22T9:40:9Z</time></trkpt>
<trkpt lat="46.1785900" lon="7.3349067"><ele></ele><time>2016-5-22T9:40:12Z</time></trkpt>
<trkpt lat="46.1785900" lon="7.3349317"><ele></ele><time>2016-5-22T9:40:15Z</time></trkpt>
<trkpt lat="46.1785900" lon="7.3349567"><ele></ele><time>2016-5-22T9:40:18Z</time></trkpt>
<trkpt lat="46.1785867" lon="7.3349817"><ele></ele><time>2016-5-22T9:40:21Z</time></trkpt>
<trkpt lat="46.1785833" lon="7.3350033"><ele></ele><time>2016-5-22T9:40:24Z</time></trkpt>
<trkpt lat="46.1785800" lon="7.3350267"><ele></ele><time>2016-5-22T9:40:27Z</time></trkpt>
<trkpt lat="46.1785783" lon="7.3350483"><ele></ele><time>2016-5-22T9:40:30Z</time></trkpt>
<trkpt lat="46.1785767" lon="7.3350700"><ele></ele><time>2016-5-22T9:40:33Z</time></trkpt>
<trkpt lat="46.1785750" lon="7.3350917"><ele></ele><time>2016-5-22T9:40:36Z</time></trkpt>
<trkpt lat="46.1785733" lon="7.3351133"><ele></ele><time>2016-5-22T9:40:39Z</time></trkpt>
<trkpt lat="46.1785733" lon="7.3351400"><ele></ele><time>2016-5-22T9:40:42Z</time></trkpt>
<trkpt lat="46.1785717" lon="7.3351667"><ele></ele><time>2016-5-22T9:40:45Z</time></trkpt>
<trkpt lat="46.1785700" lon="7.3351900"><ele></ele><time>2016-5-22T9:40:48Z</time></trkpt>
<trkpt lat="46.1785700" lon="7.3351900"><ele></ele><time>2016-5-22T9:40:51Z</time></trkpt>
<trkpt lat="46.1785683" lon="7.3352133"><ele></ele><time>2016-5-22T9:40:54Z</time></trkpt>
<trkpt lat="46.1785700" lon="7.3352383"><ele></ele><time>2016-5-22T9:40:57Z</time></trkpt>
<trkpt lat="46.1785750" lon="7.3352683"><ele></ele><time>2016-5-22T9:41:0Z</time></trkpt>
<trkpt lat="46.1785800" lon="7.3352983"><ele></ele><time>2016-5-22T9:41:3Z</time></trkpt>
<trkpt lat="46.1785833" lon="7.3353233"><ele></ele><time>2016-5-22T9:41:6Z</time></trkpt>
<trkpt lat="46.1785867" lon="7.3353433"><ele></ele><time>2016-5-22T9:41:9Z</time></trkpt>
<trkpt lat="46.1785850" lon="7.3353600"><ele></ele><time>2016-5-22T9:41:12Z</time></trkpt>
<trkpt lat="46.1785833" lon="7.3353817"><ele></ele><time>2016-5-22T9:41:15Z</time></trkpt>
<trkpt lat="46.1785800" lon="7.3354067"><ele></ele><time>2016-5-22T9:41:18Z</time></trkpt>
<trkpt lat="46.1785800" lon="7.3354300"><ele></ele><time>2016-5-22T9:41:21Z</time></trkpt>
<trkpt lat="46.1785817" lon="7.3354533"><ele></ele><time>2016-5-22T9:41:24Z</time></trkpt>
<trkpt lat="46.1785850" lon="7.3354767"><ele></ele><time>2016-5-22T9:41:27Z</time></trkpt>
<trkpt lat="46.1785850" lon="7.3354767"><ele></ele><time>2016-5-22T9:41:30Z</time></trkpt>
<trkpt lat="46.1785900" lon="7.3355000"><ele></ele><time>2016-5-22T9:41:33Z</time></trkpt>
<trkpt lat="46.1785950" lon="7.3355217"><ele></ele><time>2016-5-22T9:41:36Z</time></trkpt>
<trkpt lat="46.1785967" lon="7.3355433"><ele></ele><time>2016-5-22T9:41:39Z</time></trkpt>
<trkpt lat="46.1786000" lon="7.3355650"><ele></ele><time>2016-5-22T9:41:42Z</time></trkpt>
<trkpt lat="46.1786033" lon="7.3355883"><ele></ele><time>2016-5-22T9:41:45Z</time></trkpt>
<trkpt lat="46.1786017" lon="7.3356117"><ele></ele><time>2016-5-22T9:41:48Z</time></trkpt>
<trkpt lat="46.1786017" lon="7.3356333"><ele></ele><time>2016-5-22T9:41:51Z</time></trkpt>
<trkpt lat="46.1785983" lon="7.3356583"><ele></ele><time>2016-5-22T9:41:54Z</time></trkpt>
<trkpt lat="46.1785950" lon="7.3356867"><ele></ele><time>2016-5-22T9:41:57Z</time></trkpt>
<trkpt lat="46.1785950" lon="7.3357117"><ele></ele><time>2016-5-22T9:42:0Z</time></trkpt>
<trkpt lat="46.1785917" lon="7.3357333"><ele></ele><time>2016-5-22T9:42:3Z</time></trkpt>
<trkpt lat="46.1785917" lon="7.3357583"><ele></ele><time>2016-5-22T9:42:6Z</time></trkpt>
<trkpt lat="46.1785917" lon="7.3357583"><ele></ele><time>2016-5-22T9:42:9Z</time></trkpt>
<trkpt lat="46.1785933" lon="7.3357867"><ele></ele><time>2016-5-22T9:42:12Z</time></trkpt>
<trkpt lat="46.1785950" lon="7.3358133"><ele></ele><time>2016-5-22T9:42:15Z</time></trkpt>
<trkpt lat="46.1785967" lon="7.3358367"><ele></ele><time>2016-5-22T9:42:18Z</time></trkpt>
<trkpt lat="46.1785950" lon="7.3358583"><ele></ele><time>2016-5-22T9:42:21Z</time></trkpt>
<trkpt lat="46.1785917" lon="7.3358783"><ele></ele><time>2016-5-22T9:42:24Z</time></trkpt>
<trkpt lat="46.1785867" lon="7.3359000"><ele></ele><time>2016-5-22T9:42:27Z</time></trkpt>
<trkpt lat="46.1785817" lon="7.3359217"><ele></ele><time>2016-5-22T9:42:30Z</time></trkpt>
<trkpt lat="46.1785767" lon="7.3359450"><ele></ele><time>2016-5-22T9:42:33Z</time></trkpt>
<trkpt lat="46.1785717" lon="7.3359667"><ele></ele><time>2016-5-22T9:42:36Z</time></trkpt>
<trkpt lat="46.1785683" lon="7.3359900"><ele></ele><time>2016-5-22T9:42:39Z</time></trkpt>
<trkpt lat="46.1785633" lon="7.3360100"><ele></ele><time>2016-5-22T9:42:42Z</time></trkpt>
<trkpt lat="46.1785617" lon="7.3360317"><ele></ele><time>2016-5-22T9:42:45Z</time></trkpt>
<trkpt lat="46.1785617" lon="7.3360317"><ele></ele><time>2016-5-22T9:42:48Z</time></trkpt>
<trkpt lat="46.1785600" lon="7.3360533"><ele></ele><time>2016-5-22T9:42:51Z</time></trkpt>
<trkpt lat="46.1785600" lon="7.3360783"><ele></ele><time>2016-5-22T9:42:54Z</time></trkpt>
<trkpt lat="46.1785583" lon="7.3361000"><ele></ele><time>2016-5-22T9:42:57Z</time></trkpt>
<trkpt lat="46.1785567" lon="7.3361217"><ele></ele><time>2016-5-22T9:43:0Z</time></trkpt>
<trkpt lat="46.1785550" lon="7.3361417"><ele></ele><time>2016-5-22T9:43:3Z</time></trkpt>
<trkpt lat="46.1785567" lon="7.3361633"><ele></ele><time>2016-5-22T9:43:6Z</time></trkpt>
<trkpt lat="46.1785583" lon="7.3361850"><ele></ele><time>2016-5-22T9:43:9Z</time></trkpt>
<trkpt lat="46.1785583" lon="7.3362050"><ele></ele><time>2016-5-22T9:43:12Z</time></trkpt>
<trkpt lat="46.1785567" lon="7.3362250"><ele></ele><time>2016-5-22T9:43:15Z</time></trkpt>
<trkpt lat="46.1785533" lon="7.3362450"><ele></ele><time>2016-5-22T9:43:18Z</time></trkpt>
<trkpt lat="46.1785517" lon="7.3362683"><ele></ele><time>2016-5-22T9:43:21Z</time></trkpt>
<trkpt lat="46.1785500" lon="7.3362900"><ele></ele><time>2016-5-22T9:43:24Z</time></trkpt>
<trkpt lat="46.1785500" lon="7.3362900"><ele></ele><time>2016-5-22T9:43:27Z</time></trkpt>
<trkpt lat="46.1785467" lon="7.3363100"><ele></ele><time>2016-5-22T9:43:30Z</time></trkpt>
<trkpt lat="46.1785450" lon="7.3363317"><ele></ele><time>2016-5-22T9:43:33Z</time></trkpt>
<trkpt lat="46.1785450" lon="7.3363517"><ele></ele><time>2016-5-22T9:43:36Z</time></trkpt>
<trkpt lat="46.1785467" lon="7.3363733"><ele></ele><time>2016-5-22T9:43:39Z</time></trkpt>
<trkpt lat="46.1785500" lon="7.3363967"><ele></ele><time>2016-5-22T9:43:42Z</time></trkpt>
<trkpt lat="46.1785583" lon="7.3364183"><ele></ele><time>2016-5-22T9:43:45Z</time></trkpt>
<trkpt lat="46.1785633" lon="7.3364400"><ele></ele><time>2016-5-22T9:43:48Z</time></trkpt>
<trkpt lat="46.1785617" lon="7.3364583"><ele></ele><time>2016-5-22T9:43:51Z</time></trkpt>
<trkpt lat="46.1785583" lon="7.3364767"><ele></ele><time>2016-5-22T9:43:54Z</time></trkpt>
<trkpt lat="46.1785517" lon="7.3365000"><ele></ele><time>2016-5-22T9:43:57Z</time></trkpt>
<trkpt lat="46.1785450" lon="7.3365233"><ele></ele><time>2016-5-22T9:44:0Z</time></trkpt>
<trkpt lat="46.1785367" lon="7.3365433"><ele></ele><time>2016-5-22T9:44:3Z</time></trkpt>
<trkpt lat="46.1785367" lon="7.3365433"><ele></ele><time>2016-5-22T9:44:6Z</time></trkpt>
<trkpt lat="46.1785367" lon="7.3365667"><ele></ele><time>2016-5-22T9:44:9Z</time></trkpt>
<trkpt lat="46.1785417" lon="7.3365900"><ele></ele><time>2016-5-22T9:44:12Z</time></trkpt>
<trkpt lat="46.1785450" lon="7.3366133"><ele></ele><time>2016-5-22T9:44:15Z</time></trkpt>
<trkpt lat="46.1785467" lon="7.3366383"><ele></ele><time>2016-5-22T9:44:18Z</time></trkpt>
<trkpt lat="46.1785467" lon="7.3366617"><ele></ele><time>2016-5-22T9:44:21Z</time></trkpt>
<trkpt lat="46.1785450" lon="7.3366817"><ele></ele><time>2016-5-22T9:44:24Z</time></trkpt>
<trkpt lat="46.1785483" lon="7.3367050"><ele></ele><time>2016-5-22T9:44:27Z</time></trkpt>
<trkpt lat="46.1785533" lon="7.3367300"><ele></ele><time>2016-5-22T9:44:30Z</time></trkpt>
<trkpt lat="46.1785600" lon="7.3367533"><ele></ele><time>2016-5-22T9:44:33Z</time></trkpt>
<trkpt lat="46.1785633" lon="7.3367750"><ele></ele><time>2016-5-22T9:44:36Z</time></trkpt>
<trkpt lat="46.1785667" lon="7.3367933"><ele></ele><time>2016-5-22T9:44:39Z</time></trkpt>
<trkpt lat="46.1785700" lon="7.3368117"><ele></ele><time>2016-5-22T9:44:42Z</time></trkpt>
<trkpt lat="46.1785700" lon="7.3368117"><ele></ele><time>2016-5-22T9:44:45Z</time></trkpt>
<trkpt lat="46.1785717" lon="7.3368300"><ele></ele><time>2016-5-22T9:44:48Z</time></trkpt>
<trkpt lat="46.1785767" lon="7.3368500"><ele></ele><time>2016-5-22T9:44:51Z</time></trkpt>
<trkpt lat="46.1785817" lon="7.3368700"><ele></ele><time>2016-5-22T9:44:54Z</time></trkpt>
<trkpt lat="46.1785850" lon="7.3368933"><ele></ele><time>2016-5-22T9:44:57Z</time></trkpt>
<trkpt lat="46.1785850" lon="7.3369117"><ele></ele><time>2016-5-22T9:45:0Z</time></trkpt>
<trkpt lat="46.1785850" lon="7.3369283"><ele></ele><time>2016-5-22T9:45:3Z</time></trkpt>
<trkpt lat="46.1785833" lon="7.3369500"><ele></ele><time>2016-5-22T9:45:6Z</time></trkpt>
<trkpt lat="46.1785833" lon="7.3369717"><ele></ele><time>2016-5-22T9:45:9Z</time></trkpt>
<trkpt lat="46.1785817" lon="7.3369933"><ele></ele><time>2016-5-22T9:45:12Z</time></trkpt>
<trkpt lat="46.1785817" lon="7.3370167"><ele></ele><time>2016-5-22T9:45:15Z</time></trkpt>
<trkpt lat="46.1785800" lon="7.3370383"><ele></ele><time>2016-5-22T9:45:18Z</time></trkpt>
<trkpt lat="46.1785783" lon="7.3370600"><ele></ele><time>2016-5-22T9:45:21Z</time></trkpt>
<trkpt lat="46.1785783" lon="7.3370600"><ele></ele><time>2016-5-22T9:45:24Z</time></trkpt>
<trkpt lat="46.1785767" lon="7.3370817"><ele></ele><time>2016-5-22T9:45:27Z</time></trkpt>
<trkpt lat="46.1785783" lon="7.3371067"><ele></ele><time>2016-5-22T9:45:30Z</time></trkpt>
<trkpt lat="46.1785800" lon="7.3371283"><ele></ele><time>2016-5-22T9:45:33Z</time></trkpt>
<trkpt lat="46.1785783" lon="7.3371500"><ele></ele><time>2016-5-22T9:45:36Z</time></trkpt>
<trkpt lat="46.1785767" lon="7.3371750"><ele></ele><time>2016-5-22T9:45:39Z</time></trkpt>
<trkpt lat="46.1785750" lon="7.3371983"><ele></ele><time>2016-5-22T9:45:42Z</time></trkpt>
<trkpt lat="46.1785750" lon="7.3372217"><ele></ele><time>2016-5-22T9:45:45Z</time></trkpt>
<trkpt lat="46.1785767" lon="7.3372467"><ele></ele><time>2016-5-22T9:45:48Z</time></trkpt>
<trkpt lat="46.1785800" lon="7.3372733"><ele></ele><time>2016-5-22T9:45:51Z</time></trkpt>
<trkpt lat="46.1785817" lon="7.3372967"><ele></ele><time>2016-5-22T9:45:54Z</time></trkpt>
<trkpt lat="46.1785800" lon="7.3373183"><ele></ele><time>2016-5-22T9:45:57Z</time></trkpt>
<trkpt lat="46.1785783" lon="7.3373367"><ele></ele><time>2016-5-22T9:46:0Z</time></trkpt>
<trkpt lat="46.1785783" lon="7.3373367"><ele></ele><time>2016-5-22T9:46:3Z</time></trkpt>
<trkpt lat="46.1785733" lon="7.3373550"><ele></ele><time>2016-5-22T9:46:6Z</time></trkpt>
<trkpt lat="46.1785683" lon="7.3373733"><ele></ele><time>2016-5-22T9:46:9Z</time></trkpt>
<trkpt lat="46.1785633" lon="7.3373883"><ele></ele><time>2016-5-22T9:46:12Z</time></trkpt>
<trkpt lat="46.1785567" lon="7.3374067"><ele></ele><time>2016-5-22T9:46:15Z</time></trkpt>
<trkpt lat="46.1785483" lon="7.3374250"><ele></ele><time>2016-5-22T9:46:18Z</time></trkpt>
<trkpt lat="46.1785383" lon="7.3374450"><ele></ele><time>2016-5-22T9:46:21Z</time></trkpt>
<trkpt lat="46.1785367" lon="7.3374667"><ele></ele><time>2016-5-22T9:46:24Z</time></trkpt>
<trkpt lat="46.1785367" lon="7.3374917"><ele></ele><time>2016-5-22T9:46:27Z</time></trkpt>
<trkpt lat="46.1785383" lon="7.3375150"><ele></ele><time>2016-5-22T9:46:30Z</time></trkpt>
<trkpt lat="46.1785417" lon="7.3375417"><ele></ele><time>2016-5-22T9:46:33Z</time></trkpt>
<trkpt lat="46.1785450" lon="7.3375650"><ele></ele><time>2016-5-22T9:46:36Z</time></trkpt>
<trkpt lat="46.1785500" lon="7.3375867"><ele></ele><time>2016-5-22T9:46:39Z</time></trkpt>
<trkpt lat="46.1785500" lon="7.3375867"><ele></ele><time>2016-5-22T9:46:42Z</time></trkpt>
<trkpt lat="46.1785517" lon="7.3376083"><ele></ele><time>2016-5-22T9:46:45Z</time></trkpt>
<trkpt lat="46.1785517" lon="7.3376333"><ele></ele><time>2016-5-22T9:46:48Z</time></trkpt>
<trkpt lat="46.1785500" lon="7.3376533"><ele></ele><time>2016-5-22T9:46:51Z</time></trkpt>
<trkpt lat="46.1785483" lon="7.3376717"><ele></ele><time>2016-5-22T9:46:54Z</time></trkpt>
<trkpt lat="46.1785467" lon="7.3376900"><ele></ele><time>2016-5-22T9:46:57Z</time></trkpt>
<trkpt lat="46.1785450" lon="7.3377083"><ele></ele><time>2016-5-22T9:47:0Z</time></trkpt>
<trkpt lat="46.1785467" lon="7.3377300"><ele></ele><time>2016-5-22T9:47:3Z</time></trkpt>
<trkpt lat="46.1785500" lon="7.3377517"><ele></ele><time>2016-5-22T9:47:6Z</time></trkpt>
<trkpt lat="46.1785517" lon="7.3377733"><ele></ele><time>2016-5-22T9:47:9Z</time></trkpt>
<trkpt lat="46.1785517" lon="7.3377950"><ele></ele><time>2016-5-22T9:47:12Z</time></trkpt>
<trkpt lat="46.1785517" lon="7.3378133"><ele></ele><time>2016-5-22T9:47:15Z</time></trkpt>
<trkpt lat="46.1785517" lon="7.3378317"><ele></ele><time>2016-5-22T9:47:18Z</time></trkpt>
<trkpt lat="46.1785517" lon="7.3378317"><ele></ele><time>2016-5-22T9:47:21Z</time></trkpt>
<trkpt lat="46.1785533" lon="7.3378483"><ele></ele><time>2016-5-22T9:47:24Z</time></trkpt>
<trkpt lat="46.1785500" lon="7.3378667"><ele></ele><time>2016-5-22T9:47:27Z</time></trkpt>
<trkpt lat="46.1785467" lon="7.3378817"><ele></ele><time>2016-5-22T9:47:30Z</time></trkpt>
<trkpt lat="46.1785400" lon="7.3379000"><ele></ele><time>2016-5-22T9:47:33Z</time></trkpt>
<trkpt lat="46.1785350" lon="7.3379217"><ele></ele><time>2016-5-22T9:47:36Z</time></trkpt>
<trkpt lat="46.1785317" lon="7.3379433"><ele></ele><time>2016-5-22T9:47:39Z</time></trkpt>
<trkpt lat="46.1785283" lon="7.3379650"><ele></ele><time>2016-5-22T9:47:42Z</time></trkpt>
<trkpt lat="46.1785250" lon="7.3379867"><ele></ele><time>2016-5-22T9:47:45Z</time></trkpt>
<trkpt lat="46.1785217" lon="7.3380100"><ele></ele><time>2016-5-22T9:47:48Z</time></trkpt>
<trkpt lat="46.1785183" lon="7.3380333"><ele></ele><time>2016-5-22T9:47:51Z</time></trkpt>
<trkpt lat="46.1785133" lon="7.3380550"><ele></ele><time>2016-5-22T9:47:54Z</time></trkpt>
<trkpt lat="46.1785067" lon="7.3380750"><ele></ele><time>2016-5-22T9:47:57Z</time></trkpt>
<trkpt lat="46.1785000" lon="7.3380950"><ele></ele><time>2016-5-22T9:48:0Z</time></trkpt>
<trkpt lat="46.1784933" lon="7.3381133"><ele></ele><time>2016-5-22T9:48:3Z</time></trkpt>
<trkpt lat="46.1784867" lon="7.3381283"><ele></ele><time>2016-5-22T9:48:6Z</time></trkpt>
<trkpt lat="46.1784783" lon="7.3381467"><ele></ele><time>2016-5-22T9:48:9Z</time></trkpt>
<trkpt lat="46.1784733" lon="7.3381650"><ele></ele><time>2016-5-22T9:48:12Z</time></trkpt>
<trkpt lat="46.1784700" lon="7.3381833"><ele></ele><time>2016-5-22T9:48:15Z</time></trkpt>
<trkpt lat="46.1784683" lon="7.3382000"><ele></ele><time>2016-5-22T9:48:18Z</time></trkpt>
<trkpt lat="46.1784633" lon="7.3382183"><ele></ele><time>2016-5-22T9:48:21Z</time></trkpt>
<trkpt lat="46.1784600" lon="7.3382417"><ele></ele><time>2016-5-22T9:48:24Z</time></trkpt>
<trkpt lat="46.1784550" lon="7.3382617"><ele></ele><time>2016-5-22T9:48:27Z</time></trkpt>
<trkpt lat="46.1784500" lon="7.3382817"><ele></ele><time>2016-5-22T9:48:30Z</time></trkpt>
<trkpt lat="46.1784450" lon="7.3382983"><ele></ele><time>2016-5-22T9:48:33Z</time></trkpt>
<trkpt lat="46.1784433" lon="7.3383150"><ele></ele><time>2016-5-22T9:48:36Z</time></trkpt>
<trkpt lat="46.1784433" lon="7.3383317"><ele></ele><time>2016-5-22T9:48:39Z</time></trkpt>
<trkpt lat="46.1784433" lon="7.3383517"><ele></ele><time>2016-5-22T9:48:42Z</time></trkpt>
<trkpt lat="46.1784433" lon="7.3383750"><ele></ele><time>2016-5-22T9:48:45Z</time></trkpt>
<trkpt lat="46.1784417" lon="7.3383950"><ele></ele><time>2016-5-22T9:48:48Z</time></trkpt>
<trkpt lat="46.1784417" lon="7.3384167"><ele></ele><time>2016-5-22T9:48:51Z</time></trkpt>
<trkpt lat="46.1784417" lon="7.3384433"><ele></ele><time>2016-5-22T9:48:54Z</time></trkpt>
<trkpt lat="46.1784417" lon="7.3384717"><ele></ele><time>2016-5-22T9:48:57Z</time></trkpt>
<trkpt lat="46.1784400" lon="7.3384967"><ele></ele><time>2016-5-22T9:49:0Z</time></trkpt>
<trkpt lat="46.1784367" lon="7.3385217"><ele></ele><time>2016-5-22T9:49:3Z</time></trkpt>
<trkpt lat="46.1784300" lon="7.3385450"><ele></ele><time>2016-5-22T9:49:6Z</time></trkpt>
<trkpt lat="46.1784233" lon="7.3385683"><ele></ele><time>2016-5-22T9:49:9Z</time></trkpt>
<trkpt lat="46.1784183" lon="7.3385917"><ele></ele><time>2016-5-22T9:49:12Z</time></trkpt>
<trkpt lat="46.1784150" lon="7.3386150"><ele></ele><time>2016-5-22T9:49:15Z</time></trkpt>
<trkpt lat="46.1784100" lon="7.3386367"><ele></ele><time>2016-5-22T9:49:18Z</time></trkpt>
<trkpt lat="46.1784050" lon="7.3386567"><ele></ele><time>2016-5-22T9:49:21Z</time></trkpt>
<trkpt lat="46.1783983" lon="7.3386767"><ele></ele><time>2016-5-22T9:49:24Z</time></trkpt>
<trkpt lat="46.1783900" lon="7.3386933"><ele></ele><time>2016-5-22T9:49:27Z</time></trkpt>
<trkpt lat="46.1783833" lon="7.3387117"><ele></ele><time>2016-5-22T9:49:30Z</time></trkpt>
<trkpt lat="46.1783767" lon="7.3387300"><ele></ele><time>2016-5-22T9:49:33Z</time></trkpt>
<trkpt lat="46.1783733" lon="7.3387467"><ele></ele><time>2016-5-22T9:49:36Z</time></trkpt>
<trkpt lat="46.1783700" lon="7.3387667"><ele></ele><time>2016-5-22T9:49:39Z</time></trkpt>
<trkpt lat="46.1783667" lon="7.3387883"><ele></ele><time>2016-5-22T9:49:42Z</time></trkpt>
<trkpt lat="46.1783633" lon="7.3388133"><ele></ele><time>2016-5-22T9:49:45Z</time></trkpt>
<trkpt lat="46.1783617" lon="7.3388383"><ele></ele><time>2016-5-22T9:49:48Z</time></trkpt>
<trkpt lat="46.1783633" lon="7.3388617"><ele></ele><time>2016-5-22T9:49:51Z</time></trkpt>
<trkpt lat="46.1783650" lon="7.3388850"><ele></ele><time>2016-5-22T9:49:54Z</time></trkpt>
<trkpt lat="46.1783633" lon="7.3389117"><ele></ele><time>2016-5-22T9:49:57Z</time></trkpt>
<trkpt lat="46.1783650" lon="7.3389417"><ele></ele><time>2016-5-22T9:50:0Z</time></trkpt>
<trkpt lat="46.1783650" lon="7.3389667"><ele></ele><time>2016-5-22T9:50:3Z</time></trkpt>
<trkpt lat="46.1783650" lon="7.3389883"><ele></ele><time>2016-5-22T9:50:6Z</time></trkpt>
<trkpt lat="46.1783633" lon="7.3390083"><ele></ele><time>2016-5-22T9:50:9Z</time></trkpt>
<trkpt lat="46.1783583" lon="7.3390283"><ele></ele><time>2016-5-22T9:50:12Z</time></trkpt>
<trkpt lat="46.1783533" lon="7.3390500"><ele></ele><time>2016-5-22T9:50:15Z</time></trkpt>
<trkpt lat="46.1783467" lon="7.3390683"><ele></ele><time>2016-5-22T9:50:18Z</time></trkpt>
<trkpt lat="46.1783400" lon="7.3390883"><ele></ele><time>2016-5-22T9:50:21Z</time></trkpt>
<trkpt lat="46.1783350" lon="7.3391083"><ele></ele><time>2016-5-22T9:50:24Z</time></trkpt>
<trkpt lat="46.1783267" lon="7.3391250"><ele></ele><time>2016-5-22T9:50:27Z</time></trkpt>
<trkpt lat="46.1783183" lon="7.3391400"><ele></ele><time>2016-5-22T9:50:30Z</time></trkpt>
<trkpt lat="46.1783117" lon="7.3391600"><ele></ele><time>2016-5-22T9:50:33Z</time></trkpt>
<trkpt lat="46.1783050" lon="7.3391867"><ele></ele><time>2016-5-22T9:50:36Z</time></trkpt>
<trkpt lat="46.1783000" lon="7.3392133"><ele></ele><time>2016-5-22T9:50:39Z</time></trkpt>
<trkpt lat="46.1782950" lon="7.3392383"><ele></ele><time>2016-5-22T9:50:42Z</time></trkpt>
<trkpt lat="46.1782900" lon="7.3392633"><ele></ele><time>2016-5-22T9:50:45Z</time></trkpt>
<trkpt lat="46.1782867" lon="7.3392867"><ele></ele><time>2016-5-22T9:50:48Z</time></trkpt>
<trkpt lat="46.1782850" lon="7.3393100"><ele></ele><time>2016-5-22T9:50:51Z</time></trkpt>
<trkpt lat="46.1782850" lon="7.3393317"><ele></ele><time>2016-5-22T9:50:54Z</time></trkpt>
<trkpt lat="46.1782867" lon="7.3393517"><ele></ele><time>2016-5-22T9:50:57Z</time></trkpt>
<trkpt lat="46.1782833" lon="7.3393700"><ele></ele><time>2016-5-22T9:51:0Z</time></trkpt>
<trkpt lat="46.1782817" lon="7.3393917"><ele></ele><time>2016-5-22T9:51:3Z</time></trkpt>
<trkpt lat="46.1782783" lon="7.3394117"><ele></ele><time>2016-5-22T9:51:6Z</time></trkpt>
<trkpt lat="46.1782783" lon="7.3394317"><ele></ele><time>2016-5-22T9:51:9Z</time></trkpt>
<trkpt lat="46.1782817" lon="7.3394533"><ele></ele><time>2016-5-22T9:51:12Z</time></trkpt>
<trkpt lat="46.1782850" lon="7.3394767"><ele></ele><time>2016-5-22T9:51:15Z</time></trkpt>
<trkpt lat="46.1782883" lon="7.3394983"><ele></ele><time>2016-5-22T9:51:18Z</time></trkpt>
<trkpt lat="46.1782950" lon="7.3395200"><ele></ele><time>2016-5-22T9:51:21Z</time></trkpt>
<trkpt lat="46.1783000" lon="7.3395417"><ele></ele><time>2016-5-22T9:51:24Z</time></trkpt>
<trkpt lat="46.1783067" lon="7.3395633"><ele></ele><time>2016-5-22T9:51:27Z</time></trkpt>
<trkpt lat="46.1783100" lon="7.3395850"><ele></ele><time>2016-5-22T9:51:30Z</time></trkpt>
<trkpt lat="46.1783100" lon="7.3396083"><ele></ele><time>2016-5-22T9:51:33Z</time></trkpt>
<trkpt lat="46.1783067" lon="7.3396267"><ele></ele><time>2016-5-22T9:51:36Z</time></trkpt>
<trkpt lat="46.1783017" lon="7.3396467"><ele></ele><time>2016-5-22T9:51:39Z</time></trkpt>
<trkpt lat="46.1782933" lon="7.3396667"><ele></ele><time>2016-5-22T9:51:42Z</time></trkpt>
<trkpt lat="46.1782883" lon="7.3396883"><ele></ele><time>2016-5-22T9:51:45Z</time></trkpt>
<trkpt lat="46.1782833" lon="7.3397083"><ele></ele><time>2016-5-22T9:51:48Z</time></trkpt>
<trkpt lat="46.1782817" lon="7.3397283"><ele></ele><time>2016-5-22T9:51:51Z</time></trkpt>
<trkpt lat="46.1782800" lon="7.3397483"><ele></ele><time>2016-5-22T9:51:54Z</time></trkpt>
<trkpt lat="46.1782800" lon="7.3397650"><ele></ele><time>2016-5-22T9:51:57Z</time></trkpt>
<trkpt lat="46.1782850" lon="7.3397883"><ele></ele><time>2016-5-22T9:52:0Z</time></trkpt>
<trkpt lat="46.1782900" lon="7.3398133"><ele></ele><time>2016-5-22T9:52:3Z</time></trkpt>
<trkpt lat="46.1782983" lon="7.3398367"><ele></ele><time>2016-5-22T9:52:6Z</time></trkpt>
<trkpt lat="46.1783050" lon="7.3398600"><ele></ele><time>2016-5-22T9:52:9Z</time></trkpt>
<trkpt lat="46.1783150" lon="7.3398817"><ele></ele><time>2016-5-22T9:52:12Z</time></trkpt>
<trkpt lat="46.1783233" lon="7.3399033"><ele></ele><time>2016-5-22T9:52:15Z</time></trkpt>
<trkpt lat="46.1783333" lon="7.3399283"><ele></ele><time>2016-5-22T9:52:18Z</time></trkpt>
<trkpt lat="46.1783400" lon="7.3399533"><ele></ele><time>2016-5-22T9:52:21Z</time></trkpt>
<trkpt lat="46.1783500" lon="7.3399800"><ele></ele><time>2016-5-22T9:52:24Z</time></trkpt>
<trkpt lat="46.1783617" lon="7.3400017"><ele></ele><time>2016-5-22T9:52:27Z</time></trkpt>
<trkpt lat="46.1783717" lon="7.3400283"><ele></ele><time>2016-5-22T9:52:30Z</time></trkpt>
<trkpt lat="46.1783783" lon="7.3400550"><ele></ele><time>2016-5-22T9:52:33Z</time></trkpt>
<trkpt lat="46.1783817" lon="7.3400783"><ele></ele><time>2016-5-22T9:52:36Z</time></trkpt>
<trkpt lat="46.1783883" lon="7.3401033"><ele></ele><time>2016-5-22T9:52:39Z</time></trkpt>
<trkpt lat="46.1783950" lon="7.3401267"><ele></ele><time>2016-5-22T9:52:42Z</time></trkpt>
<trkpt lat="46.1784017" lon="7.3401517"><ele></ele><time>2016-5-22T9:52:45Z</time></trkpt>
<trkpt lat="46.1784083" lon="7.3401733"><ele></ele><time>2016-5-22T9:52:48Z</time></trkpt>
<trkpt lat="46.1784150" lon="7.3401983"><ele></ele><time>2016-5-22T9:52:51Z</time></trkpt>
<trkpt lat="46.1784200" lon="7.3402217"><ele></ele><time>2016-5-22T9:52:54Z</time></trkpt>
<trkpt lat="46.1784233" lon="7.3402450"><ele></ele><time>2016-5-22T9:52:57Z</time></trkpt>
<trkpt lat="46.1784250" lon="7.3402650"><ele></ele><time>2016-5-22T9:53:0Z</time></trkpt>
<trkpt lat="46.1784250" lon="7.3402817"><ele></ele><time>2016-5-22T9:53:3Z</time></trkpt>
<trkpt lat="46.1784200" lon="7.3403067"><ele></ele><time>2016-5-22T9:53:6Z</time></trkpt>
<trkpt lat="46.1784150" lon="7.3403317"><ele></ele><time>2016-5-22T9:53:9Z</time></trkpt>
<trkpt lat="46.1784083" lon="7.3403583"><ele></ele><time>2016-5-22T9:53:12Z</time></trkpt>
<trkpt lat="46.1783983" lon="7.3403850"><ele></ele><time>2016-5-22T9:53:15Z</time></trkpt>
<trkpt lat="46.1783883" lon="7.3404150"><ele></ele><time>2016-5-22T9:53:18Z</time></trkpt>
<trkpt lat="46.1783800" lon="7.3404383"><ele></ele><time>2016-5-22T9:53:21Z</time></trkpt>
<trkpt lat="46.1783683" lon="7.3404550"><ele></ele><time>2016-5-22T9:53:24Z</time></trkpt>
<trkpt lat="46.1783567" lon="7.3404700"><ele></ele><time>2016-5-22T9:53:27Z</time></trkpt>
<trkpt lat="46.1783417" lon="7.3404883"><ele></ele><time>2016-5-22T9:53:30Z</time></trkpt>
<trkpt lat="46.1783300" lon="7.3405083"><ele></ele><time>2016-5-22T9:53:33Z</time></trkpt>
<trkpt lat="46.1783217" lon="7.3405283"><ele></ele><time>2016-5-22T9:53:36Z</time></trkpt>
<trkpt lat="46.1783100" lon="7.3405517"><ele></ele><time>2016-5-22T9:53:39Z</time></trkpt>
<trkpt lat="46.1782983" lon="7.3405750"><ele></ele><time>2016-5-22T9:53:42Z</time></trkpt>
<trkpt lat="46.1782900" lon="7.3406000"><ele></ele><time>2016-5-22T9:53:45Z</time></trkpt>
<trkpt lat="46.1782833" lon="7.3406217"><ele></ele><time>2016-5-22T9:53:48Z</time></trkpt>
<trkpt lat="46.1782783" lon="7.3406450"><ele></ele><time>2016-5-22T9:53:51Z</time></trkpt>
<trkpt lat="46.1782733" lon="7.3406700"><ele></ele><time>2016-5-22T9:53:54Z</time></trkpt>
<trkpt lat="46.1782717" lon="7.3406933"><ele></ele><time>2016-5-22T9:53:57Z</time></trkpt>
<trkpt lat="46.1782733" lon="7.3407133"><ele></ele><time>2016-5-22T9:54:0Z</time></trkpt>
<trkpt lat="46.1782750" lon="7.3407317"><ele></ele><time>2016-5-22T9:54:3Z</time></trkpt>
<trkpt lat="46.1782733" lon="7.3407483"><ele></ele><time>2016-5-22T9:54:6Z</time></trkpt>
<trkpt lat="46.1782733" lon="7.3407633"><ele></ele><time>2016-5-22T9:54:9Z</time></trkpt>
<trkpt lat="46.1782783" lon="7.3407783"><ele></ele><time>2016-5-22T9:54:12Z</time></trkpt>
<trkpt lat="46.1782833" lon="7.3407933"><ele></ele><time>2016-5-22T9:54:15Z</time></trkpt>
<trkpt lat="46.1782933" lon="7.3408117"><ele></ele><time>2016-5-22T9:54:18Z</time></trkpt>
<trkpt lat="46.1783033" lon="7.3408300"><ele></ele><time>2016-5-22T9:54:21Z</time></trkpt>
<trkpt lat="46.1783100" lon="7.3408467"><ele></ele><time>2016-5-22T9:54:24Z</time></trkpt>
<trkpt lat="46.1783183" lon="7.3408683"><ele></ele><time>2016-5-22T9:54:27Z</time></trkpt>
<trkpt lat="46.1783233" lon="7.3408867"><ele></ele><time>2016-5-22T9:54:30Z</time></trkpt>
<trkpt lat="46.1783250" lon="7.3409033"><ele></ele><time>2016-5-22T9:54:33Z</time></trkpt>
<trkpt lat="46.1783300" lon="7.3409217"><ele></ele><time>2016-5-22T9:54:36Z</time></trkpt>
<trkpt lat="46.1783350" lon="7.3409433"><ele></ele><time>2016-5-22T9:54:39Z</time></trkpt>
<trkpt lat="46.1783400" lon="7.3409633"><ele></ele><time>2016-5-22T9:54:42Z</time></trkpt>
<trkpt lat="46.1783467" lon="7.3409850"><ele></ele><time>2016-5-22T9:54:45Z</time></trkpt>
<trkpt lat="46.1783567" lon="7.3410083"><ele></ele><time>2016-5-22T9:54:48Z</time></trkpt>
<trkpt lat="46.1783650" lon="7.3410300"><ele></ele><time>2016-5-22T9:54:51Z</time></trkpt>
<trkpt lat="46.1783733" lon="7.3410467"><ele></ele><time>2016-5-22T9:54:54Z</time></trkpt>
<trkpt lat="46.1783817" lon="7.3410617"><ele></ele><time>2016-5-22T9:54:57Z</time></trkpt>
<trkpt lat="46.1783900" lon="7.3410783"><ele></ele><time>2016-5-22T9:55:0Z</time></trkpt>
<trkpt lat="46.1783950" lon="7.3411000"><ele></ele><time>2016-5-22T9:55:3Z</time></trkpt>
<trkpt lat="46.1783983" lon="7.3411183"><ele></ele><time>2016-5-22T9:55:6Z</time></trkpt>
<trkpt lat="46.1784017" lon="7.3411367"><ele></ele><time>2016-5-22T9:55:9Z</time></trkpt>
<trkpt lat="46.1784017" lon="7.3411550"><ele></ele><time>2016-5-22T9:55:12Z</time></trkpt>
<trkpt lat="46.1783983" lon="7.3411767"><ele></ele><time>2016-5-22T9:55:15Z</time></trkpt>
<trkpt lat="46.1783917" lon="7.3412000"><ele></ele><time>2016-5-22T9:55:18Z</time></trkpt>
<trkpt lat="46.1783833" lon="7.3412250"><ele></ele><time>2016-5-22T9:55:21Z</time></trkpt>
<trkpt lat="46.1783767" lon="7.3412517"><ele></ele><time>2016-5-22T9:55:24Z</time></trkpt>
<trkpt lat="46.1783733" lon="7.3412767"><ele></ele><time>2016-5-22T9:55:27Z</time></trkpt>
<trkpt lat="46.1783683" lon="7.3413017"><ele></ele><time>2016-5-22T9:55:30Z</time></trkpt>
<trkpt lat="46.1783617" lon="7.3413233"><ele></ele><time>2016-5-22T9:55:33Z</time></trkpt>
<trkpt lat="46.1783533" lon="7.3413417"><ele></ele><time>2016-5-22T9:55:36Z</time></trkpt>
<trkpt lat="46.1783433" lon="7.3413583"><ele></ele><time>2016-5-22T9:55:39Z</time></trkpt>
<trkpt lat="46.1783350" lon="7.3413700"><ele></ele><time>2016-5-22T9:55:42Z</time></trkpt>
<trkpt lat="46.1783300" lon="7.3413750"><ele></ele><time>2016-5-22T9:55:45Z</time></trkpt>
<trkpt lat="46.1783217" lon="7.3413783"><ele></ele><time>2016-5-22T9:55:48Z</time></trkpt>
<trkpt lat="46.1783150" lon="7.3413817"><ele></ele><time>2016-5-22T9:55:51Z</time></trkpt>
<trkpt lat="46.1783083" lon="7.3413817"><ele></ele><time>2016-5-22T9:55:54Z</time></trkpt>
<trkpt lat="46.1783083" lon="7.3413817"><ele></ele><time>2016-5-22T9:55:57Z</time></trkpt>
<trkpt lat="46.1783083" lon="7.3413817"><ele></ele><time>2016-5-22T9:56:0Z</time></trkpt>
<trkpt lat="46.1783083" lon="7.3413817"><ele></ele><time>2016-5-22T9:56:3Z</time></trkpt>
<trkpt lat="46.1783083" lon="7.3413817"><ele></ele><time>2016-5-22T9:56:6Z</time></trkpt>
<trkpt lat="46.1783083" lon="7.3413817"><ele></ele><time>2016-5-22T9:56:9Z</time></trkpt>
<trkpt lat="46.1783083" lon="7.3413817"><ele></ele><time>2016-5-22T9:56:12Z</time></trkpt>
<trkpt lat="46.1783083" lon="7.3413817"><ele></ele><time>2016-5-22T9:56:15Z</time></trkpt>
<trkpt lat="46.1783083" lon="7.3413817"><ele></ele><time>2016-5-22T9:56:18Z</time></trkpt>
<trkpt lat="46.1783083" lon="7.3413817"><ele></ele><time>2016-5-22T9:56:21Z</time></trkpt>
<trkpt lat="46.1783083" lon="7.3413817"><ele></ele><time>2016-5-22T9:56:24Z</time></trkpt>
<trkpt lat="46.1783083" lon="7.3413817"><ele></ele><time>2016-5-22T9:56:27Z</time></trkpt>
<trkpt lat="46.1783083" lon="7.3413817"><ele></ele><time>2016-5-22T9:56:30Z</time></trkpt>
<trkpt lat="46.1783083" lon="7.3413817"><ele></ele><time>2016-5-22T9:56:33Z</time></trkpt>
<trkpt lat="46.1783083" lon="7.3413817"><ele></ele><time>2016-5-22T9:56:36Z</time></trkpt>
<trkpt lat="46.1783083" lon="7.3413817"><ele></ele><time>2016-5-22T9:56:39Z</time></trkpt>
<trkpt lat="46.1783083" lon="7.3413817"><ele></ele><time>2016-5-22T9:56:42Z</time></trkpt>
<trkpt lat="46.1783083" lon="7.3413817"><ele></ele><time>2016-5-22T9:56:45Z</time></trkpt>
<trkpt lat="46.1783083" lon="7.3413817"><ele></ele><time>2016-5-22T9:56:48Z</time></trkpt>
<trkpt lat="46.1783083" lon="7.3413817"><ele></ele><time>2016-5-22T9:56:51Z</time></trkpt>
<trkpt lat="46.1783083" lon="7.3413817"><ele></ele><time>2016-5-22T9:56:54Z</time></trkpt>
<trkpt lat="46.1783083" lon="7.3413817"><ele></ele><time>2016-5-22T9:56:57Z</time></trkpt>
<trkpt lat="46.1783083" lon="7.3413817"><ele></ele><time>2016-5-22T9:57:0Z</time></trkpt>
<trkpt lat="46.1783083" lon="7.3413817"><ele></ele><time>2016-5-22T9:57:3Z</time></trkpt>
<trkpt lat="46.1783083" lon="7.3413817"><ele></ele><time>2016-5-22T9:57:6Z</time></trkpt>
<trkpt lat="46.1783083" lon="7.3413817"><ele></ele><time>2016-5-22T9:57:9Z</time></trkpt>
<trkpt lat="46.1783083" lon="7.3413817"><ele></ele><time>2016-5-22T9:57:12Z</time></trkpt>
<trkpt lat="46.1783083" lon="7.3413817"><ele></ele><time>2016-5-22T9:57:15Z</time></trkpt>
<trkpt lat="46.1783083" lon="7.3413817"><ele></ele><time>2016-5-22T9:57:18Z</time></trkpt>
<trkpt lat="46.1783083" lon="7.3413817"><ele></ele><time>2016-5-22T9:57:21Z</time></trkpt>
<trkpt lat="46.1783083" lon="7.3413817"><ele></ele><time>2016-5-22T9:57:24Z</time></trkpt>
<trkpt lat="46.1783083" lon="7.3413817"><ele></ele><time>2016-5-22T9:57:27Z</time></trkpt>
<trkpt lat="46.1783083" lon="7.3413817"><ele></ele><time>2016-5-22T9:57:30Z</time></trkpt>
<trkpt lat="46.1783083" lon="7.3413817"><ele></ele><time>2016-5-22T9:57:33Z</time></trkpt>
<trkpt lat="46.1783083" lon="7.3413817"><ele></ele><time>2016-5-22T9:57:36Z</time></trkpt>
<trkpt lat="46.1783083" lon="7.3413817"><ele></ele><time>2016-5-22T9:57:39Z</time></trkpt>
<trkpt lat="46.1783083" lon="7.3413817"><ele></ele><time>2016-5-22T9:57:42Z</time></trkpt>
<trkpt lat="46.1783083" lon="7.3413817"><ele></ele><time>2016-5-22T9:57:45Z</time></trkpt>
<trkpt lat="46.1783083" lon="7.3413817"><ele></ele><time>2016-5-22T9:57:48Z</time></trkpt>
<trkpt lat="46.1783083" lon="7.3413817"><ele></ele><time>2016-5-22T9:57:51Z</time></trkpt>
<trkpt lat="46.1783083" lon="7.3413817"><ele></ele><time>2016-5-22T9:57:54Z</time></trkpt>
<trkpt lat="46.1783083" lon="7.3413817"><ele></ele><time>2016-5-22T9:57:57Z</time></trkpt>
<trkpt lat="46.1783083" lon="7.3413817"><ele></ele><time>2016-5-22T9:58:0Z</time></trkpt>
<trkpt lat="46.1783083" lon="7.3413817"><ele></ele><time>2016-5-22T9:58:3Z</time></trkpt>
<trkpt lat="46.1783083" lon="7.3413817"><ele></ele><time>2016-5-22T9:58:6Z</time></trkpt>
<trkpt lat="46.1783083" lon="7.3413817"><ele></ele><time>2016-5-22T9:58:9Z</time></trkpt>
<trkpt lat="46.1783083" lon="7.3413817"><ele></ele><time>2016-5-22T9:58:12Z</time></trkpt>
<trkpt lat="46.1783083" lon="7.3413817"><ele></ele><time>2016-5-22T9:58:15Z</time></trkpt>
<trkpt lat="46.1783083" lon="7.3413817"><ele></ele><time>2016-5-22T9:58:18Z</time></trkpt>
<trkpt lat="46.1783083" lon="7.3413817"><ele></ele><time>2016-5-22T9:58:21Z</time></trkpt>
<trkpt lat="46.1783083" lon="7.3413817"><ele></ele><time>2016-5-22T9:58:24Z</time></trkpt>
<trkpt lat="46.1783083" lon="7.3413817"><ele></ele><time>2016-5-22T9:58:27Z</time></trkpt>
<trkpt lat="46.1783083" lon="7.3413817"><ele></ele><time>2016-5-22T9:58:30Z</time></trkpt>
<trkpt lat="46.1783083" lon="7.3413817"><ele></ele><time>2016-5-22T9:58:33Z</time></trkpt>
<trkpt lat="46.1783083" lon="7.3413817"><ele></ele><time>2016-5-22T9:58:36Z</time></trkpt>
<trkpt lat="46.1783083" lon="7.3413817"><ele></ele><time>2016-5-22T9:58:39Z</time></trkpt>
<trkpt lat="46.1783083" lon="7.3413817"><ele></ele><time>2016-5-22T9:58:42Z</time></trkpt>
<trkpt lat="46.1783083" lon="7.3413817"><ele></ele><time>2016-5-22T9:58:45Z</time></trkpt>
<trkpt lat="46.1783083" lon="7.3413817"><ele></ele><time>2016-5-22T9:58:48Z</time></trkpt>
<trkpt lat="46.1783083" lon="7.3413817"><ele></ele><time>2016-5-22T9:58:51Z</time></trkpt>
<trkpt lat="46.1783083" lon="7.3413817"><ele></ele><time>2016-5-22T9:58:54Z</time></trkpt>
<trkpt lat="46.1783083" lon="7.3413817"><ele></ele><time>2016-5-22T9:58:57Z</time></trkpt>
<trkpt lat="46.1783083" lon="7.3413817"><ele></ele><time>2016-5-22T9:59:0Z</time></trkpt>
<trkpt lat="46.1783083" lon="7.3413817"><ele></ele><time>2016-5-22T9:59:3Z</time></trkpt>
<trkpt lat="46.1783083" lon="7.3413817"><ele></ele><time>2016-5-22T9:59:6Z</time></trkpt>
<trkpt lat="46.1783083" lon="7.3413817"><ele></ele><time>2016-5-22T9:59:9Z</time></trkpt>
<trkpt lat="46.1783083" lon="7.3413817"><ele></ele><time>2016-5-22T9:59:12Z</time></trkpt>
<trkpt lat="46.1783083" lon="7.3413817"><ele></ele><time>2016-5-22T9:59:15Z</time></trkpt>
<trkpt lat="46.1783083" lon="7.3413817"><ele></ele><time>2016-5-22T9:59:18Z</time></trkpt>
<trkpt lat="46.1783083" lon="7.3413817"><ele></ele><time>2016-5-22T9:59:21Z</time></trkpt>
<trkpt lat="46.1783083" lon="7.3413817"><ele></ele><time>2016-5-22T9:59:24Z</time></trkpt>
<trkpt lat="46.1783083" lon="7.3413817"><ele></ele><time>2016-5-22T9:59:27Z</time></trkpt>
<trkpt lat="46.1783083" lon="7.3413817"><ele></ele><time>2016-5-22T9:59:30Z</time></trkpt>
<trkpt lat="46.1783083" lon="7.3413817"><ele></ele><time>2016-5-22T9:59:33Z</time></trkpt>
<trkpt lat="46.1783083" lon="7.3413817"><ele></ele><time>2016-5-22T9:59:36Z</time></trkpt>
<trkpt lat="46.1782950" lon="7.3413917"><ele></ele><time>2016-5-22T9:59:39Z</time></trkpt>
<trkpt lat="46.1782967" lon="7.3414017"><ele></ele><time>2016-5-22T9:59:42Z</time></trkpt>
<trkpt lat="46.1782967" lon="7.3414117"><ele></ele><time>2016-5-22T9:59:45Z</time></trkpt>
<trkpt lat="46.1782933" lon="7.3414250"><ele></ele><time>2016-5-22T9:59:48Z</time></trkpt>
<trkpt lat="46.1782900" lon="7.3414383"><ele></ele><time>2016-5-22T9:59:51Z</time></trkpt>
<trkpt lat="46.1782900" lon="7.3414467"><ele></ele><time>2016-5-22T9:59:54Z</time></trkpt>
<trkpt lat="46.1782867" lon="7.3414550"><ele></ele><time>2016-5-22T9:59:57Z</time></trkpt>
<trkpt lat="46.1782833" lon="7.3414667"><ele></ele><time>2016-5-22T10:0:0Z</time></trkpt>
<trkpt lat="46.1782783" lon="7.3414833"><ele></ele><time>2016-5-22T10:0:3Z</time></trkpt>
<trkpt lat="46.1782767" lon="7.3415017"><ele></ele><time>2016-5-22T10:0:6Z</time></trkpt>
<trkpt lat="46.1782750" lon="7.3415250"><ele></ele><time>2016-5-22T10:0:9Z</time></trkpt>
<trkpt lat="46.1782733" lon="7.3415483"><ele></ele><time>2016-5-22T10:0:12Z</time></trkpt>
<trkpt lat="46.1782700" lon="7.3415733"><ele></ele><time>2016-5-22T10:0:15Z</time></trkpt>
<trkpt lat="46.1782667" lon="7.3415950"><ele></ele><time>2016-5-22T10:0:18Z</time></trkpt>
<trkpt lat="46.1782583" lon="7.3416150"><ele></ele><time>2016-5-22T10:0:21Z</time></trkpt>
<trkpt lat="46.1782483" lon="7.3416317"><ele></ele><time>2016-5-22T10:0:24Z</time></trkpt>
<trkpt lat="46.1782350" lon="7.3416500"><ele></ele><time>2016-5-22T10:0:27Z</time></trkpt>
<trkpt lat="46.1782217" lon="7.3416683"><ele></ele><time>2016-5-22T10:0:30Z</time></trkpt>
<trkpt lat="46.1782083" lon="7.3416850"><ele></ele><time>2016-5-22T10:0:33Z</time></trkpt>
<trkpt lat="46.1781900" lon="7.3416983"><ele></ele><time>2016-5-22T10:0:36Z</time></trkpt>
<trkpt lat="46.1781750" lon="7.3417183"><ele></ele><time>2016-5-22T10:0:39Z</time></trkpt>
<trkpt lat="46.1781633" lon="7.3417400"><ele></ele><time>2016-5-22T10:0:42Z</time></trkpt>
<trkpt lat="46.1781500" lon="7.3417617"><ele></ele><time>2016-5-22T10:0:45Z</time></trkpt>
<trkpt lat="46.1781383" lon="7.3417850"><ele></ele><time>2016-5-22T10:0:48Z</time></trkpt>
<trkpt lat="46.1781267" lon="7.3418050"><ele></ele><time>2016-5-22T10:0:51Z</time></trkpt>
<trkpt lat="46.1781117" lon="7.3418200"><ele></ele><time>2016-5-22T10:0:54Z</time></trkpt>
<trkpt lat="46.1781000" lon="7.3418350"><ele></ele><time>2016-5-22T10:0:57Z</time></trkpt>
<trkpt lat="46.1780933" lon="7.3418467"><ele></ele><time>2016-5-22T10:1:0Z</time></trkpt>
<trkpt lat="46.1780883" lon="7.3418633"><ele></ele><time>2016-5-22T10:1:3Z</time></trkpt>
<trkpt lat="46.1780867" lon="7.3418833"><ele></ele><time>2016-5-22T10:1:6Z</time></trkpt>
<trkpt lat="46.1780850" lon="7.3419017"><ele></ele><time>2016-5-22T10:1:9Z</time></trkpt>
<trkpt lat="46.1780817" lon="7.3419167"><ele></ele><time>2016-5-22T10:1:12Z</time></trkpt>
<trkpt lat="46.1780783" lon="7.3419300"><ele></ele><time>2016-5-22T10:1:15Z</time></trkpt>
<trkpt lat="46.1780717" lon="7.3419433"><ele></ele><time>2016-5-22T10:1:18Z</time></trkpt>
<trkpt lat="46.1780617" lon="7.3419600"><ele></ele><time>2016-5-22T10:1:21Z</time></trkpt>
<trkpt lat="46.1780517" lon="7.3419767"><ele></ele><time>2016-5-22T10:1:24Z</time></trkpt>
<trkpt lat="46.1780450" lon="7.3419933"><ele></ele><time>2016-5-22T10:1:27Z</time></trkpt>
<trkpt lat="46.1780400" lon="7.3420100"><ele></ele><time>2016-5-22T10:1:30Z</time></trkpt>
<trkpt lat="46.1780350" lon="7.3420283"><ele></ele><time>2016-5-22T10:1:33Z</time></trkpt>
<trkpt lat="46.1780317" lon="7.3420467"><ele></ele><time>2016-5-22T10:1:36Z</time></trkpt>
<trkpt lat="46.1780283" lon="7.3420667"><ele></ele><time>2016-5-22T10:1:39Z</time></trkpt>
<trkpt lat="46.1780317" lon="7.3420850"><ele></ele><time>2016-5-22T10:1:42Z</time></trkpt>
<trkpt lat="46.1780350" lon="7.3421033"><ele></ele><time>2016-5-22T10:1:45Z</time></trkpt>
<trkpt lat="46.1780300" lon="7.3421167"><ele></ele><time>2016-5-22T10:1:48Z</time></trkpt>
<trkpt lat="46.1780200" lon="7.3421200"><ele></ele><time>2016-5-22T10:1:51Z</time></trkpt>
<trkpt lat="46.1780067" lon="7.3421150"><ele></ele><time>2016-5-22T10:1:54Z</time></trkpt>
<trkpt lat="46.1779967" lon="7.3421050"><ele></ele><time>2016-5-22T10:1:57Z</time></trkpt>
<trkpt lat="46.1779933" lon="7.3420917"><ele></ele><time>2016-5-22T10:2:0Z</time></trkpt>
<trkpt lat="46.1779950" lon="7.3420717"><ele></ele><time>2016-5-22T10:2:3Z</time></trkpt>
<trkpt lat="46.1779983" lon="7.3420517"><ele></ele><time>2016-5-22T10:2:6Z</time></trkpt>
<trkpt lat="46.1780033" lon="7.3420317"><ele></ele><time>2016-5-22T10:2:9Z</time></trkpt>
<trkpt lat="46.1780067" lon="7.3420083"><ele></ele><time>2016-5-22T10:2:12Z</time></trkpt>
<trkpt lat="46.1780133" lon="7.3419850"><ele></ele><time>2016-5-22T10:2:15Z</time></trkpt>
<trkpt lat="46.1780200" lon="7.3419600"><ele></ele><time>2016-5-22T10:2:18Z</time></trkpt>
<trkpt lat="46.1780267" lon="7.3419333"><ele></ele><time>2016-5-22T10:2:21Z</time></trkpt>
<trkpt lat="46.1780350" lon="7.3419133"><ele></ele><time>2016-5-22T10:2:24Z</time></trkpt>
<trkpt lat="46.1780433" lon="7.3418933"><ele></ele><time>2016-5-22T10:2:27Z</time></trkpt>
<trkpt lat="46.1780550" lon="7.3418717"><ele></ele><time>2016-5-22T10:2:30Z</time></trkpt>
<trkpt lat="46.1780667" lon="7.3418517"><ele></ele><time>2016-5-22T10:2:33Z</time></trkpt>
<trkpt lat="46.1780750" lon="7.3418317"><ele></ele><time>2016-5-22T10:2:36Z</time></trkpt>
<trkpt lat="46.1780817" lon="7.3418133"><ele></ele><time>2016-5-22T10:2:39Z</time></trkpt>
<trkpt lat="46.1780867" lon="7.3417883"><ele></ele><time>2016-5-22T10:2:42Z</time></trkpt>
<trkpt lat="46.1780900" lon="7.3417583"><ele></ele><time>2016-5-22T10:2:45Z</time></trkpt>
<trkpt lat="46.1780967" lon="7.3417217"><ele></ele><time>2016-5-22T10:2:48Z</time></trkpt>
<trkpt lat="46.1781033" lon="7.3416850"><ele></ele><time>2016-5-22T10:2:51Z</time></trkpt>
<trkpt lat="46.1781117" lon="7.3416483"><ele></ele><time>2016-5-22T10:2:54Z</time></trkpt>
<trkpt lat="46.1781183" lon="7.3416100"><ele></ele><time>2016-5-22T10:2:57Z</time></trkpt>
<trkpt lat="46.1781233" lon="7.3415683"><ele></ele><time>2016-5-22T10:3:0Z</time></trkpt>
<trkpt lat="46.1781233" lon="7.3415267"><ele></ele><time>2016-5-22T10:3:3Z</time></trkpt>
<trkpt lat="46.1781217" lon="7.3414917"><ele></ele><time>2016-5-22T10:3:6Z</time></trkpt>
<trkpt lat="46.1781183" lon="7.3414583"><ele></ele><time>2016-5-22T10:3:9Z</time></trkpt>
<trkpt lat="46.1781100" lon="7.3414233"><ele></ele><time>2016-5-22T10:3:12Z</time></trkpt>
<trkpt lat="46.1781033" lon="7.3413883"><ele></ele><time>2016-5-22T10:3:15Z</time></trkpt>
<trkpt lat="46.1781000" lon="7.3413567"><ele></ele><time>2016-5-22T10:3:18Z</time></trkpt>
<trkpt lat="46.1780967" lon="7.3413233"><ele></ele><time>2016-5-22T10:3:21Z</time></trkpt>
<trkpt lat="46.1780917" lon="7.3412900"><ele></ele><time>2016-5-22T10:3:24Z</time></trkpt>
<trkpt lat="46.1780850" lon="7.3412583"><ele></ele><time>2016-5-22T10:3:27Z</time></trkpt>
<trkpt lat="46.1780783" lon="7.3412283"><ele></ele><time>2016-5-22T10:3:30Z</time></trkpt>
<trkpt lat="46.1780650" lon="7.3411917"><ele></ele><time>2016-5-22T10:3:33Z</time></trkpt>
<trkpt lat="46.1780533" lon="7.3411533"><ele></ele><time>2016-5-22T10:3:36Z</time></trkpt>
<trkpt lat="46.1780433" lon="7.3411233"><ele></ele><time>2016-5-22T10:3:39Z</time></trkpt>
<trkpt lat="46.1780333" lon="7.3410967"><ele></ele><time>2016-5-22T10:3:42Z</time></trkpt>
<trkpt lat="46.1780250" lon="7.3410667"><ele></ele><time>2016-5-22T10:3:45Z</time></trkpt>
<trkpt lat="46.1780150" lon="7.3410383"><ele></ele><time>2016-5-22T10:3:48Z</time></trkpt>
<trkpt lat="46.1780050" lon="7.3410100"><ele></ele><time>2016-5-22T10:3:51Z</time></trkpt>
<trkpt lat="46.1780017" lon="7.3409867"><ele></ele><time>2016-5-22T10:3:54Z</time></trkpt>
<trkpt lat="46.1780067" lon="7.3409667"><ele></ele><time>2016-5-22T10:3:57Z</time></trkpt>
<trkpt lat="46.1780067" lon="7.3409417"><ele></ele><time>2016-5-22T10:4:0Z</time></trkpt>
<trkpt lat="46.1780050" lon="7.3409133"><ele></ele><time>2016-5-22T10:4:3Z</time></trkpt>
<trkpt lat="46.1779983" lon="7.3408850"><ele></ele><time>2016-5-22T10:4:6Z</time></trkpt>
<trkpt lat="46.1779917" lon="7.3408617"><ele></ele><time>2016-5-22T10:4:9Z</time></trkpt>
<trkpt lat="46.1779833" lon="7.3408383"><ele></ele><time>2016-5-22T10:4:12Z</time></trkpt>
<trkpt lat="46.1779733" lon="7.3408167"><ele></ele><time>2016-5-22T10:4:15Z</time></trkpt>
<trkpt lat="46.1779633" lon="7.3407933"><ele></ele><time>2016-5-22T10:4:18Z</time></trkpt>
<trkpt lat="46.1779550" lon="7.3407667"><ele></ele><time>2016-5-22T10:4:21Z</time></trkpt>
<trkpt lat="46.1779500" lon="7.3407417"><ele></ele><time>2016-5-22T10:4:24Z</time></trkpt>
<trkpt lat="46.1779483" lon="7.3407233"><ele></ele><time>2016-5-22T10:4:27Z</time></trkpt>
<trkpt lat="46.1779367" lon="7.3406967"><ele></ele><time>2016-5-22T10:4:30Z</time></trkpt>
<trkpt lat="46.1779267" lon="7.3406700"><ele></ele><time>2016-5-22T10:4:33Z</time></trkpt>
<trkpt lat="46.1779200" lon="7.3406500"><ele></ele><time>2016-5-22T10:4:36Z</time></trkpt>
<trkpt lat="46.1779183" lon="7.3406300"><ele></ele><time>2016-5-22T10:4:39Z</time></trkpt>
<trkpt lat="46.1779217" lon="7.3406100"><ele></ele><time>2016-5-22T10:4:42Z</time></trkpt>
<trkpt lat="46.1779217" lon="7.3405883"><ele></ele><time>2016-5-22T10:4:45Z</time></trkpt>
<trkpt lat="46.1779200" lon="7.3405667"><ele></ele><time>2016-5-22T10:4:48Z</time></trkpt>
<trkpt lat="46.1779150" lon="7.3405433"><ele></ele><time>2016-5-22T10:4:51Z</time></trkpt>
<trkpt lat="46.1779050" lon="7.3405167"><ele></ele><time>2016-5-22T10:4:54Z</time></trkpt>
<trkpt lat="46.1779017" lon="7.3405033"><ele></ele><time>2016-5-22T10:4:57Z</time></trkpt>
<trkpt lat="46.1779000" lon="7.3404850"><ele></ele><time>2016-5-22T10:5:0Z</time></trkpt>
<trkpt lat="46.1778950" lon="7.3404650"><ele></ele><time>2016-5-22T10:5:3Z</time></trkpt>
<trkpt lat="46.1778867" lon="7.3404383"><ele></ele><time>2016-5-22T10:5:6Z</time></trkpt>
<trkpt lat="46.1778750" lon="7.3404117"><ele></ele><time>2016-5-22T10:5:9Z</time></trkpt>
<trkpt lat="46.1778667" lon="7.3403833"><ele></ele><time>2016-5-22T10:5:12Z</time></trkpt>
<trkpt lat="46.1778667" lon="7.3403583"><ele></ele><time>2016-5-22T10:5:15Z</time></trkpt>
<trkpt lat="46.1778717" lon="7.3403350"><ele></ele><time>2016-5-22T10:5:18Z</time></trkpt>
<trkpt lat="46.1778783" lon="7.3403150"><ele></ele><time>2016-5-22T10:5:21Z</time></trkpt>
<trkpt lat="46.1778833" lon="7.3402917"><ele></ele><time>2016-5-22T10:5:24Z</time></trkpt>
<trkpt lat="46.1778867" lon="7.3402700"><ele></ele><time>2016-5-22T10:5:27Z</time></trkpt>
<trkpt lat="46.1778867" lon="7.3402483"><ele></ele><time>2016-5-22T10:5:30Z</time></trkpt>
<trkpt lat="46.1778850" lon="7.3402300"><ele></ele><time>2016-5-22T10:5:33Z</time></trkpt>
<trkpt lat="46.1778800" lon="7.3402067"><ele></ele><time>2016-5-22T10:5:36Z</time></trkpt>
<trkpt lat="46.1778733" lon="7.3401800"><ele></ele><time>2016-5-22T10:5:39Z</time></trkpt>
<trkpt lat="46.1778633" lon="7.3401517"><ele></ele><time>2016-5-22T10:5:42Z</time></trkpt>
<trkpt lat="46.1778567" lon="7.3401217"><ele></ele><time>2016-5-22T10:5:45Z</time></trkpt>
<trkpt lat="46.1778500" lon="7.3400883"><ele></ele><time>2016-5-22T10:5:48Z</time></trkpt>
<trkpt lat="46.1778433" lon="7.3400550"><ele></ele><time>2016-5-22T10:5:51Z</time></trkpt>
<trkpt lat="46.1778367" lon="7.3400250"><ele></ele><time>2016-5-22T10:5:54Z</time></trkpt>
<trkpt lat="46.1778283" lon="7.3399983"><ele></ele><time>2016-5-22T10:5:57Z</time></trkpt>
<trkpt lat="46.1778217" lon="7.3399700"><ele></ele><time>2016-5-22T10:6:0Z</time></trkpt>
<trkpt lat="46.1778167" lon="7.3399450"><ele></ele><time>2016-5-22T10:6:3Z</time></trkpt>
<trkpt lat="46.1778117" lon="7.3399217"><ele></ele><time>2016-5-22T10:6:6Z</time></trkpt>
<trkpt lat="46.1778033" lon="7.3398950"><ele></ele><time>2016-5-22T10:6:9Z</time></trkpt>
<trkpt lat="46.1777950" lon="7.3398667"><ele></ele><time>2016-5-22T10:6:12Z</time></trkpt>
<trkpt lat="46.1777883" lon="7.3398400"><ele></ele><time>2016-5-22T10:6:15Z</time></trkpt>
<trkpt lat="46.1777833" lon="7.3398117"><ele></ele><time>2016-5-22T10:6:18Z</time></trkpt>
<trkpt lat="46.1777783" lon="7.3397833"><ele></ele><time>2016-5-22T10:6:21Z</time></trkpt>
<trkpt lat="46.1777767" lon="7.3397583"><ele></ele><time>2016-5-22T10:6:24Z</time></trkpt>
<trkpt lat="46.1777733" lon="7.3397350"><ele></ele><time>2016-5-22T10:6:27Z</time></trkpt>
<trkpt lat="46.1777717" lon="7.3397117"><ele></ele><time>2016-5-22T10:6:30Z</time></trkpt>
<trkpt lat="46.1777667" lon="7.3396850"><ele></ele><time>2016-5-22T10:6:33Z</time></trkpt>
<trkpt lat="46.1777667" lon="7.3396850"><ele></ele><time>2016-5-22T10:6:36Z</time></trkpt>
<trkpt lat="46.1777617" lon="7.3396583"><ele></ele><time>2016-5-22T10:6:39Z</time></trkpt>
<trkpt lat="46.1777550" lon="7.3396317"><ele></ele><time>2016-5-22T10:6:42Z</time></trkpt>
<trkpt lat="46.1777483" lon="7.3396100"><ele></ele><time>2016-5-22T10:6:45Z</time></trkpt>
<trkpt lat="46.1777433" lon="7.3395883"><ele></ele><time>2016-5-22T10:6:48Z</time></trkpt>
<trkpt lat="46.1777367" lon="7.3395683"><ele></ele><time>2016-5-22T10:6:51Z</time></trkpt>
<trkpt lat="46.1777300" lon="7.3395500"><ele></ele><time>2016-5-22T10:6:54Z</time></trkpt>
<trkpt lat="46.1777233" lon="7.3395283"><ele></ele><time>2016-5-22T10:6:57Z</time></trkpt>
<trkpt lat="46.1777150" lon="7.3395017"><ele></ele><time>2016-5-22T10:7:0Z</time></trkpt>
<trkpt lat="46.1777100" lon="7.3394750"><ele></ele><time>2016-5-22T10:7:3Z</time></trkpt>
<trkpt lat="46.1777050" lon="7.3394433"><ele></ele><time>2016-5-22T10:7:6Z</time></trkpt>
<trkpt lat="46.1776950" lon="7.3394167"><ele></ele><time>2016-5-22T10:7:9Z</time></trkpt>
<trkpt lat="46.1776833" lon="7.3393950"><ele></ele><time>2016-5-22T10:7:12Z</time></trkpt>
<trkpt lat="46.1776833" lon="7.3393950"><ele></ele><time>2016-5-22T10:7:15Z</time></trkpt>
<trkpt lat="46.1776700" lon="7.3393733"><ele></ele><time>2016-5-22T10:7:18Z</time></trkpt>
<trkpt lat="46.1776567" lon="7.3393500"><ele></ele><time>2016-5-22T10:7:21Z</time></trkpt>
<trkpt lat="46.1776483" lon="7.3393233"><ele></ele><time>2016-5-22T10:7:24Z</time></trkpt>
<trkpt lat="46.1776383" lon="7.3392967"><ele></ele><time>2016-5-22T10:7:27Z</time></trkpt>
<trkpt lat="46.1776283" lon="7.3392700"><ele></ele><time>2016-5-22T10:7:30Z</time></trkpt>
<trkpt lat="46.1776217" lon="7.3392450"><ele></ele><time>2016-5-22T10:7:33Z</time></trkpt>
<trkpt lat="46.1776183" lon="7.3392217"><ele></ele><time>2016-5-22T10:7:36Z</time></trkpt>
<trkpt lat="46.1776167" lon="7.3392017"><ele></ele><time>2016-5-22T10:7:39Z</time></trkpt>
<trkpt lat="46.1776183" lon="7.3391817"><ele></ele><time>2016-5-22T10:7:42Z</time></trkpt>
<trkpt lat="46.1776233" lon="7.3391600"><ele></ele><time>2016-5-22T10:7:45Z</time></trkpt>
<trkpt lat="46.1776283" lon="7.3391350"><ele></ele><time>2016-5-22T10:7:48Z</time></trkpt>
<trkpt lat="46.1776317" lon="7.3391083"><ele></ele><time>2016-5-22T10:7:51Z</time></trkpt>
<trkpt lat="46.1776317" lon="7.3391083"><ele></ele><time>2016-5-22T10:7:54Z</time></trkpt>
<trkpt lat="46.1776367" lon="7.3390783"><ele></ele><time>2016-5-22T10:7:57Z</time></trkpt>
<trkpt lat="46.1776417" lon="7.3390483"><ele></ele><time>2016-5-22T10:8:0Z</time></trkpt>
<trkpt lat="46.1776483" lon="7.3390250"><ele></ele><time>2016-5-22T10:8:3Z</time></trkpt>
<trkpt lat="46.1776550" lon="7.3390033"><ele></ele><time>2016-5-22T10:8:6Z</time></trkpt>
<trkpt lat="46.1776617" lon="7.3389783"><ele></ele><time>2016-5-22T10:8:9Z</time></trkpt>
<trkpt lat="46.1776683" lon="7.3389500"><ele></ele><time>2016-5-22T10:8:12Z</time></trkpt>
<trkpt lat="46.1776700" lon="7.3389233"><ele></ele><time>2016-5-22T10:8:15Z</time></trkpt>
<trkpt lat="46.1776683" lon="7.3388983"><ele></ele><time>2016-5-22T10:8:18Z</time></trkpt>
<trkpt lat="46.1776650" lon="7.3388750"><ele></ele><time>2016-5-22T10:8:21Z</time></trkpt>
<trkpt lat="46.1776600" lon="7.3388533"><ele></ele><time>2016-5-22T10:8:24Z</time></trkpt>
<trkpt lat="46.1776550" lon="7.3388283"><ele></ele><time>2016-5-22T10:8:27Z</time></trkpt>
<trkpt lat="46.1776500" lon="7.3388067"><ele></ele><time>2016-5-22T10:8:30Z</time></trkpt>
<trkpt lat="46.1776500" lon="7.3388067"><ele></ele><time>2016-5-22T10:8:33Z</time></trkpt>
<trkpt lat="46.1776433" lon="7.3387850"><ele></ele><time>2016-5-22T10:8:36Z</time></trkpt>
<trkpt lat="46.1776333" lon="7.3387617"><ele></ele><time>2016-5-22T10:8:39Z</time></trkpt>
<trkpt lat="46.1776250" lon="7.3387400"><ele></ele><time>2016-5-22T10:8:42Z</time></trkpt>
<trkpt lat="46.1776200" lon="7.3387183"><ele></ele><time>2016-5-22T10:8:45Z</time></trkpt>
<trkpt lat="46.1776167" lon="7.3387000"><ele></ele><time>2016-5-22T10:8:48Z</time></trkpt>
<trkpt lat="46.1776167" lon="7.3386850"><ele></ele><time>2016-5-22T10:8:51Z</time></trkpt>
<trkpt lat="46.1776167" lon="7.3386650"><ele></ele><time>2016-5-22T10:8:54Z</time></trkpt>
<trkpt lat="46.1776167" lon="7.3386383"><ele></ele><time>2016-5-22T10:8:57Z</time></trkpt>
<trkpt lat="46.1776117" lon="7.3386050"><ele></ele><time>2016-5-22T10:9:0Z</time></trkpt>
<trkpt lat="46.1776017" lon="7.3385717"><ele></ele><time>2016-5-22T10:9:3Z</time></trkpt>
<trkpt lat="46.1775883" lon="7.3385450"><ele></ele><time>2016-5-22T10:9:6Z</time></trkpt>
<trkpt lat="46.1775783" lon="7.3385200"><ele></ele><time>2016-5-22T10:9:9Z</time></trkpt>
<trkpt lat="46.1775783" lon="7.3385200"><ele></ele><time>2016-5-22T10:9:12Z</time></trkpt>
<trkpt lat="46.1775733" lon="7.3384917"><ele></ele><time>2016-5-22T10:9:15Z</time></trkpt>
<trkpt lat="46.1775617" lon="7.3384617"><ele></ele><time>2016-5-22T10:9:18Z</time></trkpt>
<trkpt lat="46.1775533" lon="7.3384383"><ele></ele><time>2016-5-22T10:9:21Z</time></trkpt>
<trkpt lat="46.1775400" lon="7.3384150"><ele></ele><time>2016-5-22T10:9:24Z</time></trkpt>
<trkpt lat="46.1775283" lon="7.3383917"><ele></ele><time>2016-5-22T10:9:27Z</time></trkpt>
<trkpt lat="46.1775217" lon="7.3383733"><ele></ele><time>2016-5-22T10:9:30Z</time></trkpt>
<trkpt lat="46.1775167" lon="7.3383517"><ele></ele><time>2016-5-22T10:9:33Z</time></trkpt>
<trkpt lat="46.1775083" lon="7.3383267"><ele></ele><time>2016-5-22T10:9:36Z</time></trkpt>
<trkpt lat="46.1774950" lon="7.3382967"><ele></ele><time>2016-5-22T10:9:39Z</time></trkpt>
<trkpt lat="46.1774817" lon="7.3382633"><ele></ele><time>2016-5-22T10:9:42Z</time></trkpt>
<trkpt lat="46.1774750" lon="7.3382333"><ele></ele><time>2016-5-22T10:9:45Z</time></trkpt>
<trkpt lat="46.1774700" lon="7.3382083"><ele></ele><time>2016-5-22T10:9:48Z</time></trkpt>
<trkpt lat="46.1774700" lon="7.3382083"><ele></ele><time>2016-5-22T10:9:51Z</time></trkpt>
<trkpt lat="46.1774683" lon="7.3381867"><ele></ele><time>2016-5-22T10:9:54Z</time></trkpt>
<trkpt lat="46.1774633" lon="7.3381600"><ele></ele><time>2016-5-22T10:9:57Z</time></trkpt>
<trkpt lat="46.1774550" lon="7.3381267"><ele></ele><time>2016-5-22T10:10:0Z</time></trkpt>
<trkpt lat="46.1774483" lon="7.3380933"><ele></ele><time>2016-5-22T10:10:3Z</time></trkpt>
<trkpt lat="46.1774400" lon="7.3380617"><ele></ele><time>2016-5-22T10:10:6Z</time></trkpt>
<trkpt lat="46.1774317" lon="7.3380283"><ele></ele><time>2016-5-22T10:10:9Z</time></trkpt>
<trkpt lat="46.1774300" lon="7.3380000"><ele></ele><time>2016-5-22T10:10:12Z</time></trkpt>
<trkpt lat="46.1774283" lon="7.3379750"><ele></ele><time>2016-5-22T10:10:15Z</time></trkpt>
<trkpt lat="46.1774267" lon="7.3379483"><ele></ele><time>2016-5-22T10:10:18Z</time></trkpt>
<trkpt lat="46.1774250" lon="7.3379167"><ele></ele><time>2016-5-22T10:10:21Z</time></trkpt>
<trkpt lat="46.1774250" lon="7.3378867"><ele></ele><time>2016-5-22T10:10:24Z</time></trkpt>
<trkpt lat="46.1774250" lon="7.3378583"><ele></ele><time>2016-5-22T10:10:27Z</time></trkpt>
<trkpt lat="46.1774250" lon="7.3378583"><ele></ele><time>2016-5-22T10:10:30Z</time></trkpt>
<trkpt lat="46.1774267" lon="7.3378300"><ele></ele><time>2016-5-22T10:10:33Z</time></trkpt>
<trkpt lat="46.1774300" lon="7.3378017"><ele></ele><time>2016-5-22T10:10:36Z</time></trkpt>
<trkpt lat="46.1774333" lon="7.3377717"><ele></ele><time>2016-5-22T10:10:39Z</time></trkpt>
<trkpt lat="46.1774333" lon="7.3377433"><ele></ele><time>2016-5-22T10:10:42Z</time></trkpt>
<trkpt lat="46.1774300" lon="7.3377167"><ele></ele><time>2016-5-22T10:10:45Z</time></trkpt>
<trkpt lat="46.1774233" lon="7.3376850"><ele></ele><time>2016-5-22T10:10:48Z</time></trkpt>
<trkpt lat="46.1774183" lon="7.3376533"><ele></ele><time>2016-5-22T10:10:51Z</time></trkpt>
<trkpt lat="46.1774117" lon="7.3376233"><ele></ele><time>2016-5-22T10:10:54Z</time></trkpt>
<trkpt lat="46.1774067" lon="7.3375950"><ele></ele><time>2016-5-22T10:10:57Z</time></trkpt>
<trkpt lat="46.1774017" lon="7.3375683"><ele></ele><time>2016-5-22T10:11:0Z</time></trkpt>
<trkpt lat="46.1773967" lon="7.3375400"><ele></ele><time>2016-5-22T10:11:3Z</time></trkpt>
<trkpt lat="46.1773950" lon="7.3375167"><ele></ele><time>2016-5-22T10:11:6Z</time></trkpt>
<trkpt lat="46.1773950" lon="7.3375167"><ele></ele><time>2016-5-22T10:11:9Z</time></trkpt>
<trkpt lat="46.1773983" lon="7.3375017"><ele></ele><time>2016-5-22T10:11:12Z</time></trkpt>
<trkpt lat="46.1774017" lon="7.3374800"><ele></ele><time>2016-5-22T10:11:15Z</time></trkpt>
<trkpt lat="46.1774017" lon="7.3374533"><ele></ele><time>2016-5-22T10:11:18Z</time></trkpt>
<trkpt lat="46.1773983" lon="7.3374217"><ele></ele><time>2016-5-22T10:11:21Z</time></trkpt>
<trkpt lat="46.1773933" lon="7.3373917"><ele></ele><time>2016-5-22T10:11:24Z</time></trkpt>
<trkpt lat="46.1773933" lon="7.3373617"><ele></ele><time>2016-5-22T10:11:27Z</time></trkpt>
<trkpt lat="46.1773967" lon="7.3373300"><ele></ele><time>2016-5-22T10:11:30Z</time></trkpt>
<trkpt lat="46.1773983" lon="7.3372983"><ele></ele><time>2016-5-22T10:11:33Z</time></trkpt>
<trkpt lat="46.1774033" lon="7.3372633"><ele></ele><time>2016-5-22T10:11:36Z</time></trkpt>
<trkpt lat="46.1774083" lon="7.3372283"><ele></ele><time>2016-5-22T10:11:39Z</time></trkpt>
<trkpt lat="46.1774150" lon="7.3371967"><ele></ele><time>2016-5-22T10:11:42Z</time></trkpt>
<trkpt lat="46.1774200" lon="7.3371683"><ele></ele><time>2016-5-22T10:11:45Z</time></trkpt>
<trkpt lat="46.1774200" lon="7.3371683"><ele></ele><time>2016-5-22T10:11:48Z</time></trkpt>
<trkpt lat="46.1774267" lon="7.3371400"><ele></ele><time>2016-5-22T10:11:51Z</time></trkpt>
<trkpt lat="46.1774333" lon="7.3371100"><ele></ele><time>2016-5-22T10:11:54Z</time></trkpt>
<trkpt lat="46.1774333" lon="7.3370783"><ele></ele><time>2016-5-22T10:11:57Z</time></trkpt>
<trkpt lat="46.1774333" lon="7.3370450"><ele></ele><time>2016-5-22T10:12:0Z</time></trkpt>
<trkpt lat="46.1774350" lon="7.3370117"><ele></ele><time>2016-5-22T10:12:3Z</time></trkpt>
<trkpt lat="46.1774367" lon="7.3369833"><ele></ele><time>2016-5-22T10:12:6Z</time></trkpt>
<trkpt lat="46.1774350" lon="7.3369550"><ele></ele><time>2016-5-22T10:12:9Z</time></trkpt>
<trkpt lat="46.1774317" lon="7.3369233"><ele></ele><time>2016-5-22T10:12:12Z</time></trkpt>
<trkpt lat="46.1774300" lon="7.3368883"><ele></ele><time>2016-5-22T10:12:15Z</time></trkpt>
<trkpt lat="46.1774233" lon="7.3368550"><ele></ele><time>2016-5-22T10:12:18Z</time></trkpt>
<trkpt lat="46.1774150" lon="7.3368217"><ele></ele><time>2016-5-22T10:12:21Z</time></trkpt>
<trkpt lat="46.1774067" lon="7.3367933"><ele></ele><time>2016-5-22T10:12:24Z</time></trkpt>
<trkpt lat="46.1774067" lon="7.3367933"><ele></ele><time>2016-5-22T10:12:27Z</time></trkpt>
<trkpt lat="46.1773983" lon="7.3367667"><ele></ele><time>2016-5-22T10:12:30Z</time></trkpt>
<trkpt lat="46.1773833" lon="7.3367383"><ele></ele><time>2016-5-22T10:12:33Z</time></trkpt>
<trkpt lat="46.1773683" lon="7.3367117"><ele></ele><time>2016-5-22T10:12:36Z</time></trkpt>
<trkpt lat="46.1773533" lon="7.3366867"><ele></ele><time>2016-5-22T10:12:39Z</time></trkpt>
<trkpt lat="46.1773367" lon="7.3366633"><ele></ele><time>2016-5-22T10:12:42Z</time></trkpt>
<trkpt lat="46.1773217" lon="7.3366417"><ele></ele><time>2016-5-22T10:12:45Z</time></trkpt>
<trkpt lat="46.1773100" lon="7.3366200"><ele></ele><time>2016-5-22T10:12:48Z</time></trkpt>
<trkpt lat="46.1772967" lon="7.3366000"><ele></ele><time>2016-5-22T10:12:51Z</time></trkpt>
<trkpt lat="46.1772817" lon="7.3365800"><ele></ele><time>2016-5-22T10:12:54Z</time></trkpt>
<trkpt lat="46.1772683" lon="7.3365633"><ele></ele><time>2016-5-22T10:12:57Z</time></trkpt>
<trkpt lat="46.1772533" lon="7.3365517"><ele></ele><time>2016-5-22T10:13:0Z</time></trkpt>
<trkpt lat="46.1772400" lon="7.3365367"><ele></ele><time>2016-5-22T10:13:3Z</time></trkpt>
<trkpt lat="46.1772400" lon="7.3365367"><ele></ele><time>2016-5-22T10:13:6Z</time></trkpt>
<trkpt lat="46.1772283" lon="7.3365217"><ele></ele><time>2016-5-22T10:13:9Z</time></trkpt>
<trkpt lat="46.1772167" lon="7.3365050"><ele></ele><time>2016-5-22T10:13:12Z</time></trkpt>
<trkpt lat="46.1772050" lon="7.3364850"><ele></ele><time>2016-5-22T10:13:15Z</time></trkpt>
<trkpt lat="46.1771933" lon="7.3364667"><ele></ele><time>2016-5-22T10:13:18Z</time></trkpt>
<trkpt lat="46.1771833" lon="7.3364433"><ele></ele><time>2016-5-22T10:13:21Z</time></trkpt>
<trkpt lat="46.1771717" lon="7.3364217"><ele></ele><time>2016-5-22T10:13:24Z</time></trkpt>
<trkpt lat="46.1771617" lon="7.3364017"><ele></ele><time>2016-5-22T10:13:27Z</time></trkpt>
<trkpt lat="46.1771483" lon="7.3363800"><ele></ele><time>2016-5-22T10:13:30Z</time></trkpt>
<trkpt lat="46.1771350" lon="7.3363517"><ele></ele><time>2016-5-22T10:13:33Z</time></trkpt>
<trkpt lat="46.1771233" lon="7.3363200"><ele></ele><time>2016-5-22T10:13:36Z</time></trkpt>
<trkpt lat="46.1771150" lon="7.3362900"><ele></ele><time>2016-5-22T10:13:39Z</time></trkpt>
<trkpt lat="46.1771100" lon="7.3362583"><ele></ele><time>2016-5-22T10:13:42Z</time></trkpt>
<trkpt lat="46.1771100" lon="7.3362583"><ele></ele><time>2016-5-22T10:13:45Z</time></trkpt>
<trkpt lat="46.1771033" lon="7.3362300"><ele></ele><time>2016-5-22T10:13:48Z</time></trkpt>
<trkpt lat="46.1771017" lon="7.3362017"><ele></ele><time>2016-5-22T10:13:51Z</time></trkpt>
<trkpt lat="46.1771017" lon="7.3361733"><ele></ele><time>2016-5-22T10:13:54Z</time></trkpt>
<trkpt lat="46.1771033" lon="7.3361450"><ele></ele><time>2016-5-22T10:13:57Z</time></trkpt>
<trkpt lat="46.1771033" lon="7.3361183"><ele></ele><time>2016-5-22T10:14:0Z</time></trkpt>
<trkpt lat="46.1771050" lon="7.3360950"><ele></ele><time>2016-5-22T10:14:3Z</time></trkpt>
<trkpt lat="46.1771050" lon="7.3360717"><ele></ele><time>2016-5-22T10:14:6Z</time></trkpt>
<trkpt lat="46.1771067" lon="7.3360467"><ele></ele><time>2016-5-22T10:14:9Z</time></trkpt>
<trkpt lat="46.1771050" lon="7.3360233"><ele></ele><time>2016-5-22T10:14:12Z</time></trkpt>
<trkpt lat="46.1771050" lon="7.3359950"><ele></ele><time>2016-5-22T10:14:15Z</time></trkpt>
<trkpt lat="46.1771033" lon="7.3359683"><ele></ele><time>2016-5-22T10:14:18Z</time></trkpt>
<trkpt lat="46.1771000" lon="7.3359400"><ele></ele><time>2016-5-22T10:14:21Z</time></trkpt>
<trkpt lat="46.1771000" lon="7.3359400"><ele></ele><time>2016-5-22T10:14:24Z</time></trkpt>
<trkpt lat="46.1770950" lon="7.3359133"><ele></ele><time>2016-5-22T10:14:27Z</time></trkpt>
<trkpt lat="46.1770867" lon="7.3358867"><ele></ele><time>2016-5-22T10:14:30Z</time></trkpt>
<trkpt lat="46.1770817" lon="7.3358617"><ele></ele><time>2016-5-22T10:14:33Z</time></trkpt>
<trkpt lat="46.1770733" lon="7.3358367"><ele></ele><time>2016-5-22T10:14:36Z</time></trkpt>
<trkpt lat="46.1770617" lon="7.3358117"><ele></ele><time>2016-5-22T10:14:39Z</time></trkpt>
<trkpt lat="46.1770500" lon="7.3357867"><ele></ele><time>2016-5-22T10:14:42Z</time></trkpt>
<trkpt lat="46.1770333" lon="7.3357633"><ele></ele><time>2016-5-22T10:14:45Z</time></trkpt>
<trkpt lat="46.1770167" lon="7.3357417"><ele></ele><time>2016-5-22T10:14:48Z</time></trkpt>
<trkpt lat="46.1770000" lon="7.3357233"><ele></ele><time>2016-5-22T10:14:51Z</time></trkpt>
<trkpt lat="46.1769817" lon="7.3357050"><ele></ele><time>2016-5-22T10:14:54Z</time></trkpt>
<trkpt lat="46.1769617" lon="7.3356867"><ele></ele><time>2016-5-22T10:14:57Z</time></trkpt>
<trkpt lat="46.1769400" lon="7.3356717"><ele></ele><time>2016-5-22T10:15:0Z</time></trkpt>
<trkpt lat="46.1769400" lon="7.3356717"><ele></ele><time>2016-5-22T10:15:3Z</time></trkpt>
<trkpt lat="46.1769217" lon="7.3356533"><ele></ele><time>2016-5-22T10:15:6Z</time></trkpt>
<trkpt lat="46.1769033" lon="7.3356333"><ele></ele><time>2016-5-22T10:15:9Z</time></trkpt>
<trkpt lat="46.1768850" lon="7.3356150"><ele></ele><time>2016-5-22T10:15:12Z</time></trkpt>
<trkpt lat="46.1768683" lon="7.3355967"><ele></ele><time>2016-5-22T10:15:15Z</time></trkpt>
<trkpt lat="46.1768517" lon="7.3355783"><ele></ele><time>2016-5-22T10:15:18Z</time></trkpt>
<trkpt lat="46.1768350" lon="7.3355617"><ele></ele><time>2016-5-22T10:15:21Z</time></trkpt>
<trkpt lat="46.1768200" lon="7.3355450"><ele></ele><time>2016-5-22T10:15:24Z</time></trkpt>
<trkpt lat="46.1768033" lon="7.3355333"><ele></ele><time>2016-5-22T10:15:27Z</time></trkpt>
<trkpt lat="46.1767817" lon="7.3355183"><ele></ele><time>2016-5-22T10:15:30Z</time></trkpt>
<trkpt lat="46.1767567" lon="7.3355050"><ele></ele><time>2016-5-22T10:15:33Z</time></trkpt>
<trkpt lat="46.1767367" lon="7.3354933"><ele></ele><time>2016-5-22T10:15:36Z</time></trkpt>
<trkpt lat="46.1767183" lon="7.3354783"><ele></ele><time>2016-5-22T10:15:39Z</time></trkpt>
<trkpt lat="46.1767183" lon="7.3354783"><ele></ele><time>2016-5-22T10:15:42Z</time></trkpt>
<trkpt lat="46.1767000" lon="7.3354617"><ele></ele><time>2016-5-22T10:15:45Z</time></trkpt>
<trkpt lat="46.1766833" lon="7.3354417"><ele></ele><time>2016-5-22T10:15:48Z</time></trkpt>
<trkpt lat="46.1766667" lon="7.3354217"><ele></ele><time>2016-5-22T10:15:51Z</time></trkpt>
<trkpt lat="46.1766517" lon="7.3353983"><ele></ele><time>2016-5-22T10:15:54Z</time></trkpt>
<trkpt lat="46.1766400" lon="7.3353733"><ele></ele><time>2016-5-22T10:15:57Z</time></trkpt>
<trkpt lat="46.1766283" lon="7.3353450"><ele></ele><time>2016-5-22T10:16:0Z</time></trkpt>
<trkpt lat="46.1766167" lon="7.3353150"><ele></ele><time>2016-5-22T10:16:3Z</time></trkpt>
<trkpt lat="46.1766050" lon="7.3352883"><ele></ele><time>2016-5-22T10:16:6Z</time></trkpt>
<trkpt lat="46.1765933" lon="7.3352650"><ele></ele><time>2016-5-22T10:16:9Z</time></trkpt>
<trkpt lat="46.1765833" lon="7.3352467"><ele></ele><time>2016-5-22T10:16:12Z</time></trkpt>
<trkpt lat="46.1765733" lon="7.3352283"><ele></ele><time>2016-5-22T10:16:15Z</time></trkpt>
<trkpt lat="46.1765617" lon="7.3352067"><ele></ele><time>2016-5-22T10:16:18Z</time></trkpt>
<trkpt lat="46.1765617" lon="7.3352067"><ele></ele><time>2016-5-22T10:16:21Z</time></trkpt>
<trkpt lat="46.1765500" lon="7.3351800"><ele></ele><time>2016-5-22T10:16:24Z</time></trkpt>
<trkpt lat="46.1765383" lon="7.3351550"><ele></ele><time>2016-5-22T10:16:27Z</time></trkpt>
<trkpt lat="46.1765250" lon="7.3351300"><ele></ele><time>2016-5-22T10:16:30Z</time></trkpt>
<trkpt lat="46.1765100" lon="7.3351067"><ele></ele><time>2016-5-22T10:16:33Z</time></trkpt>
<trkpt lat="46.1764900" lon="7.3350833"><ele></ele><time>2016-5-22T10:16:36Z</time></trkpt>
<trkpt lat="46.1764700" lon="7.3350617"><ele></ele><time>2016-5-22T10:16:39Z</time></trkpt>
<trkpt lat="46.1764500" lon="7.3350483"><ele></ele><time>2016-5-22T10:16:42Z</time></trkpt>
<trkpt lat="46.1764283" lon="7.3350383"><ele></ele><time>2016-5-22T10:16:45Z</time></trkpt>
<trkpt lat="46.1764000" lon="7.3350217"><ele></ele><time>2016-5-22T10:16:48Z</time></trkpt>
<trkpt lat="46.1763717" lon="7.3350000"><ele></ele><time>2016-5-22T10:16:51Z</time></trkpt>
<trkpt lat="46.1763467" lon="7.3349833"><ele></ele><time>2016-5-22T10:16:54Z</time></trkpt>
<trkpt lat="46.1763217" lon="7.3349667"><ele></ele><time>2016-5-22T10:16:57Z</time></trkpt>
<trkpt lat="46.1763217" lon="7.3349667"><ele></ele><time>2016-5-22T10:17:0Z</time></trkpt>
<trkpt lat="46.1763000" lon="7.3349500"><ele></ele><time>2016-5-22T10:17:3Z</time></trkpt>
<trkpt lat="46.1762783" lon="7.3349317"><ele></ele><time>2016-5-22T10:17:6Z</time></trkpt>
<trkpt lat="46.1762600" lon="7.3349133"><ele></ele><time>2016-5-22T10:17:9Z</time></trkpt>
<trkpt lat="46.1762400" lon="7.3348950"><ele></ele><time>2016-5-22T10:17:12Z</time></trkpt>
<trkpt lat="46.1762183" lon="7.3348783"><ele></ele><time>2016-5-22T10:17:15Z</time></trkpt>
<trkpt lat="46.1761950" lon="7.3348650"><ele></ele><time>2016-5-22T10:17:18Z</time></trkpt>
<trkpt lat="46.1761700" lon="7.3348500"><ele></ele><time>2016-5-22T10:17:21Z</time></trkpt>
<trkpt lat="46.1761483" lon="7.3348367"><ele></ele><time>2016-5-22T10:17:24Z</time></trkpt>
<trkpt lat="46.1761267" lon="7.3348250"><ele></ele><time>2016-5-22T10:17:27Z</time></trkpt>
<trkpt lat="46.1761067" lon="7.3348150"><ele></ele><time>2016-5-22T10:17:30Z</time></trkpt>
<trkpt lat="46.1760850" lon="7.3348050"><ele></ele><time>2016-5-22T10:17:33Z</time></trkpt>
<trkpt lat="46.1760650" lon="7.3347950"><ele></ele><time>2016-5-22T10:17:36Z</time></trkpt>
<trkpt lat="46.1760650" lon="7.3347950"><ele></ele><time>2016-5-22T10:17:39Z</time></trkpt>
<trkpt lat="46.1760450" lon="7.3347850"><ele></ele><time>2016-5-22T10:17:42Z</time></trkpt>
<trkpt lat="46.1760267" lon="7.3347717"><ele></ele><time>2016-5-22T10:17:45Z</time></trkpt>
<trkpt lat="46.1760083" lon="7.3347567"><ele></ele><time>2016-5-22T10:17:48Z</time></trkpt>
<trkpt lat="46.1759867" lon="7.3347400"><ele></ele><time>2016-5-22T10:17:51Z</time></trkpt>
<trkpt lat="46.1759667" lon="7.3347233"><ele></ele><time>2016-5-22T10:17:54Z</time></trkpt>
<trkpt lat="46.1759450" lon="7.3347067"><ele></ele><time>2016-5-22T10:17:57Z</time></trkpt>
<trkpt lat="46.1759250" lon="7.3346917"><ele></ele><time>2016-5-22T10:18:0Z</time></trkpt>
<trkpt lat="46.1759050" lon="7.3346750"><ele></ele><time>2016-5-22T10:18:3Z</time></trkpt>
<trkpt lat="46.1758850" lon="7.3346583"><ele></ele><time>2016-5-22T10:18:6Z</time></trkpt>
<trkpt lat="46.1758667" lon="7.3346400"><ele></ele><time>2016-5-22T10:18:9Z</time></trkpt>
<trkpt lat="46.1758433" lon="7.3346200"><ele></ele><time>2016-5-22T10:18:12Z</time></trkpt>
<trkpt lat="46.1758183" lon="7.3346000"><ele></ele><time>2016-5-22T10:18:15Z</time></trkpt>
<trkpt lat="46.1758183" lon="7.3346000"><ele></ele><time>2016-5-22T10:18:18Z</time></trkpt>
<trkpt lat="46.1757967" lon="7.3345817"><ele></ele><time>2016-5-22T10:18:21Z</time></trkpt>
<trkpt lat="46.1757767" lon="7.3345633"><ele></ele><time>2016-5-22T10:18:24Z</time></trkpt>
<trkpt lat="46.1757567" lon="7.3345467"><ele></ele><time>2016-5-22T10:18:27Z</time></trkpt>
<trkpt lat="46.1757367" lon="7.3345317"><ele></ele><time>2016-5-22T10:18:30Z</time></trkpt>
<trkpt lat="46.1757183" lon="7.3345183"><ele></ele><time>2016-5-22T10:18:33Z</time></trkpt>
<trkpt lat="46.1757017" lon="7.3345050"><ele></ele><time>2016-5-22T10:18:36Z</time></trkpt>
<trkpt lat="46.1756850" lon="7.3344933"><ele></ele><time>2016-5-22T10:18:39Z</time></trkpt>
<trkpt lat="46.1756683" lon="7.3344817"><ele></ele><time>2016-5-22T10:18:42Z</time></trkpt>
<trkpt lat="46.1756517" lon="7.3344750"><ele></ele><time>2016-5-22T10:18:45Z</time></trkpt>
<trkpt lat="46.1756350" lon="7.3344700"><ele></ele><time>2016-5-22T10:18:48Z</time></trkpt>
<trkpt lat="46.1756183" lon="7.3344683"><ele></ele><time>2016-5-22T10:18:51Z</time></trkpt>
<trkpt lat="46.1756017" lon="7.3344700"><ele></ele><time>2016-5-22T10:18:54Z</time></trkpt>
<trkpt lat="46.1755817" lon="7.3344750"><ele></ele><time>2016-5-22T10:18:57Z</time></trkpt>
<trkpt lat="46.1755617" lon="7.3344817"><ele></ele><time>2016-5-22T10:19:0Z</time></trkpt>
<trkpt lat="46.1755417" lon="7.3344867"><ele></ele><time>2016-5-22T10:19:3Z</time></trkpt>
<trkpt lat="46.1755233" lon="7.3344933"><ele></ele><time>2016-5-22T10:19:6Z</time></trkpt>
<trkpt lat="46.1755000" lon="7.3344983"><ele></ele><time>2016-5-22T10:19:9Z</time></trkpt>
<trkpt lat="46.1754800" lon="7.3345050"><ele></ele><time>2016-5-22T10:19:12Z</time></trkpt>
<trkpt lat="46.1754583" lon="7.3345117"><ele></ele><time>2016-5-22T10:19:15Z</time></trkpt>
<trkpt lat="46.1754383" lon="7.3345150"><ele></ele><time>2016-5-22T10:19:18Z</time></trkpt>
<trkpt lat="46.1754150" lon="7.3345183"><ele></ele><time>2016-5-22T10:19:21Z</time></trkpt>
<trkpt lat="46.1753900" lon="7.3345250"><ele></ele><time>2016-5-22T10:19:24Z</time></trkpt>
<trkpt lat="46.1753683" lon="7.3345317"><ele></ele><time>2016-5-22T10:19:27Z</time></trkpt>
<trkpt lat="46.1753500" lon="7.3345367"><ele></ele><time>2016-5-22T10:19:30Z</time></trkpt>
<trkpt lat="46.1753500" lon="7.3345367"><ele></ele><time>2016-5-22T10:19:33Z</time></trkpt>
<trkpt lat="46.1753300" lon="7.3345433"><ele></ele><time>2016-5-22T10:19:36Z</time></trkpt>
<trkpt lat="46.1753100" lon="7.3345483"><ele></ele><time>2016-5-22T10:19:39Z</time></trkpt>
<trkpt lat="46.1752933" lon="7.3345567"><ele></ele><time>2016-5-22T10:19:42Z</time></trkpt>
<trkpt lat="46.1752783" lon="7.3345667"><ele></ele><time>2016-5-22T10:19:45Z</time></trkpt>
<trkpt lat="46.1752617" lon="7.3345800"><ele></ele><time>2016-5-22T10:19:48Z</time></trkpt>
<trkpt lat="46.1752467" lon="7.3345983"><ele></ele><time>2016-5-22T10:19:51Z</time></trkpt>
<trkpt lat="46.1752333" lon="7.3346200"><ele></ele><time>2016-5-22T10:19:54Z</time></trkpt>
<trkpt lat="46.1752150" lon="7.3346400"><ele></ele><time>2016-5-22T10:19:57Z</time></trkpt>
<trkpt lat="46.1751967" lon="7.3346533"><ele></ele><time>2016-5-22T10:20:0Z</time></trkpt>
<trkpt lat="46.1751800" lon="7.3346633"><ele></ele><time>2016-5-22T10:20:3Z</time></trkpt>
<trkpt lat="46.1751633" lon="7.3346750"><ele></ele><time>2016-5-22T10:20:6Z</time></trkpt>
<trkpt lat="46.1751417" lon="7.3346867"><ele></ele><time>2016-5-22T10:20:9Z</time></trkpt>
<trkpt lat="46.1751417" lon="7.3346867"><ele></ele><time>2016-5-22T10:20:12Z</time></trkpt>
<trkpt lat="46.1751150" lon="7.3346950"><ele></ele><time>2016-5-22T10:20:15Z</time></trkpt>
<trkpt lat="46.1750900" lon="7.3347000"><ele></ele><time>2016-5-22T10:20:18Z</time></trkpt>
<trkpt lat="46.1750733" lon="7.3347017"><ele></ele><time>2016-5-22T10:20:21Z</time></trkpt>
<trkpt lat="46.1750583" lon="7.3347050"><ele></ele><time>2016-5-22T10:20:24Z</time></trkpt>
<trkpt lat="46.1750400" lon="7.3347067"><ele></ele><time>2016-5-22T10:20:27Z</time></trkpt>
<trkpt lat="46.1750183" lon="7.3347100"><ele></ele><time>2016-5-22T10:20:30Z</time></trkpt>
<trkpt lat="46.1749967" lon="7.3347150"><ele></ele><time>2016-5-22T10:20:33Z</time></trkpt>
<trkpt lat="46.1749767" lon="7.3347133"><ele></ele><time>2016-5-22T10:20:36Z</time></trkpt>
<trkpt lat="46.1749567" lon="7.3347133"><ele></ele><time>2016-5-22T10:20:39Z</time></trkpt>
<trkpt lat="46.1749367" lon="7.3347117"><ele></ele><time>2016-5-22T10:20:42Z</time></trkpt>
<trkpt lat="46.1749133" lon="7.3347117"><ele></ele><time>2016-5-22T10:20:45Z</time></trkpt>
<trkpt lat="46.1748867" lon="7.3347150"><ele></ele><time>2016-5-22T10:20:48Z</time></trkpt>
<trkpt lat="46.1748867" lon="7.3347150"><ele></ele><time>2016-5-22T10:20:51Z</time></trkpt>
<trkpt lat="46.1748583" lon="7.3347167"><ele></ele><time>2016-5-22T10:20:54Z</time></trkpt>
<trkpt lat="46.1748300" lon="7.3347183"><ele></ele><time>2016-5-22T10:20:57Z</time></trkpt>
<trkpt lat="46.1748033" lon="7.3347250"><ele></ele><time>2016-5-22T10:21:0Z</time></trkpt>
<trkpt lat="46.1747800" lon="7.3347333"><ele></ele><time>2016-5-22T10:21:3Z</time></trkpt>
<trkpt lat="46.1747533" lon="7.3347433"><ele></ele><time>2016-5-22T10:21:6Z</time></trkpt>
<trkpt lat="46.1747283" lon="7.3347550"><ele></ele><time>2016-5-22T10:21:9Z</time></trkpt>
<trkpt lat="46.1747050" lon="7.3347700"><ele></ele><time>2016-5-22T10:21:12Z</time></trkpt>
<trkpt lat="46.1746750" lon="7.3347833"><ele></ele><time>2016-5-22T10:21:15Z</time></trkpt>
<trkpt lat="46.1746450" lon="7.3347967"><ele></ele><time>2016-5-22T10:21:18Z</time></trkpt>
<trkpt lat="46.1746133" lon="7.3348100"><ele></ele><time>2016-5-22T10:21:21Z</time></trkpt>
<trkpt lat="46.1745817" lon="7.3348167"><ele></ele><time>2016-5-22T10:21:24Z</time></trkpt>
<trkpt lat="46.1745500" lon="7.3348183"><ele></ele><time>2016-5-22T10:21:27Z</time></trkpt>
<trkpt lat="46.1745500" lon="7.3348183"><ele></ele><time>2016-5-22T10:21:30Z</time></trkpt>
<trkpt lat="46.1745233" lon="7.3348200"><ele></ele><time>2016-5-22T10:21:33Z</time></trkpt>
<trkpt lat="46.1745033" lon="7.3348250"><ele></ele><time>2016-5-22T10:21:36Z</time></trkpt>
<trkpt lat="46.1744767" lon="7.3348250"><ele></ele><time>2016-5-22T10:21:39Z</time></trkpt>
<trkpt lat="46.1744483" lon="7.3348200"><ele></ele><time>2016-5-22T10:21:42Z</time></trkpt>
<trkpt lat="46.1744167" lon="7.3348133"><ele></ele><time>2016-5-22T10:21:45Z</time></trkpt>
<trkpt lat="46.1743867" lon="7.3348083"><ele></ele><time>2016-5-22T10:21:48Z</time></trkpt>
<trkpt lat="46.1743600" lon="7.3348083"><ele></ele><time>2016-5-22T10:21:51Z</time></trkpt>
<trkpt lat="46.1743367" lon="7.3348083"><ele></ele><time>2016-5-22T10:21:54Z</time></trkpt>
<trkpt lat="46.1743133" lon="7.3348083"><ele></ele><time>2016-5-22T10:21:57Z</time></trkpt>
<trkpt lat="46.1742883" lon="7.3348117"><ele></ele><time>2016-5-22T10:22:0Z</time></trkpt>
<trkpt lat="46.1742617" lon="7.3348150"><ele></ele><time>2016-5-22T10:22:3Z</time></trkpt>
<trkpt lat="46.1742367" lon="7.3348150"><ele></ele><time>2016-5-22T10:22:6Z</time></trkpt>
<trkpt lat="46.1742367" lon="7.3348150"><ele></ele><time>2016-5-22T10:22:9Z</time></trkpt>
<trkpt lat="46.1742133" lon="7.3348167"><ele></ele><time>2016-5-22T10:22:12Z</time></trkpt>
<trkpt lat="46.1741950" lon="7.3348133"><ele></ele><time>2016-5-22T10:22:15Z</time></trkpt>
<trkpt lat="46.1741767" lon="7.3348083"><ele></ele><time>2016-5-22T10:22:18Z</time></trkpt>
<trkpt lat="46.1741550" lon="7.3348033"><ele></ele><time>2016-5-22T10:22:21Z</time></trkpt>
<trkpt lat="46.1741300" lon="7.3347950"><ele></ele><time>2016-5-22T10:22:24Z</time></trkpt>
<trkpt lat="46.1741050" lon="7.3347900"><ele></ele><time>2016-5-22T10:22:27Z</time></trkpt>
<trkpt lat="46.1740817" lon="7.3347883"><ele></ele><time>2016-5-22T10:22:30Z</time></trkpt>
<trkpt lat="46.1740617" lon="7.3347883"><ele></ele><time>2016-5-22T10:22:33Z</time></trkpt>
<trkpt lat="46.1740433" lon="7.3347883"><ele></ele><time>2016-5-22T10:22:36Z</time></trkpt>
<trkpt lat="46.1740183" lon="7.3347850"><ele></ele><time>2016-5-22T10:22:39Z</time></trkpt>
<trkpt lat="46.1739917" lon="7.3347817"><ele></ele><time>2016-5-22T10:22:42Z</time></trkpt>
<trkpt lat="46.1739650" lon="7.3347783"><ele></ele><time>2016-5-22T10:22:45Z</time></trkpt>
<trkpt lat="46.1739650" lon="7.3347783"><ele></ele><time>2016-5-22T10:22:48Z</time></trkpt>
<trkpt lat="46.1739383" lon="7.3347767"><ele></ele><time>2016-5-22T10:22:51Z</time></trkpt>
<trkpt lat="46.1739150" lon="7.3347750"><ele></ele><time>2016-5-22T10:22:54Z</time></trkpt>
<trkpt lat="46.1738933" lon="7.3347667"><ele></ele><time>2016-5-22T10:22:57Z</time></trkpt>
<trkpt lat="46.1738733" lon="7.3347533"><ele></ele><time>2016-5-22T10:23:0Z</time></trkpt>
<trkpt lat="46.1738567" lon="7.3347317"><ele></ele><time>2016-5-22T10:23:3Z</time></trkpt>
<trkpt lat="46.1738417" lon="7.3347083"><ele></ele><time>2016-5-22T10:23:6Z</time></trkpt>
<trkpt lat="46.1738300" lon="7.3346867"><ele></ele><time>2016-5-22T10:23:9Z</time></trkpt>
<trkpt lat="46.1738183" lon="7.3346683"><ele></ele><time>2016-5-22T10:23:12Z</time></trkpt>
<trkpt lat="46.1738067" lon="7.3346533"><ele></ele><time>2016-5-22T10:23:15Z</time></trkpt>
<trkpt lat="46.1737917" lon="7.3346367"><ele></ele><time>2016-5-22T10:23:18Z</time></trkpt>
<trkpt lat="46.1737767" lon="7.3346233"><ele></ele><time>2016-5-22T10:23:21Z</time></trkpt>
<trkpt lat="46.1737650" lon="7.3346150"><ele></ele><time>2016-5-22T10:23:24Z</time></trkpt>
<trkpt lat="46.1737517" lon="7.3346150"><ele></ele><time>2016-5-22T10:23:27Z</time></trkpt>
<trkpt lat="46.1737383" lon="7.3346217"><ele></ele><time>2016-5-22T10:23:30Z</time></trkpt>
<trkpt lat="46.1737267" lon="7.3346417"><ele></ele><time>2016-5-22T10:23:33Z</time></trkpt>
<trkpt lat="46.1737217" lon="7.3346667"><ele></ele><time>2016-5-22T10:23:36Z</time></trkpt>
<trkpt lat="46.1737217" lon="7.3346900"><ele></ele><time>2016-5-22T10:23:39Z</time></trkpt>
<trkpt lat="46.1737250" lon="7.3347100"><ele></ele><time>2016-5-22T10:23:42Z</time></trkpt>
<trkpt lat="46.1737350" lon="7.3347267"><ele></ele><time>2016-5-22T10:23:45Z</time></trkpt>
<trkpt lat="46.1737450" lon="7.3347383"><ele></ele><time>2016-5-22T10:23:48Z</time></trkpt>
<trkpt lat="46.1737550" lon="7.3347500"><ele></ele><time>2016-5-22T10:23:51Z</time></trkpt>
<trkpt lat="46.1737633" lon="7.3347600"><ele></ele><time>2016-5-22T10:23:54Z</time></trkpt>
<trkpt lat="46.1737700" lon="7.3347733"><ele></ele><time>2016-5-22T10:23:57Z</time></trkpt>
<trkpt lat="46.1737800" lon="7.3347833"><ele></ele><time>2016-5-22T10:24:0Z</time></trkpt>
<trkpt lat="46.1737900" lon="7.3348000"><ele></ele><time>2016-5-22T10:24:3Z</time></trkpt>
<trkpt lat="46.1738017" lon="7.3348167"><ele></ele><time>2016-5-22T10:24:6Z</time></trkpt>
<trkpt lat="46.1738133" lon="7.3348283"><ele></ele><time>2016-5-22T10:24:9Z</time></trkpt>
<trkpt lat="46.1738250" lon="7.3348400"><ele></ele><time>2016-5-22T10:24:12Z</time></trkpt>
<trkpt lat="46.1738383" lon="7.3348467"><ele></ele><time>2016-5-22T10:24:15Z</time></trkpt>
<trkpt lat="46.1738533" lon="7.3348533"><ele></ele><time>2016-5-22T10:24:18Z</time></trkpt>
<trkpt lat="46.1738683" lon="7.3348567"><ele></ele><time>2016-5-22T10:24:21Z</time></trkpt>
<trkpt lat="46.1738817" lon="7.3348583"><ele></ele><time>2016-5-22T10:24:24Z</time></trkpt>
<trkpt lat="46.1738950" lon="7.3348650"><ele></ele><time>2016-5-22T10:24:27Z</time></trkpt>
<trkpt lat="46.1739100" lon="7.3348733"><ele></ele><time>2016-5-22T10:24:30Z</time></trkpt>
<trkpt lat="46.1739217" lon="7.3348800"><ele></ele><time>2016-5-22T10:24:33Z</time></trkpt>
<trkpt lat="46.1739350" lon="7.3348900"><ele></ele><time>2016-5-22T10:24:36Z</time></trkpt>
<trkpt lat="46.1739467" lon="7.3349000"><ele></ele><time>2016-5-22T10:24:39Z</time></trkpt>
<trkpt lat="46.1739583" lon="7.3349083"><ele></ele><time>2016-5-22T10:24:42Z</time></trkpt>
<trkpt lat="46.1739733" lon="7.3349150"><ele></ele><time>2016-5-22T10:24:45Z</time></trkpt>
<trkpt lat="46.1739883" lon="7.3349183"><ele></ele><time>2016-5-22T10:24:48Z</time></trkpt>
<trkpt lat="46.1740033" lon="7.3349217"><ele></ele><time>2016-5-22T10:24:51Z</time></trkpt>
<trkpt lat="46.1740183" lon="7.3349317"><ele></ele><time>2016-5-22T10:24:54Z</time></trkpt>
<trkpt lat="46.1740300" lon="7.3349450"><ele></ele><time>2016-5-22T10:24:57Z</time></trkpt>
<trkpt lat="46.1740417" lon="7.3349583"><ele></ele><time>2016-5-22T10:25:0Z</time></trkpt>
<trkpt lat="46.1740533" lon="7.3349683"><ele></ele><time>2016-5-22T10:25:3Z</time></trkpt>
<trkpt lat="46.1740683" lon="7.3349750"><ele></ele><time>2016-5-22T10:25:6Z</time></trkpt>
<trkpt lat="46.1740833" lon="7.3349817"><ele></ele><time>2016-5-22T10:25:9Z</time></trkpt>
<trkpt lat="46.1741000" lon="7.3349850"><ele></ele><time>2016-5-22T10:25:12Z</time></trkpt>
<trkpt lat="46.1741117" lon="7.3349867"><ele></ele><time>2016-5-22T10:25:15Z</time></trkpt>
<trkpt lat="46.1741250" lon="7.3349867"><ele></ele><time>2016-5-22T10:25:18Z</time></trkpt>
<trkpt lat="46.1741367" lon="7.3349883"><ele></ele><time>2016-5-22T10:25:21Z</time></trkpt>
<trkpt lat="46.1741500" lon="7.3349883"><ele></ele><time>2016-5-22T10:25:24Z</time></trkpt>
<trkpt lat="46.1741633" lon="7.3349883"><ele></ele><time>2016-5-22T10:25:27Z</time></trkpt>
<trkpt lat="46.1741783" lon="7.3349917"><ele></ele><time>2016-5-22T10:25:30Z</time></trkpt>
<trkpt lat="46.1741950" lon="7.3349967"><ele></ele><time>2016-5-22T10:25:33Z</time></trkpt>
<trkpt lat="46.1742100" lon="7.3350017"><ele></ele><time>2016-5-22T10:25:36Z</time></trkpt>
<trkpt lat="46.1742267" lon="7.3350083"><ele></ele><time>2016-5-22T10:25:39Z</time></trkpt>
<trkpt lat="46.1742433" lon="7.3350133"><ele></ele><time>2016-5-22T10:25:42Z</time></trkpt>
<trkpt lat="46.1742600" lon="7.3350167"><ele></ele><time>2016-5-22T10:25:45Z</time></trkpt>
<trkpt lat="46.1742750" lon="7.3350217"><ele></ele><time>2016-5-22T10:25:48Z</time></trkpt>
<trkpt lat="46.1742917" lon="7.3350300"><ele></ele><time>2016-5-22T10:25:51Z</time></trkpt>
<trkpt lat="46.1743100" lon="7.3350350"><ele></ele><time>2016-5-22T10:25:54Z</time></trkpt>
<trkpt lat="46.1743300" lon="7.3350367"><ele></ele><time>2016-5-22T10:25:57Z</time></trkpt>
<trkpt lat="46.1743483" lon="7.3350350"><ele></ele><time>2016-5-22T10:26:0Z</time></trkpt>
<trkpt lat="46.1743683" lon="7.3350333"><ele></ele><time>2016-5-22T10:26:3Z</time></trkpt>
<trkpt lat="46.1743883" lon="7.3350333"><ele></ele><time>2016-5-22T10:26:6Z</time></trkpt>
<trkpt lat="46.1744067" lon="7.3350433"><ele></ele><time>2016-5-22T10:26:9Z</time></trkpt>
<trkpt lat="46.1744233" lon="7.3350517"><ele></ele><time>2016-5-22T10:26:12Z</time></trkpt>
<trkpt lat="46.1744383" lon="7.3350583"><ele></ele><time>2016-5-22T10:26:15Z</time></trkpt>
<trkpt lat="46.1744533" lon="7.3350650"><ele></ele><time>2016-5-22T10:26:18Z</time></trkpt>
<trkpt lat="46.1744667" lon="7.3350617"><ele></ele><time>2016-5-22T10:26:21Z</time></trkpt>
<trkpt lat="46.1744833" lon="7.3350567"><ele></ele><time>2016-5-22T10:26:24Z</time></trkpt>
<trkpt lat="46.1744983" lon="7.3350483"><ele></ele><time>2016-5-22T10:26:27Z</time></trkpt>
<trkpt lat="46.1745133" lon="7.3350417"><ele></ele><time>2016-5-22T10:26:30Z</time></trkpt>
<trkpt lat="46.1745283" lon="7.3350383"><ele></ele><time>2016-5-22T10:26:33Z</time></trkpt>
<trkpt lat="46.1745417" lon="7.3350350"><ele></ele><time>2016-5-22T10:26:36Z</time></trkpt>
<trkpt lat="46.1745567" lon="7.3350300"><ele></ele><time>2016-5-22T10:26:39Z</time></trkpt>
<trkpt lat="46.1745700" lon="7.3350283"><ele></ele><time>2016-5-22T10:26:42Z</time></trkpt>
<trkpt lat="46.1745850" lon="7.3350267"><ele></ele><time>2016-5-22T10:26:45Z</time></trkpt>
<trkpt lat="46.1746000" lon="7.3350267"><ele></ele><time>2016-5-22T10:26:48Z</time></trkpt>
<trkpt lat="46.1746150" lon="7.3350250"><ele></ele><time>2016-5-22T10:26:51Z</time></trkpt>
<trkpt lat="46.1746317" lon="7.3350217"><ele></ele><time>2016-5-22T10:26:54Z</time></trkpt>
<trkpt lat="46.1746467" lon="7.3350267"><ele></ele><time>2016-5-22T10:26:57Z</time></trkpt>
<trkpt lat="46.1746600" lon="7.3350267"><ele></ele><time>2016-5-22T10:27:0Z</time></trkpt>
<trkpt lat="46.1746733" lon="7.3350267"><ele></ele><time>2016-5-22T10:27:3Z</time></trkpt>
<trkpt lat="46.1746867" lon="7.3350217"><ele></ele><time>2016-5-22T10:27:6Z</time></trkpt>
<trkpt lat="46.1747017" lon="7.3350183"><ele></ele><time>2016-5-22T10:27:9Z</time></trkpt>
<trkpt lat="46.1747167" lon="7.3350183"><ele></ele><time>2016-5-22T10:27:12Z</time></trkpt>
<trkpt lat="46.1747317" lon="7.3350217"><ele></ele><time>2016-5-22T10:27:15Z</time></trkpt>
<trkpt lat="46.1747483" lon="7.3350283"><ele></ele><time>2016-5-22T10:27:18Z</time></trkpt>
<trkpt lat="46.1747633" lon="7.3350350"><ele></ele><time>2016-5-22T10:27:21Z</time></trkpt>
<trkpt lat="46.1747783" lon="7.3350400"><ele></ele><time>2016-5-22T10:27:24Z</time></trkpt>
<trkpt lat="46.1747933" lon="7.3350383"><ele></ele><time>2016-5-22T10:27:27Z</time></trkpt>
<trkpt lat="46.1748083" lon="7.3350350"><ele></ele><time>2016-5-22T10:27:30Z</time></trkpt>
<trkpt lat="46.1748217" lon="7.3350283"><ele></ele><time>2016-5-22T10:27:33Z</time></trkpt>
<trkpt lat="46.1748367" lon="7.3350267"><ele></ele><time>2016-5-22T10:27:36Z</time></trkpt>
<trkpt lat="46.1748533" lon="7.3350250"><ele></ele><time>2016-5-22T10:27:39Z</time></trkpt>
<trkpt lat="46.1748683" lon="7.3350217"><ele></ele><time>2016-5-22T10:27:42Z</time></trkpt>
<trkpt lat="46.1748833" lon="7.3350183"><ele></ele><time>2016-5-22T10:27:45Z</time></trkpt>
<trkpt lat="46.1748983" lon="7.3350150"><ele></ele><time>2016-5-22T10:27:48Z</time></trkpt>
<trkpt lat="46.1749133" lon="7.3350133"><ele></ele><time>2016-5-22T10:27:51Z</time></trkpt>
<trkpt lat="46.1749300" lon="7.3350133"><ele></ele><time>2016-5-22T10:27:54Z</time></trkpt>
<trkpt lat="46.1749450" lon="7.3350117"><ele></ele><time>2016-5-22T10:27:57Z</time></trkpt>
<trkpt lat="46.1749617" lon="7.3350150"><ele></ele><time>2016-5-22T10:28:0Z</time></trkpt>
<trkpt lat="46.1749750" lon="7.3350233"><ele></ele><time>2016-5-22T10:28:3Z</time></trkpt>
<trkpt lat="46.1749883" lon="7.3350317"><ele></ele><time>2016-5-22T10:28:6Z</time></trkpt>
<trkpt lat="46.1750033" lon="7.3350350"><ele></ele><time>2016-5-22T10:28:9Z</time></trkpt>
<trkpt lat="46.1750183" lon="7.3350350"><ele></ele><time>2016-5-22T10:28:12Z</time></trkpt>
<trkpt lat="46.1750317" lon="7.3350350"><ele></ele><time>2016-5-22T10:28:15Z</time></trkpt>
<trkpt lat="46.1750450" lon="7.3350350"><ele></ele><time>2016-5-22T10:28:18Z</time></trkpt>
<trkpt lat="46.1750600" lon="7.3350333"><ele></ele><time>2016-5-22T10:28:21Z</time></trkpt>
<trkpt lat="46.1750717" lon="7.3350317"><ele></ele><time>2016-5-22T10:28:24Z</time></trkpt>
<trkpt lat="46.1750850" lon="7.3350300"><ele></ele><time>2016-5-22T10:28:27Z</time></trkpt>
<trkpt lat="46.1751017" lon="7.3350283"><ele></ele><time>2016-5-22T10:28:30Z</time></trkpt>
<trkpt lat="46.1751200" lon="7.3350300"><ele></ele><time>2016-5-22T10:28:33Z</time></trkpt>
<trkpt lat="46.1751350" lon="7.3350300"><ele></ele><time>2016-5-22T10:28:36Z</time></trkpt>
<trkpt lat="46.1751483" lon="7.3350300"><ele></ele><time>2016-5-22T10:28:39Z</time></trkpt>
<trkpt lat="46.1751650" lon="7.3350300"><ele></ele><time>2016-5-22T10:28:42Z</time></trkpt>
<trkpt lat="46.1751817" lon="7.3350283"><ele></ele><time>2016-5-22T10:28:45Z</time></trkpt>
<trkpt lat="46.1751967" lon="7.3350250"><ele></ele><time>2016-5-22T10:28:48Z</time></trkpt>
<trkpt lat="46.1752117" lon="7.3350233"><ele></ele><time>2016-5-22T10:28:51Z</time></trkpt>
<trkpt lat="46.1752267" lon="7.3350283"><ele></ele><time>2016-5-22T10:28:54Z</time></trkpt>
<trkpt lat="46.1752433" lon="7.3350333"><ele></ele><time>2016-5-22T10:28:57Z</time></trkpt>
<trkpt lat="46.1752583" lon="7.3350367"><ele></ele><time>2016-5-22T10:29:0Z</time></trkpt>
<trkpt lat="46.1752750" lon="7.3350417"><ele></ele><time>2016-5-22T10:29:3Z</time></trkpt>
<trkpt lat="46.1752900" lon="7.3350450"><ele></ele><time>2016-5-22T10:29:6Z</time></trkpt>
<trkpt lat="46.1753067" lon="7.3350533"><ele></ele><time>2016-5-22T10:29:9Z</time></trkpt>
<trkpt lat="46.1753217" lon="7.3350617"><ele></ele><time>2016-5-22T10:29:12Z</time></trkpt>
<trkpt lat="46.1753367" lon="7.3350683"><ele></ele><time>2016-5-22T10:29:15Z</time></trkpt>
<trkpt lat="46.1753500" lon="7.3350717"><ele></ele><time>2016-5-22T10:29:18Z</time></trkpt>
<trkpt lat="46.1753650" lon="7.3350767"><ele></ele><time>2016-5-22T10:29:21Z</time></trkpt>
<trkpt lat="46.1753783" lon="7.3350800"><ele></ele><time>2016-5-22T10:29:24Z</time></trkpt>
<trkpt lat="46.1753900" lon="7.3350867"><ele></ele><time>2016-5-22T10:29:27Z</time></trkpt>
<trkpt lat="46.1754033" lon="7.3350950"><ele></ele><time>2016-5-22T10:29:30Z</time></trkpt>
<trkpt lat="46.1754167" lon="7.3351050"><ele></ele><time>2016-5-22T10:29:33Z</time></trkpt>
<trkpt lat="46.1754283" lon="7.3351133"><ele></ele><time>2016-5-22T10:29:36Z</time></trkpt>
<trkpt lat="46.1754400" lon="7.3351217"><ele></ele><time>2016-5-22T10:29:39Z</time></trkpt>
<trkpt lat="46.1754533" lon="7.3351333"><ele></ele><time>2016-5-22T10:29:42Z</time></trkpt>
<trkpt lat="46.1754650" lon="7.3351400"><ele></ele><time>2016-5-22T10:29:45Z</time></trkpt>
<trkpt lat="46.1754767" lon="7.3351467"><ele></ele><time>2016-5-22T10:29:48Z</time></trkpt>
<trkpt lat="46.1754917" lon="7.3351600"><ele></ele><time>2016-5-22T10:29:51Z</time></trkpt>
<trkpt lat="46.1755050" lon="7.3351717"><ele></ele><time>2016-5-22T10:29:54Z</time></trkpt>
<trkpt lat="46.1755167" lon="7.3351867"><ele></ele><time>2016-5-22T10:29:57Z</time></trkpt>
<trkpt lat="46.1755300" lon="7.3352050"><ele></ele><time>2016-5-22T10:30:0Z</time></trkpt>
<trkpt lat="46.1755400" lon="7.3352233"><ele></ele><time>2016-5-22T10:30:3Z</time></trkpt>
<trkpt lat="46.1755483" lon="7.3352417"><ele></ele><time>2016-5-22T10:30:6Z</time></trkpt>
<trkpt lat="46.1755583" lon="7.3352583"><ele></ele><time>2016-5-22T10:30:9Z</time></trkpt>
<trkpt lat="46.1755700" lon="7.3352783"><ele></ele><time>2016-5-22T10:30:12Z</time></trkpt>
<trkpt lat="46.1755783" lon="7.3352983"><ele></ele><time>2016-5-22T10:30:15Z</time></trkpt>
<trkpt lat="46.1755850" lon="7.3353167"><ele></ele><time>2016-5-22T10:30:18Z</time></trkpt>
<trkpt lat="46.1755950" lon="7.3353383"><ele></ele><time>2016-5-22T10:30:21Z</time></trkpt>
<trkpt lat="46.1756050" lon="7.3353600"><ele></ele><time>2016-5-22T10:30:24Z</time></trkpt>
<trkpt lat="46.1756150" lon="7.3353800"><ele></ele><time>2016-5-22T10:30:27Z</time></trkpt>
<trkpt lat="46.1756233" lon="7.3353983"><ele></ele><time>2016-5-22T10:30:30Z</time></trkpt>
<trkpt lat="46.1756300" lon="7.3354167"><ele></ele><time>2016-5-22T10:30:33Z</time></trkpt>
<trkpt lat="46.1756367" lon="7.3354350"><ele></ele><time>2016-5-22T10:30:36Z</time></trkpt>
<trkpt lat="46.1756417" lon="7.3354533"><ele></ele><time>2016-5-22T10:30:39Z</time></trkpt>
<trkpt lat="46.1756450" lon="7.3354767"><ele></ele><time>2016-5-22T10:30:42Z</time></trkpt>
<trkpt lat="46.1756483" lon="7.3354967"><ele></ele><time>2016-5-22T10:30:45Z</time></trkpt>
<trkpt lat="46.1756483" lon="7.3355167"><ele></ele><time>2016-5-22T10:30:48Z</time></trkpt>
<trkpt lat="46.1756533" lon="7.3355383"><ele></ele><time>2016-5-22T10:30:51Z</time></trkpt>
<trkpt lat="46.1756583" lon="7.3355583"><ele></ele><time>2016-5-22T10:30:54Z</time></trkpt>
<trkpt lat="46.1756633" lon="7.3355750"><ele></ele><time>2016-5-22T10:30:57Z</time></trkpt>
<trkpt lat="46.1756700" lon="7.3355933"><ele></ele><time>2016-5-22T10:31:0Z</time></trkpt>
<trkpt lat="46.1756767" lon="7.3356133"><ele></ele><time>2016-5-22T10:31:3Z</time></trkpt>
<trkpt lat="46.1756817" lon="7.3356317"><ele></ele><time>2016-5-22T10:31:6Z</time></trkpt>
<trkpt lat="46.1756850" lon="7.3356533"><ele></ele><time>2016-5-22T10:31:9Z</time></trkpt>
<trkpt lat="46.1756917" lon="7.3356783"><ele></ele><time>2016-5-22T10:31:12Z</time></trkpt>
<trkpt lat="46.1757000" lon="7.3357067"><ele></ele><time>2016-5-22T10:31:15Z</time></trkpt>
<trkpt lat="46.1757067" lon="7.3357350"><ele></ele><time>2016-5-22T10:31:18Z</time></trkpt>
<trkpt lat="46.1757117" lon="7.3357533"><ele></ele><time>2016-5-22T10:31:21Z</time></trkpt>
<trkpt lat="46.1757117" lon="7.3357733"><ele></ele><time>2016-5-22T10:31:24Z</time></trkpt>
<trkpt lat="46.1757150" lon="7.3357950"><ele></ele><time>2016-5-22T10:31:27Z</time></trkpt>
<trkpt lat="46.1757217" lon="7.3358133"><ele></ele><time>2016-5-22T10:31:30Z</time></trkpt>
<trkpt lat="46.1757300" lon="7.3358317"><ele></ele><time>2016-5-22T10:31:33Z</time></trkpt>
<trkpt lat="46.1757400" lon="7.3358483"><ele></ele><time>2016-5-22T10:31:36Z</time></trkpt>
<trkpt lat="46.1757467" lon="7.3358633"><ele></ele><time>2016-5-22T10:31:39Z</time></trkpt>
<trkpt lat="46.1757500" lon="7.3358767"><ele></ele><time>2016-5-22T10:31:42Z</time></trkpt>
<trkpt lat="46.1757550" lon="7.3358933"><ele></ele><time>2016-5-22T10:31:45Z</time></trkpt>
<trkpt lat="46.1757600" lon="7.3359117"><ele></ele><time>2016-5-22T10:31:48Z</time></trkpt>
<trkpt lat="46.1757683" lon="7.3359283"><ele></ele><time>2016-5-22T10:31:51Z</time></trkpt>
<trkpt lat="46.1757783" lon="7.3359433"><ele></ele><time>2016-5-22T10:31:54Z</time></trkpt>
<trkpt lat="46.1757900" lon="7.3359600"><ele></ele><time>2016-5-22T10:31:57Z</time></trkpt>
<trkpt lat="46.1758000" lon="7.3359750"><ele></ele><time>2016-5-22T10:32:0Z</time></trkpt>
<trkpt lat="46.1758083" lon="7.3359933"><ele></ele><time>2016-5-22T10:32:3Z</time></trkpt>
<trkpt lat="46.1758167" lon="7.3360133"><ele></ele><time>2016-5-22T10:32:6Z</time></trkpt>
<trkpt lat="46.1758250" lon="7.3360283"><ele></ele><time>2016-5-22T10:32:9Z</time></trkpt>
<trkpt lat="46.1758350" lon="7.3360400"><ele></ele><time>2016-5-22T10:32:12Z</time></trkpt>
<trkpt lat="46.1758450" lon="7.3360517"><ele></ele><time>2016-5-22T10:32:15Z</time></trkpt>
<trkpt lat="46.1758550" lon="7.3360683"><ele></ele><time>2016-5-22T10:32:18Z</time></trkpt>
<trkpt lat="46.1758650" lon="7.3360850"><ele></ele><time>2016-5-22T10:32:21Z</time></trkpt>
<trkpt lat="46.1758733" lon="7.3361017"><ele></ele><time>2016-5-22T10:32:24Z</time></trkpt>
<trkpt lat="46.1758850" lon="7.3361183"><ele></ele><time>2016-5-22T10:32:27Z</time></trkpt>
<trkpt lat="46.1758917" lon="7.3361317"><ele></ele><time>2016-5-22T10:32:30Z</time></trkpt>
<trkpt lat="46.1758983" lon="7.3361467"><ele></ele><time>2016-5-22T10:32:33Z</time></trkpt>
<trkpt lat="46.1759067" lon="7.3361617"><ele></ele><time>2016-5-22T10:32:36Z</time></trkpt>
<trkpt lat="46.1759133" lon="7.3361733"><ele></ele><time>2016-5-22T10:32:39Z</time></trkpt>
<trkpt lat="46.1759217" lon="7.3361850"><ele></ele><time>2016-5-22T10:32:42Z</time></trkpt>
<trkpt lat="46.1759333" lon="7.3361983"><ele></ele><time>2016-5-22T10:32:45Z</time></trkpt>
<trkpt lat="46.1759517" lon="7.3362150"><ele></ele><time>2016-5-22T10:32:48Z</time></trkpt>
<trkpt lat="46.1759667" lon="7.3362317"><ele></ele><time>2016-5-22T10:32:51Z</time></trkpt>
<trkpt lat="46.1759800" lon="7.3362467"><ele></ele><time>2016-5-22T10:32:54Z</time></trkpt>
<trkpt lat="46.1759917" lon="7.3362633"><ele></ele><time>2016-5-22T10:32:57Z</time></trkpt>
<trkpt lat="46.1760000" lon="7.3362833"><ele></ele><time>2016-5-22T10:33:0Z</time></trkpt>
<trkpt lat="46.1760067" lon="7.3363050"><ele></ele><time>2016-5-22T10:33:3Z</time></trkpt>
<trkpt lat="46.1760117" lon="7.3363250"><ele></ele><time>2016-5-22T10:33:6Z</time></trkpt>
<trkpt lat="46.1760183" lon="7.3363400"><ele></ele><time>2016-5-22T10:33:9Z</time></trkpt>
<trkpt lat="46.1760267" lon="7.3363583"><ele></ele><time>2016-5-22T10:33:12Z</time></trkpt>
<trkpt lat="46.1760367" lon="7.3363800"><ele></ele><time>2016-5-22T10:33:15Z</time></trkpt>
<trkpt lat="46.1760450" lon="7.3363983"><ele></ele><time>2016-5-22T10:33:18Z</time></trkpt>
<trkpt lat="46.1760533" lon="7.3364167"><ele></ele><time>2016-5-22T10:33:21Z</time></trkpt>
<trkpt lat="46.1760600" lon="7.3364333"><ele></ele><time>2016-5-22T10:33:24Z</time></trkpt>
<trkpt lat="46.1760667" lon="7.3364533"><ele></ele><time>2016-5-22T10:33:27Z</time></trkpt>
<trkpt lat="46.1760733" lon="7.3364733"><ele></ele><time>2016-5-22T10:33:30Z</time></trkpt>
<trkpt lat="46.1760800" lon="7.3364917"><ele></ele><time>2016-5-22T10:33:33Z</time></trkpt>
<trkpt lat="46.1760867" lon="7.3365100"><ele></ele><time>2016-5-22T10:33:36Z</time></trkpt>
<trkpt lat="46.1760950" lon="7.3365250"><ele></ele><time>2016-5-22T10:33:39Z</time></trkpt>
<trkpt lat="46.1761000" lon="7.3365367"><ele></ele><time>2016-5-22T10:33:42Z</time></trkpt>
<trkpt lat="46.1761033" lon="7.3365550"><ele></ele><time>2016-5-22T10:33:45Z</time></trkpt>
<trkpt lat="46.1761050" lon="7.3365767"><ele></ele><time>2016-5-22T10:33:48Z</time></trkpt>
<trkpt lat="46.1761033" lon="7.3365983"><ele></ele><time>2016-5-22T10:33:51Z</time></trkpt>
<trkpt lat="46.1761017" lon="7.3366183"><ele></ele><time>2016-5-22T10:33:54Z</time></trkpt>
<trkpt lat="46.1760983" lon="7.3366367"><ele></ele><time>2016-5-22T10:33:57Z</time></trkpt>
<trkpt lat="46.1760967" lon="7.3366533"><ele></ele><time>2016-5-22T10:34:0Z</time></trkpt>
<trkpt lat="46.1760950" lon="7.3366717"><ele></ele><time>2016-5-22T10:34:3Z</time></trkpt>
<trkpt lat="46.1760967" lon="7.3366850"><ele></ele><time>2016-5-22T10:34:6Z</time></trkpt>
<trkpt lat="46.1760950" lon="7.3367017"><ele></ele><time>2016-5-22T10:34:9Z</time></trkpt>
<trkpt lat="46.1760967" lon="7.3367200"><ele></ele><time>2016-5-22T10:34:12Z</time></trkpt>
<trkpt lat="46.1760967" lon="7.3367383"><ele></ele><time>2016-5-22T10:34:15Z</time></trkpt>
<trkpt lat="46.1760950" lon="7.3367533"><ele></ele><time>2016-5-22T10:34:18Z</time></trkpt>
<trkpt lat="46.1760933" lon="7.3367700"><ele></ele><time>2016-5-22T10:34:21Z</time></trkpt>
<trkpt lat="46.1760917" lon="7.3367900"><ele></ele><time>2016-5-22T10:34:24Z</time></trkpt>
<trkpt lat="46.1760900" lon="7.3368100"><ele></ele><time>2016-5-22T10:34:27Z</time></trkpt>
<trkpt lat="46.1760900" lon="7.3368300"><ele></ele><time>2016-5-22T10:34:30Z</time></trkpt>
<trkpt lat="46.1760917" lon="7.3368533"><ele></ele><time>2016-5-22T10:34:33Z</time></trkpt>
<trkpt lat="46.1760900" lon="7.3368750"><ele></ele><time>2016-5-22T10:34:36Z</time></trkpt>
<trkpt lat="46.1760883" lon="7.3368983"><ele></ele><time>2016-5-22T10:34:39Z</time></trkpt>
<trkpt lat="46.1760867" lon="7.3369217"><ele></ele><time>2016-5-22T10:34:42Z</time></trkpt>
<trkpt lat="46.1760850" lon="7.3369417"><ele></ele><time>2016-5-22T10:34:45Z</time></trkpt>
<trkpt lat="46.1760817" lon="7.3369600"><ele></ele><time>2016-5-22T10:34:48Z</time></trkpt>
<trkpt lat="46.1760800" lon="7.3369800"><ele></ele><time>2016-5-22T10:34:51Z</time></trkpt>
<trkpt lat="46.1760750" lon="7.3370033"><ele></ele><time>2016-5-22T10:34:54Z</time></trkpt>
<trkpt lat="46.1760733" lon="7.3370267"><ele></ele><time>2016-5-22T10:34:57Z</time></trkpt>
<trkpt lat="46.1760717" lon="7.3370467"><ele></ele><time>2016-5-22T10:35:0Z</time></trkpt>
<trkpt lat="46.1760700" lon="7.3370683"><ele></ele><time>2016-5-22T10:35:3Z</time></trkpt>
<trkpt lat="46.1760700" lon="7.3370867"><ele></ele><time>2016-5-22T10:35:6Z</time></trkpt>
<trkpt lat="46.1760700" lon="7.3371033"><ele></ele><time>2016-5-22T10:35:9Z</time></trkpt>
<trkpt lat="46.1760700" lon="7.3371217"><ele></ele><time>2016-5-22T10:35:12Z</time></trkpt>
<trkpt lat="46.1760700" lon="7.3371400"><ele></ele><time>2016-5-22T10:35:15Z</time></trkpt>
<trkpt lat="46.1760700" lon="7.3371567"><ele></ele><time>2016-5-22T10:35:18Z</time></trkpt>
<trkpt lat="46.1760667" lon="7.3371750"><ele></ele><time>2016-5-22T10:35:21Z</time></trkpt>
<trkpt lat="46.1760633" lon="7.3371933"><ele></ele><time>2016-5-22T10:35:24Z</time></trkpt>
<trkpt lat="46.1760600" lon="7.3372133"><ele></ele><time>2016-5-22T10:35:27Z</time></trkpt>
<trkpt lat="46.1760533" lon="7.3372300"><ele></ele><time>2016-5-22T10:35:30Z</time></trkpt>
<trkpt lat="46.1760500" lon="7.3372467"><ele></ele><time>2016-5-22T10:35:33Z</time></trkpt>
<trkpt lat="46.1760467" lon="7.3372633"><ele></ele><time>2016-5-22T10:35:36Z</time></trkpt>
<trkpt lat="46.1760433" lon="7.3372833"><ele></ele><time>2016-5-22T10:35:39Z</time></trkpt>
<trkpt lat="46.1760450" lon="7.3373033"><ele></ele><time>2016-5-22T10:35:42Z</time></trkpt>
<trkpt lat="46.1760467" lon="7.3373200"><ele></ele><time>2016-5-22T10:35:45Z</time></trkpt>
<trkpt lat="46.1760433" lon="7.3373300"><ele></ele><time>2016-5-22T10:35:48Z</time></trkpt>
<trkpt lat="46.1760383" lon="7.3373433"><ele></ele><time>2016-5-22T10:35:51Z</time></trkpt>
<trkpt lat="46.1760317" lon="7.3373583"><ele></ele><time>2016-5-22T10:35:54Z</time></trkpt>
<trkpt lat="46.1760317" lon="7.3373750"><ele></ele><time>2016-5-22T10:35:57Z</time></trkpt>
<trkpt lat="46.1760300" lon="7.3373917"><ele></ele><time>2016-5-22T10:36:0Z</time></trkpt>
<trkpt lat="46.1760317" lon="7.3374083"><ele></ele><time>2016-5-22T10:36:3Z</time></trkpt>
<trkpt lat="46.1760350" lon="7.3374283"><ele></ele><time>2016-5-22T10:36:6Z</time></trkpt>
<trkpt lat="46.1760367" lon="7.3374450"><ele></ele><time>2016-5-22T10:36:9Z</time></trkpt>
<trkpt lat="46.1760383" lon="7.3374633"><ele></ele><time>2016-5-22T10:36:12Z</time></trkpt>
<trkpt lat="46.1760400" lon="7.3374817"><ele></ele><time>2016-5-22T10:36:15Z</time></trkpt>
<trkpt lat="46.1760383" lon="7.3375017"><ele></ele><time>2016-5-22T10:36:18Z</time></trkpt>
<trkpt lat="46.1760350" lon="7.3375217"><ele></ele><time>2016-5-22T10:36:21Z</time></trkpt>
<trkpt lat="46.1760350" lon="7.3375417"><ele></ele><time>2016-5-22T10:36:24Z</time></trkpt>
<trkpt lat="46.1760317" lon="7.3375617"><ele></ele><time>2016-5-22T10:36:27Z</time></trkpt>
<trkpt lat="46.1760333" lon="7.3375767"><ele></ele><time>2016-5-22T10:36:30Z</time></trkpt>
<trkpt lat="46.1760333" lon="7.3375917"><ele></ele><time>2016-5-22T10:36:33Z</time></trkpt>
<trkpt lat="46.1760350" lon="7.3376033"><ele></ele><time>2016-5-22T10:36:36Z</time></trkpt>
<trkpt lat="46.1760333" lon="7.3376200"><ele></ele><time>2016-5-22T10:36:39Z</time></trkpt>
<trkpt lat="46.1760317" lon="7.3376367"><ele></ele><time>2016-5-22T10:36:42Z</time></trkpt>
<trkpt lat="46.1760233" lon="7.3376533"><ele></ele><time>2016-5-22T10:36:45Z</time></trkpt>
<trkpt lat="46.1760183" lon="7.3376700"><ele></ele><time>2016-5-22T10:36:48Z</time></trkpt>
<trkpt lat="46.1760150" lon="7.3376883"><ele></ele><time>2016-5-22T10:36:51Z</time></trkpt>
<trkpt lat="46.1760117" lon="7.3377083"><ele></ele><time>2016-5-22T10:36:54Z</time></trkpt>
<trkpt lat="46.1760150" lon="7.3377300"><ele></ele><time>2016-5-22T10:36:57Z</time></trkpt>
<trkpt lat="46.1760183" lon="7.3377533"><ele></ele><time>2016-5-22T10:37:0Z</time></trkpt>
<trkpt lat="46.1760300" lon="7.3377767"><ele></ele><time>2016-5-22T10:37:3Z</time></trkpt>
<trkpt lat="46.1760383" lon="7.3378000"><ele></ele><time>2016-5-22T10:37:6Z</time></trkpt>
<trkpt lat="46.1760517" lon="7.3378250"><ele></ele><time>2016-5-22T10:37:9Z</time></trkpt>
<trkpt lat="46.1760600" lon="7.3378500"><ele></ele><time>2016-5-22T10:37:12Z</time></trkpt>
<trkpt lat="46.1760650" lon="7.3378733"><ele></ele><time>2016-5-22T10:37:15Z</time></trkpt>
<trkpt lat="46.1760717" lon="7.3378950"><ele></ele><time>2016-5-22T10:37:18Z</time></trkpt>
<trkpt lat="46.1760767" lon="7.3379183"><ele></ele><time>2016-5-22T10:37:21Z</time></trkpt>
<trkpt lat="46.1760817" lon="7.3379417"><ele></ele><time>2016-5-22T10:37:24Z</time></trkpt>
<trkpt lat="46.1760850" lon="7.3379617"><ele></ele><time>2016-5-22T10:37:27Z</time></trkpt>
<trkpt lat="46.1760883" lon="7.3379833"><ele></ele><time>2016-5-22T10:37:30Z</time></trkpt>
<trkpt lat="46.1760900" lon="7.3380083"><ele></ele><time>2016-5-22T10:37:33Z</time></trkpt>
<trkpt lat="46.1760850" lon="7.3380250"><ele></ele><time>2016-5-22T10:37:36Z</time></trkpt>
<trkpt lat="46.1760800" lon="7.3380417"><ele></ele><time>2016-5-22T10:37:39Z</time></trkpt>
<trkpt lat="46.1760767" lon="7.3380600"><ele></ele><time>2016-5-22T10:37:42Z</time></trkpt>
<trkpt lat="46.1760750" lon="7.3380783"><ele></ele><time>2016-5-22T10:37:45Z</time></trkpt>
<trkpt lat="46.1760750" lon="7.3380983"><ele></ele><time>2016-5-22T10:37:48Z</time></trkpt>
<trkpt lat="46.1760767" lon="7.3381200"><ele></ele><time>2016-5-22T10:37:51Z</time></trkpt>
<trkpt lat="46.1760783" lon="7.3381433"><ele></ele><time>2016-5-22T10:37:54Z</time></trkpt>
<trkpt lat="46.1760817" lon="7.3381683"><ele></ele><time>2016-5-22T10:37:57Z</time></trkpt>
<trkpt lat="46.1760850" lon="7.3381917"><ele></ele><time>2016-5-22T10:38:0Z</time></trkpt>
<trkpt lat="46.1760833" lon="7.3382133"><ele></ele><time>2016-5-22T10:38:3Z</time></trkpt>
<trkpt lat="46.1760800" lon="7.3382350"><ele></ele><time>2016-5-22T10:38:6Z</time></trkpt>
<trkpt lat="46.1760750" lon="7.3382583"><ele></ele><time>2016-5-22T10:38:9Z</time></trkpt>
<trkpt lat="46.1760733" lon="7.3382850"><ele></ele><time>2016-5-22T10:38:12Z</time></trkpt>
<trkpt lat="46.1760717" lon="7.3383133"><ele></ele><time>2016-5-22T10:38:15Z</time></trkpt>
<trkpt lat="46.1760717" lon="7.3383400"><ele></ele><time>2016-5-22T10:38:18Z</time></trkpt>
<trkpt lat="46.1760700" lon="7.3383617"><ele></ele><time>2016-5-22T10:38:21Z</time></trkpt>
<trkpt lat="46.1760700" lon="7.3383800"><ele></ele><time>2016-5-22T10:38:24Z</time></trkpt>
<trkpt lat="46.1760717" lon="7.3384017"><ele></ele><time>2016-5-22T10:38:27Z</time></trkpt>
<trkpt lat="46.1760750" lon="7.3384233"><ele></ele><time>2016-5-22T10:38:30Z</time></trkpt>
<trkpt lat="46.1760767" lon="7.3384467"><ele></ele><time>2016-5-22T10:38:33Z</time></trkpt>
<trkpt lat="46.1760800" lon="7.3384667"><ele></ele><time>2016-5-22T10:38:36Z</time></trkpt>
<trkpt lat="46.1760833" lon="7.3384867"><ele></ele><time>2016-5-22T10:38:39Z</time></trkpt>
<trkpt lat="46.1760883" lon="7.3385067"><ele></ele><time>2016-5-22T10:38:42Z</time></trkpt>
<trkpt lat="46.1760950" lon="7.3385250"><ele></ele><time>2016-5-22T10:38:45Z</time></trkpt>
<trkpt lat="46.1761000" lon="7.3385450"><ele></ele><time>2016-5-22T10:38:48Z</time></trkpt>
<trkpt lat="46.1761033" lon="7.3385667"><ele></ele><time>2016-5-22T10:38:51Z</time></trkpt>
<trkpt lat="46.1761100" lon="7.3385867"><ele></ele><time>2016-5-22T10:38:54Z</time></trkpt>
<trkpt lat="46.1761183" lon="7.3386033"><ele></ele><time>2016-5-22T10:38:57Z</time></trkpt>
<trkpt lat="46.1761250" lon="7.3386217"><ele></ele><time>2016-5-22T10:39:0Z</time></trkpt>
<trkpt lat="46.1761300" lon="7.3386383"><ele></ele><time>2016-5-22T10:39:3Z</time></trkpt>
<trkpt lat="46.1761333" lon="7.3386567"><ele></ele><time>2016-5-22T10:39:6Z</time></trkpt>
<trkpt lat="46.1761367" lon="7.3386750"><ele></ele><time>2016-5-22T10:39:9Z</time></trkpt>
<trkpt lat="46.1761367" lon="7.3386933"><ele></ele><time>2016-5-22T10:39:12Z</time></trkpt>
<trkpt lat="46.1761367" lon="7.3387133"><ele></ele><time>2016-5-22T10:39:15Z</time></trkpt>
<trkpt lat="46.1761350" lon="7.3387333"><ele></ele><time>2016-5-22T10:39:18Z</time></trkpt>
<trkpt lat="46.1761350" lon="7.3387550"><ele></ele><time>2016-5-22T10:39:21Z</time></trkpt>
<trkpt lat="46.1761350" lon="7.3387767"><ele></ele><time>2016-5-22T10:39:24Z</time></trkpt>
<trkpt lat="46.1761400" lon="7.3387983"><ele></ele><time>2016-5-22T10:39:27Z</time></trkpt>
<trkpt lat="46.1761450" lon="7.3388200"><ele></ele><time>2016-5-22T10:39:30Z</time></trkpt>
<trkpt lat="46.1761467" lon="7.3388383"><ele></ele><time>2016-5-22T10:39:33Z</time></trkpt>
<trkpt lat="46.1761483" lon="7.3388567"><ele></ele><time>2016-5-22T10:39:36Z</time></trkpt>
<trkpt lat="46.1761500" lon="7.3388750"><ele></ele><time>2016-5-22T10:39:39Z</time></trkpt>
<trkpt lat="46.1761483" lon="7.3388967"><ele></ele><time>2016-5-22T10:39:42Z</time></trkpt>
<trkpt lat="46.1761483" lon="7.3389150"><ele></ele><time>2016-5-22T10:39:45Z</time></trkpt>
<trkpt lat="46.1761467" lon="7.3389333"><ele></ele><time>2016-5-22T10:39:48Z</time></trkpt>
<trkpt lat="46.1761433" lon="7.3389500"><ele></ele><time>2016-5-22T10:39:51Z</time></trkpt>
<trkpt lat="46.1761417" lon="7.3389667"><ele></ele><time>2016-5-22T10:39:54Z</time></trkpt>
<trkpt lat="46.1761383" lon="7.3389850"><ele></ele><time>2016-5-22T10:39:57Z</time></trkpt>
<trkpt lat="46.1761350" lon="7.3390033"><ele></ele><time>2016-5-22T10:40:0Z</time></trkpt>
<trkpt lat="46.1761317" lon="7.3390217"><ele></ele><time>2016-5-22T10:40:3Z</time></trkpt>
<trkpt lat="46.1761233" lon="7.3390367"><ele></ele><time>2016-5-22T10:40:6Z</time></trkpt>
<trkpt lat="46.1761200" lon="7.3390500"><ele></ele><time>2016-5-22T10:40:9Z</time></trkpt>
<trkpt lat="46.1761183" lon="7.3390667"><ele></ele><time>2016-5-22T10:40:12Z</time></trkpt>
<trkpt lat="46.1761183" lon="7.3390850"><ele></ele><time>2016-5-22T10:40:15Z</time></trkpt>
<trkpt lat="46.1761183" lon="7.3391050"><ele></ele><time>2016-5-22T10:40:18Z</time></trkpt>
<trkpt lat="46.1761183" lon="7.3391217"><ele></ele><time>2016-5-22T10:40:21Z</time></trkpt>
<trkpt lat="46.1761167" lon="7.3391367"><ele></ele><time>2016-5-22T10:40:24Z</time></trkpt>
<trkpt lat="46.1761167" lon="7.3391533"><ele></ele><time>2016-5-22T10:40:27Z</time></trkpt>
<trkpt lat="46.1761150" lon="7.3391717"><ele></ele><time>2016-5-22T10:40:30Z</time></trkpt>
<trkpt lat="46.1761133" lon="7.3391867"><ele></ele><time>2016-5-22T10:40:33Z</time></trkpt>
<trkpt lat="46.1761133" lon="7.3392033"><ele></ele><time>2016-5-22T10:40:36Z</time></trkpt>
<trkpt lat="46.1761117" lon="7.3392200"><ele></ele><time>2016-5-22T10:40:39Z</time></trkpt>
<trkpt lat="46.1761117" lon="7.3392367"><ele></ele><time>2016-5-22T10:40:42Z</time></trkpt>
<trkpt lat="46.1761100" lon="7.3392517"><ele></ele><time>2016-5-22T10:40:45Z</time></trkpt>
<trkpt lat="46.1761083" lon="7.3392683"><ele></ele><time>2016-5-22T10:40:48Z</time></trkpt>
<trkpt lat="46.1761083" lon="7.3392850"><ele></ele><time>2016-5-22T10:40:51Z</time></trkpt>
<trkpt lat="46.1761100" lon="7.3393017"><ele></ele><time>2016-5-22T10:40:54Z</time></trkpt>
<trkpt lat="46.1761117" lon="7.3393183"><ele></ele><time>2016-5-22T10:40:57Z</time></trkpt>
<trkpt lat="46.1761133" lon="7.3393367"><ele></ele><time>2016-5-22T10:41:0Z</time></trkpt>
<trkpt lat="46.1761167" lon="7.3393550"><ele></ele><time>2016-5-22T10:41:3Z</time></trkpt>
<trkpt lat="46.1761183" lon="7.3393750"><ele></ele><time>2016-5-22T10:41:6Z</time></trkpt>
<trkpt lat="46.1761167" lon="7.3393917"><ele></ele><time>2016-5-22T10:41:9Z</time></trkpt>
<trkpt lat="46.1761133" lon="7.3394100"><ele></ele><time>2016-5-22T10:41:12Z</time></trkpt>
<trkpt lat="46.1761133" lon="7.3394300"><ele></ele><time>2016-5-22T10:41:15Z</time></trkpt>
<trkpt lat="46.1761117" lon="7.3394467"><ele></ele><time>2016-5-22T10:41:18Z</time></trkpt>
<trkpt lat="46.1761100" lon="7.3394650"><ele></ele><time>2016-5-22T10:41:21Z</time></trkpt>
<trkpt lat="46.1761067" lon="7.3394867"><ele></ele><time>2016-5-22T10:41:24Z</time></trkpt>
<trkpt lat="46.1761017" lon="7.3395083"><ele></ele><time>2016-5-22T10:41:27Z</time></trkpt>
<trkpt lat="46.1760967" lon="7.3395233"><ele></ele><time>2016-5-22T10:41:30Z</time></trkpt>
<trkpt lat="46.1760900" lon="7.3395350"><ele></ele><time>2016-5-22T10:41:33Z</time></trkpt>
<trkpt lat="46.1760833" lon="7.3395467"><ele></ele><time>2016-5-22T10:41:36Z</time></trkpt>
<trkpt lat="46.1760767" lon="7.3395600"><ele></ele><time>2016-5-22T10:41:39Z</time></trkpt>
<trkpt lat="46.1760700" lon="7.3395767"><ele></ele><time>2016-5-22T10:41:42Z</time></trkpt>
<trkpt lat="46.1760650" lon="7.3395967"><ele></ele><time>2016-5-22T10:41:45Z</time></trkpt>
<trkpt lat="46.1760583" lon="7.3396150"><ele></ele><time>2016-5-22T10:41:48Z</time></trkpt>
<trkpt lat="46.1760533" lon="7.3396367"><ele></ele><time>2016-5-22T10:41:51Z</time></trkpt>
<trkpt lat="46.1760450" lon="7.3396567"><ele></ele><time>2016-5-22T10:41:54Z</time></trkpt>
<trkpt lat="46.1760400" lon="7.3396717"><ele></ele><time>2016-5-22T10:41:57Z</time></trkpt>
<trkpt lat="46.1760317" lon="7.3396883"><ele></ele><time>2016-5-22T10:42:0Z</time></trkpt>
<trkpt lat="46.1760250" lon="7.3397033"><ele></ele><time>2016-5-22T10:42:3Z</time></trkpt>
<trkpt lat="46.1760183" lon="7.3397200"><ele></ele><time>2016-5-22T10:42:6Z</time></trkpt>
<trkpt lat="46.1760133" lon="7.3397350"><ele></ele><time>2016-5-22T10:42:9Z</time></trkpt>
<trkpt lat="46.1760083" lon="7.3397500"><ele></ele><time>2016-5-22T10:42:12Z</time></trkpt>
<trkpt lat="46.1760017" lon="7.3397650"><ele></ele><time>2016-5-22T10:42:15Z</time></trkpt>
<trkpt lat="46.1759983" lon="7.3397767"><ele></ele><time>2016-5-22T10:42:18Z</time></trkpt>
<trkpt lat="46.1759917" lon="7.3397883"><ele></ele><time>2016-5-22T10:42:21Z</time></trkpt>
<trkpt lat="46.1759883" lon="7.3398033"><ele></ele><time>2016-5-22T10:42:24Z</time></trkpt>
<trkpt lat="46.1759867" lon="7.3398200"><ele></ele><time>2016-5-22T10:42:27Z</time></trkpt>
<trkpt lat="46.1759850" lon="7.3398383"><ele></ele><time>2016-5-22T10:42:30Z</time></trkpt>
<trkpt lat="46.1759850" lon="7.3398567"><ele></ele><time>2016-5-22T10:42:33Z</time></trkpt>
<trkpt lat="46.1759883" lon="7.3398767"><ele></ele><time>2016-5-22T10:42:36Z</time></trkpt>
<trkpt lat="46.1759883" lon="7.3398767"><ele></ele><time>2016-5-22T10:42:39Z</time></trkpt>
<trkpt lat="46.1759867" lon="7.3398983"><ele></ele><time>2016-5-22T10:42:42Z</time></trkpt>
<trkpt lat="46.1759867" lon="7.3399167"><ele></ele><time>2016-5-22T10:42:45Z</time></trkpt>
<trkpt lat="46.1759883" lon="7.3399333"><ele></ele><time>2016-5-22T10:42:48Z</time></trkpt>
<trkpt lat="46.1759883" lon="7.3399550"><ele></ele><time>2016-5-22T10:42:51Z</time></trkpt>
<trkpt lat="46.1759850" lon="7.3399750"><ele></ele><time>2016-5-22T10:42:54Z</time></trkpt>
<trkpt lat="46.1759800" lon="7.3399950"><ele></ele><time>2016-5-22T10:42:57Z</time></trkpt>
<trkpt lat="46.1759767" lon="7.3400083"><ele></ele><time>2016-5-22T10:43:0Z</time></trkpt>
<trkpt lat="46.1759733" lon="7.3400233"><ele></ele><time>2016-5-22T10:43:3Z</time></trkpt>
<trkpt lat="46.1759683" lon="7.3400400"><ele></ele><time>2016-5-22T10:43:6Z</time></trkpt>
<trkpt lat="46.1759650" lon="7.3400533"><ele></ele><time>2016-5-22T10:43:9Z</time></trkpt>
<trkpt lat="46.1759650" lon="7.3400683"><ele></ele><time>2016-5-22T10:43:12Z</time></trkpt>
<trkpt lat="46.1759667" lon="7.3400833"><ele></ele><time>2016-5-22T10:43:15Z</time></trkpt>
<trkpt lat="46.1759683" lon="7.3400983"><ele></ele><time>2016-5-22T10:43:18Z</time></trkpt>
<trkpt lat="46.1759683" lon="7.3400983"><ele></ele><time>2016-5-22T10:43:21Z</time></trkpt>
<trkpt lat="46.1759700" lon="7.3401133"><ele></ele><time>2016-5-22T10:43:24Z</time></trkpt>
<trkpt lat="46.1759700" lon="7.3401283"><ele></ele><time>2016-5-22T10:43:27Z</time></trkpt>
<trkpt lat="46.1759683" lon="7.3401433"><ele></ele><time>2016-5-22T10:43:30Z</time></trkpt>
<trkpt lat="46.1759650" lon="7.3401583"><ele></ele><time>2016-5-22T10:43:33Z</time></trkpt>
<trkpt lat="46.1759617" lon="7.3401717"><ele></ele><time>2016-5-22T10:43:36Z</time></trkpt>
<trkpt lat="46.1759583" lon="7.3401900"><ele></ele><time>2016-5-22T10:43:39Z</time></trkpt>
<trkpt lat="46.1759583" lon="7.3402100"><ele></ele><time>2016-5-22T10:43:42Z</time></trkpt>
<trkpt lat="46.1759583" lon="7.3402283"><ele></ele><time>2016-5-22T10:43:45Z</time></trkpt>
<trkpt lat="46.1759550" lon="7.3402417"><ele></ele><time>2016-5-22T10:43:48Z</time></trkpt>
<trkpt lat="46.1759533" lon="7.3402550"><ele></ele><time>2016-5-22T10:43:51Z</time></trkpt>
<trkpt lat="46.1759500" lon="7.3402683"><ele></ele><time>2016-5-22T10:43:54Z</time></trkpt>
<trkpt lat="46.1759500" lon="7.3402683"><ele></ele><time>2016-5-22T10:43:57Z</time></trkpt>
<trkpt lat="46.1759467" lon="7.3402850"><ele></ele><time>2016-5-22T10:44:0Z</time></trkpt>
<trkpt lat="46.1759433" lon="7.3403000"><ele></ele><time>2016-5-22T10:44:3Z</time></trkpt>
<trkpt lat="46.1759417" lon="7.3403150"><ele></ele><time>2016-5-22T10:44:6Z</time></trkpt>
<trkpt lat="46.1759433" lon="7.3403300"><ele></ele><time>2016-5-22T10:44:9Z</time></trkpt>
<trkpt lat="46.1759433" lon="7.3403417"><ele></ele><time>2016-5-22T10:44:12Z</time></trkpt>
<trkpt lat="46.1759417" lon="7.3403517"><ele></ele><time>2016-5-22T10:44:15Z</time></trkpt>
<trkpt lat="46.1759383" lon="7.3403650"><ele></ele><time>2016-5-22T10:44:18Z</time></trkpt>
<trkpt lat="46.1759350" lon="7.3403817"><ele></ele><time>2016-5-22T10:44:21Z</time></trkpt>
<trkpt lat="46.1759317" lon="7.3404000"><ele></ele><time>2016-5-22T10:44:24Z</time></trkpt>
<trkpt lat="46.1759300" lon="7.3404150"><ele></ele><time>2016-5-22T10:44:27Z</time></trkpt>
<trkpt lat="46.1759300" lon="7.3404300"><ele></ele><time>2016-5-22T10:44:30Z</time></trkpt>
<trkpt lat="46.1759300" lon="7.3404417"><ele></ele><time>2016-5-22T10:44:33Z</time></trkpt>
<trkpt lat="46.1759300" lon="7.3404417"><ele></ele><time>2016-5-22T10:44:36Z</time></trkpt>
<trkpt lat="46.1759283" lon="7.3404533"><ele></ele><time>2016-5-22T10:44:39Z</time></trkpt>
<trkpt lat="46.1759267" lon="7.3404700"><ele></ele><time>2016-5-22T10:44:42Z</time></trkpt>
<trkpt lat="46.1759250" lon="7.3404833"><ele></ele><time>2016-5-22T10:44:45Z</time></trkpt>
<trkpt lat="46.1759250" lon="7.3404917"><ele></ele><time>2016-5-22T10:44:48Z</time></trkpt>
<trkpt lat="46.1759233" lon="7.3405000"><ele></ele><time>2016-5-22T10:44:51Z</time></trkpt>
<trkpt lat="46.1759250" lon="7.3405067"><ele></ele><time>2016-5-22T10:44:54Z</time></trkpt>
<trkpt lat="46.1759250" lon="7.3405133"><ele></ele><time>2016-5-22T10:44:57Z</time></trkpt>
<trkpt lat="46.1759250" lon="7.3405217"><ele></ele><time>2016-5-22T10:45:0Z</time></trkpt>
<trkpt lat="46.1759267" lon="7.3405350"><ele></ele><time>2016-5-22T10:45:3Z</time></trkpt>
<trkpt lat="46.1759317" lon="7.3405533"><ele></ele><time>2016-5-22T10:45:6Z</time></trkpt>
<trkpt lat="46.1759400" lon="7.3405750"><ele></ele><time>2016-5-22T10:45:9Z</time></trkpt>
<trkpt lat="46.1759483" lon="7.3405950"><ele></ele><time>2016-5-22T10:45:12Z</time></trkpt>
<trkpt lat="46.1759483" lon="7.3405950"><ele></ele><time>2016-5-22T10:45:15Z</time></trkpt>
<trkpt lat="46.1759567" lon="7.3406083"><ele></ele><time>2016-5-22T10:45:18Z</time></trkpt>
<trkpt lat="46.1759667" lon="7.3406283"><ele></ele><time>2016-5-22T10:45:21Z</time></trkpt>
<trkpt lat="46.1759733" lon="7.3406417"><ele></ele><time>2016-5-22T10:45:24Z</time></trkpt>
<trkpt lat="46.1759817" lon="7.3406550"><ele></ele><time>2016-5-22T10:45:27Z</time></trkpt>
<trkpt lat="46.1759867" lon="7.3406683"><ele></ele><time>2016-5-22T10:45:30Z</time></trkpt>
<trkpt lat="46.1759883" lon="7.3406850"><ele></ele><time>2016-5-22T10:45:33Z</time></trkpt>
<trkpt lat="46.1759883" lon="7.3407017"><ele></ele><time>2016-5-22T10:45:36Z</time></trkpt>
<trkpt lat="46.1759867" lon="7.3407200"><ele></ele><time>2016-5-22T10:45:39Z</time></trkpt>
<trkpt lat="46.1759850" lon="7.3407350"><ele></ele><time>2016-5-22T10:45:42Z</time></trkpt>
<trkpt lat="46.1759850" lon="7.3407517"><ele></ele><time>2016-5-22T10:45:45Z</time></trkpt>
<trkpt lat="46.1759850" lon="7.3407683"><ele></ele><time>2016-5-22T10:45:48Z</time></trkpt>
<trkpt lat="46.1759850" lon="7.3407833"><ele></ele><time>2016-5-22T10:45:51Z</time></trkpt>
<trkpt lat="46.1759850" lon="7.3407833"><ele></ele><time>2016-5-22T10:45:54Z</time></trkpt>
<trkpt lat="46.1759867" lon="7.3408000"><ele></ele><time>2016-5-22T10:45:57Z</time></trkpt>
<trkpt lat="46.1759900" lon="7.3408200"><ele></ele><time>2016-5-22T10:46:0Z</time></trkpt>
<trkpt lat="46.1759900" lon="7.3408400"><ele></ele><time>2016-5-22T10:46:3Z</time></trkpt>
<trkpt lat="46.1759933" lon="7.3408567"><ele></ele><time>2016-5-22T10:46:6Z</time></trkpt>
<trkpt lat="46.1759950" lon="7.3408700"><ele></ele><time>2016-5-22T10:46:9Z</time></trkpt>
<trkpt lat="46.1760000" lon="7.3408850"><ele></ele><time>2016-5-22T10:46:12Z</time></trkpt>
<trkpt lat="46.1760033" lon="7.3409033"><ele></ele><time>2016-5-22T10:46:15Z</time></trkpt>
<trkpt lat="46.1760033" lon="7.3409217"><ele></ele><time>2016-5-22T10:46:18Z</time></trkpt>
<trkpt lat="46.1760017" lon="7.3409400"><ele></ele><time>2016-5-22T10:46:21Z</time></trkpt>
<trkpt lat="46.1760017" lon="7.3409600"><ele></ele><time>2016-5-22T10:46:24Z</time></trkpt>
<trkpt lat="46.1760033" lon="7.3409783"><ele></ele><time>2016-5-22T10:46:27Z</time></trkpt>
<trkpt lat="46.1760033" lon="7.3410000"><ele></ele><time>2016-5-22T10:46:30Z</time></trkpt>
<trkpt lat="46.1760033" lon="7.3410000"><ele></ele><time>2016-5-22T10:46:33Z</time></trkpt>
<trkpt lat="46.1759983" lon="7.3410200"><ele></ele><time>2016-5-22T10:46:36Z</time></trkpt>
<trkpt lat="46.1759917" lon="7.3410383"><ele></ele><time>2016-5-22T10:46:39Z</time></trkpt>
<trkpt lat="46.1759833" lon="7.3410550"><ele></ele><time>2016-5-22T10:46:42Z</time></trkpt>
<trkpt lat="46.1759767" lon="7.3410717"><ele></ele><time>2016-5-22T10:46:45Z</time></trkpt>
<trkpt lat="46.1759733" lon="7.3410850"><ele></ele><time>2016-5-22T10:46:48Z</time></trkpt>
<trkpt lat="46.1759717" lon="7.3411000"><ele></ele><time>2016-5-22T10:46:51Z</time></trkpt>
<trkpt lat="46.1759683" lon="7.3411167"><ele></ele><time>2016-5-22T10:46:54Z</time></trkpt>
<trkpt lat="46.1759617" lon="7.3411317"><ele></ele><time>2016-5-22T10:46:57Z</time></trkpt>
<trkpt lat="46.1759533" lon="7.3411500"><ele></ele><time>2016-5-22T10:47:0Z</time></trkpt>
<trkpt lat="46.1759433" lon="7.3411700"><ele></ele><time>2016-5-22T10:47:3Z</time></trkpt>
<trkpt lat="46.1759367" lon="7.3411900"><ele></ele><time>2016-5-22T10:47:6Z</time></trkpt>
<trkpt lat="46.1759317" lon="7.3412133"><ele></ele><time>2016-5-22T10:47:9Z</time></trkpt>
<trkpt lat="46.1759317" lon="7.3412133"><ele></ele><time>2016-5-22T10:47:12Z</time></trkpt>
<trkpt lat="46.1759283" lon="7.3412317"><ele></ele><time>2016-5-22T10:47:15Z</time></trkpt>
<trkpt lat="46.1759233" lon="7.3412467"><ele></ele><time>2016-5-22T10:47:18Z</time></trkpt>
<trkpt lat="46.1759217" lon="7.3412633"><ele></ele><time>2016-5-22T10:47:21Z</time></trkpt>
<trkpt lat="46.1759217" lon="7.3412767"><ele></ele><time>2016-5-22T10:47:24Z</time></trkpt>
<trkpt lat="46.1759233" lon="7.3412950"><ele></ele><time>2016-5-22T10:47:27Z</time></trkpt>
<trkpt lat="46.1759217" lon="7.3413133"><ele></ele><time>2016-5-22T10:47:30Z</time></trkpt>
<trkpt lat="46.1759200" lon="7.3413283"><ele></ele><time>2016-5-22T10:47:33Z</time></trkpt>
<trkpt lat="46.1759183" lon="7.3413450"><ele></ele><time>2016-5-22T10:47:36Z</time></trkpt>
<trkpt lat="46.1759217" lon="7.3413650"><ele></ele><time>2016-5-22T10:47:39Z</time></trkpt>
<trkpt lat="46.1759250" lon="7.3413833"><ele></ele><time>2016-5-22T10:47:42Z</time></trkpt>
<trkpt lat="46.1759233" lon="7.3414017"><ele></ele><time>2016-5-22T10:47:45Z</time></trkpt>
<trkpt lat="46.1759233" lon="7.3414183"><ele></ele><time>2016-5-22T10:47:48Z</time></trkpt>
<trkpt lat="46.1759233" lon="7.3414183"><ele></ele><time>2016-5-22T10:47:51Z</time></trkpt>
<trkpt lat="46.1759250" lon="7.3414350"><ele></ele><time>2016-5-22T10:47:54Z</time></trkpt>
<trkpt lat="46.1759267" lon="7.3414567"><ele></ele><time>2016-5-22T10:47:57Z</time></trkpt>
<trkpt lat="46.1759283" lon="7.3414800"><ele></ele><time>2016-5-22T10:48:0Z</time></trkpt>
<trkpt lat="46.1759317" lon="7.3415033"><ele></ele><time>2016-5-22T10:48:3Z</time></trkpt>
<trkpt lat="46.1759283" lon="7.3415233"><ele></ele><time>2016-5-22T10:48:6Z</time></trkpt>
<trkpt lat="46.1759200" lon="7.3415400"><ele></ele><time>2016-5-22T10:48:9Z</time></trkpt>
<trkpt lat="46.1759133" lon="7.3415550"><ele></ele><time>2016-5-22T10:48:12Z</time></trkpt>
<trkpt lat="46.1759083" lon="7.3415717"><ele></ele><time>2016-5-22T10:48:15Z</time></trkpt>
<trkpt lat="46.1759050" lon="7.3415917"><ele></ele><time>2016-5-22T10:48:18Z</time></trkpt>
<trkpt lat="46.1759033" lon="7.3416117"><ele></ele><time>2016-5-22T10:48:21Z</time></trkpt>
<trkpt lat="46.1759000" lon="7.3416283"><ele></ele><time>2016-5-22T10:48:24Z</time></trkpt>
<trkpt lat="46.1758983" lon="7.3416467"><ele></ele><time>2016-5-22T10:48:27Z</time></trkpt>
<trkpt lat="46.1758983" lon="7.3416467"><ele></ele><time>2016-5-22T10:48:30Z</time></trkpt>
<trkpt lat="46.1759017" lon="7.3416683"><ele></ele><time>2016-5-22T10:48:33Z</time></trkpt>
<trkpt lat="46.1759033" lon="7.3416883"><ele></ele><time>2016-5-22T10:48:36Z</time></trkpt>
<trkpt lat="46.1759050" lon="7.3417100"><ele></ele><time>2016-5-22T10:48:39Z</time></trkpt>
<trkpt lat="46.1759067" lon="7.3417283"><ele></ele><time>2016-5-22T10:48:42Z</time></trkpt>
<trkpt lat="46.1759050" lon="7.3417467"><ele></ele><time>2016-5-22T10:48:45Z</time></trkpt>
<trkpt lat="46.1759000" lon="7.3417700"><ele></ele><time>2016-5-22T10:48:48Z</time></trkpt>
<trkpt lat="46.1758900" lon="7.3417933"><ele></ele><time>2016-5-22T10:48:51Z</time></trkpt>
<trkpt lat="46.1758800" lon="7.3418150"><ele></ele><time>2016-5-22T10:48:54Z</time></trkpt>
<trkpt lat="46.1758733" lon="7.3418367"><ele></ele><time>2016-5-22T10:48:57Z</time></trkpt>
<trkpt lat="46.1758667" lon="7.3418567"><ele></ele><time>2016-5-22T10:49:0Z</time></trkpt>
<trkpt lat="46.1758600" lon="7.3418750"><ele></ele><time>2016-5-22T10:49:3Z</time></trkpt>
<trkpt lat="46.1758517" lon="7.3418967"><ele></ele><time>2016-5-22T10:49:6Z</time></trkpt>
<trkpt lat="46.1758517" lon="7.3418967"><ele></ele><time>2016-5-22T10:49:9Z</time></trkpt>
<trkpt lat="46.1758433" lon="7.3419150"><ele></ele><time>2016-5-22T10:49:12Z</time></trkpt>
<trkpt lat="46.1758350" lon="7.3419317"><ele></ele><time>2016-5-22T10:49:15Z</time></trkpt>
<trkpt lat="46.1758250" lon="7.3419450"><ele></ele><time>2016-5-22T10:49:18Z</time></trkpt>
<trkpt lat="46.1758183" lon="7.3419583"><ele></ele><time>2016-5-22T10:49:21Z</time></trkpt>
<trkpt lat="46.1758150" lon="7.3419700"><ele></ele><time>2016-5-22T10:49:24Z</time></trkpt>
<trkpt lat="46.1758133" lon="7.3419767"><ele></ele><time>2016-5-22T10:49:27Z</time></trkpt>
<trkpt lat="46.1758150" lon="7.3419900"><ele></ele><time>2016-5-22T10:49:30Z</time></trkpt>
<trkpt lat="46.1758267" lon="7.3420183"><ele></ele><time>2016-5-22T10:49:33Z</time></trkpt>
<trkpt lat="46.1758433" lon="7.3420633"><ele></ele><time>2016-5-22T10:49:36Z</time></trkpt>
<trkpt lat="46.1758617" lon="7.3421333"><ele></ele><time>2016-5-22T10:49:39Z</time></trkpt>
<trkpt lat="46.1758883" lon="7.3422200"><ele></ele><time>2016-5-22T10:49:42Z</time></trkpt>
<trkpt lat="46.1759267" lon="7.3423133"><ele></ele><time>2016-5-22T10:49:45Z</time></trkpt>
<trkpt lat="46.1759267" lon="7.3423133"><ele></ele><time>2016-5-22T10:49:48Z</time></trkpt>
<trkpt lat="46.1759733" lon="7.3424050"><ele></ele><time>2016-5-22T10:49:51Z</time></trkpt>
<trkpt lat="46.1760383" lon="7.3424950"><ele></ele><time>2016-5-22T10:49:54Z</time></trkpt>
<trkpt lat="46.1760700" lon="7.3425867"><ele></ele><time>2016-5-22T10:49:57Z</time></trkpt>
<trkpt lat="46.1761317" lon="7.3427150"><ele></ele><time>2016-5-22T10:50:0Z</time></trkpt>
<trkpt lat="46.1761800" lon="7.3427700"><ele></ele><time>2016-5-22T10:50:3Z</time></trkpt>
<trkpt lat="46.1761883" lon="7.3428267"><ele></ele><time>2016-5-22T10:50:6Z</time></trkpt>
<trkpt lat="46.1761767" lon="7.3429100"><ele></ele><time>2016-5-22T10:50:9Z</time></trkpt>
<trkpt lat="46.1761700" lon="7.3429867"><ele></ele><time>2016-5-22T10:50:12Z</time></trkpt>
<trkpt lat="46.1761450" lon="7.3430767"><ele></ele><time>2016-5-22T10:50:15Z</time></trkpt>
<trkpt lat="46.1761167" lon="7.3431600"><ele></ele><time>2016-5-22T10:50:18Z</time></trkpt>
<trkpt lat="46.1761183" lon="7.3432433"><ele></ele><time>2016-5-22T10:50:21Z</time></trkpt>
<trkpt lat="46.1761267" lon="7.3433317"><ele></ele><time>2016-5-22T10:50:24Z</time></trkpt>
<trkpt lat="46.1761267" lon="7.3433317"><ele></ele><time>2016-5-22T10:50:27Z</time></trkpt>
<trkpt lat="46.1761700" lon="7.3434200"><ele></ele><time>2016-5-22T10:50:30Z</time></trkpt>
<trkpt lat="46.1762000" lon="7.3434950"><ele></ele><time>2016-5-22T10:50:33Z</time></trkpt>
<trkpt lat="46.1762350" lon="7.3435717"><ele></ele><time>2016-5-22T10:50:36Z</time></trkpt>
<trkpt lat="46.1762433" lon="7.3436550"><ele></ele><time>2016-5-22T10:50:39Z</time></trkpt>
<trkpt lat="46.1762283" lon="7.3437550"><ele></ele><time>2016-5-22T10:50:42Z</time></trkpt>
<trkpt lat="46.1762350" lon="7.3438500"><ele></ele><time>2016-5-22T10:50:45Z</time></trkpt>
<trkpt lat="46.1762617" lon="7.3439783"><ele></ele><time>2016-5-22T10:50:48Z</time></trkpt>
<trkpt lat="46.1762500" lon="7.3440917"><ele></ele><time>2016-5-22T10:50:51Z</time></trkpt>
<trkpt lat="46.1762617" lon="7.3441933"><ele></ele><time>2016-5-22T10:50:54Z</time></trkpt>
<trkpt lat="46.1762533" lon="7.3442933"><ele></ele><time>2016-5-22T10:50:57Z</time></trkpt>
<trkpt lat="46.1762317" lon="7.3443817"><ele></ele><time>2016-5-22T10:51:0Z</time></trkpt>
<trkpt lat="46.1762500" lon="7.3445100"><ele></ele><time>2016-5-22T10:51:3Z</time></trkpt>
<trkpt lat="46.1762500" lon="7.3445100"><ele></ele><time>2016-5-22T10:51:6Z</time></trkpt>
<trkpt lat="46.1762383" lon="7.3446167"><ele></ele><time>2016-5-22T10:51:9Z</time></trkpt>
<trkpt lat="46.1762333" lon="7.3447367"><ele></ele><time>2016-5-22T10:51:12Z</time></trkpt>
<trkpt lat="46.1762283" lon="7.3448667"><ele></ele><time>2016-5-22T10:51:15Z</time></trkpt>
<trkpt lat="46.1762283" lon="7.3450033"><ele></ele><time>2016-5-22T10:51:18Z</time></trkpt>
<trkpt lat="46.1762183" lon="7.3451600"><ele></ele><time>2016-5-22T10:51:21Z</time></trkpt>
<trkpt lat="46.1762450" lon="7.3453067"><ele></ele><time>2016-5-22T10:51:24Z</time></trkpt>
<trkpt lat="46.1762217" lon="7.3454433"><ele></ele><time>2016-5-22T10:51:27Z</time></trkpt>
<trkpt lat="46.1761983" lon="7.3455567"><ele></ele><time>2016-5-22T10:51:30Z</time></trkpt>
<trkpt lat="46.1762067" lon="7.3457233"><ele></ele><time>2016-5-22T10:51:33Z</time></trkpt>
<trkpt lat="46.1761883" lon="7.3458600"><ele></ele><time>2016-5-22T10:51:36Z</time></trkpt>
<trkpt lat="46.1761717" lon="7.3460100"><ele></ele><time>2016-5-22T10:51:39Z</time></trkpt>
<trkpt lat="46.1761650" lon="7.3461633"><ele></ele><time>2016-5-22T10:51:42Z</time></trkpt>
<trkpt lat="46.1761650" lon="7.3461633"><ele></ele><time>2016-5-22T10:51:45Z</time></trkpt>
<trkpt lat="46.1762433" lon="7.3463067"><ele></ele><time>2016-5-22T10:51:48Z</time></trkpt>
<trkpt lat="46.1762867" lon="7.3464150"><ele></ele><time>2016-5-22T10:51:51Z</time></trkpt>
<trkpt lat="46.1763450" lon="7.3465383"><ele></ele><time>2016-5-22T10:51:54Z</time></trkpt>
<trkpt lat="46.1763800" lon="7.3466583"><ele></ele><time>2016-5-22T10:51:57Z</time></trkpt>
<trkpt lat="46.1764150" lon="7.3467517"><ele></ele><time>2016-5-22T10:52:0Z</time></trkpt>
<trkpt lat="46.1764550" lon="7.3468583"><ele></ele><time>2016-5-22T10:52:3Z</time></trkpt>
<trkpt lat="46.1764600" lon="7.3469683"><ele></ele><time>2016-5-22T10:52:6Z</time></trkpt>
<trkpt lat="46.1764483" lon="7.3470817"><ele></ele><time>2016-5-22T10:52:9Z</time></trkpt>
<trkpt lat="46.1764217" lon="7.3472400"><ele></ele><time>2016-5-22T10:52:12Z</time></trkpt>
<trkpt lat="46.1764083" lon="7.3473817"><ele></ele><time>2016-5-22T10:52:15Z</time></trkpt>
<trkpt lat="46.1764100" lon="7.3475483"><ele></ele><time>2016-5-22T10:52:18Z</time></trkpt>
<trkpt lat="46.1763683" lon="7.3476950"><ele></ele><time>2016-5-22T10:52:21Z</time></trkpt>
<trkpt lat="46.1763683" lon="7.3476950"><ele></ele><time>2016-5-22T10:52:24Z</time></trkpt>
<trkpt lat="46.1763933" lon="7.3478450"><ele></ele><time>2016-5-22T10:52:27Z</time></trkpt>
<trkpt lat="46.1764200" lon="7.3479917"><ele></ele><time>2016-5-22T10:52:30Z</time></trkpt>
<trkpt lat="46.1764467" lon="7.3481450"><ele></ele><time>2016-5-22T10:52:33Z</time></trkpt>
<trkpt lat="46.1764800" lon="7.3482633"><ele></ele><time>2016-5-22T10:52:36Z</time></trkpt>
<trkpt lat="46.1764600" lon="7.3483617"><ele></ele><time>2016-5-22T10:52:39Z</time></trkpt>
<trkpt lat="46.1764417" lon="7.3484583"><ele></ele><time>2016-5-22T10:52:42Z</time></trkpt>
<trkpt lat="46.1764050" lon="7.3485433"><ele></ele><time>2016-5-22T10:52:45Z</time></trkpt>
<trkpt lat="46.1763633" lon="7.3486433"><ele></ele><time>2016-5-22T10:52:48Z</time></trkpt>
<trkpt lat="46.1763167" lon="7.3487550"><ele></ele><time>2016-5-22T10:52:51Z</time></trkpt>
<trkpt lat="46.1762733" lon="7.3488600"><ele></ele><time>2016-5-22T10:52:54Z</time></trkpt>
<trkpt lat="46.1762250" lon="7.3489750"><ele></ele><time>2016-5-22T10:52:57Z</time></trkpt>
<trkpt lat="46.1761567" lon="7.3490733"><ele></ele><time>2016-5-22T10:53:0Z</time></trkpt>
<trkpt lat="46.1761567" lon="7.3490733"><ele></ele><time>2016-5-22T10:53:3Z</time></trkpt>
<trkpt lat="46.1760900" lon="7.3491817"><ele></ele><time>2016-5-22T10:53:6Z</time></trkpt>
<trkpt lat="46.1760417" lon="7.3492883"><ele></ele><time>2016-5-22T10:53:9Z</time></trkpt>
<trkpt lat="46.1760067" lon="7.3493917"><ele></ele><time>2016-5-22T10:53:12Z</time></trkpt>
<trkpt lat="46.1759683" lon="7.3494950"><ele></ele><time>2016-5-22T10:53:15Z</time></trkpt>
<trkpt lat="46.1759817" lon="7.3495983"><ele></ele><time>2016-5-22T10:53:18Z</time></trkpt>
<trkpt lat="46.1759550" lon="7.3496450"><ele></ele><time>2016-5-22T10:53:21Z</time></trkpt>
<trkpt lat="46.1759667" lon="7.3497350"><ele></ele><time>2016-5-22T10:53:24Z</time></trkpt>
<trkpt lat="46.1759633" lon="7.3497767"><ele></ele><time>2016-5-22T10:53:27Z</time></trkpt>
<trkpt lat="46.1759850" lon="7.3498100"><ele></ele><time>2016-5-22T10:53:30Z</time></trkpt>
<trkpt lat="46.1760050" lon="7.3497750"><ele></ele><time>2016-5-22T10:53:33Z</time></trkpt>
<trkpt lat="46.1759967" lon="7.3497317"><ele></ele><time>2016-5-22T10:53:36Z</time></trkpt>
<trkpt lat="46.1759933" lon="7.3496850"><ele></ele><time>2016-5-22T10:53:39Z</time></trkpt>
<trkpt lat="46.1759933" lon="7.3496850"><ele></ele><time>2016-5-22T10:53:42Z</time></trkpt>
<trkpt lat="46.1760017" lon="7.3496733"><ele></ele><time>2016-5-22T10:53:45Z</time></trkpt>
<trkpt lat="46.1760017" lon="7.3496733"><ele></ele><time>2016-5-22T10:53:48Z</time></trkpt>
<trkpt lat="46.1760017" lon="7.3496733"><ele></ele><time>2016-5-22T10:53:51Z</time></trkpt>
<trkpt lat="46.1760083" lon="7.3496783"><ele></ele><time>2016-5-22T10:53:54Z</time></trkpt>
<trkpt lat="46.1760083" lon="7.3496783"><ele></ele><time>2016-5-22T10:53:57Z</time></trkpt>
<trkpt lat="46.1760083" lon="7.3496783"><ele></ele><time>2016-5-22T10:54:0Z</time></trkpt>
<trkpt lat="46.1760083" lon="7.3496783"><ele></ele><time>2016-5-22T10:54:3Z</time></trkpt>
<trkpt lat="46.1760083" lon="7.3496783"><ele></ele><time>2016-5-22T10:54:6Z</time></trkpt>
<trkpt lat="46.1760083" lon="7.3496783"><ele></ele><time>2016-5-22T10:54:9Z</time></trkpt>
<trkpt lat="46.1760083" lon="7.3496783"><ele></ele><time>2016-5-22T10:54:12Z</time></trkpt>
<trkpt lat="46.1760083" lon="7.3496783"><ele></ele><time>2016-5-22T10:54:15Z</time></trkpt>
<trkpt lat="46.1760083" lon="7.3496783"><ele></ele><time>2016-5-22T10:54:18Z</time></trkpt>
<trkpt lat="46.1760083" lon="7.3496783"><ele></ele><time>2016-5-22T10:54:21Z</time></trkpt>
<trkpt lat="46.1760083" lon="7.3496783"><ele></ele><time>2016-5-22T10:54:24Z</time></trkpt>
<trkpt lat="46.1760083" lon="7.3496783"><ele></ele><time>2016-5-22T10:54:27Z</time></trkpt>
<trkpt lat="46.1760083" lon="7.3496783"><ele></ele><time>2016-5-22T10:54:30Z</time></trkpt>
<trkpt lat="46.1760083" lon="7.3496783"><ele></ele><time>2016-5-22T10:54:33Z</time></trkpt>
<trkpt lat="46.1760083" lon="7.3496600"><ele></ele><time>2016-5-22T10:54:36Z</time></trkpt>
<trkpt lat="46.1760233" lon="7.3496500"><ele></ele><time>2016-5-22T10:54:39Z</time></trkpt>
<trkpt lat="46.1760450" lon="7.3496417"><ele></ele><time>2016-5-22T10:54:42Z</time></trkpt>
<trkpt lat="46.1760683" lon="7.3496367"><ele></ele><time>2016-5-22T10:54:45Z</time></trkpt>
<trkpt lat="46.1761000" lon="7.3496383"><ele></ele><time>2016-5-22T10:54:48Z</time></trkpt>
<trkpt lat="46.1761467" lon="7.3496400"><ele></ele><time>2016-5-22T10:54:51Z</time></trkpt>
<trkpt lat="46.1762017" lon="7.3496300"><ele></ele><time>2016-5-22T10:54:54Z</time></trkpt>
<trkpt lat="46.1762600" lon="7.3496000"><ele></ele><time>2016-5-22T10:54:57Z</time></trkpt>
<trkpt lat="46.1762600" lon="7.3496000"><ele></ele><time>2016-5-22T10:55:0Z</time></trkpt>
<trkpt lat="46.1763183" lon="7.3495650"><ele></ele><time>2016-5-22T10:55:3Z</time></trkpt>
<trkpt lat="46.1764050" lon="7.3495633"><ele></ele><time>2016-5-22T10:55:6Z</time></trkpt>
<trkpt lat="46.1764650" lon="7.3495400"><ele></ele><time>2016-5-22T10:55:9Z</time></trkpt>
<trkpt lat="46.1765150" lon="7.3494883"><ele></ele><time>2016-5-22T10:55:12Z</time></trkpt>
<trkpt lat="46.1765867" lon="7.3494600"><ele></ele><time>2016-5-22T10:55:15Z</time></trkpt>
<trkpt lat="46.1766633" lon="7.3494333"><ele></ele><time>2016-5-22T10:55:18Z</time></trkpt>
<trkpt lat="46.1767367" lon="7.3493917"><ele></ele><time>2016-5-22T10:55:21Z</time></trkpt>
<trkpt lat="46.1768133" lon="7.3493833"><ele></ele><time>2016-5-22T10:55:24Z</time></trkpt>
<trkpt lat="46.1768767" lon="7.3493600"><ele></ele><time>2016-5-22T10:55:27Z</time></trkpt>
<trkpt lat="46.1769483" lon="7.3493600"><ele></ele><time>2016-5-22T10:55:30Z</time></trkpt>
<trkpt lat="46.1770267" lon="7.3493783"><ele></ele><time>2016-5-22T10:55:33Z</time></trkpt>
<trkpt lat="46.1771067" lon="7.3494000"><ele></ele><time>2016-5-22T10:55:36Z</time></trkpt>
<trkpt lat="46.1771067" lon="7.3494000"><ele></ele><time>2016-5-22T10:55:39Z</time></trkpt>
<trkpt lat="46.1771900" lon="7.3494200"><ele></ele><time>2016-5-22T10:55:42Z</time></trkpt>
<trkpt lat="46.1772933" lon="7.3495167"><ele></ele><time>2016-5-22T10:55:45Z</time></trkpt>
<trkpt lat="46.1773550" lon="7.3495417"><ele></ele><time>2016-5-22T10:55:48Z</time></trkpt>
<trkpt lat="46.1773900" lon="7.3495017"><ele></ele><time>2016-5-22T10:55:51Z</time></trkpt>
<trkpt lat="46.1774533" lon="7.3494683"><ele></ele><time>2016-5-22T10:55:54Z</time></trkpt>
<trkpt lat="46.1774883" lon="7.3493967"><ele></ele><time>2016-5-22T10:55:57Z</time></trkpt>
<trkpt lat="46.1774817" lon="7.3492850"><ele></ele><time>2016-5-22T10:56:0Z</time></trkpt>
<trkpt lat="46.1775083" lon="7.3492183"><ele></ele><time>2016-5-22T10:56:3Z</time></trkpt>
<trkpt lat="46.1775367" lon="7.3491283"><ele></ele><time>2016-5-22T10:56:6Z</time></trkpt>
<trkpt lat="46.1775700" lon="7.3490600"><ele></ele><time>2016-5-22T10:56:9Z</time></trkpt>
<trkpt lat="46.1776133" lon="7.3490033"><ele></ele><time>2016-5-22T10:56:12Z</time></trkpt>
<trkpt lat="46.1776433" lon="7.3489283"><ele></ele><time>2016-5-22T10:56:15Z</time></trkpt>
<trkpt lat="46.1776433" lon="7.3489283"><ele></ele><time>2016-5-22T10:56:18Z</time></trkpt>
<trkpt lat="46.1776967" lon="7.3488933"><ele></ele><time>2016-5-22T10:56:21Z</time></trkpt>
<trkpt lat="46.1777550" lon="7.3488800"><ele></ele><time>2016-5-22T10:56:24Z</time></trkpt>
<trkpt lat="46.1777983" lon="7.3488500"><ele></ele><time>2016-5-22T10:56:27Z</time></trkpt>
<trkpt lat="46.1778483" lon="7.3488183"><ele></ele><time>2016-5-22T10:56:30Z</time></trkpt>
<trkpt lat="46.1778883" lon="7.3487733"><ele></ele><time>2016-5-22T10:56:33Z</time></trkpt>
<trkpt lat="46.1779333" lon="7.3487550"><ele></ele><time>2016-5-22T10:56:36Z</time></trkpt>
<trkpt lat="46.1779783" lon="7.3487917"><ele></ele><time>2016-5-22T10:56:39Z</time></trkpt>
<trkpt lat="46.1779967" lon="7.3487800"><ele></ele><time>2016-5-22T10:56:42Z</time></trkpt>
<trkpt lat="46.1780417" lon="7.3487950"><ele></ele><time>2016-5-22T10:56:45Z</time></trkpt>
<trkpt lat="46.1780917" lon="7.3487767"><ele></ele><time>2016-5-22T10:56:48Z</time></trkpt>
<trkpt lat="46.1781367" lon="7.3487600"><ele></ele><time>2016-5-22T10:56:51Z</time></trkpt>
<trkpt lat="46.1781817" lon="7.3487550"><ele></ele><time>2016-5-22T10:56:54Z</time></trkpt>
<trkpt lat="46.1781817" lon="7.3487550"><ele></ele><time>2016-5-22T10:56:57Z</time></trkpt>
<trkpt lat="46.1782333" lon="7.3487200"><ele></ele><time>2016-5-22T10:57:0Z</time></trkpt>
<trkpt lat="46.1782767" lon="7.3486883"><ele></ele><time>2016-5-22T10:57:3Z</time></trkpt>
<trkpt lat="46.1783250" lon="7.3486500"><ele></ele><time>2016-5-22T10:57:6Z</time></trkpt>
<trkpt lat="46.1783683" lon="7.3486267"><ele></ele><time>2016-5-22T10:57:9Z</time></trkpt>
<trkpt lat="46.1784083" lon="7.3486133"><ele></ele><time>2016-5-22T10:57:12Z</time></trkpt>
<trkpt lat="46.1784617" lon="7.3486200"><ele></ele><time>2016-5-22T10:57:15Z</time></trkpt>
<trkpt lat="46.1785150" lon="7.3486450"><ele></ele><time>2016-5-22T10:57:18Z</time></trkpt>
<trkpt lat="46.1785650" lon="7.3486650"><ele></ele><time>2016-5-22T10:57:21Z</time></trkpt>
<trkpt lat="46.1786133" lon="7.3487217"><ele></ele><time>2016-5-22T10:57:24Z</time></trkpt>
<trkpt lat="46.1786583" lon="7.3487667"><ele></ele><time>2016-5-22T10:57:27Z</time></trkpt>
<trkpt lat="46.1787050" lon="7.3488267"><ele></ele><time>2016-5-22T10:57:30Z</time></trkpt>
<trkpt lat="46.1787450" lon="7.3488883"><ele></ele><time>2016-5-22T10:57:33Z</time></trkpt>
<trkpt lat="46.1787450" lon="7.3488883"><ele></ele><time>2016-5-22T10:57:36Z</time></trkpt>
<trkpt lat="46.1787883" lon="7.3489483"><ele></ele><time>2016-5-22T10:57:39Z</time></trkpt>
<trkpt lat="46.1788383" lon="7.3489833"><ele></ele><time>2016-5-22T10:57:42Z</time></trkpt>
<trkpt lat="46.1788983" lon="7.3490300"><ele></ele><time>2016-5-22T10:57:45Z</time></trkpt>
<trkpt lat="46.1789600" lon="7.3490633"><ele></ele><time>2016-5-22T10:57:48Z</time></trkpt>
<trkpt lat="46.1790233" lon="7.3490900"><ele></ele><time>2016-5-22T10:57:51Z</time></trkpt>
<trkpt lat="46.1790767" lon="7.3490633"><ele></ele><time>2016-5-22T10:57:54Z</time></trkpt>
<trkpt lat="46.1791383" lon="7.3490500"><ele></ele><time>2016-5-22T10:57:57Z</time></trkpt>
<trkpt lat="46.1791967" lon="7.3490333"><ele></ele><time>2016-5-22T10:58:0Z</time></trkpt>
<trkpt lat="46.1792650" lon="7.3490067"><ele></ele><time>2016-5-22T10:58:3Z</time></trkpt>
<trkpt lat="46.1793300" lon="7.3490150"><ele></ele><time>2016-5-22T10:58:6Z</time></trkpt>
<trkpt lat="46.1793950" lon="7.3490117"><ele></ele><time>2016-5-22T10:58:9Z</time></trkpt>
<trkpt lat="46.1794650" lon="7.3490117"><ele></ele><time>2016-5-22T10:58:12Z</time></trkpt>
<trkpt lat="46.1795417" lon="7.3490100"><ele></ele><time>2016-5-22T10:58:15Z</time></trkpt>
<trkpt lat="46.1796167" lon="7.3489933"><ele></ele><time>2016-5-22T10:58:18Z</time></trkpt>
<trkpt lat="46.1796917" lon="7.3489733"><ele></ele><time>2016-5-22T10:58:21Z</time></trkpt>
<trkpt lat="46.1797583" lon="7.3489450"><ele></ele><time>2016-5-22T10:58:24Z</time></trkpt>
<trkpt lat="46.1798333" lon="7.3489017"><ele></ele><time>2016-5-22T10:58:27Z</time></trkpt>
<trkpt lat="46.1799033" lon="7.3488350"><ele></ele><time>2016-5-22T10:58:30Z</time></trkpt>
<trkpt lat="46.1799600" lon="7.3486600"><ele></ele><time>2016-5-22T10:58:33Z</time></trkpt>
<trkpt lat="46.1800150" lon="7.3485433"><ele></ele><time>2016-5-22T10:58:36Z</time></trkpt>
<trkpt lat="46.1800533" lon="7.3484017"><ele></ele><time>2016-5-22T10:58:39Z</time></trkpt>
<trkpt lat="46.1800950" lon="7.3483067"><ele></ele><time>2016-5-22T10:58:42Z</time></trkpt>
<trkpt lat="46.1801100" lon="7.3482017"><ele></ele><time>2016-5-22T10:58:45Z</time></trkpt>
<trkpt lat="46.1801483" lon="7.3481217"><ele></ele><time>2016-5-22T10:58:48Z</time></trkpt>
<trkpt lat="46.1801867" lon="7.3480317"><ele></ele><time>2016-5-22T10:58:51Z</time></trkpt>
<trkpt lat="46.1802517" lon="7.3479583"><ele></ele><time>2016-5-22T10:58:54Z</time></trkpt>
<trkpt lat="46.1803150" lon="7.3478700"><ele></ele><time>2016-5-22T10:58:57Z</time></trkpt>
<trkpt lat="46.1803767" lon="7.3477867"><ele></ele><time>2016-5-22T10:59:0Z</time></trkpt>
<trkpt lat="46.1804317" lon="7.3477050"><ele></ele><time>2016-5-22T10:59:3Z</time></trkpt>
<trkpt lat="46.1804717" lon="7.3476150"><ele></ele><time>2016-5-22T10:59:6Z</time></trkpt>
<trkpt lat="46.1805083" lon="7.3475217"><ele></ele><time>2016-5-22T10:59:9Z</time></trkpt>
<trkpt lat="46.1805433" lon="7.3474167"><ele></ele><time>2016-5-22T10:59:12Z</time></trkpt>
<trkpt lat="46.1805600" lon="7.3473117"><ele></ele><time>2016-5-22T10:59:15Z</time></trkpt>
<trkpt lat="46.1805917" lon="7.3472433"><ele></ele><time>2016-5-22T10:59:18Z</time></trkpt>
<trkpt lat="46.1806117" lon="7.3471883"><ele></ele><time>2016-5-22T10:59:21Z</time></trkpt>
<trkpt lat="46.1806533" lon="7.3471517"><ele></ele><time>2016-5-22T10:59:24Z</time></trkpt>
<trkpt lat="46.1807050" lon="7.3471233"><ele></ele><time>2016-5-22T10:59:27Z</time></trkpt>
<trkpt lat="46.1807550" lon="7.3471000"><ele></ele><time>2016-5-22T10:59:30Z</time></trkpt>
<trkpt lat="46.1808067" lon="7.3470683"><ele></ele><time>2016-5-22T10:59:33Z</time></trkpt>
<trkpt lat="46.1808567" lon="7.3470200"><ele></ele><time>2016-5-22T10:59:36Z</time></trkpt>
<trkpt lat="46.1809050" lon="7.3469767"><ele></ele><time>2016-5-22T10:59:39Z</time></trkpt>
<trkpt lat="46.1809450" lon="7.3469033"><ele></ele><time>2016-5-22T10:59:42Z</time></trkpt>
<trkpt lat="46.1809850" lon="7.3468433"><ele></ele><time>2016-5-22T10:59:45Z</time></trkpt>
<trkpt lat="46.1810267" lon="7.3467783"><ele></ele><time>2016-5-22T10:59:48Z</time></trkpt>
<trkpt lat="46.1810617" lon="7.3467133"><ele></ele><time>2016-5-22T10:59:51Z</time></trkpt>
<trkpt lat="46.1810883" lon="7.3466383"><ele></ele><time>2016-5-22T10:59:54Z</time></trkpt>
<trkpt lat="46.1811317" lon="7.3465717"><ele></ele><time>2016-5-22T10:59:57Z</time></trkpt>
<trkpt lat="46.1811700" lon="7.3465067"><ele></ele><time>2016-5-22T11:0:0Z</time></trkpt>
<trkpt lat="46.1812083" lon="7.3464717"><ele></ele><time>2016-5-22T11:0:3Z</time></trkpt>
<trkpt lat="46.1812433" lon="7.3464367"><ele></ele><time>2016-5-22T11:0:6Z</time></trkpt>
<trkpt lat="46.1812800" lon="7.3464000"><ele></ele><time>2016-5-22T11:0:9Z</time></trkpt>
<trkpt lat="46.1813317" lon="7.3463900"><ele></ele><time>2016-5-22T11:0:12Z</time></trkpt>
<trkpt lat="46.1813650" lon="7.3463783"><ele></ele><time>2016-5-22T11:0:15Z</time></trkpt>
<trkpt lat="46.1814050" lon="7.3463667"><ele></ele><time>2016-5-22T11:0:18Z</time></trkpt>
<trkpt lat="46.1814533" lon="7.3463533"><ele></ele><time>2016-5-22T11:0:21Z</time></trkpt>
<trkpt lat="46.1814950" lon="7.3463283"><ele></ele><time>2016-5-22T11:0:24Z</time></trkpt>
<trkpt lat="46.1815383" lon="7.3462917"><ele></ele><time>2016-5-22T11:0:27Z</time></trkpt>
<trkpt lat="46.1815850" lon="7.3462467"><ele></ele><time>2016-5-22T11:0:30Z</time></trkpt>
<trkpt lat="46.1816267" lon="7.3461883"><ele></ele><time>2016-5-22T11:0:33Z</time></trkpt>
<trkpt lat="46.1816767" lon="7.3461317"><ele></ele><time>2016-5-22T11:0:36Z</time></trkpt>
<trkpt lat="46.1817217" lon="7.3460617"><ele></ele><time>2016-5-22T11:0:39Z</time></trkpt>
<trkpt lat="46.1817650" lon="7.3460033"><ele></ele><time>2016-5-22T11:0:42Z</time></trkpt>
<trkpt lat="46.1818117" lon="7.3459450"><ele></ele><time>2016-5-22T11:0:45Z</time></trkpt>
<trkpt lat="46.1818650" lon="7.3458800"><ele></ele><time>2016-5-22T11:0:48Z</time></trkpt>
<trkpt lat="46.1819250" lon="7.3458267"><ele></ele><time>2016-5-22T11:0:51Z</time></trkpt>
<trkpt lat="46.1819800" lon="7.3457600"><ele></ele><time>2016-5-22T11:0:54Z</time></trkpt>
<trkpt lat="46.1820300" lon="7.3456833"><ele></ele><time>2016-5-22T11:0:57Z</time></trkpt>
<trkpt lat="46.1820700" lon="7.3455900"><ele></ele><time>2016-5-22T11:1:0Z</time></trkpt>
<trkpt lat="46.1821083" lon="7.3455183"><ele></ele><time>2016-5-22T11:1:3Z</time></trkpt>
<trkpt lat="46.1821450" lon="7.3454400"><ele></ele><time>2016-5-22T11:1:6Z</time></trkpt>
<trkpt lat="46.1821867" lon="7.3453517"><ele></ele><time>2016-5-22T11:1:9Z</time></trkpt>
<trkpt lat="46.1822167" lon="7.3452700"><ele></ele><time>2016-5-22T11:1:12Z</time></trkpt>
<trkpt lat="46.1822483" lon="7.3452100"><ele></ele><time>2016-5-22T11:1:15Z</time></trkpt>
<trkpt lat="46.1822950" lon="7.3451367"><ele></ele><time>2016-5-22T11:1:18Z</time></trkpt>
<trkpt lat="46.1823417" lon="7.3450550"><ele></ele><time>2016-5-22T11:1:21Z</time></trkpt>
<trkpt lat="46.1824067" lon="7.3449850"><ele></ele><time>2016-5-22T11:1:24Z</time></trkpt>
<trkpt lat="46.1824617" lon="7.3449150"><ele></ele><time>2016-5-22T11:1:27Z</time></trkpt>
<trkpt lat="46.1825100" lon="7.3448383"><ele></ele><time>2016-5-22T11:1:30Z</time></trkpt>
<trkpt lat="46.1825600" lon="7.3447600"><ele></ele><time>2016-5-22T11:1:33Z</time></trkpt>
<trkpt lat="46.1826300" lon="7.3446783"><ele></ele><time>2016-5-22T11:1:36Z</time></trkpt>
<trkpt lat="46.1826817" lon="7.3445950"><ele></ele><time>2016-5-22T11:1:39Z</time></trkpt>
<trkpt lat="46.1827333" lon="7.3445100"><ele></ele><time>2016-5-22T11:1:42Z</time></trkpt>
<trkpt lat="46.1827500" lon="7.3443867"><ele></ele><time>2016-5-22T11:1:45Z</time></trkpt>
<trkpt lat="46.1827800" lon="7.3442683"><ele></ele><time>2016-5-22T11:1:48Z</time></trkpt>
<trkpt lat="46.1828117" lon="7.3441567"><ele></ele><time>2016-5-22T11:1:51Z</time></trkpt>
<trkpt lat="46.1828350" lon="7.3440950"><ele></ele><time>2016-5-22T11:1:54Z</time></trkpt>
<trkpt lat="46.1828567" lon="7.3440550"><ele></ele><time>2016-5-22T11:1:57Z</time></trkpt>
<trkpt lat="46.1828517" lon="7.3439917"><ele></ele><time>2016-5-22T11:2:0Z</time></trkpt>
<trkpt lat="46.1828667" lon="7.3439450"><ele></ele><time>2016-5-22T11:2:3Z</time></trkpt>
<trkpt lat="46.1828750" lon="7.3438700"><ele></ele><time>2016-5-22T11:2:6Z</time></trkpt>
<trkpt lat="46.1828967" lon="7.3438017"><ele></ele><time>2016-5-22T11:2:9Z</time></trkpt>
<trkpt lat="46.1829150" lon="7.3437300"><ele></ele><time>2016-5-22T11:2:12Z</time></trkpt>
<trkpt lat="46.1829267" lon="7.3436583"><ele></ele><time>2016-5-22T11:2:15Z</time></trkpt>
<trkpt lat="46.1829600" lon="7.3435950"><ele></ele><time>2016-5-22T11:2:18Z</time></trkpt>
<trkpt lat="46.1830033" lon="7.3435033"><ele></ele><time>2016-5-22T11:2:21Z</time></trkpt>
<trkpt lat="46.1830600" lon="7.3434300"><ele></ele><time>2016-5-22T11:2:24Z</time></trkpt>
<trkpt lat="46.1830950" lon="7.3433417"><ele></ele><time>2016-5-22T11:2:27Z</time></trkpt>
<trkpt lat="46.1831533" lon="7.3432883"><ele></ele><time>2016-5-22T11:2:30Z</time></trkpt>
<trkpt lat="46.1832050" lon="7.3432217"><ele></ele><time>2016-5-22T11:2:33Z</time></trkpt>
<trkpt lat="46.1832633" lon="7.3431567"><ele></ele><time>2016-5-22T11:2:36Z</time></trkpt>
<trkpt lat="46.1833333" lon="7.3430933"><ele></ele><time>2016-5-22T11:2:39Z</time></trkpt>
<trkpt lat="46.1834083" lon="7.3430383"><ele></ele><time>2016-5-22T11:2:42Z</time></trkpt>
<trkpt lat="46.1834917" lon="7.3429783"><ele></ele><time>2016-5-22T11:2:45Z</time></trkpt>
<trkpt lat="46.1835733" lon="7.3428983"><ele></ele><time>2016-5-22T11:2:48Z</time></trkpt>
<trkpt lat="46.1836467" lon="7.3428000"><ele></ele><time>2016-5-22T11:2:51Z</time></trkpt>
<trkpt lat="46.1837117" lon="7.3426867"><ele></ele><time>2016-5-22T11:2:54Z</time></trkpt>
<trkpt lat="46.1837617" lon="7.3425517"><ele></ele><time>2016-5-22T11:2:57Z</time></trkpt>
<trkpt lat="46.1838217" lon="7.3424417"><ele></ele><time>2016-5-22T11:3:0Z</time></trkpt>
<trkpt lat="46.1838700" lon="7.3423400"><ele></ele><time>2016-5-22T11:3:3Z</time></trkpt>
<trkpt lat="46.1839100" lon="7.3422500"><ele></ele><time>2016-5-22T11:3:6Z</time></trkpt>
<trkpt lat="46.1839550" lon="7.3421717"><ele></ele><time>2016-5-22T11:3:9Z</time></trkpt>
<trkpt lat="46.1839867" lon="7.3420900"><ele></ele><time>2016-5-22T11:3:12Z</time></trkpt>
<trkpt lat="46.1840200" lon="7.3420133"><ele></ele><time>2016-5-22T11:3:15Z</time></trkpt>
<trkpt lat="46.1840617" lon="7.3419500"><ele></ele><time>2016-5-22T11:3:18Z</time></trkpt>
<trkpt lat="46.1841067" lon="7.3418883"><ele></ele><time>2016-5-22T11:3:21Z</time></trkpt>
<trkpt lat="46.1841517" lon="7.3418267"><ele></ele><time>2016-5-22T11:3:24Z</time></trkpt>
<trkpt lat="46.1841767" lon="7.3417533"><ele></ele><time>2016-5-22T11:3:27Z</time></trkpt>
<trkpt lat="46.1842067" lon="7.3416867"><ele></ele><time>2016-5-22T11:3:30Z</time></trkpt>
<trkpt lat="46.1842550" lon="7.3416283"><ele></ele><time>2016-5-22T11:3:33Z</time></trkpt>
<trkpt lat="46.1842900" lon="7.3415650"><ele></ele><time>2016-5-22T11:3:36Z</time></trkpt>
<trkpt lat="46.1843267" lon="7.3414867"><ele></ele><time>2016-5-22T11:3:39Z</time></trkpt>
<trkpt lat="46.1843617" lon="7.3414267"><ele></ele><time>2016-5-22T11:3:42Z</time></trkpt>
<trkpt lat="46.1843933" lon="7.3413717"><ele></ele><time>2016-5-22T11:3:45Z</time></trkpt>
<trkpt lat="46.1844267" lon="7.3413167"><ele></ele><time>2016-5-22T11:3:48Z</time></trkpt>
<trkpt lat="46.1844550" lon="7.3412600"><ele></ele><time>2016-5-22T11:3:51Z</time></trkpt>
<trkpt lat="46.1844850" lon="7.3412183"><ele></ele><time>2016-5-22T11:3:54Z</time></trkpt>
<trkpt lat="46.1845233" lon="7.3411817"><ele></ele><time>2016-5-22T11:3:57Z</time></trkpt>
<trkpt lat="46.1845650" lon="7.3411417"><ele></ele><time>2016-5-22T11:4:0Z</time></trkpt>
<trkpt lat="46.1845933" lon="7.3411100"><ele></ele><time>2016-5-22T11:4:3Z</time></trkpt>
<trkpt lat="46.1846300" lon="7.3410850"><ele></ele><time>2016-5-22T11:4:6Z</time></trkpt>
<trkpt lat="46.1846600" lon="7.3410550"><ele></ele><time>2016-5-22T11:4:9Z</time></trkpt>
<trkpt lat="46.1846850" lon="7.3410433"><ele></ele><time>2016-5-22T11:4:12Z</time></trkpt>
<trkpt lat="46.1847083" lon="7.3410217"><ele></ele><time>2016-5-22T11:4:15Z</time></trkpt>
<trkpt lat="46.1847317" lon="7.3409900"><ele></ele><time>2016-5-22T11:4:18Z</time></trkpt>
<trkpt lat="46.1847617" lon="7.3409783"><ele></ele><time>2016-5-22T11:4:21Z</time></trkpt>
<trkpt lat="46.1847917" lon="7.3409533"><ele></ele><time>2016-5-22T11:4:24Z</time></trkpt>
<trkpt lat="46.1848050" lon="7.3409450"><ele></ele><time>2016-5-22T11:4:27Z</time></trkpt>
<trkpt lat="46.1848267" lon="7.3409183"><ele></ele><time>2016-5-22T11:4:30Z</time></trkpt>
<trkpt lat="46.1848467" lon="7.3408967"><ele></ele><time>2016-5-22T11:4:33Z</time></trkpt>
<trkpt lat="46.1848633" lon="7.3408800"><ele></ele><time>2016-5-22T11:4:36Z</time></trkpt>
<trkpt lat="46.1848817" lon="7.3408667"><ele></ele><time>2016-5-22T11:4:39Z</time></trkpt>
<trkpt lat="46.1849017" lon="7.3408550"><ele></ele><time>2016-5-22T11:4:42Z</time></trkpt>
<trkpt lat="46.1849167" lon="7.3408467"><ele></ele><time>2016-5-22T11:4:45Z</time></trkpt>
<trkpt lat="46.1849283" lon="7.3408383"><ele></ele><time>2016-5-22T11:4:48Z</time></trkpt>
<trkpt lat="46.1849417" lon="7.3408250"><ele></ele><time>2016-5-22T11:4:51Z</time></trkpt>
<trkpt lat="46.1849600" lon="7.3408017"><ele></ele><time>2016-5-22T11:4:54Z</time></trkpt>
<trkpt lat="46.1849733" lon="7.3407800"><ele></ele><time>2016-5-22T11:4:57Z</time></trkpt>
<trkpt lat="46.1849833" lon="7.3407650"><ele></ele><time>2016-5-22T11:5:0Z</time></trkpt>
<trkpt lat="46.1849933" lon="7.3407500"><ele></ele><time>2016-5-22T11:5:3Z</time></trkpt>
<trkpt lat="46.1850017" lon="7.3407367"><ele></ele><time>2016-5-22T11:5:6Z</time></trkpt>
<trkpt lat="46.1850167" lon="7.3407233"><ele></ele><time>2016-5-22T11:5:9Z</time></trkpt>
<trkpt lat="46.1850383" lon="7.3407017"><ele></ele><time>2016-5-22T11:5:12Z</time></trkpt>
<trkpt lat="46.1850550" lon="7.3406833"><ele></ele><time>2016-5-22T11:5:15Z</time></trkpt>
<trkpt lat="46.1850633" lon="7.3406717"><ele></ele><time>2016-5-22T11:5:18Z</time></trkpt>
<trkpt lat="46.1850717" lon="7.3406633"><ele></ele><time>2016-5-22T11:5:21Z</time></trkpt>
<trkpt lat="46.1850800" lon="7.3406600"><ele></ele><time>2016-5-22T11:5:24Z</time></trkpt>
<trkpt lat="46.1850867" lon="7.3406600"><ele></ele><time>2016-5-22T11:5:27Z</time></trkpt>
<trkpt lat="46.1850900" lon="7.3406633"><ele></ele><time>2016-5-22T11:5:30Z</time></trkpt>
<trkpt lat="46.1850933" lon="7.3406650"><ele></ele><time>2016-5-22T11:5:33Z</time></trkpt>
<trkpt lat="46.1850933" lon="7.3406650"><ele></ele><time>2016-5-22T11:5:36Z</time></trkpt>
<trkpt lat="46.1850900" lon="7.3406633"><ele></ele><time>2016-5-22T11:5:39Z</time></trkpt>
<trkpt lat="46.1850917" lon="7.3406617"><ele></ele><time>2016-5-22T11:5:42Z</time></trkpt>
<trkpt lat="46.1850967" lon="7.3406567"><ele></ele><time>2016-5-22T11:5:45Z</time></trkpt>
<trkpt lat="46.1851050" lon="7.3406533"><ele></ele><time>2016-5-22T11:5:48Z</time></trkpt>
<trkpt lat="46.1851133" lon="7.3406500"><ele></ele><time>2016-5-22T11:5:51Z</time></trkpt>
<trkpt lat="46.1851183" lon="7.3406483"><ele></ele><time>2016-5-22T11:5:54Z</time></trkpt>
<trkpt lat="46.1851267" lon="7.3406433"><ele></ele><time>2016-5-22T11:5:57Z</time></trkpt>
<trkpt lat="46.1851383" lon="7.3406367"><ele></ele><time>2016-5-22T11:6:0Z</time></trkpt>
<trkpt lat="46.1851550" lon="7.3406267"><ele></ele><time>2016-5-22T11:6:3Z</time></trkpt>
<trkpt lat="46.1851700" lon="7.3406167"><ele></ele><time>2016-5-22T11:6:6Z</time></trkpt>
<trkpt lat="46.1851850" lon="7.3406067"><ele></ele><time>2016-5-22T11:6:9Z</time></trkpt>
<trkpt lat="46.1852117" lon="7.3405900"><ele></ele><time>2016-5-22T11:6:12Z</time></trkpt>
<trkpt lat="46.1852467" lon="7.3405683"><ele></ele><time>2016-5-22T11:6:15Z</time></trkpt>
<trkpt lat="46.1852850" lon="7.3405567"><ele></ele><time>2016-5-22T11:6:18Z</time></trkpt>
<trkpt lat="46.1853300" lon="7.3405333"><ele></ele><time>2016-5-22T11:6:21Z</time></trkpt>
<trkpt lat="46.1853717" lon="7.3405133"><ele></ele><time>2016-5-22T11:6:24Z</time></trkpt>
<trkpt lat="46.1854183" lon="7.3404917"><ele></ele><time>2016-5-22T11:6:27Z</time></trkpt>
<trkpt lat="46.1854667" lon="7.3404833"><ele></ele><time>2016-5-22T11:6:30Z</time></trkpt>
<trkpt lat="46.1855150" lon="7.3404700"><ele></ele><time>2016-5-22T11:6:33Z</time></trkpt>
<trkpt lat="46.1855700" lon="7.3404400"><ele></ele><time>2016-5-22T11:6:36Z</time></trkpt>
<trkpt lat="46.1856317" lon="7.3404100"><ele></ele><time>2016-5-22T11:6:39Z</time></trkpt>
<trkpt lat="46.1856900" lon="7.3403717"><ele></ele><time>2016-5-22T11:6:42Z</time></trkpt>
<trkpt lat="46.1857400" lon="7.3402817"><ele></ele><time>2016-5-22T11:6:45Z</time></trkpt>
<trkpt lat="46.1857983" lon="7.3402267"><ele></ele><time>2016-5-22T11:6:48Z</time></trkpt>
<trkpt lat="46.1858350" lon="7.3401633"><ele></ele><time>2016-5-22T11:6:51Z</time></trkpt>
<trkpt lat="46.1858650" lon="7.3400950"><ele></ele><time>2016-5-22T11:6:54Z</time></trkpt>
<trkpt lat="46.1858917" lon="7.3400400"><ele></ele><time>2016-5-22T11:6:57Z</time></trkpt>
<trkpt lat="46.1859167" lon="7.3399817"><ele></ele><time>2016-5-22T11:7:0Z</time></trkpt>
<trkpt lat="46.1859383" lon="7.3399267"><ele></ele><time>2016-5-22T11:7:3Z</time></trkpt>
<trkpt lat="46.1859833" lon="7.3398850"><ele></ele><time>2016-5-22T11:7:6Z</time></trkpt>
<trkpt lat="46.1860167" lon="7.3398467"><ele></ele><time>2016-5-22T11:7:9Z</time></trkpt>
<trkpt lat="46.1860600" lon="7.3398100"><ele></ele><time>2016-5-22T11:7:12Z</time></trkpt>
<trkpt lat="46.1861017" lon="7.3397800"><ele></ele><time>2016-5-22T11:7:15Z</time></trkpt>
<trkpt lat="46.1861400" lon="7.3397550"><ele></ele><time>2016-5-22T11:7:18Z</time></trkpt>
<trkpt lat="46.1861900" lon="7.3397350"><ele></ele><time>2016-5-22T11:7:21Z</time></trkpt>
<trkpt lat="46.1862300" lon="7.3397033"><ele></ele><time>2016-5-22T11:7:24Z</time></trkpt>
<trkpt lat="46.1862633" lon="7.3396717"><ele></ele><time>2016-5-22T11:7:27Z</time></trkpt>
<trkpt lat="46.1863083" lon="7.3396533"><ele></ele><time>2016-5-22T11:7:30Z</time></trkpt>
<trkpt lat="46.1863400" lon="7.3396283"><ele></ele><time>2016-5-22T11:7:33Z</time></trkpt>
<trkpt lat="46.1863717" lon="7.3396183"><ele></ele><time>2016-5-22T11:7:36Z</time></trkpt>
<trkpt lat="46.1864083" lon="7.3396000"><ele></ele><time>2016-5-22T11:7:39Z</time></trkpt>
<trkpt lat="46.1864500" lon="7.3395850"><ele></ele><time>2016-5-22T11:7:42Z</time></trkpt>
<trkpt lat="46.1864817" lon="7.3395633"><ele></ele><time>2016-5-22T11:7:45Z</time></trkpt>
<trkpt lat="46.1865067" lon="7.3395517"><ele></ele><time>2016-5-22T11:7:48Z</time></trkpt>
<trkpt lat="46.1865367" lon="7.3395483"><ele></ele><time>2016-5-22T11:7:51Z</time></trkpt>
<trkpt lat="46.1865633" lon="7.3395583"><ele></ele><time>2016-5-22T11:7:54Z</time></trkpt>
<trkpt lat="46.1865900" lon="7.3395783"><ele></ele><time>2016-5-22T11:7:57Z</time></trkpt>
<trkpt lat="46.1866083" lon="7.3395917"><ele></ele><time>2016-5-22T11:8:0Z</time></trkpt>
<trkpt lat="46.1866267" lon="7.3395967"><ele></ele><time>2016-5-22T11:8:3Z</time></trkpt>
<trkpt lat="46.1866517" lon="7.3395967"><ele></ele><time>2016-5-22T11:8:6Z</time></trkpt>
<trkpt lat="46.1866733" lon="7.3395983"><ele></ele><time>2016-5-22T11:8:9Z</time></trkpt>
<trkpt lat="46.1866850" lon="7.3396000"><ele></ele><time>2016-5-22T11:8:12Z</time></trkpt>
<trkpt lat="46.1866933" lon="7.3395950"><ele></ele><time>2016-5-22T11:8:15Z</time></trkpt>
<trkpt lat="46.1867117" lon="7.3395950"><ele></ele><time>2016-5-22T11:8:18Z</time></trkpt>
<trkpt lat="46.1867467" lon="7.3395883"><ele></ele><time>2016-5-22T11:8:21Z</time></trkpt>
<trkpt lat="46.1867917" lon="7.3395817"><ele></ele><time>2016-5-22T11:8:24Z</time></trkpt>
<trkpt lat="46.1868683" lon="7.3395700"><ele></ele><time>2016-5-22T11:8:27Z</time></trkpt>
<trkpt lat="46.1869250" lon="7.3395600"><ele></ele><time>2016-5-22T11:8:30Z</time></trkpt>
<trkpt lat="46.1869817" lon="7.3395350"><ele></ele><time>2016-5-22T11:8:33Z</time></trkpt>
<trkpt lat="46.1870467" lon="7.3395167"><ele></ele><time>2016-5-22T11:8:36Z</time></trkpt>
<trkpt lat="46.1871033" lon="7.3395117"><ele></ele><time>2016-5-22T11:8:39Z</time></trkpt>
<trkpt lat="46.1871383" lon="7.3394767"><ele></ele><time>2016-5-22T11:8:42Z</time></trkpt>
<trkpt lat="46.1871817" lon="7.3394700"><ele></ele><time>2016-5-22T11:8:45Z</time></trkpt>
<trkpt lat="46.1872200" lon="7.3394650"><ele></ele><time>2016-5-22T11:8:48Z</time></trkpt>
<trkpt lat="46.1872483" lon="7.3394550"><ele></ele><time>2016-5-22T11:8:51Z</time></trkpt>
<trkpt lat="46.1872800" lon="7.3393967"><ele></ele><time>2016-5-22T11:8:54Z</time></trkpt>
<trkpt lat="46.1873117" lon="7.3393600"><ele></ele><time>2016-5-22T11:8:57Z</time></trkpt>
<trkpt lat="46.1873517" lon="7.3393283"><ele></ele><time>2016-5-22T11:9:0Z</time></trkpt>
<trkpt lat="46.1873983" lon="7.3393133"><ele></ele><time>2016-5-22T11:9:3Z</time></trkpt>
<trkpt lat="46.1874750" lon="7.3393183"><ele></ele><time>2016-5-22T11:9:6Z</time></trkpt>
<trkpt lat="46.1875550" lon="7.3393000"><ele></ele><time>2016-5-22T11:9:9Z</time></trkpt>
<trkpt lat="46.1876383" lon="7.3392833"><ele></ele><time>2016-5-22T11:9:12Z</time></trkpt>
<trkpt lat="46.1877167" lon="7.3392233"><ele></ele><time>2016-5-22T11:9:15Z</time></trkpt>
<trkpt lat="46.1877917" lon="7.3391383"><ele></ele><time>2016-5-22T11:9:18Z</time></trkpt>
<trkpt lat="46.1878850" lon="7.3390667"><ele></ele><time>2016-5-22T11:9:21Z</time></trkpt>
<trkpt lat="46.1879783" lon="7.3389883"><ele></ele><time>2016-5-22T11:9:24Z</time></trkpt>
<trkpt lat="46.1880667" lon="7.3388800"><ele></ele><time>2016-5-22T11:9:27Z</time></trkpt>
<trkpt lat="46.1881533" lon="7.3387733"><ele></ele><time>2016-5-22T11:9:30Z</time></trkpt>
<trkpt lat="46.1882433" lon="7.3387000"><ele></ele><time>2016-5-22T11:9:33Z</time></trkpt>
<trkpt lat="46.1883333" lon="7.3386417"><ele></ele><time>2016-5-22T11:9:36Z</time></trkpt>
<trkpt lat="46.1884183" lon="7.3385933"><ele></ele><time>2016-5-22T11:9:39Z</time></trkpt>
<trkpt lat="46.1885083" lon="7.3385950"><ele></ele><time>2016-5-22T11:9:42Z</time></trkpt>
<trkpt lat="46.1886033" lon="7.3385883"><ele></ele><time>2016-5-22T11:9:45Z</time></trkpt>
<trkpt lat="46.1887067" lon="7.3386067"><ele></ele><time>2016-5-22T11:9:48Z</time></trkpt>
<trkpt lat="46.1888083" lon="7.3386033"><ele></ele><time>2016-5-22T11:9:51Z</time></trkpt>
<trkpt lat="46.1888950" lon="7.3385800"><ele></ele><time>2016-5-22T11:9:54Z</time></trkpt>
<trkpt lat="46.1889783" lon="7.3385517"><ele></ele><time>2016-5-22T11:9:57Z</time></trkpt>
<trkpt lat="46.1890517" lon="7.3384983"><ele></ele><time>2016-5-22T11:10:0Z</time></trkpt>
<trkpt lat="46.1891150" lon="7.3384633"><ele></ele><time>2016-5-22T11:10:3Z</time></trkpt>
<trkpt lat="46.1891683" lon="7.3384050"><ele></ele><time>2016-5-22T11:10:6Z</time></trkpt>
<trkpt lat="46.1892267" lon="7.3383733"><ele></ele><time>2016-5-22T11:10:9Z</time></trkpt>
<trkpt lat="46.1892817" lon="7.3383433"><ele></ele><time>2016-5-22T11:10:12Z</time></trkpt>
<trkpt lat="46.1893317" lon="7.3383183"><ele></ele><time>2016-5-22T11:10:15Z</time></trkpt>
<trkpt lat="46.1893917" lon="7.3383000"><ele></ele><time>2016-5-22T11:10:18Z</time></trkpt>
<trkpt lat="46.1894383" lon="7.3382850"><ele></ele><time>2016-5-22T11:10:21Z</time></trkpt>
<trkpt lat="46.1895017" lon="7.3382867"><ele></ele><time>2016-5-22T11:10:24Z</time></trkpt>
<trkpt lat="46.1895700" lon="7.3382917"><ele></ele><time>2016-5-22T11:10:27Z</time></trkpt>
<trkpt lat="46.1896317" lon="7.3382900"><ele></ele><time>2016-5-22T11:10:30Z</time></trkpt>
<trkpt lat="46.1896933" lon="7.3382917"><ele></ele><time>2016-5-22T11:10:33Z</time></trkpt>
<trkpt lat="46.1897500" lon="7.3383067"><ele></ele><time>2016-5-22T11:10:36Z</time></trkpt>
<trkpt lat="46.1898083" lon="7.3383233"><ele></ele><time>2016-5-22T11:10:39Z</time></trkpt>
<trkpt lat="46.1898783" lon="7.3384200"><ele></ele><time>2016-5-22T11:10:42Z</time></trkpt>
<trkpt lat="46.1899333" lon="7.3384317"><ele></ele><time>2016-5-22T11:10:45Z</time></trkpt>
<trkpt lat="46.1899883" lon="7.3384583"><ele></ele><time>2016-5-22T11:10:48Z</time></trkpt>
<trkpt lat="46.1900400" lon="7.3385167"><ele></ele><time>2016-5-22T11:10:51Z</time></trkpt>
<trkpt lat="46.1900900" lon="7.3385167"><ele></ele><time>2016-5-22T11:10:54Z</time></trkpt>
<trkpt lat="46.1901217" lon="7.3385167"><ele></ele><time>2016-5-22T11:10:57Z</time></trkpt>
<trkpt lat="46.1901483" lon="7.3385200"><ele></ele><time>2016-5-22T11:11:0Z</time></trkpt>
<trkpt lat="46.1901700" lon="7.3385050"><ele></ele><time>2016-5-22T11:11:3Z</time></trkpt>
<trkpt lat="46.1901783" lon="7.3385050"><ele></ele><time>2016-5-22T11:11:6Z</time></trkpt>
<trkpt lat="46.1901800" lon="7.3384983"><ele></ele><time>2016-5-22T11:11:9Z</time></trkpt>
<trkpt lat="46.1901850" lon="7.3385033"><ele></ele><time>2016-5-22T11:11:12Z</time></trkpt>
<trkpt lat="46.1901850" lon="7.3385033"><ele></ele><time>2016-5-22T11:11:15Z</time></trkpt>
<trkpt lat="46.1901850" lon="7.3385033"><ele></ele><time>2016-5-22T11:11:18Z</time></trkpt>
<trkpt lat="46.1901850" lon="7.3385033"><ele></ele><time>2016-5-22T11:11:21Z</time></trkpt>
<trkpt lat="46.1901850" lon="7.3385033"><ele></ele><time>2016-5-22T11:11:24Z</time></trkpt>
<trkpt lat="46.1901850" lon="7.3385033"><ele></ele><time>2016-5-22T11:11:27Z</time></trkpt>
<trkpt lat="46.1901850" lon="7.3385033"><ele></ele><time>2016-5-22T11:11:30Z</time></trkpt>
<trkpt lat="46.1901850" lon="7.3385033"><ele></ele><time>2016-5-22T11:11:33Z</time></trkpt>
<trkpt lat="46.1901850" lon="7.3385033"><ele></ele><time>2016-5-22T11:11:36Z</time></trkpt>
<trkpt lat="46.1901850" lon="7.3385033"><ele></ele><time>2016-5-22T11:11:39Z</time></trkpt>
<trkpt lat="46.1901850" lon="7.3385033"><ele></ele><time>2016-5-22T11:11:42Z</time></trkpt>
<trkpt lat="46.1901850" lon="7.3385033"><ele></ele><time>2016-5-22T11:11:45Z</time></trkpt>
<trkpt lat="46.1901850" lon="7.3385033"><ele></ele><time>2016-5-22T11:11:48Z</time></trkpt>
<trkpt lat="46.1901850" lon="7.3385033"><ele></ele><time>2016-5-22T11:11:51Z</time></trkpt>
<trkpt lat="46.1901850" lon="7.3385033"><ele></ele><time>2016-5-22T11:11:54Z</time></trkpt>
<trkpt lat="46.1901817" lon="7.3385300"><ele></ele><time>2016-5-22T11:11:57Z</time></trkpt>
<trkpt lat="46.1901867" lon="7.3385317"><ele></ele><time>2016-5-22T11:12:0Z</time></trkpt>
<trkpt lat="46.1901867" lon="7.3385317"><ele></ele><time>2016-5-22T11:12:3Z</time></trkpt>
<trkpt lat="46.1901900" lon="7.3385383"><ele></ele><time>2016-5-22T11:12:6Z</time></trkpt>
<trkpt lat="46.1901967" lon="7.3385500"><ele></ele><time>2016-5-22T11:12:9Z</time></trkpt>
<trkpt lat="46.1902050" lon="7.3385583"><ele></ele><time>2016-5-22T11:12:12Z</time></trkpt>
<trkpt lat="46.1902167" lon="7.3385633"><ele></ele><time>2016-5-22T11:12:15Z</time></trkpt>
<trkpt lat="46.1902333" lon="7.3385633"><ele></ele><time>2016-5-22T11:12:18Z</time></trkpt>
<trkpt lat="46.1902517" lon="7.3385650"><ele></ele><time>2016-5-22T11:12:21Z</time></trkpt>
<trkpt lat="46.1902767" lon="7.3385667"><ele></ele><time>2016-5-22T11:12:24Z</time></trkpt>
<trkpt lat="46.1903067" lon="7.3385717"><ele></ele><time>2016-5-22T11:12:27Z</time></trkpt>
<trkpt lat="46.1903400" lon="7.3385767"><ele></ele><time>2016-5-22T11:12:30Z</time></trkpt>
<trkpt lat="46.1903750" lon="7.3385800"><ele></ele><time>2016-5-22T11:12:33Z</time></trkpt>
<trkpt lat="46.1904117" lon="7.3385850"><ele></ele><time>2016-5-22T11:12:36Z</time></trkpt>
<trkpt lat="46.1904550" lon="7.3385883"><ele></ele><time>2016-5-22T11:12:39Z</time></trkpt>
<trkpt lat="46.1905017" lon="7.3385850"><ele></ele><time>2016-5-22T11:12:42Z</time></trkpt>
<trkpt lat="46.1905483" lon="7.3385800"><ele></ele><time>2016-5-22T11:12:45Z</time></trkpt>
<trkpt lat="46.1906100" lon="7.3385700"><ele></ele><time>2016-5-22T11:12:48Z</time></trkpt>
<trkpt lat="46.1906617" lon="7.3385700"><ele></ele><time>2016-5-22T11:12:51Z</time></trkpt>
<trkpt lat="46.1907133" lon="7.3385567"><ele></ele><time>2016-5-22T11:12:54Z</time></trkpt>
<trkpt lat="46.1907700" lon="7.3385400"><ele></ele><time>2016-5-22T11:12:57Z</time></trkpt>
<trkpt lat="46.1908183" lon="7.3385183"><ele></ele><time>2016-5-22T11:13:0Z</time></trkpt>
<trkpt lat="46.1908683" lon="7.3385033"><ele></ele><time>2016-5-22T11:13:3Z</time></trkpt>
<trkpt lat="46.1909217" lon="7.3384933"><ele></ele><time>2016-5-22T11:13:6Z</time></trkpt>
<trkpt lat="46.1909750" lon="7.3384817"><ele></ele><time>2016-5-22T11:13:9Z</time></trkpt>
<trkpt lat="46.1910267" lon="7.3384767"><ele></ele><time>2016-5-22T11:13:12Z</time></trkpt>
<trkpt lat="46.1910800" lon="7.3384783"><ele></ele><time>2016-5-22T11:13:15Z</time></trkpt>
<trkpt lat="46.1911167" lon="7.3384867"><ele></ele><time>2016-5-22T11:13:18Z</time></trkpt>
<trkpt lat="46.1911650" lon="7.3385217"><ele></ele><time>2016-5-22T11:13:21Z</time></trkpt>
<trkpt lat="46.1912033" lon="7.3385383"><ele></ele><time>2016-5-22T11:13:24Z</time></trkpt>
<trkpt lat="46.1912333" lon="7.3385700"><ele></ele><time>2016-5-22T11:13:27Z</time></trkpt>
<trkpt lat="46.1912500" lon="7.3385750"><ele></ele><time>2016-5-22T11:13:30Z</time></trkpt>
<trkpt lat="46.1912667" lon="7.3385833"><ele></ele><time>2016-5-22T11:13:33Z</time></trkpt>
<trkpt lat="46.1912883" lon="7.3386000"><ele></ele><time>2016-5-22T11:13:36Z</time></trkpt>
<trkpt lat="46.1913033" lon="7.3386067"><ele></ele><time>2016-5-22T11:13:39Z</time></trkpt>
<trkpt lat="46.1913333" lon="7.3386117"><ele></ele><time>2016-5-22T11:13:42Z</time></trkpt>
<trkpt lat="46.1913617" lon="7.3386217"><ele></ele><time>2016-5-22T11:13:45Z</time></trkpt>
<trkpt lat="46.1914000" lon="7.3386300"><ele></ele><time>2016-5-22T11:13:48Z</time></trkpt>
<trkpt lat="46.1914333" lon="7.3386367"><ele></ele><time>2016-5-22T11:13:51Z</time></trkpt>
<trkpt lat="46.1914683" lon="7.3386467"><ele></ele><time>2016-5-22T11:13:54Z</time></trkpt>
<trkpt lat="46.1915200" lon="7.3386517"><ele></ele><time>2016-5-22T11:13:57Z</time></trkpt>
<trkpt lat="46.1915700" lon="7.3386633"><ele></ele><time>2016-5-22T11:14:0Z</time></trkpt>
<trkpt lat="46.1916133" lon="7.3386817"><ele></ele><time>2016-5-22T11:14:3Z</time></trkpt>
<trkpt lat="46.1916683" lon="7.3386917"><ele></ele><time>2016-5-22T11:14:6Z</time></trkpt>
<trkpt lat="46.1917317" lon="7.3386917"><ele></ele><time>2016-5-22T11:14:9Z</time></trkpt>
<trkpt lat="46.1917800" lon="7.3387000"><ele></ele><time>2016-5-22T11:14:12Z</time></trkpt>
<trkpt lat="46.1918267" lon="7.3387083"><ele></ele><time>2016-5-22T11:14:15Z</time></trkpt>
<trkpt lat="46.1918800" lon="7.3387150"><ele></ele><time>2016-5-22T11:14:18Z</time></trkpt>
<trkpt lat="46.1919217" lon="7.3387250"><ele></ele><time>2016-5-22T11:14:21Z</time></trkpt>
<trkpt lat="46.1919700" lon="7.3387417"><ele></ele><time>2016-5-22T11:14:24Z</time></trkpt>
<trkpt lat="46.1920133" lon="7.3387567"><ele></ele><time>2016-5-22T11:14:27Z</time></trkpt>
<trkpt lat="46.1920617" lon="7.3387567"><ele></ele><time>2016-5-22T11:14:30Z</time></trkpt>
<trkpt lat="46.1921067" lon="7.3387783"><ele></ele><time>2016-5-22T11:14:33Z</time></trkpt>
<trkpt lat="46.1921500" lon="7.3387950"><ele></ele><time>2016-5-22T11:14:36Z</time></trkpt>
<trkpt lat="46.1922050" lon="7.3388183"><ele></ele><time>2016-5-22T11:14:39Z</time></trkpt>
<trkpt lat="46.1922383" lon="7.3388417"><ele></ele><time>2016-5-22T11:14:42Z</time></trkpt>
<trkpt lat="46.1922650" lon="7.3388633"><ele></ele><time>2016-5-22T11:14:45Z</time></trkpt>
<trkpt lat="46.1923000" lon="7.3388733"><ele></ele><time>2016-5-22T11:14:48Z</time></trkpt>
<trkpt lat="46.1923483" lon="7.3388750"><ele></ele><time>2016-5-22T11:14:51Z</time></trkpt>
<trkpt lat="46.1923933" lon="7.3388817"><ele></ele><time>2016-5-22T11:14:54Z</time></trkpt>
<trkpt lat="46.1924283" lon="7.3388933"><ele></ele><time>2016-5-22T11:14:57Z</time></trkpt>
<trkpt lat="46.1924800" lon="7.3388883"><ele></ele><time>2016-5-22T11:15:0Z</time></trkpt>
<trkpt lat="46.1925250" lon="7.3389067"><ele></ele><time>2016-5-22T11:15:3Z</time></trkpt>
<trkpt lat="46.1925833" lon="7.3389300"><ele></ele><time>2016-5-22T11:15:6Z</time></trkpt>
<trkpt lat="46.1926267" lon="7.3389367"><ele></ele><time>2016-5-22T11:15:9Z</time></trkpt>
<trkpt lat="46.1926683" lon="7.3389550"><ele></ele><time>2016-5-22T11:15:12Z</time></trkpt>
<trkpt lat="46.1927067" lon="7.3389717"><ele></ele><time>2016-5-22T11:15:15Z</time></trkpt>
<trkpt lat="46.1927467" lon="7.3389833"><ele></ele><time>2016-5-22T11:15:18Z</time></trkpt>
<trkpt lat="46.1927850" lon="7.3390117"><ele></ele><time>2016-5-22T11:15:21Z</time></trkpt>
<trkpt lat="46.1928233" lon="7.3390417"><ele></ele><time>2016-5-22T11:15:24Z</time></trkpt>
<trkpt lat="46.1928633" lon="7.3390400"><ele></ele><time>2016-5-22T11:15:27Z</time></trkpt>
<trkpt lat="46.1928867" lon="7.3390483"><ele></ele><time>2016-5-22T11:15:30Z</time></trkpt>
<trkpt lat="46.1929183" lon="7.3390483"><ele></ele><time>2016-5-22T11:15:33Z</time></trkpt>
<trkpt lat="46.1929483" lon="7.3390483"><ele></ele><time>2016-5-22T11:15:36Z</time></trkpt>
<trkpt lat="46.1929850" lon="7.3390400"><ele></ele><time>2016-5-22T11:15:39Z</time></trkpt>
<trkpt lat="46.1930250" lon="7.3390433"><ele></ele><time>2016-5-22T11:15:42Z</time></trkpt>
<trkpt lat="46.1930783" lon="7.3390383"><ele></ele><time>2016-5-22T11:15:45Z</time></trkpt>
<trkpt lat="46.1931267" lon="7.3390417"><ele></ele><time>2016-5-22T11:15:48Z</time></trkpt>
<trkpt lat="46.1931767" lon="7.3390450"><ele></ele><time>2016-5-22T11:15:51Z</time></trkpt>
<trkpt lat="46.1932267" lon="7.3390683"><ele></ele><time>2016-5-22T11:15:54Z</time></trkpt>
<trkpt lat="46.1932733" lon="7.3390933"><ele></ele><time>2016-5-22T11:15:57Z</time></trkpt>
<trkpt lat="46.1933200" lon="7.3391417"><ele></ele><time>2016-5-22T11:16:0Z</time></trkpt>
<trkpt lat="46.1933667" lon="7.3391950"><ele></ele><time>2016-5-22T11:16:3Z</time></trkpt>
<trkpt lat="46.1934300" lon="7.3392333"><ele></ele><time>2016-5-22T11:16:6Z</time></trkpt>
<trkpt lat="46.1934517" lon="7.3392617"><ele></ele><time>2016-5-22T11:16:9Z</time></trkpt>
<trkpt lat="46.1934917" lon="7.3392817"><ele></ele><time>2016-5-22T11:16:12Z</time></trkpt>
<trkpt lat="46.1935350" lon="7.3393033"><ele></ele><time>2016-5-22T11:16:15Z</time></trkpt>
<trkpt lat="46.1935750" lon="7.3393317"><ele></ele><time>2016-5-22T11:16:18Z</time></trkpt>
<trkpt lat="46.1936083" lon="7.3393733"><ele></ele><time>2016-5-22T11:16:21Z</time></trkpt>
<trkpt lat="46.1936383" lon="7.3394300"><ele></ele><time>2016-5-22T11:16:24Z</time></trkpt>
<trkpt lat="46.1936500" lon="7.3394883"><ele></ele><time>2016-5-22T11:16:27Z</time></trkpt>
<trkpt lat="46.1936483" lon="7.3395633"><ele></ele><time>2016-5-22T11:16:30Z</time></trkpt>
<trkpt lat="46.1936517" lon="7.3396333"><ele></ele><time>2016-5-22T11:16:33Z</time></trkpt>
<trkpt lat="46.1936633" lon="7.3397000"><ele></ele><time>2016-5-22T11:16:36Z</time></trkpt>
<trkpt lat="46.1936983" lon="7.3397700"><ele></ele><time>2016-5-22T11:16:39Z</time></trkpt>
<trkpt lat="46.1937433" lon="7.3398400"><ele></ele><time>2016-5-22T11:16:42Z</time></trkpt>
<trkpt lat="46.1937867" lon="7.3398933"><ele></ele><time>2016-5-22T11:16:45Z</time></trkpt>
<trkpt lat="46.1938300" lon="7.3399400"><ele></ele><time>2016-5-22T11:16:48Z</time></trkpt>
<trkpt lat="46.1938650" lon="7.3399633"><ele></ele><time>2016-5-22T11:16:51Z</time></trkpt>
<trkpt lat="46.1939100" lon="7.3400167"><ele></ele><time>2016-5-22T11:16:54Z</time></trkpt>
<trkpt lat="46.1939667" lon="7.3400617"><ele></ele><time>2016-5-22T11:16:57Z</time></trkpt>
<trkpt lat="46.1940067" lon="7.3400917"><ele></ele><time>2016-5-22T11:17:0Z</time></trkpt>
<trkpt lat="46.1940433" lon="7.3401317"><ele></ele><time>2016-5-22T11:17:3Z</time></trkpt>
<trkpt lat="46.1940800" lon="7.3401783"><ele></ele><time>2016-5-22T11:17:6Z</time></trkpt>
<trkpt lat="46.1941150" lon="7.3402133"><ele></ele><time>2016-5-22T11:17:9Z</time></trkpt>
<trkpt lat="46.1941400" lon="7.3402600"><ele></ele><time>2016-5-22T11:17:12Z</time></trkpt>
<trkpt lat="46.1941817" lon="7.3403133"><ele></ele><time>2016-5-22T11:17:15Z</time></trkpt>
<trkpt lat="46.1942300" lon="7.3403583"><ele></ele><time>2016-5-22T11:17:18Z</time></trkpt>
<trkpt lat="46.1942717" lon="7.3404033"><ele></ele><time>2016-5-22T11:17:21Z</time></trkpt>
<trkpt lat="46.1943117" lon="7.3404800"><ele></ele><time>2016-5-22T11:17:24Z</time></trkpt>
<trkpt lat="46.1943300" lon="7.3405250"><ele></ele><time>2016-5-22T11:17:27Z</time></trkpt>
<trkpt lat="46.1943500" lon="7.3405517"><ele></ele><time>2016-5-22T11:17:30Z</time></trkpt>
<trkpt lat="46.1943967" lon="7.3405950"><ele></ele><time>2016-5-22T11:17:33Z</time></trkpt>
<trkpt lat="46.1944350" lon="7.3406800"><ele></ele><time>2016-5-22T11:17:36Z</time></trkpt>
<trkpt lat="46.1944467" lon="7.3407450"><ele></ele><time>2016-5-22T11:17:39Z</time></trkpt>
<trkpt lat="46.1945083" lon="7.3408133"><ele></ele><time>2016-5-22T11:17:42Z</time></trkpt>
<trkpt lat="46.1945250" lon="7.3408433"><ele></ele><time>2016-5-22T11:17:45Z</time></trkpt>
<trkpt lat="46.1945917" lon="7.3409200"><ele></ele><time>2016-5-22T11:17:48Z</time></trkpt>
<trkpt lat="46.1946067" lon="7.3409483"><ele></ele><time>2016-5-22T11:17:51Z</time></trkpt>
<trkpt lat="46.1946433" lon="7.3409983"><ele></ele><time>2016-5-22T11:17:54Z</time></trkpt>
<trkpt lat="46.1946867" lon="7.3410583"><ele></ele><time>2016-5-22T11:17:57Z</time></trkpt>
<trkpt lat="46.1947417" lon="7.3411400"><ele></ele><time>2016-5-22T11:18:0Z</time></trkpt>
<trkpt lat="46.1947517" lon="7.3412283"><ele></ele><time>2016-5-22T11:18:3Z</time></trkpt>
<trkpt lat="46.1947517" lon="7.3412283"><ele></ele><time>2016-5-22T11:18:6Z</time></trkpt>
<trkpt lat="46.1947800" lon="7.3412850"><ele></ele><time>2016-5-22T11:18:9Z</time></trkpt>
<trkpt lat="46.1948167" lon="7.3413833"><ele></ele><time>2016-5-22T11:18:12Z</time></trkpt>
<trkpt lat="46.1948300" lon="7.3414433"><ele></ele><time>2016-5-22T11:18:15Z</time></trkpt>
<trkpt lat="46.1948650" lon="7.3415383"><ele></ele><time>2016-5-22T11:18:18Z</time></trkpt>
<trkpt lat="46.1948850" lon="7.3415950"><ele></ele><time>2016-5-22T11:18:21Z</time></trkpt>
<trkpt lat="46.1948983" lon="7.3416433"><ele></ele><time>2016-5-22T11:18:24Z</time></trkpt>
<trkpt lat="46.1949383" lon="7.3416967"><ele></ele><time>2016-5-22T11:18:27Z</time></trkpt>
<trkpt lat="46.1949583" lon="7.3417450"><ele></ele><time>2016-5-22T11:18:30Z</time></trkpt>
<trkpt lat="46.1949717" lon="7.3418050"><ele></ele><time>2016-5-22T11:18:33Z</time></trkpt>
<trkpt lat="46.1949800" lon="7.3418700"><ele></ele><time>2016-5-22T11:18:36Z</time></trkpt>
<trkpt lat="46.1950033" lon="7.3419350"><ele></ele><time>2016-5-22T11:18:39Z</time></trkpt>
<trkpt lat="46.1950550" lon="7.3419883"><ele></ele><time>2016-5-22T11:18:42Z</time></trkpt>
<trkpt lat="46.1950550" lon="7.3419883"><ele></ele><time>2016-5-22T11:18:45Z</time></trkpt>
<trkpt lat="46.1950800" lon="7.3420267"><ele></ele><time>2016-5-22T11:18:48Z</time></trkpt>
<trkpt lat="46.1951217" lon="7.3420667"><ele></ele><time>2016-5-22T11:18:51Z</time></trkpt>
<trkpt lat="46.1951717" lon="7.3421150"><ele></ele><time>2016-5-22T11:18:54Z</time></trkpt>
<trkpt lat="46.1951900" lon="7.3421833"><ele></ele><time>2016-5-22T11:18:57Z</time></trkpt>
<trkpt lat="46.1952017" lon="7.3422300"><ele></ele><time>2016-5-22T11:19:0Z</time></trkpt>
<trkpt lat="46.1952233" lon="7.3423017"><ele></ele><time>2016-5-22T11:19:3Z</time></trkpt>
<trkpt lat="46.1952450" lon="7.3423567"><ele></ele><time>2016-5-22T11:19:6Z</time></trkpt>
<trkpt lat="46.1952767" lon="7.3424100"><ele></ele><time>2016-5-22T11:19:9Z</time></trkpt>
<trkpt lat="46.1953083" lon="7.3424650"><ele></ele><time>2016-5-22T11:19:12Z</time></trkpt>
<trkpt lat="46.1953233" lon="7.3425233"><ele></ele><time>2016-5-22T11:19:15Z</time></trkpt>
<trkpt lat="46.1953533" lon="7.3425833"><ele></ele><time>2016-5-22T11:19:18Z</time></trkpt>
<trkpt lat="46.1953733" lon="7.3426433"><ele></ele><time>2016-5-22T11:19:21Z</time></trkpt>
<trkpt lat="46.1953733" lon="7.3426433"><ele></ele><time>2016-5-22T11:19:24Z</time></trkpt>
<trkpt lat="46.1953867" lon="7.3427000"><ele></ele><time>2016-5-22T11:19:27Z</time></trkpt>
<trkpt lat="46.1953733" lon="7.3427400"><ele></ele><time>2016-5-22T11:19:30Z</time></trkpt>
<trkpt lat="46.1953833" lon="7.3427900"><ele></ele><time>2016-5-22T11:19:33Z</time></trkpt>
<trkpt lat="46.1953833" lon="7.3428267"><ele></ele><time>2016-5-22T11:19:36Z</time></trkpt>
<trkpt lat="46.1954067" lon="7.3428800"><ele></ele><time>2016-5-22T11:19:39Z</time></trkpt>
<trkpt lat="46.1954200" lon="7.3429283"><ele></ele><time>2016-5-22T11:19:42Z</time></trkpt>
<trkpt lat="46.1954200" lon="7.3429717"><ele></ele><time>2016-5-22T11:19:45Z</time></trkpt>
<trkpt lat="46.1954100" lon="7.3430167"><ele></ele><time>2016-5-22T11:19:48Z</time></trkpt>
<trkpt lat="46.1954033" lon="7.3430600"><ele></ele><time>2016-5-22T11:19:51Z</time></trkpt>
<trkpt lat="46.1954050" lon="7.3430917"><ele></ele><time>2016-5-22T11:19:54Z</time></trkpt>
<trkpt lat="46.1954067" lon="7.3431250"><ele></ele><time>2016-5-22T11:19:57Z</time></trkpt>
<trkpt lat="46.1954150" lon="7.3431567"><ele></ele><time>2016-5-22T11:20:0Z</time></trkpt>
<trkpt lat="46.1954150" lon="7.3431567"><ele></ele><time>2016-5-22T11:20:3Z</time></trkpt>
<trkpt lat="46.1954250" lon="7.3431817"><ele></ele><time>2016-5-22T11:20:6Z</time></trkpt>
<trkpt lat="46.1954400" lon="7.3431967"><ele></ele><time>2016-5-22T11:20:9Z</time></trkpt>
<trkpt lat="46.1954633" lon="7.3432067"><ele></ele><time>2016-5-22T11:20:12Z</time></trkpt>
<trkpt lat="46.1954950" lon="7.3432100"><ele></ele><time>2016-5-22T11:20:15Z</time></trkpt>
<trkpt lat="46.1955250" lon="7.3432017"><ele></ele><time>2016-5-22T11:20:18Z</time></trkpt>
<trkpt lat="46.1955500" lon="7.3431800"><ele></ele><time>2016-5-22T11:20:21Z</time></trkpt>
<trkpt lat="46.1955667" lon="7.3431517"><ele></ele><time>2016-5-22T11:20:24Z</time></trkpt>
<trkpt lat="46.1955817" lon="7.3431200"><ele></ele><time>2016-5-22T11:20:27Z</time></trkpt>
<trkpt lat="46.1955917" lon="7.3430933"><ele></ele><time>2016-5-22T11:20:30Z</time></trkpt>
<trkpt lat="46.1955983" lon="7.3430700"><ele></ele><time>2016-5-22T11:20:33Z</time></trkpt>
<trkpt lat="46.1956017" lon="7.3430517"><ele></ele><time>2016-5-22T11:20:36Z</time></trkpt>
<trkpt lat="46.1956033" lon="7.3430417"><ele></ele><time>2016-5-22T11:20:39Z</time></trkpt>
<trkpt lat="46.1956033" lon="7.3430417"><ele></ele><time>2016-5-22T11:20:42Z</time></trkpt>
<trkpt lat="46.1956050" lon="7.3430333"><ele></ele><time>2016-5-22T11:20:45Z</time></trkpt>
<trkpt lat="46.1956050" lon="7.3430333"><ele></ele><time>2016-5-22T11:20:48Z</time></trkpt>
<trkpt lat="46.1956000" lon="7.3430250"><ele></ele><time>2016-5-22T11:20:51Z</time></trkpt>
<trkpt lat="46.1956033" lon="7.3430300"><ele></ele><time>2016-5-22T11:20:54Z</time></trkpt>
<trkpt lat="46.1956017" lon="7.3430450"><ele></ele><time>2016-5-22T11:20:57Z</time></trkpt>
<trkpt lat="46.1955933" lon="7.3430683"><ele></ele><time>2016-5-22T11:21:0Z</time></trkpt>
<trkpt lat="46.1955817" lon="7.3430967"><ele></ele><time>2016-5-22T11:21:3Z</time></trkpt>
<trkpt lat="46.1955633" lon="7.3431250"><ele></ele><time>2016-5-22T11:21:6Z</time></trkpt>
<trkpt lat="46.1955450" lon="7.3431533"><ele></ele><time>2016-5-22T11:21:9Z</time></trkpt>
<trkpt lat="46.1955267" lon="7.3431817"><ele></ele><time>2016-5-22T11:21:12Z</time></trkpt>
<trkpt lat="46.1955067" lon="7.3432117"><ele></ele><time>2016-5-22T11:21:15Z</time></trkpt>
<trkpt lat="46.1954883" lon="7.3432317"><ele></ele><time>2016-5-22T11:21:18Z</time></trkpt>
<trkpt lat="46.1954883" lon="7.3432317"><ele></ele><time>2016-5-22T11:21:21Z</time></trkpt>
<trkpt lat="46.1954667" lon="7.3432383"><ele></ele><time>2016-5-22T11:21:24Z</time></trkpt>
<trkpt lat="46.1954417" lon="7.3432283"><ele></ele><time>2016-5-22T11:21:27Z</time></trkpt>
<trkpt lat="46.1954183" lon="7.3432083"><ele></ele><time>2016-5-22T11:21:30Z</time></trkpt>
<trkpt lat="46.1953983" lon="7.3431850"><ele></ele><time>2016-5-22T11:21:33Z</time></trkpt>
<trkpt lat="46.1953850" lon="7.3431550"><ele></ele><time>2016-5-22T11:21:36Z</time></trkpt>
<trkpt lat="46.1953750" lon="7.3431283"><ele></ele><time>2016-5-22T11:21:39Z</time></trkpt>
<trkpt lat="46.1953667" lon="7.3430933"><ele></ele><time>2016-5-22T11:21:42Z</time></trkpt>
<trkpt lat="46.1953683" lon="7.3430533"><ele></ele><time>2016-5-22T11:21:45Z</time></trkpt>
<trkpt lat="46.1953867" lon="7.3430183"><ele></ele><time>2016-5-22T11:21:48Z</time></trkpt>
<trkpt lat="46.1954100" lon="7.3429900"><ele></ele><time>2016-5-22T11:21:51Z</time></trkpt>
<trkpt lat="46.1954283" lon="7.3429583"><ele></ele><time>2016-5-22T11:21:54Z</time></trkpt>
<trkpt lat="46.1954283" lon="7.3429217"><ele></ele><time>2016-5-22T11:21:57Z</time></trkpt>
<trkpt lat="46.1954283" lon="7.3429217"><ele></ele><time>2016-5-22T11:22:0Z</time></trkpt>
<trkpt lat="46.1954083" lon="7.3428900"><ele></ele><time>2016-5-22T11:22:3Z</time></trkpt>
<trkpt lat="46.1953850" lon="7.3428650"><ele></ele><time>2016-5-22T11:22:6Z</time></trkpt>
<trkpt lat="46.1953700" lon="7.3428467"><ele></ele><time>2016-5-22T11:22:9Z</time></trkpt>
<trkpt lat="46.1953617" lon="7.3428267"><ele></ele><time>2016-5-22T11:22:12Z</time></trkpt>
<trkpt lat="46.1953600" lon="7.3428083"><ele></ele><time>2016-5-22T11:22:15Z</time></trkpt>
<trkpt lat="46.1953583" lon="7.3427900"><ele></ele><time>2016-5-22T11:22:18Z</time></trkpt>
<trkpt lat="46.1953583" lon="7.3427700"><ele></ele><time>2016-5-22T11:22:21Z</time></trkpt>
<trkpt lat="46.1953583" lon="7.3427483"><ele></ele><time>2016-5-22T11:22:24Z</time></trkpt>
<trkpt lat="46.1953567" lon="7.3427250"><ele></ele><time>2016-5-22T11:22:27Z</time></trkpt>
<trkpt lat="46.1953583" lon="7.3427017"><ele></ele><time>2016-5-22T11:22:30Z</time></trkpt>
<trkpt lat="46.1953633" lon="7.3426750"><ele></ele><time>2016-5-22T11:22:33Z</time></trkpt>
<trkpt lat="46.1953650" lon="7.3426483"><ele></ele><time>2016-5-22T11:22:36Z</time></trkpt>
<trkpt lat="46.1953650" lon="7.3426483"><ele></ele><time>2016-5-22T11:22:39Z</time></trkpt>
<trkpt lat="46.1953633" lon="7.3426167"><ele></ele><time>2016-5-22T11:22:42Z</time></trkpt>
<trkpt lat="46.1953600" lon="7.3425817"><ele></ele><time>2016-5-22T11:22:45Z</time></trkpt>
<trkpt lat="46.1953533" lon="7.3425450"><ele></ele><time>2016-5-22T11:22:48Z</time></trkpt>
<trkpt lat="46.1953433" lon="7.3425083"><ele></ele><time>2016-5-22T11:22:51Z</time></trkpt>
<trkpt lat="46.1953317" lon="7.3424700"><ele></ele><time>2016-5-22T11:22:54Z</time></trkpt>
<trkpt lat="46.1953200" lon="7.3424367"><ele></ele><time>2016-5-22T11:22:57Z</time></trkpt>
<trkpt lat="46.1953100" lon="7.3424083"><ele></ele><time>2016-5-22T11:23:0Z</time></trkpt>
<trkpt lat="46.1952950" lon="7.3423783"><ele></ele><time>2016-5-22T11:23:3Z</time></trkpt>
<trkpt lat="46.1952817" lon="7.3423550"><ele></ele><time>2016-5-22T11:23:6Z</time></trkpt>
<trkpt lat="46.1952667" lon="7.3423333"><ele></ele><time>2016-5-22T11:23:9Z</time></trkpt>
<trkpt lat="46.1952467" lon="7.3423067"><ele></ele><time>2016-5-22T11:23:12Z</time></trkpt>
<trkpt lat="46.1952233" lon="7.3422717"><ele></ele><time>2016-5-22T11:23:15Z</time></trkpt>
<trkpt lat="46.1952233" lon="7.3422717"><ele></ele><time>2016-5-22T11:23:18Z</time></trkpt>
<trkpt lat="46.1951933" lon="7.3422417"><ele></ele><time>2016-5-22T11:23:21Z</time></trkpt>
<trkpt lat="46.1951650" lon="7.3422200"><ele></ele><time>2016-5-22T11:23:24Z</time></trkpt>
<trkpt lat="46.1951417" lon="7.3422083"><ele></ele><time>2016-5-22T11:23:27Z</time></trkpt>
<trkpt lat="46.1951133" lon="7.3422050"><ele></ele><time>2016-5-22T11:23:30Z</time></trkpt>
<trkpt lat="46.1950800" lon="7.3422017"><ele></ele><time>2016-5-22T11:23:33Z</time></trkpt>
<trkpt lat="46.1950467" lon="7.3421933"><ele></ele><time>2016-5-22T11:23:36Z</time></trkpt>
<trkpt lat="46.1950150" lon="7.3421783"><ele></ele><time>2016-5-22T11:23:39Z</time></trkpt>
<trkpt lat="46.1949850" lon="7.3421600"><ele></ele><time>2016-5-22T11:23:42Z</time></trkpt>
<trkpt lat="46.1949633" lon="7.3421467"><ele></ele><time>2016-5-22T11:23:45Z</time></trkpt>
<trkpt lat="46.1949617" lon="7.3421450"><ele></ele><time>2016-5-22T11:23:48Z</time></trkpt>
<trkpt lat="46.1949650" lon="7.3421483"><ele></ele><time>2016-5-22T11:23:51Z</time></trkpt>
<trkpt lat="46.1949650" lon="7.3421483"><ele></ele><time>2016-5-22T11:23:54Z</time></trkpt>
<trkpt lat="46.1949650" lon="7.3421483"><ele></ele><time>2016-5-22T11:23:57Z</time></trkpt>
<trkpt lat="46.1949733" lon="7.3421617"><ele></ele><time>2016-5-22T11:24:0Z</time></trkpt>
<trkpt lat="46.1949683" lon="7.3421633"><ele></ele><time>2016-5-22T11:24:3Z</time></trkpt>
<trkpt lat="46.1949683" lon="7.3421633"><ele></ele><time>2016-5-22T11:24:6Z</time></trkpt>
<trkpt lat="46.1949700" lon="7.3421617"><ele></ele><time>2016-5-22T11:24:9Z</time></trkpt>
<trkpt lat="46.1949700" lon="7.3421617"><ele></ele><time>2016-5-22T11:24:12Z</time></trkpt>
<trkpt lat="46.1949700" lon="7.3421617"><ele></ele><time>2016-5-22T11:24:15Z</time></trkpt>
<trkpt lat="46.1949700" lon="7.3421617"><ele></ele><time>2016-5-22T11:24:18Z</time></trkpt>
<trkpt lat="46.1949700" lon="7.3421617"><ele></ele><time>2016-5-22T11:24:21Z</time></trkpt>
<trkpt lat="46.1949700" lon="7.3421617"><ele></ele><time>2016-5-22T11:24:24Z</time></trkpt>
<trkpt lat="46.1949700" lon="7.3421617"><ele></ele><time>2016-5-22T11:24:27Z</time></trkpt>
<trkpt lat="46.1949700" lon="7.3421617"><ele></ele><time>2016-5-22T11:24:30Z</time></trkpt>
<trkpt lat="46.1949833" lon="7.3421583"><ele></ele><time>2016-5-22T11:24:33Z</time></trkpt>
<trkpt lat="46.1949900" lon="7.3421650"><ele></ele><time>2016-5-22T11:24:36Z</time></trkpt>
<trkpt lat="46.1949933" lon="7.3421767"><ele></ele><time>2016-5-22T11:24:39Z</time></trkpt>
<trkpt lat="46.1949983" lon="7.3421850"><ele></ele><time>2016-5-22T11:24:42Z</time></trkpt>
<trkpt lat="46.1950033" lon="7.3421933"><ele></ele><time>2016-5-22T11:24:45Z</time></trkpt>
<trkpt lat="46.1950033" lon="7.3421933"><ele></ele><time>2016-5-22T11:24:48Z</time></trkpt>
<trkpt lat="46.1950033" lon="7.3421967"><ele></ele><time>2016-5-22T11:24:51Z</time></trkpt>
<trkpt lat="46.1950050" lon="7.3421983"><ele></ele><time>2016-5-22T11:24:54Z</time></trkpt>
<trkpt lat="46.1950050" lon="7.3421983"><ele></ele><time>2016-5-22T11:24:57Z</time></trkpt>
<trkpt lat="46.1950050" lon="7.3421983"><ele></ele><time>2016-5-22T11:25:0Z</time></trkpt>
<trkpt lat="46.1950050" lon="7.3421983"><ele></ele><time>2016-5-22T11:25:3Z</time></trkpt>
<trkpt lat="46.1950117" lon="7.3421933"><ele></ele><time>2016-5-22T11:25:6Z</time></trkpt>
<trkpt lat="46.1950117" lon="7.3421933"><ele></ele><time>2016-5-22T11:25:9Z</time></trkpt>
<trkpt lat="46.1950117" lon="7.3421933"><ele></ele><time>2016-5-22T11:25:12Z</time></trkpt>
<trkpt lat="46.1950233" lon="7.3422050"><ele></ele><time>2016-5-22T11:25:15Z</time></trkpt>
<trkpt lat="46.1950233" lon="7.3422050"><ele></ele><time>2016-5-22T11:25:18Z</time></trkpt>
<trkpt lat="46.1950233" lon="7.3422050"><ele></ele><time>2016-5-22T11:25:21Z</time></trkpt>
<trkpt lat="46.1950233" lon="7.3422050"><ele></ele><time>2016-5-22T11:25:24Z</time></trkpt>
<trkpt lat="46.1950233" lon="7.3422050"><ele></ele><time>2016-5-22T11:25:27Z</time></trkpt>
<trkpt lat="46.1950233" lon="7.3422050"><ele></ele><time>2016-5-22T11:25:30Z</time></trkpt>
<trkpt lat="46.1950233" lon="7.3422050"><ele></ele><time>2016-5-22T11:25:33Z</time></trkpt>
<trkpt lat="46.1950233" lon="7.3422050"><ele></ele><time>2016-5-22T11:25:36Z</time></trkpt>
<trkpt lat="46.1950233" lon="7.3422050"><ele></ele><time>2016-5-22T11:25:39Z</time></trkpt>
<trkpt lat="46.1950233" lon="7.3422050"><ele></ele><time>2016-5-22T11:25:42Z</time></trkpt>
<trkpt lat="46.1950233" lon="7.3422050"><ele></ele><time>2016-5-22T11:25:45Z</time></trkpt>
<trkpt lat="46.1950233" lon="7.3422050"><ele></ele><time>2016-5-22T11:25:48Z</time></trkpt>
<trkpt lat="46.1950233" lon="7.3422050"><ele></ele><time>2016-5-22T11:25:51Z</time></trkpt>
<trkpt lat="46.1950233" lon="7.3422050"><ele></ele><time>2016-5-22T11:25:54Z</time></trkpt>
<trkpt lat="46.1950233" lon="7.3422050"><ele></ele><time>2016-5-22T11:25:57Z</time></trkpt>
<trkpt lat="46.1950233" lon="7.3422050"><ele></ele><time>2016-5-22T11:26:0Z</time></trkpt>
<trkpt lat="46.1950233" lon="7.3422050"><ele></ele><time>2016-5-22T11:26:3Z</time></trkpt>
<trkpt lat="46.1950233" lon="7.3422050"><ele></ele><time>2016-5-22T11:26:6Z</time></trkpt>
<trkpt lat="46.1950233" lon="7.3422050"><ele></ele><time>2016-5-22T11:26:9Z</time></trkpt>
<trkpt lat="46.1950233" lon="7.3422050"><ele></ele><time>2016-5-22T11:26:12Z</time></trkpt>
<trkpt lat="46.1950233" lon="7.3422050"><ele></ele><time>2016-5-22T11:26:15Z</time></trkpt>
<trkpt lat="46.1950233" lon="7.3422050"><ele></ele><time>2016-5-22T11:26:18Z</time></trkpt>
<trkpt lat="46.1950233" lon="7.3422050"><ele></ele><time>2016-5-22T11:26:21Z</time></trkpt>
<trkpt lat="46.1950233" lon="7.3422050"><ele></ele><time>2016-5-22T11:26:24Z</time></trkpt>
<trkpt lat="46.1950233" lon="7.3422050"><ele></ele><time>2016-5-22T11:26:27Z</time></trkpt>
<trkpt lat="46.1950233" lon="7.3422050"><ele></ele><time>2016-5-22T11:26:30Z</time></trkpt>
<trkpt lat="46.1950233" lon="7.3422050"><ele></ele><time>2016-5-22T11:26:33Z</time></trkpt>
<trkpt lat="46.1950233" lon="7.3422050"><ele></ele><time>2016-5-22T11:26:36Z</time></trkpt>
<trkpt lat="46.1950233" lon="7.3422050"><ele></ele><time>2016-5-22T11:26:39Z</time></trkpt>
<trkpt lat="46.1950233" lon="7.3422050"><ele></ele><time>2016-5-22T11:26:42Z</time></trkpt>
<trkpt lat="46.1950233" lon="7.3422050"><ele></ele><time>2016-5-22T11:26:45Z</time></trkpt>
<trkpt lat="46.1950233" lon="7.3422050"><ele></ele><time>2016-5-22T11:26:48Z</time></trkpt>
<trkpt lat="46.1950233" lon="7.3422050"><ele></ele><time>2016-5-22T11:26:51Z</time></trkpt>
<trkpt lat="46.1950233" lon="7.3422050"><ele></ele><time>2016-5-22T11:26:54Z</time></trkpt>
<trkpt lat="46.1950233" lon="7.3422050"><ele></ele><time>2016-5-22T11:26:57Z</time></trkpt>
<trkpt lat="46.1950233" lon="7.3422050"><ele></ele><time>2016-5-22T11:27:0Z</time></trkpt>
<trkpt lat="46.1950233" lon="7.3422050"><ele></ele><time>2016-5-22T11:27:3Z</time></trkpt>
<trkpt lat="46.1950233" lon="7.3422050"><ele></ele><time>2016-5-22T11:27:6Z</time></trkpt>
<trkpt lat="46.1950233" lon="7.3422050"><ele></ele><time>2016-5-22T11:27:9Z</time></trkpt>
<trkpt lat="46.1950233" lon="7.3422050"><ele></ele><time>2016-5-22T11:27:12Z</time></trkpt>
<trkpt lat="46.1950233" lon="7.3422050"><ele></ele><time>2016-5-22T11:27:15Z</time></trkpt>
<trkpt lat="46.1950233" lon="7.3422050"><ele></ele><time>2016-5-22T11:27:18Z</time></trkpt>
<trkpt lat="46.1950233" lon="7.3422050"><ele></ele><time>2016-5-22T11:27:21Z</time></trkpt>
<trkpt lat="46.1950233" lon="7.3422050"><ele></ele><time>2016-5-22T11:27:24Z</time></trkpt>
<trkpt lat="46.1950233" lon="7.3422050"><ele></ele><time>2016-5-22T11:27:27Z</time></trkpt>
<trkpt lat="46.1950233" lon="7.3422050"><ele></ele><time>2016-5-22T11:27:30Z</time></trkpt>
<trkpt lat="46.1950233" lon="7.3422050"><ele></ele><time>2016-5-22T11:27:33Z</time></trkpt>
<trkpt lat="46.1950233" lon="7.3422050"><ele></ele><time>2016-5-22T11:27:36Z</time></trkpt>
<trkpt lat="46.1950233" lon="7.3422050"><ele></ele><time>2016-5-22T11:27:39Z</time></trkpt>
<trkpt lat="46.1950233" lon="7.3422050"><ele></ele><time>2016-5-22T11:27:42Z</time></trkpt>
<trkpt lat="46.1950400" lon="7.3422200"><ele></ele><time>2016-5-22T11:27:45Z</time></trkpt>
<trkpt lat="46.1950367" lon="7.3422233"><ele></ele><time>2016-5-22T11:27:48Z</time></trkpt>
<trkpt lat="46.1950367" lon="7.3422283"><ele></ele><time>2016-5-22T11:27:51Z</time></trkpt>
<trkpt lat="46.1950367" lon="7.3422317"><ele></ele><time>2016-5-22T11:27:54Z</time></trkpt>
<trkpt lat="46.1950367" lon="7.3422317"><ele></ele><time>2016-5-22T11:27:57Z</time></trkpt>
<trkpt lat="46.1950383" lon="7.3422400"><ele></ele><time>2016-5-22T11:28:0Z</time></trkpt>
<trkpt lat="46.1950417" lon="7.3422500"><ele></ele><time>2016-5-22T11:28:3Z</time></trkpt>
<trkpt lat="46.1950417" lon="7.3422500"><ele></ele><time>2016-5-22T11:28:6Z</time></trkpt>
<trkpt lat="46.1950533" lon="7.3422617"><ele></ele><time>2016-5-22T11:28:9Z</time></trkpt>
<trkpt lat="46.1950733" lon="7.3422683"><ele></ele><time>2016-5-22T11:28:12Z</time></trkpt>
<trkpt lat="46.1951050" lon="7.3422733"><ele></ele><time>2016-5-22T11:28:15Z</time></trkpt>
<trkpt lat="46.1951450" lon="7.3422817"><ele></ele><time>2016-5-22T11:28:18Z</time></trkpt>
<trkpt lat="46.1951867" lon="7.3422950"><ele></ele><time>2016-5-22T11:28:21Z</time></trkpt>
<trkpt lat="46.1952300" lon="7.3423133"><ele></ele><time>2016-5-22T11:28:24Z</time></trkpt>
<trkpt lat="46.1952783" lon="7.3423417"><ele></ele><time>2016-5-22T11:28:27Z</time></trkpt>
<trkpt lat="46.1953250" lon="7.3424000"><ele></ele><time>2016-5-22T11:28:30Z</time></trkpt>
<trkpt lat="46.1953617" lon="7.3424400"><ele></ele><time>2016-5-22T11:28:33Z</time></trkpt>
<trkpt lat="46.1953833" lon="7.3424900"><ele></ele><time>2016-5-22T11:28:36Z</time></trkpt>
<trkpt lat="46.1954067" lon="7.3425433"><ele></ele><time>2016-5-22T11:28:39Z</time></trkpt>
<trkpt lat="46.1954250" lon="7.3425950"><ele></ele><time>2016-5-22T11:28:42Z</time></trkpt>
<trkpt lat="46.1954433" lon="7.3426550"><ele></ele><time>2016-5-22T11:28:45Z</time></trkpt>
<trkpt lat="46.1954267" lon="7.3427250"><ele></ele><time>2016-5-22T11:28:48Z</time></trkpt>
<trkpt lat="46.1954383" lon="7.3427650"><ele></ele><time>2016-5-22T11:28:51Z</time></trkpt>
<trkpt lat="46.1954550" lon="7.3428067"><ele></ele><time>2016-5-22T11:28:54Z</time></trkpt>
<trkpt lat="46.1954700" lon="7.3428483"><ele></ele><time>2016-5-22T11:28:57Z</time></trkpt>
<trkpt lat="46.1954900" lon="7.3428783"><ele></ele><time>2016-5-22T11:29:0Z</time></trkpt>
<trkpt lat="46.1954883" lon="7.3429500"><ele></ele><time>2016-5-22T11:29:3Z</time></trkpt>
<trkpt lat="46.1954900" lon="7.3430233"><ele></ele><time>2016-5-22T11:29:6Z</time></trkpt>
<trkpt lat="46.1954917" lon="7.3430717"><ele></ele><time>2016-5-22T11:29:9Z</time></trkpt>
<trkpt lat="46.1954967" lon="7.3431200"><ele></ele><time>2016-5-22T11:29:12Z</time></trkpt>
<trkpt lat="46.1955133" lon="7.3431600"><ele></ele><time>2016-5-22T11:29:15Z</time></trkpt>
<trkpt lat="46.1955333" lon="7.3431967"><ele></ele><time>2016-5-22T11:29:18Z</time></trkpt>
<trkpt lat="46.1955333" lon="7.3431967"><ele></ele><time>2016-5-22T11:29:21Z</time></trkpt>
<trkpt lat="46.1955517" lon="7.3432233"><ele></ele><time>2016-5-22T11:29:24Z</time></trkpt>
<trkpt lat="46.1955750" lon="7.3432417"><ele></ele><time>2016-5-22T11:29:27Z</time></trkpt>
<trkpt lat="46.1956067" lon="7.3432533"><ele></ele><time>2016-5-22T11:29:30Z</time></trkpt>
<trkpt lat="46.1956367" lon="7.3432650"><ele></ele><time>2016-5-22T11:29:33Z</time></trkpt>
<trkpt lat="46.1956617" lon="7.3432817"><ele></ele><time>2016-5-22T11:29:36Z</time></trkpt>
<trkpt lat="46.1956817" lon="7.3433117"><ele></ele><time>2016-5-22T11:29:39Z</time></trkpt>
<trkpt lat="46.1956967" lon="7.3433500"><ele></ele><time>2016-5-22T11:29:42Z</time></trkpt>
<trkpt lat="46.1957083" lon="7.3433817"><ele></ele><time>2016-5-22T11:29:45Z</time></trkpt>
<trkpt lat="46.1957183" lon="7.3434067"><ele></ele><time>2016-5-22T11:29:48Z</time></trkpt>
<trkpt lat="46.1957283" lon="7.3434200"><ele></ele><time>2016-5-22T11:29:51Z</time></trkpt>
<trkpt lat="46.1957383" lon="7.3434183"><ele></ele><time>2016-5-22T11:29:54Z</time></trkpt>
<trkpt lat="46.1957417" lon="7.3434100"><ele></ele><time>2016-5-22T11:29:57Z</time></trkpt>
<trkpt lat="46.1957417" lon="7.3434100"><ele></ele><time>2016-5-22T11:30:0Z</time></trkpt>
<trkpt lat="46.1957417" lon="7.3434100"><ele></ele><time>2016-5-22T11:30:3Z</time></trkpt>
<trkpt lat="46.1957417" lon="7.3434100"><ele></ele><time>2016-5-22T11:30:6Z</time></trkpt>
<trkpt lat="46.1957417" lon="7.3434100"><ele></ele><time>2016-5-22T11:30:9Z</time></trkpt>
<trkpt lat="46.1957417" lon="7.3434100"><ele></ele><time>2016-5-22T11:30:12Z</time></trkpt>
<trkpt lat="46.1957417" lon="7.3434100"><ele></ele><time>2016-5-22T11:30:15Z</time></trkpt>
<trkpt lat="46.1957417" lon="7.3434100"><ele></ele><time>2016-5-22T11:30:18Z</time></trkpt>
<trkpt lat="46.1957417" lon="7.3434100"><ele></ele><time>2016-5-22T11:30:21Z</time></trkpt>
<trkpt lat="46.1957350" lon="7.3433867"><ele></ele><time>2016-5-22T11:30:24Z</time></trkpt>
<trkpt lat="46.1957383" lon="7.3434000"><ele></ele><time>2016-5-22T11:30:27Z</time></trkpt>
<trkpt lat="46.1957433" lon="7.3434100"><ele></ele><time>2016-5-22T11:30:30Z</time></trkpt>
<trkpt lat="46.1957467" lon="7.3434133"><ele></ele><time>2016-5-22T11:30:33Z</time></trkpt>
<trkpt lat="46.1957483" lon="7.3434133"><ele></ele><time>2016-5-22T11:30:36Z</time></trkpt>
<trkpt lat="46.1957483" lon="7.3434133"><ele></ele><time>2016-5-22T11:30:39Z</time></trkpt>
<trkpt lat="46.1957483" lon="7.3434133"><ele></ele><time>2016-5-22T11:30:42Z</time></trkpt>
<trkpt lat="46.1957483" lon="7.3434133"><ele></ele><time>2016-5-22T11:30:45Z</time></trkpt>
<trkpt lat="46.1957483" lon="7.3434133"><ele></ele><time>2016-5-22T11:30:48Z</time></trkpt>
<trkpt lat="46.1957483" lon="7.3434133"><ele></ele><time>2016-5-22T11:30:51Z</time></trkpt>
<trkpt lat="46.1957483" lon="7.3434133"><ele></ele><time>2016-5-22T11:30:54Z</time></trkpt>
<trkpt lat="46.1957517" lon="7.3434100"><ele></ele><time>2016-5-22T11:30:57Z</time></trkpt>
<trkpt lat="46.1957533" lon="7.3434000"><ele></ele><time>2016-5-22T11:31:0Z</time></trkpt>
<trkpt lat="46.1957533" lon="7.3433933"><ele></ele><time>2016-5-22T11:31:3Z</time></trkpt>
<trkpt lat="46.1957517" lon="7.3433883"><ele></ele><time>2016-5-22T11:31:6Z</time></trkpt>
<trkpt lat="46.1957483" lon="7.3433767"><ele></ele><time>2016-5-22T11:31:9Z</time></trkpt>
<trkpt lat="46.1957417" lon="7.3433617"><ele></ele><time>2016-5-22T11:31:12Z</time></trkpt>
<trkpt lat="46.1957300" lon="7.3433500"><ele></ele><time>2016-5-22T11:31:15Z</time></trkpt>
<trkpt lat="46.1957267" lon="7.3433400"><ele></ele><time>2016-5-22T11:31:18Z</time></trkpt>
<trkpt lat="46.1957267" lon="7.3433333"><ele></ele><time>2016-5-22T11:31:21Z</time></trkpt>
<trkpt lat="46.1957267" lon="7.3433267"><ele></ele><time>2016-5-22T11:31:24Z</time></trkpt>
<trkpt lat="46.1957267" lon="7.3433167"><ele></ele><time>2016-5-22T11:31:27Z</time></trkpt>
<trkpt lat="46.1957250" lon="7.3433117"><ele></ele><time>2016-5-22T11:31:30Z</time></trkpt>
<trkpt lat="46.1957250" lon="7.3433117"><ele></ele><time>2016-5-22T11:31:33Z</time></trkpt>
<trkpt lat="46.1957250" lon="7.3433117"><ele></ele><time>2016-5-22T11:31:36Z</time></trkpt>
<trkpt lat="46.1957117" lon="7.3433183"><ele></ele><time>2016-5-22T11:31:39Z</time></trkpt>
<trkpt lat="46.1957117" lon="7.3433183"><ele></ele><time>2016-5-22T11:31:42Z</time></trkpt>
<trkpt lat="46.1957117" lon="7.3433183"><ele></ele><time>2016-5-22T11:31:45Z</time></trkpt>
<trkpt lat="46.1957117" lon="7.3433183"><ele></ele><time>2016-5-22T11:31:48Z</time></trkpt>
<trkpt lat="46.1957117" lon="7.3433183"><ele></ele><time>2016-5-22T11:31:51Z</time></trkpt>
<trkpt lat="46.1957117" lon="7.3433183"><ele></ele><time>2016-5-22T11:31:54Z</time></trkpt>
<trkpt lat="46.1957117" lon="7.3433183"><ele></ele><time>2016-5-22T11:31:57Z</time></trkpt>
<trkpt lat="46.1957117" lon="7.3433183"><ele></ele><time>2016-5-22T11:32:0Z</time></trkpt>
<trkpt lat="46.1957117" lon="7.3433183"><ele></ele><time>2016-5-22T11:32:3Z</time></trkpt>
<trkpt lat="46.1957117" lon="7.3433183"><ele></ele><time>2016-5-22T11:32:6Z</time></trkpt>
<trkpt lat="46.1957117" lon="7.3433183"><ele></ele><time>2016-5-22T11:32:9Z</time></trkpt>
<trkpt lat="46.1957117" lon="7.3433183"><ele></ele><time>2016-5-22T11:32:12Z</time></trkpt>
<trkpt lat="46.1957117" lon="7.3433183"><ele></ele><time>2016-5-22T11:32:15Z</time></trkpt>
<trkpt lat="46.1957117" lon="7.3433183"><ele></ele><time>2016-5-22T11:32:18Z</time></trkpt>
<trkpt lat="46.1957117" lon="7.3433183"><ele></ele><time>2016-5-22T11:32:21Z</time></trkpt>
<trkpt lat="46.1957117" lon="7.3433183"><ele></ele><time>2016-5-22T11:32:24Z</time></trkpt>
<trkpt lat="46.1957117" lon="7.3433183"><ele></ele><time>2016-5-22T11:32:27Z</time></trkpt>
<trkpt lat="46.1957117" lon="7.3433183"><ele></ele><time>2016-5-22T11:32:30Z</time></trkpt>
<trkpt lat="46.1957117" lon="7.3433183"><ele></ele><time>2016-5-22T11:32:33Z</time></trkpt>
<trkpt lat="46.1957117" lon="7.3433183"><ele></ele><time>2016-5-22T11:32:36Z</time></trkpt>
<trkpt lat="46.1956983" lon="7.3433233"><ele></ele><time>2016-5-22T11:32:39Z</time></trkpt>
<trkpt lat="46.1956983" lon="7.3433233"><ele></ele><time>2016-5-22T11:32:42Z</time></trkpt>
<trkpt lat="46.1956983" lon="7.3433233"><ele></ele><time>2016-5-22T11:32:45Z</time></trkpt>
<trkpt lat="46.1956983" lon="7.3433233"><ele></ele><time>2016-5-22T11:32:48Z</time></trkpt>
<trkpt lat="46.1956900" lon="7.3433250"><ele></ele><time>2016-5-22T11:32:51Z</time></trkpt>
<trkpt lat="46.1956900" lon="7.3433250"><ele></ele><time>2016-5-22T11:32:54Z</time></trkpt>
<trkpt lat="46.1956850" lon="7.3433233"><ele></ele><time>2016-5-22T11:32:57Z</time></trkpt>
<trkpt lat="46.1956850" lon="7.3433233"><ele></ele><time>2016-5-22T11:33:0Z</time></trkpt>
<trkpt lat="46.1956850" lon="7.3433233"><ele></ele><time>2016-5-22T11:33:3Z</time></trkpt>
<trkpt lat="46.1956850" lon="7.3433233"><ele></ele><time>2016-5-22T11:33:6Z</time></trkpt>
<trkpt lat="46.1956850" lon="7.3433233"><ele></ele><time>2016-5-22T11:33:9Z</time></trkpt>
<trkpt lat="46.1956850" lon="7.3433233"><ele></ele><time>2016-5-22T11:33:12Z</time></trkpt>
<trkpt lat="46.1956850" lon="7.3433233"><ele></ele><time>2016-5-22T11:33:15Z</time></trkpt>
<trkpt lat="46.1956850" lon="7.3433233"><ele></ele><time>2016-5-22T11:33:18Z</time></trkpt>
<trkpt lat="46.1956850" lon="7.3433233"><ele></ele><time>2016-5-22T11:33:21Z</time></trkpt>
<trkpt lat="46.1956850" lon="7.3433233"><ele></ele><time>2016-5-22T11:33:24Z</time></trkpt>
<trkpt lat="46.1956850" lon="7.3433233"><ele></ele><time>2016-5-22T11:33:27Z</time></trkpt>
<trkpt lat="46.1956850" lon="7.3433233"><ele></ele><time>2016-5-22T11:33:30Z</time></trkpt>
<trkpt lat="46.1956850" lon="7.3433233"><ele></ele><time>2016-5-22T11:33:33Z</time></trkpt>
<trkpt lat="46.1956850" lon="7.3433233"><ele></ele><time>2016-5-22T11:33:36Z</time></trkpt>
<trkpt lat="46.1956850" lon="7.3433233"><ele></ele><time>2016-5-22T11:33:39Z</time></trkpt>
<trkpt lat="46.1956850" lon="7.3433233"><ele></ele><time>2016-5-22T11:33:42Z</time></trkpt>
<trkpt lat="46.1956850" lon="7.3433233"><ele></ele><time>2016-5-22T11:33:45Z</time></trkpt>
<trkpt lat="46.1956850" lon="7.3433233"><ele></ele><time>2016-5-22T11:33:48Z</time></trkpt>
<trkpt lat="46.1956850" lon="7.3433233"><ele></ele><time>2016-5-22T11:33:51Z</time></trkpt>
<trkpt lat="46.1956850" lon="7.3433233"><ele></ele><time>2016-5-22T11:33:54Z</time></trkpt>
<trkpt lat="46.1956850" lon="7.3433233"><ele></ele><time>2016-5-22T11:33:57Z</time></trkpt>
<trkpt lat="46.1956850" lon="7.3433233"><ele></ele><time>2016-5-22T11:34:0Z</time></trkpt>
<trkpt lat="46.1956850" lon="7.3433233"><ele></ele><time>2016-5-22T11:34:3Z</time></trkpt>
<trkpt lat="46.1956850" lon="7.3433233"><ele></ele><time>2016-5-22T11:34:6Z</time></trkpt>
<trkpt lat="46.1956850" lon="7.3433233"><ele></ele><time>2016-5-22T11:34:9Z</time></trkpt>
<trkpt lat="46.1956850" lon="7.3433233"><ele></ele><time>2016-5-22T11:34:12Z</time></trkpt>
<trkpt lat="46.1956850" lon="7.3433233"><ele></ele><time>2016-5-22T11:34:15Z</time></trkpt>
<trkpt lat="46.1956850" lon="7.3433233"><ele></ele><time>2016-5-22T11:34:18Z</time></trkpt>
<trkpt lat="46.1956850" lon="7.3433233"><ele></ele><time>2016-5-22T11:34:21Z</time></trkpt>
<trkpt lat="46.1956850" lon="7.3433233"><ele></ele><time>2016-5-22T11:34:24Z</time></trkpt>
<trkpt lat="46.1956850" lon="7.3433233"><ele></ele><time>2016-5-22T11:34:27Z</time></trkpt>
<trkpt lat="46.1956850" lon="7.3433233"><ele></ele><time>2016-5-22T11:34:30Z</time></trkpt>
<trkpt lat="46.1956850" lon="7.3433233"><ele></ele><time>2016-5-22T11:34:33Z</time></trkpt>
<trkpt lat="46.1956850" lon="7.3433233"><ele></ele><time>2016-5-22T11:34:36Z</time></trkpt>
<trkpt lat="46.1956850" lon="7.3433233"><ele></ele><time>2016-5-22T11:34:39Z</time></trkpt>
<trkpt lat="46.1956850" lon="7.3433233"><ele></ele><time>2016-5-22T11:34:42Z</time></trkpt>
<trkpt lat="46.1956850" lon="7.3433233"><ele></ele><time>2016-5-22T11:34:45Z</time></trkpt>
<trkpt lat="46.1956850" lon="7.3433233"><ele></ele><time>2016-5-22T11:34:48Z</time></trkpt>
<trkpt lat="46.1956850" lon="7.3433233"><ele></ele><time>2016-5-22T11:34:51Z</time></trkpt>
<trkpt lat="46.1956850" lon="7.3433233"><ele></ele><time>2016-5-22T11:34:54Z</time></trkpt>
<trkpt lat="46.1956850" lon="7.3433233"><ele></ele><time>2016-5-22T11:34:57Z</time></trkpt>
<trkpt lat="46.1956850" lon="7.3433233"><ele></ele><time>2016-5-22T11:35:0Z</time></trkpt>
<trkpt lat="46.1956850" lon="7.3433233"><ele></ele><time>2016-5-22T11:35:3Z</time></trkpt>
<trkpt lat="46.1956850" lon="7.3433233"><ele></ele><time>2016-5-22T11:35:6Z</time></trkpt>
<trkpt lat="46.1956850" lon="7.3433233"><ele></ele><time>2016-5-22T11:35:9Z</time></trkpt>
<trkpt lat="46.1956850" lon="7.3433233"><ele></ele><time>2016-5-22T11:35:12Z</time></trkpt>
<trkpt lat="46.1956850" lon="7.3433233"><ele></ele><time>2016-5-22T11:35:15Z</time></trkpt>
<trkpt lat="46.1956850" lon="7.3433233"><ele></ele><time>2016-5-22T11:35:18Z</time></trkpt>
<trkpt lat="46.1956850" lon="7.3433233"><ele></ele><time>2016-5-22T11:35:21Z</time></trkpt>
<trkpt lat="46.1956850" lon="7.3433233"><ele></ele><time>2016-5-22T11:35:24Z</time></trkpt>
<trkpt lat="46.1956850" lon="7.3433233"><ele></ele><time>2016-5-22T11:35:27Z</time></trkpt>
<trkpt lat="46.1956850" lon="7.3433233"><ele></ele><time>2016-5-22T11:35:30Z</time></trkpt>
<trkpt lat="46.1956850" lon="7.3433233"><ele></ele><time>2016-5-22T11:35:33Z</time></trkpt>
<trkpt lat="46.1956850" lon="7.3433233"><ele></ele><time>2016-5-22T11:35:36Z</time></trkpt>
<trkpt lat="46.1956850" lon="7.3433233"><ele></ele><time>2016-5-22T11:35:39Z</time></trkpt>
<trkpt lat="46.1956850" lon="7.3433233"><ele></ele><time>2016-5-22T11:35:42Z</time></trkpt>
<trkpt lat="46.1956850" lon="7.3433233"><ele></ele><time>2016-5-22T11:35:45Z</time></trkpt>
<trkpt lat="46.1956850" lon="7.3433233"><ele></ele><time>2016-5-22T11:35:48Z</time></trkpt>
<trkpt lat="46.1956850" lon="7.3433233"><ele></ele><time>2016-5-22T11:35:51Z</time></trkpt>
<trkpt lat="46.1956850" lon="7.3433233"><ele></ele><time>2016-5-22T11:35:54Z</time></trkpt>
<trkpt lat="46.1956850" lon="7.3433233"><ele></ele><time>2016-5-22T11:35:57Z</time></trkpt>
<trkpt lat="46.1956850" lon="7.3433233"><ele></ele><time>2016-5-22T11:36:0Z</time></trkpt>
<trkpt lat="46.1956850" lon="7.3433233"><ele></ele><time>2016-5-22T11:36:3Z</time></trkpt>
<trkpt lat="46.1956850" lon="7.3433233"><ele></ele><time>2016-5-22T11:36:6Z</time></trkpt>
<trkpt lat="46.1956850" lon="7.3433233"><ele></ele><time>2016-5-22T11:36:9Z</time></trkpt>
<trkpt lat="46.1956850" lon="7.3433233"><ele></ele><time>2016-5-22T11:36:12Z</time></trkpt>
<trkpt lat="46.1956850" lon="7.3433233"><ele></ele><time>2016-5-22T11:36:15Z</time></trkpt>
<trkpt lat="46.1956850" lon="7.3433233"><ele></ele><time>2016-5-22T11:36:18Z</time></trkpt>
<trkpt lat="46.1956850" lon="7.3433233"><ele></ele><time>2016-5-22T11:36:21Z</time></trkpt>
<trkpt lat="46.1956850" lon="7.3433233"><ele></ele><time>2016-5-22T11:36:24Z</time></trkpt>
<trkpt lat="46.1956850" lon="7.3433233"><ele></ele><time>2016-5-22T11:36:27Z</time></trkpt>
<trkpt lat="46.1956850" lon="7.3433233"><ele></ele><time>2016-5-22T11:36:30Z</time></trkpt>
<trkpt lat="46.1956850" lon="7.3433233"><ele></ele><time>2016-5-22T11:36:33Z</time></trkpt>
<trkpt lat="46.1956850" lon="7.3433233"><ele></ele><time>2016-5-22T11:36:36Z</time></trkpt>
<trkpt lat="46.1956850" lon="7.3433233"><ele></ele><time>2016-5-22T11:36:39Z</time></trkpt>
<trkpt lat="46.1956850" lon="7.3433233"><ele></ele><time>2016-5-22T11:36:42Z</time></trkpt>
<trkpt lat="46.1956850" lon="7.3433233"><ele></ele><time>2016-5-22T11:36:45Z</time></trkpt>
<trkpt lat="46.1956850" lon="7.3433233"><ele></ele><time>2016-5-22T11:36:48Z</time></trkpt>
<trkpt lat="46.1956850" lon="7.3433233"><ele></ele><time>2016-5-22T11:36:51Z</time></trkpt>
<trkpt lat="46.1956850" lon="7.3433233"><ele></ele><time>2016-5-22T11:36:54Z</time></trkpt>
<trkpt lat="46.1956850" lon="7.3433233"><ele></ele><time>2016-5-22T11:36:57Z</time></trkpt>
<trkpt lat="46.1956850" lon="7.3433233"><ele></ele><time>2016-5-22T11:37:0Z</time></trkpt>
<trkpt lat="46.1956850" lon="7.3433233"><ele></ele><time>2016-5-22T11:37:3Z</time></trkpt>
<trkpt lat="46.1956850" lon="7.3433233"><ele></ele><time>2016-5-22T11:37:6Z</time></trkpt>
<trkpt lat="46.1956850" lon="7.3433233"><ele></ele><time>2016-5-22T11:37:9Z</time></trkpt>
<trkpt lat="46.1956850" lon="7.3433233"><ele></ele><time>2016-5-22T11:37:12Z</time></trkpt>
<trkpt lat="46.1956850" lon="7.3433233"><ele></ele><time>2016-5-22T11:37:15Z</time></trkpt>
<trkpt lat="46.1956850" lon="7.3433233"><ele></ele><time>2016-5-22T11:37:18Z</time></trkpt>
<trkpt lat="46.1956850" lon="7.3433233"><ele></ele><time>2016-5-22T11:37:21Z</time></trkpt>
<trkpt lat="46.1956850" lon="7.3433233"><ele></ele><time>2016-5-22T11:37:24Z</time></trkpt>
<trkpt lat="46.1956850" lon="7.3433233"><ele></ele><time>2016-5-22T11:37:27Z</time></trkpt>
<trkpt lat="46.1956850" lon="7.3433233"><ele></ele><time>2016-5-22T11:37:30Z</time></trkpt>
<trkpt lat="46.1956850" lon="7.3433233"><ele></ele><time>2016-5-22T11:37:33Z</time></trkpt>
<trkpt lat="46.1956850" lon="7.3433233"><ele></ele><time>2016-5-22T11:37:36Z</time></trkpt>
<trkpt lat="46.1956850" lon="7.3433233"><ele></ele><time>2016-5-22T11:37:39Z</time></trkpt>
<trkpt lat="46.1956850" lon="7.3433233"><ele></ele><time>2016-5-22T11:37:42Z</time></trkpt>
<trkpt lat="46.1956850" lon="7.3433233"><ele></ele><time>2016-5-22T11:37:45Z</time></trkpt>
<trkpt lat="46.1956850" lon="7.3433233"><ele></ele><time>2016-5-22T11:37:48Z</time></trkpt>
<trkpt lat="46.1956850" lon="7.3433233"><ele></ele><time>2016-5-22T11:37:51Z</time></trkpt>
<trkpt lat="46.1956850" lon="7.3433233"><ele></ele><time>2016-5-22T11:37:54Z</time></trkpt>
<trkpt lat="46.1956850" lon="7.3433233"><ele></ele><time>2016-5-22T11:37:57Z</time></trkpt>
<trkpt lat="46.1956850" lon="7.3433233"><ele></ele><time>2016-5-22T11:38:0Z</time></trkpt>
<trkpt lat="46.1956850" lon="7.3433233"><ele></ele><time>2016-5-22T11:38:3Z</time></trkpt>
<trkpt lat="46.1956850" lon="7.3433233"><ele></ele><time>2016-5-22T11:38:6Z</time></trkpt>
<trkpt lat="46.1956850" lon="7.3433233"><ele></ele><time>2016-5-22T11:38:9Z</time></trkpt>
<trkpt lat="46.1956850" lon="7.3433233"><ele></ele><time>2016-5-22T11:38:12Z</time></trkpt>
<trkpt lat="46.1956850" lon="7.3433233"><ele></ele><time>2016-5-22T11:38:15Z</time></trkpt>
<trkpt lat="46.1956850" lon="7.3433233"><ele></ele><time>2016-5-22T11:38:18Z</time></trkpt>
<trkpt lat="46.1956850" lon="7.3433233"><ele></ele><time>2016-5-22T11:38:21Z</time></trkpt>
<trkpt lat="46.1956850" lon="7.3433233"><ele></ele><time>2016-5-22T11:38:24Z</time></trkpt>
<trkpt lat="46.1956850" lon="7.3433233"><ele></ele><time>2016-5-22T11:38:27Z</time></trkpt>
<trkpt lat="46.1956717" lon="7.3433333"><ele></ele><time>2016-5-22T11:38:30Z</time></trkpt>
<trkpt lat="46.1956717" lon="7.3433333"><ele></ele><time>2016-5-22T11:38:33Z</time></trkpt>
<trkpt lat="46.1956717" lon="7.3433333"><ele></ele><time>2016-5-22T11:38:36Z</time></trkpt>
<trkpt lat="46.1956717" lon="7.3433333"><ele></ele><time>2016-5-22T11:38:39Z</time></trkpt>
<trkpt lat="46.1956717" lon="7.3433333"><ele></ele><time>2016-5-22T11:38:42Z</time></trkpt>
<trkpt lat="46.1956717" lon="7.3433333"><ele></ele><time>2016-5-22T11:38:45Z</time></trkpt>
<trkpt lat="46.1956717" lon="7.3433333"><ele></ele><time>2016-5-22T11:38:48Z</time></trkpt>
<trkpt lat="46.1956717" lon="7.3433333"><ele></ele><time>2016-5-22T11:38:51Z</time></trkpt>
<trkpt lat="46.1956717" lon="7.3433333"><ele></ele><time>2016-5-22T11:38:54Z</time></trkpt>
<trkpt lat="46.1956717" lon="7.3433333"><ele></ele><time>2016-5-22T11:38:57Z</time></trkpt>
<trkpt lat="46.1956717" lon="7.3433333"><ele></ele><time>2016-5-22T11:39:0Z</time></trkpt>
<trkpt lat="46.1956717" lon="7.3433333"><ele></ele><time>2016-5-22T11:39:3Z</time></trkpt>
<trkpt lat="46.1956717" lon="7.3433333"><ele></ele><time>2016-5-22T11:39:6Z</time></trkpt>
<trkpt lat="46.1956717" lon="7.3433333"><ele></ele><time>2016-5-22T11:39:9Z</time></trkpt>
<trkpt lat="46.1956717" lon="7.3433333"><ele></ele><time>2016-5-22T11:39:12Z</time></trkpt>
<trkpt lat="46.1956717" lon="7.3433333"><ele></ele><time>2016-5-22T11:39:15Z</time></trkpt>
<trkpt lat="46.1956717" lon="7.3433333"><ele></ele><time>2016-5-22T11:39:18Z</time></trkpt>
<trkpt lat="46.1956717" lon="7.3433333"><ele></ele><time>2016-5-22T11:39:21Z</time></trkpt>
<trkpt lat="46.1956717" lon="7.3433333"><ele></ele><time>2016-5-22T11:39:24Z</time></trkpt>
<trkpt lat="46.1956717" lon="7.3433333"><ele></ele><time>2016-5-22T11:39:27Z</time></trkpt>
<trkpt lat="46.1956717" lon="7.3433333"><ele></ele><time>2016-5-22T11:39:30Z</time></trkpt>
<trkpt lat="46.1956717" lon="7.3433333"><ele></ele><time>2016-5-22T11:39:33Z</time></trkpt>
<trkpt lat="46.1956717" lon="7.3433333"><ele></ele><time>2016-5-22T11:39:36Z</time></trkpt>
<trkpt lat="46.1956717" lon="7.3433333"><ele></ele><time>2016-5-22T11:39:39Z</time></trkpt>
<trkpt lat="46.1956717" lon="7.3433333"><ele></ele><time>2016-5-22T11:39:42Z</time></trkpt>
<trkpt lat="46.1956717" lon="7.3433333"><ele></ele><time>2016-5-22T11:39:45Z</time></trkpt>
<trkpt lat="46.1956717" lon="7.3433333"><ele></ele><time>2016-5-22T11:39:48Z</time></trkpt>
<trkpt lat="46.1956717" lon="7.3433333"><ele></ele><time>2016-5-22T11:39:51Z</time></trkpt>
<trkpt lat="46.1956717" lon="7.3433333"><ele></ele><time>2016-5-22T11:39:54Z</time></trkpt>
<trkpt lat="46.1956717" lon="7.3433333"><ele></ele><time>2016-5-22T11:39:57Z</time></trkpt>
<trkpt lat="46.1956717" lon="7.3433333"><ele></ele><time>2016-5-22T11:40:0Z</time></trkpt>
<trkpt lat="46.1956717" lon="7.3433333"><ele></ele><time>2016-5-22T11:40:3Z</time></trkpt>
<trkpt lat="46.1956717" lon="7.3433333"><ele></ele><time>2016-5-22T11:40:6Z</time></trkpt>
<trkpt lat="46.1956717" lon="7.3433333"><ele></ele><time>2016-5-22T11:40:9Z</time></trkpt>
<trkpt lat="46.1956717" lon="7.3433333"><ele></ele><time>2016-5-22T11:40:12Z</time></trkpt>
<trkpt lat="46.1956717" lon="7.3433333"><ele></ele><time>2016-5-22T11:40:15Z</time></trkpt>
<trkpt lat="46.1956717" lon="7.3433333"><ele></ele><time>2016-5-22T11:40:18Z</time></trkpt>
<trkpt lat="46.1956717" lon="7.3433333"><ele></ele><time>2016-5-22T11:40:21Z</time></trkpt>
<trkpt lat="46.1956717" lon="7.3433333"><ele></ele><time>2016-5-22T11:40:24Z</time></trkpt>
<trkpt lat="46.1956717" lon="7.3433333"><ele></ele><time>2016-5-22T11:40:27Z</time></trkpt>
<trkpt lat="46.1956717" lon="7.3433333"><ele></ele><time>2016-5-22T11:40:30Z</time></trkpt>
<trkpt lat="46.1956717" lon="7.3433333"><ele></ele><time>2016-5-22T11:40:33Z</time></trkpt>
<trkpt lat="46.1956717" lon="7.3433333"><ele></ele><time>2016-5-22T11:40:36Z</time></trkpt>
<trkpt lat="46.1956717" lon="7.3433333"><ele></ele><time>2016-5-22T11:40:39Z</time></trkpt>
<trkpt lat="46.1956717" lon="7.3433333"><ele></ele><time>2016-5-22T11:40:42Z</time></trkpt>
<trkpt lat="46.1956717" lon="7.3433333"><ele></ele><time>2016-5-22T11:40:45Z</time></trkpt>
<trkpt lat="46.1956717" lon="7.3433333"><ele></ele><time>2016-5-22T11:40:48Z</time></trkpt>
<trkpt lat="46.1956717" lon="7.3433333"><ele></ele><time>2016-5-22T11:40:51Z</time></trkpt>
<trkpt lat="46.1956717" lon="7.3433333"><ele></ele><time>2016-5-22T11:40:54Z</time></trkpt>
<trkpt lat="46.1956717" lon="7.3433333"><ele></ele><time>2016-5-22T11:40:57Z</time></trkpt>
<trkpt lat="46.1956717" lon="7.3433333"><ele></ele><time>2016-5-22T11:41:0Z</time></trkpt>
<trkpt lat="46.1956717" lon="7.3433333"><ele></ele><time>2016-5-22T11:41:3Z</time></trkpt>
<trkpt lat="46.1956717" lon="7.3433333"><ele></ele><time>2016-5-22T11:41:6Z</time></trkpt>
<trkpt lat="46.1956717" lon="7.3433333"><ele></ele><time>2016-5-22T11:41:9Z</time></trkpt>
<trkpt lat="46.1956717" lon="7.3433333"><ele></ele><time>2016-5-22T11:41:12Z</time></trkpt>
<trkpt lat="46.1956717" lon="7.3433333"><ele></ele><time>2016-5-22T11:41:15Z</time></trkpt>
<trkpt lat="46.1956717" lon="7.3433333"><ele></ele><time>2016-5-22T11:41:18Z</time></trkpt>
<trkpt lat="46.1956717" lon="7.3433333"><ele></ele><time>2016-5-22T11:41:21Z</time></trkpt>
<trkpt lat="46.1956717" lon="7.3433333"><ele></ele><time>2016-5-22T11:41:24Z</time></trkpt>
<trkpt lat="46.1956717" lon="7.3433333"><ele></ele><time>2016-5-22T11:41:27Z</time></trkpt>
<trkpt lat="46.1956717" lon="7.3433333"><ele></ele><time>2016-5-22T11:41:30Z</time></trkpt>
<trkpt lat="46.1956717" lon="7.3433333"><ele></ele><time>2016-5-22T11:41:33Z</time></trkpt>
<trkpt lat="46.1956717" lon="7.3433333"><ele></ele><time>2016-5-22T11:41:36Z</time></trkpt>
<trkpt lat="46.1956717" lon="7.3433333"><ele></ele><time>2016-5-22T11:41:39Z</time></trkpt>
<trkpt lat="46.1956717" lon="7.3433333"><ele></ele><time>2016-5-22T11:41:42Z</time></trkpt>
<trkpt lat="46.1956717" lon="7.3433333"><ele></ele><time>2016-5-22T11:41:45Z</time></trkpt>
<trkpt lat="46.1956717" lon="7.3433333"><ele></ele><time>2016-5-22T11:41:48Z</time></trkpt>
<trkpt lat="46.1956717" lon="7.3433333"><ele></ele><time>2016-5-22T11:41:51Z</time></trkpt>
<trkpt lat="46.1956717" lon="7.3433333"><ele></ele><time>2016-5-22T11:41:54Z</time></trkpt>
<trkpt lat="46.1956717" lon="7.3433333"><ele></ele><time>2016-5-22T11:41:57Z</time></trkpt>
<trkpt lat="46.1956717" lon="7.3433333"><ele></ele><time>2016-5-22T11:42:0Z</time></trkpt>
<trkpt lat="46.1956717" lon="7.3433333"><ele></ele><time>2016-5-22T11:42:3Z</time></trkpt>
<trkpt lat="46.1956717" lon="7.3433333"><ele></ele><time>2016-5-22T11:42:6Z</time></trkpt>
<trkpt lat="46.1956717" lon="7.3433333"><ele></ele><time>2016-5-22T11:42:9Z</time></trkpt>
<trkpt lat="46.1956717" lon="7.3433333"><ele></ele><time>2016-5-22T11:42:12Z</time></trkpt>
<trkpt lat="46.1956717" lon="7.3433333"><ele></ele><time>2016-5-22T11:42:15Z</time></trkpt>
<trkpt lat="46.1956717" lon="7.3433333"><ele></ele><time>2016-5-22T11:42:18Z</time></trkpt>
<trkpt lat="46.1956717" lon="7.3433333"><ele></ele><time>2016-5-22T11:42:21Z</time></trkpt>
<trkpt lat="46.1956717" lon="7.3433333"><ele></ele><time>2016-5-22T11:42:24Z</time></trkpt>
<trkpt lat="46.1956717" lon="7.3433333"><ele></ele><time>2016-5-22T11:42:27Z</time></trkpt>
<trkpt lat="46.1956717" lon="7.3433333"><ele></ele><time>2016-5-22T11:42:30Z</time></trkpt>
<trkpt lat="46.1956717" lon="7.3433333"><ele></ele><time>2016-5-22T11:42:33Z</time></trkpt>
<trkpt lat="46.1956717" lon="7.3433333"><ele></ele><time>2016-5-22T11:42:36Z</time></trkpt>
<trkpt lat="46.1956717" lon="7.3433333"><ele></ele><time>2016-5-22T11:42:39Z</time></trkpt>
<trkpt lat="46.1956717" lon="7.3433333"><ele></ele><time>2016-5-22T11:42:42Z</time></trkpt>
<trkpt lat="46.1956717" lon="7.3433333"><ele></ele><time>2016-5-22T11:42:45Z</time></trkpt>
<trkpt lat="46.1956717" lon="7.3433333"><ele></ele><time>2016-5-22T11:42:48Z</time></trkpt>
<trkpt lat="46.1956717" lon="7.3433333"><ele></ele><time>2016-5-22T11:42:51Z</time></trkpt>
<trkpt lat="46.1956717" lon="7.3433333"><ele></ele><time>2016-5-22T11:42:54Z</time></trkpt>
<trkpt lat="46.1956717" lon="7.3433333"><ele></ele><time>2016-5-22T11:42:57Z</time></trkpt>
<trkpt lat="46.1956717" lon="7.3433333"><ele></ele><time>2016-5-22T11:43:0Z</time></trkpt>
<trkpt lat="46.1956717" lon="7.3433333"><ele></ele><time>2016-5-22T11:43:3Z</time></trkpt>
<trkpt lat="46.1956717" lon="7.3433333"><ele></ele><time>2016-5-22T11:43:6Z</time></trkpt>
<trkpt lat="46.1956717" lon="7.3433333"><ele></ele><time>2016-5-22T11:43:9Z</time></trkpt>
<trkpt lat="46.1956717" lon="7.3433333"><ele></ele><time>2016-5-22T11:43:12Z</time></trkpt>
<trkpt lat="46.1956717" lon="7.3433333"><ele></ele><time>2016-5-22T11:43:15Z</time></trkpt>
<trkpt lat="46.1956717" lon="7.3433333"><ele></ele><time>2016-5-22T11:43:18Z</time></trkpt>
<trkpt lat="46.1956717" lon="7.3433333"><ele></ele><time>2016-5-22T11:43:21Z</time></trkpt>
<trkpt lat="46.1956717" lon="7.3433333"><ele></ele><time>2016-5-22T11:43:24Z</time></trkpt>
<trkpt lat="46.1956717" lon="7.3433333"><ele></ele><time>2016-5-22T11:43:27Z</time></trkpt>
<trkpt lat="46.1956717" lon="7.3433333"><ele></ele><time>2016-5-22T11:43:30Z</time></trkpt>
<trkpt lat="46.1956717" lon="7.3433333"><ele></ele><time>2016-5-22T11:43:33Z</time></trkpt>
<trkpt lat="46.1956717" lon="7.3433333"><ele></ele><time>2016-5-22T11:43:36Z</time></trkpt>
<trkpt lat="46.1956717" lon="7.3433333"><ele></ele><time>2016-5-22T11:43:39Z</time></trkpt>
<trkpt lat="46.1956717" lon="7.3433333"><ele></ele><time>2016-5-22T11:43:42Z</time></trkpt>
<trkpt lat="46.1956717" lon="7.3433333"><ele></ele><time>2016-5-22T11:43:45Z</time></trkpt>
<trkpt lat="46.1956717" lon="7.3433333"><ele></ele><time>2016-5-22T11:43:48Z</time></trkpt>
<trkpt lat="46.1956717" lon="7.3433333"><ele></ele><time>2016-5-22T11:43:51Z</time></trkpt>
<trkpt lat="46.1956717" lon="7.3433333"><ele></ele><time>2016-5-22T11:43:54Z</time></trkpt>
<trkpt lat="46.1956717" lon="7.3433333"><ele></ele><time>2016-5-22T11:43:57Z</time></trkpt>
<trkpt lat="46.1956717" lon="7.3433333"><ele></ele><time>2016-5-22T11:44:0Z</time></trkpt>
<trkpt lat="46.1956717" lon="7.3433333"><ele></ele><time>2016-5-22T11:44:3Z</time></trkpt>
<trkpt lat="46.1956717" lon="7.3433333"><ele></ele><time>2016-5-22T11:44:6Z</time></trkpt>
<trkpt lat="46.1956717" lon="7.3433333"><ele></ele><time>2016-5-22T11:44:9Z</time></trkpt>
<trkpt lat="46.1956717" lon="7.3433333"><ele></ele><time>2016-5-22T11:44:12Z</time></trkpt>
<trkpt lat="46.1956717" lon="7.3433333"><ele></ele><time>2016-5-22T11:44:15Z</time></trkpt>
<trkpt lat="46.1956717" lon="7.3433333"><ele></ele><time>2016-5-22T11:44:18Z</time></trkpt>
<trkpt lat="46.1956717" lon="7.3433333"><ele></ele><time>2016-5-22T11:44:21Z</time></trkpt>
<trkpt lat="46.1956717" lon="7.3433333"><ele></ele><time>2016-5-22T11:44:24Z</time></trkpt>
<trkpt lat="46.1956717" lon="7.3433333"><ele></ele><time>2016-5-22T11:44:27Z</time></trkpt>
<trkpt lat="46.1956717" lon="7.3433333"><ele></ele><time>2016-5-22T11:44:30Z</time></trkpt>
<trkpt lat="46.1956717" lon="7.3433333"><ele></ele><time>2016-5-22T11:44:33Z</time></trkpt>
<trkpt lat="46.1956717" lon="7.3433333"><ele></ele><time>2016-5-22T11:44:36Z</time></trkpt>
<trkpt lat="46.1956717" lon="7.3433333"><ele></ele><time>2016-5-22T11:44:39Z</time></trkpt>
<trkpt lat="46.1956717" lon="7.3433333"><ele></ele><time>2016-5-22T11:44:42Z</time></trkpt>
<trkpt lat="46.1956717" lon="7.3433333"><ele></ele><time>2016-5-22T11:44:45Z</time></trkpt>
<trkpt lat="46.1956717" lon="7.3433333"><ele></ele><time>2016-5-22T11:44:48Z</time></trkpt>
<trkpt lat="46.1956717" lon="7.3433333"><ele></ele><time>2016-5-22T11:44:51Z</time></trkpt>
<trkpt lat="46.1956717" lon="7.3433333"><ele></ele><time>2016-5-22T11:44:54Z</time></trkpt>
<trkpt lat="46.1956717" lon="7.3433333"><ele></ele><time>2016-5-22T11:44:57Z</time></trkpt>
<trkpt lat="46.1956717" lon="7.3433333"><ele></ele><time>2016-5-22T11:45:0Z</time></trkpt>
<trkpt lat="46.1956717" lon="7.3433333"><ele></ele><time>2016-5-22T11:45:3Z</time></trkpt>
<trkpt lat="46.1956717" lon="7.3433333"><ele></ele><time>2016-5-22T11:45:6Z</time></trkpt>
<trkpt lat="46.1956717" lon="7.3433333"><ele></ele><time>2016-5-22T11:45:9Z</time></trkpt>
<trkpt lat="46.1956717" lon="7.3433333"><ele></ele><time>2016-5-22T11:45:12Z</time></trkpt>
<trkpt lat="46.1956717" lon="7.3433333"><ele></ele><time>2016-5-22T11:45:15Z</time></trkpt>
<trkpt lat="46.1956717" lon="7.3433333"><ele></ele><time>2016-5-22T11:45:18Z</time></trkpt>
<trkpt lat="46.1956717" lon="7.3433333"><ele></ele><time>2016-5-22T11:45:21Z</time></trkpt>
<trkpt lat="46.1956717" lon="7.3433333"><ele></ele><time>2016-5-22T11:45:24Z</time></trkpt>
<trkpt lat="46.1956717" lon="7.3433333"><ele></ele><time>2016-5-22T11:45:27Z</time></trkpt>
<trkpt lat="46.1956717" lon="7.3433333"><ele></ele><time>2016-5-22T11:45:30Z</time></trkpt>
<trkpt lat="46.1956717" lon="7.3433333"><ele></ele><time>2016-5-22T11:45:33Z</time></trkpt>
<trkpt lat="46.1956717" lon="7.3433333"><ele></ele><time>2016-5-22T11:45:36Z</time></trkpt>
<trkpt lat="46.1956717" lon="7.3433333"><ele></ele><time>2016-5-22T11:45:39Z</time></trkpt>
<trkpt lat="46.1956717" lon="7.3433333"><ele></ele><time>2016-5-22T11:45:42Z</time></trkpt>
<trkpt lat="46.1956717" lon="7.3433333"><ele></ele><time>2016-5-22T11:45:45Z</time></trkpt>
<trkpt lat="46.1956717" lon="7.3433333"><ele></ele><time>2016-5-22T11:45:48Z</time></trkpt>
<trkpt lat="46.1956717" lon="7.3433333"><ele></ele><time>2016-5-22T11:45:51Z</time></trkpt>
<trkpt lat="46.1956717" lon="7.3433333"><ele></ele><time>2016-5-22T11:45:54Z</time></trkpt>
<trkpt lat="46.1956717" lon="7.3433333"><ele></ele><time>2016-5-22T11:45:57Z</time></trkpt>
<trkpt lat="46.1956717" lon="7.3433333"><ele></ele><time>2016-5-22T11:46:0Z</time></trkpt>
<trkpt lat="46.1956717" lon="7.3433333"><ele></ele><time>2016-5-22T11:46:3Z</time></trkpt>
<trkpt lat="46.1956717" lon="7.3433333"><ele></ele><time>2016-5-22T11:46:6Z</time></trkpt>
<trkpt lat="46.1956717" lon="7.3433333"><ele></ele><time>2016-5-22T11:46:9Z</time></trkpt>
<trkpt lat="46.1956717" lon="7.3433333"><ele></ele><time>2016-5-22T11:46:12Z</time></trkpt>
<trkpt lat="46.1956717" lon="7.3433333"><ele></ele><time>2016-5-22T11:46:15Z</time></trkpt>
<trkpt lat="46.1956717" lon="7.3433333"><ele></ele><time>2016-5-22T11:46:18Z</time></trkpt>
<trkpt lat="46.1956717" lon="7.3433333"><ele></ele><time>2016-5-22T11:46:21Z</time></trkpt>
<trkpt lat="46.1956717" lon="7.3433333"><ele></ele><time>2016-5-22T11:46:24Z</time></trkpt>
<trkpt lat="46.1956717" lon="7.3433333"><ele></ele><time>2016-5-22T11:46:27Z</time></trkpt>
<trkpt lat="46.1956717" lon="7.3433333"><ele></ele><time>2016-5-22T11:46:30Z</time></trkpt>
<trkpt lat="46.1956717" lon="7.3433333"><ele></ele><time>2016-5-22T11:46:33Z</time></trkpt>
<trkpt lat="46.1956717" lon="7.3433333"><ele></ele><time>2016-5-22T11:46:36Z</time></trkpt>
<trkpt lat="46.1956717" lon="7.3433333"><ele></ele><time>2016-5-22T11:46:39Z</time></trkpt>
<trkpt lat="46.1956717" lon="7.3433333"><ele></ele><time>2016-5-22T11:46:42Z</time></trkpt>
<trkpt lat="46.1956717" lon="7.3433333"><ele></ele><time>2016-5-22T11:46:45Z</time></trkpt>
<trkpt lat="46.1956717" lon="7.3433333"><ele></ele><time>2016-5-22T11:46:48Z</time></trkpt>
<trkpt lat="46.1956717" lon="7.3433333"><ele></ele><time>2016-5-22T11:46:51Z</time></trkpt>
<trkpt lat="46.1956717" lon="7.3433333"><ele></ele><time>2016-5-22T11:46:54Z</time></trkpt>
<trkpt lat="46.1956717" lon="7.3433333"><ele></ele><time>2016-5-22T11:46:57Z</time></trkpt>
<trkpt lat="46.1956717" lon="7.3433333"><ele></ele><time>2016-5-22T11:47:0Z</time></trkpt>
<trkpt lat="46.1956717" lon="7.3433333"><ele></ele><time>2016-5-22T11:47:3Z</time></trkpt>
<trkpt lat="46.1956717" lon="7.3433333"><ele></ele><time>2016-5-22T11:47:6Z</time></trkpt>
<trkpt lat="46.1956717" lon="7.3433333"><ele></ele><time>2016-5-22T11:47:9Z</time></trkpt>
<trkpt lat="46.1956717" lon="7.3433333"><ele></ele><time>2016-5-22T11:47:12Z</time></trkpt>
<trkpt lat="46.1956717" lon="7.3433333"><ele></ele><time>2016-5-22T11:47:15Z</time></trkpt>
<trkpt lat="46.1956717" lon="7.3433333"><ele></ele><time>2016-5-22T11:47:18Z</time></trkpt>
<trkpt lat="46.1956717" lon="7.3433333"><ele></ele><time>2016-5-22T11:47:21Z</time></trkpt>
<trkpt lat="46.1956717" lon="7.3433333"><ele></ele><time>2016-5-22T11:47:24Z</time></trkpt>
<trkpt lat="46.1956717" lon="7.3433333"><ele></ele><time>2016-5-22T11:47:27Z</time></trkpt>
<trkpt lat="46.1956717" lon="7.3433333"><ele></ele><time>2016-5-22T11:47:30Z</time></trkpt>
<trkpt lat="46.1956717" lon="7.3433333"><ele></ele><time>2016-5-22T11:47:33Z</time></trkpt>
<trkpt lat="46.1956717" lon="7.3433333"><ele></ele><time>2016-5-22T11:47:36Z</time></trkpt>
<trkpt lat="46.1956717" lon="7.3433333"><ele></ele><time>2016-5-22T11:47:39Z</time></trkpt>
<trkpt lat="46.1956717" lon="7.3433333"><ele></ele><time>2016-5-22T11:47:42Z</time></trkpt>
<trkpt lat="46.1956717" lon="7.3433333"><ele></ele><time>2016-5-22T11:47:45Z</time></trkpt>
<trkpt lat="46.1956717" lon="7.3433333"><ele></ele><time>2016-5-22T11:47:48Z</time></trkpt>
<trkpt lat="46.1956717" lon="7.3433333"><ele></ele><time>2016-5-22T11:47:51Z</time></trkpt>
<trkpt lat="46.1956717" lon="7.3433333"><ele></ele><time>2016-5-22T11:47:54Z</time></trkpt>
<trkpt lat="46.1956717" lon="7.3433333"><ele></ele><time>2016-5-22T11:47:57Z</time></trkpt>
<trkpt lat="46.1956717" lon="7.3433333"><ele></ele><time>2016-5-22T11:48:0Z</time></trkpt>
<trkpt lat="46.1956717" lon="7.3433333"><ele></ele><time>2016-5-22T11:48:3Z</time></trkpt>
<trkpt lat="46.1956717" lon="7.3433333"><ele></ele><time>2016-5-22T11:48:6Z</time></trkpt>
<trkpt lat="46.1956717" lon="7.3433333"><ele></ele><time>2016-5-22T11:48:9Z</time></trkpt>
<trkpt lat="46.1956717" lon="7.3433333"><ele></ele><time>2016-5-22T11:48:12Z</time></trkpt>
<trkpt lat="46.1956717" lon="7.3433333"><ele></ele><time>2016-5-22T11:48:15Z</time></trkpt>
<trkpt lat="46.1956717" lon="7.3433333"><ele></ele><time>2016-5-22T11:48:18Z</time></trkpt>
<trkpt lat="46.1956717" lon="7.3433333"><ele></ele><time>2016-5-22T11:48:21Z</time></trkpt>
<trkpt lat="46.1956717" lon="7.3433333"><ele></ele><time>2016-5-22T11:48:24Z</time></trkpt>
<trkpt lat="46.1956717" lon="7.3433333"><ele></ele><time>2016-5-22T11:48:27Z</time></trkpt>
<trkpt lat="46.1956717" lon="7.3433333"><ele></ele><time>2016-5-22T11:48:30Z</time></trkpt>
<trkpt lat="46.1956717" lon="7.3433333"><ele></ele><time>2016-5-22T11:48:33Z</time></trkpt>
<trkpt lat="46.1956717" lon="7.3433333"><ele></ele><time>2016-5-22T11:48:36Z</time></trkpt>
<trkpt lat="46.1956717" lon="7.3433333"><ele></ele><time>2016-5-22T11:48:39Z</time></trkpt>
<trkpt lat="46.1956717" lon="7.3433333"><ele></ele><time>2016-5-22T11:48:42Z</time></trkpt>
<trkpt lat="46.1956717" lon="7.3433333"><ele></ele><time>2016-5-22T11:48:45Z</time></trkpt>
<trkpt lat="46.1956717" lon="7.3433333"><ele></ele><time>2016-5-22T11:48:48Z</time></trkpt>
<trkpt lat="46.1956717" lon="7.3433333"><ele></ele><time>2016-5-22T11:48:51Z</time></trkpt>
<trkpt lat="46.1956717" lon="7.3433333"><ele></ele><time>2016-5-22T11:48:54Z</time></trkpt>
<trkpt lat="46.1956717" lon="7.3433333"><ele></ele><time>2016-5-22T11:48:57Z</time></trkpt>
<trkpt lat="46.1956717" lon="7.3433333"><ele></ele><time>2016-5-22T11:49:0Z</time></trkpt>
<trkpt lat="46.1956717" lon="7.3433333"><ele></ele><time>2016-5-22T11:49:3Z</time></trkpt>
<trkpt lat="46.1956717" lon="7.3433333"><ele></ele><time>2016-5-22T11:49:6Z</time></trkpt>
<trkpt lat="46.1956717" lon="7.3433333"><ele></ele><time>2016-5-22T11:49:9Z</time></trkpt>
<trkpt lat="46.1956717" lon="7.3433333"><ele></ele><time>2016-5-22T11:49:12Z</time></trkpt>
<trkpt lat="46.1956717" lon="7.3433333"><ele></ele><time>2016-5-22T11:49:15Z</time></trkpt>
<trkpt lat="46.1956717" lon="7.3433333"><ele></ele><time>2016-5-22T11:49:18Z</time></trkpt>
<trkpt lat="46.1956717" lon="7.3433333"><ele></ele><time>2016-5-22T11:49:21Z</time></trkpt>
<trkpt lat="46.1956717" lon="7.3433333"><ele></ele><time>2016-5-22T11:49:24Z</time></trkpt>
<trkpt lat="46.1956717" lon="7.3433333"><ele></ele><time>2016-5-22T11:49:27Z</time></trkpt>
<trkpt lat="46.1956717" lon="7.3433333"><ele></ele><time>2016-5-22T11:49:30Z</time></trkpt>
<trkpt lat="46.1956717" lon="7.3433333"><ele></ele><time>2016-5-22T11:49:33Z</time></trkpt>
<trkpt lat="46.1956717" lon="7.3433333"><ele></ele><time>2016-5-22T11:49:36Z</time></trkpt>
<trkpt lat="46.1956717" lon="7.3433333"><ele></ele><time>2016-5-22T11:49:39Z</time></trkpt>
<trkpt lat="46.1956717" lon="7.3433333"><ele></ele><time>2016-5-22T11:49:42Z</time></trkpt>
<trkpt lat="46.1956717" lon="7.3433333"><ele></ele><time>2016-5-22T11:49:45Z</time></trkpt>
<trkpt lat="46.1956717" lon="7.3433333"><ele></ele><time>2016-5-22T11:49:48Z</time></trkpt>
<trkpt lat="46.1956717" lon="7.3433333"><ele></ele><time>2016-5-22T11:49:51Z</time></trkpt>
<trkpt lat="46.1956717" lon="7.3433333"><ele></ele><time>2016-5-22T11:49:54Z</time></trkpt>
<trkpt lat="46.1956717" lon="7.3433333"><ele></ele><time>2016-5-22T11:49:57Z</time></trkpt>
<trkpt lat="46.1956717" lon="7.3433333"><ele></ele><time>2016-5-22T11:50:0Z</time></trkpt>
<trkpt lat="46.1956717" lon="7.3433333"><ele></ele><time>2016-5-22T11:50:3Z</time></trkpt>
<trkpt lat="46.1956717" lon="7.3433333"><ele></ele><time>2016-5-22T11:50:6Z</time></trkpt>
<trkpt lat="46.1956717" lon="7.3433333"><ele></ele><time>2016-5-22T11:50:9Z</time></trkpt>
<trkpt lat="46.1956717" lon="7.3433333"><ele></ele><time>2016-5-22T11:50:12Z</time></trkpt>
<trkpt lat="46.1956717" lon="7.3433333"><ele></ele><time>2016-5-22T11:50:15Z</time></trkpt>
<trkpt lat="46.1956717" lon="7.3433333"><ele></ele><time>2016-5-22T11:50:18Z</time></trkpt>
<trkpt lat="46.1956717" lon="7.3433333"><ele></ele><time>2016-5-22T11:50:21Z</time></trkpt>
<trkpt lat="46.1956717" lon="7.3433333"><ele></ele><time>2016-5-22T11:50:24Z</time></trkpt>
<trkpt lat="46.1956717" lon="7.3433333"><ele></ele><time>2016-5-22T11:50:27Z</time></trkpt>
<trkpt lat="46.1956717" lon="7.3433333"><ele></ele><time>2016-5-22T11:50:30Z</time></trkpt>
<trkpt lat="46.1956717" lon="7.3433333"><ele></ele><time>2016-5-22T11:50:33Z</time></trkpt>
<trkpt lat="46.1956717" lon="7.3433333"><ele></ele><time>2016-5-22T11:50:36Z</time></trkpt>
<trkpt lat="46.1956717" lon="7.3433333"><ele></ele><time>2016-5-22T11:50:39Z</time></trkpt>
<trkpt lat="46.1956717" lon="7.3433333"><ele></ele><time>2016-5-22T11:50:42Z</time></trkpt>
<trkpt lat="46.1956717" lon="7.3433333"><ele></ele><time>2016-5-22T11:50:45Z</time></trkpt>
<trkpt lat="46.1956717" lon="7.3433333"><ele></ele><time>2016-5-22T11:50:48Z</time></trkpt>
<trkpt lat="46.1956717" lon="7.3433333"><ele></ele><time>2016-5-22T11:50:51Z</time></trkpt>
<trkpt lat="46.1956717" lon="7.3433333"><ele></ele><time>2016-5-22T11:50:54Z</time></trkpt>
<trkpt lat="46.1956717" lon="7.3433333"><ele></ele><time>2016-5-22T11:50:57Z</time></trkpt>
<trkpt lat="46.1956717" lon="7.3433333"><ele></ele><time>2016-5-22T11:51:0Z</time></trkpt>
<trkpt lat="46.1956717" lon="7.3433333"><ele></ele><time>2016-5-22T11:51:3Z</time></trkpt>
<trkpt lat="46.1956717" lon="7.3433333"><ele></ele><time>2016-5-22T11:51:6Z</time></trkpt>
<trkpt lat="46.1956717" lon="7.3433333"><ele></ele><time>2016-5-22T11:51:9Z</time></trkpt>
<trkpt lat="46.1956717" lon="7.3433333"><ele></ele><time>2016-5-22T11:51:12Z</time></trkpt>
<trkpt lat="46.1956717" lon="7.3433333"><ele></ele><time>2016-5-22T11:51:15Z</time></trkpt>
<trkpt lat="46.1956717" lon="7.3433333"><ele></ele><time>2016-5-22T11:51:18Z</time></trkpt>
<trkpt lat="46.1956717" lon="7.3433333"><ele></ele><time>2016-5-22T11:51:21Z</time></trkpt>
<trkpt lat="46.1956717" lon="7.3433333"><ele></ele><time>2016-5-22T11:51:24Z</time></trkpt>
<trkpt lat="46.1956717" lon="7.3433333"><ele></ele><time>2016-5-22T11:51:27Z</time></trkpt>
<trkpt lat="46.1956717" lon="7.3433333"><ele></ele><time>2016-5-22T11:51:30Z</time></trkpt>
<trkpt lat="46.1956717" lon="7.3433333"><ele></ele><time>2016-5-22T11:51:33Z</time></trkpt>
<trkpt lat="46.1956717" lon="7.3433333"><ele></ele><time>2016-5-22T11:51:36Z</time></trkpt>
<trkpt lat="46.1956717" lon="7.3433333"><ele></ele><time>2016-5-22T11:51:39Z</time></trkpt>
<trkpt lat="46.1956717" lon="7.3433333"><ele></ele><time>2016-5-22T11:51:42Z</time></trkpt>
<trkpt lat="46.1956717" lon="7.3433333"><ele></ele><time>2016-5-22T11:51:45Z</time></trkpt>
<trkpt lat="46.1956717" lon="7.3433333"><ele></ele><time>2016-5-22T11:51:48Z</time></trkpt>
<trkpt lat="46.1956717" lon="7.3433333"><ele></ele><time>2016-5-22T11:51:51Z</time></trkpt>
<trkpt lat="46.1956717" lon="7.3433333"><ele></ele><time>2016-5-22T11:51:54Z</time></trkpt>
<trkpt lat="46.1956717" lon="7.3433333"><ele></ele><time>2016-5-22T11:51:57Z</time></trkpt>
<trkpt lat="46.1956717" lon="7.3433333"><ele></ele><time>2016-5-22T11:52:0Z</time></trkpt>
<trkpt lat="46.1956717" lon="7.3433333"><ele></ele><time>2016-5-22T11:52:3Z</time></trkpt>
<trkpt lat="46.1956717" lon="7.3433333"><ele></ele><time>2016-5-22T11:52:6Z</time></trkpt>
<trkpt lat="46.1956717" lon="7.3433333"><ele></ele><time>2016-5-22T11:52:9Z</time></trkpt>
<trkpt lat="46.1956717" lon="7.3433333"><ele></ele><time>2016-5-22T11:52:12Z</time></trkpt>
<trkpt lat="46.1956717" lon="7.3433333"><ele></ele><time>2016-5-22T11:52:15Z</time></trkpt>
<trkpt lat="46.1956717" lon="7.3433333"><ele></ele><time>2016-5-22T11:52:18Z</time></trkpt>
<trkpt lat="46.1956717" lon="7.3433333"><ele></ele><time>2016-5-22T11:52:21Z</time></trkpt>
<trkpt lat="46.1956717" lon="7.3433333"><ele></ele><time>2016-5-22T11:52:24Z</time></trkpt>
<trkpt lat="46.1956717" lon="7.3433333"><ele></ele><time>2016-5-22T11:52:27Z</time></trkpt>
<trkpt lat="46.1956717" lon="7.3433333"><ele></ele><time>2016-5-22T11:52:30Z</time></trkpt>
<trkpt lat="46.1956717" lon="7.3433333"><ele></ele><time>2016-5-22T11:52:33Z</time></trkpt>
<trkpt lat="46.1956717" lon="7.3433333"><ele></ele><time>2016-5-22T11:52:36Z</time></trkpt>
<trkpt lat="46.1956717" lon="7.3433333"><ele></ele><time>2016-5-22T11:52:39Z</time></trkpt>
<trkpt lat="46.1956717" lon="7.3433333"><ele></ele><time>2016-5-22T11:52:42Z</time></trkpt>
<trkpt lat="46.1956717" lon="7.3433333"><ele></ele><time>2016-5-22T11:52:45Z</time></trkpt>
<trkpt lat="46.1956717" lon="7.3433333"><ele></ele><time>2016-5-22T11:52:48Z</time></trkpt>
<trkpt lat="46.1956717" lon="7.3433333"><ele></ele><time>2016-5-22T11:52:51Z</time></trkpt>
<trkpt lat="46.1956717" lon="7.3433333"><ele></ele><time>2016-5-22T11:52:54Z</time></trkpt>
<trkpt lat="46.1956717" lon="7.3433333"><ele></ele><time>2016-5-22T11:52:57Z</time></trkpt>
<trkpt lat="46.1956717" lon="7.3433333"><ele></ele><time>2016-5-22T11:53:0Z</time></trkpt>
<trkpt lat="46.1956717" lon="7.3433333"><ele></ele><time>2016-5-22T11:53:3Z</time></trkpt>
<trkpt lat="46.1956717" lon="7.3433333"><ele></ele><time>2016-5-22T11:53:6Z</time></trkpt>
<trkpt lat="46.1956717" lon="7.3433333"><ele></ele><time>2016-5-22T11:53:9Z</time></trkpt>
<trkpt lat="46.1956717" lon="7.3433333"><ele></ele><time>2016-5-22T11:53:12Z</time></trkpt>
<trkpt lat="46.1956717" lon="7.3433333"><ele></ele><time>2016-5-22T11:53:15Z</time></trkpt>
<trkpt lat="46.1956717" lon="7.3433333"><ele></ele><time>2016-5-22T11:53:18Z</time></trkpt>
<trkpt lat="46.1956717" lon="7.3433333"><ele></ele><time>2016-5-22T11:53:21Z</time></trkpt>
<trkpt lat="46.1956717" lon="7.3433333"><ele></ele><time>2016-5-22T11:53:24Z</time></trkpt>
<trkpt lat="46.1956717" lon="7.3433333"><ele></ele><time>2016-5-22T11:53:27Z</time></trkpt>
<trkpt lat="46.1956717" lon="7.3433333"><ele></ele><time>2016-5-22T11:53:30Z</time></trkpt>
<trkpt lat="46.1956717" lon="7.3433333"><ele></ele><time>2016-5-22T11:53:33Z</time></trkpt>
<trkpt lat="46.1956717" lon="7.3433333"><ele></ele><time>2016-5-22T11:53:36Z</time></trkpt>
<trkpt lat="46.1956717" lon="7.3433333"><ele></ele><time>2016-5-22T11:53:39Z</time></trkpt>
<trkpt lat="46.1956717" lon="7.3433333"><ele></ele><time>2016-5-22T11:53:42Z</time></trkpt>
<trkpt lat="46.1956717" lon="7.3433333"><ele></ele><time>2016-5-22T11:53:45Z</time></trkpt>
<trkpt lat="46.1956717" lon="7.3433333"><ele></ele><time>2016-5-22T11:53:48Z</time></trkpt>
<trkpt lat="46.1956717" lon="7.3433333"><ele></ele><time>2016-5-22T11:53:51Z</time></trkpt>
<trkpt lat="46.1956717" lon="7.3433333"><ele></ele><time>2016-5-22T11:53:54Z</time></trkpt>
<trkpt lat="46.1956717" lon="7.3433333"><ele></ele><time>2016-5-22T11:53:57Z</time></trkpt>
<trkpt lat="46.1956717" lon="7.3433333"><ele></ele><time>2016-5-22T11:54:0Z</time></trkpt>
<trkpt lat="46.1956717" lon="7.3433333"><ele></ele><time>2016-5-22T11:54:3Z</time></trkpt>
<trkpt lat="46.1956717" lon="7.3433333"><ele></ele><time>2016-5-22T11:54:6Z</time></trkpt>
<trkpt lat="46.1956717" lon="7.3433333"><ele></ele><time>2016-5-22T11:54:9Z</time></trkpt>
<trkpt lat="46.1956717" lon="7.3433333"><ele></ele><time>2016-5-22T11:54:12Z</time></trkpt>
<trkpt lat="46.1956717" lon="7.3433333"><ele></ele><time>2016-5-22T11:54:15Z</time></trkpt>
<trkpt lat="46.1956717" lon="7.3433333"><ele></ele><time>2016-5-22T11:54:18Z</time></trkpt>
<trkpt lat="46.1956717" lon="7.3433333"><ele></ele><time>2016-5-22T11:54:21Z</time></trkpt>
<trkpt lat="46.1956717" lon="7.3433333"><ele></ele><time>2016-5-22T11:54:24Z</time></trkpt>
<trkpt lat="46.1956717" lon="7.3433333"><ele></ele><time>2016-5-22T11:54:27Z</time></trkpt>
<trkpt lat="46.1956717" lon="7.3433333"><ele></ele><time>2016-5-22T11:54:30Z</time></trkpt>
<trkpt lat="46.1956717" lon="7.3433333"><ele></ele><time>2016-5-22T11:54:33Z</time></trkpt>
<trkpt lat="46.1956717" lon="7.3433333"><ele></ele><time>2016-5-22T11:54:36Z</time></trkpt>
<trkpt lat="46.1956717" lon="7.3433333"><ele></ele><time>2016-5-22T11:54:39Z</time></trkpt>
<trkpt lat="46.1956717" lon="7.3433333"><ele></ele><time>2016-5-22T11:54:42Z</time></trkpt>
<trkpt lat="46.1956717" lon="7.3433333"><ele></ele><time>2016-5-22T11:54:45Z</time></trkpt>
<trkpt lat="46.1956717" lon="7.3433333"><ele></ele><time>2016-5-22T11:54:48Z</time></trkpt>
<trkpt lat="46.1956717" lon="7.3433333"><ele></ele><time>2016-5-22T11:54:51Z</time></trkpt>
<trkpt lat="46.1956717" lon="7.3433333"><ele></ele><time>2016-5-22T11:54:54Z</time></trkpt>
<trkpt lat="46.1956717" lon="7.3433333"><ele></ele><time>2016-5-22T11:54:57Z</time></trkpt>
<trkpt lat="46.1956717" lon="7.3433333"><ele></ele><time>2016-5-22T11:55:0Z</time></trkpt>
<trkpt lat="46.1956717" lon="7.3433333"><ele></ele><time>2016-5-22T11:55:3Z</time></trkpt>
<trkpt lat="46.1956717" lon="7.3433333"><ele></ele><time>2016-5-22T11:55:6Z</time></trkpt>
<trkpt lat="46.1956717" lon="7.3433333"><ele></ele><time>2016-5-22T11:55:9Z</time></trkpt>
<trkpt lat="46.1956717" lon="7.3433333"><ele></ele><time>2016-5-22T11:55:12Z</time></trkpt>
<trkpt lat="46.1956717" lon="7.3433333"><ele></ele><time>2016-5-22T11:55:15Z</time></trkpt>
<trkpt lat="46.1956717" lon="7.3433333"><ele></ele><time>2016-5-22T11:55:18Z</time></trkpt>
<trkpt lat="46.1956717" lon="7.3433333"><ele></ele><time>2016-5-22T11:55:21Z</time></trkpt>
<trkpt lat="46.1956717" lon="7.3433333"><ele></ele><time>2016-5-22T11:55:24Z</time></trkpt>
<trkpt lat="46.1956717" lon="7.3433333"><ele></ele><time>2016-5-22T11:55:27Z</time></trkpt>
<trkpt lat="46.1956717" lon="7.3433333"><ele></ele><time>2016-5-22T11:55:30Z</time></trkpt>
<trkpt lat="46.1956717" lon="7.3433333"><ele></ele><time>2016-5-22T11:55:33Z</time></trkpt>
<trkpt lat="46.1956717" lon="7.3433333"><ele></ele><time>2016-5-22T11:55:36Z</time></trkpt>
<trkpt lat="46.1956717" lon="7.3433333"><ele></ele><time>2016-5-22T11:55:39Z</time></trkpt>
<trkpt lat="46.1956717" lon="7.3433333"><ele></ele><time>2016-5-22T11:55:42Z</time></trkpt>
<trkpt lat="46.1956717" lon="7.3433333"><ele></ele><time>2016-5-22T11:55:45Z</time></trkpt>
<trkpt lat="46.1956717" lon="7.3433333"><ele></ele><time>2016-5-22T11:55:48Z</time></trkpt>
<trkpt lat="46.1956717" lon="7.3433333"><ele></ele><time>2016-5-22T11:55:51Z</time></trkpt>
<trkpt lat="46.1956717" lon="7.3433333"><ele></ele><time>2016-5-22T11:55:54Z</time></trkpt>
<trkpt lat="46.1956717" lon="7.3433333"><ele></ele><time>2016-5-22T11:55:57Z</time></trkpt>
<trkpt lat="46.1956717" lon="7.3433333"><ele></ele><time>2016-5-22T11:56:0Z</time></trkpt>
<trkpt lat="46.1956717" lon="7.3433333"><ele></ele><time>2016-5-22T11:56:3Z</time></trkpt>
<trkpt lat="46.1956717" lon="7.3433333"><ele></ele><time>2016-5-22T11:56:6Z</time></trkpt>
<trkpt lat="46.1956717" lon="7.3433333"><ele></ele><time>2016-5-22T11:56:9Z</time></trkpt>
<trkpt lat="46.1956717" lon="7.3433333"><ele></ele><time>2016-5-22T11:56:12Z</time></trkpt>
<trkpt lat="46.1956717" lon="7.3433333"><ele></ele><time>2016-5-22T11:56:15Z</time></trkpt>
<trkpt lat="46.1956717" lon="7.3433333"><ele></ele><time>2016-5-22T11:56:18Z</time></trkpt>
<trkpt lat="46.1956717" lon="7.3433333"><ele></ele><time>2016-5-22T11:56:21Z</time></trkpt>
<trkpt lat="46.1956717" lon="7.3433333"><ele></ele><time>2016-5-22T11:56:24Z</time></trkpt>
<trkpt lat="46.1956717" lon="7.3433333"><ele></ele><time>2016-5-22T11:56:27Z</time></trkpt>
<trkpt lat="46.1956717" lon="7.3433333"><ele></ele><time>2016-5-22T11:56:30Z</time></trkpt>
<trkpt lat="46.1956717" lon="7.3433333"><ele></ele><time>2016-5-22T11:56:33Z</time></trkpt>
<trkpt lat="46.1956717" lon="7.3433333"><ele></ele><time>2016-5-22T11:56:36Z</time></trkpt>
<trkpt lat="46.1956717" lon="7.3433333"><ele></ele><time>2016-5-22T11:56:39Z</time></trkpt>
<trkpt lat="46.1956717" lon="7.3433333"><ele></ele><time>2016-5-22T11:56:42Z</time></trkpt>
<trkpt lat="46.1956717" lon="7.3433333"><ele></ele><time>2016-5-22T11:56:45Z</time></trkpt>
<trkpt lat="46.1956717" lon="7.3433333"><ele></ele><time>2016-5-22T11:56:48Z</time></trkpt>
<trkpt lat="46.1956717" lon="7.3433333"><ele></ele><time>2016-5-22T11:56:51Z</time></trkpt>
<trkpt lat="46.1956717" lon="7.3433333"><ele></ele><time>2016-5-22T11:56:54Z</time></trkpt>
<trkpt lat="46.1956717" lon="7.3433333"><ele></ele><time>2016-5-22T11:56:57Z</time></trkpt>
<trkpt lat="46.1956717" lon="7.3433333"><ele></ele><time>2016-5-22T11:57:0Z</time></trkpt>
<trkpt lat="46.1956717" lon="7.3433333"><ele></ele><time>2016-5-22T11:57:3Z</time></trkpt>
<trkpt lat="46.1956717" lon="7.3433333"><ele></ele><time>2016-5-22T11:57:6Z</time></trkpt>
<trkpt lat="46.1956717" lon="7.3433333"><ele></ele><time>2016-5-22T11:57:9Z</time></trkpt>
<trkpt lat="46.1956717" lon="7.3433333"><ele></ele><time>2016-5-22T11:57:12Z</time></trkpt>
<trkpt lat="46.1956717" lon="7.3433333"><ele></ele><time>2016-5-22T11:57:15Z</time></trkpt>
<trkpt lat="46.1956717" lon="7.3433333"><ele></ele><time>2016-5-22T11:57:18Z</time></trkpt>
<trkpt lat="46.1956717" lon="7.3433333"><ele></ele><time>2016-5-22T11:57:21Z</time></trkpt>
<trkpt lat="46.1956717" lon="7.3433333"><ele></ele><time>2016-5-22T11:57:24Z</time></trkpt>
<trkpt lat="46.1956717" lon="7.3433333"><ele></ele><time>2016-5-22T11:57:27Z</time></trkpt>
<trkpt lat="46.1956717" lon="7.3433333"><ele></ele><time>2016-5-22T11:57:30Z</time></trkpt>
<trkpt lat="46.1956717" lon="7.3433333"><ele></ele><time>2016-5-22T11:57:33Z</time></trkpt>
<trkpt lat="46.1956717" lon="7.3433333"><ele></ele><time>2016-5-22T11:57:36Z</time></trkpt>
<trkpt lat="46.1956717" lon="7.3433333"><ele></ele><time>2016-5-22T11:57:39Z</time></trkpt>
<trkpt lat="46.1956717" lon="7.3433333"><ele></ele><time>2016-5-22T11:57:42Z</time></trkpt>
<trkpt lat="46.1956717" lon="7.3433333"><ele></ele><time>2016-5-22T11:57:45Z</time></trkpt>
<trkpt lat="46.1956717" lon="7.3433333"><ele></ele><time>2016-5-22T11:57:48Z</time></trkpt>
<trkpt lat="46.1956717" lon="7.3433333"><ele></ele><time>2016-5-22T11:57:51Z</time></trkpt>
<trkpt lat="46.1956717" lon="7.3433333"><ele></ele><time>2016-5-22T11:57:54Z</time></trkpt>
<trkpt lat="46.1956717" lon="7.3433333"><ele></ele><time>2016-5-22T11:57:57Z</time></trkpt>
<trkpt lat="46.1956717" lon="7.3433333"><ele></ele><time>2016-5-22T11:58:0Z</time></trkpt>
<trkpt lat="46.1956717" lon="7.3433333"><ele></ele><time>2016-5-22T11:58:3Z</time></trkpt>
<trkpt lat="46.1956717" lon="7.3433333"><ele></ele><time>2016-5-22T11:58:6Z</time></trkpt>
<trkpt lat="46.1956717" lon="7.3433333"><ele></ele><time>2016-5-22T11:58:9Z</time></trkpt>
<trkpt lat="46.1956717" lon="7.3433333"><ele></ele><time>2016-5-22T11:58:12Z</time></trkpt>
<trkpt lat="46.1956717" lon="7.3433333"><ele></ele><time>2016-5-22T11:58:15Z</time></trkpt>
<trkpt lat="46.1956717" lon="7.3433333"><ele></ele><time>2016-5-22T11:58:18Z</time></trkpt>
<trkpt lat="46.1956717" lon="7.3433333"><ele></ele><time>2016-5-22T11:58:21Z</time></trkpt>
<trkpt lat="46.1956717" lon="7.3433333"><ele></ele><time>2016-5-22T11:58:24Z</time></trkpt>
<trkpt lat="46.1956717" lon="7.3433333"><ele></ele><time>2016-5-22T11:58:27Z</time></trkpt>
<trkpt lat="46.1956717" lon="7.3433333"><ele></ele><time>2016-5-22T11:58:30Z</time></trkpt>
<trkpt lat="46.1956717" lon="7.3433333"><ele></ele><time>2016-5-22T11:58:33Z</time></trkpt>
<trkpt lat="46.1956717" lon="7.3433333"><ele></ele><time>2016-5-22T11:58:36Z</time></trkpt>
<trkpt lat="46.1956717" lon="7.3433333"><ele></ele><time>2016-5-22T11:58:39Z</time></trkpt>
<trkpt lat="46.1956717" lon="7.3433333"><ele></ele><time>2016-5-22T11:58:42Z</time></trkpt>
<trkpt lat="46.1956717" lon="7.3433333"><ele></ele><time>2016-5-22T11:58:45Z</time></trkpt>
<trkpt lat="46.1956717" lon="7.3433333"><ele></ele><time>2016-5-22T11:58:48Z</time></trkpt>
<trkpt lat="46.1956717" lon="7.3433333"><ele></ele><time>2016-5-22T11:58:51Z</time></trkpt>
<trkpt lat="46.1956717" lon="7.3433333"><ele></ele><time>2016-5-22T11:58:54Z</time></trkpt>
<trkpt lat="46.1956717" lon="7.3433333"><ele></ele><time>2016-5-22T11:58:57Z</time></trkpt>
<trkpt lat="46.1956717" lon="7.3433333"><ele></ele><time>2016-5-22T11:59:0Z</time></trkpt>
<trkpt lat="46.1956717" lon="7.3433333"><ele></ele><time>2016-5-22T11:59:3Z</time></trkpt>
<trkpt lat="46.1956717" lon="7.3433333"><ele></ele><time>2016-5-22T11:59:6Z</time></trkpt>
<trkpt lat="46.1956717" lon="7.3433333"><ele></ele><time>2016-5-22T11:59:9Z</time></trkpt>
<trkpt lat="46.1956717" lon="7.3433333"><ele></ele><time>2016-5-22T11:59:12Z</time></trkpt>
<trkpt lat="46.1956717" lon="7.3433333"><ele></ele><time>2016-5-22T11:59:15Z</time></trkpt>
<trkpt lat="46.1956717" lon="7.3433333"><ele></ele><time>2016-5-22T11:59:18Z</time></trkpt>
<trkpt lat="46.1956717" lon="7.3433333"><ele></ele><time>2016-5-22T11:59:21Z</time></trkpt>
<trkpt lat="46.1956717" lon="7.3433333"><ele></ele><time>2016-5-22T11:59:24Z</time></trkpt>
<trkpt lat="46.1956717" lon="7.3433333"><ele></ele><time>2016-5-22T11:59:27Z</time></trkpt>
<trkpt lat="46.1956717" lon="7.3433333"><ele></ele><time>2016-5-22T11:59:30Z</time></trkpt>
<trkpt lat="46.1956717" lon="7.3433333"><ele></ele><time>2016-5-22T11:59:33Z</time></trkpt>
<trkpt lat="46.1956717" lon="7.3433333"><ele></ele><time>2016-5-22T11:59:36Z</time></trkpt>
<trkpt lat="46.1956717" lon="7.3433333"><ele></ele><time>2016-5-22T11:59:39Z</time></trkpt>
<trkpt lat="46.1956717" lon="7.3433333"><ele></ele><time>2016-5-22T11:59:42Z</time></trkpt>
<trkpt lat="46.1956717" lon="7.3433333"><ele></ele><time>2016-5-22T11:59:45Z</time></trkpt>
<trkpt lat="46.1956717" lon="7.3433333"><ele></ele><time>2016-5-22T11:59:48Z</time></trkpt>
<trkpt lat="46.1956717" lon="7.3433333"><ele></ele><time>2016-5-22T11:59:51Z</time></trkpt>
<trkpt lat="46.1956717" lon="7.3433333"><ele></ele><time>2016-5-22T11:59:54Z</time></trkpt>
<trkpt lat="46.1956717" lon="7.3433333"><ele></ele><time>2016-5-22T11:59:57Z</time></trkpt>
<trkpt lat="46.1956717" lon="7.3433333"><ele></ele><time>2016-5-22T12:0:0Z</time></trkpt>
<trkpt lat="46.1956717" lon="7.3433333"><ele></ele><time>2016-5-22T12:0:3Z</time></trkpt>
<trkpt lat="46.1956717" lon="7.3433333"><ele></ele><time>2016-5-22T12:0:6Z</time></trkpt>
<trkpt lat="46.1956717" lon="7.3433333"><ele></ele><time>2016-5-22T12:0:9Z</time></trkpt>
<trkpt lat="46.1956717" lon="7.3433333"><ele></ele><time>2016-5-22T12:0:12Z</time></trkpt>
<trkpt lat="46.1956717" lon="7.3433333"><ele></ele><time>2016-5-22T12:0:15Z</time></trkpt>
<trkpt lat="46.1956717" lon="7.3433333"><ele></ele><time>2016-5-22T12:0:18Z</time></trkpt>
<trkpt lat="46.1956717" lon="7.3433333"><ele></ele><time>2016-5-22T12:0:21Z</time></trkpt>
<trkpt lat="46.1956717" lon="7.3433333"><ele></ele><time>2016-5-22T12:0:24Z</time></trkpt>
<trkpt lat="46.1956717" lon="7.3433333"><ele></ele><time>2016-5-22T12:0:27Z</time></trkpt>
<trkpt lat="46.1956717" lon="7.3433333"><ele></ele><time>2016-5-22T12:0:30Z</time></trkpt>
<trkpt lat="46.1956717" lon="7.3433333"><ele></ele><time>2016-5-22T12:0:33Z</time></trkpt>
<trkpt lat="46.1956717" lon="7.3433333"><ele></ele><time>2016-5-22T12:0:36Z</time></trkpt>
<trkpt lat="46.1956717" lon="7.3433333"><ele></ele><time>2016-5-22T12:0:39Z</time></trkpt>
<trkpt lat="46.1956717" lon="7.3433333"><ele></ele><time>2016-5-22T12:0:42Z</time></trkpt>
<trkpt lat="46.1956717" lon="7.3433333"><ele></ele><time>2016-5-22T12:0:45Z</time></trkpt>
<trkpt lat="46.1956717" lon="7.3433333"><ele></ele><time>2016-5-22T12:0:48Z</time></trkpt>
<trkpt lat="46.1956717" lon="7.3433333"><ele></ele><time>2016-5-22T12:0:51Z</time></trkpt>
<trkpt lat="46.1956717" lon="7.3433333"><ele></ele><time>2016-5-22T12:0:54Z</time></trkpt>
<trkpt lat="46.1956717" lon="7.3433333"><ele></ele><time>2016-5-22T12:0:57Z</time></trkpt>
<trkpt lat="46.1956717" lon="7.3433333"><ele></ele><time>2016-5-22T12:1:0Z</time></trkpt>
<trkpt lat="46.1956717" lon="7.3433333"><ele></ele><time>2016-5-22T12:1:3Z</time></trkpt>
<trkpt lat="46.1956717" lon="7.3433333"><ele></ele><time>2016-5-22T12:1:6Z</time></trkpt>
<trkpt lat="46.1956717" lon="7.3433333"><ele></ele><time>2016-5-22T12:1:9Z</time></trkpt>
<trkpt lat="46.1956717" lon="7.3433333"><ele></ele><time>2016-5-22T12:1:12Z</time></trkpt>
<trkpt lat="46.1956717" lon="7.3433333"><ele></ele><time>2016-5-22T12:1:15Z</time></trkpt>
<trkpt lat="46.1956717" lon="7.3433333"><ele></ele><time>2016-5-22T12:1:18Z</time></trkpt>
<trkpt lat="46.1956717" lon="7.3433333"><ele></ele><time>2016-5-22T12:1:21Z</time></trkpt>
<trkpt lat="46.1956717" lon="7.3433333"><ele></ele><time>2016-5-22T12:1:24Z</time></trkpt>
<trkpt lat="46.1956717" lon="7.3433333"><ele></ele><time>2016-5-22T12:1:27Z</time></trkpt>
<trkpt lat="46.1956717" lon="7.3433333"><ele></ele><time>2016-5-22T12:1:30Z</time></trkpt>
<trkpt lat="46.1956717" lon="7.3433333"><ele></ele><time>2016-5-22T12:1:33Z</time></trkpt>
<trkpt lat="46.1956717" lon="7.3433333"><ele></ele><time>2016-5-22T12:1:36Z</time></trkpt>
<trkpt lat="46.1956717" lon="7.3433333"><ele></ele><time>2016-5-22T12:1:39Z</time></trkpt>
<trkpt lat="46.1956717" lon="7.3433333"><ele></ele><time>2016-5-22T12:1:42Z</time></trkpt>
<trkpt lat="46.1956717" lon="7.3433333"><ele></ele><time>2016-5-22T12:1:45Z</time></trkpt>
<trkpt lat="46.1956717" lon="7.3433333"><ele></ele><time>2016-5-22T12:1:48Z</time></trkpt>
<trkpt lat="46.1956717" lon="7.3433333"><ele></ele><time>2016-5-22T12:1:51Z</time></trkpt>
<trkpt lat="46.1956717" lon="7.3433333"><ele></ele><time>2016-5-22T12:1:54Z</time></trkpt>
<trkpt lat="46.1956717" lon="7.3433333"><ele></ele><time>2016-5-22T12:1:57Z</time></trkpt>
<trkpt lat="46.1956717" lon="7.3433333"><ele></ele><time>2016-5-22T12:2:0Z</time></trkpt>
<trkpt lat="46.1956717" lon="7.3433333"><ele></ele><time>2016-5-22T12:2:3Z</time></trkpt>
<trkpt lat="46.1956717" lon="7.3433333"><ele></ele><time>2016-5-22T12:2:6Z</time></trkpt>
<trkpt lat="46.1956717" lon="7.3433333"><ele></ele><time>2016-5-22T12:2:9Z</time></trkpt>
<trkpt lat="46.1956717" lon="7.3433333"><ele></ele><time>2016-5-22T12:2:12Z</time></trkpt>
<trkpt lat="46.1956717" lon="7.3433333"><ele></ele><time>2016-5-22T12:2:15Z</time></trkpt>
<trkpt lat="46.1956717" lon="7.3433333"><ele></ele><time>2016-5-22T12:2:18Z</time></trkpt>
<trkpt lat="46.1956717" lon="7.3433333"><ele></ele><time>2016-5-22T12:2:21Z</time></trkpt>
<trkpt lat="46.1956717" lon="7.3433333"><ele></ele><time>2016-5-22T12:2:24Z</time></trkpt>
<trkpt lat="46.1956717" lon="7.3433333"><ele></ele><time>2016-5-22T12:2:27Z</time></trkpt>
<trkpt lat="46.1956717" lon="7.3433333"><ele></ele><time>2016-5-22T12:2:30Z</time></trkpt>
<trkpt lat="46.1956717" lon="7.3433333"><ele></ele><time>2016-5-22T12:2:33Z</time></trkpt>
<trkpt lat="46.1956717" lon="7.3433333"><ele></ele><time>2016-5-22T12:2:36Z</time></trkpt>
<trkpt lat="46.1956717" lon="7.3433333"><ele></ele><time>2016-5-22T12:2:39Z</time></trkpt>
<trkpt lat="46.1956717" lon="7.3433333"><ele></ele><time>2016-5-22T12:2:42Z</time></trkpt>
<trkpt lat="46.1956717" lon="7.3433333"><ele></ele><time>2016-5-22T12:2:45Z</time></trkpt>
<trkpt lat="46.1956717" lon="7.3433333"><ele></ele><time>2016-5-22T12:2:48Z</time></trkpt>
<trkpt lat="46.1956717" lon="7.3433333"><ele></ele><time>2016-5-22T12:2:51Z</time></trkpt>
<trkpt lat="46.1956717" lon="7.3433333"><ele></ele><time>2016-5-22T12:2:54Z</time></trkpt>
<trkpt lat="46.1956717" lon="7.3433333"><ele></ele><time>2016-5-22T12:2:57Z</time></trkpt>
<trkpt lat="46.1956717" lon="7.3433333"><ele></ele><time>2016-5-22T12:3:0Z</time></trkpt>
<trkpt lat="46.1956717" lon="7.3433333"><ele></ele><time>2016-5-22T12:3:3Z</time></trkpt>
<trkpt lat="46.1956717" lon="7.3433333"><ele></ele><time>2016-5-22T12:3:6Z</time></trkpt>
<trkpt lat="46.1956717" lon="7.3433333"><ele></ele><time>2016-5-22T12:3:9Z</time></trkpt>
<trkpt lat="46.1956717" lon="7.3433333"><ele></ele><time>2016-5-22T12:3:12Z</time></trkpt>
<trkpt lat="46.1956717" lon="7.3433333"><ele></ele><time>2016-5-22T12:3:15Z</time></trkpt>
<trkpt lat="46.1956717" lon="7.3433333"><ele></ele><time>2016-5-22T12:3:18Z</time></trkpt>
<trkpt lat="46.1956717" lon="7.3433333"><ele></ele><time>2016-5-22T12:3:21Z</time></trkpt>
<trkpt lat="46.1956717" lon="7.3433333"><ele></ele><time>2016-5-22T12:3:24Z</time></trkpt>
<trkpt lat="46.1956717" lon="7.3433333"><ele></ele><time>2016-5-22T12:3:27Z</time></trkpt>
<trkpt lat="46.1956717" lon="7.3433333"><ele></ele><time>2016-5-22T12:3:30Z</time></trkpt>
<trkpt lat="46.1956717" lon="7.3433333"><ele></ele><time>2016-5-22T12:3:33Z</time></trkpt>
<trkpt lat="46.1956717" lon="7.3433333"><ele></ele><time>2016-5-22T12:3:36Z</time></trkpt>
<trkpt lat="46.1956717" lon="7.3433333"><ele></ele><time>2016-5-22T12:3:39Z</time></trkpt>
<trkpt lat="46.1956717" lon="7.3433333"><ele></ele><time>2016-5-22T12:3:42Z</time></trkpt>
<trkpt lat="46.1956717" lon="7.3433333"><ele></ele><time>2016-5-22T12:3:45Z</time></trkpt>
<trkpt lat="46.1956717" lon="7.3433333"><ele></ele><time>2016-5-22T12:3:48Z</time></trkpt>
<trkpt lat="46.1956717" lon="7.3433333"><ele></ele><time>2016-5-22T12:3:51Z</time></trkpt>
<trkpt lat="46.1956717" lon="7.3433333"><ele></ele><time>2016-5-22T12:3:54Z</time></trkpt>
<trkpt lat="46.1956717" lon="7.3433333"><ele></ele><time>2016-5-22T12:3:57Z</time></trkpt>
<trkpt lat="46.1956717" lon="7.3433333"><ele></ele><time>2016-5-22T12:4:0Z</time></trkpt>
<trkpt lat="46.1956717" lon="7.3433333"><ele></ele><time>2016-5-22T12:4:3Z</time></trkpt>
<trkpt lat="46.1956717" lon="7.3433333"><ele></ele><time>2016-5-22T12:4:6Z</time></trkpt>
<trkpt lat="46.1956717" lon="7.3433333"><ele></ele><time>2016-5-22T12:4:9Z</time></trkpt>
<trkpt lat="46.1956717" lon="7.3433333"><ele></ele><time>2016-5-22T12:4:12Z</time></trkpt>
<trkpt lat="46.1956717" lon="7.3433333"><ele></ele><time>2016-5-22T12:4:15Z</time></trkpt>
<trkpt lat="46.1956717" lon="7.3433333"><ele></ele><time>2016-5-22T12:4:18Z</time></trkpt>
<trkpt lat="46.1956717" lon="7.3433333"><ele></ele><time>2016-5-22T12:4:21Z</time></trkpt>
<trkpt lat="46.1956717" lon="7.3433333"><ele></ele><time>2016-5-22T12:4:24Z</time></trkpt>
<trkpt lat="46.1956717" lon="7.3433333"><ele></ele><time>2016-5-22T12:4:27Z</time></trkpt>
<trkpt lat="46.1956717" lon="7.3433333"><ele></ele><time>2016-5-22T12:4:30Z</time></trkpt>
<trkpt lat="46.1956717" lon="7.3433333"><ele></ele><time>2016-5-22T12:4:33Z</time></trkpt>
<trkpt lat="46.1956717" lon="7.3433333"><ele></ele><time>2016-5-22T12:4:36Z</time></trkpt>
<trkpt lat="46.1956717" lon="7.3433333"><ele></ele><time>2016-5-22T12:4:39Z</time></trkpt>
<trkpt lat="46.1956717" lon="7.3433333"><ele></ele><time>2016-5-22T12:4:42Z</time></trkpt>
<trkpt lat="46.1956717" lon="7.3433333"><ele></ele><time>2016-5-22T12:4:45Z</time></trkpt>
<trkpt lat="46.1956717" lon="7.3433333"><ele></ele><time>2016-5-22T12:4:48Z</time></trkpt>
<trkpt lat="46.1956717" lon="7.3433333"><ele></ele><time>2016-5-22T12:4:51Z</time></trkpt>
<trkpt lat="46.1956717" lon="7.3433333"><ele></ele><time>2016-5-22T12:4:54Z</time></trkpt>
<trkpt lat="46.1956717" lon="7.3433333"><ele></ele><time>2016-5-22T12:4:57Z</time></trkpt>
<trkpt lat="46.1956717" lon="7.3433333"><ele></ele><time>2016-5-22T12:5:0Z</time></trkpt>
<trkpt lat="46.1956717" lon="7.3433333"><ele></ele><time>2016-5-22T12:5:3Z</time></trkpt>
<trkpt lat="46.1956717" lon="7.3433333"><ele></ele><time>2016-5-22T12:5:6Z</time></trkpt>
<trkpt lat="46.1956717" lon="7.3433333"><ele></ele><time>2016-5-22T12:5:9Z</time></trkpt>
<trkpt lat="46.1956717" lon="7.3433333"><ele></ele><time>2016-5-22T12:5:12Z</time></trkpt>
<trkpt lat="46.1956717" lon="7.3433333"><ele></ele><time>2016-5-22T12:5:15Z</time></trkpt>
<trkpt lat="46.1956717" lon="7.3433333"><ele></ele><time>2016-5-22T12:5:18Z</time></trkpt>
<trkpt lat="46.1956717" lon="7.3433333"><ele></ele><time>2016-5-22T12:5:21Z</time></trkpt>
<trkpt lat="46.1956717" lon="7.3433333"><ele></ele><time>2016-5-22T12:5:24Z</time></trkpt>
<trkpt lat="46.1956717" lon="7.3433333"><ele></ele><time>2016-5-22T12:5:27Z</time></trkpt>
<trkpt lat="46.1956717" lon="7.3433333"><ele></ele><time>2016-5-22T12:5:30Z</time></trkpt>
<trkpt lat="46.1956717" lon="7.3433333"><ele></ele><time>2016-5-22T12:5:33Z</time></trkpt>
<trkpt lat="46.1956717" lon="7.3433333"><ele></ele><time>2016-5-22T12:5:36Z</time></trkpt>
<trkpt lat="46.1956717" lon="7.3433333"><ele></ele><time>2016-5-22T12:5:39Z</time></trkpt>
<trkpt lat="46.1956717" lon="7.3433333"><ele></ele><time>2016-5-22T12:5:42Z</time></trkpt>
<trkpt lat="46.1956717" lon="7.3433333"><ele></ele><time>2016-5-22T12:5:45Z</time></trkpt>
<trkpt lat="46.1956500" lon="7.3433183"><ele></ele><time>2016-5-22T12:5:48Z</time></trkpt>
<trkpt lat="46.1956500" lon="7.3433183"><ele></ele><time>2016-5-22T12:5:51Z</time></trkpt>
<trkpt lat="46.1956500" lon="7.3433183"><ele></ele><time>2016-5-22T12:5:54Z</time></trkpt>
<trkpt lat="46.1956500" lon="7.3433183"><ele></ele><time>2016-5-22T12:5:57Z</time></trkpt>
<trkpt lat="46.1956500" lon="7.3433183"><ele></ele><time>2016-5-22T12:6:0Z</time></trkpt>
<trkpt lat="46.1956500" lon="7.3433183"><ele></ele><time>2016-5-22T12:6:3Z</time></trkpt>
<trkpt lat="46.1956500" lon="7.3433183"><ele></ele><time>2016-5-22T12:6:6Z</time></trkpt>
<trkpt lat="46.1956500" lon="7.3433183"><ele></ele><time>2016-5-22T12:6:9Z</time></trkpt>
<trkpt lat="46.1956500" lon="7.3433183"><ele></ele><time>2016-5-22T12:6:12Z</time></trkpt>
<trkpt lat="46.1956500" lon="7.3433183"><ele></ele><time>2016-5-22T12:6:15Z</time></trkpt>
<trkpt lat="46.1956500" lon="7.3433183"><ele></ele><time>2016-5-22T12:6:18Z</time></trkpt>
<trkpt lat="46.1956500" lon="7.3433183"><ele></ele><time>2016-5-22T12:6:21Z</time></trkpt>
<trkpt lat="46.1956500" lon="7.3433183"><ele></ele><time>2016-5-22T12:6:24Z</time></trkpt>
<trkpt lat="46.1956500" lon="7.3433183"><ele></ele><time>2016-5-22T12:6:27Z</time></trkpt>
<trkpt lat="46.1956500" lon="7.3433183"><ele></ele><time>2016-5-22T12:6:30Z</time></trkpt>
<trkpt lat="46.1956500" lon="7.3433183"><ele></ele><time>2016-5-22T12:6:33Z</time></trkpt>
<trkpt lat="46.1956500" lon="7.3433183"><ele></ele><time>2016-5-22T12:6:36Z</time></trkpt>
<trkpt lat="46.1956500" lon="7.3433183"><ele></ele><time>2016-5-22T12:6:39Z</time></trkpt>
<trkpt lat="46.1956500" lon="7.3433183"><ele></ele><time>2016-5-22T12:6:42Z</time></trkpt>
<trkpt lat="46.1956500" lon="7.3433183"><ele></ele><time>2016-5-22T12:6:45Z</time></trkpt>
<trkpt lat="46.1956500" lon="7.3433183"><ele></ele><time>2016-5-22T12:6:48Z</time></trkpt>
<trkpt lat="46.1956500" lon="7.3433183"><ele></ele><time>2016-5-22T12:6:51Z</time></trkpt>
<trkpt lat="46.1956500" lon="7.3433183"><ele></ele><time>2016-5-22T12:6:54Z</time></trkpt>
<trkpt lat="46.1956500" lon="7.3433183"><ele></ele><time>2016-5-22T12:6:57Z</time></trkpt>
<trkpt lat="46.1956500" lon="7.3433183"><ele></ele><time>2016-5-22T12:7:0Z</time></trkpt>
<trkpt lat="46.1956500" lon="7.3433183"><ele></ele><time>2016-5-22T12:7:3Z</time></trkpt>
<trkpt lat="46.1956500" lon="7.3433183"><ele></ele><time>2016-5-22T12:7:6Z</time></trkpt>
<trkpt lat="46.1956500" lon="7.3433183"><ele></ele><time>2016-5-22T12:7:9Z</time></trkpt>
<trkpt lat="46.1956500" lon="7.3433183"><ele></ele><time>2016-5-22T12:7:12Z</time></trkpt>
<trkpt lat="46.1956500" lon="7.3433183"><ele></ele><time>2016-5-22T12:7:15Z</time></trkpt>
<trkpt lat="46.1956500" lon="7.3433183"><ele></ele><time>2016-5-22T12:7:18Z</time></trkpt>
<trkpt lat="46.1956500" lon="7.3433183"><ele></ele><time>2016-5-22T12:7:21Z</time></trkpt>
<trkpt lat="46.1956500" lon="7.3433183"><ele></ele><time>2016-5-22T12:7:24Z</time></trkpt>
<trkpt lat="46.1956500" lon="7.3433183"><ele></ele><time>2016-5-22T12:7:27Z</time></trkpt>
<trkpt lat="46.1956500" lon="7.3433183"><ele></ele><time>2016-5-22T12:7:30Z</time></trkpt>
<trkpt lat="46.1956500" lon="7.3433183"><ele></ele><time>2016-5-22T12:7:33Z</time></trkpt>
<trkpt lat="46.1956500" lon="7.3433183"><ele></ele><time>2016-5-22T12:7:36Z</time></trkpt>
<trkpt lat="46.1956500" lon="7.3433183"><ele></ele><time>2016-5-22T12:7:39Z</time></trkpt>
<trkpt lat="46.1956500" lon="7.3433183"><ele></ele><time>2016-5-22T12:7:42Z</time></trkpt>
<trkpt lat="46.1956500" lon="7.3433183"><ele></ele><time>2016-5-22T12:7:45Z</time></trkpt>
<trkpt lat="46.1956500" lon="7.3433183"><ele></ele><time>2016-5-22T12:7:48Z</time></trkpt>
<trkpt lat="46.1956500" lon="7.3433183"><ele></ele><time>2016-5-22T12:7:51Z</time></trkpt>
<trkpt lat="46.1956500" lon="7.3433183"><ele></ele><time>2016-5-22T12:7:54Z</time></trkpt>
<trkpt lat="46.1956500" lon="7.3433183"><ele></ele><time>2016-5-22T12:7:57Z</time></trkpt>
<trkpt lat="46.1956500" lon="7.3433183"><ele></ele><time>2016-5-22T12:8:0Z</time></trkpt>
<trkpt lat="46.1956500" lon="7.3433183"><ele></ele><time>2016-5-22T12:8:3Z</time></trkpt>
<trkpt lat="46.1956500" lon="7.3433183"><ele></ele><time>2016-5-22T12:8:6Z</time></trkpt>
<trkpt lat="46.1956500" lon="7.3433183"><ele></ele><time>2016-5-22T12:8:9Z</time></trkpt>
<trkpt lat="46.1956500" lon="7.3433183"><ele></ele><time>2016-5-22T12:8:12Z</time></trkpt>
<trkpt lat="46.1956500" lon="7.3433183"><ele></ele><time>2016-5-22T12:8:15Z</time></trkpt>
<trkpt lat="46.1956500" lon="7.3433183"><ele></ele><time>2016-5-22T12:8:18Z</time></trkpt>
<trkpt lat="46.1956500" lon="7.3433183"><ele></ele><time>2016-5-22T12:8:21Z</time></trkpt>
<trkpt lat="46.1956500" lon="7.3433183"><ele></ele><time>2016-5-22T12:8:24Z</time></trkpt>
<trkpt lat="46.1956500" lon="7.3433183"><ele></ele><time>2016-5-22T12:8:27Z</time></trkpt>
<trkpt lat="46.1956500" lon="7.3433183"><ele></ele><time>2016-5-22T12:8:30Z</time></trkpt>
<trkpt lat="46.1956500" lon="7.3433183"><ele></ele><time>2016-5-22T12:8:33Z</time></trkpt>
<trkpt lat="46.1956500" lon="7.3433183"><ele></ele><time>2016-5-22T12:8:36Z</time></trkpt>
<trkpt lat="46.1956500" lon="7.3433183"><ele></ele><time>2016-5-22T12:8:39Z</time></trkpt>
<trkpt lat="46.1956500" lon="7.3433183"><ele></ele><time>2016-5-22T12:8:42Z</time></trkpt>
<trkpt lat="46.1956500" lon="7.3433183"><ele></ele><time>2016-5-22T12:8:45Z</time></trkpt>
<trkpt lat="46.1956500" lon="7.3433183"><ele></ele><time>2016-5-22T12:8:48Z</time></trkpt>
<trkpt lat="46.1956500" lon="7.3433183"><ele></ele><time>2016-5-22T12:8:51Z</time></trkpt>
<trkpt lat="46.1956500" lon="7.3433183"><ele></ele><time>2016-5-22T12:8:54Z</time></trkpt>
<trkpt lat="46.1956500" lon="7.3433183"><ele></ele><time>2016-5-22T12:8:57Z</time></trkpt>
<trkpt lat="46.1956500" lon="7.3433183"><ele></ele><time>2016-5-22T12:9:0Z</time></trkpt>
<trkpt lat="46.1956500" lon="7.3433183"><ele></ele><time>2016-5-22T12:9:3Z</time></trkpt>
<trkpt lat="46.1956500" lon="7.3433183"><ele></ele><time>2016-5-22T12:9:6Z</time></trkpt>
<trkpt lat="46.1956500" lon="7.3433183"><ele></ele><time>2016-5-22T12:9:9Z</time></trkpt>
<trkpt lat="46.1956500" lon="7.3433183"><ele></ele><time>2016-5-22T12:9:12Z</time></trkpt>
<trkpt lat="46.1956500" lon="7.3433183"><ele></ele><time>2016-5-22T12:9:15Z</time></trkpt>
<trkpt lat="46.1956500" lon="7.3433183"><ele></ele><time>2016-5-22T12:9:18Z</time></trkpt>
<trkpt lat="46.1956500" lon="7.3433183"><ele></ele><time>2016-5-22T12:9:21Z</time></trkpt>
<trkpt lat="46.1956500" lon="7.3433183"><ele></ele><time>2016-5-22T12:9:24Z</time></trkpt>
<trkpt lat="46.1956500" lon="7.3433183"><ele></ele><time>2016-5-22T12:9:27Z</time></trkpt>
<trkpt lat="46.1956500" lon="7.3433183"><ele></ele><time>2016-5-22T12:9:30Z</time></trkpt>
<trkpt lat="46.1956500" lon="7.3433183"><ele></ele><time>2016-5-22T12:9:33Z</time></trkpt>
<trkpt lat="46.1956500" lon="7.3433183"><ele></ele><time>2016-5-22T12:9:36Z</time></trkpt>
<trkpt lat="46.1956500" lon="7.3433183"><ele></ele><time>2016-5-22T12:9:39Z</time></trkpt>
<trkpt lat="46.1956500" lon="7.3433183"><ele></ele><time>2016-5-22T12:9:42Z</time></trkpt>
<trkpt lat="46.1956500" lon="7.3433183"><ele></ele><time>2016-5-22T12:9:45Z</time></trkpt>
<trkpt lat="46.1956500" lon="7.3433183"><ele></ele><time>2016-5-22T12:9:48Z</time></trkpt>
<trkpt lat="46.1956500" lon="7.3433183"><ele></ele><time>2016-5-22T12:9:51Z</time></trkpt>
<trkpt lat="46.1956500" lon="7.3433183"><ele></ele><time>2016-5-22T12:9:54Z</time></trkpt>
<trkpt lat="46.1956500" lon="7.3433183"><ele></ele><time>2016-5-22T12:9:57Z</time></trkpt>
<trkpt lat="46.1956500" lon="7.3433183"><ele></ele><time>2016-5-22T12:10:0Z</time></trkpt>
<trkpt lat="46.1956500" lon="7.3433183"><ele></ele><time>2016-5-22T12:10:3Z</time></trkpt>
<trkpt lat="46.1956500" lon="7.3433183"><ele></ele><time>2016-5-22T12:10:6Z</time></trkpt>
<trkpt lat="46.1956500" lon="7.3433183"><ele></ele><time>2016-5-22T12:10:9Z</time></trkpt>
<trkpt lat="46.1956500" lon="7.3433183"><ele></ele><time>2016-5-22T12:10:12Z</time></trkpt>
<trkpt lat="46.1956500" lon="7.3433183"><ele></ele><time>2016-5-22T12:10:15Z</time></trkpt>
<trkpt lat="46.1956500" lon="7.3433183"><ele></ele><time>2016-5-22T12:10:18Z</time></trkpt>
<trkpt lat="46.1956500" lon="7.3433183"><ele></ele><time>2016-5-22T12:10:21Z</time></trkpt>
<trkpt lat="46.1956500" lon="7.3433183"><ele></ele><time>2016-5-22T12:10:24Z</time></trkpt>
<trkpt lat="46.1956500" lon="7.3433183"><ele></ele><time>2016-5-22T12:10:27Z</time></trkpt>
<trkpt lat="46.1956500" lon="7.3433183"><ele></ele><time>2016-5-22T12:10:30Z</time></trkpt>
<trkpt lat="46.1956500" lon="7.3433183"><ele></ele><time>2016-5-22T12:10:33Z</time></trkpt>
<trkpt lat="46.1956500" lon="7.3433183"><ele></ele><time>2016-5-22T12:10:36Z</time></trkpt>
<trkpt lat="46.1956500" lon="7.3433183"><ele></ele><time>2016-5-22T12:10:39Z</time></trkpt>
<trkpt lat="46.1956500" lon="7.3433183"><ele></ele><time>2016-5-22T12:10:42Z</time></trkpt>
<trkpt lat="46.1956500" lon="7.3433183"><ele></ele><time>2016-5-22T12:10:45Z</time></trkpt>
<trkpt lat="46.1956500" lon="7.3433183"><ele></ele><time>2016-5-22T12:10:48Z</time></trkpt>
<trkpt lat="46.1956500" lon="7.3433183"><ele></ele><time>2016-5-22T12:10:51Z</time></trkpt>
<trkpt lat="46.1956500" lon="7.3433183"><ele></ele><time>2016-5-22T12:10:54Z</time></trkpt>
<trkpt lat="46.1956500" lon="7.3433183"><ele></ele><time>2016-5-22T12:10:57Z</time></trkpt>
<trkpt lat="46.1956500" lon="7.3433183"><ele></ele><time>2016-5-22T12:11:0Z</time></trkpt>
<trkpt lat="46.1956500" lon="7.3433183"><ele></ele><time>2016-5-22T12:11:3Z</time></trkpt>
<trkpt lat="46.1956500" lon="7.3433183"><ele></ele><time>2016-5-22T12:11:6Z</time></trkpt>
<trkpt lat="46.1956500" lon="7.3433183"><ele></ele><time>2016-5-22T12:11:9Z</time></trkpt>
<trkpt lat="46.1956500" lon="7.3433183"><ele></ele><time>2016-5-22T12:11:12Z</time></trkpt>
<trkpt lat="46.1956500" lon="7.3433183"><ele></ele><time>2016-5-22T12:11:15Z</time></trkpt>
<trkpt lat="46.1956533" lon="7.3433167"><ele></ele><time>2016-5-22T12:11:18Z</time></trkpt>
<trkpt lat="46.1956567" lon="7.3433133"><ele></ele><time>2016-5-22T12:11:21Z</time></trkpt>
<trkpt lat="46.1956567" lon="7.3433133"><ele></ele><time>2016-5-22T12:11:24Z</time></trkpt>
<trkpt lat="46.1956567" lon="7.3433133"><ele></ele><time>2016-5-22T12:11:27Z</time></trkpt>
<trkpt lat="46.1956567" lon="7.3433133"><ele></ele><time>2016-5-22T12:11:30Z</time></trkpt>
<trkpt lat="46.1956567" lon="7.3433133"><ele></ele><time>2016-5-22T12:11:33Z</time></trkpt>
<trkpt lat="46.1956567" lon="7.3433133"><ele></ele><time>2016-5-22T12:11:36Z</time></trkpt>
<trkpt lat="46.1956567" lon="7.3433133"><ele></ele><time>2016-5-22T12:11:39Z</time></trkpt>
<trkpt lat="46.1956567" lon="7.3433133"><ele></ele><time>2016-5-22T12:11:42Z</time></trkpt>
<trkpt lat="46.1956567" lon="7.3433133"><ele></ele><time>2016-5-22T12:11:45Z</time></trkpt>
<trkpt lat="46.1956567" lon="7.3433133"><ele></ele><time>2016-5-22T12:11:48Z</time></trkpt>
<trkpt lat="46.1956567" lon="7.3433133"><ele></ele><time>2016-5-22T12:11:51Z</time></trkpt>
<trkpt lat="46.1956567" lon="7.3433133"><ele></ele><time>2016-5-22T12:11:54Z</time></trkpt>
<trkpt lat="46.1956567" lon="7.3433133"><ele></ele><time>2016-5-22T12:11:57Z</time></trkpt>
<trkpt lat="46.1956567" lon="7.3433133"><ele></ele><time>2016-5-22T12:12:0Z</time></trkpt>
<trkpt lat="46.1956567" lon="7.3433133"><ele></ele><time>2016-5-22T12:12:3Z</time></trkpt>
<trkpt lat="46.1956567" lon="7.3433133"><ele></ele><time>2016-5-22T12:12:6Z</time></trkpt>
<trkpt lat="46.1956567" lon="7.3433133"><ele></ele><time>2016-5-22T12:12:9Z</time></trkpt>
<trkpt lat="46.1956567" lon="7.3433133"><ele></ele><time>2016-5-22T12:12:12Z</time></trkpt>
<trkpt lat="46.1956567" lon="7.3433133"><ele></ele><time>2016-5-22T12:12:15Z</time></trkpt>
<trkpt lat="46.1956567" lon="7.3433133"><ele></ele><time>2016-5-22T12:12:18Z</time></trkpt>
<trkpt lat="46.1956567" lon="7.3433133"><ele></ele><time>2016-5-22T12:12:21Z</time></trkpt>
<trkpt lat="46.1956567" lon="7.3433133"><ele></ele><time>2016-5-22T12:12:24Z</time></trkpt>
<trkpt lat="46.1956567" lon="7.3433133"><ele></ele><time>2016-5-22T12:12:27Z</time></trkpt>
<trkpt lat="46.1956567" lon="7.3433133"><ele></ele><time>2016-5-22T12:12:30Z</time></trkpt>
<trkpt lat="46.1956567" lon="7.3433133"><ele></ele><time>2016-5-22T12:12:33Z</time></trkpt>
<trkpt lat="46.1956567" lon="7.3433133"><ele></ele><time>2016-5-22T12:12:36Z</time></trkpt>
<trkpt lat="46.1956567" lon="7.3433133"><ele></ele><time>2016-5-22T12:12:39Z</time></trkpt>
<trkpt lat="46.1956567" lon="7.3433133"><ele></ele><time>2016-5-22T12:12:42Z</time></trkpt>
<trkpt lat="46.1956567" lon="7.3433133"><ele></ele><time>2016-5-22T12:12:45Z</time></trkpt>
<trkpt lat="46.1956567" lon="7.3433133"><ele></ele><time>2016-5-22T12:12:48Z</time></trkpt>
<trkpt lat="46.1956567" lon="7.3433133"><ele></ele><time>2016-5-22T12:12:51Z</time></trkpt>
<trkpt lat="46.1956567" lon="7.3433133"><ele></ele><time>2016-5-22T12:12:54Z</time></trkpt>
<trkpt lat="46.1956567" lon="7.3433133"><ele></ele><time>2016-5-22T12:12:57Z</time></trkpt>
<trkpt lat="46.1956567" lon="7.3433133"><ele></ele><time>2016-5-22T12:13:0Z</time></trkpt>
<trkpt lat="46.1956567" lon="7.3433133"><ele></ele><time>2016-5-22T12:13:3Z</time></trkpt>
<trkpt lat="46.1956567" lon="7.3433133"><ele></ele><time>2016-5-22T12:13:6Z</time></trkpt>
<trkpt lat="46.1956567" lon="7.3433133"><ele></ele><time>2016-5-22T12:13:9Z</time></trkpt>
<trkpt lat="46.1956567" lon="7.3433133"><ele></ele><time>2016-5-22T12:13:12Z</time></trkpt>
<trkpt lat="46.1956567" lon="7.3433133"><ele></ele><time>2016-5-22T12:13:15Z</time></trkpt>
<trkpt lat="46.1956567" lon="7.3433133"><ele></ele><time>2016-5-22T12:13:18Z</time></trkpt>
<trkpt lat="46.1956567" lon="7.3433133"><ele></ele><time>2016-5-22T12:13:21Z</time></trkpt>
<trkpt lat="46.1956567" lon="7.3433133"><ele></ele><time>2016-5-22T12:13:24Z</time></trkpt>
<trkpt lat="46.1956567" lon="7.3433133"><ele></ele><time>2016-5-22T12:13:27Z</time></trkpt>
<trkpt lat="46.1956567" lon="7.3433133"><ele></ele><time>2016-5-22T12:13:30Z</time></trkpt>
<trkpt lat="46.1956567" lon="7.3433133"><ele></ele><time>2016-5-22T12:13:33Z</time></trkpt>
<trkpt lat="46.1956567" lon="7.3433133"><ele></ele><time>2016-5-22T12:13:36Z</time></trkpt>
<trkpt lat="46.1956567" lon="7.3433133"><ele></ele><time>2016-5-22T12:13:39Z</time></trkpt>
<trkpt lat="46.1956550" lon="7.3433183"><ele></ele><time>2016-5-22T12:13:42Z</time></trkpt>
<trkpt lat="46.1956533" lon="7.3433200"><ele></ele><time>2016-5-22T12:13:45Z</time></trkpt>
<trkpt lat="46.1956533" lon="7.3433200"><ele></ele><time>2016-5-22T12:13:48Z</time></trkpt>
<trkpt lat="46.1956533" lon="7.3433200"><ele></ele><time>2016-5-22T12:13:51Z</time></trkpt>
<trkpt lat="46.1956533" lon="7.3433200"><ele></ele><time>2016-5-22T12:13:54Z</time></trkpt>
<trkpt lat="46.1956483" lon="7.3433133"><ele></ele><time>2016-5-22T12:13:57Z</time></trkpt>
<trkpt lat="46.1956483" lon="7.3433133"><ele></ele><time>2016-5-22T12:14:0Z</time></trkpt>
<trkpt lat="46.1956483" lon="7.3433133"><ele></ele><time>2016-5-22T12:14:3Z</time></trkpt>
<trkpt lat="46.1956483" lon="7.3433133"><ele></ele><time>2016-5-22T12:14:6Z</time></trkpt>
<trkpt lat="46.1956483" lon="7.3433133"><ele></ele><time>2016-5-22T12:14:9Z</time></trkpt>
<trkpt lat="46.1956483" lon="7.3433133"><ele></ele><time>2016-5-22T12:14:12Z</time></trkpt>
<trkpt lat="46.1956483" lon="7.3433133"><ele></ele><time>2016-5-22T12:14:15Z</time></trkpt>
<trkpt lat="46.1956483" lon="7.3433133"><ele></ele><time>2016-5-22T12:14:18Z</time></trkpt>
<trkpt lat="46.1956483" lon="7.3433133"><ele></ele><time>2016-5-22T12:14:21Z</time></trkpt>
<trkpt lat="46.1956483" lon="7.3433133"><ele></ele><time>2016-5-22T12:14:24Z</time></trkpt>
<trkpt lat="46.1956483" lon="7.3433133"><ele></ele><time>2016-5-22T12:14:27Z</time></trkpt>
<trkpt lat="46.1956483" lon="7.3433133"><ele></ele><time>2016-5-22T12:14:30Z</time></trkpt>
<trkpt lat="46.1956483" lon="7.3433133"><ele></ele><time>2016-5-22T12:14:33Z</time></trkpt>
<trkpt lat="46.1956483" lon="7.3433133"><ele></ele><time>2016-5-22T12:14:36Z</time></trkpt>
<trkpt lat="46.1956483" lon="7.3433133"><ele></ele><time>2016-5-22T12:14:39Z</time></trkpt>
<trkpt lat="46.1956483" lon="7.3433133"><ele></ele><time>2016-5-22T12:14:42Z</time></trkpt>
<trkpt lat="46.1956483" lon="7.3433133"><ele></ele><time>2016-5-22T12:14:45Z</time></trkpt>
<trkpt lat="46.1956483" lon="7.3433133"><ele></ele><time>2016-5-22T12:14:48Z</time></trkpt>
<trkpt lat="46.1956483" lon="7.3433133"><ele></ele><time>2016-5-22T12:14:51Z</time></trkpt>
<trkpt lat="46.1956483" lon="7.3433133"><ele></ele><time>2016-5-22T12:14:54Z</time></trkpt>
<trkpt lat="46.1956483" lon="7.3433133"><ele></ele><time>2016-5-22T12:14:57Z</time></trkpt>
<trkpt lat="46.1956483" lon="7.3433133"><ele></ele><time>2016-5-22T12:15:0Z</time></trkpt>
<trkpt lat="46.1956483" lon="7.3433133"><ele></ele><time>2016-5-22T12:15:3Z</time></trkpt>
<trkpt lat="46.1956483" lon="7.3433133"><ele></ele><time>2016-5-22T12:15:6Z</time></trkpt>
<trkpt lat="46.1956483" lon="7.3433133"><ele></ele><time>2016-5-22T12:15:9Z</time></trkpt>
<trkpt lat="46.1956483" lon="7.3433133"><ele></ele><time>2016-5-22T12:15:12Z</time></trkpt>
<trkpt lat="46.1956483" lon="7.3433133"><ele></ele><time>2016-5-22T12:15:15Z</time></trkpt>
<trkpt lat="46.1956483" lon="7.3433133"><ele></ele><time>2016-5-22T12:15:18Z</time></trkpt>
<trkpt lat="46.1956483" lon="7.3433133"><ele></ele><time>2016-5-22T12:15:21Z</time></trkpt>
<trkpt lat="46.1956483" lon="7.3433133"><ele></ele><time>2016-5-22T12:15:24Z</time></trkpt>
<trkpt lat="46.1956483" lon="7.3433133"><ele></ele><time>2016-5-22T12:15:27Z</time></trkpt>
<trkpt lat="46.1956483" lon="7.3433133"><ele></ele><time>2016-5-22T12:15:30Z</time></trkpt>
<trkpt lat="46.1956483" lon="7.3433133"><ele></ele><time>2016-5-22T12:15:33Z</time></trkpt>
<trkpt lat="46.1956483" lon="7.3433133"><ele></ele><time>2016-5-22T12:15:36Z</time></trkpt>
<trkpt lat="46.1956483" lon="7.3433133"><ele></ele><time>2016-5-22T12:15:39Z</time></trkpt>
<trkpt lat="46.1956483" lon="7.3433133"><ele></ele><time>2016-5-22T12:15:42Z</time></trkpt>
<trkpt lat="46.1956483" lon="7.3433133"><ele></ele><time>2016-5-22T12:15:45Z</time></trkpt>
<trkpt lat="46.1956483" lon="7.3433133"><ele></ele><time>2016-5-22T12:15:48Z</time></trkpt>
<trkpt lat="46.1956483" lon="7.3433133"><ele></ele><time>2016-5-22T12:15:51Z</time></trkpt>
<trkpt lat="46.1956483" lon="7.3433133"><ele></ele><time>2016-5-22T12:15:54Z</time></trkpt>
<trkpt lat="46.1956483" lon="7.3433133"><ele></ele><time>2016-5-22T12:15:57Z</time></trkpt>
<trkpt lat="46.1956483" lon="7.3433133"><ele></ele><time>2016-5-22T12:16:0Z</time></trkpt>
<trkpt lat="46.1956483" lon="7.3433133"><ele></ele><time>2016-5-22T12:16:3Z</time></trkpt>
<trkpt lat="46.1956483" lon="7.3433133"><ele></ele><time>2016-5-22T12:16:6Z</time></trkpt>
<trkpt lat="46.1956483" lon="7.3433133"><ele></ele><time>2016-5-22T12:16:9Z</time></trkpt>
<trkpt lat="46.1956483" lon="7.3433133"><ele></ele><time>2016-5-22T12:16:12Z</time></trkpt>
<trkpt lat="46.1956483" lon="7.3433133"><ele></ele><time>2016-5-22T12:16:15Z</time></trkpt>
<trkpt lat="46.1956483" lon="7.3433133"><ele></ele><time>2016-5-22T12:16:18Z</time></trkpt>
<trkpt lat="46.1956483" lon="7.3433133"><ele></ele><time>2016-5-22T12:16:21Z</time></trkpt>
<trkpt lat="46.1956483" lon="7.3433133"><ele></ele><time>2016-5-22T12:16:24Z</time></trkpt>
<trkpt lat="46.1956483" lon="7.3433133"><ele></ele><time>2016-5-22T12:16:27Z</time></trkpt>
<trkpt lat="46.1956483" lon="7.3433133"><ele></ele><time>2016-5-22T12:16:30Z</time></trkpt>
<trkpt lat="46.1956483" lon="7.3433133"><ele></ele><time>2016-5-22T12:16:33Z</time></trkpt>
<trkpt lat="46.1956483" lon="7.3433133"><ele></ele><time>2016-5-22T12:16:36Z</time></trkpt>
<trkpt lat="46.1956483" lon="7.3433133"><ele></ele><time>2016-5-22T12:16:39Z</time></trkpt>
<trkpt lat="46.1956483" lon="7.3433133"><ele></ele><time>2016-5-22T12:16:42Z</time></trkpt>
<trkpt lat="46.1956483" lon="7.3433133"><ele></ele><time>2016-5-22T12:16:45Z</time></trkpt>
<trkpt lat="46.1956483" lon="7.3433133"><ele></ele><time>2016-5-22T12:16:48Z</time></trkpt>
<trkpt lat="46.1956483" lon="7.3433133"><ele></ele><time>2016-5-22T12:16:51Z</time></trkpt>
<trkpt lat="46.1956483" lon="7.3433133"><ele></ele><time>2016-5-22T12:16:54Z</time></trkpt>
<trkpt lat="46.1956483" lon="7.3433133"><ele></ele><time>2016-5-22T12:16:57Z</time></trkpt>
<trkpt lat="46.1956483" lon="7.3433133"><ele></ele><time>2016-5-22T12:17:0Z</time></trkpt>
<trkpt lat="46.1956483" lon="7.3433133"><ele></ele><time>2016-5-22T12:17:3Z</time></trkpt>
<trkpt lat="46.1956483" lon="7.3433133"><ele></ele><time>2016-5-22T12:17:6Z</time></trkpt>
<trkpt lat="46.1956483" lon="7.3433133"><ele></ele><time>2016-5-22T12:17:9Z</time></trkpt>
<trkpt lat="46.1956483" lon="7.3433133"><ele></ele><time>2016-5-22T12:17:12Z</time></trkpt>
<trkpt lat="46.1956483" lon="7.3433133"><ele></ele><time>2016-5-22T12:17:15Z</time></trkpt>
<trkpt lat="46.1956483" lon="7.3433133"><ele></ele><time>2016-5-22T12:17:18Z</time></trkpt>
<trkpt lat="46.1956483" lon="7.3433133"><ele></ele><time>2016-5-22T12:17:21Z</time></trkpt>
<trkpt lat="46.1956483" lon="7.3433133"><ele></ele><time>2016-5-22T12:17:24Z</time></trkpt>
<trkpt lat="46.1956483" lon="7.3433133"><ele></ele><time>2016-5-22T12:17:27Z</time></trkpt>
<trkpt lat="46.1956483" lon="7.3433133"><ele></ele><time>2016-5-22T12:17:30Z</time></trkpt>
<trkpt lat="46.1956483" lon="7.3433133"><ele></ele><time>2016-5-22T12:17:33Z</time></trkpt>
<trkpt lat="46.1956483" lon="7.3433133"><ele></ele><time>2016-5-22T12:17:36Z</time></trkpt>
<trkpt lat="46.1956483" lon="7.3433133"><ele></ele><time>2016-5-22T12:17:39Z</time></trkpt>
<trkpt lat="46.1956483" lon="7.3433133"><ele></ele><time>2016-5-22T12:17:42Z</time></trkpt>
<trkpt lat="46.1956483" lon="7.3433133"><ele></ele><time>2016-5-22T12:17:45Z</time></trkpt>
<trkpt lat="46.1956483" lon="7.3433133"><ele></ele><time>2016-5-22T12:17:48Z</time></trkpt>
<trkpt lat="46.1956483" lon="7.3433133"><ele></ele><time>2016-5-22T12:17:51Z</time></trkpt>
<trkpt lat="46.1956483" lon="7.3433133"><ele></ele><time>2016-5-22T12:17:54Z</time></trkpt>
<trkpt lat="46.1956483" lon="7.3433133"><ele></ele><time>2016-5-22T12:17:57Z</time></trkpt>
<trkpt lat="46.1956483" lon="7.3433133"><ele></ele><time>2016-5-22T12:18:0Z</time></trkpt>
<trkpt lat="46.1956483" lon="7.3433133"><ele></ele><time>2016-5-22T12:18:3Z</time></trkpt>
<trkpt lat="46.1956483" lon="7.3433133"><ele></ele><time>2016-5-22T12:18:6Z</time></trkpt>
<trkpt lat="46.1956483" lon="7.3433133"><ele></ele><time>2016-5-22T12:18:9Z</time></trkpt>
<trkpt lat="46.1956483" lon="7.3433133"><ele></ele><time>2016-5-22T12:18:12Z</time></trkpt>
<trkpt lat="46.1956483" lon="7.3433133"><ele></ele><time>2016-5-22T12:18:15Z</time></trkpt>
<trkpt lat="46.1956483" lon="7.3433133"><ele></ele><time>2016-5-22T12:18:18Z</time></trkpt>
<trkpt lat="46.1956483" lon="7.3433133"><ele></ele><time>2016-5-22T12:18:21Z</time></trkpt>
<trkpt lat="46.1956483" lon="7.3433133"><ele></ele><time>2016-5-22T12:18:24Z</time></trkpt>
<trkpt lat="46.1956483" lon="7.3433133"><ele></ele><time>2016-5-22T12:18:27Z</time></trkpt>
<trkpt lat="46.1956483" lon="7.3433133"><ele></ele><time>2016-5-22T12:18:30Z</time></trkpt>
<trkpt lat="46.1956483" lon="7.3433133"><ele></ele><time>2016-5-22T12:18:33Z</time></trkpt>
<trkpt lat="46.1956483" lon="7.3433133"><ele></ele><time>2016-5-22T12:18:36Z</time></trkpt>
<trkpt lat="46.1956483" lon="7.3433133"><ele></ele><time>2016-5-22T12:18:39Z</time></trkpt>
<trkpt lat="46.1956483" lon="7.3433133"><ele></ele><time>2016-5-22T12:18:42Z</time></trkpt>
<trkpt lat="46.1956483" lon="7.3433133"><ele></ele><time>2016-5-22T12:18:45Z</time></trkpt>
<trkpt lat="46.1956483" lon="7.3433133"><ele></ele><time>2016-5-22T12:18:48Z</time></trkpt>
<trkpt lat="46.1956483" lon="7.3433133"><ele></ele><time>2016-5-22T12:18:51Z</time></trkpt>
<trkpt lat="46.1956483" lon="7.3433133"><ele></ele><time>2016-5-22T12:18:54Z</time></trkpt>
<trkpt lat="46.1956483" lon="7.3433133"><ele></ele><time>2016-5-22T12:18:57Z</time></trkpt>
<trkpt lat="46.1956483" lon="7.3433133"><ele></ele><time>2016-5-22T12:19:0Z</time></trkpt>
<trkpt lat="46.1956483" lon="7.3433133"><ele></ele><time>2016-5-22T12:19:3Z</time></trkpt>
<trkpt lat="46.1956483" lon="7.3433133"><ele></ele><time>2016-5-22T12:19:6Z</time></trkpt>
<trkpt lat="46.1956483" lon="7.3433133"><ele></ele><time>2016-5-22T12:19:9Z</time></trkpt>
<trkpt lat="46.1956483" lon="7.3433133"><ele></ele><time>2016-5-22T12:19:12Z</time></trkpt>
<trkpt lat="46.1956483" lon="7.3433133"><ele></ele><time>2016-5-22T12:19:15Z</time></trkpt>
<trkpt lat="46.1956483" lon="7.3433133"><ele></ele><time>2016-5-22T12:19:18Z</time></trkpt>
<trkpt lat="46.1956483" lon="7.3433133"><ele></ele><time>2016-5-22T12:19:21Z</time></trkpt>
<trkpt lat="46.1956483" lon="7.3433133"><ele></ele><time>2016-5-22T12:19:24Z</time></trkpt>
<trkpt lat="46.1956483" lon="7.3433133"><ele></ele><time>2016-5-22T12:19:27Z</time></trkpt>
<trkpt lat="46.1956483" lon="7.3433133"><ele></ele><time>2016-5-22T12:19:30Z</time></trkpt>
<trkpt lat="46.1956483" lon="7.3433133"><ele></ele><time>2016-5-22T12:19:33Z</time></trkpt>
<trkpt lat="46.1956483" lon="7.3433133"><ele></ele><time>2016-5-22T12:19:36Z</time></trkpt>
<trkpt lat="46.1956483" lon="7.3433133"><ele></ele><time>2016-5-22T12:19:39Z</time></trkpt>
<trkpt lat="46.1956483" lon="7.3433133"><ele></ele><time>2016-5-22T12:19:42Z</time></trkpt>
<trkpt lat="46.1956483" lon="7.3433133"><ele></ele><time>2016-5-22T12:19:45Z</time></trkpt>
<trkpt lat="46.1956483" lon="7.3433133"><ele></ele><time>2016-5-22T12:19:48Z</time></trkpt>
<trkpt lat="46.1956483" lon="7.3433133"><ele></ele><time>2016-5-22T12:19:51Z</time></trkpt>
<trkpt lat="46.1956483" lon="7.3433133"><ele></ele><time>2016-5-22T12:19:54Z</time></trkpt>
<trkpt lat="46.1956483" lon="7.3433133"><ele></ele><time>2016-5-22T12:19:57Z</time></trkpt>
<trkpt lat="46.1956483" lon="7.3433133"><ele></ele><time>2016-5-22T12:20:0Z</time></trkpt>
<trkpt lat="46.1956483" lon="7.3433133"><ele></ele><time>2016-5-22T12:20:3Z</time></trkpt>
<trkpt lat="46.1956483" lon="7.3433133"><ele></ele><time>2016-5-22T12:20:6Z</time></trkpt>
<trkpt lat="46.1956483" lon="7.3433133"><ele></ele><time>2016-5-22T12:20:9Z</time></trkpt>
<trkpt lat="46.1956483" lon="7.3433133"><ele></ele><time>2016-5-22T12:20:12Z</time></trkpt>
<trkpt lat="46.1956483" lon="7.3433133"><ele></ele><time>2016-5-22T12:20:15Z</time></trkpt>
<trkpt lat="46.1956483" lon="7.3433133"><ele></ele><time>2016-5-22T12:20:18Z</time></trkpt>
<trkpt lat="46.1956483" lon="7.3433133"><ele></ele><time>2016-5-22T12:20:21Z</time></trkpt>
<trkpt lat="46.1956483" lon="7.3433133"><ele></ele><time>2016-5-22T12:20:24Z</time></trkpt>
<trkpt lat="46.1956483" lon="7.3433133"><ele></ele><time>2016-5-22T12:20:27Z</time></trkpt>
<trkpt lat="46.1956483" lon="7.3433133"><ele></ele><time>2016-5-22T12:20:30Z</time></trkpt>
<trkpt lat="46.1956483" lon="7.3433133"><ele></ele><time>2016-5-22T12:20:33Z</time></trkpt>
<trkpt lat="46.1956483" lon="7.3433133"><ele></ele><time>2016-5-22T12:20:36Z</time></trkpt>
<trkpt lat="46.1956483" lon="7.3433133"><ele></ele><time>2016-5-22T12:20:39Z</time></trkpt>
<trkpt lat="46.1956483" lon="7.3433133"><ele></ele><time>2016-5-22T12:20:42Z</time></trkpt>
<trkpt lat="46.1956483" lon="7.3433133"><ele></ele><time>2016-5-22T12:20:45Z</time></trkpt>
<trkpt lat="46.1956483" lon="7.3433133"><ele></ele><time>2016-5-22T12:20:48Z</time></trkpt>
<trkpt lat="46.1956483" lon="7.3433133"><ele></ele><time>2016-5-22T12:20:51Z</time></trkpt>
<trkpt lat="46.1956483" lon="7.3433133"><ele></ele><time>2016-5-22T12:20:54Z</time></trkpt>
<trkpt lat="46.1956483" lon="7.3433133"><ele></ele><time>2016-5-22T12:20:57Z</time></trkpt>
<trkpt lat="46.1956483" lon="7.3433133"><ele></ele><time>2016-5-22T12:21:0Z</time></trkpt>
<trkpt lat="46.1956483" lon="7.3433133"><ele></ele><time>2016-5-22T12:21:3Z</time></trkpt>
<trkpt lat="46.1956483" lon="7.3433133"><ele></ele><time>2016-5-22T12:21:6Z</time></trkpt>
<trkpt lat="46.1956483" lon="7.3433133"><ele></ele><time>2016-5-22T12:21:9Z</time></trkpt>
<trkpt lat="46.1956483" lon="7.3433133"><ele></ele><time>2016-5-22T12:21:12Z</time></trkpt>
<trkpt lat="46.1956483" lon="7.3433133"><ele></ele><time>2016-5-22T12:21:15Z</time></trkpt>
<trkpt lat="46.1956483" lon="7.3433133"><ele></ele><time>2016-5-22T12:21:18Z</time></trkpt>
<trkpt lat="46.1956483" lon="7.3433133"><ele></ele><time>2016-5-22T12:21:21Z</time></trkpt>
<trkpt lat="46.1956483" lon="7.3433133"><ele></ele><time>2016-5-22T12:21:24Z</time></trkpt>
<trkpt lat="46.1956483" lon="7.3433133"><ele></ele><time>2016-5-22T12:21:27Z</time></trkpt>
<trkpt lat="46.1956483" lon="7.3433133"><ele></ele><time>2016-5-22T12:21:30Z</time></trkpt>
<trkpt lat="46.1956483" lon="7.3433133"><ele></ele><time>2016-5-22T12:21:33Z</time></trkpt>
<trkpt lat="46.1956483" lon="7.3433133"><ele></ele><time>2016-5-22T12:21:36Z</time></trkpt>
<trkpt lat="46.1956483" lon="7.3433133"><ele></ele><time>2016-5-22T12:21:39Z</time></trkpt>
<trkpt lat="46.1956483" lon="7.3433133"><ele></ele><time>2016-5-22T12:21:42Z</time></trkpt>
<trkpt lat="46.1956483" lon="7.3433133"><ele></ele><time>2016-5-22T12:21:45Z</time></trkpt>
<trkpt lat="46.1956483" lon="7.3433133"><ele></ele><time>2016-5-22T12:21:48Z</time></trkpt>
<trkpt lat="46.1956483" lon="7.3433133"><ele></ele><time>2016-5-22T12:21:51Z</time></trkpt>
<trkpt lat="46.1956483" lon="7.3433133"><ele></ele><time>2016-5-22T12:21:54Z</time></trkpt>
<trkpt lat="46.1956483" lon="7.3433133"><ele></ele><time>2016-5-22T12:21:57Z</time></trkpt>
<trkpt lat="46.1956483" lon="7.3433133"><ele></ele><time>2016-5-22T12:22:0Z</time></trkpt>
<trkpt lat="46.1956483" lon="7.3433133"><ele></ele><time>2016-5-22T12:22:3Z</time></trkpt>
<trkpt lat="46.1956483" lon="7.3433133"><ele></ele><time>2016-5-22T12:22:6Z</time></trkpt>
<trkpt lat="46.1956483" lon="7.3433133"><ele></ele><time>2016-5-22T12:22:9Z</time></trkpt>
<trkpt lat="46.1956483" lon="7.3433133"><ele></ele><time>2016-5-22T12:22:12Z</time></trkpt>
<trkpt lat="46.1956483" lon="7.3433133"><ele></ele><time>2016-5-22T12:22:15Z</time></trkpt>
<trkpt lat="46.1956483" lon="7.3433133"><ele></ele><time>2016-5-22T12:22:18Z</time></trkpt>
<trkpt lat="46.1956483" lon="7.3433133"><ele></ele><time>2016-5-22T12:22:21Z</time></trkpt>
<trkpt lat="46.1956483" lon="7.3433133"><ele></ele><time>2016-5-22T12:22:24Z</time></trkpt>
<trkpt lat="46.1956483" lon="7.3433133"><ele></ele><time>2016-5-22T12:22:27Z</time></trkpt>
<trkpt lat="46.1956483" lon="7.3433133"><ele></ele><time>2016-5-22T12:22:30Z</time></trkpt>
<trkpt lat="46.1956483" lon="7.3433133"><ele></ele><time>2016-5-22T12:22:33Z</time></trkpt>
<trkpt lat="46.1956483" lon="7.3433133"><ele></ele><time>2016-5-22T12:22:36Z</time></trkpt>
<trkpt lat="46.1956483" lon="7.3433133"><ele></ele><time>2016-5-22T12:22:39Z</time></trkpt>
<trkpt lat="46.1956483" lon="7.3433133"><ele></ele><time>2016-5-22T12:22:42Z</time></trkpt>
<trkpt lat="46.1956483" lon="7.3433133"><ele></ele><time>2016-5-22T12:22:45Z</time></trkpt>
<trkpt lat="46.1956483" lon="7.3433133"><ele></ele><time>2016-5-22T12:22:48Z</time></trkpt>
<trkpt lat="46.1956483" lon="7.3433133"><ele></ele><time>2016-5-22T12:22:51Z</time></trkpt>
<trkpt lat="46.1956483" lon="7.3433133"><ele></ele><time>2016-5-22T12:22:54Z</time></trkpt>
<trkpt lat="46.1956483" lon="7.3433133"><ele></ele><time>2016-5-22T12:22:57Z</time></trkpt>
<trkpt lat="46.1956483" lon="7.3433133"><ele></ele><time>2016-5-22T12:23:0Z</time></trkpt>
<trkpt lat="46.1956483" lon="7.3433133"><ele></ele><time>2016-5-22T12:23:3Z</time></trkpt>
<trkpt lat="46.1956483" lon="7.3433133"><ele></ele><time>2016-5-22T12:23:6Z</time></trkpt>
<trkpt lat="46.1956483" lon="7.3433133"><ele></ele><time>2016-5-22T12:23:9Z</time></trkpt>
<trkpt lat="46.1956483" lon="7.3433133"><ele></ele><time>2016-5-22T12:23:12Z</time></trkpt>
<trkpt lat="46.1956483" lon="7.3433133"><ele></ele><time>2016-5-22T12:23:15Z</time></trkpt>
<trkpt lat="46.1956483" lon="7.3433133"><ele></ele><time>2016-5-22T12:23:18Z</time></trkpt>
<trkpt lat="46.1956483" lon="7.3433133"><ele></ele><time>2016-5-22T12:23:21Z</time></trkpt>
<trkpt lat="46.1956483" lon="7.3433133"><ele></ele><time>2016-5-22T12:23:24Z</time></trkpt>
<trkpt lat="46.1956483" lon="7.3433133"><ele></ele><time>2016-5-22T12:23:27Z</time></trkpt>
<trkpt lat="46.1956483" lon="7.3433133"><ele></ele><time>2016-5-22T12:23:30Z</time></trkpt>
<trkpt lat="46.1956483" lon="7.3433133"><ele></ele><time>2016-5-22T12:23:33Z</time></trkpt>
<trkpt lat="46.1956483" lon="7.3433133"><ele></ele><time>2016-5-22T12:23:36Z</time></trkpt>
<trkpt lat="46.1956483" lon="7.3433133"><ele></ele><time>2016-5-22T12:23:39Z</time></trkpt>
<trkpt lat="46.1956483" lon="7.3433133"><ele></ele><time>2016-5-22T12:23:42Z</time></trkpt>
<trkpt lat="46.1956483" lon="7.3433133"><ele></ele><time>2016-5-22T12:23:45Z</time></trkpt>
<trkpt lat="46.1956483" lon="7.3433133"><ele></ele><time>2016-5-22T12:23:48Z</time></trkpt>
<trkpt lat="46.1956483" lon="7.3433133"><ele></ele><time>2016-5-22T12:23:51Z</time></trkpt>
<trkpt lat="46.1956483" lon="7.3433133"><ele></ele><time>2016-5-22T12:23:54Z</time></trkpt>
<trkpt lat="46.1956483" lon="7.3433133"><ele></ele><time>2016-5-22T12:23:57Z</time></trkpt>
<trkpt lat="46.1956483" lon="7.3433133"><ele></ele><time>2016-5-22T12:24:0Z</time></trkpt>
<trkpt lat="46.1956483" lon="7.3433133"><ele></ele><time>2016-5-22T12:24:3Z</time></trkpt>
<trkpt lat="46.1956483" lon="7.3433133"><ele></ele><time>2016-5-22T12:24:6Z</time></trkpt>
<trkpt lat="46.1956483" lon="7.3433133"><ele></ele><time>2016-5-22T12:24:9Z</time></trkpt>
<trkpt lat="46.1956483" lon="7.3433133"><ele></ele><time>2016-5-22T12:24:12Z</time></trkpt>
<trkpt lat="46.1956483" lon="7.3433133"><ele></ele><time>2016-5-22T12:24:15Z</time></trkpt>
<trkpt lat="46.1956483" lon="7.3433133"><ele></ele><time>2016-5-22T12:24:18Z</time></trkpt>
<trkpt lat="46.1956483" lon="7.3433133"><ele></ele><time>2016-5-22T12:24:21Z</time></trkpt>
<trkpt lat="46.1956483" lon="7.3433133"><ele></ele><time>2016-5-22T12:24:24Z</time></trkpt>
<trkpt lat="46.1956483" lon="7.3433133"><ele></ele><time>2016-5-22T12:24:27Z</time></trkpt>
<trkpt lat="46.1956483" lon="7.3433133"><ele></ele><time>2016-5-22T12:24:30Z</time></trkpt>
<trkpt lat="46.1956483" lon="7.3433133"><ele></ele><time>2016-5-22T12:24:33Z</time></trkpt>
<trkpt lat="46.1956483" lon="7.3433133"><ele></ele><time>2016-5-22T12:24:36Z</time></trkpt>
<trkpt lat="46.1956483" lon="7.3433133"><ele></ele><time>2016-5-22T12:24:39Z</time></trkpt>
<trkpt lat="46.1956483" lon="7.3433133"><ele></ele><time>2016-5-22T12:24:42Z</time></trkpt>
<trkpt lat="46.1956483" lon="7.3433133"><ele></ele><time>2016-5-22T12:24:45Z</time></trkpt>
<trkpt lat="46.1956483" lon="7.3433133"><ele></ele><time>2016-5-22T12:24:48Z</time></trkpt>
<trkpt lat="46.1956483" lon="7.3433133"><ele></ele><time>2016-5-22T12:24:51Z</time></trkpt>
<trkpt lat="46.1956483" lon="7.3433133"><ele></ele><time>2016-5-22T12:24:54Z</time></trkpt>
<trkpt lat="46.1956483" lon="7.3433133"><ele></ele><time>2016-5-22T12:24:57Z</time></trkpt>
<trkpt lat="46.1956483" lon="7.3433133"><ele></ele><time>2016-5-22T12:25:0Z</time></trkpt>
<trkpt lat="46.1956483" lon="7.3433133"><ele></ele><time>2016-5-22T12:25:3Z</time></trkpt>
<trkpt lat="46.1956483" lon="7.3433133"><ele></ele><time>2016-5-22T12:25:6Z</time></trkpt>
<trkpt lat="46.1956483" lon="7.3433133"><ele></ele><time>2016-5-22T12:25:9Z</time></trkpt>
<trkpt lat="46.1956483" lon="7.3433133"><ele></ele><time>2016-5-22T12:25:12Z</time></trkpt>
<trkpt lat="46.1956483" lon="7.3433133"><ele></ele><time>2016-5-22T12:25:15Z</time></trkpt>
<trkpt lat="46.1956483" lon="7.3433133"><ele></ele><time>2016-5-22T12:25:18Z</time></trkpt>
<trkpt lat="46.1956483" lon="7.3433133"><ele></ele><time>2016-5-22T12:25:21Z</time></trkpt>
<trkpt lat="46.1956483" lon="7.3433133"><ele></ele><time>2016-5-22T12:25:24Z</time></trkpt>
<trkpt lat="46.1956483" lon="7.3433133"><ele></ele><time>2016-5-22T12:25:27Z</time></trkpt>
<trkpt lat="46.1956483" lon="7.3433133"><ele></ele><time>2016-5-22T12:25:30Z</time></trkpt>
<trkpt lat="46.1956483" lon="7.3433133"><ele></ele><time>2016-5-22T12:25:33Z</time></trkpt>
<trkpt lat="46.1956483" lon="7.3433133"><ele></ele><time>2016-5-22T12:25:36Z</time></trkpt>
<trkpt lat="46.1956483" lon="7.3433133"><ele></ele><time>2016-5-22T12:25:39Z</time></trkpt>
<trkpt lat="46.1956483" lon="7.3433133"><ele></ele><time>2016-5-22T12:25:42Z</time></trkpt>
<trkpt lat="46.1956483" lon="7.3433133"><ele></ele><time>2016-5-22T12:25:45Z</time></trkpt>
<trkpt lat="46.1956483" lon="7.3433133"><ele></ele><time>2016-5-22T12:25:48Z</time></trkpt>
<trkpt lat="46.1956483" lon="7.3433133"><ele></ele><time>2016-5-22T12:25:51Z</time></trkpt>
<trkpt lat="46.1956483" lon="7.3433133"><ele></ele><time>2016-5-22T12:25:54Z</time></trkpt>
<trkpt lat="46.1956483" lon="7.3433133"><ele></ele><time>2016-5-22T12:25:57Z</time></trkpt>
<trkpt lat="46.1956483" lon="7.3433133"><ele></ele><time>2016-5-22T12:26:0Z</time></trkpt>
<trkpt lat="46.1956483" lon="7.3433133"><ele></ele><time>2016-5-22T12:26:3Z</time></trkpt>
<trkpt lat="46.1956483" lon="7.3433133"><ele></ele><time>2016-5-22T12:26:6Z</time></trkpt>
<trkpt lat="46.1956483" lon="7.3433133"><ele></ele><time>2016-5-22T12:26:9Z</time></trkpt>
<trkpt lat="46.1956483" lon="7.3433133"><ele></ele><time>2016-5-22T12:26:12Z</time></trkpt>
<trkpt lat="46.1956483" lon="7.3433133"><ele></ele><time>2016-5-22T12:26:15Z</time></trkpt>
<trkpt lat="46.1956483" lon="7.3433133"><ele></ele><time>2016-5-22T12:26:18Z</time></trkpt>
<trkpt lat="46.1956483" lon="7.3433133"><ele></ele><time>2016-5-22T12:26:21Z</time></trkpt>
<trkpt lat="46.1956483" lon="7.3433133"><ele></ele><time>2016-5-22T12:26:24Z</time></trkpt>
<trkpt lat="46.1956483" lon="7.3433133"><ele></ele><time>2016-5-22T12:26:27Z</time></trkpt>
<trkpt lat="46.1956483" lon="7.3433133"><ele></ele><time>2016-5-22T12:26:30Z</time></trkpt>
<trkpt lat="46.1956483" lon="7.3433133"><ele></ele><time>2016-5-22T12:26:33Z</time></trkpt>
<trkpt lat="46.1956483" lon="7.3433133"><ele></ele><time>2016-5-22T12:26:36Z</time></trkpt>
<trkpt lat="46.1956483" lon="7.3433133"><ele></ele><time>2016-5-22T12:26:39Z</time></trkpt>
<trkpt lat="46.1956483" lon="7.3433133"><ele></ele><time>2016-5-22T12:26:42Z</time></trkpt>
<trkpt lat="46.1956483" lon="7.3433133"><ele></ele><time>2016-5-22T12:26:45Z</time></trkpt>
<trkpt lat="46.1956483" lon="7.3433133"><ele></ele><time>2016-5-22T12:26:48Z</time></trkpt>
<trkpt lat="46.1956483" lon="7.3433133"><ele></ele><time>2016-5-22T12:26:51Z</time></trkpt>
<trkpt lat="46.1956483" lon="7.3433133"><ele></ele><time>2016-5-22T12:26:54Z</time></trkpt>
<trkpt lat="46.1956483" lon="7.3433133"><ele></ele><time>2016-5-22T12:26:57Z</time></trkpt>
<trkpt lat="46.1956483" lon="7.3433133"><ele></ele><time>2016-5-22T12:27:0Z</time></trkpt>
<trkpt lat="46.1956483" lon="7.3433133"><ele></ele><time>2016-5-22T12:27:3Z</time></trkpt>
<trkpt lat="46.1956483" lon="7.3433133"><ele></ele><time>2016-5-22T12:27:6Z</time></trkpt>
<trkpt lat="46.1956483" lon="7.3433133"><ele></ele><time>2016-5-22T12:27:9Z</time></trkpt>
<trkpt lat="46.1956483" lon="7.3433133"><ele></ele><time>2016-5-22T12:27:12Z</time></trkpt>
<trkpt lat="46.1956483" lon="7.3433133"><ele></ele><time>2016-5-22T12:27:15Z</time></trkpt>
<trkpt lat="46.1956483" lon="7.3433133"><ele></ele><time>2016-5-22T12:27:18Z</time></trkpt>
<trkpt lat="46.1956483" lon="7.3433133"><ele></ele><time>2016-5-22T12:27:21Z</time></trkpt>
<trkpt lat="46.1956483" lon="7.3433133"><ele></ele><time>2016-5-22T12:27:24Z</time></trkpt>
<trkpt lat="46.1956483" lon="7.3433133"><ele></ele><time>2016-5-22T12:27:27Z</time></trkpt>
<trkpt lat="46.1956483" lon="7.3433133"><ele></ele><time>2016-5-22T12:27:30Z</time></trkpt>
<trkpt lat="46.1956483" lon="7.3433133"><ele></ele><time>2016-5-22T12:27:33Z</time></trkpt>
<trkpt lat="46.1956483" lon="7.3433133"><ele></ele><time>2016-5-22T12:27:36Z</time></trkpt>
<trkpt lat="46.1956483" lon="7.3433133"><ele></ele><time>2016-5-22T12:27:39Z</time></trkpt>
<trkpt lat="46.1956483" lon="7.3433133"><ele></ele><time>2016-5-22T12:27:42Z</time></trkpt>
<trkpt lat="46.1956483" lon="7.3433133"><ele></ele><time>2016-5-22T12:27:45Z</time></trkpt>
<trkpt lat="46.1956483" lon="7.3433133"><ele></ele><time>2016-5-22T12:27:48Z</time></trkpt>
<trkpt lat="46.1956483" lon="7.3433133"><ele></ele><time>2016-5-22T12:27:51Z</time></trkpt>
<trkpt lat="46.1956483" lon="7.3433133"><ele></ele><time>2016-5-22T12:27:54Z</time></trkpt>
<trkpt lat="46.1956483" lon="7.3433133"><ele></ele><time>2016-5-22T12:27:57Z</time></trkpt>
<trkpt lat="46.1956483" lon="7.3433133"><ele></ele><time>2016-5-22T12:28:0Z</time></trkpt>
<trkpt lat="46.1956483" lon="7.3433133"><ele></ele><time>2016-5-22T12:28:3Z</time></trkpt>
<trkpt lat="46.1956483" lon="7.3433133"><ele></ele><time>2016-5-22T12:28:6Z</time></trkpt>
<trkpt lat="46.1956483" lon="7.3433133"><ele></ele><time>2016-5-22T12:28:9Z</time></trkpt>
<trkpt lat="46.1956483" lon="7.3433133"><ele></ele><time>2016-5-22T12:28:12Z</time></trkpt>
<trkpt lat="46.1956483" lon="7.3433133"><ele></ele><time>2016-5-22T12:28:15Z</time></trkpt>
<trkpt lat="46.1956483" lon="7.3433133"><ele></ele><time>2016-5-22T12:28:18Z</time></trkpt>
<trkpt lat="46.1956483" lon="7.3433133"><ele></ele><time>2016-5-22T12:28:21Z</time></trkpt>
<trkpt lat="46.1956483" lon="7.3433133"><ele></ele><time>2016-5-22T12:28:24Z</time></trkpt>
<trkpt lat="46.1956483" lon="7.3433133"><ele></ele><time>2016-5-22T12:28:27Z</time></trkpt>
<trkpt lat="46.1956483" lon="7.3433133"><ele></ele><time>2016-5-22T12:28:30Z</time></trkpt>
<trkpt lat="46.1956450" lon="7.3432967"><ele></ele><time>2016-5-22T12:28:33Z</time></trkpt>
<trkpt lat="46.1956450" lon="7.3432967"><ele></ele><time>2016-5-22T12:28:36Z</time></trkpt>
<trkpt lat="46.1956450" lon="7.3432967"><ele></ele><time>2016-5-22T12:28:39Z</time></trkpt>
<trkpt lat="46.1956450" lon="7.3432967"><ele></ele><time>2016-5-22T12:28:42Z</time></trkpt>
<trkpt lat="46.1956450" lon="7.3432967"><ele></ele><time>2016-5-22T12:28:45Z</time></trkpt>
<trkpt lat="46.1956450" lon="7.3432967"><ele></ele><time>2016-5-22T12:28:48Z</time></trkpt>
<trkpt lat="46.1956450" lon="7.3432967"><ele></ele><time>2016-5-22T12:28:51Z</time></trkpt>
<trkpt lat="46.1956450" lon="7.3432967"><ele></ele><time>2016-5-22T12:28:54Z</time></trkpt>
<trkpt lat="46.1956450" lon="7.3432967"><ele></ele><time>2016-5-22T12:28:57Z</time></trkpt>
<trkpt lat="46.1956450" lon="7.3432967"><ele></ele><time>2016-5-22T12:29:0Z</time></trkpt>
<trkpt lat="46.1956450" lon="7.3432967"><ele></ele><time>2016-5-22T12:29:3Z</time></trkpt>
<trkpt lat="46.1956450" lon="7.3432967"><ele></ele><time>2016-5-22T12:29:6Z</time></trkpt>
<trkpt lat="46.1956450" lon="7.3432967"><ele></ele><time>2016-5-22T12:29:9Z</time></trkpt>
<trkpt lat="46.1956450" lon="7.3432967"><ele></ele><time>2016-5-22T12:29:12Z</time></trkpt>
<trkpt lat="46.1956450" lon="7.3432967"><ele></ele><time>2016-5-22T12:29:15Z</time></trkpt>
<trkpt lat="46.1956450" lon="7.3432967"><ele></ele><time>2016-5-22T12:29:18Z</time></trkpt>
<trkpt lat="46.1956450" lon="7.3432967"><ele></ele><time>2016-5-22T12:29:21Z</time></trkpt>
<trkpt lat="46.1956450" lon="7.3432967"><ele></ele><time>2016-5-22T12:29:24Z</time></trkpt>
<trkpt lat="46.1956450" lon="7.3432967"><ele></ele><time>2016-5-22T12:29:27Z</time></trkpt>
<trkpt lat="46.1956450" lon="7.3432967"><ele></ele><time>2016-5-22T12:29:30Z</time></trkpt>
<trkpt lat="46.1956450" lon="7.3432967"><ele></ele><time>2016-5-22T12:29:33Z</time></trkpt>
<trkpt lat="46.1956450" lon="7.3432967"><ele></ele><time>2016-5-22T12:29:36Z</time></trkpt>
<trkpt lat="46.1956450" lon="7.3432967"><ele></ele><time>2016-5-22T12:29:39Z</time></trkpt>
<trkpt lat="46.1956450" lon="7.3432817"><ele></ele><time>2016-5-22T12:29:42Z</time></trkpt>
<trkpt lat="46.1956517" lon="7.3432883"><ele></ele><time>2016-5-22T12:29:45Z</time></trkpt>
<trkpt lat="46.1956583" lon="7.3433100"><ele></ele><time>2016-5-22T12:29:48Z</time></trkpt>
<trkpt lat="46.1956617" lon="7.3433317"><ele></ele><time>2016-5-22T12:29:51Z</time></trkpt>
<trkpt lat="46.1956617" lon="7.3433317"><ele></ele><time>2016-5-22T12:29:54Z</time></trkpt>
<trkpt lat="46.1956650" lon="7.3433450"><ele></ele><time>2016-5-22T12:29:57Z</time></trkpt>
<trkpt lat="46.1956650" lon="7.3433533"><ele></ele><time>2016-5-22T12:30:0Z</time></trkpt>
<trkpt lat="46.1956617" lon="7.3433683"><ele></ele><time>2016-5-22T12:30:3Z</time></trkpt>
<trkpt lat="46.1956517" lon="7.3433883"><ele></ele><time>2016-5-22T12:30:6Z</time></trkpt>
<trkpt lat="46.1956400" lon="7.3434033"><ele></ele><time>2016-5-22T12:30:9Z</time></trkpt>
<trkpt lat="46.1956317" lon="7.3434117"><ele></ele><time>2016-5-22T12:30:12Z</time></trkpt>
<trkpt lat="46.1956267" lon="7.3434133"><ele></ele><time>2016-5-22T12:30:15Z</time></trkpt>
<trkpt lat="46.1956217" lon="7.3434100"><ele></ele><time>2016-5-22T12:30:18Z</time></trkpt>
<trkpt lat="46.1956217" lon="7.3434067"><ele></ele><time>2016-5-22T12:30:21Z</time></trkpt>
<trkpt lat="46.1956217" lon="7.3434067"><ele></ele><time>2016-5-22T12:30:24Z</time></trkpt>
<trkpt lat="46.1956217" lon="7.3434067"><ele></ele><time>2016-5-22T12:30:27Z</time></trkpt>
<trkpt lat="46.1956217" lon="7.3434067"><ele></ele><time>2016-5-22T12:30:30Z</time></trkpt>
<trkpt lat="46.1956217" lon="7.3434067"><ele></ele><time>2016-5-22T12:30:33Z</time></trkpt>
<trkpt lat="46.1956217" lon="7.3434067"><ele></ele><time>2016-5-22T12:30:36Z</time></trkpt>
<trkpt lat="46.1956217" lon="7.3434067"><ele></ele><time>2016-5-22T12:30:39Z</time></trkpt>
<trkpt lat="46.1956217" lon="7.3434067"><ele></ele><time>2016-5-22T12:30:42Z</time></trkpt>
<trkpt lat="46.1956217" lon="7.3434067"><ele></ele><time>2016-5-22T12:30:45Z</time></trkpt>
<trkpt lat="46.1956217" lon="7.3434067"><ele></ele><time>2016-5-22T12:30:48Z</time></trkpt>
<trkpt lat="46.1956217" lon="7.3434067"><ele></ele><time>2016-5-22T12:30:51Z</time></trkpt>
<trkpt lat="46.1956217" lon="7.3434067"><ele></ele><time>2016-5-22T12:30:54Z</time></trkpt>
<trkpt lat="46.1956217" lon="7.3434067"><ele></ele><time>2016-5-22T12:30:57Z</time></trkpt>
<trkpt lat="46.1956217" lon="7.3434067"><ele></ele><time>2016-5-22T12:31:0Z</time></trkpt>
<trkpt lat="46.1956217" lon="7.3434067"><ele></ele><time>2016-5-22T12:31:3Z</time></trkpt>
<trkpt lat="46.1956217" lon="7.3434067"><ele></ele><time>2016-5-22T12:31:6Z</time></trkpt>
<trkpt lat="46.1956217" lon="7.3434067"><ele></ele><time>2016-5-22T12:31:9Z</time></trkpt>
<trkpt lat="46.1956217" lon="7.3434067"><ele></ele><time>2016-5-22T12:31:12Z</time></trkpt>
<trkpt lat="46.1956217" lon="7.3434067"><ele></ele><time>2016-5-22T12:31:15Z</time></trkpt>
<trkpt lat="46.1956217" lon="7.3434067"><ele></ele><time>2016-5-22T12:31:18Z</time></trkpt>
<trkpt lat="46.1956217" lon="7.3434067"><ele></ele><time>2016-5-22T12:31:21Z</time></trkpt>
<trkpt lat="46.1956217" lon="7.3434067"><ele></ele><time>2016-5-22T12:31:24Z</time></trkpt>
<trkpt lat="46.1956217" lon="7.3434067"><ele></ele><time>2016-5-22T12:31:27Z</time></trkpt>
<trkpt lat="46.1956217" lon="7.3434067"><ele></ele><time>2016-5-22T12:31:30Z</time></trkpt>
<trkpt lat="46.1956217" lon="7.3434067"><ele></ele><time>2016-5-22T12:31:33Z</time></trkpt>
<trkpt lat="46.1956217" lon="7.3434067"><ele></ele><time>2016-5-22T12:31:36Z</time></trkpt>
<trkpt lat="46.1956217" lon="7.3434067"><ele></ele><time>2016-5-22T12:31:39Z</time></trkpt>
<trkpt lat="46.1956217" lon="7.3434067"><ele></ele><time>2016-5-22T12:31:42Z</time></trkpt>
<trkpt lat="46.1956217" lon="7.3434067"><ele></ele><time>2016-5-22T12:31:45Z</time></trkpt>
<trkpt lat="46.1956217" lon="7.3434067"><ele></ele><time>2016-5-22T12:31:48Z</time></trkpt>
<trkpt lat="46.1956217" lon="7.3434067"><ele></ele><time>2016-5-22T12:31:51Z</time></trkpt>
<trkpt lat="46.1956217" lon="7.3434067"><ele></ele><time>2016-5-22T12:31:54Z</time></trkpt>
<trkpt lat="46.1956217" lon="7.3434067"><ele></ele><time>2016-5-22T12:31:57Z</time></trkpt>
<trkpt lat="46.1956217" lon="7.3434067"><ele></ele><time>2016-5-22T12:32:0Z</time></trkpt>
<trkpt lat="46.1956217" lon="7.3434067"><ele></ele><time>2016-5-22T12:32:3Z</time></trkpt>
<trkpt lat="46.1956217" lon="7.3434067"><ele></ele><time>2016-5-22T12:32:6Z</time></trkpt>
<trkpt lat="46.1956217" lon="7.3434067"><ele></ele><time>2016-5-22T12:32:9Z</time></trkpt>
<trkpt lat="46.1956217" lon="7.3434067"><ele></ele><time>2016-5-22T12:32:12Z</time></trkpt>
<trkpt lat="46.1956217" lon="7.3434067"><ele></ele><time>2016-5-22T12:32:15Z</time></trkpt>
<trkpt lat="46.1956350" lon="7.3434167"><ele></ele><time>2016-5-22T12:32:18Z</time></trkpt>
<trkpt lat="46.1956350" lon="7.3434167"><ele></ele><time>2016-5-22T12:32:21Z</time></trkpt>
<trkpt lat="46.1956333" lon="7.3434150"><ele></ele><time>2016-5-22T12:32:24Z</time></trkpt>
<trkpt lat="46.1956333" lon="7.3434150"><ele></ele><time>2016-5-22T12:32:27Z</time></trkpt>
<trkpt lat="46.1956300" lon="7.3434167"><ele></ele><time>2016-5-22T12:32:30Z</time></trkpt>
<trkpt lat="46.1956300" lon="7.3434200"><ele></ele><time>2016-5-22T12:32:33Z</time></trkpt>
<trkpt lat="46.1956300" lon="7.3434200"><ele></ele><time>2016-5-22T12:32:36Z</time></trkpt>
<trkpt lat="46.1956300" lon="7.3434200"><ele></ele><time>2016-5-22T12:32:39Z</time></trkpt>
<trkpt lat="46.1956300" lon="7.3434200"><ele></ele><time>2016-5-22T12:32:42Z</time></trkpt>
<trkpt lat="46.1956483" lon="7.3434200"><ele></ele><time>2016-5-22T12:32:45Z</time></trkpt>
<trkpt lat="46.1956583" lon="7.3434200"><ele></ele><time>2016-5-22T12:32:48Z</time></trkpt>
<trkpt lat="46.1956583" lon="7.3434200"><ele></ele><time>2016-5-22T12:32:51Z</time></trkpt>
<trkpt lat="46.1956583" lon="7.3434200"><ele></ele><time>2016-5-22T12:32:54Z</time></trkpt>
<trkpt lat="46.1956583" lon="7.3434200"><ele></ele><time>2016-5-22T12:32:57Z</time></trkpt>
<trkpt lat="46.1956583" lon="7.3434200"><ele></ele><time>2016-5-22T12:33:0Z</time></trkpt>
<trkpt lat="46.1956583" lon="7.3434200"><ele></ele><time>2016-5-22T12:33:3Z</time></trkpt>
<trkpt lat="46.1956583" lon="7.3434200"><ele></ele><time>2016-5-22T12:33:6Z</time></trkpt>
<trkpt lat="46.1956583" lon="7.3434200"><ele></ele><time>2016-5-22T12:33:9Z</time></trkpt>
<trkpt lat="46.1956583" lon="7.3434200"><ele></ele><time>2016-5-22T12:33:12Z</time></trkpt>
<trkpt lat="46.1956583" lon="7.3434200"><ele></ele><time>2016-5-22T12:33:15Z</time></trkpt>
<trkpt lat="46.1956583" lon="7.3434200"><ele></ele><time>2016-5-22T12:33:18Z</time></trkpt>
<trkpt lat="46.1956583" lon="7.3434200"><ele></ele><time>2016-5-22T12:33:21Z</time></trkpt>
<trkpt lat="46.1956583" lon="7.3434200"><ele></ele><time>2016-5-22T12:33:24Z</time></trkpt>
<trkpt lat="46.1956583" lon="7.3434200"><ele></ele><time>2016-5-22T12:33:27Z</time></trkpt>
<trkpt lat="46.1956583" lon="7.3434200"><ele></ele><time>2016-5-22T12:33:30Z</time></trkpt>
<trkpt lat="46.1956583" lon="7.3434200"><ele></ele><time>2016-5-22T12:33:33Z</time></trkpt>
<trkpt lat="46.1956583" lon="7.3434200"><ele></ele><time>2016-5-22T12:33:36Z</time></trkpt>
<trkpt lat="46.1956583" lon="7.3434200"><ele></ele><time>2016-5-22T12:33:39Z</time></trkpt>
<trkpt lat="46.1956583" lon="7.3434200"><ele></ele><time>2016-5-22T12:33:42Z</time></trkpt>
<trkpt lat="46.1956583" lon="7.3434200"><ele></ele><time>2016-5-22T12:33:45Z</time></trkpt>
<trkpt lat="46.1956583" lon="7.3434200"><ele></ele><time>2016-5-22T12:33:48Z</time></trkpt>
<trkpt lat="46.1956583" lon="7.3434200"><ele></ele><time>2016-5-22T12:33:51Z</time></trkpt>
<trkpt lat="46.1956583" lon="7.3434200"><ele></ele><time>2016-5-22T12:33:54Z</time></trkpt>
<trkpt lat="46.1956583" lon="7.3434200"><ele></ele><time>2016-5-22T12:33:57Z</time></trkpt>
<trkpt lat="46.1956583" lon="7.3434200"><ele></ele><time>2016-5-22T12:34:0Z</time></trkpt>
<trkpt lat="46.1956583" lon="7.3434200"><ele></ele><time>2016-5-22T12:34:3Z</time></trkpt>
<trkpt lat="46.1956583" lon="7.3434200"><ele></ele><time>2016-5-22T12:34:6Z</time></trkpt>
<trkpt lat="46.1956583" lon="7.3434200"><ele></ele><time>2016-5-22T12:34:9Z</time></trkpt>
<trkpt lat="46.1956583" lon="7.3434200"><ele></ele><time>2016-5-22T12:34:12Z</time></trkpt>
<trkpt lat="46.1956583" lon="7.3434200"><ele></ele><time>2016-5-22T12:34:15Z</time></trkpt>
<trkpt lat="46.1956583" lon="7.3434200"><ele></ele><time>2016-5-22T12:34:18Z</time></trkpt>
<trkpt lat="46.1956583" lon="7.3434200"><ele></ele><time>2016-5-22T12:34:21Z</time></trkpt>
<trkpt lat="46.1956583" lon="7.3434200"><ele></ele><time>2016-5-22T12:34:24Z</time></trkpt>
<trkpt lat="46.1956583" lon="7.3434200"><ele></ele><time>2016-5-22T12:34:27Z</time></trkpt>
<trkpt lat="46.1956583" lon="7.3434200"><ele></ele><time>2016-5-22T12:34:30Z</time></trkpt>
<trkpt lat="46.1956583" lon="7.3434200"><ele></ele><time>2016-5-22T12:34:33Z</time></trkpt>
<trkpt lat="46.1956583" lon="7.3434200"><ele></ele><time>2016-5-22T12:34:36Z</time></trkpt>
<trkpt lat="46.1956583" lon="7.3434200"><ele></ele><time>2016-5-22T12:34:39Z</time></trkpt>
<trkpt lat="46.1956583" lon="7.3434200"><ele></ele><time>2016-5-22T12:34:42Z</time></trkpt>
<trkpt lat="46.1956583" lon="7.3434200"><ele></ele><time>2016-5-22T12:34:45Z</time></trkpt>
<trkpt lat="46.1956583" lon="7.3434200"><ele></ele><time>2016-5-22T12:34:48Z</time></trkpt>
<trkpt lat="46.1956583" lon="7.3434200"><ele></ele><time>2016-5-22T12:34:51Z</time></trkpt>
<trkpt lat="46.1956583" lon="7.3434200"><ele></ele><time>2016-5-22T12:34:54Z</time></trkpt>
<trkpt lat="46.1956583" lon="7.3434200"><ele></ele><time>2016-5-22T12:34:57Z</time></trkpt>
<trkpt lat="46.1956583" lon="7.3434200"><ele></ele><time>2016-5-22T12:35:0Z</time></trkpt>
<trkpt lat="46.1956583" lon="7.3434200"><ele></ele><time>2016-5-22T12:35:3Z</time></trkpt>
<trkpt lat="46.1956583" lon="7.3434200"><ele></ele><time>2016-5-22T12:35:6Z</time></trkpt>
<trkpt lat="46.1956583" lon="7.3434200"><ele></ele><time>2016-5-22T12:35:9Z</time></trkpt>
<trkpt lat="46.1956583" lon="7.3434200"><ele></ele><time>2016-5-22T12:35:12Z</time></trkpt>
<trkpt lat="46.1956583" lon="7.3434200"><ele></ele><time>2016-5-22T12:35:15Z</time></trkpt>
<trkpt lat="46.1956583" lon="7.3434200"><ele></ele><time>2016-5-22T12:35:18Z</time></trkpt>
<trkpt lat="46.1956583" lon="7.3434200"><ele></ele><time>2016-5-22T12:35:21Z</time></trkpt>
<trkpt lat="46.1956583" lon="7.3434200"><ele></ele><time>2016-5-22T12:35:24Z</time></trkpt>
<trkpt lat="46.1956583" lon="7.3434200"><ele></ele><time>2016-5-22T12:35:27Z</time></trkpt>
<trkpt lat="46.1956717" lon="7.3434317"><ele></ele><time>2016-5-22T12:35:30Z</time></trkpt>
<trkpt lat="46.1956800" lon="7.3434533"><ele></ele><time>2016-5-22T12:35:33Z</time></trkpt>
<trkpt lat="46.1956850" lon="7.3434783"><ele></ele><time>2016-5-22T12:35:36Z</time></trkpt>
<trkpt lat="46.1956850" lon="7.3435067"><ele></ele><time>2016-5-22T12:35:39Z</time></trkpt>
<trkpt lat="46.1956850" lon="7.3435067"><ele></ele><time>2016-5-22T12:35:42Z</time></trkpt>
<trkpt lat="46.1956817" lon="7.3435383"><ele></ele><time>2016-5-22T12:35:45Z</time></trkpt>
<trkpt lat="46.1956800" lon="7.3435667"><ele></ele><time>2016-5-22T12:35:48Z</time></trkpt>
<trkpt lat="46.1956817" lon="7.3435900"><ele></ele><time>2016-5-22T12:35:51Z</time></trkpt>
<trkpt lat="46.1956850" lon="7.3436117"><ele></ele><time>2016-5-22T12:35:54Z</time></trkpt>
<trkpt lat="46.1956883" lon="7.3436333"><ele></ele><time>2016-5-22T12:35:57Z</time></trkpt>
<trkpt lat="46.1956883" lon="7.3436567"><ele></ele><time>2016-5-22T12:36:0Z</time></trkpt>
<trkpt lat="46.1956850" lon="7.3436767"><ele></ele><time>2016-5-22T12:36:3Z</time></trkpt>
<trkpt lat="46.1956800" lon="7.3436917"><ele></ele><time>2016-5-22T12:36:6Z</time></trkpt>
<trkpt lat="46.1956750" lon="7.3437067"><ele></ele><time>2016-5-22T12:36:9Z</time></trkpt>
<trkpt lat="46.1956717" lon="7.3437167"><ele></ele><time>2016-5-22T12:36:12Z</time></trkpt>
<trkpt lat="46.1956717" lon="7.3437167"><ele></ele><time>2016-5-22T12:36:15Z</time></trkpt>
<trkpt lat="46.1956717" lon="7.3437167"><ele></ele><time>2016-5-22T12:36:18Z</time></trkpt>
<trkpt lat="46.1956717" lon="7.3437167"><ele></ele><time>2016-5-22T12:36:21Z</time></trkpt>
<trkpt lat="46.1956717" lon="7.3437167"><ele></ele><time>2016-5-22T12:36:24Z</time></trkpt>
<trkpt lat="46.1956717" lon="7.3437167"><ele></ele><time>2016-5-22T12:36:27Z</time></trkpt>
<trkpt lat="46.1956717" lon="7.3437167"><ele></ele><time>2016-5-22T12:36:30Z</time></trkpt>
<trkpt lat="46.1956717" lon="7.3437167"><ele></ele><time>2016-5-22T12:36:33Z</time></trkpt>
<trkpt lat="46.1956717" lon="7.3437167"><ele></ele><time>2016-5-22T12:36:36Z</time></trkpt>
<trkpt lat="46.1956717" lon="7.3437167"><ele></ele><time>2016-5-22T12:36:39Z</time></trkpt>
<trkpt lat="46.1956717" lon="7.3437167"><ele></ele><time>2016-5-22T12:36:42Z</time></trkpt>
<trkpt lat="46.1956717" lon="7.3437167"><ele></ele><time>2016-5-22T12:36:45Z</time></trkpt>
<trkpt lat="46.1956717" lon="7.3437167"><ele></ele><time>2016-5-22T12:36:48Z</time></trkpt>
<trkpt lat="46.1956717" lon="7.3437167"><ele></ele><time>2016-5-22T12:36:51Z</time></trkpt>
<trkpt lat="46.1956717" lon="7.3437167"><ele></ele><time>2016-5-22T12:36:54Z</time></trkpt>
<trkpt lat="46.1956717" lon="7.3437167"><ele></ele><time>2016-5-22T12:36:57Z</time></trkpt>
<trkpt lat="46.1956717" lon="7.3437167"><ele></ele><time>2016-5-22T12:37:0Z</time></trkpt>
<trkpt lat="46.1956717" lon="7.3437167"><ele></ele><time>2016-5-22T12:37:3Z</time></trkpt>
<trkpt lat="46.1956717" lon="7.3437167"><ele></ele><time>2016-5-22T12:37:6Z</time></trkpt>
<trkpt lat="46.1956717" lon="7.3437167"><ele></ele><time>2016-5-22T12:37:9Z</time></trkpt>
<trkpt lat="46.1956717" lon="7.3437167"><ele></ele><time>2016-5-22T12:37:12Z</time></trkpt>
<trkpt lat="46.1956717" lon="7.3437167"><ele></ele><time>2016-5-22T12:37:15Z</time></trkpt>
<trkpt lat="46.1956717" lon="7.3437167"><ele></ele><time>2016-5-22T12:37:18Z</time></trkpt>
<trkpt lat="46.1956733" lon="7.3437233"><ele></ele><time>2016-5-22T12:37:21Z</time></trkpt>
<trkpt lat="46.1956733" lon="7.3437233"><ele></ele><time>2016-5-22T12:37:24Z</time></trkpt>
<trkpt lat="46.1956733" lon="7.3437233"><ele></ele><time>2016-5-22T12:37:27Z</time></trkpt>
<trkpt lat="46.1956733" lon="7.3437233"><ele></ele><time>2016-5-22T12:37:30Z</time></trkpt>
<trkpt lat="46.1956733" lon="7.3437233"><ele></ele><time>2016-5-22T12:37:33Z</time></trkpt>
<trkpt lat="46.1956733" lon="7.3437233"><ele></ele><time>2016-5-22T12:37:36Z</time></trkpt>
<trkpt lat="46.1956733" lon="7.3437233"><ele></ele><time>2016-5-22T12:37:39Z</time></trkpt>
<trkpt lat="46.1956733" lon="7.3437233"><ele></ele><time>2016-5-22T12:37:42Z</time></trkpt>
<trkpt lat="46.1956733" lon="7.3437233"><ele></ele><time>2016-5-22T12:37:45Z</time></trkpt>
<trkpt lat="46.1956733" lon="7.3437233"><ele></ele><time>2016-5-22T12:37:48Z</time></trkpt>
<trkpt lat="46.1956733" lon="7.3437233"><ele></ele><time>2016-5-22T12:37:51Z</time></trkpt>
<trkpt lat="46.1956733" lon="7.3437233"><ele></ele><time>2016-5-22T12:37:54Z</time></trkpt>
<trkpt lat="46.1956733" lon="7.3437233"><ele></ele><time>2016-5-22T12:37:57Z</time></trkpt>
<trkpt lat="46.1956733" lon="7.3437233"><ele></ele><time>2016-5-22T12:38:0Z</time></trkpt>
<trkpt lat="46.1956733" lon="7.3437233"><ele></ele><time>2016-5-22T12:38:3Z</time></trkpt>
<trkpt lat="46.1956733" lon="7.3437233"><ele></ele><time>2016-5-22T12:38:6Z</time></trkpt>
<trkpt lat="46.1956733" lon="7.3437233"><ele></ele><time>2016-5-22T12:38:9Z</time></trkpt>
<trkpt lat="46.1956733" lon="7.3437233"><ele></ele><time>2016-5-22T12:38:12Z</time></trkpt>
<trkpt lat="46.1956733" lon="7.3437233"><ele></ele><time>2016-5-22T12:38:15Z</time></trkpt>
<trkpt lat="46.1956733" lon="7.3437233"><ele></ele><time>2016-5-22T12:38:18Z</time></trkpt>
<trkpt lat="46.1956900" lon="7.3437200"><ele></ele><time>2016-5-22T12:38:21Z</time></trkpt>
<trkpt lat="46.1956967" lon="7.3437267"><ele></ele><time>2016-5-22T12:38:24Z</time></trkpt>
<trkpt lat="46.1957067" lon="7.3437333"><ele></ele><time>2016-5-22T12:38:27Z</time></trkpt>
<trkpt lat="46.1957217" lon="7.3437483"><ele></ele><time>2016-5-22T12:38:30Z</time></trkpt>
<trkpt lat="46.1957367" lon="7.3437800"><ele></ele><time>2016-5-22T12:38:33Z</time></trkpt>
<trkpt lat="46.1957483" lon="7.3438167"><ele></ele><time>2016-5-22T12:38:36Z</time></trkpt>
<trkpt lat="46.1957533" lon="7.3438550"><ele></ele><time>2016-5-22T12:38:39Z</time></trkpt>
<trkpt lat="46.1957567" lon="7.3438917"><ele></ele><time>2016-5-22T12:38:42Z</time></trkpt>
<trkpt lat="46.1957617" lon="7.3439283"><ele></ele><time>2016-5-22T12:38:45Z</time></trkpt>
<trkpt lat="46.1957650" lon="7.3439617"><ele></ele><time>2016-5-22T12:38:48Z</time></trkpt>
<trkpt lat="46.1957683" lon="7.3439933"><ele></ele><time>2016-5-22T12:38:51Z</time></trkpt>
<trkpt lat="46.1957717" lon="7.3440233"><ele></ele><time>2016-5-22T12:38:54Z</time></trkpt>
<trkpt lat="46.1957717" lon="7.3440233"><ele></ele><time>2016-5-22T12:38:57Z</time></trkpt>
<trkpt lat="46.1957750" lon="7.3440467"><ele></ele><time>2016-5-22T12:39:0Z</time></trkpt>
<trkpt lat="46.1957800" lon="7.3440667"><ele></ele><time>2016-5-22T12:39:3Z</time></trkpt>
<trkpt lat="46.1957850" lon="7.3440867"><ele></ele><time>2016-5-22T12:39:6Z</time></trkpt>
<trkpt lat="46.1957917" lon="7.3441033"><ele></ele><time>2016-5-22T12:39:9Z</time></trkpt>
<trkpt lat="46.1958000" lon="7.3441217"><ele></ele><time>2016-5-22T12:39:12Z</time></trkpt>
<trkpt lat="46.1958067" lon="7.3441367"><ele></ele><time>2016-5-22T12:39:15Z</time></trkpt>
<trkpt lat="46.1958133" lon="7.3441483"><ele></ele><time>2016-5-22T12:39:18Z</time></trkpt>
<trkpt lat="46.1958217" lon="7.3441583"><ele></ele><time>2016-5-22T12:39:21Z</time></trkpt>
<trkpt lat="46.1958300" lon="7.3441667"><ele></ele><time>2016-5-22T12:39:24Z</time></trkpt>
<trkpt lat="46.1958350" lon="7.3441683"><ele></ele><time>2016-5-22T12:39:27Z</time></trkpt>
<trkpt lat="46.1958400" lon="7.3441733"><ele></ele><time>2016-5-22T12:39:30Z</time></trkpt>
<trkpt lat="46.1958467" lon="7.3441767"><ele></ele><time>2016-5-22T12:39:33Z</time></trkpt>
<trkpt lat="46.1958467" lon="7.3441767"><ele></ele><time>2016-5-22T12:39:36Z</time></trkpt>
<trkpt lat="46.1958500" lon="7.3441800"><ele></ele><time>2016-5-22T12:39:39Z</time></trkpt>
<trkpt lat="46.1958500" lon="7.3441800"><ele></ele><time>2016-5-22T12:39:42Z</time></trkpt>
<trkpt lat="46.1958500" lon="7.3441800"><ele></ele><time>2016-5-22T12:39:45Z</time></trkpt>
<trkpt lat="46.1958500" lon="7.3441800"><ele></ele><time>2016-5-22T12:39:48Z</time></trkpt>
<trkpt lat="46.1958500" lon="7.3441800"><ele></ele><time>2016-5-22T12:39:51Z</time></trkpt>
<trkpt lat="46.1958500" lon="7.3441800"><ele></ele><time>2016-5-22T12:39:54Z</time></trkpt>
<trkpt lat="46.1958500" lon="7.3441800"><ele></ele><time>2016-5-22T12:39:57Z</time></trkpt>
<trkpt lat="46.1958500" lon="7.3441800"><ele></ele><time>2016-5-22T12:40:0Z</time></trkpt>
<trkpt lat="46.1958500" lon="7.3441800"><ele></ele><time>2016-5-22T12:40:3Z</time></trkpt>
<trkpt lat="46.1958500" lon="7.3441800"><ele></ele><time>2016-5-22T12:40:6Z</time></trkpt>
<trkpt lat="46.1958500" lon="7.3441800"><ele></ele><time>2016-5-22T12:40:9Z</time></trkpt>
<trkpt lat="46.1958500" lon="7.3441800"><ele></ele><time>2016-5-22T12:40:12Z</time></trkpt>
<trkpt lat="46.1958500" lon="7.3441800"><ele></ele><time>2016-5-22T12:40:15Z</time></trkpt>
<trkpt lat="46.1958500" lon="7.3441800"><ele></ele><time>2016-5-22T12:40:18Z</time></trkpt>
<trkpt lat="46.1958500" lon="7.3441800"><ele></ele><time>2016-5-22T12:40:21Z</time></trkpt>
<trkpt lat="46.1958500" lon="7.3441800"><ele></ele><time>2016-5-22T12:40:24Z</time></trkpt>
<trkpt lat="46.1958500" lon="7.3441800"><ele></ele><time>2016-5-22T12:40:27Z</time></trkpt>
<trkpt lat="46.1958500" lon="7.3441800"><ele></ele><time>2016-5-22T12:40:30Z</time></trkpt>
<trkpt lat="46.1958500" lon="7.3441800"><ele></ele><time>2016-5-22T12:40:33Z</time></trkpt>
<trkpt lat="46.1958500" lon="7.3441800"><ele></ele><time>2016-5-22T12:40:36Z</time></trkpt>
<trkpt lat="46.1958500" lon="7.3441800"><ele></ele><time>2016-5-22T12:40:39Z</time></trkpt>
<trkpt lat="46.1958500" lon="7.3441800"><ele></ele><time>2016-5-22T12:40:42Z</time></trkpt>
<trkpt lat="46.1958500" lon="7.3441800"><ele></ele><time>2016-5-22T12:40:45Z</time></trkpt>
<trkpt lat="46.1958500" lon="7.3441800"><ele></ele><time>2016-5-22T12:40:48Z</time></trkpt>
<trkpt lat="46.1958500" lon="7.3441800"><ele></ele><time>2016-5-22T12:40:51Z</time></trkpt>
<trkpt lat="46.1958500" lon="7.3441800"><ele></ele><time>2016-5-22T12:40:54Z</time></trkpt>
<trkpt lat="46.1958500" lon="7.3441800"><ele></ele><time>2016-5-22T12:40:57Z</time></trkpt>
<trkpt lat="46.1958550" lon="7.3441817"><ele></ele><time>2016-5-22T12:41:0Z</time></trkpt>
<trkpt lat="46.1958500" lon="7.3441917"><ele></ele><time>2016-5-22T12:41:3Z</time></trkpt>
<trkpt lat="46.1958450" lon="7.3442033"><ele></ele><time>2016-5-22T12:41:6Z</time></trkpt>
<trkpt lat="46.1958400" lon="7.3442167"><ele></ele><time>2016-5-22T12:41:9Z</time></trkpt>
<trkpt lat="46.1958317" lon="7.3442317"><ele></ele><time>2016-5-22T12:41:12Z</time></trkpt>
<trkpt lat="46.1958200" lon="7.3442467"><ele></ele><time>2016-5-22T12:41:15Z</time></trkpt>
<trkpt lat="46.1958083" lon="7.3442617"><ele></ele><time>2016-5-22T12:41:18Z</time></trkpt>
<trkpt lat="46.1957983" lon="7.3442800"><ele></ele><time>2016-5-22T12:41:21Z</time></trkpt>
<trkpt lat="46.1957867" lon="7.3443000"><ele></ele><time>2016-5-22T12:41:24Z</time></trkpt>
<trkpt lat="46.1957767" lon="7.3443217"><ele></ele><time>2016-5-22T12:41:27Z</time></trkpt>
<trkpt lat="46.1957667" lon="7.3443450"><ele></ele><time>2016-5-22T12:41:30Z</time></trkpt>
<trkpt lat="46.1957667" lon="7.3443450"><ele></ele><time>2016-5-22T12:41:33Z</time></trkpt>
<trkpt lat="46.1957600" lon="7.3443683"><ele></ele><time>2016-5-22T12:41:36Z</time></trkpt>
<trkpt lat="46.1957567" lon="7.3443950"><ele></ele><time>2016-5-22T12:41:39Z</time></trkpt>
<trkpt lat="46.1957550" lon="7.3444200"><ele></ele><time>2016-5-22T12:41:42Z</time></trkpt>
<trkpt lat="46.1957567" lon="7.3444450"><ele></ele><time>2016-5-22T12:41:45Z</time></trkpt>
<trkpt lat="46.1957583" lon="7.3444717"><ele></ele><time>2016-5-22T12:41:48Z</time></trkpt>
<trkpt lat="46.1957600" lon="7.3444983"><ele></ele><time>2016-5-22T12:41:51Z</time></trkpt>
<trkpt lat="46.1957617" lon="7.3445233"><ele></ele><time>2016-5-22T12:41:54Z</time></trkpt>
<trkpt lat="46.1957633" lon="7.3445450"><ele></ele><time>2016-5-22T12:41:57Z</time></trkpt>
<trkpt lat="46.1957617" lon="7.3445683"><ele></ele><time>2016-5-22T12:42:0Z</time></trkpt>
<trkpt lat="46.1957600" lon="7.3445900"><ele></ele><time>2016-5-22T12:42:3Z</time></trkpt>
<trkpt lat="46.1957550" lon="7.3446117"><ele></ele><time>2016-5-22T12:42:6Z</time></trkpt>
<trkpt lat="46.1957500" lon="7.3446333"><ele></ele><time>2016-5-22T12:42:9Z</time></trkpt>
<trkpt lat="46.1957500" lon="7.3446333"><ele></ele><time>2016-5-22T12:42:12Z</time></trkpt>
<trkpt lat="46.1957433" lon="7.3446550"><ele></ele><time>2016-5-22T12:42:15Z</time></trkpt>
<trkpt lat="46.1957383" lon="7.3446767"><ele></ele><time>2016-5-22T12:42:18Z</time></trkpt>
<trkpt lat="46.1957350" lon="7.3446983"><ele></ele><time>2016-5-22T12:42:21Z</time></trkpt>
<trkpt lat="46.1957317" lon="7.3447217"><ele></ele><time>2016-5-22T12:42:24Z</time></trkpt>
<trkpt lat="46.1957267" lon="7.3447433"><ele></ele><time>2016-5-22T12:42:27Z</time></trkpt>
<trkpt lat="46.1957233" lon="7.3447650"><ele></ele><time>2016-5-22T12:42:30Z</time></trkpt>
<trkpt lat="46.1957200" lon="7.3447850"><ele></ele><time>2016-5-22T12:42:33Z</time></trkpt>
<trkpt lat="46.1957183" lon="7.3448033"><ele></ele><time>2016-5-22T12:42:36Z</time></trkpt>
<trkpt lat="46.1957100" lon="7.3448167"><ele></ele><time>2016-5-22T12:42:39Z</time></trkpt>
<trkpt lat="46.1957000" lon="7.3448367"><ele></ele><time>2016-5-22T12:42:42Z</time></trkpt>
<trkpt lat="46.1956917" lon="7.3448567"><ele></ele><time>2016-5-22T12:42:45Z</time></trkpt>
<trkpt lat="46.1956883" lon="7.3448750"><ele></ele><time>2016-5-22T12:42:48Z</time></trkpt>
<trkpt lat="46.1956883" lon="7.3448750"><ele></ele><time>2016-5-22T12:42:51Z</time></trkpt>
<trkpt lat="46.1956833" lon="7.3448917"><ele></ele><time>2016-5-22T12:42:54Z</time></trkpt>
<trkpt lat="46.1956783" lon="7.3449100"><ele></ele><time>2016-5-22T12:42:57Z</time></trkpt>
<trkpt lat="46.1956750" lon="7.3449283"><ele></ele><time>2016-5-22T12:43:0Z</time></trkpt>
<trkpt lat="46.1956733" lon="7.3449500"><ele></ele><time>2016-5-22T12:43:3Z</time></trkpt>
<trkpt lat="46.1956717" lon="7.3449683"><ele></ele><time>2016-5-22T12:43:6Z</time></trkpt>
<trkpt lat="46.1956700" lon="7.3449883"><ele></ele><time>2016-5-22T12:43:9Z</time></trkpt>
<trkpt lat="46.1956650" lon="7.3450083"><ele></ele><time>2016-5-22T12:43:12Z</time></trkpt>
<trkpt lat="46.1956600" lon="7.3450267"><ele></ele><time>2016-5-22T12:43:15Z</time></trkpt>
<trkpt lat="46.1956550" lon="7.3450417"><ele></ele><time>2016-5-22T12:43:18Z</time></trkpt>
<trkpt lat="46.1956517" lon="7.3450567"><ele></ele><time>2016-5-22T12:43:21Z</time></trkpt>
<trkpt lat="46.1956483" lon="7.3450767"><ele></ele><time>2016-5-22T12:43:24Z</time></trkpt>
<trkpt lat="46.1956433" lon="7.3450967"><ele></ele><time>2016-5-22T12:43:27Z</time></trkpt>
<trkpt lat="46.1956433" lon="7.3450967"><ele></ele><time>2016-5-22T12:43:30Z</time></trkpt>
<trkpt lat="46.1956367" lon="7.3451200"><ele></ele><time>2016-5-22T12:43:33Z</time></trkpt>
<trkpt lat="46.1956300" lon="7.3451450"><ele></ele><time>2016-5-22T12:43:36Z</time></trkpt>
<trkpt lat="46.1956250" lon="7.3451700"><ele></ele><time>2016-5-22T12:43:39Z</time></trkpt>
<trkpt lat="46.1956250" lon="7.3451933"><ele></ele><time>2016-5-22T12:43:42Z</time></trkpt>
<trkpt lat="46.1956233" lon="7.3452183"><ele></ele><time>2016-5-22T12:43:45Z</time></trkpt>
<trkpt lat="46.1956200" lon="7.3452417"><ele></ele><time>2016-5-22T12:43:48Z</time></trkpt>
<trkpt lat="46.1956183" lon="7.3452633"><ele></ele><time>2016-5-22T12:43:51Z</time></trkpt>
<trkpt lat="46.1956167" lon="7.3452867"><ele></ele><time>2016-5-22T12:43:54Z</time></trkpt>
<trkpt lat="46.1956150" lon="7.3453083"><ele></ele><time>2016-5-22T12:43:57Z</time></trkpt>
<trkpt lat="46.1956117" lon="7.3453300"><ele></ele><time>2016-5-22T12:44:0Z</time></trkpt>
<trkpt lat="46.1956117" lon="7.3453517"><ele></ele><time>2016-5-22T12:44:3Z</time></trkpt>
<trkpt lat="46.1956117" lon="7.3453750"><ele></ele><time>2016-5-22T12:44:6Z</time></trkpt>
<trkpt lat="46.1956117" lon="7.3453750"><ele></ele><time>2016-5-22T12:44:9Z</time></trkpt>
<trkpt lat="46.1956100" lon="7.3454000"><ele></ele><time>2016-5-22T12:44:12Z</time></trkpt>
<trkpt lat="46.1956100" lon="7.3454233"><ele></ele><time>2016-5-22T12:44:15Z</time></trkpt>
<trkpt lat="46.1956100" lon="7.3454433"><ele></ele><time>2016-5-22T12:44:18Z</time></trkpt>
<trkpt lat="46.1956083" lon="7.3454617"><ele></ele><time>2016-5-22T12:44:21Z</time></trkpt>
<trkpt lat="46.1956067" lon="7.3454783"><ele></ele><time>2016-5-22T12:44:24Z</time></trkpt>
<trkpt lat="46.1956067" lon="7.3454917"><ele></ele><time>2016-5-22T12:44:27Z</time></trkpt>
<trkpt lat="46.1956083" lon="7.3455067"><ele></ele><time>2016-5-22T12:44:30Z</time></trkpt>
<trkpt lat="46.1956133" lon="7.3455233"><ele></ele><time>2016-5-22T12:44:33Z</time></trkpt>
<trkpt lat="46.1956167" lon="7.3455400"><ele></ele><time>2016-5-22T12:44:36Z</time></trkpt>
<trkpt lat="46.1956183" lon="7.3455533"><ele></ele><time>2016-5-22T12:44:39Z</time></trkpt>
<trkpt lat="46.1956200" lon="7.3455633"><ele></ele><time>2016-5-22T12:44:42Z</time></trkpt>
<trkpt lat="46.1956200" lon="7.3455783"><ele></ele><time>2016-5-22T12:44:45Z</time></trkpt>
<trkpt lat="46.1956200" lon="7.3455783"><ele></ele><time>2016-5-22T12:44:48Z</time></trkpt>
<trkpt lat="46.1956183" lon="7.3455883"><ele></ele><time>2016-5-22T12:44:51Z</time></trkpt>
<trkpt lat="46.1956133" lon="7.3455967"><ele></ele><time>2016-5-22T12:44:54Z</time></trkpt>
<trkpt lat="46.1956133" lon="7.3456067"><ele></ele><time>2016-5-22T12:44:57Z</time></trkpt>
<trkpt lat="46.1956150" lon="7.3456133"><ele></ele><time>2016-5-22T12:45:0Z</time></trkpt>
<trkpt lat="46.1956217" lon="7.3456183"><ele></ele><time>2016-5-22T12:45:3Z</time></trkpt>
<trkpt lat="46.1956300" lon="7.3456233"><ele></ele><time>2016-5-22T12:45:6Z</time></trkpt>
<trkpt lat="46.1956367" lon="7.3456350"><ele></ele><time>2016-5-22T12:45:9Z</time></trkpt>
<trkpt lat="46.1956400" lon="7.3456500"><ele></ele><time>2016-5-22T12:45:12Z</time></trkpt>
<trkpt lat="46.1956350" lon="7.3456617"><ele></ele><time>2016-5-22T12:45:15Z</time></trkpt>
<trkpt lat="46.1956283" lon="7.3456750"><ele></ele><time>2016-5-22T12:45:18Z</time></trkpt>
<trkpt lat="46.1956167" lon="7.3456850"><ele></ele><time>2016-5-22T12:45:21Z</time></trkpt>
<trkpt lat="46.1956117" lon="7.3456933"><ele></ele><time>2016-5-22T12:45:24Z</time></trkpt>
<trkpt lat="46.1956100" lon="7.3457050"><ele></ele><time>2016-5-22T12:45:27Z</time></trkpt>
<trkpt lat="46.1956133" lon="7.3457183"><ele></ele><time>2016-5-22T12:45:30Z</time></trkpt>
<trkpt lat="46.1956200" lon="7.3457283"><ele></ele><time>2016-5-22T12:45:33Z</time></trkpt>
<trkpt lat="46.1956217" lon="7.3457367"><ele></ele><time>2016-5-22T12:45:36Z</time></trkpt>
<trkpt lat="46.1956267" lon="7.3457450"><ele></ele><time>2016-5-22T12:45:39Z</time></trkpt>
<trkpt lat="46.1956317" lon="7.3457567"><ele></ele><time>2016-5-22T12:45:42Z</time></trkpt>
<trkpt lat="46.1956367" lon="7.3457700"><ele></ele><time>2016-5-22T12:45:45Z</time></trkpt>
<trkpt lat="46.1956400" lon="7.3457850"><ele></ele><time>2016-5-22T12:45:48Z</time></trkpt>
<trkpt lat="46.1956417" lon="7.3458017"><ele></ele><time>2016-5-22T12:45:51Z</time></trkpt>
<trkpt lat="46.1956433" lon="7.3458200"><ele></ele><time>2016-5-22T12:45:54Z</time></trkpt>
<trkpt lat="46.1956450" lon="7.3458383"><ele></ele><time>2016-5-22T12:45:57Z</time></trkpt>
<trkpt lat="46.1956450" lon="7.3458550"><ele></ele><time>2016-5-22T12:46:0Z</time></trkpt>
<trkpt lat="46.1956433" lon="7.3458667"><ele></ele><time>2016-5-22T12:46:3Z</time></trkpt>
<trkpt lat="46.1956433" lon="7.3458833"><ele></ele><time>2016-5-22T12:46:6Z</time></trkpt>
<trkpt lat="46.1956433" lon="7.3459050"><ele></ele><time>2016-5-22T12:46:9Z</time></trkpt>
<trkpt lat="46.1956417" lon="7.3459267"><ele></ele><time>2016-5-22T12:46:12Z</time></trkpt>
<trkpt lat="46.1956383" lon="7.3459450"><ele></ele><time>2016-5-22T12:46:15Z</time></trkpt>
<trkpt lat="46.1956333" lon="7.3459667"><ele></ele><time>2016-5-22T12:46:18Z</time></trkpt>
<trkpt lat="46.1956283" lon="7.3459900"><ele></ele><time>2016-5-22T12:46:21Z</time></trkpt>
<trkpt lat="46.1956250" lon="7.3460150"><ele></ele><time>2016-5-22T12:46:24Z</time></trkpt>
<trkpt lat="46.1956217" lon="7.3460350"><ele></ele><time>2016-5-22T12:46:27Z</time></trkpt>
<trkpt lat="46.1956183" lon="7.3460517"><ele></ele><time>2016-5-22T12:46:30Z</time></trkpt>
<trkpt lat="46.1956183" lon="7.3460700"><ele></ele><time>2016-5-22T12:46:33Z</time></trkpt>
<trkpt lat="46.1956200" lon="7.3460917"><ele></ele><time>2016-5-22T12:46:36Z</time></trkpt>
<trkpt lat="46.1956217" lon="7.3461133"><ele></ele><time>2016-5-22T12:46:39Z</time></trkpt>
<trkpt lat="46.1956250" lon="7.3461333"><ele></ele><time>2016-5-22T12:46:42Z</time></trkpt>
<trkpt lat="46.1956267" lon="7.3461517"><ele></ele><time>2016-5-22T12:46:45Z</time></trkpt>
<trkpt lat="46.1956300" lon="7.3461717"><ele></ele><time>2016-5-22T12:46:48Z</time></trkpt>
<trkpt lat="46.1956317" lon="7.3461917"><ele></ele><time>2016-5-22T12:46:51Z</time></trkpt>
<trkpt lat="46.1956350" lon="7.3462117"><ele></ele><time>2016-5-22T12:46:54Z</time></trkpt>
<trkpt lat="46.1956400" lon="7.3462333"><ele></ele><time>2016-5-22T12:46:57Z</time></trkpt>
<trkpt lat="46.1956417" lon="7.3462550"><ele></ele><time>2016-5-22T12:47:0Z</time></trkpt>
<trkpt lat="46.1956400" lon="7.3462733"><ele></ele><time>2016-5-22T12:47:3Z</time></trkpt>
<trkpt lat="46.1956367" lon="7.3462917"><ele></ele><time>2016-5-22T12:47:6Z</time></trkpt>
<trkpt lat="46.1956333" lon="7.3463083"><ele></ele><time>2016-5-22T12:47:9Z</time></trkpt>
<trkpt lat="46.1956300" lon="7.3463267"><ele></ele><time>2016-5-22T12:47:12Z</time></trkpt>
<trkpt lat="46.1956283" lon="7.3463483"><ele></ele><time>2016-5-22T12:47:15Z</time></trkpt>
<trkpt lat="46.1956300" lon="7.3463683"><ele></ele><time>2016-5-22T12:47:18Z</time></trkpt>
<trkpt lat="46.1956317" lon="7.3463883"><ele></ele><time>2016-5-22T12:47:21Z</time></trkpt>
<trkpt lat="46.1956367" lon="7.3464083"><ele></ele><time>2016-5-22T12:47:24Z</time></trkpt>
<trkpt lat="46.1956383" lon="7.3464267"><ele></ele><time>2016-5-22T12:47:27Z</time></trkpt>
<trkpt lat="46.1956400" lon="7.3464500"><ele></ele><time>2016-5-22T12:47:30Z</time></trkpt>
<trkpt lat="46.1956433" lon="7.3464717"><ele></ele><time>2016-5-22T12:47:33Z</time></trkpt>
<trkpt lat="46.1956433" lon="7.3464967"><ele></ele><time>2016-5-22T12:47:36Z</time></trkpt>
<trkpt lat="46.1956433" lon="7.3465217"><ele></ele><time>2016-5-22T12:47:39Z</time></trkpt>
<trkpt lat="46.1956433" lon="7.3465450"><ele></ele><time>2016-5-22T12:47:42Z</time></trkpt>
<trkpt lat="46.1956450" lon="7.3465700"><ele></ele><time>2016-5-22T12:47:45Z</time></trkpt>
<trkpt lat="46.1956450" lon="7.3465933"><ele></ele><time>2016-5-22T12:47:48Z</time></trkpt>
<trkpt lat="46.1956433" lon="7.3466183"><ele></ele><time>2016-5-22T12:47:51Z</time></trkpt>
<trkpt lat="46.1956383" lon="7.3466450"><ele></ele><time>2016-5-22T12:47:54Z</time></trkpt>
<trkpt lat="46.1956367" lon="7.3466717"><ele></ele><time>2016-5-22T12:47:57Z</time></trkpt>
<trkpt lat="46.1956350" lon="7.3466983"><ele></ele><time>2016-5-22T12:48:0Z</time></trkpt>
<trkpt lat="46.1956317" lon="7.3467250"><ele></ele><time>2016-5-22T12:48:3Z</time></trkpt>
<trkpt lat="46.1956283" lon="7.3467500"><ele></ele><time>2016-5-22T12:48:6Z</time></trkpt>
<trkpt lat="46.1956250" lon="7.3467767"><ele></ele><time>2016-5-22T12:48:9Z</time></trkpt>
<trkpt lat="46.1956250" lon="7.3468000"><ele></ele><time>2016-5-22T12:48:12Z</time></trkpt>
<trkpt lat="46.1956233" lon="7.3468200"><ele></ele><time>2016-5-22T12:48:15Z</time></trkpt>
<trkpt lat="46.1956167" lon="7.3468400"><ele></ele><time>2016-5-22T12:48:18Z</time></trkpt>
<trkpt lat="46.1956067" lon="7.3468600"><ele></ele><time>2016-5-22T12:48:21Z</time></trkpt>
<trkpt lat="46.1955950" lon="7.3468767"><ele></ele><time>2016-5-22T12:48:24Z</time></trkpt>
<trkpt lat="46.1955850" lon="7.3468933"><ele></ele><time>2016-5-22T12:48:27Z</time></trkpt>
<trkpt lat="46.1955783" lon="7.3469117"><ele></ele><time>2016-5-22T12:48:30Z</time></trkpt>
<trkpt lat="46.1955750" lon="7.3469300"><ele></ele><time>2016-5-22T12:48:33Z</time></trkpt>
<trkpt lat="46.1955783" lon="7.3469500"><ele></ele><time>2016-5-22T12:48:36Z</time></trkpt>
<trkpt lat="46.1955800" lon="7.3469717"><ele></ele><time>2016-5-22T12:48:39Z</time></trkpt>
<trkpt lat="46.1955900" lon="7.3469900"><ele></ele><time>2016-5-22T12:48:42Z</time></trkpt>
<trkpt lat="46.1956033" lon="7.3470083"><ele></ele><time>2016-5-22T12:48:45Z</time></trkpt>
<trkpt lat="46.1956150" lon="7.3470300"><ele></ele><time>2016-5-22T12:48:48Z</time></trkpt>
<trkpt lat="46.1956267" lon="7.3470500"><ele></ele><time>2016-5-22T12:48:51Z</time></trkpt>
<trkpt lat="46.1956350" lon="7.3470700"><ele></ele><time>2016-5-22T12:48:54Z</time></trkpt>
<trkpt lat="46.1956450" lon="7.3470900"><ele></ele><time>2016-5-22T12:48:57Z</time></trkpt>
<trkpt lat="46.1956550" lon="7.3471133"><ele></ele><time>2016-5-22T12:49:0Z</time></trkpt>
<trkpt lat="46.1956583" lon="7.3471400"><ele></ele><time>2016-5-22T12:49:3Z</time></trkpt>
<trkpt lat="46.1956650" lon="7.3471650"><ele></ele><time>2016-5-22T12:49:6Z</time></trkpt>
<trkpt lat="46.1956733" lon="7.3471917"><ele></ele><time>2016-5-22T12:49:9Z</time></trkpt>
<trkpt lat="46.1956833" lon="7.3472150"><ele></ele><time>2016-5-22T12:49:12Z</time></trkpt>
<trkpt lat="46.1956883" lon="7.3472317"><ele></ele><time>2016-5-22T12:49:15Z</time></trkpt>
<trkpt lat="46.1956917" lon="7.3472517"><ele></ele><time>2016-5-22T12:49:18Z</time></trkpt>
<trkpt lat="46.1956933" lon="7.3472700"><ele></ele><time>2016-5-22T12:49:21Z</time></trkpt>
<trkpt lat="46.1956967" lon="7.3472883"><ele></ele><time>2016-5-22T12:49:24Z</time></trkpt>
<trkpt lat="46.1956967" lon="7.3473083"><ele></ele><time>2016-5-22T12:49:27Z</time></trkpt>
<trkpt lat="46.1956967" lon="7.3473283"><ele></ele><time>2016-5-22T12:49:30Z</time></trkpt>
<trkpt lat="46.1956967" lon="7.3473467"><ele></ele><time>2016-5-22T12:49:33Z</time></trkpt>
<trkpt lat="46.1956967" lon="7.3473617"><ele></ele><time>2016-5-22T12:49:36Z</time></trkpt>
<trkpt lat="46.1956967" lon="7.3473617"><ele></ele><time>2016-5-22T12:49:39Z</time></trkpt>
<trkpt lat="46.1956983" lon="7.3473717"><ele></ele><time>2016-5-22T12:49:42Z</time></trkpt>
<trkpt lat="46.1956983" lon="7.3473717"><ele></ele><time>2016-5-22T12:49:45Z</time></trkpt>
<trkpt lat="46.1956983" lon="7.3473717"><ele></ele><time>2016-5-22T12:49:48Z</time></trkpt>
<trkpt lat="46.1956983" lon="7.3473717"><ele></ele><time>2016-5-22T12:49:51Z</time></trkpt>
<trkpt lat="46.1956983" lon="7.3473717"><ele></ele><time>2016-5-22T12:49:54Z</time></trkpt>
<trkpt lat="46.1956983" lon="7.3473717"><ele></ele><time>2016-5-22T12:49:57Z</time></trkpt>
<trkpt lat="46.1956983" lon="7.3473717"><ele></ele><time>2016-5-22T12:50:0Z</time></trkpt>
<trkpt lat="46.1956983" lon="7.3473717"><ele></ele><time>2016-5-22T12:50:3Z</time></trkpt>
<trkpt lat="46.1956983" lon="7.3473717"><ele></ele><time>2016-5-22T12:50:6Z</time></trkpt>
<trkpt lat="46.1956983" lon="7.3473717"><ele></ele><time>2016-5-22T12:50:9Z</time></trkpt>
<trkpt lat="46.1956983" lon="7.3473717"><ele></ele><time>2016-5-22T12:50:12Z</time></trkpt>
<trkpt lat="46.1956983" lon="7.3473717"><ele></ele><time>2016-5-22T12:50:15Z</time></trkpt>
<trkpt lat="46.1956983" lon="7.3473717"><ele></ele><time>2016-5-22T12:50:18Z</time></trkpt>
<trkpt lat="46.1956983" lon="7.3473717"><ele></ele><time>2016-5-22T12:50:21Z</time></trkpt>
<trkpt lat="46.1956983" lon="7.3473717"><ele></ele><time>2016-5-22T12:50:24Z</time></trkpt>
<trkpt lat="46.1956983" lon="7.3473717"><ele></ele><time>2016-5-22T12:50:27Z</time></trkpt>
<trkpt lat="46.1956983" lon="7.3473717"><ele></ele><time>2016-5-22T12:50:30Z</time></trkpt>
<trkpt lat="46.1956983" lon="7.3473717"><ele></ele><time>2016-5-22T12:50:33Z</time></trkpt>
<trkpt lat="46.1956983" lon="7.3473717"><ele></ele><time>2016-5-22T12:50:36Z</time></trkpt>
<trkpt lat="46.1956983" lon="7.3473717"><ele></ele><time>2016-5-22T12:50:39Z</time></trkpt>
<trkpt lat="46.1956983" lon="7.3473717"><ele></ele><time>2016-5-22T12:50:42Z</time></trkpt>
<trkpt lat="46.1956983" lon="7.3473717"><ele></ele><time>2016-5-22T12:50:45Z</time></trkpt>
<trkpt lat="46.1956983" lon="7.3473717"><ele></ele><time>2016-5-22T12:50:48Z</time></trkpt>
<trkpt lat="46.1956983" lon="7.3473717"><ele></ele><time>2016-5-22T12:50:51Z</time></trkpt>
<trkpt lat="46.1956983" lon="7.3473717"><ele></ele><time>2016-5-22T12:50:54Z</time></trkpt>
<trkpt lat="46.1956983" lon="7.3473717"><ele></ele><time>2016-5-22T12:50:57Z</time></trkpt>
<trkpt lat="46.1956983" lon="7.3473717"><ele></ele><time>2016-5-22T12:51:0Z</time></trkpt>
<trkpt lat="46.1956983" lon="7.3473717"><ele></ele><time>2016-5-22T12:51:3Z</time></trkpt>
<trkpt lat="46.1956983" lon="7.3473717"><ele></ele><time>2016-5-22T12:51:6Z</time></trkpt>
<trkpt lat="46.1956983" lon="7.3473717"><ele></ele><time>2016-5-22T12:51:9Z</time></trkpt>
<trkpt lat="46.1956983" lon="7.3473717"><ele></ele><time>2016-5-22T12:51:12Z</time></trkpt>
<trkpt lat="46.1956983" lon="7.3473717"><ele></ele><time>2016-5-22T12:51:15Z</time></trkpt>
<trkpt lat="46.1956983" lon="7.3473717"><ele></ele><time>2016-5-22T12:51:18Z</time></trkpt>
<trkpt lat="46.1956983" lon="7.3473717"><ele></ele><time>2016-5-22T12:51:21Z</time></trkpt>
<trkpt lat="46.1956983" lon="7.3473717"><ele></ele><time>2016-5-22T12:51:24Z</time></trkpt>
<trkpt lat="46.1956983" lon="7.3473717"><ele></ele><time>2016-5-22T12:51:27Z</time></trkpt>
<trkpt lat="46.1956983" lon="7.3473717"><ele></ele><time>2016-5-22T12:51:30Z</time></trkpt>
<trkpt lat="46.1956983" lon="7.3473717"><ele></ele><time>2016-5-22T12:51:33Z</time></trkpt>
<trkpt lat="46.1956983" lon="7.3473717"><ele></ele><time>2016-5-22T12:51:36Z</time></trkpt>
<trkpt lat="46.1956983" lon="7.3473717"><ele></ele><time>2016-5-22T12:51:39Z</time></trkpt>
<trkpt lat="46.1956983" lon="7.3473717"><ele></ele><time>2016-5-22T12:51:42Z</time></trkpt>
<trkpt lat="46.1956983" lon="7.3473717"><ele></ele><time>2016-5-22T12:51:45Z</time></trkpt>
<trkpt lat="46.1956983" lon="7.3473717"><ele></ele><time>2016-5-22T12:51:48Z</time></trkpt>
<trkpt lat="46.1956983" lon="7.3473717"><ele></ele><time>2016-5-22T12:51:51Z</time></trkpt>
<trkpt lat="46.1956983" lon="7.3473717"><ele></ele><time>2016-5-22T12:51:54Z</time></trkpt>
<trkpt lat="46.1956983" lon="7.3473717"><ele></ele><time>2016-5-22T12:51:57Z</time></trkpt>
<trkpt lat="46.1956983" lon="7.3473717"><ele></ele><time>2016-5-22T12:52:0Z</time></trkpt>
<trkpt lat="46.1956983" lon="7.3473717"><ele></ele><time>2016-5-22T12:52:3Z</time></trkpt>
<trkpt lat="46.1956983" lon="7.3473717"><ele></ele><time>2016-5-22T12:52:6Z</time></trkpt>
<trkpt lat="46.1956983" lon="7.3473717"><ele></ele><time>2016-5-22T12:52:9Z</time></trkpt>
<trkpt lat="46.1956983" lon="7.3473717"><ele></ele><time>2016-5-22T12:52:12Z</time></trkpt>
<trkpt lat="46.1956983" lon="7.3473717"><ele></ele><time>2016-5-22T12:52:15Z</time></trkpt>
<trkpt lat="46.1956983" lon="7.3473717"><ele></ele><time>2016-5-22T12:52:18Z</time></trkpt>
<trkpt lat="46.1956983" lon="7.3473717"><ele></ele><time>2016-5-22T12:52:21Z</time></trkpt>
<trkpt lat="46.1956983" lon="7.3473717"><ele></ele><time>2016-5-22T12:52:24Z</time></trkpt>
<trkpt lat="46.1956983" lon="7.3473717"><ele></ele><time>2016-5-22T12:52:27Z</time></trkpt>
<trkpt lat="46.1956983" lon="7.3473717"><ele></ele><time>2016-5-22T12:52:30Z</time></trkpt>
<trkpt lat="46.1956983" lon="7.3473717"><ele></ele><time>2016-5-22T12:52:33Z</time></trkpt>
<trkpt lat="46.1956983" lon="7.3473717"><ele></ele><time>2016-5-22T12:52:36Z</time></trkpt>
<trkpt lat="46.1956983" lon="7.3473717"><ele></ele><time>2016-5-22T12:52:39Z</time></trkpt>
<trkpt lat="46.1956983" lon="7.3473717"><ele></ele><time>2016-5-22T12:52:42Z</time></trkpt>
<trkpt lat="46.1956983" lon="7.3473717"><ele></ele><time>2016-5-22T12:52:45Z</time></trkpt>
<trkpt lat="46.1956983" lon="7.3473717"><ele></ele><time>2016-5-22T12:52:48Z</time></trkpt>
<trkpt lat="46.1956983" lon="7.3473717"><ele></ele><time>2016-5-22T12:52:51Z</time></trkpt>
<trkpt lat="46.1956983" lon="7.3473717"><ele></ele><time>2016-5-22T12:52:54Z</time></trkpt>
<trkpt lat="46.1956983" lon="7.3473717"><ele></ele><time>2016-5-22T12:52:57Z</time></trkpt>
<trkpt lat="46.1956983" lon="7.3473717"><ele></ele><time>2016-5-22T12:53:0Z</time></trkpt>
<trkpt lat="46.1956983" lon="7.3473717"><ele></ele><time>2016-5-22T12:53:3Z</time></trkpt>
<trkpt lat="46.1956983" lon="7.3473717"><ele></ele><time>2016-5-22T12:53:6Z</time></trkpt>
<trkpt lat="46.1956983" lon="7.3473717"><ele></ele><time>2016-5-22T12:53:9Z</time></trkpt>
<trkpt lat="46.1956983" lon="7.3473717"><ele></ele><time>2016-5-22T12:53:12Z</time></trkpt>
<trkpt lat="46.1956983" lon="7.3473717"><ele></ele><time>2016-5-22T12:53:15Z</time></trkpt>
<trkpt lat="46.1956983" lon="7.3473717"><ele></ele><time>2016-5-22T12:53:18Z</time></trkpt>
<trkpt lat="46.1956983" lon="7.3473717"><ele></ele><time>2016-5-22T12:53:21Z</time></trkpt>
<trkpt lat="46.1956983" lon="7.3473717"><ele></ele><time>2016-5-22T12:53:24Z</time></trkpt>
<trkpt lat="46.1956983" lon="7.3473717"><ele></ele><time>2016-5-22T12:53:27Z</time></trkpt>
<trkpt lat="46.1956983" lon="7.3473717"><ele></ele><time>2016-5-22T12:53:30Z</time></trkpt>
<trkpt lat="46.1956983" lon="7.3473717"><ele></ele><time>2016-5-22T12:53:33Z</time></trkpt>
<trkpt lat="46.1956983" lon="7.3473717"><ele></ele><time>2016-5-22T12:53:36Z</time></trkpt>
<trkpt lat="46.1956983" lon="7.3473717"><ele></ele><time>2016-5-22T12:53:39Z</time></trkpt>
<trkpt lat="46.1956983" lon="7.3473717"><ele></ele><time>2016-5-22T12:53:42Z</time></trkpt>
<trkpt lat="46.1956983" lon="7.3473717"><ele></ele><time>2016-5-22T12:53:45Z</time></trkpt>
<trkpt lat="46.1956983" lon="7.3473717"><ele></ele><time>2016-5-22T12:53:48Z</time></trkpt>
<trkpt lat="46.1956983" lon="7.3473717"><ele></ele><time>2016-5-22T12:53:51Z</time></trkpt>
<trkpt lat="46.1956983" lon="7.3473717"><ele></ele><time>2016-5-22T12:53:54Z</time></trkpt>
<trkpt lat="46.1956983" lon="7.3473717"><ele></ele><time>2016-5-22T12:53:57Z</time></trkpt>
<trkpt lat="46.1956983" lon="7.3473717"><ele></ele><time>2016-5-22T12:54:0Z</time></trkpt>
<trkpt lat="46.1956983" lon="7.3473717"><ele></ele><time>2016-5-22T12:54:3Z</time></trkpt>
<trkpt lat="46.1956983" lon="7.3473717"><ele></ele><time>2016-5-22T12:54:6Z</time></trkpt>
<trkpt lat="46.1956983" lon="7.3473717"><ele></ele><time>2016-5-22T12:54:9Z</time></trkpt>
<trkpt lat="46.1956983" lon="7.3473717"><ele></ele><time>2016-5-22T12:54:12Z</time></trkpt>
<trkpt lat="46.1956983" lon="7.3473717"><ele></ele><time>2016-5-22T12:54:15Z</time></trkpt>
<trkpt lat="46.1956983" lon="7.3473717"><ele></ele><time>2016-5-22T12:54:18Z</time></trkpt>
<trkpt lat="46.1956983" lon="7.3473717"><ele></ele><time>2016-5-22T12:54:21Z</time></trkpt>
<trkpt lat="46.1956983" lon="7.3473717"><ele></ele><time>2016-5-22T12:54:24Z</time></trkpt>
<trkpt lat="46.1956850" lon="7.3473833"><ele></ele><time>2016-5-22T12:54:27Z</time></trkpt>
<trkpt lat="46.1956850" lon="7.3473833"><ele></ele><time>2016-5-22T12:54:30Z</time></trkpt>
<trkpt lat="46.1956917" lon="7.3473867"><ele></ele><time>2016-5-22T12:54:33Z</time></trkpt>
<trkpt lat="46.1956917" lon="7.3473867"><ele></ele><time>2016-5-22T12:54:36Z</time></trkpt>
<trkpt lat="46.1956917" lon="7.3473867"><ele></ele><time>2016-5-22T12:54:39Z</time></trkpt>
<trkpt lat="46.1956917" lon="7.3473867"><ele></ele><time>2016-5-22T12:54:42Z</time></trkpt>
<trkpt lat="46.1956917" lon="7.3473867"><ele></ele><time>2016-5-22T12:54:45Z</time></trkpt>
<trkpt lat="46.1956917" lon="7.3473867"><ele></ele><time>2016-5-22T12:54:48Z</time></trkpt>
<trkpt lat="46.1956933" lon="7.3473933"><ele></ele><time>2016-5-22T12:54:51Z</time></trkpt>
<trkpt lat="46.1956983" lon="7.3474100"><ele></ele><time>2016-5-22T12:54:54Z</time></trkpt>
<trkpt lat="46.1957067" lon="7.3474583"><ele></ele><time>2016-5-22T12:54:57Z</time></trkpt>
<trkpt lat="46.1957217" lon="7.3475367"><ele></ele><time>2016-5-22T12:55:0Z</time></trkpt>
<trkpt lat="46.1957383" lon="7.3476267"><ele></ele><time>2016-5-22T12:55:3Z</time></trkpt>
<trkpt lat="46.1957617" lon="7.3477150"><ele></ele><time>2016-5-22T12:55:6Z</time></trkpt>
<trkpt lat="46.1957900" lon="7.3477967"><ele></ele><time>2016-5-22T12:55:9Z</time></trkpt>
<trkpt lat="46.1958350" lon="7.3478517"><ele></ele><time>2016-5-22T12:55:12Z</time></trkpt>
<trkpt lat="46.1958567" lon="7.3479267"><ele></ele><time>2016-5-22T12:55:15Z</time></trkpt>
<trkpt lat="46.1959050" lon="7.3479783"><ele></ele><time>2016-5-22T12:55:18Z</time></trkpt>
<trkpt lat="46.1959517" lon="7.3480333"><ele></ele><time>2016-5-22T12:55:21Z</time></trkpt>
<trkpt lat="46.1959850" lon="7.3481033"><ele></ele><time>2016-5-22T12:55:24Z</time></trkpt>
<trkpt lat="46.1960133" lon="7.3481617"><ele></ele><time>2016-5-22T12:55:27Z</time></trkpt>
<trkpt lat="46.1960467" lon="7.3482250"><ele></ele><time>2016-5-22T12:55:30Z</time></trkpt>
<trkpt lat="46.1960650" lon="7.3483317"><ele></ele><time>2016-5-22T12:55:33Z</time></trkpt>
<trkpt lat="46.1960833" lon="7.3484033"><ele></ele><time>2016-5-22T12:55:36Z</time></trkpt>
<trkpt lat="46.1961117" lon="7.3484683"><ele></ele><time>2016-5-22T12:55:39Z</time></trkpt>
<trkpt lat="46.1961500" lon="7.3485317"><ele></ele><time>2016-5-22T12:55:42Z</time></trkpt>
<trkpt lat="46.1961767" lon="7.3485867"><ele></ele><time>2016-5-22T12:55:45Z</time></trkpt>
<trkpt lat="46.1962017" lon="7.3486450"><ele></ele><time>2016-5-22T12:55:48Z</time></trkpt>
<trkpt lat="46.1962233" lon="7.3486800"><ele></ele><time>2016-5-22T12:55:51Z</time></trkpt>
<trkpt lat="46.1962633" lon="7.3486667"><ele></ele><time>2016-5-22T12:55:54Z</time></trkpt>
<trkpt lat="46.1963167" lon="7.3486517"><ele></ele><time>2016-5-22T12:55:57Z</time></trkpt>
<trkpt lat="46.1963500" lon="7.3486400"><ele></ele><time>2016-5-22T12:56:0Z</time></trkpt>
<trkpt lat="46.1963700" lon="7.3486267"><ele></ele><time>2016-5-22T12:56:3Z</time></trkpt>
<trkpt lat="46.1963950" lon="7.3486150"><ele></ele><time>2016-5-22T12:56:6Z</time></trkpt>
<trkpt lat="46.1964167" lon="7.3486317"><ele></ele><time>2016-5-22T12:56:9Z</time></trkpt>
<trkpt lat="46.1964283" lon="7.3486583"><ele></ele><time>2016-5-22T12:56:12Z</time></trkpt>
<trkpt lat="46.1964383" lon="7.3486983"><ele></ele><time>2016-5-22T12:56:15Z</time></trkpt>
<trkpt lat="46.1964400" lon="7.3487183"><ele></ele><time>2016-5-22T12:56:18Z</time></trkpt>
<trkpt lat="46.1964517" lon="7.3487333"><ele></ele><time>2016-5-22T12:56:21Z</time></trkpt>
<trkpt lat="46.1964650" lon="7.3487417"><ele></ele><time>2016-5-22T12:56:24Z</time></trkpt>
<trkpt lat="46.1964733" lon="7.3487550"><ele></ele><time>2016-5-22T12:56:27Z</time></trkpt>
<trkpt lat="46.1964800" lon="7.3487767"><ele></ele><time>2016-5-22T12:56:30Z</time></trkpt>
<trkpt lat="46.1964800" lon="7.3487983"><ele></ele><time>2016-5-22T12:56:33Z</time></trkpt>
<trkpt lat="46.1964700" lon="7.3488183"><ele></ele><time>2016-5-22T12:56:36Z</time></trkpt>
<trkpt lat="46.1964567" lon="7.3488400"><ele></ele><time>2016-5-22T12:56:39Z</time></trkpt>
<trkpt lat="46.1964467" lon="7.3488617"><ele></ele><time>2016-5-22T12:56:42Z</time></trkpt>
<trkpt lat="46.1964433" lon="7.3488900"><ele></ele><time>2016-5-22T12:56:45Z</time></trkpt>
<trkpt lat="46.1964433" lon="7.3489200"><ele></ele><time>2016-5-22T12:56:48Z</time></trkpt>
<trkpt lat="46.1964483" lon="7.3489483"><ele></ele><time>2016-5-22T12:56:51Z</time></trkpt>
<trkpt lat="46.1964567" lon="7.3489767"><ele></ele><time>2016-5-22T12:56:54Z</time></trkpt>
<trkpt lat="46.1964617" lon="7.3490100"><ele></ele><time>2016-5-22T12:56:57Z</time></trkpt>
<trkpt lat="46.1964650" lon="7.3490450"><ele></ele><time>2016-5-22T12:57:0Z</time></trkpt>
<trkpt lat="46.1964717" lon="7.3490783"><ele></ele><time>2016-5-22T12:57:3Z</time></trkpt>
<trkpt lat="46.1964750" lon="7.3491067"><ele></ele><time>2016-5-22T12:57:6Z</time></trkpt>
<trkpt lat="46.1964783" lon="7.3491400"><ele></ele><time>2016-5-22T12:57:9Z</time></trkpt>
<trkpt lat="46.1964867" lon="7.3491767"><ele></ele><time>2016-5-22T12:57:12Z</time></trkpt>
<trkpt lat="46.1964950" lon="7.3492183"><ele></ele><time>2016-5-22T12:57:15Z</time></trkpt>
<trkpt lat="46.1965050" lon="7.3492650"><ele></ele><time>2016-5-22T12:57:18Z</time></trkpt>
<trkpt lat="46.1965183" lon="7.3493150"><ele></ele><time>2016-5-22T12:57:21Z</time></trkpt>
<trkpt lat="46.1965333" lon="7.3493667"><ele></ele><time>2016-5-22T12:57:24Z</time></trkpt>
<trkpt lat="46.1965550" lon="7.3494200"><ele></ele><time>2016-5-22T12:57:27Z</time></trkpt>
<trkpt lat="46.1965750" lon="7.3494717"><ele></ele><time>2016-5-22T12:57:30Z</time></trkpt>
<trkpt lat="46.1965950" lon="7.3495167"><ele></ele><time>2016-5-22T12:57:33Z</time></trkpt>
<trkpt lat="46.1966150" lon="7.3495583"><ele></ele><time>2016-5-22T12:57:36Z</time></trkpt>
<trkpt lat="46.1966350" lon="7.3495950"><ele></ele><time>2016-5-22T12:57:39Z</time></trkpt>
<trkpt lat="46.1966550" lon="7.3496283"><ele></ele><time>2016-5-22T12:57:42Z</time></trkpt>
<trkpt lat="46.1966750" lon="7.3496683"><ele></ele><time>2016-5-22T12:57:45Z</time></trkpt>
<trkpt lat="46.1966833" lon="7.3497117"><ele></ele><time>2016-5-22T12:57:48Z</time></trkpt>
<trkpt lat="46.1966867" lon="7.3497567"><ele></ele><time>2016-5-22T12:57:51Z</time></trkpt>
<trkpt lat="46.1966867" lon="7.3498033"><ele></ele><time>2016-5-22T12:57:54Z</time></trkpt>
<trkpt lat="46.1966983" lon="7.3498483"><ele></ele><time>2016-5-22T12:57:57Z</time></trkpt>
<trkpt lat="46.1967117" lon="7.3498983"><ele></ele><time>2016-5-22T12:58:0Z</time></trkpt>
<trkpt lat="46.1967233" lon="7.3499500"><ele></ele><time>2016-5-22T12:58:3Z</time></trkpt>
<trkpt lat="46.1967350" lon="7.3500033"><ele></ele><time>2016-5-22T12:58:6Z</time></trkpt>
<trkpt lat="46.1967500" lon="7.3500617"><ele></ele><time>2016-5-22T12:58:9Z</time></trkpt>
<trkpt lat="46.1967717" lon="7.3501150"><ele></ele><time>2016-5-22T12:58:12Z</time></trkpt>
<trkpt lat="46.1967950" lon="7.3501600"><ele></ele><time>2016-5-22T12:58:15Z</time></trkpt>
<trkpt lat="46.1968183" lon="7.3501983"><ele></ele><time>2016-5-22T12:58:18Z</time></trkpt>
<trkpt lat="46.1968450" lon="7.3502383"><ele></ele><time>2016-5-22T12:58:21Z</time></trkpt>
<trkpt lat="46.1968700" lon="7.3502733"><ele></ele><time>2016-5-22T12:58:24Z</time></trkpt>
<trkpt lat="46.1968983" lon="7.3503083"><ele></ele><time>2016-5-22T12:58:27Z</time></trkpt>
<trkpt lat="46.1969200" lon="7.3503467"><ele></ele><time>2016-5-22T12:58:30Z</time></trkpt>
<trkpt lat="46.1969350" lon="7.3503967"><ele></ele><time>2016-5-22T12:58:33Z</time></trkpt>
<trkpt lat="46.1969500" lon="7.3504417"><ele></ele><time>2016-5-22T12:58:36Z</time></trkpt>
<trkpt lat="46.1969650" lon="7.3504817"><ele></ele><time>2016-5-22T12:58:39Z</time></trkpt>
<trkpt lat="46.1969783" lon="7.3505200"><ele></ele><time>2016-5-22T12:58:42Z</time></trkpt>
<trkpt lat="46.1969917" lon="7.3505600"><ele></ele><time>2016-5-22T12:58:45Z</time></trkpt>
<trkpt lat="46.1970017" lon="7.3506000"><ele></ele><time>2016-5-22T12:58:48Z</time></trkpt>
<trkpt lat="46.1970133" lon="7.3506267"><ele></ele><time>2016-5-22T12:58:51Z</time></trkpt>
<trkpt lat="46.1970283" lon="7.3506417"><ele></ele><time>2016-5-22T12:58:54Z</time></trkpt>
<trkpt lat="46.1970417" lon="7.3506500"><ele></ele><time>2016-5-22T12:58:57Z</time></trkpt>
<trkpt lat="46.1970600" lon="7.3506600"><ele></ele><time>2016-5-22T12:59:0Z</time></trkpt>
<trkpt lat="46.1970817" lon="7.3506750"><ele></ele><time>2016-5-22T12:59:3Z</time></trkpt>
<trkpt lat="46.1971050" lon="7.3506933"><ele></ele><time>2016-5-22T12:59:6Z</time></trkpt>
<trkpt lat="46.1971300" lon="7.3507100"><ele></ele><time>2016-5-22T12:59:9Z</time></trkpt>
<trkpt lat="46.1971550" lon="7.3507300"><ele></ele><time>2016-5-22T12:59:12Z</time></trkpt>
<trkpt lat="46.1971783" lon="7.3507467"><ele></ele><time>2016-5-22T12:59:15Z</time></trkpt>
<trkpt lat="46.1971900" lon="7.3507583"><ele></ele><time>2016-5-22T12:59:18Z</time></trkpt>
<trkpt lat="46.1971917" lon="7.3507650"><ele></ele><time>2016-5-22T12:59:21Z</time></trkpt>
<trkpt lat="46.1971933" lon="7.3507717"><ele></ele><time>2016-5-22T12:59:24Z</time></trkpt>
<trkpt lat="46.1971933" lon="7.3507717"><ele></ele><time>2016-5-22T12:59:27Z</time></trkpt>
<trkpt lat="46.1971933" lon="7.3507717"><ele></ele><time>2016-5-22T12:59:30Z</time></trkpt>
<trkpt lat="46.1971933" lon="7.3507717"><ele></ele><time>2016-5-22T12:59:33Z</time></trkpt>
<trkpt lat="46.1971933" lon="7.3507717"><ele></ele><time>2016-5-22T12:59:36Z</time></trkpt>
<trkpt lat="46.1971933" lon="7.3507717"><ele></ele><time>2016-5-22T12:59:39Z</time></trkpt>
<trkpt lat="46.1971967" lon="7.3507650"><ele></ele><time>2016-5-22T12:59:42Z</time></trkpt>
<trkpt lat="46.1972100" lon="7.3507767"><ele></ele><time>2016-5-22T12:59:45Z</time></trkpt>
<trkpt lat="46.1972217" lon="7.3507933"><ele></ele><time>2016-5-22T12:59:48Z</time></trkpt>
<trkpt lat="46.1972433" lon="7.3508150"><ele></ele><time>2016-5-22T12:59:51Z</time></trkpt>
<trkpt lat="46.1972717" lon="7.3508383"><ele></ele><time>2016-5-22T12:59:54Z</time></trkpt>
<trkpt lat="46.1973033" lon="7.3508650"><ele></ele><time>2016-5-22T12:59:57Z</time></trkpt>
<trkpt lat="46.1973367" lon="7.3508950"><ele></ele><time>2016-5-22T13:0:0Z</time></trkpt>
<trkpt lat="46.1973650" lon="7.3509283"><ele></ele><time>2016-5-22T13:0:3Z</time></trkpt>
<trkpt lat="46.1973867" lon="7.3509600"><ele></ele><time>2016-5-22T13:0:6Z</time></trkpt>
<trkpt lat="46.1974083" lon="7.3509917"><ele></ele><time>2016-5-22T13:0:9Z</time></trkpt>
<trkpt lat="46.1974300" lon="7.3510183"><ele></ele><time>2016-5-22T13:0:12Z</time></trkpt>
<trkpt lat="46.1974467" lon="7.3510383"><ele></ele><time>2016-5-22T13:0:15Z</time></trkpt>
<trkpt lat="46.1974667" lon="7.3510500"><ele></ele><time>2016-5-22T13:0:18Z</time></trkpt>
<trkpt lat="46.1974850" lon="7.3510450"><ele></ele><time>2016-5-22T13:0:21Z</time></trkpt>
<trkpt lat="46.1974933" lon="7.3510233"><ele></ele><time>2016-5-22T13:0:24Z</time></trkpt>
<trkpt lat="46.1974950" lon="7.3509883"><ele></ele><time>2016-5-22T13:0:27Z</time></trkpt>
<trkpt lat="46.1974917" lon="7.3509533"><ele></ele><time>2016-5-22T13:0:30Z</time></trkpt>
<trkpt lat="46.1974917" lon="7.3509200"><ele></ele><time>2016-5-22T13:0:33Z</time></trkpt>
<trkpt lat="46.1974933" lon="7.3508800"><ele></ele><time>2016-5-22T13:0:36Z</time></trkpt>
<trkpt lat="46.1974967" lon="7.3508133"><ele></ele><time>2016-5-22T13:0:39Z</time></trkpt>
<trkpt lat="46.1975017" lon="7.3507400"><ele></ele><time>2016-5-22T13:0:42Z</time></trkpt>
<trkpt lat="46.1975000" lon="7.3506517"><ele></ele><time>2016-5-22T13:0:45Z</time></trkpt>
<trkpt lat="46.1975117" lon="7.3505483"><ele></ele><time>2016-5-22T13:0:48Z</time></trkpt>
<trkpt lat="46.1975117" lon="7.3504583"><ele></ele><time>2016-5-22T13:0:51Z</time></trkpt>
<trkpt lat="46.1974983" lon="7.3504183"><ele></ele><time>2016-5-22T13:0:54Z</time></trkpt>
<trkpt lat="46.1975133" lon="7.3503733"><ele></ele><time>2016-5-22T13:0:57Z</time></trkpt>
<trkpt lat="46.1975217" lon="7.3503067"><ele></ele><time>2016-5-22T13:1:0Z</time></trkpt>
<trkpt lat="46.1975267" lon="7.3502333"><ele></ele><time>2016-5-22T13:1:3Z</time></trkpt>
<trkpt lat="46.1975433" lon="7.3501983"><ele></ele><time>2016-5-22T13:1:6Z</time></trkpt>
<trkpt lat="46.1975650" lon="7.3501533"><ele></ele><time>2016-5-22T13:1:9Z</time></trkpt>
<trkpt lat="46.1975683" lon="7.3501017"><ele></ele><time>2016-5-22T13:1:12Z</time></trkpt>
<trkpt lat="46.1975517" lon="7.3500183"><ele></ele><time>2016-5-22T13:1:15Z</time></trkpt>
<trkpt lat="46.1975383" lon="7.3499700"><ele></ele><time>2016-5-22T13:1:18Z</time></trkpt>
<trkpt lat="46.1975433" lon="7.3499383"><ele></ele><time>2016-5-22T13:1:21Z</time></trkpt>
<trkpt lat="46.1975550" lon="7.3499233"><ele></ele><time>2016-5-22T13:1:24Z</time></trkpt>
<trkpt lat="46.1975567" lon="7.3499183"><ele></ele><time>2016-5-22T13:1:27Z</time></trkpt>
<trkpt lat="46.1975533" lon="7.3499083"><ele></ele><time>2016-5-22T13:1:30Z</time></trkpt>
<trkpt lat="46.1975600" lon="7.3499233"><ele></ele><time>2016-5-22T13:1:33Z</time></trkpt>
<trkpt lat="46.1975683" lon="7.3499317"><ele></ele><time>2016-5-22T13:1:36Z</time></trkpt>
<trkpt lat="46.1975683" lon="7.3499317"><ele></ele><time>2016-5-22T13:1:39Z</time></trkpt>
<trkpt lat="46.1975683" lon="7.3499317"><ele></ele><time>2016-5-22T13:1:42Z</time></trkpt>
<trkpt lat="46.1975683" lon="7.3499317"><ele></ele><time>2016-5-22T13:1:45Z</time></trkpt>
<trkpt lat="46.1975683" lon="7.3499317"><ele></ele><time>2016-5-22T13:1:48Z</time></trkpt>
<trkpt lat="46.1975683" lon="7.3499317"><ele></ele><time>2016-5-22T13:1:51Z</time></trkpt>
<trkpt lat="46.1975683" lon="7.3499317"><ele></ele><time>2016-5-22T13:1:54Z</time></trkpt>
<trkpt lat="46.1975683" lon="7.3499317"><ele></ele><time>2016-5-22T13:1:57Z</time></trkpt>
<trkpt lat="46.1975683" lon="7.3499317"><ele></ele><time>2016-5-22T13:2:0Z</time></trkpt>
<trkpt lat="46.1975683" lon="7.3499317"><ele></ele><time>2016-5-22T13:2:3Z</time></trkpt>
<trkpt lat="46.1975683" lon="7.3499317"><ele></ele><time>2016-5-22T13:2:6Z</time></trkpt>
<trkpt lat="46.1975683" lon="7.3499317"><ele></ele><time>2016-5-22T13:2:9Z</time></trkpt>
<trkpt lat="46.1975683" lon="7.3499317"><ele></ele><time>2016-5-22T13:2:12Z</time></trkpt>
<trkpt lat="46.1975683" lon="7.3499317"><ele></ele><time>2016-5-22T13:2:15Z</time></trkpt>
<trkpt lat="46.1975683" lon="7.3499317"><ele></ele><time>2016-5-22T13:2:18Z</time></trkpt>
<trkpt lat="46.1975717" lon="7.3498983"><ele></ele><time>2016-5-22T13:2:21Z</time></trkpt>
<trkpt lat="46.1975717" lon="7.3498983"><ele></ele><time>2016-5-22T13:2:24Z</time></trkpt>
<trkpt lat="46.1975767" lon="7.3499083"><ele></ele><time>2016-5-22T13:2:27Z</time></trkpt>
<trkpt lat="46.1975950" lon="7.3499200"><ele></ele><time>2016-5-22T13:2:30Z</time></trkpt>
<trkpt lat="46.1976233" lon="7.3499350"><ele></ele><time>2016-5-22T13:2:33Z</time></trkpt>
<trkpt lat="46.1976583" lon="7.3499883"><ele></ele><time>2016-5-22T13:2:36Z</time></trkpt>
<trkpt lat="46.1977117" lon="7.3500583"><ele></ele><time>2016-5-22T13:2:39Z</time></trkpt>
<trkpt lat="46.1977600" lon="7.3501567"><ele></ele><time>2016-5-22T13:2:42Z</time></trkpt>
<trkpt lat="46.1977917" lon="7.3502650"><ele></ele><time>2016-5-22T13:2:45Z</time></trkpt>
<trkpt lat="46.1978267" lon="7.3503633"><ele></ele><time>2016-5-22T13:2:48Z</time></trkpt>
<trkpt lat="46.1978383" lon="7.3504050"><ele></ele><time>2016-5-22T13:2:51Z</time></trkpt>
<trkpt lat="46.1978483" lon="7.3504467"><ele></ele><time>2016-5-22T13:2:54Z</time></trkpt>
<trkpt lat="46.1978450" lon="7.3504750"><ele></ele><time>2016-5-22T13:2:57Z</time></trkpt>
<trkpt lat="46.1978450" lon="7.3504883"><ele></ele><time>2016-5-22T13:3:0Z</time></trkpt>
<trkpt lat="46.1978683" lon="7.3505033"><ele></ele><time>2016-5-22T13:3:3Z</time></trkpt>
<trkpt lat="46.1978867" lon="7.3504917"><ele></ele><time>2016-5-22T13:3:6Z</time></trkpt>
<trkpt lat="46.1978950" lon="7.3504850"><ele></ele><time>2016-5-22T13:3:9Z</time></trkpt>
<trkpt lat="46.1978950" lon="7.3504750"><ele></ele><time>2016-5-22T13:3:12Z</time></trkpt>
<trkpt lat="46.1978950" lon="7.3504750"><ele></ele><time>2016-5-22T13:3:15Z</time></trkpt>
<trkpt lat="46.1978950" lon="7.3504750"><ele></ele><time>2016-5-22T13:3:18Z</time></trkpt>
<trkpt lat="46.1978950" lon="7.3504750"><ele></ele><time>2016-5-22T13:3:21Z</time></trkpt>
<trkpt lat="46.1978950" lon="7.3504750"><ele></ele><time>2016-5-22T13:3:24Z</time></trkpt>
<trkpt lat="46.1978950" lon="7.3504750"><ele></ele><time>2016-5-22T13:3:27Z</time></trkpt>
<trkpt lat="46.1978950" lon="7.3504750"><ele></ele><time>2016-5-22T13:3:30Z</time></trkpt>
<trkpt lat="46.1978950" lon="7.3504750"><ele></ele><time>2016-5-22T13:3:33Z</time></trkpt>
<trkpt lat="46.1978950" lon="7.3504750"><ele></ele><time>2016-5-22T13:3:36Z</time></trkpt>
<trkpt lat="46.1978950" lon="7.3504750"><ele></ele><time>2016-5-22T13:3:39Z</time></trkpt>
<trkpt lat="46.1978950" lon="7.3504750"><ele></ele><time>2016-5-22T13:3:42Z</time></trkpt>
<trkpt lat="46.1978950" lon="7.3504750"><ele></ele><time>2016-5-22T13:3:45Z</time></trkpt>
<trkpt lat="46.1978950" lon="7.3504750"><ele></ele><time>2016-5-22T13:3:48Z</time></trkpt>
<trkpt lat="46.1978950" lon="7.3504750"><ele></ele><time>2016-5-22T13:3:51Z</time></trkpt>
<trkpt lat="46.1978950" lon="7.3504750"><ele></ele><time>2016-5-22T13:3:54Z</time></trkpt>
<trkpt lat="46.1978950" lon="7.3504750"><ele></ele><time>2016-5-22T13:3:57Z</time></trkpt>
<trkpt lat="46.1978633" lon="7.3504700"><ele></ele><time>2016-5-22T13:4:0Z</time></trkpt>
<trkpt lat="46.1978733" lon="7.3504767"><ele></ele><time>2016-5-22T13:4:3Z</time></trkpt>
<trkpt lat="46.1978900" lon="7.3504967"><ele></ele><time>2016-5-22T13:4:6Z</time></trkpt>
<trkpt lat="46.1979183" lon="7.3505317"><ele></ele><time>2016-5-22T13:4:9Z</time></trkpt>
<trkpt lat="46.1979600" lon="7.3505833"><ele></ele><time>2016-5-22T13:4:12Z</time></trkpt>
<trkpt lat="46.1980067" lon="7.3506450"><ele></ele><time>2016-5-22T13:4:15Z</time></trkpt>
<trkpt lat="46.1980567" lon="7.3507217"><ele></ele><time>2016-5-22T13:4:18Z</time></trkpt>
<trkpt lat="46.1981083" lon="7.3508100"><ele></ele><time>2016-5-22T13:4:21Z</time></trkpt>
<trkpt lat="46.1981600" lon="7.3509317"><ele></ele><time>2016-5-22T13:4:24Z</time></trkpt>
<trkpt lat="46.1981900" lon="7.3510250"><ele></ele><time>2016-5-22T13:4:27Z</time></trkpt>
<trkpt lat="46.1982233" lon="7.3511400"><ele></ele><time>2016-5-22T13:4:30Z</time></trkpt>
<trkpt lat="46.1982600" lon="7.3512450"><ele></ele><time>2016-5-22T13:4:33Z</time></trkpt>
<trkpt lat="46.1983117" lon="7.3513650"><ele></ele><time>2016-5-22T13:4:36Z</time></trkpt>
<trkpt lat="46.1983533" lon="7.3514750"><ele></ele><time>2016-5-22T13:4:39Z</time></trkpt>
<trkpt lat="46.1984100" lon="7.3515750"><ele></ele><time>2016-5-22T13:4:42Z</time></trkpt>
<trkpt lat="46.1984633" lon="7.3516650"><ele></ele><time>2016-5-22T13:4:45Z</time></trkpt>
<trkpt lat="46.1985167" lon="7.3517667"><ele></ele><time>2016-5-22T13:4:48Z</time></trkpt>
<trkpt lat="46.1985800" lon="7.3518750"><ele></ele><time>2016-5-22T13:4:51Z</time></trkpt>
<trkpt lat="46.1986300" lon="7.3519533"><ele></ele><time>2016-5-22T13:4:54Z</time></trkpt>
<trkpt lat="46.1986600" lon="7.3520417"><ele></ele><time>2016-5-22T13:4:57Z</time></trkpt>
<trkpt lat="46.1987033" lon="7.3521433"><ele></ele><time>2016-5-22T13:5:0Z</time></trkpt>
<trkpt lat="46.1987500" lon="7.3522450"><ele></ele><time>2016-5-22T13:5:3Z</time></trkpt>
<trkpt lat="46.1987717" lon="7.3523650"><ele></ele><time>2016-5-22T13:5:6Z</time></trkpt>
<trkpt lat="46.1988533" lon="7.3524033"><ele></ele><time>2016-5-22T13:5:9Z</time></trkpt>
<trkpt lat="46.1989183" lon="7.3524483"><ele></ele><time>2016-5-22T13:5:12Z</time></trkpt>
<trkpt lat="46.1989933" lon="7.3524667"><ele></ele><time>2016-5-22T13:5:15Z</time></trkpt>
<trkpt lat="46.1990467" lon="7.3525233"><ele></ele><time>2016-5-22T13:5:18Z</time></trkpt>
<trkpt lat="46.1990967" lon="7.3525733"><ele></ele><time>2016-5-22T13:5:21Z</time></trkpt>
<trkpt lat="46.1991417" lon="7.3526633"><ele></ele><time>2016-5-22T13:5:24Z</time></trkpt>
<trkpt lat="46.1991900" lon="7.3527383"><ele></ele><time>2016-5-22T13:5:27Z</time></trkpt>
<trkpt lat="46.1992400" lon="7.3528417"><ele></ele><time>2016-5-22T13:5:30Z</time></trkpt>
<trkpt lat="46.1992967" lon="7.3529317"><ele></ele><time>2016-5-22T13:5:33Z</time></trkpt>
<trkpt lat="46.1993767" lon="7.3530267"><ele></ele><time>2016-5-22T13:5:36Z</time></trkpt>
<trkpt lat="46.1994617" lon="7.3531233"><ele></ele><time>2016-5-22T13:5:39Z</time></trkpt>
<trkpt lat="46.1995317" lon="7.3531917"><ele></ele><time>2016-5-22T13:5:42Z</time></trkpt>
<trkpt lat="46.1995983" lon="7.3532183"><ele></ele><time>2016-5-22T13:5:45Z</time></trkpt>
<trkpt lat="46.1996550" lon="7.3532250"><ele></ele><time>2016-5-22T13:5:48Z</time></trkpt>
<trkpt lat="46.1996550" lon="7.3532250"><ele></ele><time>2016-5-22T13:5:51Z</time></trkpt>
<trkpt lat="46.1997233" lon="7.3532333"><ele></ele><time>2016-5-22T13:5:54Z</time></trkpt>
<trkpt lat="46.1997983" lon="7.3532283"><ele></ele><time>2016-5-22T13:5:57Z</time></trkpt>
<trkpt lat="46.1998517" lon="7.3532683"><ele></ele><time>2016-5-22T13:6:0Z</time></trkpt>
<trkpt lat="46.1998950" lon="7.3533267"><ele></ele><time>2016-5-22T13:6:3Z</time></trkpt>
<trkpt lat="46.1999433" lon="7.3533967"><ele></ele><time>2016-5-22T13:6:6Z</time></trkpt>
<trkpt lat="46.1999700" lon="7.3534717"><ele></ele><time>2016-5-22T13:6:9Z</time></trkpt>
<trkpt lat="46.1999800" lon="7.3535717"><ele></ele><time>2016-5-22T13:6:12Z</time></trkpt>
<trkpt lat="46.1999933" lon="7.3536750"><ele></ele><time>2016-5-22T13:6:15Z</time></trkpt>
<trkpt lat="46.2000117" lon="7.3537933"><ele></ele><time>2016-5-22T13:6:18Z</time></trkpt>
<trkpt lat="46.2000233" lon="7.3539050"><ele></ele><time>2016-5-22T13:6:21Z</time></trkpt>
<trkpt lat="46.2000317" lon="7.3540183"><ele></ele><time>2016-5-22T13:6:24Z</time></trkpt>
<trkpt lat="46.2000417" lon="7.3541317"><ele></ele><time>2016-5-22T13:6:27Z</time></trkpt>
<trkpt lat="46.2000417" lon="7.3541317"><ele></ele><time>2016-5-22T13:6:30Z</time></trkpt>
<trkpt lat="46.2000483" lon="7.3542250"><ele></ele><time>2016-5-22T13:6:33Z</time></trkpt>
<trkpt lat="46.2000583" lon="7.3543000"><ele></ele><time>2016-5-22T13:6:36Z</time></trkpt>
<trkpt lat="46.2000800" lon="7.3543283"><ele></ele><time>2016-5-22T13:6:39Z</time></trkpt>
<trkpt lat="46.2001033" lon="7.3543600"><ele></ele><time>2016-5-22T13:6:42Z</time></trkpt>
<trkpt lat="46.2001050" lon="7.3543367"><ele></ele><time>2016-5-22T13:6:45Z</time></trkpt>
<trkpt lat="46.2000917" lon="7.3543317"><ele></ele><time>2016-5-22T13:6:48Z</time></trkpt>
<trkpt lat="46.2000917" lon="7.3543317"><ele></ele><time>2016-5-22T13:6:51Z</time></trkpt>
<trkpt lat="46.2000917" lon="7.3543317"><ele></ele><time>2016-5-22T13:6:54Z</time></trkpt>
<trkpt lat="46.2000917" lon="7.3543317"><ele></ele><time>2016-5-22T13:6:57Z</time></trkpt>
<trkpt lat="46.2000917" lon="7.3543317"><ele></ele><time>2016-5-22T13:7:0Z</time></trkpt>
<trkpt lat="46.2000917" lon="7.3543317"><ele></ele><time>2016-5-22T13:7:3Z</time></trkpt>
<trkpt lat="46.2000917" lon="7.3543317"><ele></ele><time>2016-5-22T13:7:6Z</time></trkpt>
<trkpt lat="46.2000917" lon="7.3543317"><ele></ele><time>2016-5-22T13:7:9Z</time></trkpt>
<trkpt lat="46.2000917" lon="7.3543317"><ele></ele><time>2016-5-22T13:7:12Z</time></trkpt>
<trkpt lat="46.2000917" lon="7.3543317"><ele></ele><time>2016-5-22T13:7:15Z</time></trkpt>
<trkpt lat="46.2000917" lon="7.3543317"><ele></ele><time>2016-5-22T13:7:18Z</time></trkpt>
<trkpt lat="46.2000917" lon="7.3543317"><ele></ele><time>2016-5-22T13:7:21Z</time></trkpt>
<trkpt lat="46.2000917" lon="7.3543317"><ele></ele><time>2016-5-22T13:7:24Z</time></trkpt>
<trkpt lat="46.2000917" lon="7.3543317"><ele></ele><time>2016-5-22T13:7:27Z</time></trkpt>
<trkpt lat="46.2000917" lon="7.3543317"><ele></ele><time>2016-5-22T13:7:30Z</time></trkpt>
<trkpt lat="46.2000917" lon="7.3543317"><ele></ele><time>2016-5-22T13:7:33Z</time></trkpt>
<trkpt lat="46.2000917" lon="7.3543317"><ele></ele><time>2016-5-22T13:7:36Z</time></trkpt>
<trkpt lat="46.2000917" lon="7.3543317"><ele></ele><time>2016-5-22T13:7:39Z</time></trkpt>
<trkpt lat="46.2000917" lon="7.3543317"><ele></ele><time>2016-5-22T13:7:42Z</time></trkpt>
<trkpt lat="46.2000917" lon="7.3543317"><ele></ele><time>2016-5-22T13:7:45Z</time></trkpt>
<trkpt lat="46.2000917" lon="7.3543317"><ele></ele><time>2016-5-22T13:7:48Z</time></trkpt>
<trkpt lat="46.2000917" lon="7.3543317"><ele></ele><time>2016-5-22T13:7:51Z</time></trkpt>
<trkpt lat="46.2000917" lon="7.3543317"><ele></ele><time>2016-5-22T13:7:54Z</time></trkpt>
<trkpt lat="46.2000917" lon="7.3543317"><ele></ele><time>2016-5-22T13:7:57Z</time></trkpt>
<trkpt lat="46.2000917" lon="7.3543317"><ele></ele><time>2016-5-22T13:8:0Z</time></trkpt>
<trkpt lat="46.2000900" lon="7.3543333"><ele></ele><time>2016-5-22T13:8:3Z</time></trkpt>
<trkpt lat="46.2000950" lon="7.3543300"><ele></ele><time>2016-5-22T13:8:6Z</time></trkpt>
<trkpt lat="46.2000950" lon="7.3543300"><ele></ele><time>2016-5-22T13:8:9Z</time></trkpt>
<trkpt lat="46.2000967" lon="7.3543250"><ele></ele><time>2016-5-22T13:8:12Z</time></trkpt>
<trkpt lat="46.2001067" lon="7.3543133"><ele></ele><time>2016-5-22T13:8:15Z</time></trkpt>
<trkpt lat="46.2001250" lon="7.3542783"><ele></ele><time>2016-5-22T13:8:18Z</time></trkpt>
<trkpt lat="46.2001433" lon="7.3542200"><ele></ele><time>2016-5-22T13:8:21Z</time></trkpt>
<trkpt lat="46.2001433" lon="7.3542200"><ele></ele><time>2016-5-22T13:8:24Z</time></trkpt>
<trkpt lat="46.2001617" lon="7.3541500"><ele></ele><time>2016-5-22T13:8:27Z</time></trkpt>
<trkpt lat="46.2001833" lon="7.3540617"><ele></ele><time>2016-5-22T13:8:30Z</time></trkpt>
<trkpt lat="46.2002100" lon="7.3539667"><ele></ele><time>2016-5-22T13:8:33Z</time></trkpt>
<trkpt lat="46.2002367" lon="7.3538717"><ele></ele><time>2016-5-22T13:8:36Z</time></trkpt>
<trkpt lat="46.2002583" lon="7.3537633"><ele></ele><time>2016-5-22T13:8:39Z</time></trkpt>
<trkpt lat="46.2002850" lon="7.3536783"><ele></ele><time>2016-5-22T13:8:42Z</time></trkpt>
<trkpt lat="46.2003067" lon="7.3536083"><ele></ele><time>2016-5-22T13:8:45Z</time></trkpt>
<trkpt lat="46.2003400" lon="7.3535317"><ele></ele><time>2016-5-22T13:8:48Z</time></trkpt>
<trkpt lat="46.2003633" lon="7.3534400"><ele></ele><time>2016-5-22T13:8:51Z</time></trkpt>
<trkpt lat="46.2003783" lon="7.3533500"><ele></ele><time>2016-5-22T13:8:54Z</time></trkpt>
<trkpt lat="46.2003750" lon="7.3532450"><ele></ele><time>2016-5-22T13:8:57Z</time></trkpt>
<trkpt lat="46.2003800" lon="7.3531817"><ele></ele><time>2016-5-22T13:9:0Z</time></trkpt>
<trkpt lat="46.2003800" lon="7.3531817"><ele></ele><time>2016-5-22T13:9:3Z</time></trkpt>
<trkpt lat="46.2003883" lon="7.3531450"><ele></ele><time>2016-5-22T13:9:6Z</time></trkpt>
<trkpt lat="46.2004400" lon="7.3531550"><ele></ele><time>2016-5-22T13:9:9Z</time></trkpt>
<trkpt lat="46.2004650" lon="7.3532000"><ele></ele><time>2016-5-22T13:9:12Z</time></trkpt>
<trkpt lat="46.2004967" lon="7.3532400"><ele></ele><time>2016-5-22T13:9:15Z</time></trkpt>
<trkpt lat="46.2005483" lon="7.3533083"><ele></ele><time>2016-5-22T13:9:18Z</time></trkpt>
<trkpt lat="46.2006117" lon="7.3533900"><ele></ele><time>2016-5-22T13:9:21Z</time></trkpt>
<trkpt lat="46.2006567" lon="7.3534817"><ele></ele><time>2016-5-22T13:9:24Z</time></trkpt>
<trkpt lat="46.2006917" lon="7.3535683"><ele></ele><time>2016-5-22T13:9:27Z</time></trkpt>
<trkpt lat="46.2006867" lon="7.3536467"><ele></ele><time>2016-5-22T13:9:30Z</time></trkpt>
<trkpt lat="46.2006800" lon="7.3537283"><ele></ele><time>2016-5-22T13:9:33Z</time></trkpt>
<trkpt lat="46.2006967" lon="7.3538067"><ele></ele><time>2016-5-22T13:9:36Z</time></trkpt>
<trkpt lat="46.2006917" lon="7.3538867"><ele></ele><time>2016-5-22T13:9:39Z</time></trkpt>
<trkpt lat="46.2006917" lon="7.3538867"><ele></ele><time>2016-5-22T13:9:42Z</time></trkpt>
<trkpt lat="46.2007200" lon="7.3539717"><ele></ele><time>2016-5-22T13:9:45Z</time></trkpt>
<trkpt lat="46.2007600" lon="7.3540733"><ele></ele><time>2016-5-22T13:9:48Z</time></trkpt>
<trkpt lat="46.2008117" lon="7.3541350"><ele></ele><time>2016-5-22T13:9:51Z</time></trkpt>
<trkpt lat="46.2008683" lon="7.3541767"><ele></ele><time>2016-5-22T13:9:54Z</time></trkpt>
<trkpt lat="46.2009167" lon="7.3542117"><ele></ele><time>2016-5-22T13:9:57Z</time></trkpt>
<trkpt lat="46.2009383" lon="7.3542467"><ele></ele><time>2016-5-22T13:10:0Z</time></trkpt>
<trkpt lat="46.2009833" lon="7.3542633"><ele></ele><time>2016-5-22T13:10:3Z</time></trkpt>
<trkpt lat="46.2010383" lon="7.3542917"><ele></ele><time>2016-5-22T13:10:6Z</time></trkpt>
<trkpt lat="46.2010800" lon="7.3543217"><ele></ele><time>2016-5-22T13:10:9Z</time></trkpt>
<trkpt lat="46.2011217" lon="7.3543550"><ele></ele><time>2016-5-22T13:10:12Z</time></trkpt>
<trkpt lat="46.2011583" lon="7.3543767"><ele></ele><time>2016-5-22T13:10:15Z</time></trkpt>
<trkpt lat="46.2011950" lon="7.3544200"><ele></ele><time>2016-5-22T13:10:18Z</time></trkpt>
<trkpt lat="46.2011950" lon="7.3544200"><ele></ele><time>2016-5-22T13:10:21Z</time></trkpt>
<trkpt lat="46.2012200" lon="7.3544700"><ele></ele><time>2016-5-22T13:10:24Z</time></trkpt>
<trkpt lat="46.2012483" lon="7.3545083"><ele></ele><time>2016-5-22T13:10:27Z</time></trkpt>
<trkpt lat="46.2012833" lon="7.3545367"><ele></ele><time>2016-5-22T13:10:30Z</time></trkpt>
<trkpt lat="46.2013150" lon="7.3545500"><ele></ele><time>2016-5-22T13:10:33Z</time></trkpt>
<trkpt lat="46.2013600" lon="7.3545667"><ele></ele><time>2016-5-22T13:10:36Z</time></trkpt>
<trkpt lat="46.2014017" lon="7.3545800"><ele></ele><time>2016-5-22T13:10:39Z</time></trkpt>
<trkpt lat="46.2014400" lon="7.3545567"><ele></ele><time>2016-5-22T13:10:42Z</time></trkpt>
<trkpt lat="46.2014933" lon="7.3545283"><ele></ele><time>2016-5-22T13:10:45Z</time></trkpt>
<trkpt lat="46.2015417" lon="7.3545000"><ele></ele><time>2016-5-22T13:10:48Z</time></trkpt>
<trkpt lat="46.2016117" lon="7.3544817"><ele></ele><time>2016-5-22T13:10:51Z</time></trkpt>
<trkpt lat="46.2016850" lon="7.3544633"><ele></ele><time>2016-5-22T13:10:54Z</time></trkpt>
<trkpt lat="46.2017617" lon="7.3544500"><ele></ele><time>2016-5-22T13:10:57Z</time></trkpt>
<trkpt lat="46.2017617" lon="7.3544500"><ele></ele><time>2016-5-22T13:11:0Z</time></trkpt>
<trkpt lat="46.2018200" lon="7.3544167"><ele></ele><time>2016-5-22T13:11:3Z</time></trkpt>
<trkpt lat="46.2018450" lon="7.3544417"><ele></ele><time>2016-5-22T13:11:6Z</time></trkpt>
<trkpt lat="46.2018767" lon="7.3545200"><ele></ele><time>2016-5-22T13:11:9Z</time></trkpt>
<trkpt lat="46.2019150" lon="7.3545883"><ele></ele><time>2016-5-22T13:11:12Z</time></trkpt>
<trkpt lat="46.2019533" lon="7.3546400"><ele></ele><time>2016-5-22T13:11:15Z</time></trkpt>
<trkpt lat="46.2020033" lon="7.3547167"><ele></ele><time>2016-5-22T13:11:18Z</time></trkpt>
<trkpt lat="46.2020633" lon="7.3548017"><ele></ele><time>2016-5-22T13:11:21Z</time></trkpt>
<trkpt lat="46.2021067" lon="7.3548467"><ele></ele><time>2016-5-22T13:11:24Z</time></trkpt>
<trkpt lat="46.2021350" lon="7.3549083"><ele></ele><time>2016-5-22T13:11:27Z</time></trkpt>
<trkpt lat="46.2021733" lon="7.3549783"><ele></ele><time>2016-5-22T13:11:30Z</time></trkpt>
<trkpt lat="46.2022050" lon="7.3550583"><ele></ele><time>2016-5-22T13:11:33Z</time></trkpt>
<trkpt lat="46.2022350" lon="7.3551517"><ele></ele><time>2016-5-22T13:11:36Z</time></trkpt>
<trkpt lat="46.2022350" lon="7.3551517"><ele></ele><time>2016-5-22T13:11:39Z</time></trkpt>
<trkpt lat="46.2022650" lon="7.3552633"><ele></ele><time>2016-5-22T13:11:42Z</time></trkpt>
<trkpt lat="46.2022883" lon="7.3553483"><ele></ele><time>2016-5-22T13:11:45Z</time></trkpt>
<trkpt lat="46.2023167" lon="7.3554200"><ele></ele><time>2016-5-22T13:11:48Z</time></trkpt>
<trkpt lat="46.2023350" lon="7.3554750"><ele></ele><time>2016-5-22T13:11:51Z</time></trkpt>
<trkpt lat="46.2023483" lon="7.3555083"><ele></ele><time>2016-5-22T13:11:54Z</time></trkpt>
<trkpt lat="46.2023567" lon="7.3555217"><ele></ele><time>2016-5-22T13:11:57Z</time></trkpt>
<trkpt lat="46.2023650" lon="7.3555433"><ele></ele><time>2016-5-22T13:12:0Z</time></trkpt>
<trkpt lat="46.2023950" lon="7.3555600"><ele></ele><time>2016-5-22T13:12:3Z</time></trkpt>
<trkpt lat="46.2024200" lon="7.3555967"><ele></ele><time>2016-5-22T13:12:6Z</time></trkpt>
<trkpt lat="46.2024233" lon="7.3556667"><ele></ele><time>2016-5-22T13:12:9Z</time></trkpt>
<trkpt lat="46.2024433" lon="7.3557167"><ele></ele><time>2016-5-22T13:12:12Z</time></trkpt>
<trkpt lat="46.2024600" lon="7.3557633"><ele></ele><time>2016-5-22T13:12:15Z</time></trkpt>
<trkpt lat="46.2024600" lon="7.3557633"><ele></ele><time>2016-5-22T13:12:18Z</time></trkpt>
<trkpt lat="46.2024867" lon="7.3558250"><ele></ele><time>2016-5-22T13:12:21Z</time></trkpt>
<trkpt lat="46.2025200" lon="7.3559150"><ele></ele><time>2016-5-22T13:12:24Z</time></trkpt>
<trkpt lat="46.2025633" lon="7.3559850"><ele></ele><time>2016-5-22T13:12:27Z</time></trkpt>
<trkpt lat="46.2025900" lon="7.3560150"><ele></ele><time>2016-5-22T13:12:30Z</time></trkpt>
<trkpt lat="46.2025967" lon="7.3560050"><ele></ele><time>2016-5-22T13:12:33Z</time></trkpt>
<trkpt lat="46.2026117" lon="7.3559750"><ele></ele><time>2016-5-22T13:12:36Z</time></trkpt>
<trkpt lat="46.2025917" lon="7.3559850"><ele></ele><time>2016-5-22T13:12:39Z</time></trkpt>
<trkpt lat="46.2026000" lon="7.3559700"><ele></ele><time>2016-5-22T13:12:42Z</time></trkpt>
<trkpt lat="46.2025933" lon="7.3559583"><ele></ele><time>2016-5-22T13:12:45Z</time></trkpt>
<trkpt lat="46.2025883" lon="7.3559500"><ele></ele><time>2016-5-22T13:12:48Z</time></trkpt>
<trkpt lat="46.2025733" lon="7.3559350"><ele></ele><time>2016-5-22T13:12:51Z</time></trkpt>
<trkpt lat="46.2025717" lon="7.3559167"><ele></ele><time>2016-5-22T13:12:54Z</time></trkpt>
<trkpt lat="46.2025717" lon="7.3559167"><ele></ele><time>2016-5-22T13:12:57Z</time></trkpt>
<trkpt lat="46.2025683" lon="7.3559000"><ele></ele><time>2016-5-22T13:13:0Z</time></trkpt>
<trkpt lat="46.2025633" lon="7.3558717"><ele></ele><time>2016-5-22T13:13:3Z</time></trkpt>
<trkpt lat="46.2025567" lon="7.3558383"><ele></ele><time>2016-5-22T13:13:6Z</time></trkpt>
<trkpt lat="46.2025567" lon="7.3558050"><ele></ele><time>2016-5-22T13:13:9Z</time></trkpt>
<trkpt lat="46.2025583" lon="7.3557667"><ele></ele><time>2016-5-22T13:13:12Z</time></trkpt>
<trkpt lat="46.2025633" lon="7.3557250"><ele></ele><time>2016-5-22T13:13:15Z</time></trkpt>
<trkpt lat="46.2025617" lon="7.3556817"><ele></ele><time>2016-5-22T13:13:18Z</time></trkpt>
<trkpt lat="46.2025550" lon="7.3556367"><ele></ele><time>2016-5-22T13:13:21Z</time></trkpt>
<trkpt lat="46.2025417" lon="7.3555950"><ele></ele><time>2016-5-22T13:13:24Z</time></trkpt>
<trkpt lat="46.2025283" lon="7.3555533"><ele></ele><time>2016-5-22T13:13:27Z</time></trkpt>
<trkpt lat="46.2025167" lon="7.3555150"><ele></ele><time>2016-5-22T13:13:30Z</time></trkpt>
<trkpt lat="46.2025067" lon="7.3554750"><ele></ele><time>2016-5-22T13:13:33Z</time></trkpt>
<trkpt lat="46.2025067" lon="7.3554750"><ele></ele><time>2016-5-22T13:13:36Z</time></trkpt>
<trkpt lat="46.2025000" lon="7.3554383"><ele></ele><time>2016-5-22T13:13:39Z</time></trkpt>
<trkpt lat="46.2024967" lon="7.3554017"><ele></ele><time>2016-5-22T13:13:42Z</time></trkpt>
<trkpt lat="46.2024900" lon="7.3553650"><ele></ele><time>2016-5-22T13:13:45Z</time></trkpt>
<trkpt lat="46.2024850" lon="7.3553250"><ele></ele><time>2016-5-22T13:13:48Z</time></trkpt>
<trkpt lat="46.2024767" lon="7.3552900"><ele></ele><time>2016-5-22T13:13:51Z</time></trkpt>
<trkpt lat="46.2024717" lon="7.3552600"><ele></ele><time>2016-5-22T13:13:54Z</time></trkpt>
<trkpt lat="46.2024650" lon="7.3552250"><ele></ele><time>2016-5-22T13:13:57Z</time></trkpt>
<trkpt lat="46.2024583" lon="7.3551883"><ele></ele><time>2016-5-22T13:14:0Z</time></trkpt>
<trkpt lat="46.2024500" lon="7.3551467"><ele></ele><time>2016-5-22T13:14:3Z</time></trkpt>
<trkpt lat="46.2024367" lon="7.3551100"><ele></ele><time>2016-5-22T13:14:6Z</time></trkpt>
<trkpt lat="46.2024250" lon="7.3550767"><ele></ele><time>2016-5-22T13:14:9Z</time></trkpt>
<trkpt lat="46.2024150" lon="7.3550417"><ele></ele><time>2016-5-22T13:14:12Z</time></trkpt>
<trkpt lat="46.2024100" lon="7.3550050"><ele></ele><time>2016-5-22T13:14:15Z</time></trkpt>
<trkpt lat="46.2024100" lon="7.3550050"><ele></ele><time>2016-5-22T13:14:18Z</time></trkpt>
<trkpt lat="46.2024017" lon="7.3549633"><ele></ele><time>2016-5-22T13:14:21Z</time></trkpt>
<trkpt lat="46.2023933" lon="7.3549217"><ele></ele><time>2016-5-22T13:14:24Z</time></trkpt>
<trkpt lat="46.2023767" lon="7.3548800"><ele></ele><time>2016-5-22T13:14:27Z</time></trkpt>
<trkpt lat="46.2023533" lon="7.3548400"><ele></ele><time>2016-5-22T13:14:30Z</time></trkpt>
<trkpt lat="46.2023283" lon="7.3548050"><ele></ele><time>2016-5-22T13:14:33Z</time></trkpt>
<trkpt lat="46.2023033" lon="7.3547717"><ele></ele><time>2016-5-22T13:14:36Z</time></trkpt>
<trkpt lat="46.2022800" lon="7.3547400"><ele></ele><time>2016-5-22T13:14:39Z</time></trkpt>
<trkpt lat="46.2022567" lon="7.3547067"><ele></ele><time>2016-5-22T13:14:42Z</time></trkpt>
<trkpt lat="46.2022333" lon="7.3546800"><ele></ele><time>2016-5-22T13:14:45Z</time></trkpt>
<trkpt lat="46.2022083" lon="7.3546533"><ele></ele><time>2016-5-22T13:14:48Z</time></trkpt>
<trkpt lat="46.2021783" lon="7.3546250"><ele></ele><time>2016-5-22T13:14:51Z</time></trkpt>
<trkpt lat="46.2021783" lon="7.3546250"><ele></ele><time>2016-5-22T13:14:54Z</time></trkpt>
<trkpt lat="46.2021450" lon="7.3545950"><ele></ele><time>2016-5-22T13:14:57Z</time></trkpt>
<trkpt lat="46.2021150" lon="7.3545617"><ele></ele><time>2016-5-22T13:15:0Z</time></trkpt>
<trkpt lat="46.2020933" lon="7.3545233"><ele></ele><time>2016-5-22T13:15:3Z</time></trkpt>
<trkpt lat="46.2020783" lon="7.3544900"><ele></ele><time>2016-5-22T13:15:6Z</time></trkpt>
<trkpt lat="46.2020683" lon="7.3544567"><ele></ele><time>2016-5-22T13:15:9Z</time></trkpt>
<trkpt lat="46.2020550" lon="7.3544150"><ele></ele><time>2016-5-22T13:15:12Z</time></trkpt>
<trkpt lat="46.2020367" lon="7.3543717"><ele></ele><time>2016-5-22T13:15:15Z</time></trkpt>
<trkpt lat="46.2020167" lon="7.3543333"><ele></ele><time>2016-5-22T13:15:18Z</time></trkpt>
<trkpt lat="46.2019967" lon="7.3542883"><ele></ele><time>2016-5-22T13:15:21Z</time></trkpt>
<trkpt lat="46.2019767" lon="7.3542400"><ele></ele><time>2016-5-22T13:15:24Z</time></trkpt>
<trkpt lat="46.2019617" lon="7.3541933"><ele></ele><time>2016-5-22T13:15:27Z</time></trkpt>
<trkpt lat="46.2019433" lon="7.3541517"><ele></ele><time>2016-5-22T13:15:30Z</time></trkpt>
<trkpt lat="46.2019200" lon="7.3541217"><ele></ele><time>2016-5-22T13:15:33Z</time></trkpt>
<trkpt lat="46.2019200" lon="7.3541217"><ele></ele><time>2016-5-22T13:15:36Z</time></trkpt>
<trkpt lat="46.2018967" lon="7.3541050"><ele></ele><time>2016-5-22T13:15:39Z</time></trkpt>
<trkpt lat="46.2018750" lon="7.3540933"><ele></ele><time>2016-5-22T13:15:42Z</time></trkpt>
<trkpt lat="46.2018517" lon="7.3540800"><ele></ele><time>2016-5-22T13:15:45Z</time></trkpt>
<trkpt lat="46.2018267" lon="7.3540617"><ele></ele><time>2016-5-22T13:15:48Z</time></trkpt>
<trkpt lat="46.2018000" lon="7.3540417"><ele></ele><time>2016-5-22T13:15:51Z</time></trkpt>
<trkpt lat="46.2017717" lon="7.3540233"><ele></ele><time>2016-5-22T13:15:54Z</time></trkpt>
<trkpt lat="46.2017400" lon="7.3540050"><ele></ele><time>2016-5-22T13:15:57Z</time></trkpt>
<trkpt lat="46.2017083" lon="7.3539883"><ele></ele><time>2016-5-22T13:16:0Z</time></trkpt>
<trkpt lat="46.2016767" lon="7.3539650"><ele></ele><time>2016-5-22T13:16:3Z</time></trkpt>
<trkpt lat="46.2016433" lon="7.3539417"><ele></ele><time>2016-5-22T13:16:6Z</time></trkpt>
<trkpt lat="46.2016133" lon="7.3539167"><ele></ele><time>2016-5-22T13:16:9Z</time></trkpt>
<trkpt lat="46.2016133" lon="7.3539167"><ele></ele><time>2016-5-22T13:16:12Z</time></trkpt>
<trkpt lat="46.2015783" lon="7.3538900"><ele></ele><time>2016-5-22T13:16:15Z</time></trkpt>
<trkpt lat="46.2015350" lon="7.3538467"><ele></ele><time>2016-5-22T13:16:18Z</time></trkpt>
<trkpt lat="46.2014867" lon="7.3538183"><ele></ele><time>2016-5-22T13:16:21Z</time></trkpt>
<trkpt lat="46.2014600" lon="7.3537683"><ele></ele><time>2016-5-22T13:16:24Z</time></trkpt>
<trkpt lat="46.2014333" lon="7.3537383"><ele></ele><time>2016-5-22T13:16:27Z</time></trkpt>
<trkpt lat="46.2014283" lon="7.3536883"><ele></ele><time>2016-5-22T13:16:30Z</time></trkpt>
<trkpt lat="46.2014233" lon="7.3536533"><ele></ele><time>2016-5-22T13:16:33Z</time></trkpt>
<trkpt lat="46.2014450" lon="7.3536367"><ele></ele><time>2016-5-22T13:16:36Z</time></trkpt>
<trkpt lat="46.2014767" lon="7.3536250"><ele></ele><time>2016-5-22T13:16:39Z</time></trkpt>
<trkpt lat="46.2014983" lon="7.3536150"><ele></ele><time>2016-5-22T13:16:42Z</time></trkpt>
<trkpt lat="46.2015350" lon="7.3535667"><ele></ele><time>2016-5-22T13:16:45Z</time></trkpt>
<trkpt lat="46.2015667" lon="7.3535383"><ele></ele><time>2016-5-22T13:16:48Z</time></trkpt>
<trkpt lat="46.2015733" lon="7.3535133"><ele></ele><time>2016-5-22T13:16:51Z</time></trkpt>
<trkpt lat="46.2015733" lon="7.3535133"><ele></ele><time>2016-5-22T13:16:54Z</time></trkpt>
<trkpt lat="46.2015717" lon="7.3535083"><ele></ele><time>2016-5-22T13:16:57Z</time></trkpt>
<trkpt lat="46.2015717" lon="7.3535083"><ele></ele><time>2016-5-22T13:17:0Z</time></trkpt>
<trkpt lat="46.2015717" lon="7.3535083"><ele></ele><time>2016-5-22T13:17:3Z</time></trkpt>
<trkpt lat="46.2015717" lon="7.3535083"><ele></ele><time>2016-5-22T13:17:6Z</time></trkpt>
<trkpt lat="46.2015650" lon="7.3534800"><ele></ele><time>2016-5-22T13:17:9Z</time></trkpt>
<trkpt lat="46.2015667" lon="7.3534650"><ele></ele><time>2016-5-22T13:17:12Z</time></trkpt>
<trkpt lat="46.2015667" lon="7.3534500"><ele></ele><time>2016-5-22T13:17:15Z</time></trkpt>
<trkpt lat="46.2015700" lon="7.3534300"><ele></ele><time>2016-5-22T13:17:18Z</time></trkpt>
<trkpt lat="46.2015700" lon="7.3534117"><ele></ele><time>2016-5-22T13:17:21Z</time></trkpt>
<trkpt lat="46.2015717" lon="7.3533967"><ele></ele><time>2016-5-22T13:17:24Z</time></trkpt>
<trkpt lat="46.2015750" lon="7.3533717"><ele></ele><time>2016-5-22T13:17:27Z</time></trkpt>
<trkpt lat="46.2015750" lon="7.3533717"><ele></ele><time>2016-5-22T13:17:30Z</time></trkpt>
<trkpt lat="46.2015867" lon="7.3533467"><ele></ele><time>2016-5-22T13:17:33Z</time></trkpt>
<trkpt lat="46.2016000" lon="7.3533217"><ele></ele><time>2016-5-22T13:17:36Z</time></trkpt>
<trkpt lat="46.2016183" lon="7.3533000"><ele></ele><time>2016-5-22T13:17:39Z</time></trkpt>
<trkpt lat="46.2016400" lon="7.3532750"><ele></ele><time>2016-5-22T13:17:42Z</time></trkpt>
<trkpt lat="46.2016667" lon="7.3532433"><ele></ele><time>2016-5-22T13:17:45Z</time></trkpt>
<trkpt lat="46.2016883" lon="7.3532017"><ele></ele><time>2016-5-22T13:17:48Z</time></trkpt>
<trkpt lat="46.2016950" lon="7.3531567"><ele></ele><time>2016-5-22T13:17:51Z</time></trkpt>
<trkpt lat="46.2016917" lon="7.3531033"><ele></ele><time>2016-5-22T13:17:54Z</time></trkpt>
<trkpt lat="46.2016783" lon="7.3530500"><ele></ele><time>2016-5-22T13:17:57Z</time></trkpt>
<trkpt lat="46.2016583" lon="7.3529950"><ele></ele><time>2016-5-22T13:18:0Z</time></trkpt>
<trkpt lat="46.2016350" lon="7.3529383"><ele></ele><time>2016-5-22T13:18:3Z</time></trkpt>
<trkpt lat="46.2016067" lon="7.3528800"><ele></ele><time>2016-5-22T13:18:6Z</time></trkpt>
<trkpt lat="46.2015750" lon="7.3528267"><ele></ele><time>2016-5-22T13:18:9Z</time></trkpt>
<trkpt lat="46.2015750" lon="7.3528267"><ele></ele><time>2016-5-22T13:18:12Z</time></trkpt>
<trkpt lat="46.2015417" lon="7.3527800"><ele></ele><time>2016-5-22T13:18:15Z</time></trkpt>
<trkpt lat="46.2015100" lon="7.3527367"><ele></ele><time>2016-5-22T13:18:18Z</time></trkpt>
<trkpt lat="46.2014767" lon="7.3527000"><ele></ele><time>2016-5-22T13:18:21Z</time></trkpt>
<trkpt lat="46.2014017" lon="7.3526783"><ele></ele><time>2016-5-22T13:18:24Z</time></trkpt>
<trkpt lat="46.2013500" lon="7.3526500"><ele></ele><time>2016-5-22T13:18:27Z</time></trkpt>
<trkpt lat="46.2013033" lon="7.3526150"><ele></ele><time>2016-5-22T13:18:30Z</time></trkpt>
<trkpt lat="46.2012650" lon="7.3525583"><ele></ele><time>2016-5-22T13:18:33Z</time></trkpt>
<trkpt lat="46.2012033" lon="7.3525117"><ele></ele><time>2016-5-22T13:18:36Z</time></trkpt>
<trkpt lat="46.2011967" lon="7.3524450"><ele></ele><time>2016-5-22T13:18:39Z</time></trkpt>
<trkpt lat="46.2012050" lon="7.3523950"><ele></ele><time>2016-5-22T13:18:42Z</time></trkpt>
<trkpt lat="46.2012167" lon="7.3523783"><ele></ele><time>2016-5-22T13:18:45Z</time></trkpt>
<trkpt lat="46.2012167" lon="7.3523783"><ele></ele><time>2016-5-22T13:18:48Z</time></trkpt>
<trkpt lat="46.2012383" lon="7.3523867"><ele></ele><time>2016-5-22T13:18:51Z</time></trkpt>
<trkpt lat="46.2012733" lon="7.3523900"><ele></ele><time>2016-5-22T13:18:54Z</time></trkpt>
<trkpt lat="46.2013000" lon="7.3524133"><ele></ele><time>2016-5-22T13:18:57Z</time></trkpt>
<trkpt lat="46.2013367" lon="7.3524567"><ele></ele><time>2016-5-22T13:19:0Z</time></trkpt>
<trkpt lat="46.2013967" lon="7.3525000"><ele></ele><time>2016-5-22T13:19:3Z</time></trkpt>
<trkpt lat="46.2014650" lon="7.3525733"><ele></ele><time>2016-5-22T13:19:6Z</time></trkpt>
<trkpt lat="46.2015133" lon="7.3526267"><ele></ele><time>2016-5-22T13:19:9Z</time></trkpt>
<trkpt lat="46.2015650" lon="7.3526450"><ele></ele><time>2016-5-22T13:19:12Z</time></trkpt>
<trkpt lat="46.2016133" lon="7.3526650"><ele></ele><time>2016-5-22T13:19:15Z</time></trkpt>
<trkpt lat="46.2016667" lon="7.3526917"><ele></ele><time>2016-5-22T13:19:18Z</time></trkpt>
<trkpt lat="46.2017233" lon="7.3527383"><ele></ele><time>2016-5-22T13:19:21Z</time></trkpt>
<trkpt lat="46.2017950" lon="7.3527833"><ele></ele><time>2016-5-22T13:19:24Z</time></trkpt>
<trkpt lat="46.2018450" lon="7.3528317"><ele></ele><time>2016-5-22T13:19:27Z</time></trkpt>
<trkpt lat="46.2018450" lon="7.3528317"><ele></ele><time>2016-5-22T13:19:30Z</time></trkpt>
<trkpt lat="46.2018800" lon="7.3528783"><ele></ele><time>2016-5-22T13:19:33Z</time></trkpt>
<trkpt lat="46.2019033" lon="7.3529383"><ele></ele><time>2016-5-22T13:19:36Z</time></trkpt>
<trkpt lat="46.2019133" lon="7.3529983"><ele></ele><time>2016-5-22T13:19:39Z</time></trkpt>
<trkpt lat="46.2019283" lon="7.3530583"><ele></ele><time>2016-5-22T13:19:42Z</time></trkpt>
<trkpt lat="46.2019200" lon="7.3531233"><ele></ele><time>2016-5-22T13:19:45Z</time></trkpt>
<trkpt lat="46.2018983" lon="7.3532117"><ele></ele><time>2016-5-22T13:19:48Z</time></trkpt>
<trkpt lat="46.2018817" lon="7.3532867"><ele></ele><time>2016-5-22T13:19:51Z</time></trkpt>
<trkpt lat="46.2018650" lon="7.3533517"><ele></ele><time>2016-5-22T13:19:54Z</time></trkpt>
<trkpt lat="46.2018717" lon="7.3534167"><ele></ele><time>2016-5-22T13:19:57Z</time></trkpt>
<trkpt lat="46.2019067" lon="7.3534617"><ele></ele><time>2016-5-22T13:20:0Z</time></trkpt>
<trkpt lat="46.2019400" lon="7.3534767"><ele></ele><time>2016-5-22T13:20:3Z</time></trkpt>
<trkpt lat="46.2019400" lon="7.3534767"><ele></ele><time>2016-5-22T13:20:6Z</time></trkpt>
<trkpt lat="46.2019600" lon="7.3534683"><ele></ele><time>2016-5-22T13:20:9Z</time></trkpt>
<trkpt lat="46.2019817" lon="7.3534517"><ele></ele><time>2016-5-22T13:20:12Z</time></trkpt>
<trkpt lat="46.2019783" lon="7.3534450"><ele></ele><time>2016-5-22T13:20:15Z</time></trkpt>
<trkpt lat="46.2020167" lon="7.3534317"><ele></ele><time>2016-5-22T13:20:18Z</time></trkpt>
<trkpt lat="46.2020450" lon="7.3533283"><ele></ele><time>2016-5-22T13:20:21Z</time></trkpt>
<trkpt lat="46.2020767" lon="7.3532783"><ele></ele><time>2016-5-22T13:20:24Z</time></trkpt>
<trkpt lat="46.2020983" lon="7.3532533"><ele></ele><time>2016-5-22T13:20:27Z</time></trkpt>
<trkpt lat="46.2021283" lon="7.3532233"><ele></ele><time>2016-5-22T13:20:30Z</time></trkpt>
<trkpt lat="46.2021333" lon="7.3532917"><ele></ele><time>2016-5-22T13:20:33Z</time></trkpt>
<trkpt lat="46.2021383" lon="7.3533067"><ele></ele><time>2016-5-22T13:20:36Z</time></trkpt>
<trkpt lat="46.2021383" lon="7.3533067"><ele></ele><time>2016-5-22T13:20:39Z</time></trkpt>
<trkpt lat="46.2021383" lon="7.3533067"><ele></ele><time>2016-5-22T13:20:42Z</time></trkpt>
<trkpt lat="46.2021383" lon="7.3533067"><ele></ele><time>2016-5-22T13:20:45Z</time></trkpt>
<trkpt lat="46.2021383" lon="7.3533067"><ele></ele><time>2016-5-22T13:20:48Z</time></trkpt>
<trkpt lat="46.2021383" lon="7.3533067"><ele></ele><time>2016-5-22T13:20:51Z</time></trkpt>
<trkpt lat="46.2021383" lon="7.3533067"><ele></ele><time>2016-5-22T13:20:54Z</time></trkpt>
<trkpt lat="46.2021600" lon="7.3533867"><ele></ele><time>2016-5-22T13:20:57Z</time></trkpt>
<trkpt lat="46.2021600" lon="7.3533867"><ele></ele><time>2016-5-22T13:21:0Z</time></trkpt>
<trkpt lat="46.2021600" lon="7.3533867"><ele></ele><time>2016-5-22T13:21:3Z</time></trkpt>
<trkpt lat="46.2021600" lon="7.3533867"><ele></ele><time>2016-5-22T13:21:6Z</time></trkpt>
<trkpt lat="46.2021600" lon="7.3533867"><ele></ele><time>2016-5-22T13:21:9Z</time></trkpt>
<trkpt lat="46.2021600" lon="7.3533867"><ele></ele><time>2016-5-22T13:21:12Z</time></trkpt>
<trkpt lat="46.2021800" lon="7.3534083"><ele></ele><time>2016-5-22T13:21:15Z</time></trkpt>
<trkpt lat="46.2021900" lon="7.3534333"><ele></ele><time>2016-5-22T13:21:18Z</time></trkpt>
<trkpt lat="46.2022033" lon="7.3534600"><ele></ele><time>2016-5-22T13:21:21Z</time></trkpt>
<trkpt lat="46.2022033" lon="7.3534600"><ele></ele><time>2016-5-22T13:21:24Z</time></trkpt>
<trkpt lat="46.2022367" lon="7.3534667"><ele></ele><time>2016-5-22T13:21:27Z</time></trkpt>
<trkpt lat="46.2022567" lon="7.3534283"><ele></ele><time>2016-5-22T13:21:30Z</time></trkpt>
<trkpt lat="46.2022783" lon="7.3533500"><ele></ele><time>2016-5-22T13:21:33Z</time></trkpt>
<trkpt lat="46.2022783" lon="7.3532833"><ele></ele><time>2016-5-22T13:21:36Z</time></trkpt>
<trkpt lat="46.2022817" lon="7.3533017"><ele></ele><time>2016-5-22T13:21:39Z</time></trkpt>
<trkpt lat="46.2023133" lon="7.3533283"><ele></ele><time>2016-5-22T13:21:42Z</time></trkpt>
<trkpt lat="46.2023333" lon="7.3533700"><ele></ele><time>2016-5-22T13:21:45Z</time></trkpt>
<trkpt lat="46.2023500" lon="7.3534050"><ele></ele><time>2016-5-22T13:21:48Z</time></trkpt>
<trkpt lat="46.2023550" lon="7.3533150"><ele></ele><time>2016-5-22T13:21:51Z</time></trkpt>
<trkpt lat="46.2023667" lon="7.3533083"><ele></ele><time>2016-5-22T13:21:54Z</time></trkpt>
<trkpt lat="46.2023917" lon="7.3532967"><ele></ele><time>2016-5-22T13:21:57Z</time></trkpt>
<trkpt lat="46.2024200" lon="7.3532467"><ele></ele><time>2016-5-22T13:22:0Z</time></trkpt>
<trkpt lat="46.2024383" lon="7.3532267"><ele></ele><time>2016-5-22T13:22:3Z</time></trkpt>
<trkpt lat="46.2024533" lon="7.3532283"><ele></ele><time>2016-5-22T13:22:6Z</time></trkpt>
<trkpt lat="46.2024667" lon="7.3532583"><ele></ele><time>2016-5-22T13:22:9Z</time></trkpt>
<trkpt lat="46.2024700" lon="7.3532600"><ele></ele><time>2016-5-22T13:22:12Z</time></trkpt>
<trkpt lat="46.2024717" lon="7.3532567"><ele></ele><time>2016-5-22T13:22:15Z</time></trkpt>
<trkpt lat="46.2024717" lon="7.3532567"><ele></ele><time>2016-5-22T13:22:18Z</time></trkpt>
<trkpt lat="46.2024700" lon="7.3532500"><ele></ele><time>2016-5-22T13:22:21Z</time></trkpt>
<trkpt lat="46.2024667" lon="7.3532500"><ele></ele><time>2016-5-22T13:22:24Z</time></trkpt>
<trkpt lat="46.2024650" lon="7.3532517"><ele></ele><time>2016-5-22T13:22:27Z</time></trkpt>
<trkpt lat="46.2024650" lon="7.3532517"><ele></ele><time>2016-5-22T13:22:30Z</time></trkpt>
<trkpt lat="46.2024650" lon="7.3532517"><ele></ele><time>2016-5-22T13:22:33Z</time></trkpt>
<trkpt lat="46.2024650" lon="7.3532517"><ele></ele><time>2016-5-22T13:22:36Z</time></trkpt>
<trkpt lat="46.2024650" lon="7.3532517"><ele></ele><time>2016-5-22T13:22:39Z</time></trkpt>
<trkpt lat="46.2024650" lon="7.3532517"><ele></ele><time>2016-5-22T13:22:42Z</time></trkpt>
<trkpt lat="46.2024667" lon="7.3532633"><ele></ele><time>2016-5-22T13:22:45Z</time></trkpt>
<trkpt lat="46.2024717" lon="7.3532633"><ele></ele><time>2016-5-22T13:22:48Z</time></trkpt>
<trkpt lat="46.2024783" lon="7.3532633"><ele></ele><time>2016-5-22T13:22:51Z</time></trkpt>
<trkpt lat="46.2024867" lon="7.3532617"><ele></ele><time>2016-5-22T13:22:54Z</time></trkpt>
<trkpt lat="46.2024917" lon="7.3532583"><ele></ele><time>2016-5-22T13:22:57Z</time></trkpt>
<trkpt lat="46.2024950" lon="7.3532500"><ele></ele><time>2016-5-22T13:23:0Z</time></trkpt>
<trkpt lat="46.2024950" lon="7.3532500"><ele></ele><time>2016-5-22T13:23:3Z</time></trkpt>
<trkpt lat="46.2024967" lon="7.3532367"><ele></ele><time>2016-5-22T13:23:6Z</time></trkpt>
<trkpt lat="46.2025017" lon="7.3532333"><ele></ele><time>2016-5-22T13:23:9Z</time></trkpt>
<trkpt lat="46.2025083" lon="7.3532367"><ele></ele><time>2016-5-22T13:23:12Z</time></trkpt>
<trkpt lat="46.2025167" lon="7.3532400"><ele></ele><time>2016-5-22T13:23:15Z</time></trkpt>
<trkpt lat="46.2025250" lon="7.3532450"><ele></ele><time>2016-5-22T13:23:18Z</time></trkpt>
<trkpt lat="46.2025400" lon="7.3532533"><ele></ele><time>2016-5-22T13:23:21Z</time></trkpt>
<trkpt lat="46.2025633" lon="7.3532583"><ele></ele><time>2016-5-22T13:23:24Z</time></trkpt>
<trkpt lat="46.2025917" lon="7.3532617"><ele></ele><time>2016-5-22T13:23:27Z</time></trkpt>
<trkpt lat="46.2026200" lon="7.3532633"><ele></ele><time>2016-5-22T13:23:30Z</time></trkpt>
<trkpt lat="46.2026383" lon="7.3532683"><ele></ele><time>2016-5-22T13:23:33Z</time></trkpt>
<trkpt lat="46.2026467" lon="7.3532617"><ele></ele><time>2016-5-22T13:23:36Z</time></trkpt>
<trkpt lat="46.2026533" lon="7.3532550"><ele></ele><time>2016-5-22T13:23:39Z</time></trkpt>
<trkpt lat="46.2026533" lon="7.3532450"><ele></ele><time>2016-5-22T13:23:42Z</time></trkpt>
<trkpt lat="46.2026517" lon="7.3532383"><ele></ele><time>2016-5-22T13:23:45Z</time></trkpt>
<trkpt lat="46.2026517" lon="7.3532383"><ele></ele><time>2016-5-22T13:23:48Z</time></trkpt>
<trkpt lat="46.2026517" lon="7.3532383"><ele></ele><time>2016-5-22T13:23:51Z</time></trkpt>
<trkpt lat="46.2026517" lon="7.3532383"><ele></ele><time>2016-5-22T13:23:54Z</time></trkpt>
<trkpt lat="46.2026517" lon="7.3532383"><ele></ele><time>2016-5-22T13:23:57Z</time></trkpt>
<trkpt lat="46.2026517" lon="7.3532383"><ele></ele><time>2016-5-22T13:24:0Z</time></trkpt>
<trkpt lat="46.2026517" lon="7.3532383"><ele></ele><time>2016-5-22T13:24:3Z</time></trkpt>
<trkpt lat="46.2026517" lon="7.3532383"><ele></ele><time>2016-5-22T13:24:6Z</time></trkpt>
<trkpt lat="46.2026517" lon="7.3532383"><ele></ele><time>2016-5-22T13:24:9Z</time></trkpt>
<trkpt lat="46.2026517" lon="7.3532383"><ele></ele><time>2016-5-22T13:24:12Z</time></trkpt>
<trkpt lat="46.2026517" lon="7.3532383"><ele></ele><time>2016-5-22T13:24:15Z</time></trkpt>
<trkpt lat="46.2026517" lon="7.3532383"><ele></ele><time>2016-5-22T13:24:18Z</time></trkpt>
<trkpt lat="46.2026517" lon="7.3532383"><ele></ele><time>2016-5-22T13:24:21Z</time></trkpt>
<trkpt lat="46.2026517" lon="7.3532383"><ele></ele><time>2016-5-22T13:24:24Z</time></trkpt>
<trkpt lat="46.2026517" lon="7.3532383"><ele></ele><time>2016-5-22T13:24:27Z</time></trkpt>
<trkpt lat="46.2026517" lon="7.3532383"><ele></ele><time>2016-5-22T13:24:30Z</time></trkpt>
<trkpt lat="46.2026400" lon="7.3532200"><ele></ele><time>2016-5-22T13:24:33Z</time></trkpt>
<trkpt lat="46.2026333" lon="7.3531883"><ele></ele><time>2016-5-22T13:24:36Z</time></trkpt>
<trkpt lat="46.2026267" lon="7.3531500"><ele></ele><time>2016-5-22T13:24:39Z</time></trkpt>
<trkpt lat="46.2026217" lon="7.3531183"><ele></ele><time>2016-5-22T13:24:42Z</time></trkpt>
<trkpt lat="46.2026200" lon="7.3530933"><ele></ele><time>2016-5-22T13:24:45Z</time></trkpt>
<trkpt lat="46.2026200" lon="7.3530700"><ele></ele><time>2016-5-22T13:24:48Z</time></trkpt>
<trkpt lat="46.2026300" lon="7.3530517"><ele></ele><time>2016-5-22T13:24:51Z</time></trkpt>
<trkpt lat="46.2026517" lon="7.3530450"><ele></ele><time>2016-5-22T13:24:54Z</time></trkpt>
<trkpt lat="46.2026783" lon="7.3530600"><ele></ele><time>2016-5-22T13:24:57Z</time></trkpt>
<trkpt lat="46.2027050" lon="7.3530983"><ele></ele><time>2016-5-22T13:25:0Z</time></trkpt>
<trkpt lat="46.2027350" lon="7.3531483"><ele></ele><time>2016-5-22T13:25:3Z</time></trkpt>
<trkpt lat="46.2027700" lon="7.3532033"><ele></ele><time>2016-5-22T13:25:6Z</time></trkpt>
<trkpt lat="46.2028100" lon="7.3532650"><ele></ele><time>2016-5-22T13:25:9Z</time></trkpt>
<trkpt lat="46.2028550" lon="7.3533333"><ele></ele><time>2016-5-22T13:25:12Z</time></trkpt>
<trkpt lat="46.2029133" lon="7.3533950"><ele></ele><time>2016-5-22T13:25:15Z</time></trkpt>
<trkpt lat="46.2029800" lon="7.3534633"><ele></ele><time>2016-5-22T13:25:18Z</time></trkpt>
<trkpt lat="46.2030350" lon="7.3535300"><ele></ele><time>2016-5-22T13:25:21Z</time></trkpt>
<trkpt lat="46.2030933" lon="7.3536000"><ele></ele><time>2016-5-22T13:25:24Z</time></trkpt>
<trkpt lat="46.2031483" lon="7.3536633"><ele></ele><time>2016-5-22T13:25:27Z</time></trkpt>
<trkpt lat="46.2031983" lon="7.3537283"><ele></ele><time>2016-5-22T13:25:30Z</time></trkpt>
<trkpt lat="46.2032450" lon="7.3537667"><ele></ele><time>2016-5-22T13:25:33Z</time></trkpt>
<trkpt lat="46.2032533" lon="7.3537683"><ele></ele><time>2016-5-22T13:25:36Z</time></trkpt>
<trkpt lat="46.2032967" lon="7.3537667"><ele></ele><time>2016-5-22T13:25:39Z</time></trkpt>
<trkpt lat="46.2032967" lon="7.3537667"><ele></ele><time>2016-5-22T13:25:42Z</time></trkpt>
<trkpt lat="46.2032950" lon="7.3537467"><ele></ele><time>2016-5-22T13:25:45Z</time></trkpt>
<trkpt lat="46.2032933" lon="7.3537233"><ele></ele><time>2016-5-22T13:25:48Z</time></trkpt>
<trkpt lat="46.2032917" lon="7.3537000"><ele></ele><time>2016-5-22T13:25:51Z</time></trkpt>
<trkpt lat="46.2032900" lon="7.3536750"><ele></ele><time>2016-5-22T13:25:54Z</time></trkpt>
<trkpt lat="46.2032867" lon="7.3536650"><ele></ele><time>2016-5-22T13:25:57Z</time></trkpt>
<trkpt lat="46.2032867" lon="7.3536483"><ele></ele><time>2016-5-22T13:26:0Z</time></trkpt>
<trkpt lat="46.2032850" lon="7.3536417"><ele></ele><time>2016-5-22T13:26:3Z</time></trkpt>
<trkpt lat="46.2032833" lon="7.3536167"><ele></ele><time>2016-5-22T13:26:6Z</time></trkpt>
<trkpt lat="46.2032817" lon="7.3535900"><ele></ele><time>2016-5-22T13:26:9Z</time></trkpt>
<trkpt lat="46.2032800" lon="7.3535650"><ele></ele><time>2016-5-22T13:26:12Z</time></trkpt>
<trkpt lat="46.2030967" lon="7.3535817"><ele></ele><time>2016-5-22T13:26:15Z</time></trkpt>
<trkpt lat="46.2033050" lon="7.3534933"><ele></ele><time>2016-5-22T13:26:18Z</time></trkpt>
<trkpt lat="46.2032883" lon="7.3534733"><ele></ele><time>2016-5-22T13:26:21Z</time></trkpt>
<trkpt lat="46.2032617" lon="7.3534467"><ele></ele><time>2016-5-22T13:26:24Z</time></trkpt>
<trkpt lat="46.2032300" lon="7.3534117"><ele></ele><time>2016-5-22T13:26:27Z</time></trkpt>
<trkpt lat="46.2031200" lon="7.3534667"><ele></ele><time>2016-5-22T13:26:30Z</time></trkpt>
<trkpt lat="46.2030883" lon="7.3533950"><ele></ele><time>2016-5-22T13:26:33Z</time></trkpt>
<trkpt lat="46.2031167" lon="7.3532450"><ele></ele><time>2016-5-22T13:26:36Z</time></trkpt>
<trkpt lat="46.2030833" lon="7.3531633"><ele></ele><time>2016-5-22T13:26:39Z</time></trkpt>
<trkpt lat="46.2030417" lon="7.3530800"><ele></ele><time>2016-5-22T13:26:42Z</time></trkpt>
<trkpt lat="46.2030083" lon="7.3529800"><ele></ele><time>2016-5-22T13:26:45Z</time></trkpt>
<trkpt lat="46.2029917" lon="7.3528717"><ele></ele><time>2016-5-22T13:26:48Z</time></trkpt>
<trkpt lat="46.2029733" lon="7.3527550"><ele></ele><time>2016-5-22T13:26:51Z</time></trkpt>
<trkpt lat="46.2029483" lon="7.3526633"><ele></ele><time>2016-5-22T13:26:54Z</time></trkpt>
<trkpt lat="46.2029317" lon="7.3525650"><ele></ele><time>2016-5-22T13:26:57Z</time></trkpt>
<trkpt lat="46.2029017" lon="7.3524850"><ele></ele><time>2016-5-22T13:27:0Z</time></trkpt>
<trkpt lat="46.2028683" lon="7.3524300"><ele></ele><time>2016-5-22T13:27:3Z</time></trkpt>
<trkpt lat="46.2028567" lon="7.3523833"><ele></ele><time>2016-5-22T13:27:6Z</time></trkpt>
<trkpt lat="46.2028650" lon="7.3523517"><ele></ele><time>2016-5-22T13:27:9Z</time></trkpt>
<trkpt lat="46.2028867" lon="7.3523467"><ele></ele><time>2016-5-22T13:27:12Z</time></trkpt>
<trkpt lat="46.2029100" lon="7.3523567"><ele></ele><time>2016-5-22T13:27:15Z</time></trkpt>
<trkpt lat="46.2029383" lon="7.3523850"><ele></ele><time>2016-5-22T13:27:18Z</time></trkpt>
<trkpt lat="46.2029517" lon="7.3524150"><ele></ele><time>2016-5-22T13:27:21Z</time></trkpt>
<trkpt lat="46.2029833" lon="7.3524733"><ele></ele><time>2016-5-22T13:27:24Z</time></trkpt>
<trkpt lat="46.2030133" lon="7.3525300"><ele></ele><time>2016-5-22T13:27:27Z</time></trkpt>
<trkpt lat="46.2030250" lon="7.3525817"><ele></ele><time>2016-5-22T13:27:30Z</time></trkpt>
<trkpt lat="46.2030417" lon="7.3526417"><ele></ele><time>2016-5-22T13:27:33Z</time></trkpt>
<trkpt lat="46.2030550" lon="7.3526967"><ele></ele><time>2016-5-22T13:27:36Z</time></trkpt>
<trkpt lat="46.2030783" lon="7.3527200"><ele></ele><time>2016-5-22T13:27:39Z</time></trkpt>
<trkpt lat="46.2031017" lon="7.3527350"><ele></ele><time>2016-5-22T13:27:42Z</time></trkpt>
<trkpt lat="46.2031300" lon="7.3527483"><ele></ele><time>2016-5-22T13:27:45Z</time></trkpt>
<trkpt lat="46.2031667" lon="7.3527983"><ele></ele><time>2016-5-22T13:27:48Z</time></trkpt>
<trkpt lat="46.2031683" lon="7.3528517"><ele></ele><time>2016-5-22T13:27:51Z</time></trkpt>
<trkpt lat="46.2031883" lon="7.3529300"><ele></ele><time>2016-5-22T13:27:54Z</time></trkpt>
<trkpt lat="46.2032033" lon="7.3530050"><ele></ele><time>2016-5-22T13:27:57Z</time></trkpt>
<trkpt lat="46.2032167" lon="7.3530750"><ele></ele><time>2016-5-22T13:28:0Z</time></trkpt>
<trkpt lat="46.2032433" lon="7.3531517"><ele></ele><time>2016-5-22T13:28:3Z</time></trkpt>
<trkpt lat="46.2032283" lon="7.3531600"><ele></ele><time>2016-5-22T13:28:6Z</time></trkpt>
<trkpt lat="46.2032550" lon="7.3532350"><ele></ele><time>2016-5-22T13:28:9Z</time></trkpt>
<trkpt lat="46.2032800" lon="7.3532767"><ele></ele><time>2016-5-22T13:28:12Z</time></trkpt>
<trkpt lat="46.2033050" lon="7.3532733"><ele></ele><time>2016-5-22T13:28:15Z</time></trkpt>
<trkpt lat="46.2032467" lon="7.3534467"><ele></ele><time>2016-5-22T13:28:18Z</time></trkpt>
<trkpt lat="46.2032617" lon="7.3534300"><ele></ele><time>2016-5-22T13:28:21Z</time></trkpt>
<trkpt lat="46.2033267" lon="7.3534017"><ele></ele><time>2016-5-22T13:28:24Z</time></trkpt>
<trkpt lat="46.2034033" lon="7.3533517"><ele></ele><time>2016-5-22T13:28:27Z</time></trkpt>
<trkpt lat="46.2033850" lon="7.3532983"><ele></ele><time>2016-5-22T13:28:30Z</time></trkpt>
<trkpt lat="46.2034250" lon="7.3532900"><ele></ele><time>2016-5-22T13:28:33Z</time></trkpt>
<trkpt lat="46.2034550" lon="7.3533267"><ele></ele><time>2016-5-22T13:28:36Z</time></trkpt>
<trkpt lat="46.2038067" lon="7.3532417"><ele></ele><time>2016-5-22T13:28:39Z</time></trkpt>
<trkpt lat="46.2038467" lon="7.3532300"><ele></ele><time>2016-5-22T13:28:42Z</time></trkpt>
<trkpt lat="46.2038833" lon="7.3532167"><ele></ele><time>2016-5-22T13:28:45Z</time></trkpt>
<trkpt lat="46.2039167" lon="7.3532150"><ele></ele><time>2016-5-22T13:28:48Z</time></trkpt>
<trkpt lat="46.2039450" lon="7.3532150"><ele></ele><time>2016-5-22T13:28:51Z</time></trkpt>
<trkpt lat="46.2039650" lon="7.3532233"><ele></ele><time>2016-5-22T13:28:54Z</time></trkpt>
<trkpt lat="46.2039783" lon="7.3532317"><ele></ele><time>2016-5-22T13:28:57Z</time></trkpt>
<trkpt lat="46.2039783" lon="7.3532317"><ele></ele><time>2016-5-22T13:29:0Z</time></trkpt>
<trkpt lat="46.2039783" lon="7.3532317"><ele></ele><time>2016-5-22T13:29:3Z</time></trkpt>
<trkpt lat="46.2039783" lon="7.3532317"><ele></ele><time>2016-5-22T13:29:6Z</time></trkpt>
<trkpt lat="46.2039783" lon="7.3532317"><ele></ele><time>2016-5-22T13:29:9Z</time></trkpt>
<trkpt lat="46.2039783" lon="7.3532317"><ele></ele><time>2016-5-22T13:29:12Z</time></trkpt>
<trkpt lat="46.2039783" lon="7.3532317"><ele></ele><time>2016-5-22T13:29:15Z</time></trkpt>
<trkpt lat="46.2039667" lon="7.3532683"><ele></ele><time>2016-5-22T13:29:18Z</time></trkpt>
<trkpt lat="46.2039767" lon="7.3532750"><ele></ele><time>2016-5-22T13:29:21Z</time></trkpt>
<trkpt lat="46.2039933" lon="7.3532867"><ele></ele><time>2016-5-22T13:29:24Z</time></trkpt>
<trkpt lat="46.2040200" lon="7.3532983"><ele></ele><time>2016-5-22T13:29:27Z</time></trkpt>
<trkpt lat="46.2040450" lon="7.3533117"><ele></ele><time>2016-5-22T13:29:30Z</time></trkpt>
<trkpt lat="46.2040767" lon="7.3533300"><ele></ele><time>2016-5-22T13:29:33Z</time></trkpt>
<trkpt lat="46.2041150" lon="7.3533550"><ele></ele><time>2016-5-22T13:29:36Z</time></trkpt>
<trkpt lat="46.2041517" lon="7.3533817"><ele></ele><time>2016-5-22T13:29:39Z</time></trkpt>
<trkpt lat="46.2041867" lon="7.3534133"><ele></ele><time>2016-5-22T13:29:42Z</time></trkpt>
<trkpt lat="46.2042250" lon="7.3534333"><ele></ele><time>2016-5-22T13:29:45Z</time></trkpt>
<trkpt lat="46.2042667" lon="7.3534367"><ele></ele><time>2016-5-22T13:29:48Z</time></trkpt>
<trkpt lat="46.2043083" lon="7.3534250"><ele></ele><time>2016-5-22T13:29:51Z</time></trkpt>
<trkpt lat="46.2043400" lon="7.3534033"><ele></ele><time>2016-5-22T13:29:54Z</time></trkpt>
<trkpt lat="46.2043600" lon="7.3533650"><ele></ele><time>2016-5-22T13:29:57Z</time></trkpt>
<trkpt lat="46.2043717" lon="7.3533183"><ele></ele><time>2016-5-22T13:30:0Z</time></trkpt>
<trkpt lat="46.2043733" lon="7.3532767"><ele></ele><time>2016-5-22T13:30:3Z</time></trkpt>
<trkpt lat="46.2043717" lon="7.3532483"><ele></ele><time>2016-5-22T13:30:6Z</time></trkpt>
<trkpt lat="46.2043683" lon="7.3532350"><ele></ele><time>2016-5-22T13:30:9Z</time></trkpt>
<trkpt lat="46.2043650" lon="7.3532333"><ele></ele><time>2016-5-22T13:30:12Z</time></trkpt>
<trkpt lat="46.2043600" lon="7.3532367"><ele></ele><time>2016-5-22T13:30:15Z</time></trkpt>
<trkpt lat="46.2043600" lon="7.3532367"><ele></ele><time>2016-5-22T13:30:18Z</time></trkpt>
<trkpt lat="46.2043600" lon="7.3532367"><ele></ele><time>2016-5-22T13:30:21Z</time></trkpt>
<trkpt lat="46.2043600" lon="7.3532367"><ele></ele><time>2016-5-22T13:30:24Z</time></trkpt>
<trkpt lat="46.2043600" lon="7.3532367"><ele></ele><time>2016-5-22T13:30:27Z</time></trkpt>
<trkpt lat="46.2043600" lon="7.3532367"><ele></ele><time>2016-5-22T13:30:30Z</time></trkpt>
<trkpt lat="46.2043600" lon="7.3532367"><ele></ele><time>2016-5-22T13:30:33Z</time></trkpt>
<trkpt lat="46.2043600" lon="7.3532367"><ele></ele><time>2016-5-22T13:30:36Z</time></trkpt>
<trkpt lat="46.2043600" lon="7.3532367"><ele></ele><time>2016-5-22T13:30:39Z</time></trkpt>
<trkpt lat="46.2043600" lon="7.3532367"><ele></ele><time>2016-5-22T13:30:42Z</time></trkpt>
<trkpt lat="46.2043600" lon="7.3532367"><ele></ele><time>2016-5-22T13:30:45Z</time></trkpt>
<trkpt lat="46.2043600" lon="7.3532367"><ele></ele><time>2016-5-22T13:30:48Z</time></trkpt>
<trkpt lat="46.2043600" lon="7.3532367"><ele></ele><time>2016-5-22T13:30:51Z</time></trkpt>
<trkpt lat="46.2043600" lon="7.3532367"><ele></ele><time>2016-5-22T13:30:54Z</time></trkpt>
<trkpt lat="46.2043600" lon="7.3532367"><ele></ele><time>2016-5-22T13:30:57Z</time></trkpt>
<trkpt lat="46.2043600" lon="7.3532367"><ele></ele><time>2016-5-22T13:31:0Z</time></trkpt>
<trkpt lat="46.2043600" lon="7.3532367"><ele></ele><time>2016-5-22T13:31:3Z</time></trkpt>
<trkpt lat="46.2043600" lon="7.3532367"><ele></ele><time>2016-5-22T13:31:6Z</time></trkpt>
<trkpt lat="46.2043600" lon="7.3532367"><ele></ele><time>2016-5-22T13:31:9Z</time></trkpt>
<trkpt lat="46.2043600" lon="7.3532367"><ele></ele><time>2016-5-22T13:31:12Z</time></trkpt>
<trkpt lat="46.2043600" lon="7.3532367"><ele></ele><time>2016-5-22T13:31:15Z</time></trkpt>
<trkpt lat="46.2043433" lon="7.3532600"><ele></ele><time>2016-5-22T13:31:18Z</time></trkpt>
<trkpt lat="46.2043433" lon="7.3532600"><ele></ele><time>2016-5-22T13:31:21Z</time></trkpt>
<trkpt lat="46.2043433" lon="7.3532600"><ele></ele><time>2016-5-22T13:31:24Z</time></trkpt>
<trkpt lat="46.2043500" lon="7.3532550"><ele></ele><time>2016-5-22T13:31:27Z</time></trkpt>
<trkpt lat="46.2043667" lon="7.3532583"><ele></ele><time>2016-5-22T13:31:30Z</time></trkpt>
<trkpt lat="46.2043917" lon="7.3532667"><ele></ele><time>2016-5-22T13:31:33Z</time></trkpt>
<trkpt lat="46.2044333" lon="7.3532917"><ele></ele><time>2016-5-22T13:31:36Z</time></trkpt>
<trkpt lat="46.2044817" lon="7.3533317"><ele></ele><time>2016-5-22T13:31:39Z</time></trkpt>
<trkpt lat="46.2045233" lon="7.3533750"><ele></ele><time>2016-5-22T13:31:42Z</time></trkpt>
<trkpt lat="46.2045650" lon="7.3534217"><ele></ele><time>2016-5-22T13:31:45Z</time></trkpt>
<trkpt lat="46.2046167" lon="7.3534717"><ele></ele><time>2016-5-22T13:31:48Z</time></trkpt>
<trkpt lat="46.2046750" lon="7.3535267"><ele></ele><time>2016-5-22T13:31:51Z</time></trkpt>
<trkpt lat="46.2046983" lon="7.3535450"><ele></ele><time>2016-5-22T13:31:54Z</time></trkpt>
<trkpt lat="46.2047033" lon="7.3535483"><ele></ele><time>2016-5-22T13:31:57Z</time></trkpt>
<trkpt lat="46.2047083" lon="7.3535483"><ele></ele><time>2016-5-22T13:32:0Z</time></trkpt>
<trkpt lat="46.2047083" lon="7.3535483"><ele></ele><time>2016-5-22T13:32:3Z</time></trkpt>
<trkpt lat="46.2047083" lon="7.3535483"><ele></ele><time>2016-5-22T13:32:6Z</time></trkpt>
<trkpt lat="46.2047083" lon="7.3535483"><ele></ele><time>2016-5-22T13:32:9Z</time></trkpt>
<trkpt lat="46.2047083" lon="7.3535483"><ele></ele><time>2016-5-22T13:32:12Z</time></trkpt>
<trkpt lat="46.2047083" lon="7.3535483"><ele></ele><time>2016-5-22T13:32:15Z</time></trkpt>
<trkpt lat="46.2047083" lon="7.3535483"><ele></ele><time>2016-5-22T13:32:18Z</time></trkpt>
<trkpt lat="46.2047083" lon="7.3535483"><ele></ele><time>2016-5-22T13:32:21Z</time></trkpt>
<trkpt lat="46.2047083" lon="7.3535483"><ele></ele><time>2016-5-22T13:32:24Z</time></trkpt>
<trkpt lat="46.2047083" lon="7.3535483"><ele></ele><time>2016-5-22T13:32:27Z</time></trkpt>
<trkpt lat="46.2047083" lon="7.3535483"><ele></ele><time>2016-5-22T13:32:30Z</time></trkpt>
<trkpt lat="46.2047083" lon="7.3535483"><ele></ele><time>2016-5-22T13:32:33Z</time></trkpt>
<trkpt lat="46.2047083" lon="7.3535483"><ele></ele><time>2016-5-22T13:32:36Z</time></trkpt>
<trkpt lat="46.2047083" lon="7.3535483"><ele></ele><time>2016-5-22T13:32:39Z</time></trkpt>
<trkpt lat="46.2047083" lon="7.3535483"><ele></ele><time>2016-5-22T13:32:42Z</time></trkpt>
<trkpt lat="46.2047133" lon="7.3535450"><ele></ele><time>2016-5-22T13:32:45Z</time></trkpt>
<trkpt lat="46.2047150" lon="7.3535400"><ele></ele><time>2016-5-22T13:32:48Z</time></trkpt>
<trkpt lat="46.2047150" lon="7.3535400"><ele></ele><time>2016-5-22T13:32:51Z</time></trkpt>
<trkpt lat="46.2047217" lon="7.3535350"><ele></ele><time>2016-5-22T13:32:54Z</time></trkpt>
<trkpt lat="46.2047250" lon="7.3535217"><ele></ele><time>2016-5-22T13:32:57Z</time></trkpt>
<trkpt lat="46.2047367" lon="7.3535050"><ele></ele><time>2016-5-22T13:33:0Z</time></trkpt>
<trkpt lat="46.2047567" lon="7.3534700"><ele></ele><time>2016-5-22T13:33:3Z</time></trkpt>
<trkpt lat="46.2047467" lon="7.3534433"><ele></ele><time>2016-5-22T13:33:6Z</time></trkpt>
<trkpt lat="46.2047333" lon="7.3534117"><ele></ele><time>2016-5-22T13:33:9Z</time></trkpt>
<trkpt lat="46.2047167" lon="7.3533717"><ele></ele><time>2016-5-22T13:33:12Z</time></trkpt>
<trkpt lat="46.2047150" lon="7.3533250"><ele></ele><time>2016-5-22T13:33:15Z</time></trkpt>
<trkpt lat="46.2047350" lon="7.3532917"><ele></ele><time>2016-5-22T13:33:18Z</time></trkpt>
<trkpt lat="46.2047750" lon="7.3532900"><ele></ele><time>2016-5-22T13:33:21Z</time></trkpt>
<trkpt lat="46.2048533" lon="7.3534083"><ele></ele><time>2016-5-22T13:33:24Z</time></trkpt>
<trkpt lat="46.2048833" lon="7.3534950"><ele></ele><time>2016-5-22T13:33:27Z</time></trkpt>
<trkpt lat="46.2048967" lon="7.3535417"><ele></ele><time>2016-5-22T13:33:30Z</time></trkpt>
<trkpt lat="46.2049267" lon="7.3535867"><ele></ele><time>2016-5-22T13:33:33Z</time></trkpt>
<trkpt lat="46.2049500" lon="7.3536550"><ele></ele><time>2016-5-22T13:33:36Z</time></trkpt>
<trkpt lat="46.2049800" lon="7.3537117"><ele></ele><time>2016-5-22T13:33:39Z</time></trkpt>
<trkpt lat="46.2050050" lon="7.3537683"><ele></ele><time>2016-5-22T13:33:42Z</time></trkpt>
<trkpt lat="46.2050233" lon="7.3538033"><ele></ele><time>2016-5-22T13:33:45Z</time></trkpt>
<trkpt lat="46.2050467" lon="7.3538467"><ele></ele><time>2016-5-22T13:33:48Z</time></trkpt>
<trkpt lat="46.2050717" lon="7.3539083"><ele></ele><time>2016-5-22T13:33:51Z</time></trkpt>
<trkpt lat="46.2050733" lon="7.3539833"><ele></ele><time>2016-5-22T13:33:54Z</time></trkpt>
<trkpt lat="46.2050700" lon="7.3540483"><ele></ele><time>2016-5-22T13:33:57Z</time></trkpt>
<trkpt lat="46.2050683" lon="7.3541050"><ele></ele><time>2016-5-22T13:34:0Z</time></trkpt>
<trkpt lat="46.2050600" lon="7.3541667"><ele></ele><time>2016-5-22T13:34:3Z</time></trkpt>
<trkpt lat="46.2050567" lon="7.3542233"><ele></ele><time>2016-5-22T13:34:6Z</time></trkpt>
<trkpt lat="46.2050567" lon="7.3542950"><ele></ele><time>2016-5-22T13:34:9Z</time></trkpt>
<trkpt lat="46.2050667" lon="7.3543550"><ele></ele><time>2016-5-22T13:34:12Z</time></trkpt>
<trkpt lat="46.2050500" lon="7.3544050"><ele></ele><time>2016-5-22T13:34:15Z</time></trkpt>
<trkpt lat="46.2050517" lon="7.3544500"><ele></ele><time>2016-5-22T13:34:18Z</time></trkpt>
<trkpt lat="46.2050567" lon="7.3545033"><ele></ele><time>2016-5-22T13:34:21Z</time></trkpt>
<trkpt lat="46.2050683" lon="7.3545633"><ele></ele><time>2016-5-22T13:34:24Z</time></trkpt>
<trkpt lat="46.2050750" lon="7.3546467"><ele></ele><time>2016-5-22T13:34:27Z</time></trkpt>
<trkpt lat="46.2050867" lon="7.3547183"><ele></ele><time>2016-5-22T13:34:30Z</time></trkpt>
<trkpt lat="46.2050983" lon="7.3547917"><ele></ele><time>2016-5-22T13:34:33Z</time></trkpt>
<trkpt lat="46.2051317" lon="7.3548567"><ele></ele><time>2016-5-22T13:34:36Z</time></trkpt>
<trkpt lat="46.2051600" lon="7.3549083"><ele></ele><time>2016-5-22T13:34:39Z</time></trkpt>
<trkpt lat="46.2051717" lon="7.3549200"><ele></ele><time>2016-5-22T13:34:42Z</time></trkpt>
<trkpt lat="46.2052067" lon="7.3548950"><ele></ele><time>2016-5-22T13:34:45Z</time></trkpt>
<trkpt lat="46.2052150" lon="7.3548717"><ele></ele><time>2016-5-22T13:34:48Z</time></trkpt>
<trkpt lat="46.2052083" lon="7.3548450"><ele></ele><time>2016-5-22T13:34:51Z</time></trkpt>
<trkpt lat="46.2052183" lon="7.3548267"><ele></ele><time>2016-5-22T13:34:54Z</time></trkpt>
<trkpt lat="46.2051950" lon="7.3548283"><ele></ele><time>2016-5-22T13:34:57Z</time></trkpt>
<trkpt lat="46.2051950" lon="7.3548283"><ele></ele><time>2016-5-22T13:35:0Z</time></trkpt>
<trkpt lat="46.2051867" lon="7.3548267"><ele></ele><time>2016-5-22T13:35:3Z</time></trkpt>
<trkpt lat="46.2051867" lon="7.3548267"><ele></ele><time>2016-5-22T13:35:6Z</time></trkpt>
<trkpt lat="46.2051867" lon="7.3548267"><ele></ele><time>2016-5-22T13:35:9Z</time></trkpt>
<trkpt lat="46.2051867" lon="7.3548267"><ele></ele><time>2016-5-22T13:35:12Z</time></trkpt>
<trkpt lat="46.2051867" lon="7.3548267"><ele></ele><time>2016-5-22T13:35:15Z</time></trkpt>
<trkpt lat="46.2051867" lon="7.3548267"><ele></ele><time>2016-5-22T13:35:18Z</time></trkpt>
<trkpt lat="46.2051867" lon="7.3548267"><ele></ele><time>2016-5-22T13:35:21Z</time></trkpt>
<trkpt lat="46.2051867" lon="7.3548267"><ele></ele><time>2016-5-22T13:35:24Z</time></trkpt>
<trkpt lat="46.2051867" lon="7.3548267"><ele></ele><time>2016-5-22T13:35:27Z</time></trkpt>
<trkpt lat="46.2051867" lon="7.3548267"><ele></ele><time>2016-5-22T13:35:30Z</time></trkpt>
<trkpt lat="46.2051867" lon="7.3548267"><ele></ele><time>2016-5-22T13:35:33Z</time></trkpt>
<trkpt lat="46.2051867" lon="7.3548267"><ele></ele><time>2016-5-22T13:35:36Z</time></trkpt>
<trkpt lat="46.2051867" lon="7.3548267"><ele></ele><time>2016-5-22T13:35:39Z</time></trkpt>
<trkpt lat="46.2051867" lon="7.3548267"><ele></ele><time>2016-5-22T13:35:42Z</time></trkpt>
<trkpt lat="46.2051867" lon="7.3548267"><ele></ele><time>2016-5-22T13:35:45Z</time></trkpt>
<trkpt lat="46.2051867" lon="7.3548267"><ele></ele><time>2016-5-22T13:35:48Z</time></trkpt>
<trkpt lat="46.2051867" lon="7.3548267"><ele></ele><time>2016-5-22T13:35:51Z</time></trkpt>
<trkpt lat="46.2051867" lon="7.3548267"><ele></ele><time>2016-5-22T13:35:54Z</time></trkpt>
<trkpt lat="46.2051867" lon="7.3548267"><ele></ele><time>2016-5-22T13:35:57Z</time></trkpt>
<trkpt lat="46.2051867" lon="7.3548267"><ele></ele><time>2016-5-22T13:36:0Z</time></trkpt>
<trkpt lat="46.2051867" lon="7.3548267"><ele></ele><time>2016-5-22T13:36:3Z</time></trkpt>
<trkpt lat="46.2051867" lon="7.3548267"><ele></ele><time>2016-5-22T13:36:6Z</time></trkpt>
<trkpt lat="46.2051867" lon="7.3548267"><ele></ele><time>2016-5-22T13:36:9Z</time></trkpt>
<trkpt lat="46.2051867" lon="7.3548267"><ele></ele><time>2016-5-22T13:36:12Z</time></trkpt>
<trkpt lat="46.2051867" lon="7.3548267"><ele></ele><time>2016-5-22T13:36:15Z</time></trkpt>
<trkpt lat="46.2051867" lon="7.3548267"><ele></ele><time>2016-5-22T13:36:18Z</time></trkpt>
<trkpt lat="46.2051867" lon="7.3548267"><ele></ele><time>2016-5-22T13:36:21Z</time></trkpt>
<trkpt lat="46.2051867" lon="7.3548267"><ele></ele><time>2016-5-22T13:36:24Z</time></trkpt>
<trkpt lat="46.2051867" lon="7.3548267"><ele></ele><time>2016-5-22T13:36:27Z</time></trkpt>
<trkpt lat="46.2051867" lon="7.3548267"><ele></ele><time>2016-5-22T13:36:30Z</time></trkpt>
<trkpt lat="46.2051867" lon="7.3548267"><ele></ele><time>2016-5-22T13:36:33Z</time></trkpt>
<trkpt lat="46.2051867" lon="7.3548267"><ele></ele><time>2016-5-22T13:36:36Z</time></trkpt>
<trkpt lat="46.2051867" lon="7.3548267"><ele></ele><time>2016-5-22T13:36:39Z</time></trkpt>
<trkpt lat="46.2051867" lon="7.3548267"><ele></ele><time>2016-5-22T13:36:42Z</time></trkpt>
<trkpt lat="46.2051867" lon="7.3548267"><ele></ele><time>2016-5-22T13:36:45Z</time></trkpt>
<trkpt lat="46.2051867" lon="7.3548267"><ele></ele><time>2016-5-22T13:36:48Z</time></trkpt>
<trkpt lat="46.2051867" lon="7.3548267"><ele></ele><time>2016-5-22T13:36:51Z</time></trkpt>
<trkpt lat="46.2051817" lon="7.3547967"><ele></ele><time>2016-5-22T13:36:54Z</time></trkpt>
<trkpt lat="46.2051833" lon="7.3547717"><ele></ele><time>2016-5-22T13:36:57Z</time></trkpt>
<trkpt lat="46.2051867" lon="7.3547450"><ele></ele><time>2016-5-22T13:37:0Z</time></trkpt>
<trkpt lat="46.2051883" lon="7.3547150"><ele></ele><time>2016-5-22T13:37:3Z</time></trkpt>
<trkpt lat="46.2051900" lon="7.3546850"><ele></ele><time>2016-5-22T13:37:6Z</time></trkpt>
<trkpt lat="46.2051867" lon="7.3546533"><ele></ele><time>2016-5-22T13:37:9Z</time></trkpt>
<trkpt lat="46.2051883" lon="7.3546183"><ele></ele><time>2016-5-22T13:37:12Z</time></trkpt>
<trkpt lat="46.2051900" lon="7.3545800"><ele></ele><time>2016-5-22T13:37:15Z</time></trkpt>
<trkpt lat="46.2051917" lon="7.3545400"><ele></ele><time>2016-5-22T13:37:18Z</time></trkpt>
<trkpt lat="46.2051917" lon="7.3544967"><ele></ele><time>2016-5-22T13:37:21Z</time></trkpt>
<trkpt lat="46.2051900" lon="7.3544500"><ele></ele><time>2016-5-22T13:37:24Z</time></trkpt>
<trkpt lat="46.2051933" lon="7.3544033"><ele></ele><time>2016-5-22T13:37:27Z</time></trkpt>
<trkpt lat="46.2052000" lon="7.3543583"><ele></ele><time>2016-5-22T13:37:30Z</time></trkpt>
<trkpt lat="46.2052067" lon="7.3543117"><ele></ele><time>2016-5-22T13:37:33Z</time></trkpt>
<trkpt lat="46.2052150" lon="7.3542617"><ele></ele><time>2016-5-22T13:37:36Z</time></trkpt>
<trkpt lat="46.2052233" lon="7.3542083"><ele></ele><time>2016-5-22T13:37:39Z</time></trkpt>
<trkpt lat="46.2052283" lon="7.3541533"><ele></ele><time>2016-5-22T13:37:42Z</time></trkpt>
<trkpt lat="46.2052333" lon="7.3540983"><ele></ele><time>2016-5-22T13:37:45Z</time></trkpt>
<trkpt lat="46.2052367" lon="7.3540467"><ele></ele><time>2016-5-22T13:37:48Z</time></trkpt>
<trkpt lat="46.2052333" lon="7.3540000"><ele></ele><time>2016-5-22T13:37:51Z</time></trkpt>
<trkpt lat="46.2052333" lon="7.3539533"><ele></ele><time>2016-5-22T13:37:54Z</time></trkpt>
<trkpt lat="46.2052350" lon="7.3539150"><ele></ele><time>2016-5-22T13:37:57Z</time></trkpt>
<trkpt lat="46.2052400" lon="7.3538850"><ele></ele><time>2016-5-22T13:38:0Z</time></trkpt>
<trkpt lat="46.2052433" lon="7.3538583"><ele></ele><time>2016-5-22T13:38:3Z</time></trkpt>
<trkpt lat="46.2052467" lon="7.3538317"><ele></ele><time>2016-5-22T13:38:6Z</time></trkpt>
<trkpt lat="46.2052483" lon="7.3538050"><ele></ele><time>2016-5-22T13:38:9Z</time></trkpt>
<trkpt lat="46.2052467" lon="7.3537833"><ele></ele><time>2016-5-22T13:38:12Z</time></trkpt>
<trkpt lat="46.2052467" lon="7.3537700"><ele></ele><time>2016-5-22T13:38:15Z</time></trkpt>
<trkpt lat="46.2052450" lon="7.3537667"><ele></ele><time>2016-5-22T13:38:18Z</time></trkpt>
<trkpt lat="46.2052450" lon="7.3537667"><ele></ele><time>2016-5-22T13:38:21Z</time></trkpt>
<trkpt lat="46.2052450" lon="7.3537667"><ele></ele><time>2016-5-22T13:38:24Z</time></trkpt>
<trkpt lat="46.2052450" lon="7.3537667"><ele></ele><time>2016-5-22T13:38:27Z</time></trkpt>
<trkpt lat="46.2052450" lon="7.3537667"><ele></ele><time>2016-5-22T13:38:30Z</time></trkpt>
<trkpt lat="46.2052450" lon="7.3537667"><ele></ele><time>2016-5-22T13:38:33Z</time></trkpt>
<trkpt lat="46.2052450" lon="7.3537667"><ele></ele><time>2016-5-22T13:38:36Z</time></trkpt>
<trkpt lat="46.2052450" lon="7.3537667"><ele></ele><time>2016-5-22T13:38:39Z</time></trkpt>
<trkpt lat="46.2052450" lon="7.3537667"><ele></ele><time>2016-5-22T13:38:42Z</time></trkpt>
<trkpt lat="46.2052450" lon="7.3537667"><ele></ele><time>2016-5-22T13:38:45Z</time></trkpt>
<trkpt lat="46.2052450" lon="7.3537667"><ele></ele><time>2016-5-22T13:38:48Z</time></trkpt>
<trkpt lat="46.2052350" lon="7.3537717"><ele></ele><time>2016-5-22T13:38:51Z</time></trkpt>
<trkpt lat="46.2052350" lon="7.3537717"><ele></ele><time>2016-5-22T13:38:54Z</time></trkpt>
<trkpt lat="46.2052350" lon="7.3537633"><ele></ele><time>2016-5-22T13:38:57Z</time></trkpt>
<trkpt lat="46.2052350" lon="7.3537633"><ele></ele><time>2016-5-22T13:39:0Z</time></trkpt>
<trkpt lat="46.2052350" lon="7.3537633"><ele></ele><time>2016-5-22T13:39:3Z</time></trkpt>
<trkpt lat="46.2052350" lon="7.3537633"><ele></ele><time>2016-5-22T13:39:6Z</time></trkpt>
<trkpt lat="46.2052350" lon="7.3537633"><ele></ele><time>2016-5-22T13:39:9Z</time></trkpt>
<trkpt lat="46.2052350" lon="7.3537633"><ele></ele><time>2016-5-22T13:39:12Z</time></trkpt>
<trkpt lat="46.2052283" lon="7.3537650"><ele></ele><time>2016-5-22T13:39:15Z</time></trkpt>
<trkpt lat="46.2052283" lon="7.3537650"><ele></ele><time>2016-5-22T13:39:18Z</time></trkpt>
<trkpt lat="46.2052217" lon="7.3537667"><ele></ele><time>2016-5-22T13:39:21Z</time></trkpt>
<trkpt lat="46.2052133" lon="7.3537617"><ele></ele><time>2016-5-22T13:39:24Z</time></trkpt>
<trkpt lat="46.2052150" lon="7.3537517"><ele></ele><time>2016-5-22T13:39:27Z</time></trkpt>
<trkpt lat="46.2052150" lon="7.3537517"><ele></ele><time>2016-5-22T13:39:30Z</time></trkpt>
<trkpt lat="46.2052150" lon="7.3537517"><ele></ele><time>2016-5-22T13:39:33Z</time></trkpt>
<trkpt lat="46.2052150" lon="7.3537517"><ele></ele><time>2016-5-22T13:39:36Z</time></trkpt>
<trkpt lat="46.2052150" lon="7.3537517"><ele></ele><time>2016-5-22T13:39:39Z</time></trkpt>
<trkpt lat="46.2052150" lon="7.3537517"><ele></ele><time>2016-5-22T13:39:42Z</time></trkpt>
<trkpt lat="46.2052150" lon="7.3537517"><ele></ele><time>2016-5-22T13:39:45Z</time></trkpt>
<trkpt lat="46.2052150" lon="7.3537517"><ele></ele><time>2016-5-22T13:39:48Z</time></trkpt>
<trkpt lat="46.2052150" lon="7.3537517"><ele></ele><time>2016-5-22T13:39:51Z</time></trkpt>
<trkpt lat="46.2052367" lon="7.3537433"><ele></ele><time>2016-5-22T13:39:54Z</time></trkpt>
<trkpt lat="46.2052350" lon="7.3537500"><ele></ele><time>2016-5-22T13:39:57Z</time></trkpt>
<trkpt lat="46.2052350" lon="7.3537533"><ele></ele><time>2016-5-22T13:40:0Z</time></trkpt>
<trkpt lat="46.2052367" lon="7.3537567"><ele></ele><time>2016-5-22T13:40:3Z</time></trkpt>
<trkpt lat="46.2052367" lon="7.3537567"><ele></ele><time>2016-5-22T13:40:6Z</time></trkpt>
<trkpt lat="46.2052517" lon="7.3537450"><ele></ele><time>2016-5-22T13:40:9Z</time></trkpt>
<trkpt lat="46.2052617" lon="7.3537233"><ele></ele><time>2016-5-22T13:40:12Z</time></trkpt>
<trkpt lat="46.2052800" lon="7.3537000"><ele></ele><time>2016-5-22T13:40:15Z</time></trkpt>
<trkpt lat="46.2053033" lon="7.3536783"><ele></ele><time>2016-5-22T13:40:18Z</time></trkpt>
<trkpt lat="46.2053300" lon="7.3536583"><ele></ele><time>2016-5-22T13:40:21Z</time></trkpt>
<trkpt lat="46.2053567" lon="7.3536283"><ele></ele><time>2016-5-22T13:40:24Z</time></trkpt>
<trkpt lat="46.2053767" lon="7.3535800"><ele></ele><time>2016-5-22T13:40:27Z</time></trkpt>
<trkpt lat="46.2053917" lon="7.3535133"><ele></ele><time>2016-5-22T13:40:30Z</time></trkpt>
<trkpt lat="46.2053983" lon="7.3534350"><ele></ele><time>2016-5-22T13:40:33Z</time></trkpt>
<trkpt lat="46.2053683" lon="7.3533283"><ele></ele><time>2016-5-22T13:40:36Z</time></trkpt>
<trkpt lat="46.2053383" lon="7.3532333"><ele></ele><time>2016-5-22T13:40:39Z</time></trkpt>
<trkpt lat="46.2053067" lon="7.3531450"><ele></ele><time>2016-5-22T13:40:42Z</time></trkpt>
<trkpt lat="46.2052700" lon="7.3530300"><ele></ele><time>2016-5-22T13:40:45Z</time></trkpt>
<trkpt lat="46.2052317" lon="7.3529133"><ele></ele><time>2016-5-22T13:40:48Z</time></trkpt>
<trkpt lat="46.2052133" lon="7.3527883"><ele></ele><time>2016-5-22T13:40:51Z</time></trkpt>
<trkpt lat="46.2051683" lon="7.3526550"><ele></ele><time>2016-5-22T13:40:54Z</time></trkpt>
<trkpt lat="46.2051233" lon="7.3525267"><ele></ele><time>2016-5-22T13:40:57Z</time></trkpt>
<trkpt lat="46.2050900" lon="7.3523583"><ele></ele><time>2016-5-22T13:41:0Z</time></trkpt>
<trkpt lat="46.2050633" lon="7.3522250"><ele></ele><time>2016-5-22T13:41:3Z</time></trkpt>
<trkpt lat="46.2050367" lon="7.3520817"><ele></ele><time>2016-5-22T13:41:6Z</time></trkpt>
<trkpt lat="46.2050117" lon="7.3519183"><ele></ele><time>2016-5-22T13:41:9Z</time></trkpt>
<trkpt lat="46.2050017" lon="7.3517483"><ele></ele><time>2016-5-22T13:41:12Z</time></trkpt>
<trkpt lat="46.2050017" lon="7.3515700"><ele></ele><time>2016-5-22T13:41:15Z</time></trkpt>
<trkpt lat="46.2050083" lon="7.3513800"><ele></ele><time>2016-5-22T13:41:18Z</time></trkpt>
<trkpt lat="46.2050083" lon="7.3511800"><ele></ele><time>2016-5-22T13:41:21Z</time></trkpt>
<trkpt lat="46.2050050" lon="7.3509650"><ele></ele><time>2016-5-22T13:41:24Z</time></trkpt>
<trkpt lat="46.2050033" lon="7.3507667"><ele></ele><time>2016-5-22T13:41:27Z</time></trkpt>
<trkpt lat="46.2050167" lon="7.3505617"><ele></ele><time>2016-5-22T13:41:30Z</time></trkpt>
<trkpt lat="46.2050183" lon="7.3503583"><ele></ele><time>2016-5-22T13:41:33Z</time></trkpt>
<trkpt lat="46.2050200" lon="7.3501567"><ele></ele><time>2016-5-22T13:41:36Z</time></trkpt>
<trkpt lat="46.2050333" lon="7.3499483"><ele></ele><time>2016-5-22T13:41:39Z</time></trkpt>
<trkpt lat="46.2050400" lon="7.3497600"><ele></ele><time>2016-5-22T13:41:42Z</time></trkpt>
<trkpt lat="46.2050483" lon="7.3495667"><ele></ele><time>2016-5-22T13:41:45Z</time></trkpt>
<trkpt lat="46.2050700" lon="7.3493567"><ele></ele><time>2016-5-22T13:41:48Z</time></trkpt>
<trkpt lat="46.2050717" lon="7.3491467"><ele></ele><time>2016-5-22T13:41:51Z</time></trkpt>
<trkpt lat="46.2050750" lon="7.3489500"><ele></ele><time>2016-5-22T13:41:54Z</time></trkpt>
<trkpt lat="46.2050750" lon="7.3487083"><ele></ele><time>2016-5-22T13:41:57Z</time></trkpt>
<trkpt lat="46.2050700" lon="7.3484800"><ele></ele><time>2016-5-22T13:42:0Z</time></trkpt>
<trkpt lat="46.2050667" lon="7.3482667"><ele></ele><time>2016-5-22T13:42:3Z</time></trkpt>
<trkpt lat="46.2050717" lon="7.3480650"><ele></ele><time>2016-5-22T13:42:6Z</time></trkpt>
<trkpt lat="46.2050700" lon="7.3478467"><ele></ele><time>2016-5-22T13:42:9Z</time></trkpt>
<trkpt lat="46.2050500" lon="7.3476383"><ele></ele><time>2016-5-22T13:42:12Z</time></trkpt>
<trkpt lat="46.2050167" lon="7.3474283"><ele></ele><time>2016-5-22T13:42:15Z</time></trkpt>
<trkpt lat="46.2049683" lon="7.3472250"><ele></ele><time>2016-5-22T13:42:18Z</time></trkpt>
<trkpt lat="46.2049000" lon="7.3470100"><ele></ele><time>2016-5-22T13:42:21Z</time></trkpt>
<trkpt lat="46.2048433" lon="7.3467867"><ele></ele><time>2016-5-22T13:42:24Z</time></trkpt>
<trkpt lat="46.2048433" lon="7.3467867"><ele></ele><time>2016-5-22T13:42:27Z</time></trkpt>
<trkpt lat="46.2048283" lon="7.3465650"><ele></ele><time>2016-5-22T13:42:30Z</time></trkpt>
<trkpt lat="46.2048167" lon="7.3463500"><ele></ele><time>2016-5-22T13:42:33Z</time></trkpt>
<trkpt lat="46.2047717" lon="7.3461317"><ele></ele><time>2016-5-22T13:42:36Z</time></trkpt>
<trkpt lat="46.2047200" lon="7.3459283"><ele></ele><time>2016-5-22T13:42:39Z</time></trkpt>
<trkpt lat="46.2046717" lon="7.3457333"><ele></ele><time>2016-5-22T13:42:42Z</time></trkpt>
<trkpt lat="46.2046167" lon="7.3455250"><ele></ele><time>2016-5-22T13:42:45Z</time></trkpt>
<trkpt lat="46.2045500" lon="7.3453283"><ele></ele><time>2016-5-22T13:42:48Z</time></trkpt>
<trkpt lat="46.2044783" lon="7.3451217"><ele></ele><time>2016-5-22T13:42:51Z</time></trkpt>
<trkpt lat="46.2044117" lon="7.3449150"><ele></ele><time>2016-5-22T13:42:54Z</time></trkpt>
<trkpt lat="46.2043450" lon="7.3447383"><ele></ele><time>2016-5-22T13:42:57Z</time></trkpt>
<trkpt lat="46.2042783" lon="7.3445633"><ele></ele><time>2016-5-22T13:43:0Z</time></trkpt>
<trkpt lat="46.2042150" lon="7.3444433"><ele></ele><time>2016-5-22T13:43:3Z</time></trkpt>
<trkpt lat="46.2042150" lon="7.3444433"><ele></ele><time>2016-5-22T13:43:6Z</time></trkpt>
<trkpt lat="46.2041700" lon="7.3443417"><ele></ele><time>2016-5-22T13:43:9Z</time></trkpt>
<trkpt lat="46.2041250" lon="7.3442633"><ele></ele><time>2016-5-22T13:43:12Z</time></trkpt>
<trkpt lat="46.2041183" lon="7.3442000"><ele></ele><time>2016-5-22T13:43:15Z</time></trkpt>
<trkpt lat="46.2041483" lon="7.3442433"><ele></ele><time>2016-5-22T13:43:18Z</time></trkpt>
<trkpt lat="46.2041867" lon="7.3441683"><ele></ele><time>2016-5-22T13:43:21Z</time></trkpt>
<trkpt lat="46.2043200" lon="7.3442133"><ele></ele><time>2016-5-22T13:43:24Z</time></trkpt>
<trkpt lat="46.2043817" lon="7.3443117"><ele></ele><time>2016-5-22T13:43:27Z</time></trkpt>
<trkpt lat="46.2043700" lon="7.3443317"><ele></ele><time>2016-5-22T13:43:30Z</time></trkpt>
<trkpt lat="46.2043217" lon="7.3443067"><ele></ele><time>2016-5-22T13:43:33Z</time></trkpt>
<trkpt lat="46.2043383" lon="7.3443600"><ele></ele><time>2016-5-22T13:43:36Z</time></trkpt>
<trkpt lat="46.2043733" lon="7.3444417"><ele></ele><time>2016-5-22T13:43:39Z</time></trkpt>
<trkpt lat="46.2044133" lon="7.3445283"><ele></ele><time>2016-5-22T13:43:42Z</time></trkpt>
<trkpt lat="46.2044133" lon="7.3445283"><ele></ele><time>2016-5-22T13:43:45Z</time></trkpt>
<trkpt lat="46.2044567" lon="7.3446233"><ele></ele><time>2016-5-22T13:43:48Z</time></trkpt>
<trkpt lat="46.2045117" lon="7.3447083"><ele></ele><time>2016-5-22T13:43:51Z</time></trkpt>
<trkpt lat="46.2045667" lon="7.3447800"><ele></ele><time>2016-5-22T13:43:54Z</time></trkpt>
<trkpt lat="46.2046200" lon="7.3448683"><ele></ele><time>2016-5-22T13:43:57Z</time></trkpt>
<trkpt lat="46.2046783" lon="7.3449450"><ele></ele><time>2016-5-22T13:44:0Z</time></trkpt>
<trkpt lat="46.2047383" lon="7.3450267"><ele></ele><time>2016-5-22T13:44:3Z</time></trkpt>
<trkpt lat="46.2047933" lon="7.3451183"><ele></ele><time>2016-5-22T13:44:6Z</time></trkpt>
<trkpt lat="46.2048500" lon="7.3452100"><ele></ele><time>2016-5-22T13:44:9Z</time></trkpt>
<trkpt lat="46.2049067" lon="7.3452950"><ele></ele><time>2016-5-22T13:44:12Z</time></trkpt>
<trkpt lat="46.2049617" lon="7.3453867"><ele></ele><time>2016-5-22T13:44:15Z</time></trkpt>
<trkpt lat="46.2050200" lon="7.3454833"><ele></ele><time>2016-5-22T13:44:18Z</time></trkpt>
<trkpt lat="46.2050783" lon="7.3455767"><ele></ele><time>2016-5-22T13:44:21Z</time></trkpt>
<trkpt lat="46.2050783" lon="7.3455767"><ele></ele><time>2016-5-22T13:44:24Z</time></trkpt>
<trkpt lat="46.2051350" lon="7.3456700"><ele></ele><time>2016-5-22T13:44:27Z</time></trkpt>
<trkpt lat="46.2051983" lon="7.3457700"><ele></ele><time>2016-5-22T13:44:30Z</time></trkpt>
<trkpt lat="46.2052483" lon="7.3458700"><ele></ele><time>2016-5-22T13:44:33Z</time></trkpt>
<trkpt lat="46.2053200" lon="7.3459767"><ele></ele><time>2016-5-22T13:44:36Z</time></trkpt>
<trkpt lat="46.2053700" lon="7.3460817"><ele></ele><time>2016-5-22T13:44:39Z</time></trkpt>
<trkpt lat="46.2054183" lon="7.3461750"><ele></ele><time>2016-5-22T13:44:42Z</time></trkpt>
<trkpt lat="46.2054650" lon="7.3462383"><ele></ele><time>2016-5-22T13:44:45Z</time></trkpt>
<trkpt lat="46.2055067" lon="7.3463117"><ele></ele><time>2016-5-22T13:44:48Z</time></trkpt>
<trkpt lat="46.2055517" lon="7.3463850"><ele></ele><time>2016-5-22T13:44:51Z</time></trkpt>
<trkpt lat="46.2055933" lon="7.3464667"><ele></ele><time>2016-5-22T13:44:54Z</time></trkpt>
<trkpt lat="46.2056300" lon="7.3465450"><ele></ele><time>2016-5-22T13:44:57Z</time></trkpt>
<trkpt lat="46.2056633" lon="7.3466183"><ele></ele><time>2016-5-22T13:45:0Z</time></trkpt>
<trkpt lat="46.2056633" lon="7.3466183"><ele></ele><time>2016-5-22T13:45:3Z</time></trkpt>
<trkpt lat="46.2057033" lon="7.3467167"><ele></ele><time>2016-5-22T13:45:6Z</time></trkpt>
<trkpt lat="46.2057317" lon="7.3467967"><ele></ele><time>2016-5-22T13:45:9Z</time></trkpt>
<trkpt lat="46.2057700" lon="7.3468817"><ele></ele><time>2016-5-22T13:45:12Z</time></trkpt>
<trkpt lat="46.2057983" lon="7.3469567"><ele></ele><time>2016-5-22T13:45:15Z</time></trkpt>
<trkpt lat="46.2058483" lon="7.3470350"><ele></ele><time>2016-5-22T13:45:18Z</time></trkpt>
<trkpt lat="46.2058783" lon="7.3470867"><ele></ele><time>2016-5-22T13:45:21Z</time></trkpt>
<trkpt lat="46.2058950" lon="7.3471450"><ele></ele><time>2016-5-22T13:45:24Z</time></trkpt>
<trkpt lat="46.2059267" lon="7.3472267"><ele></ele><time>2016-5-22T13:45:27Z</time></trkpt>
<trkpt lat="46.2059450" lon="7.3473117"><ele></ele><time>2016-5-22T13:45:30Z</time></trkpt>
<trkpt lat="46.2059817" lon="7.3473867"><ele></ele><time>2016-5-22T13:45:33Z</time></trkpt>
<trkpt lat="46.2060250" lon="7.3474833"><ele></ele><time>2016-5-22T13:45:36Z</time></trkpt>
<trkpt lat="46.2060633" lon="7.3475717"><ele></ele><time>2016-5-22T13:45:39Z</time></trkpt>
<trkpt lat="46.2060633" lon="7.3475717"><ele></ele><time>2016-5-22T13:45:42Z</time></trkpt>
<trkpt lat="46.2060983" lon="7.3476550"><ele></ele><time>2016-5-22T13:45:45Z</time></trkpt>
<trkpt lat="46.2061367" lon="7.3477367"><ele></ele><time>2016-5-22T13:45:48Z</time></trkpt>
<trkpt lat="46.2061700" lon="7.3478100"><ele></ele><time>2016-5-22T13:45:51Z</time></trkpt>
<trkpt lat="46.2062033" lon="7.3479233"><ele></ele><time>2016-5-22T13:45:54Z</time></trkpt>
<trkpt lat="46.2062350" lon="7.3480333"><ele></ele><time>2016-5-22T13:45:57Z</time></trkpt>
<trkpt lat="46.2062683" lon="7.3481267"><ele></ele><time>2016-5-22T13:46:0Z</time></trkpt>
<trkpt lat="46.2062883" lon="7.3482250"><ele></ele><time>2016-5-22T13:46:3Z</time></trkpt>
<trkpt lat="46.2063133" lon="7.3483317"><ele></ele><time>2016-5-22T13:46:6Z</time></trkpt>
<trkpt lat="46.2063350" lon="7.3484283"><ele></ele><time>2016-5-22T13:46:9Z</time></trkpt>
<trkpt lat="46.2063583" lon="7.3485183"><ele></ele><time>2016-5-22T13:46:12Z</time></trkpt>
<trkpt lat="46.2063983" lon="7.3486333"><ele></ele><time>2016-5-22T13:46:15Z</time></trkpt>
<trkpt lat="46.2064417" lon="7.3487467"><ele></ele><time>2016-5-22T13:46:18Z</time></trkpt>
<trkpt lat="46.2064417" lon="7.3487467"><ele></ele><time>2016-5-22T13:46:21Z</time></trkpt>
<trkpt lat="46.2064817" lon="7.3488533"><ele></ele><time>2016-5-22T13:46:24Z</time></trkpt>
<trkpt lat="46.2065467" lon="7.3489650"><ele></ele><time>2016-5-22T13:46:27Z</time></trkpt>
<trkpt lat="46.2066167" lon="7.3490533"><ele></ele><time>2016-5-22T13:46:30Z</time></trkpt>
<trkpt lat="46.2066833" lon="7.3491600"><ele></ele><time>2016-5-22T13:46:33Z</time></trkpt>
<trkpt lat="46.2067217" lon="7.3492617"><ele></ele><time>2016-5-22T13:46:36Z</time></trkpt>
<trkpt lat="46.2067500" lon="7.3493400"><ele></ele><time>2016-5-22T13:46:39Z</time></trkpt>
<trkpt lat="46.2067583" lon="7.3493867"><ele></ele><time>2016-5-22T13:46:42Z</time></trkpt>
<trkpt lat="46.2067483" lon="7.3493950"><ele></ele><time>2016-5-22T13:46:45Z</time></trkpt>
<trkpt lat="46.2067583" lon="7.3493883"><ele></ele><time>2016-5-22T13:46:48Z</time></trkpt>
<trkpt lat="46.2068283" lon="7.3496050"><ele></ele><time>2016-5-22T13:46:51Z</time></trkpt>
<trkpt lat="46.2068517" lon="7.3496867"><ele></ele><time>2016-5-22T13:46:54Z</time></trkpt>
<trkpt lat="46.2068733" lon="7.3497400"><ele></ele><time>2016-5-22T13:46:57Z</time></trkpt>
<trkpt lat="46.2068733" lon="7.3497400"><ele></ele><time>2016-5-22T13:47:0Z</time></trkpt>
<trkpt lat="46.2068817" lon="7.3497667"><ele></ele><time>2016-5-22T13:47:3Z</time></trkpt>
<trkpt lat="46.2068900" lon="7.3497967"><ele></ele><time>2016-5-22T13:47:6Z</time></trkpt>
<trkpt lat="46.2069017" lon="7.3498150"><ele></ele><time>2016-5-22T13:47:9Z</time></trkpt>
<trkpt lat="46.2069167" lon="7.3498550"><ele></ele><time>2016-5-22T13:47:12Z</time></trkpt>
<trkpt lat="46.2069250" lon="7.3498783"><ele></ele><time>2016-5-22T13:47:15Z</time></trkpt>
<trkpt lat="46.2069350" lon="7.3498983"><ele></ele><time>2016-5-22T13:47:18Z</time></trkpt>
<trkpt lat="46.2069450" lon="7.3499383"><ele></ele><time>2016-5-22T13:47:21Z</time></trkpt>
<trkpt lat="46.2069500" lon="7.3499683"><ele></ele><time>2016-5-22T13:47:24Z</time></trkpt>
<trkpt lat="46.2069283" lon="7.3498417"><ele></ele><time>2016-5-22T13:47:27Z</time></trkpt>
<trkpt lat="46.2069867" lon="7.3499583"><ele></ele><time>2016-5-22T13:47:30Z</time></trkpt>
<trkpt lat="46.2069933" lon="7.3499483"><ele></ele><time>2016-5-22T13:47:33Z</time></trkpt>
<trkpt lat="46.2069933" lon="7.3499483"><ele></ele><time>2016-5-22T13:47:36Z</time></trkpt>
<trkpt lat="46.2069933" lon="7.3499483"><ele></ele><time>2016-5-22T13:47:39Z</time></trkpt>
<trkpt lat="46.2069933" lon="7.3499483"><ele></ele><time>2016-5-22T13:47:42Z</time></trkpt>
<trkpt lat="46.2069933" lon="7.3499483"><ele></ele><time>2016-5-22T13:47:45Z</time></trkpt>
<trkpt lat="46.2069933" lon="7.3499483"><ele></ele><time>2016-5-22T13:47:48Z</time></trkpt>
<trkpt lat="46.2069933" lon="7.3499483"><ele></ele><time>2016-5-22T13:47:51Z</time></trkpt>
<trkpt lat="46.2069933" lon="7.3499483"><ele></ele><time>2016-5-22T13:47:54Z</time></trkpt>
<trkpt lat="46.2069933" lon="7.3499483"><ele></ele><time>2016-5-22T13:47:57Z</time></trkpt>
<trkpt lat="46.2069933" lon="7.3499483"><ele></ele><time>2016-5-22T13:48:0Z</time></trkpt>
<trkpt lat="46.2069933" lon="7.3499483"><ele></ele><time>2016-5-22T13:48:3Z</time></trkpt>
<trkpt lat="46.2069933" lon="7.3499483"><ele></ele><time>2016-5-22T13:48:6Z</time></trkpt>
<trkpt lat="46.2069933" lon="7.3499483"><ele></ele><time>2016-5-22T13:48:9Z</time></trkpt>
<trkpt lat="46.2069933" lon="7.3499483"><ele></ele><time>2016-5-22T13:48:12Z</time></trkpt>
<trkpt lat="46.2069933" lon="7.3499483"><ele></ele><time>2016-5-22T13:48:15Z</time></trkpt>
<trkpt lat="46.2069933" lon="7.3499483"><ele></ele><time>2016-5-22T13:48:18Z</time></trkpt>
<trkpt lat="46.2069933" lon="7.3499483"><ele></ele><time>2016-5-22T13:48:21Z</time></trkpt>
<trkpt lat="46.2069933" lon="7.3499483"><ele></ele><time>2016-5-22T13:48:24Z</time></trkpt>
<trkpt lat="46.2069933" lon="7.3499483"><ele></ele><time>2016-5-22T13:48:27Z</time></trkpt>
<trkpt lat="46.2069933" lon="7.3499483"><ele></ele><time>2016-5-22T13:48:30Z</time></trkpt>
<trkpt lat="46.2069933" lon="7.3499483"><ele></ele><time>2016-5-22T13:48:33Z</time></trkpt>
<trkpt lat="46.2069933" lon="7.3499483"><ele></ele><time>2016-5-22T13:48:36Z</time></trkpt>
<trkpt lat="46.2069933" lon="7.3499483"><ele></ele><time>2016-5-22T13:48:39Z</time></trkpt>
<trkpt lat="46.2069933" lon="7.3499483"><ele></ele><time>2016-5-22T13:48:42Z</time></trkpt>
<trkpt lat="46.2069933" lon="7.3499483"><ele></ele><time>2016-5-22T13:48:45Z</time></trkpt>
<trkpt lat="46.2069933" lon="7.3499483"><ele></ele><time>2016-5-22T13:48:48Z</time></trkpt>
<trkpt lat="46.2069933" lon="7.3499483"><ele></ele><time>2016-5-22T13:48:51Z</time></trkpt>
<trkpt lat="46.2069933" lon="7.3499483"><ele></ele><time>2016-5-22T13:48:54Z</time></trkpt>
<trkpt lat="46.2069933" lon="7.3499483"><ele></ele><time>2016-5-22T13:48:57Z</time></trkpt>
<trkpt lat="46.2069933" lon="7.3499483"><ele></ele><time>2016-5-22T13:49:0Z</time></trkpt>
<trkpt lat="46.2069933" lon="7.3499483"><ele></ele><time>2016-5-22T13:49:3Z</time></trkpt>
<trkpt lat="46.2069933" lon="7.3499483"><ele></ele><time>2016-5-22T13:49:6Z</time></trkpt>
<trkpt lat="46.2069933" lon="7.3499483"><ele></ele><time>2016-5-22T13:49:9Z</time></trkpt>
<trkpt lat="46.2069933" lon="7.3499483"><ele></ele><time>2016-5-22T13:49:12Z</time></trkpt>
<trkpt lat="46.2069933" lon="7.3499483"><ele></ele><time>2016-5-22T13:49:15Z</time></trkpt>
<trkpt lat="46.2069933" lon="7.3499483"><ele></ele><time>2016-5-22T13:49:18Z</time></trkpt>
<trkpt lat="46.2069933" lon="7.3499483"><ele></ele><time>2016-5-22T13:49:21Z</time></trkpt>
<trkpt lat="46.2069933" lon="7.3499483"><ele></ele><time>2016-5-22T13:49:24Z</time></trkpt>
<trkpt lat="46.2069933" lon="7.3499483"><ele></ele><time>2016-5-22T13:49:27Z</time></trkpt>
<trkpt lat="46.2069933" lon="7.3499483"><ele></ele><time>2016-5-22T13:49:30Z</time></trkpt>
<trkpt lat="46.2069933" lon="7.3499483"><ele></ele><time>2016-5-22T13:49:33Z</time></trkpt>
<trkpt lat="46.2069950" lon="7.3499500"><ele></ele><time>2016-5-22T13:49:36Z</time></trkpt>
<trkpt lat="46.2069933" lon="7.3499500"><ele></ele><time>2016-5-22T13:49:39Z</time></trkpt>
<trkpt lat="46.2069917" lon="7.3499750"><ele></ele><time>2016-5-22T13:49:42Z</time></trkpt>
<trkpt lat="46.2069950" lon="7.3500050"><ele></ele><time>2016-5-22T13:49:45Z</time></trkpt>
<trkpt lat="46.2070067" lon="7.3500417"><ele></ele><time>2016-5-22T13:49:48Z</time></trkpt>
<trkpt lat="46.2070267" lon="7.3500933"><ele></ele><time>2016-5-22T13:49:51Z</time></trkpt>
<trkpt lat="46.2070567" lon="7.3501583"><ele></ele><time>2016-5-22T13:49:54Z</time></trkpt>
<trkpt lat="46.2070850" lon="7.3502200"><ele></ele><time>2016-5-22T13:49:57Z</time></trkpt>
<trkpt lat="46.2071033" lon="7.3502933"><ele></ele><time>2016-5-22T13:50:0Z</time></trkpt>
<trkpt lat="46.2071267" lon="7.3503800"><ele></ele><time>2016-5-22T13:50:3Z</time></trkpt>
<trkpt lat="46.2071517" lon="7.3504733"><ele></ele><time>2016-5-22T13:50:6Z</time></trkpt>
<trkpt lat="46.2071767" lon="7.3505700"><ele></ele><time>2016-5-22T13:50:9Z</time></trkpt>
<trkpt lat="46.2072067" lon="7.3506883"><ele></ele><time>2016-5-22T13:50:12Z</time></trkpt>
<trkpt lat="46.2072300" lon="7.3507883"><ele></ele><time>2016-5-22T13:50:15Z</time></trkpt>
<trkpt lat="46.2072550" lon="7.3508983"><ele></ele><time>2016-5-22T13:50:18Z</time></trkpt>
<trkpt lat="46.2072833" lon="7.3510217"><ele></ele><time>2016-5-22T13:50:21Z</time></trkpt>
<trkpt lat="46.2073183" lon="7.3511683"><ele></ele><time>2016-5-22T13:50:24Z</time></trkpt>
<trkpt lat="46.2073483" lon="7.3512950"><ele></ele><time>2016-5-22T13:50:27Z</time></trkpt>
<trkpt lat="46.2073733" lon="7.3514350"><ele></ele><time>2016-5-22T13:50:30Z</time></trkpt>
<trkpt lat="46.2074017" lon="7.3515950"><ele></ele><time>2016-5-22T13:50:33Z</time></trkpt>
<trkpt lat="46.2074500" lon="7.3517433"><ele></ele><time>2016-5-22T13:50:36Z</time></trkpt>
<trkpt lat="46.2075033" lon="7.3518883"><ele></ele><time>2016-5-22T13:50:39Z</time></trkpt>
<trkpt lat="46.2075433" lon="7.3520383"><ele></ele><time>2016-5-22T13:50:42Z</time></trkpt>
<trkpt lat="46.2075917" lon="7.3521867"><ele></ele><time>2016-5-22T13:50:45Z</time></trkpt>
<trkpt lat="46.2076483" lon="7.3523517"><ele></ele><time>2016-5-22T13:50:48Z</time></trkpt>
<trkpt lat="46.2077083" lon="7.3525250"><ele></ele><time>2016-5-22T13:50:51Z</time></trkpt>
<trkpt lat="46.2077733" lon="7.3526783"><ele></ele><time>2016-5-22T13:50:54Z</time></trkpt>
<trkpt lat="46.2078350" lon="7.3528233"><ele></ele><time>2016-5-22T13:50:57Z</time></trkpt>
<trkpt lat="46.2079167" lon="7.3529817"><ele></ele><time>2016-5-22T13:51:0Z</time></trkpt>
<trkpt lat="46.2080033" lon="7.3531283"><ele></ele><time>2016-5-22T13:51:3Z</time></trkpt>
<trkpt lat="46.2081033" lon="7.3532783"><ele></ele><time>2016-5-22T13:51:6Z</time></trkpt>
<trkpt lat="46.2082083" lon="7.3533917"><ele></ele><time>2016-5-22T13:51:9Z</time></trkpt>
<trkpt lat="46.2083200" lon="7.3535217"><ele></ele><time>2016-5-22T13:51:12Z</time></trkpt>
<trkpt lat="46.2084300" lon="7.3536450"><ele></ele><time>2016-5-22T13:51:15Z</time></trkpt>
<trkpt lat="46.2085350" lon="7.3537483"><ele></ele><time>2016-5-22T13:51:18Z</time></trkpt>
<trkpt lat="46.2086400" lon="7.3538767"><ele></ele><time>2016-5-22T13:51:21Z</time></trkpt>
<trkpt lat="46.2087400" lon="7.3539950"><ele></ele><time>2016-5-22T13:51:24Z</time></trkpt>
<trkpt lat="46.2088417" lon="7.3541267"><ele></ele><time>2016-5-22T13:51:27Z</time></trkpt>
<trkpt lat="46.2089450" lon="7.3542417"><ele></ele><time>2016-5-22T13:51:30Z</time></trkpt>
<trkpt lat="46.2090500" lon="7.3543650"><ele></ele><time>2016-5-22T13:51:33Z</time></trkpt>
<trkpt lat="46.2091550" lon="7.3544817"><ele></ele><time>2016-5-22T13:51:36Z</time></trkpt>
<trkpt lat="46.2092583" lon="7.3546117"><ele></ele><time>2016-5-22T13:51:39Z</time></trkpt>
<trkpt lat="46.2093617" lon="7.3547283"><ele></ele><time>2016-5-22T13:51:42Z</time></trkpt>
<trkpt lat="46.2094583" lon="7.3548517"><ele></ele><time>2016-5-22T13:51:45Z</time></trkpt>
<trkpt lat="46.2095517" lon="7.3549650"><ele></ele><time>2016-5-22T13:51:48Z</time></trkpt>
<trkpt lat="46.2096400" lon="7.3550933"><ele></ele><time>2016-5-22T13:51:51Z</time></trkpt>
<trkpt lat="46.2096950" lon="7.3552467"><ele></ele><time>2016-5-22T13:51:54Z</time></trkpt>
<trkpt lat="46.2097483" lon="7.3553917"><ele></ele><time>2016-5-22T13:51:57Z</time></trkpt>
<trkpt lat="46.2098000" lon="7.3555417"><ele></ele><time>2016-5-22T13:52:0Z</time></trkpt>
<trkpt lat="46.2098517" lon="7.3556533"><ele></ele><time>2016-5-22T13:52:3Z</time></trkpt>
<trkpt lat="46.2099133" lon="7.3557567"><ele></ele><time>2016-5-22T13:52:6Z</time></trkpt>
<trkpt lat="46.2099933" lon="7.3558317"><ele></ele><time>2016-5-22T13:52:9Z</time></trkpt>
<trkpt lat="46.2100667" lon="7.3558933"><ele></ele><time>2016-5-22T13:52:12Z</time></trkpt>
<trkpt lat="46.2101233" lon="7.3559733"><ele></ele><time>2016-5-22T13:52:15Z</time></trkpt>
<trkpt lat="46.2101817" lon="7.3560767"><ele></ele><time>2016-5-22T13:52:18Z</time></trkpt>
<trkpt lat="46.2102200" lon="7.3561750"><ele></ele><time>2016-5-22T13:52:21Z</time></trkpt>
<trkpt lat="46.2102583" lon="7.3562900"><ele></ele><time>2016-5-22T13:52:24Z</time></trkpt>
<trkpt lat="46.2102850" lon="7.3563883"><ele></ele><time>2016-5-22T13:52:27Z</time></trkpt>
<trkpt lat="46.2103100" lon="7.3564867"><ele></ele><time>2016-5-22T13:52:30Z</time></trkpt>
<trkpt lat="46.2103367" lon="7.3566000"><ele></ele><time>2016-5-22T13:52:33Z</time></trkpt>
<trkpt lat="46.2103683" lon="7.3566983"><ele></ele><time>2016-5-22T13:52:36Z</time></trkpt>
<trkpt lat="46.2104033" lon="7.3567800"><ele></ele><time>2016-5-22T13:52:39Z</time></trkpt>
<trkpt lat="46.2104300" lon="7.3568900"><ele></ele><time>2016-5-22T13:52:42Z</time></trkpt>
<trkpt lat="46.2104600" lon="7.3569850"><ele></ele><time>2016-5-22T13:52:45Z</time></trkpt>
<trkpt lat="46.2104933" lon="7.3570900"><ele></ele><time>2016-5-22T13:52:48Z</time></trkpt>
<trkpt lat="46.2105267" lon="7.3571817"><ele></ele><time>2016-5-22T13:52:51Z</time></trkpt>
<trkpt lat="46.2105533" lon="7.3572067"><ele></ele><time>2016-5-22T13:52:54Z</time></trkpt>
<trkpt lat="46.2105783" lon="7.3572617"><ele></ele><time>2016-5-22T13:52:57Z</time></trkpt>
<trkpt lat="46.2106667" lon="7.3573283"><ele></ele><time>2016-5-22T13:53:0Z</time></trkpt>
<trkpt lat="46.2106633" lon="7.3573450"><ele></ele><time>2016-5-22T13:53:3Z</time></trkpt>
<trkpt lat="46.2106633" lon="7.3573433"><ele></ele><time>2016-5-22T13:53:6Z</time></trkpt>
<trkpt lat="46.2106667" lon="7.3573350"><ele></ele><time>2016-5-22T13:53:9Z</time></trkpt>
<trkpt lat="46.2106667" lon="7.3573300"><ele></ele><time>2016-5-22T13:53:12Z</time></trkpt>
<trkpt lat="46.2106717" lon="7.3573067"><ele></ele><time>2016-5-22T13:53:15Z</time></trkpt>
<trkpt lat="46.2106700" lon="7.3573183"><ele></ele><time>2016-5-22T13:53:18Z</time></trkpt>
<trkpt lat="46.2106683" lon="7.3573217"><ele></ele><time>2016-5-22T13:53:21Z</time></trkpt>
<trkpt lat="46.2106667" lon="7.3573300"><ele></ele><time>2016-5-22T13:53:24Z</time></trkpt>
<trkpt lat="46.2107100" lon="7.3573017"><ele></ele><time>2016-5-22T13:53:27Z</time></trkpt>
<trkpt lat="46.2107733" lon="7.3572133"><ele></ele><time>2016-5-22T13:53:30Z</time></trkpt>
<trkpt lat="46.2106933" lon="7.3572500"><ele></ele><time>2016-5-22T13:53:33Z</time></trkpt>
<trkpt lat="46.2106783" lon="7.3572483"><ele></ele><time>2016-5-22T13:53:36Z</time></trkpt>
<trkpt lat="46.2106917" lon="7.3571933"><ele></ele><time>2016-5-22T13:53:39Z</time></trkpt>
<trkpt lat="46.2107667" lon="7.3571767"><ele></ele><time>2016-5-22T13:53:42Z</time></trkpt>
<trkpt lat="46.2107533" lon="7.3570950"><ele></ele><time>2016-5-22T13:53:45Z</time></trkpt>
<trkpt lat="46.2107367" lon="7.3570000"><ele></ele><time>2016-5-22T13:53:48Z</time></trkpt>
<trkpt lat="46.2107250" lon="7.3569283"><ele></ele><time>2016-5-22T13:53:51Z</time></trkpt>
<trkpt lat="46.2107167" lon="7.3568667"><ele></ele><time>2016-5-22T13:53:54Z</time></trkpt>
<trkpt lat="46.2107133" lon="7.3568250"><ele></ele><time>2016-5-22T13:53:57Z</time></trkpt>
<trkpt lat="46.2107250" lon="7.3567850"><ele></ele><time>2016-5-22T13:54:0Z</time></trkpt>
<trkpt lat="46.2107183" lon="7.3567817"><ele></ele><time>2016-5-22T13:54:3Z</time></trkpt>
<trkpt lat="46.2107017" lon="7.3567650"><ele></ele><time>2016-5-22T13:54:6Z</time></trkpt>
<trkpt lat="46.2106883" lon="7.3567150"><ele></ele><time>2016-5-22T13:54:9Z</time></trkpt>
<trkpt lat="46.2106767" lon="7.3566533"><ele></ele><time>2016-5-22T13:54:12Z</time></trkpt>
<trkpt lat="46.2106633" lon="7.3565750"><ele></ele><time>2016-5-22T13:54:15Z</time></trkpt>
<trkpt lat="46.2106433" lon="7.3564583"><ele></ele><time>2016-5-22T13:54:18Z</time></trkpt>
<trkpt lat="46.2106317" lon="7.3563900"><ele></ele><time>2016-5-22T13:54:21Z</time></trkpt>
<trkpt lat="46.2106233" lon="7.3563333"><ele></ele><time>2016-5-22T13:54:24Z</time></trkpt>
<trkpt lat="46.2106167" lon="7.3562967"><ele></ele><time>2016-5-22T13:54:27Z</time></trkpt>
<trkpt lat="46.2106067" lon="7.3562283"><ele></ele><time>2016-5-22T13:54:30Z</time></trkpt>
<trkpt lat="46.2106000" lon="7.3561750"><ele></ele><time>2016-5-22T13:54:33Z</time></trkpt>
<trkpt lat="46.2105917" lon="7.3561117"><ele></ele><time>2016-5-22T13:54:36Z</time></trkpt>
<trkpt lat="46.2105800" lon="7.3560317"><ele></ele><time>2016-5-22T13:54:39Z</time></trkpt>
<trkpt lat="46.2105700" lon="7.3559550"><ele></ele><time>2016-5-22T13:54:42Z</time></trkpt>
<trkpt lat="46.2105717" lon="7.3559683"><ele></ele><time>2016-5-22T13:54:45Z</time></trkpt>
<trkpt lat="46.2105800" lon="7.3559617"><ele></ele><time>2016-5-22T13:54:48Z</time></trkpt>
<trkpt lat="46.2105617" lon="7.3558067"><ele></ele><time>2016-5-22T13:54:51Z</time></trkpt>
<trkpt lat="46.2105650" lon="7.3557667"><ele></ele><time>2016-5-22T13:54:54Z</time></trkpt>
<trkpt lat="46.2105700" lon="7.3558333"><ele></ele><time>2016-5-22T13:54:57Z</time></trkpt>
<trkpt lat="46.2105600" lon="7.3558400"><ele></ele><time>2016-5-22T13:55:0Z</time></trkpt>
<trkpt lat="46.2105700" lon="7.3558250"><ele></ele><time>2016-5-22T13:55:3Z</time></trkpt>
<trkpt lat="46.2105267" lon="7.3556367"><ele></ele><time>2016-5-22T13:55:6Z</time></trkpt>
<trkpt lat="46.2105217" lon="7.3555767"><ele></ele><time>2016-5-22T13:55:9Z</time></trkpt>
<trkpt lat="46.2105200" lon="7.3555583"><ele></ele><time>2016-5-22T13:55:12Z</time></trkpt>
<trkpt lat="46.2109700" lon="7.3550183"><ele></ele><time>2016-5-22T13:55:15Z</time></trkpt>
<trkpt lat="46.2109717" lon="7.3549333"><ele></ele><time>2016-5-22T13:55:18Z</time></trkpt>
<trkpt lat="46.2109750" lon="7.3548500"><ele></ele><time>2016-5-22T13:55:21Z</time></trkpt>
<trkpt lat="46.2109717" lon="7.3547767"><ele></ele><time>2016-5-22T13:55:24Z</time></trkpt>
<trkpt lat="46.2110067" lon="7.3547517"><ele></ele><time>2016-5-22T13:55:27Z</time></trkpt>
<trkpt lat="46.2110233" lon="7.3547417"><ele></ele><time>2016-5-22T13:55:30Z</time></trkpt>
<trkpt lat="46.2110333" lon="7.3547550"><ele></ele><time>2016-5-22T13:55:33Z</time></trkpt>
<trkpt lat="46.2110333" lon="7.3547550"><ele></ele><time>2016-5-22T13:55:36Z</time></trkpt>
<trkpt lat="46.2110333" lon="7.3547550"><ele></ele><time>2016-5-22T13:55:39Z</time></trkpt>
<trkpt lat="46.2110333" lon="7.3547550"><ele></ele><time>2016-5-22T13:55:42Z</time></trkpt>
<trkpt lat="46.2110333" lon="7.3547550"><ele></ele><time>2016-5-22T13:55:45Z</time></trkpt>
<trkpt lat="46.2110333" lon="7.3547550"><ele></ele><time>2016-5-22T13:55:48Z</time></trkpt>
<trkpt lat="46.2110333" lon="7.3547550"><ele></ele><time>2016-5-22T13:55:51Z</time></trkpt>
<trkpt lat="46.2110333" lon="7.3547550"><ele></ele><time>2016-5-22T13:55:54Z</time></trkpt>
<trkpt lat="46.2110333" lon="7.3547550"><ele></ele><time>2016-5-22T13:55:57Z</time></trkpt>
<trkpt lat="46.2110333" lon="7.3547550"><ele></ele><time>2016-5-22T13:56:0Z</time></trkpt>
<trkpt lat="46.2110333" lon="7.3547550"><ele></ele><time>2016-5-22T13:56:3Z</time></trkpt>
<trkpt lat="46.2110333" lon="7.3547550"><ele></ele><time>2016-5-22T13:56:6Z</time></trkpt>
<trkpt lat="46.2110333" lon="7.3547550"><ele></ele><time>2016-5-22T13:56:9Z</time></trkpt>
<trkpt lat="46.2110383" lon="7.3547633"><ele></ele><time>2016-5-22T13:56:12Z</time></trkpt>
<trkpt lat="46.2110567" lon="7.3547983"><ele></ele><time>2016-5-22T13:56:15Z</time></trkpt>
<trkpt lat="46.2110933" lon="7.3548550"><ele></ele><time>2016-5-22T13:56:18Z</time></trkpt>
<trkpt lat="46.2111183" lon="7.3549200"><ele></ele><time>2016-5-22T13:56:21Z</time></trkpt>
<trkpt lat="46.2111733" lon="7.3549583"><ele></ele><time>2016-5-22T13:56:24Z</time></trkpt>
<trkpt lat="46.2112300" lon="7.3550000"><ele></ele><time>2016-5-22T13:56:27Z</time></trkpt>
<trkpt lat="46.2112800" lon="7.3550167"><ele></ele><time>2016-5-22T13:56:30Z</time></trkpt>
<trkpt lat="46.2113500" lon="7.3550250"><ele></ele><time>2016-5-22T13:56:33Z</time></trkpt>
<trkpt lat="46.2114233" lon="7.3550900"><ele></ele><time>2016-5-22T13:56:36Z</time></trkpt>
<trkpt lat="46.2114767" lon="7.3551217"><ele></ele><time>2016-5-22T13:56:39Z</time></trkpt>
<trkpt lat="46.2115200" lon="7.3551467"><ele></ele><time>2016-5-22T13:56:42Z</time></trkpt>
<trkpt lat="46.2116283" lon="7.3551250"><ele></ele><time>2016-5-22T13:56:45Z</time></trkpt>
<trkpt lat="46.2116567" lon="7.3551617"><ele></ele><time>2016-5-22T13:56:48Z</time></trkpt>
<trkpt lat="46.2116967" lon="7.3552150"><ele></ele><time>2016-5-22T13:56:51Z</time></trkpt>
<trkpt lat="46.2117200" lon="7.3552467"><ele></ele><time>2016-5-22T13:56:54Z</time></trkpt>
<trkpt lat="46.2117367" lon="7.3552683"><ele></ele><time>2016-5-22T13:56:57Z</time></trkpt>
<trkpt lat="46.2117500" lon="7.3552850"><ele></ele><time>2016-5-22T13:57:0Z</time></trkpt>
<trkpt lat="46.2118500" lon="7.3550950"><ele></ele><time>2016-5-22T13:57:3Z</time></trkpt>
<trkpt lat="46.2118183" lon="7.3550900"><ele></ele><time>2016-5-22T13:57:6Z</time></trkpt>
<trkpt lat="46.2117850" lon="7.3550800"><ele></ele><time>2016-5-22T13:57:9Z</time></trkpt>
<trkpt lat="46.2117500" lon="7.3550683"><ele></ele><time>2016-5-22T13:57:12Z</time></trkpt>
<trkpt lat="46.2117200" lon="7.3550650"><ele></ele><time>2016-5-22T13:57:15Z</time></trkpt>
<trkpt lat="46.2116700" lon="7.3550350"><ele></ele><time>2016-5-22T13:57:18Z</time></trkpt>
<trkpt lat="46.2116350" lon="7.3550233"><ele></ele><time>2016-5-22T13:57:21Z</time></trkpt>
<trkpt lat="46.2116250" lon="7.3550000"><ele></ele><time>2016-5-22T13:57:24Z</time></trkpt>
<trkpt lat="46.2116383" lon="7.3549800"><ele></ele><time>2016-5-22T13:57:27Z</time></trkpt>
<trkpt lat="46.2116617" lon="7.3549767"><ele></ele><time>2016-5-22T13:57:30Z</time></trkpt>
<trkpt lat="46.2116783" lon="7.3549917"><ele></ele><time>2016-5-22T13:57:33Z</time></trkpt>
<trkpt lat="46.2117050" lon="7.3550133"><ele></ele><time>2016-5-22T13:57:36Z</time></trkpt>
<trkpt lat="46.2117300" lon="7.3550583"><ele></ele><time>2016-5-22T13:57:39Z</time></trkpt>
<trkpt lat="46.2117517" lon="7.3551000"><ele></ele><time>2016-5-22T13:57:42Z</time></trkpt>
<trkpt lat="46.2117800" lon="7.3551483"><ele></ele><time>2016-5-22T13:57:45Z</time></trkpt>
<trkpt lat="46.2118083" lon="7.3551967"><ele></ele><time>2016-5-22T13:57:48Z</time></trkpt>
<trkpt lat="46.2118400" lon="7.3552450"><ele></ele><time>2016-5-22T13:57:51Z</time></trkpt>
<trkpt lat="46.2118617" lon="7.3553067"><ele></ele><time>2016-5-22T13:57:54Z</time></trkpt>
<trkpt lat="46.2118983" lon="7.3553600"><ele></ele><time>2016-5-22T13:57:57Z</time></trkpt>
<trkpt lat="46.2119300" lon="7.3554150"><ele></ele><time>2016-5-22T13:58:0Z</time></trkpt>
<trkpt lat="46.2119700" lon="7.3554733"><ele></ele><time>2016-5-22T13:58:3Z</time></trkpt>
<trkpt lat="46.2120050" lon="7.3555367"><ele></ele><time>2016-5-22T13:58:6Z</time></trkpt>
<trkpt lat="46.2120450" lon="7.3555967"><ele></ele><time>2016-5-22T13:58:9Z</time></trkpt>
<trkpt lat="46.2120817" lon="7.3556383"><ele></ele><time>2016-5-22T13:58:12Z</time></trkpt>
<trkpt lat="46.2121333" lon="7.3556450"><ele></ele><time>2016-5-22T13:58:15Z</time></trkpt>
<trkpt lat="46.2121583" lon="7.3556417"><ele></ele><time>2016-5-22T13:58:18Z</time></trkpt>
<trkpt lat="46.2122150" lon="7.3555667"><ele></ele><time>2016-5-22T13:58:21Z</time></trkpt>
<trkpt lat="46.2122233" lon="7.3555133"><ele></ele><time>2016-5-22T13:58:24Z</time></trkpt>
<trkpt lat="46.2122167" lon="7.3554567"><ele></ele><time>2016-5-22T13:58:27Z</time></trkpt>
<trkpt lat="46.2122000" lon="7.3553933"><ele></ele><time>2016-5-22T13:58:30Z</time></trkpt>
<trkpt lat="46.2121783" lon="7.3553283"><ele></ele><time>2016-5-22T13:58:33Z</time></trkpt>
<trkpt lat="46.2121600" lon="7.3552733"><ele></ele><time>2016-5-22T13:58:36Z</time></trkpt>
<trkpt lat="46.2121350" lon="7.3551883"><ele></ele><time>2016-5-22T13:58:39Z</time></trkpt>
<trkpt lat="46.2121200" lon="7.3551167"><ele></ele><time>2016-5-22T13:58:42Z</time></trkpt>
<trkpt lat="46.2121150" lon="7.3550367"><ele></ele><time>2016-5-22T13:58:45Z</time></trkpt>
<trkpt lat="46.2121033" lon="7.3549667"><ele></ele><time>2016-5-22T13:58:48Z</time></trkpt>
<trkpt lat="46.2120650" lon="7.3548950"><ele></ele><time>2016-5-22T13:58:51Z</time></trkpt>
<trkpt lat="46.2118250" lon="7.3550667"><ele></ele><time>2016-5-22T13:58:54Z</time></trkpt>
<trkpt lat="46.2120350" lon="7.3548150"><ele></ele><time>2016-5-22T13:58:57Z</time></trkpt>
<trkpt lat="46.2119983" lon="7.3547700"><ele></ele><time>2016-5-22T13:59:0Z</time></trkpt>
<trkpt lat="46.2119550" lon="7.3547083"><ele></ele><time>2016-5-22T13:59:3Z</time></trkpt>
<trkpt lat="46.2119100" lon="7.3546483"><ele></ele><time>2016-5-22T13:59:6Z</time></trkpt>
<trkpt lat="46.2118800" lon="7.3545633"><ele></ele><time>2016-5-22T13:59:9Z</time></trkpt>
<trkpt lat="46.2118533" lon="7.3544567"><ele></ele><time>2016-5-22T13:59:12Z</time></trkpt>
<trkpt lat="46.2118250" lon="7.3543217"><ele></ele><time>2016-5-22T13:59:15Z</time></trkpt>
<trkpt lat="46.2118133" lon="7.3542383"><ele></ele><time>2016-5-22T13:59:18Z</time></trkpt>
<trkpt lat="46.2117717" lon="7.3541200"><ele></ele><time>2016-5-22T13:59:21Z</time></trkpt>
<trkpt lat="46.2117383" lon="7.3540267"><ele></ele><time>2016-5-22T13:59:24Z</time></trkpt>
<trkpt lat="46.2116817" lon="7.3538983"><ele></ele><time>2016-5-22T13:59:27Z</time></trkpt>
<trkpt lat="46.2116267" lon="7.3537683"><ele></ele><time>2016-5-22T13:59:30Z</time></trkpt>
<trkpt lat="46.2115817" lon="7.3536600"><ele></ele><time>2016-5-22T13:59:33Z</time></trkpt>
<trkpt lat="46.2115533" lon="7.3535717"><ele></ele><time>2016-5-22T13:59:36Z</time></trkpt>
<trkpt lat="46.2115383" lon="7.3534450"><ele></ele><time>2016-5-22T13:59:39Z</time></trkpt>
<trkpt lat="46.2115450" lon="7.3533617"><ele></ele><time>2016-5-22T13:59:42Z</time></trkpt>
<trkpt lat="46.2115483" lon="7.3532583"><ele></ele><time>2016-5-22T13:59:45Z</time></trkpt>
<trkpt lat="46.2115567" lon="7.3531900"><ele></ele><time>2016-5-22T13:59:48Z</time></trkpt>
<trkpt lat="46.2115650" lon="7.3531283"><ele></ele><time>2016-5-22T13:59:51Z</time></trkpt>
<trkpt lat="46.2115717" lon="7.3530600"><ele></ele><time>2016-5-22T13:59:54Z</time></trkpt>
<trkpt lat="46.2115717" lon="7.3530600"><ele></ele><time>2016-5-22T13:59:57Z</time></trkpt>
<trkpt lat="46.2115500" lon="7.3529483"><ele></ele><time>2016-5-22T14:0:0Z</time></trkpt>
<trkpt lat="46.2115400" lon="7.3528967"><ele></ele><time>2016-5-22T14:0:3Z</time></trkpt>
<trkpt lat="46.2115767" lon="7.3530883"><ele></ele><time>2016-5-22T14:0:6Z</time></trkpt>
<trkpt lat="46.2115700" lon="7.3530583"><ele></ele><time>2016-5-22T14:0:9Z</time></trkpt>
<trkpt lat="46.2115383" lon="7.3528900"><ele></ele><time>2016-5-22T14:0:12Z</time></trkpt>
<trkpt lat="46.2115300" lon="7.3528533"><ele></ele><time>2016-5-22T14:0:15Z</time></trkpt>
<trkpt lat="46.2113083" lon="7.3526000"><ele></ele><time>2016-5-22T14:0:18Z</time></trkpt>
<trkpt lat="46.2116667" lon="7.3528117"><ele></ele><time>2016-5-22T14:0:21Z</time></trkpt>
<trkpt lat="46.2116933" lon="7.3528500"><ele></ele><time>2016-5-22T14:0:24Z</time></trkpt>
<trkpt lat="46.2117183" lon="7.3529150"><ele></ele><time>2016-5-22T14:0:27Z</time></trkpt>
<trkpt lat="46.2117500" lon="7.3529817"><ele></ele><time>2016-5-22T14:0:30Z</time></trkpt>
<trkpt lat="46.2117833" lon="7.3530500"><ele></ele><time>2016-5-22T14:0:33Z</time></trkpt>
<trkpt lat="46.2118150" lon="7.3531117"><ele></ele><time>2016-5-22T14:0:36Z</time></trkpt>
<trkpt lat="46.2118333" lon="7.3531483"><ele></ele><time>2016-5-22T14:0:39Z</time></trkpt>
<trkpt lat="46.2118633" lon="7.3531867"><ele></ele><time>2016-5-22T14:0:42Z</time></trkpt>
<trkpt lat="46.2118817" lon="7.3532217"><ele></ele><time>2016-5-22T14:0:45Z</time></trkpt>
<trkpt lat="46.2119150" lon="7.3532217"><ele></ele><time>2016-5-22T14:0:48Z</time></trkpt>
<trkpt lat="46.2119567" lon="7.3532117"><ele></ele><time>2016-5-22T14:0:51Z</time></trkpt>
<trkpt lat="46.2119983" lon="7.3531917"><ele></ele><time>2016-5-22T14:0:54Z</time></trkpt>
<trkpt lat="46.2120667" lon="7.3531683"><ele></ele><time>2016-5-22T14:0:57Z</time></trkpt>
<trkpt lat="46.2121517" lon="7.3531650"><ele></ele><time>2016-5-22T14:1:0Z</time></trkpt>
<trkpt lat="46.2122033" lon="7.3531733"><ele></ele><time>2016-5-22T14:1:3Z</time></trkpt>
<trkpt lat="46.2122517" lon="7.3531967"><ele></ele><time>2016-5-22T14:1:6Z</time></trkpt>
<trkpt lat="46.2123050" lon="7.3532300"><ele></ele><time>2016-5-22T14:1:9Z</time></trkpt>
<trkpt lat="46.2123533" lon="7.3532983"><ele></ele><time>2016-5-22T14:1:12Z</time></trkpt>
<trkpt lat="46.2124017" lon="7.3533550"><ele></ele><time>2016-5-22T14:1:15Z</time></trkpt>
<trkpt lat="46.2124433" lon="7.3534167"><ele></ele><time>2016-5-22T14:1:18Z</time></trkpt>
<trkpt lat="46.2124917" lon="7.3534600"><ele></ele><time>2016-5-22T14:1:21Z</time></trkpt>
<trkpt lat="46.2125367" lon="7.3535150"><ele></ele><time>2016-5-22T14:1:24Z</time></trkpt>
<trkpt lat="46.2125933" lon="7.3535733"><ele></ele><time>2016-5-22T14:1:27Z</time></trkpt>
<trkpt lat="46.2126650" lon="7.3536367"><ele></ele><time>2016-5-22T14:1:30Z</time></trkpt>
<trkpt lat="46.2127317" lon="7.3537283"><ele></ele><time>2016-5-22T14:1:33Z</time></trkpt>
<trkpt lat="46.2127817" lon="7.3537983"><ele></ele><time>2016-5-22T14:1:36Z</time></trkpt>
<trkpt lat="46.2128417" lon="7.3538683"><ele></ele><time>2016-5-22T14:1:39Z</time></trkpt>
<trkpt lat="46.2129083" lon="7.3539250"><ele></ele><time>2016-5-22T14:1:42Z</time></trkpt>
<trkpt lat="46.2129767" lon="7.3539767"><ele></ele><time>2016-5-22T14:1:45Z</time></trkpt>
<trkpt lat="46.2130367" lon="7.3540283"><ele></ele><time>2016-5-22T14:1:48Z</time></trkpt>
<trkpt lat="46.2131167" lon="7.3540833"><ele></ele><time>2016-5-22T14:1:51Z</time></trkpt>
<trkpt lat="46.2131817" lon="7.3541383"><ele></ele><time>2016-5-22T14:1:54Z</time></trkpt>
<trkpt lat="46.2132383" lon="7.3541817"><ele></ele><time>2016-5-22T14:1:57Z</time></trkpt>
<trkpt lat="46.2132900" lon="7.3542400"><ele></ele><time>2016-5-22T14:2:0Z</time></trkpt>
<trkpt lat="46.2133167" lon="7.3543067"><ele></ele><time>2016-5-22T14:2:3Z</time></trkpt>
<trkpt lat="46.2133450" lon="7.3543783"><ele></ele><time>2016-5-22T14:2:6Z</time></trkpt>
<trkpt lat="46.2133767" lon="7.3544467"><ele></ele><time>2016-5-22T14:2:9Z</time></trkpt>
<trkpt lat="46.2133783" lon="7.3545250"><ele></ele><time>2016-5-22T14:2:12Z</time></trkpt>
<trkpt lat="46.2133633" lon="7.3546000"><ele></ele><time>2016-5-22T14:2:15Z</time></trkpt>
<trkpt lat="46.2133517" lon="7.3546717"><ele></ele><time>2016-5-22T14:2:18Z</time></trkpt>
<trkpt lat="46.2133467" lon="7.3547317"><ele></ele><time>2016-5-22T14:2:21Z</time></trkpt>
<trkpt lat="46.2133417" lon="7.3547967"><ele></ele><time>2016-5-22T14:2:24Z</time></trkpt>
<trkpt lat="46.2133400" lon="7.3548917"><ele></ele><time>2016-5-22T14:2:27Z</time></trkpt>
<trkpt lat="46.2133517" lon="7.3549917"><ele></ele><time>2016-5-22T14:2:30Z</time></trkpt>
<trkpt lat="46.2133767" lon="7.3550917"><ele></ele><time>2016-5-22T14:2:33Z</time></trkpt>
<trkpt lat="46.2134117" lon="7.3552000"><ele></ele><time>2016-5-22T14:2:36Z</time></trkpt>
<trkpt lat="46.2134617" lon="7.3552800"><ele></ele><time>2016-5-22T14:2:39Z</time></trkpt>
<trkpt lat="46.2135333" lon="7.3553583"><ele></ele><time>2016-5-22T14:2:42Z</time></trkpt>
<trkpt lat="46.2135933" lon="7.3554233"><ele></ele><time>2016-5-22T14:2:45Z</time></trkpt>
<trkpt lat="46.2136633" lon="7.3555200"><ele></ele><time>2016-5-22T14:2:48Z</time></trkpt>
<trkpt lat="46.2137033" lon="7.3555617"><ele></ele><time>2016-5-22T14:2:51Z</time></trkpt>
<trkpt lat="46.2137267" lon="7.3556083"><ele></ele><time>2016-5-22T14:2:54Z</time></trkpt>
<trkpt lat="46.2137700" lon="7.3556383"><ele></ele><time>2016-5-22T14:2:57Z</time></trkpt>
<trkpt lat="46.2138250" lon="7.3556650"><ele></ele><time>2016-5-22T14:3:0Z</time></trkpt>
<trkpt lat="46.2138683" lon="7.3557000"><ele></ele><time>2016-5-22T14:3:3Z</time></trkpt>
<trkpt lat="46.2138767" lon="7.3557317"><ele></ele><time>2016-5-22T14:3:6Z</time></trkpt>
<trkpt lat="46.2139000" lon="7.3557717"><ele></ele><time>2016-5-22T14:3:9Z</time></trkpt>
<trkpt lat="46.2139000" lon="7.3558100"><ele></ele><time>2016-5-22T14:3:12Z</time></trkpt>
<trkpt lat="46.2139150" lon="7.3558917"><ele></ele><time>2016-5-22T14:3:15Z</time></trkpt>
<trkpt lat="46.2139217" lon="7.3559383"><ele></ele><time>2016-5-22T14:3:18Z</time></trkpt>
<trkpt lat="46.2139300" lon="7.3559800"><ele></ele><time>2016-5-22T14:3:21Z</time></trkpt>
<trkpt lat="46.2139400" lon="7.3560117"><ele></ele><time>2016-5-22T14:3:24Z</time></trkpt>
<trkpt lat="46.2139567" lon="7.3560550"><ele></ele><time>2016-5-22T14:3:27Z</time></trkpt>
<trkpt lat="46.2139717" lon="7.3560933"><ele></ele><time>2016-5-22T14:3:30Z</time></trkpt>
<trkpt lat="46.2139917" lon="7.3561333"><ele></ele><time>2016-5-22T14:3:33Z</time></trkpt>
<trkpt lat="46.2140133" lon="7.3561683"><ele></ele><time>2016-5-22T14:3:36Z</time></trkpt>
<trkpt lat="46.2140350" lon="7.3562167"><ele></ele><time>2016-5-22T14:3:39Z</time></trkpt>
<trkpt lat="46.2140450" lon="7.3562833"><ele></ele><time>2016-5-22T14:3:42Z</time></trkpt>
<trkpt lat="46.2140683" lon="7.3563450"><ele></ele><time>2016-5-22T14:3:45Z</time></trkpt>
<trkpt lat="46.2140850" lon="7.3564067"><ele></ele><time>2016-5-22T14:3:48Z</time></trkpt>
<trkpt lat="46.2141067" lon="7.3564700"><ele></ele><time>2016-5-22T14:3:51Z</time></trkpt>
<trkpt lat="46.2141283" lon="7.3565217"><ele></ele><time>2016-5-22T14:3:54Z</time></trkpt>
<trkpt lat="46.2141600" lon="7.3565733"><ele></ele><time>2016-5-22T14:3:57Z</time></trkpt>
<trkpt lat="46.2141800" lon="7.3566233"><ele></ele><time>2016-5-22T14:4:0Z</time></trkpt>
<trkpt lat="46.2142117" lon="7.3566650"><ele></ele><time>2016-5-22T14:4:3Z</time></trkpt>
<trkpt lat="46.2142300" lon="7.3567217"><ele></ele><time>2016-5-22T14:4:6Z</time></trkpt>
<trkpt lat="46.2142550" lon="7.3567533"><ele></ele><time>2016-5-22T14:4:9Z</time></trkpt>
<trkpt lat="46.2142733" lon="7.3567883"><ele></ele><time>2016-5-22T14:4:12Z</time></trkpt>
<trkpt lat="46.2142833" lon="7.3568083"><ele></ele><time>2016-5-22T14:4:15Z</time></trkpt>
<trkpt lat="46.2142883" lon="7.3568200"><ele></ele><time>2016-5-22T14:4:18Z</time></trkpt>
<trkpt lat="46.2142917" lon="7.3568350"><ele></ele><time>2016-5-22T14:4:21Z</time></trkpt>
<trkpt lat="46.2142917" lon="7.3568350"><ele></ele><time>2016-5-22T14:4:24Z</time></trkpt>
<trkpt lat="46.2142917" lon="7.3568350"><ele></ele><time>2016-5-22T14:4:27Z</time></trkpt>
<trkpt lat="46.2143100" lon="7.3568250"><ele></ele><time>2016-5-22T14:4:30Z</time></trkpt>
<trkpt lat="46.2143100" lon="7.3568250"><ele></ele><time>2016-5-22T14:4:33Z</time></trkpt>
<trkpt lat="46.2143117" lon="7.3568183"><ele></ele><time>2016-5-22T14:4:36Z</time></trkpt>
<trkpt lat="46.2143133" lon="7.3568450"><ele></ele><time>2016-5-22T14:4:39Z</time></trkpt>
<trkpt lat="46.2143167" lon="7.3568883"><ele></ele><time>2016-5-22T14:4:42Z</time></trkpt>
<trkpt lat="46.2143233" lon="7.3569417"><ele></ele><time>2016-5-22T14:4:45Z</time></trkpt>
<trkpt lat="46.2143350" lon="7.3570033"><ele></ele><time>2016-5-22T14:4:48Z</time></trkpt>
<trkpt lat="46.2143367" lon="7.3570700"><ele></ele><time>2016-5-22T14:4:51Z</time></trkpt>
<trkpt lat="46.2143317" lon="7.3571467"><ele></ele><time>2016-5-22T14:4:54Z</time></trkpt>
<trkpt lat="46.2143317" lon="7.3571900"><ele></ele><time>2016-5-22T14:4:57Z</time></trkpt>
<trkpt lat="46.2143350" lon="7.3572700"><ele></ele><time>2016-5-22T14:5:0Z</time></trkpt>
<trkpt lat="46.2144017" lon="7.3573467"><ele></ele><time>2016-5-22T14:5:3Z</time></trkpt>
<trkpt lat="46.2144383" lon="7.3573850"><ele></ele><time>2016-5-22T14:5:6Z</time></trkpt>
<trkpt lat="46.2144850" lon="7.3574100"><ele></ele><time>2016-5-22T14:5:9Z</time></trkpt>
<trkpt lat="46.2145267" lon="7.3574567"><ele></ele><time>2016-5-22T14:5:12Z</time></trkpt>
<trkpt lat="46.2145750" lon="7.3574867"><ele></ele><time>2016-5-22T14:5:15Z</time></trkpt>
<trkpt lat="46.2145917" lon="7.3575550"><ele></ele><time>2016-5-22T14:5:18Z</time></trkpt>
<trkpt lat="46.2146217" lon="7.3576300"><ele></ele><time>2016-5-22T14:5:21Z</time></trkpt>
<trkpt lat="46.2146567" lon="7.3576950"><ele></ele><time>2016-5-22T14:5:24Z</time></trkpt>
<trkpt lat="46.2146750" lon="7.3577667"><ele></ele><time>2016-5-22T14:5:27Z</time></trkpt>
<trkpt lat="46.2146967" lon="7.3578500"><ele></ele><time>2016-5-22T14:5:30Z</time></trkpt>
<trkpt lat="46.2147183" lon="7.3579117"><ele></ele><time>2016-5-22T14:5:33Z</time></trkpt>
<trkpt lat="46.2147333" lon="7.3579833"><ele></ele><time>2016-5-22T14:5:36Z</time></trkpt>
<trkpt lat="46.2147583" lon="7.3580583"><ele></ele><time>2016-5-22T14:5:39Z</time></trkpt>
<trkpt lat="46.2147750" lon="7.3581367"><ele></ele><time>2016-5-22T14:5:42Z</time></trkpt>
<trkpt lat="46.2147967" lon="7.3582083"><ele></ele><time>2016-5-22T14:5:45Z</time></trkpt>
<trkpt lat="46.2148283" lon="7.3582867"><ele></ele><time>2016-5-22T14:5:48Z</time></trkpt>
<trkpt lat="46.2148600" lon="7.3583783"><ele></ele><time>2016-5-22T14:5:51Z</time></trkpt>
<trkpt lat="46.2148800" lon="7.3584600"><ele></ele><time>2016-5-22T14:5:54Z</time></trkpt>
<trkpt lat="46.2149050" lon="7.3585400"><ele></ele><time>2016-5-22T14:5:57Z</time></trkpt>
<trkpt lat="46.2149233" lon="7.3586200"><ele></ele><time>2016-5-22T14:6:0Z</time></trkpt>
<trkpt lat="46.2149483" lon="7.3586933"><ele></ele><time>2016-5-22T14:6:3Z</time></trkpt>
<trkpt lat="46.2149817" lon="7.3587650"><ele></ele><time>2016-5-22T14:6:6Z</time></trkpt>
<trkpt lat="46.2150067" lon="7.3588533"><ele></ele><time>2016-5-22T14:6:9Z</time></trkpt>
<trkpt lat="46.2150283" lon="7.3589250"><ele></ele><time>2016-5-22T14:6:12Z</time></trkpt>
<trkpt lat="46.2150383" lon="7.3589950"><ele></ele><time>2016-5-22T14:6:15Z</time></trkpt>
<trkpt lat="46.2150783" lon="7.3590583"><ele></ele><time>2016-5-22T14:6:18Z</time></trkpt>
<trkpt lat="46.2151100" lon="7.3591217"><ele></ele><time>2016-5-22T14:6:21Z</time></trkpt>
<trkpt lat="46.2151383" lon="7.3592167"><ele></ele><time>2016-5-22T14:6:24Z</time></trkpt>
<trkpt lat="46.2151517" lon="7.3592817"><ele></ele><time>2016-5-22T14:6:27Z</time></trkpt>
<trkpt lat="46.2151567" lon="7.3593283"><ele></ele><time>2016-5-22T14:6:30Z</time></trkpt>
<trkpt lat="46.2151550" lon="7.3593950"><ele></ele><time>2016-5-22T14:6:33Z</time></trkpt>
<trkpt lat="46.2151833" lon="7.3594583"><ele></ele><time>2016-5-22T14:6:36Z</time></trkpt>
<trkpt lat="46.2151983" lon="7.3595300"><ele></ele><time>2016-5-22T14:6:39Z</time></trkpt>
<trkpt lat="46.2151933" lon="7.3595983"><ele></ele><time>2016-5-22T14:6:42Z</time></trkpt>
<trkpt lat="46.2151833" lon="7.3596800"><ele></ele><time>2016-5-22T14:6:45Z</time></trkpt>
<trkpt lat="46.2152100" lon="7.3597350"><ele></ele><time>2016-5-22T14:6:48Z</time></trkpt>
<trkpt lat="46.2152217" lon="7.3598117"><ele></ele><time>2016-5-22T14:6:51Z</time></trkpt>
<trkpt lat="46.2152383" lon="7.3598733"><ele></ele><time>2016-5-22T14:6:54Z</time></trkpt>
<trkpt lat="46.2152700" lon="7.3599217"><ele></ele><time>2016-5-22T14:6:57Z</time></trkpt>
<trkpt lat="46.2152817" lon="7.3599850"><ele></ele><time>2016-5-22T14:7:0Z</time></trkpt>
<trkpt lat="46.2153100" lon="7.3600500"><ele></ele><time>2016-5-22T14:7:3Z</time></trkpt>
<trkpt lat="46.2153350" lon="7.3601150"><ele></ele><time>2016-5-22T14:7:6Z</time></trkpt>
<trkpt lat="46.2153733" lon="7.3601917"><ele></ele><time>2016-5-22T14:7:9Z</time></trkpt>
<trkpt lat="46.2154083" lon="7.3602700"><ele></ele><time>2016-5-22T14:7:12Z</time></trkpt>
<trkpt lat="46.2154417" lon="7.3603683"><ele></ele><time>2016-5-22T14:7:15Z</time></trkpt>
<trkpt lat="46.2154783" lon="7.3604617"><ele></ele><time>2016-5-22T14:7:18Z</time></trkpt>
<trkpt lat="46.2155250" lon="7.3605400"><ele></ele><time>2016-5-22T14:7:21Z</time></trkpt>
<trkpt lat="46.2155650" lon="7.3606017"><ele></ele><time>2016-5-22T14:7:24Z</time></trkpt>
<trkpt lat="46.2156017" lon="7.3606533"><ele></ele><time>2016-5-22T14:7:27Z</time></trkpt>
<trkpt lat="46.2156383" lon="7.3606800"><ele></ele><time>2016-5-22T14:7:30Z</time></trkpt>
<trkpt lat="46.2156650" lon="7.3606817"><ele></ele><time>2016-5-22T14:7:33Z</time></trkpt>
<trkpt lat="46.2156983" lon="7.3606733"><ele></ele><time>2016-5-22T14:7:36Z</time></trkpt>
<trkpt lat="46.2156983" lon="7.3606733"><ele></ele><time>2016-5-22T14:7:39Z</time></trkpt>
<trkpt lat="46.2157317" lon="7.3606867"><ele></ele><time>2016-5-22T14:7:42Z</time></trkpt>
<trkpt lat="46.2157717" lon="7.3606883"><ele></ele><time>2016-5-22T14:7:45Z</time></trkpt>
<trkpt lat="46.2157933" lon="7.3606933"><ele></ele><time>2016-5-22T14:7:48Z</time></trkpt>
<trkpt lat="46.2158167" lon="7.3606667"><ele></ele><time>2016-5-22T14:7:51Z</time></trkpt>
<trkpt lat="46.2158217" lon="7.3606283"><ele></ele><time>2016-5-22T14:7:54Z</time></trkpt>
<trkpt lat="46.2158317" lon="7.3605850"><ele></ele><time>2016-5-22T14:7:57Z</time></trkpt>
<trkpt lat="46.2158333" lon="7.3605700"><ele></ele><time>2016-5-22T14:8:0Z</time></trkpt>
<trkpt lat="46.2158433" lon="7.3605450"><ele></ele><time>2016-5-22T14:8:3Z</time></trkpt>
<trkpt lat="46.2158583" lon="7.3605250"><ele></ele><time>2016-5-22T14:8:6Z</time></trkpt>
<trkpt lat="46.2158700" lon="7.3605117"><ele></ele><time>2016-5-22T14:8:9Z</time></trkpt>
<trkpt lat="46.2158700" lon="7.3605117"><ele></ele><time>2016-5-22T14:8:12Z</time></trkpt>
<trkpt lat="46.2158733" lon="7.3605067"><ele></ele><time>2016-5-22T14:8:15Z</time></trkpt>
<trkpt lat="46.2158733" lon="7.3605067"><ele></ele><time>2016-5-22T14:8:18Z</time></trkpt>
<trkpt lat="46.2158667" lon="7.3605117"><ele></ele><time>2016-5-22T14:8:21Z</time></trkpt>
<trkpt lat="46.2158700" lon="7.3605200"><ele></ele><time>2016-5-22T14:8:24Z</time></trkpt>
<trkpt lat="46.2158750" lon="7.3605233"><ele></ele><time>2016-5-22T14:8:27Z</time></trkpt>
<trkpt lat="46.2158817" lon="7.3605233"><ele></ele><time>2016-5-22T14:8:30Z</time></trkpt>
<trkpt lat="46.2158967" lon="7.3605167"><ele></ele><time>2016-5-22T14:8:33Z</time></trkpt>
<trkpt lat="46.2159183" lon="7.3605050"><ele></ele><time>2016-5-22T14:8:36Z</time></trkpt>
<trkpt lat="46.2159400" lon="7.3604967"><ele></ele><time>2016-5-22T14:8:39Z</time></trkpt>
<trkpt lat="46.2159167" lon="7.3604417"><ele></ele><time>2016-5-22T14:8:42Z</time></trkpt>
<trkpt lat="46.2159133" lon="7.3604350"><ele></ele><time>2016-5-22T14:8:45Z</time></trkpt>
<trkpt lat="46.2159133" lon="7.3604350"><ele></ele><time>2016-5-22T14:8:48Z</time></trkpt>
<trkpt lat="46.2159133" lon="7.3604350"><ele></ele><time>2016-5-22T14:8:51Z</time></trkpt>
<trkpt lat="46.2159133" lon="7.3604350"><ele></ele><time>2016-5-22T14:8:54Z</time></trkpt>
<trkpt lat="46.2159150" lon="7.3604383"><ele></ele><time>2016-5-22T14:8:57Z</time></trkpt>
<trkpt lat="46.2159133" lon="7.3604350"><ele></ele><time>2016-5-22T14:9:0Z</time></trkpt>
<trkpt lat="46.2159133" lon="7.3604350"><ele></ele><time>2016-5-22T14:9:3Z</time></trkpt>
<trkpt lat="46.2159133" lon="7.3604350"><ele></ele><time>2016-5-22T14:9:6Z</time></trkpt>
<trkpt lat="46.2159133" lon="7.3604350"><ele></ele><time>2016-5-22T14:9:9Z</time></trkpt>
<trkpt lat="46.2159133" lon="7.3604350"><ele></ele><time>2016-5-22T14:9:12Z</time></trkpt>
<trkpt lat="46.2162600" lon="7.3609583"><ele></ele><time>2016-5-22T14:9:15Z</time></trkpt>
<trkpt lat="46.2162817" lon="7.3610517"><ele></ele><time>2016-5-22T14:9:18Z</time></trkpt>
<trkpt lat="46.2163233" lon="7.3611217"><ele></ele><time>2016-5-22T14:9:21Z</time></trkpt>
<trkpt lat="46.2163433" lon="7.3612000"><ele></ele><time>2016-5-22T14:9:24Z</time></trkpt>
<trkpt lat="46.2163600" lon="7.3612667"><ele></ele><time>2016-5-22T14:9:27Z</time></trkpt>
<trkpt lat="46.2163600" lon="7.3613317"><ele></ele><time>2016-5-22T14:9:30Z</time></trkpt>
<trkpt lat="46.2163633" lon="7.3614250"><ele></ele><time>2016-5-22T14:9:33Z</time></trkpt>
<trkpt lat="46.2163700" lon="7.3615000"><ele></ele><time>2016-5-22T14:9:36Z</time></trkpt>
<trkpt lat="46.2163883" lon="7.3615433"><ele></ele><time>2016-5-22T14:9:39Z</time></trkpt>
<trkpt lat="46.2163833" lon="7.3615300"><ele></ele><time>2016-5-22T14:9:42Z</time></trkpt>
<trkpt lat="46.2166783" lon="7.3620250"><ele></ele><time>2016-5-22T14:9:45Z</time></trkpt>
<trkpt lat="46.2163800" lon="7.3615217"><ele></ele><time>2016-5-22T14:9:48Z</time></trkpt>
<trkpt lat="46.2163517" lon="7.3613650"><ele></ele><time>2016-5-22T14:9:51Z</time></trkpt>
<trkpt lat="46.2163567" lon="7.3612450"><ele></ele><time>2016-5-22T14:9:54Z</time></trkpt>
<trkpt lat="46.2163700" lon="7.3611600"><ele></ele><time>2016-5-22T14:9:57Z</time></trkpt>
<trkpt lat="46.2163917" lon="7.3610717"><ele></ele><time>2016-5-22T14:10:0Z</time></trkpt>
<trkpt lat="46.2164033" lon="7.3610233"><ele></ele><time>2016-5-22T14:10:3Z</time></trkpt>
<trkpt lat="46.2164100" lon="7.3610017"><ele></ele><time>2016-5-22T14:10:6Z</time></trkpt>
<trkpt lat="46.2164267" lon="7.3609533"><ele></ele><time>2016-5-22T14:10:9Z</time></trkpt>
<trkpt lat="46.2164267" lon="7.3609517"><ele></ele><time>2016-5-22T14:10:12Z</time></trkpt>
<trkpt lat="46.2166250" lon="7.3614333"><ele></ele><time>2016-5-22T14:10:15Z</time></trkpt>
<trkpt lat="46.2164917" lon="7.3610617"><ele></ele><time>2016-5-22T14:10:18Z</time></trkpt>
<trkpt lat="46.2164900" lon="7.3610600"><ele></ele><time>2016-5-22T14:10:21Z</time></trkpt>
<trkpt lat="46.2164900" lon="7.3610583"><ele></ele><time>2016-5-22T14:10:24Z</time></trkpt>
<trkpt lat="46.2164900" lon="7.3610583"><ele></ele><time>2016-5-22T14:10:27Z</time></trkpt>
<trkpt lat="46.2164900" lon="7.3610583"><ele></ele><time>2016-5-22T14:10:30Z</time></trkpt>
<trkpt lat="46.2164900" lon="7.3610583"><ele></ele><time>2016-5-22T14:10:33Z</time></trkpt>
<trkpt lat="46.2164900" lon="7.3610583"><ele></ele><time>2016-5-22T14:10:36Z</time></trkpt>
<trkpt lat="46.2164900" lon="7.3610583"><ele></ele><time>2016-5-22T14:10:39Z</time></trkpt>
<trkpt lat="46.2164900" lon="7.3610583"><ele></ele><time>2016-5-22T14:10:42Z</time></trkpt>
<trkpt lat="46.2164900" lon="7.3610583"><ele></ele><time>2016-5-22T14:10:45Z</time></trkpt>
<trkpt lat="46.2164900" lon="7.3610583"><ele></ele><time>2016-5-22T14:10:48Z</time></trkpt>
<trkpt lat="46.2164900" lon="7.3610583"><ele></ele><time>2016-5-22T14:10:51Z</time></trkpt>
<trkpt lat="46.2164900" lon="7.3610583"><ele></ele><time>2016-5-22T14:10:54Z</time></trkpt>
<trkpt lat="46.2164900" lon="7.3610583"><ele></ele><time>2016-5-22T14:10:57Z</time></trkpt>
<trkpt lat="46.2164900" lon="7.3610583"><ele></ele><time>2016-5-22T14:11:0Z</time></trkpt>
<trkpt lat="46.2164900" lon="7.3610583"><ele></ele><time>2016-5-22T14:11:3Z</time></trkpt>
<trkpt lat="46.2164900" lon="7.3610583"><ele></ele><time>2016-5-22T14:11:6Z</time></trkpt>
<trkpt lat="46.2164900" lon="7.3610583"><ele></ele><time>2016-5-22T14:11:9Z</time></trkpt>
<trkpt lat="46.2164900" lon="7.3610583"><ele></ele><time>2016-5-22T14:11:12Z</time></trkpt>
<trkpt lat="46.2164900" lon="7.3610583"><ele></ele><time>2016-5-22T14:11:15Z</time></trkpt>
<trkpt lat="46.2164900" lon="7.3610583"><ele></ele><time>2016-5-22T14:11:18Z</time></trkpt>
<trkpt lat="46.2164900" lon="7.3610583"><ele></ele><time>2016-5-22T14:11:21Z</time></trkpt>
<trkpt lat="46.2164900" lon="7.3610583"><ele></ele><time>2016-5-22T14:11:24Z</time></trkpt>
<trkpt lat="46.2164900" lon="7.3610583"><ele></ele><time>2016-5-22T14:11:27Z</time></trkpt>
<trkpt lat="46.2164900" lon="7.3610583"><ele></ele><time>2016-5-22T14:11:30Z</time></trkpt>
<trkpt lat="46.2164900" lon="7.3610583"><ele></ele><time>2016-5-22T14:11:33Z</time></trkpt>
<trkpt lat="46.2164900" lon="7.3610583"><ele></ele><time>2016-5-22T14:11:36Z</time></trkpt>
<trkpt lat="46.2164900" lon="7.3610600"><ele></ele><time>2016-5-22T14:11:39Z</time></trkpt>
<trkpt lat="46.2164900" lon="7.3610600"><ele></ele><time>2016-5-22T14:11:42Z</time></trkpt>
<trkpt lat="46.2164900" lon="7.3610583"><ele></ele><time>2016-5-22T14:11:45Z</time></trkpt>
<trkpt lat="46.2164900" lon="7.3610583"><ele></ele><time>2016-5-22T14:11:48Z</time></trkpt>
<trkpt lat="46.2164900" lon="7.3610583"><ele></ele><time>2016-5-22T14:11:51Z</time></trkpt>
<trkpt lat="46.2164900" lon="7.3610583"><ele></ele><time>2016-5-22T14:11:54Z</time></trkpt>
<trkpt lat="46.2164900" lon="7.3610583"><ele></ele><time>2016-5-22T14:11:57Z</time></trkpt>
<trkpt lat="46.2164900" lon="7.3610583"><ele></ele><time>2016-5-22T14:12:0Z</time></trkpt>
<trkpt lat="46.2164900" lon="7.3610583"><ele></ele><time>2016-5-22T14:12:3Z</time></trkpt>
<trkpt lat="46.2164900" lon="7.3610583"><ele></ele><time>2016-5-22T14:12:6Z</time></trkpt>
<trkpt lat="46.2164900" lon="7.3610583"><ele></ele><time>2016-5-22T14:12:9Z</time></trkpt>
<trkpt lat="46.2164900" lon="7.3610583"><ele></ele><time>2016-5-22T14:12:12Z</time></trkpt>
<trkpt lat="46.2164900" lon="7.3610583"><ele></ele><time>2016-5-22T14:12:15Z</time></trkpt>
<trkpt lat="46.2164900" lon="7.3610583"><ele></ele><time>2016-5-22T14:12:18Z</time></trkpt>
<trkpt lat="46.2164900" lon="7.3610583"><ele></ele><time>2016-5-22T14:12:21Z</time></trkpt>
<trkpt lat="46.2164900" lon="7.3610583"><ele></ele><time>2016-5-22T14:12:24Z</time></trkpt>
<trkpt lat="46.2164900" lon="7.3610583"><ele></ele><time>2016-5-22T14:12:27Z</time></trkpt>
<trkpt lat="46.2164900" lon="7.3610583"><ele></ele><time>2016-5-22T14:12:30Z</time></trkpt>
<trkpt lat="46.2164900" lon="7.3610583"><ele></ele><time>2016-5-22T14:12:33Z</time></trkpt>
<trkpt lat="46.2164900" lon="7.3610583"><ele></ele><time>2016-5-22T14:12:36Z</time></trkpt>
<trkpt lat="46.2164900" lon="7.3610583"><ele></ele><time>2016-5-22T14:12:39Z</time></trkpt>
<trkpt lat="46.2164900" lon="7.3610583"><ele></ele><time>2016-5-22T14:12:42Z</time></trkpt>
<trkpt lat="46.2164900" lon="7.3610583"><ele></ele><time>2016-5-22T14:12:45Z</time></trkpt>
<trkpt lat="46.2164900" lon="7.3610583"><ele></ele><time>2016-5-22T14:12:48Z</time></trkpt>
<trkpt lat="46.2164900" lon="7.3610583"><ele></ele><time>2016-5-22T14:12:51Z</time></trkpt>
<trkpt lat="46.2164900" lon="7.3610583"><ele></ele><time>2016-5-22T14:12:54Z</time></trkpt>
<trkpt lat="46.2164900" lon="7.3610583"><ele></ele><time>2016-5-22T14:12:57Z</time></trkpt>
<trkpt lat="46.2164900" lon="7.3610583"><ele></ele><time>2016-5-22T14:13:0Z</time></trkpt>
<trkpt lat="46.2164850" lon="7.3610400"><ele></ele><time>2016-5-22T14:13:3Z</time></trkpt>
<trkpt lat="46.2164800" lon="7.3610233"><ele></ele><time>2016-5-22T14:13:6Z</time></trkpt>
<trkpt lat="46.2164800" lon="7.3610233"><ele></ele><time>2016-5-22T14:13:9Z</time></trkpt>
<trkpt lat="46.2164800" lon="7.3610267"><ele></ele><time>2016-5-22T14:13:12Z</time></trkpt>
<trkpt lat="46.2164883" lon="7.3610517"><ele></ele><time>2016-5-22T14:13:15Z</time></trkpt>
<trkpt lat="46.2165117" lon="7.3611317"><ele></ele><time>2016-5-22T14:13:18Z</time></trkpt>
<trkpt lat="46.2165183" lon="7.3611517"><ele></ele><time>2016-5-22T14:13:21Z</time></trkpt>
<trkpt lat="46.2165317" lon="7.3612083"><ele></ele><time>2016-5-22T14:13:24Z</time></trkpt>
<trkpt lat="46.2165517" lon="7.3612767"><ele></ele><time>2016-5-22T14:13:27Z</time></trkpt>
<trkpt lat="46.2165783" lon="7.3613383"><ele></ele><time>2016-5-22T14:13:30Z</time></trkpt>
<trkpt lat="46.2166150" lon="7.3614117"><ele></ele><time>2016-5-22T14:13:33Z</time></trkpt>
<trkpt lat="46.2166533" lon="7.3614783"><ele></ele><time>2016-5-22T14:13:36Z</time></trkpt>
<trkpt lat="46.2166933" lon="7.3615400"><ele></ele><time>2016-5-22T14:13:39Z</time></trkpt>
<trkpt lat="46.2166950" lon="7.3615417"><ele></ele><time>2016-5-22T14:13:42Z</time></trkpt>
<trkpt lat="46.2167850" lon="7.3616417"><ele></ele><time>2016-5-22T14:13:45Z</time></trkpt>
<trkpt lat="46.2168733" lon="7.3617050"><ele></ele><time>2016-5-22T14:13:48Z</time></trkpt>
<trkpt lat="46.2169617" lon="7.3617700"><ele></ele><time>2016-5-22T14:13:51Z</time></trkpt>
<trkpt lat="46.2170367" lon="7.3618400"><ele></ele><time>2016-5-22T14:13:54Z</time></trkpt>
<trkpt lat="46.2171050" lon="7.3619117"><ele></ele><time>2016-5-22T14:13:57Z</time></trkpt>
<trkpt lat="46.2171767" lon="7.3619967"><ele></ele><time>2016-5-22T14:14:0Z</time></trkpt>
<trkpt lat="46.2172333" lon="7.3620633"><ele></ele><time>2016-5-22T14:14:3Z</time></trkpt>
<trkpt lat="46.2172883" lon="7.3621300"><ele></ele><time>2016-5-22T14:14:6Z</time></trkpt>
<trkpt lat="46.2173383" lon="7.3621883"><ele></ele><time>2016-5-22T14:14:9Z</time></trkpt>
<trkpt lat="46.2173850" lon="7.3622433"><ele></ele><time>2016-5-22T14:14:12Z</time></trkpt>
<trkpt lat="46.2174217" lon="7.3622883"><ele></ele><time>2016-5-22T14:14:15Z</time></trkpt>
<trkpt lat="46.2174500" lon="7.3623267"><ele></ele><time>2016-5-22T14:14:18Z</time></trkpt>
<trkpt lat="46.2174783" lon="7.3623683"><ele></ele><time>2016-5-22T14:14:21Z</time></trkpt>
<trkpt lat="46.2174950" lon="7.3623933"><ele></ele><time>2016-5-22T14:14:24Z</time></trkpt>
<trkpt lat="46.2175083" lon="7.3624133"><ele></ele><time>2016-5-22T14:14:27Z</time></trkpt>
<trkpt lat="46.2175200" lon="7.3624333"><ele></ele><time>2016-5-22T14:14:30Z</time></trkpt>
<trkpt lat="46.2175300" lon="7.3624483"><ele></ele><time>2016-5-22T14:14:33Z</time></trkpt>
<trkpt lat="46.2175267" lon="7.3624450"><ele></ele><time>2016-5-22T14:14:36Z</time></trkpt>
<trkpt lat="46.2175300" lon="7.3624483"><ele></ele><time>2016-5-22T14:14:39Z</time></trkpt>
<trkpt lat="46.2175300" lon="7.3624483"><ele></ele><time>2016-5-22T14:14:42Z</time></trkpt>
<trkpt lat="46.2175300" lon="7.3624483"><ele></ele><time>2016-5-22T14:14:45Z</time></trkpt>
<trkpt lat="46.2175300" lon="7.3624483"><ele></ele><time>2016-5-22T14:14:48Z</time></trkpt>
<trkpt lat="46.2175317" lon="7.3624483"><ele></ele><time>2016-5-22T14:14:51Z</time></trkpt>
<trkpt lat="46.2175450" lon="7.3624450"><ele></ele><time>2016-5-22T14:14:54Z</time></trkpt>
<trkpt lat="46.2176600" lon="7.3623633"><ele></ele><time>2016-5-22T14:14:57Z</time></trkpt>
<trkpt lat="46.2176867" lon="7.3623617"><ele></ele><time>2016-5-22T14:15:0Z</time></trkpt>
<trkpt lat="46.2176983" lon="7.3623650"><ele></ele><time>2016-5-22T14:15:3Z</time></trkpt>
<trkpt lat="46.2177050" lon="7.3623667"><ele></ele><time>2016-5-22T14:15:6Z</time></trkpt>
<trkpt lat="46.2177117" lon="7.3623700"><ele></ele><time>2016-5-22T14:15:9Z</time></trkpt>
<trkpt lat="46.2177133" lon="7.3623717"><ele></ele><time>2016-5-22T14:15:12Z</time></trkpt>
<trkpt lat="46.2177067" lon="7.3623683"><ele></ele><time>2016-5-22T14:15:15Z</time></trkpt>
<trkpt lat="46.2177083" lon="7.3623683"><ele></ele><time>2016-5-22T14:15:18Z</time></trkpt>
<trkpt lat="46.2177083" lon="7.3623683"><ele></ele><time>2016-5-22T14:15:21Z</time></trkpt>
<trkpt lat="46.2177067" lon="7.3623683"><ele></ele><time>2016-5-22T14:15:24Z</time></trkpt>
<trkpt lat="46.2177083" lon="7.3623683"><ele></ele><time>2016-5-22T14:15:27Z</time></trkpt>
<trkpt lat="46.2177083" lon="7.3623683"><ele></ele><time>2016-5-22T14:15:30Z</time></trkpt>
<trkpt lat="46.2176667" lon="7.3623600"><ele></ele><time>2016-5-22T14:15:33Z</time></trkpt>
<trkpt lat="46.2176667" lon="7.3623617"><ele></ele><time>2016-5-22T14:15:36Z</time></trkpt>
<trkpt lat="46.2178100" lon="7.3625183"><ele></ele><time>2016-5-22T14:15:39Z</time></trkpt>
<trkpt lat="46.2177783" lon="7.3624517"><ele></ele><time>2016-5-22T14:15:42Z</time></trkpt>
<trkpt lat="46.2177667" lon="7.3624283"><ele></ele><time>2016-5-22T14:15:45Z</time></trkpt>
<trkpt lat="46.2177600" lon="7.3624167"><ele></ele><time>2016-5-22T14:15:48Z</time></trkpt>
<trkpt lat="46.2177617" lon="7.3624183"><ele></ele><time>2016-5-22T14:15:51Z</time></trkpt>
<trkpt lat="46.2177583" lon="7.3624133"><ele></ele><time>2016-5-22T14:15:54Z</time></trkpt>
<trkpt lat="46.2177600" lon="7.3624167"><ele></ele><time>2016-5-22T14:15:57Z</time></trkpt>
<trkpt lat="46.2177583" lon="7.3624133"><ele></ele><time>2016-5-22T14:16:0Z</time></trkpt>
<trkpt lat="46.2177600" lon="7.3624167"><ele></ele><time>2016-5-22T14:16:3Z</time></trkpt>
<trkpt lat="46.2177583" lon="7.3624150"><ele></ele><time>2016-5-22T14:16:6Z</time></trkpt>
<trkpt lat="46.2176050" lon="7.3624417"><ele></ele><time>2016-5-22T14:16:9Z</time></trkpt>
<trkpt lat="46.2175950" lon="7.3624533"><ele></ele><time>2016-5-22T14:16:12Z</time></trkpt>
<trkpt lat="46.2175850" lon="7.3624617"><ele></ele><time>2016-5-22T14:16:15Z</time></trkpt>
<trkpt lat="46.2175767" lon="7.3624717"><ele></ele><time>2016-5-22T14:16:18Z</time></trkpt>
<trkpt lat="46.2175700" lon="7.3624867"><ele></ele><time>2016-5-22T14:16:21Z</time></trkpt>
<trkpt lat="46.2175667" lon="7.3625017"><ele></ele><time>2016-5-22T14:16:24Z</time></trkpt>
<trkpt lat="46.2175700" lon="7.3625183"><ele></ele><time>2016-5-22T14:16:27Z</time></trkpt>
<trkpt lat="46.2175783" lon="7.3625333"><ele></ele><time>2016-5-22T14:16:30Z</time></trkpt>
<trkpt lat="46.2175917" lon="7.3625550"><ele></ele><time>2016-5-22T14:16:33Z</time></trkpt>
<trkpt lat="46.2176050" lon="7.3625767"><ele></ele><time>2016-5-22T14:16:36Z</time></trkpt>
<trkpt lat="46.2176167" lon="7.3626033"><ele></ele><time>2016-5-22T14:16:39Z</time></trkpt>
<trkpt lat="46.2176333" lon="7.3626333"><ele></ele><time>2016-5-22T14:16:42Z</time></trkpt>
<trkpt lat="46.2176433" lon="7.3626783"><ele></ele><time>2016-5-22T14:16:45Z</time></trkpt>
<trkpt lat="46.2176800" lon="7.3627050"><ele></ele><time>2016-5-22T14:16:48Z</time></trkpt>
<trkpt lat="46.2177050" lon="7.3627483"><ele></ele><time>2016-5-22T14:16:51Z</time></trkpt>
<trkpt lat="46.2177300" lon="7.3627950"><ele></ele><time>2016-5-22T14:16:54Z</time></trkpt>
<trkpt lat="46.2177550" lon="7.3628433"><ele></ele><time>2016-5-22T14:16:57Z</time></trkpt>
<trkpt lat="46.2177767" lon="7.3628933"><ele></ele><time>2016-5-22T14:17:0Z</time></trkpt>
<trkpt lat="46.2177517" lon="7.3629767"><ele></ele><time>2016-5-22T14:17:3Z</time></trkpt>
<trkpt lat="46.2177683" lon="7.3630300"><ele></ele><time>2016-5-22T14:17:6Z</time></trkpt>
<trkpt lat="46.2177800" lon="7.3630700"><ele></ele><time>2016-5-22T14:17:9Z</time></trkpt>
<trkpt lat="46.2177933" lon="7.3631167"><ele></ele><time>2016-5-22T14:17:12Z</time></trkpt>
<trkpt lat="46.2178067" lon="7.3631683"><ele></ele><time>2016-5-22T14:17:15Z</time></trkpt>
<trkpt lat="46.2178183" lon="7.3632150"><ele></ele><time>2016-5-22T14:17:18Z</time></trkpt>
<trkpt lat="46.2178517" lon="7.3633633"><ele></ele><time>2016-5-22T14:17:21Z</time></trkpt>
<trkpt lat="46.2178483" lon="7.3633450"><ele></ele><time>2016-5-22T14:17:24Z</time></trkpt>
<trkpt lat="46.2178633" lon="7.3634200"><ele></ele><time>2016-5-22T14:17:27Z</time></trkpt>
<trkpt lat="46.2178867" lon="7.3634983"><ele></ele><time>2016-5-22T14:17:30Z</time></trkpt>
<trkpt lat="46.2179200" lon="7.3635983"><ele></ele><time>2016-5-22T14:17:33Z</time></trkpt>
<trkpt lat="46.2179517" lon="7.3636883"><ele></ele><time>2016-5-22T14:17:36Z</time></trkpt>
<trkpt lat="46.2179883" lon="7.3637867"><ele></ele><time>2016-5-22T14:17:39Z</time></trkpt>
<trkpt lat="46.2180317" lon="7.3638900"><ele></ele><time>2016-5-22T14:17:42Z</time></trkpt>
<trkpt lat="46.2180700" lon="7.3639783"><ele></ele><time>2016-5-22T14:17:45Z</time></trkpt>
<trkpt lat="46.2181083" lon="7.3640600"><ele></ele><time>2016-5-22T14:17:48Z</time></trkpt>
<trkpt lat="46.2181300" lon="7.3641050"><ele></ele><time>2016-5-22T14:17:51Z</time></trkpt>
<trkpt lat="46.2181467" lon="7.3641583"><ele></ele><time>2016-5-22T14:17:54Z</time></trkpt>
<trkpt lat="46.2181633" lon="7.3642667"><ele></ele><time>2016-5-22T14:17:57Z</time></trkpt>
<trkpt lat="46.2181767" lon="7.3643750"><ele></ele><time>2016-5-22T14:18:0Z</time></trkpt>
<trkpt lat="46.2181933" lon="7.3645067"><ele></ele><time>2016-5-22T14:18:3Z</time></trkpt>
<trkpt lat="46.2182083" lon="7.3646367"><ele></ele><time>2016-5-22T14:18:6Z</time></trkpt>
<trkpt lat="46.2182217" lon="7.3647500"><ele></ele><time>2016-5-22T14:18:9Z</time></trkpt>
<trkpt lat="46.2182350" lon="7.3648767"><ele></ele><time>2016-5-22T14:18:12Z</time></trkpt>
<trkpt lat="46.2182483" lon="7.3649917"><ele></ele><time>2016-5-22T14:18:15Z</time></trkpt>
<trkpt lat="46.2182500" lon="7.3650017"><ele></ele><time>2016-5-22T14:18:18Z</time></trkpt>
<trkpt lat="46.2182500" lon="7.3650017"><ele></ele><time>2016-5-22T14:18:21Z</time></trkpt>
<trkpt lat="46.2182500" lon="7.3650017"><ele></ele><time>2016-5-22T14:18:24Z</time></trkpt>
<trkpt lat="46.2182500" lon="7.3650017"><ele></ele><time>2016-5-22T14:18:27Z</time></trkpt>
<trkpt lat="46.2182500" lon="7.3650017"><ele></ele><time>2016-5-22T14:18:30Z</time></trkpt>
<trkpt lat="46.2182517" lon="7.3650117"><ele></ele><time>2016-5-22T14:18:33Z</time></trkpt>
<trkpt lat="46.2182583" lon="7.3650583"><ele></ele><time>2016-5-22T14:18:36Z</time></trkpt>
<trkpt lat="46.2182617" lon="7.3650717"><ele></ele><time>2016-5-22T14:18:39Z</time></trkpt>
<trkpt lat="46.2183483" lon="7.3654650"><ele></ele><time>2016-5-22T14:18:42Z</time></trkpt>
<trkpt lat="46.2183667" lon="7.3654633"><ele></ele><time>2016-5-22T14:18:45Z</time></trkpt>
<trkpt lat="46.2183800" lon="7.3654783"><ele></ele><time>2016-5-22T14:18:48Z</time></trkpt>
<trkpt lat="46.2183950" lon="7.3654833"><ele></ele><time>2016-5-22T14:18:51Z</time></trkpt>
<trkpt lat="46.2184117" lon="7.3654950"><ele></ele><time>2016-5-22T14:18:54Z</time></trkpt>
<trkpt lat="46.2184250" lon="7.3655150"><ele></ele><time>2016-5-22T14:18:57Z</time></trkpt>
<trkpt lat="46.2184350" lon="7.3655217"><ele></ele><time>2016-5-22T14:19:0Z</time></trkpt>
<trkpt lat="46.2184467" lon="7.3655350"><ele></ele><time>2016-5-22T14:19:3Z</time></trkpt>
<trkpt lat="46.2184583" lon="7.3655517"><ele></ele><time>2016-5-22T14:19:6Z</time></trkpt>
<trkpt lat="46.2184683" lon="7.3655667"><ele></ele><time>2016-5-22T14:19:9Z</time></trkpt>
<trkpt lat="46.2184783" lon="7.3655883"><ele></ele><time>2016-5-22T14:19:12Z</time></trkpt>
<trkpt lat="46.2184883" lon="7.3656100"><ele></ele><time>2016-5-22T14:19:15Z</time></trkpt>
<trkpt lat="46.2184917" lon="7.3656333"><ele></ele><time>2016-5-22T14:19:18Z</time></trkpt>
<trkpt lat="46.2184967" lon="7.3656583"><ele></ele><time>2016-5-22T14:19:21Z</time></trkpt>
<trkpt lat="46.2185017" lon="7.3656850"><ele></ele><time>2016-5-22T14:19:24Z</time></trkpt>
<trkpt lat="46.2185067" lon="7.3657083"><ele></ele><time>2016-5-22T14:19:27Z</time></trkpt>
<trkpt lat="46.2185133" lon="7.3657317"><ele></ele><time>2016-5-22T14:19:30Z</time></trkpt>
<trkpt lat="46.2185217" lon="7.3657550"><ele></ele><time>2016-5-22T14:19:33Z</time></trkpt>
<trkpt lat="46.2185283" lon="7.3657833"><ele></ele><time>2016-5-22T14:19:36Z</time></trkpt>
<trkpt lat="46.2185367" lon="7.3658100"><ele></ele><time>2016-5-22T14:19:39Z</time></trkpt>
<trkpt lat="46.2185450" lon="7.3658383"><ele></ele><time>2016-5-22T14:19:42Z</time></trkpt>
<trkpt lat="46.2185533" lon="7.3658683"><ele></ele><time>2016-5-22T14:19:45Z</time></trkpt>
<trkpt lat="46.2185633" lon="7.3658983"><ele></ele><time>2016-5-22T14:19:48Z</time></trkpt>
<trkpt lat="46.2185733" lon="7.3659250"><ele></ele><time>2016-5-22T14:19:51Z</time></trkpt>
<trkpt lat="46.2185833" lon="7.3659517"><ele></ele><time>2016-5-22T14:19:54Z</time></trkpt>
<trkpt lat="46.2185933" lon="7.3659750"><ele></ele><time>2016-5-22T14:19:57Z</time></trkpt>
<trkpt lat="46.2186033" lon="7.3659983"><ele></ele><time>2016-5-22T14:20:0Z</time></trkpt>
<trkpt lat="46.2186133" lon="7.3660217"><ele></ele><time>2016-5-22T14:20:3Z</time></trkpt>
<trkpt lat="46.2186233" lon="7.3660467"><ele></ele><time>2016-5-22T14:20:6Z</time></trkpt>
<trkpt lat="46.2186317" lon="7.3660733"><ele></ele><time>2016-5-22T14:20:9Z</time></trkpt>
<trkpt lat="46.2186433" lon="7.3660983"><ele></ele><time>2016-5-22T14:20:12Z</time></trkpt>
<trkpt lat="46.2186517" lon="7.3661233"><ele></ele><time>2016-5-22T14:20:15Z</time></trkpt>
<trkpt lat="46.2186600" lon="7.3661433"><ele></ele><time>2016-5-22T14:20:18Z</time></trkpt>
<trkpt lat="46.2186667" lon="7.3661650"><ele></ele><time>2016-5-22T14:20:21Z</time></trkpt>
<trkpt lat="46.2187050" lon="7.3662883"><ele></ele><time>2016-5-22T14:20:24Z</time></trkpt>
<trkpt lat="46.2186817" lon="7.3662383"><ele></ele><time>2016-5-22T14:20:27Z</time></trkpt>
<trkpt lat="46.2187033" lon="7.3662867"><ele></ele><time>2016-5-22T14:20:30Z</time></trkpt>
<trkpt lat="46.2187317" lon="7.3663450"><ele></ele><time>2016-5-22T14:20:33Z</time></trkpt>
<trkpt lat="46.2187583" lon="7.3664033"><ele></ele><time>2016-5-22T14:20:36Z</time></trkpt>
<trkpt lat="46.2187933" lon="7.3664750"><ele></ele><time>2016-5-22T14:20:39Z</time></trkpt>
<trkpt lat="46.2188233" lon="7.3665467"><ele></ele><time>2016-5-22T14:20:42Z</time></trkpt>
<trkpt lat="46.2188433" lon="7.3666017"><ele></ele><time>2016-5-22T14:20:45Z</time></trkpt>
<trkpt lat="46.2188600" lon="7.3666750"><ele></ele><time>2016-5-22T14:20:48Z</time></trkpt>
<trkpt lat="46.2188733" lon="7.3667450"><ele></ele><time>2016-5-22T14:20:51Z</time></trkpt>
<trkpt lat="46.2188917" lon="7.3668383"><ele></ele><time>2016-5-22T14:20:54Z</time></trkpt>
<trkpt lat="46.2189150" lon="7.3669267"><ele></ele><time>2016-5-22T14:20:57Z</time></trkpt>
<trkpt lat="46.2189450" lon="7.3670250"><ele></ele><time>2016-5-22T14:21:0Z</time></trkpt>
<trkpt lat="46.2189783" lon="7.3671017"><ele></ele><time>2016-5-22T14:21:3Z</time></trkpt>
<trkpt lat="46.2190233" lon="7.3671883"><ele></ele><time>2016-5-22T14:21:6Z</time></trkpt>
<trkpt lat="46.2190717" lon="7.3672717"><ele></ele><time>2016-5-22T14:21:9Z</time></trkpt>
<trkpt lat="46.2191250" lon="7.3673617"><ele></ele><time>2016-5-22T14:21:12Z</time></trkpt>
<trkpt lat="46.2191933" lon="7.3674767"><ele></ele><time>2016-5-22T14:21:15Z</time></trkpt>
<trkpt lat="46.2192517" lon="7.3675733"><ele></ele><time>2016-5-22T14:21:18Z</time></trkpt>
<trkpt lat="46.2193200" lon="7.3676817"><ele></ele><time>2016-5-22T14:21:21Z</time></trkpt>
<trkpt lat="46.2193833" lon="7.3677833"><ele></ele><time>2016-5-22T14:21:24Z</time></trkpt>
<trkpt lat="46.2194467" lon="7.3678917"><ele></ele><time>2016-5-22T14:21:27Z</time></trkpt>
<trkpt lat="46.2195067" lon="7.3680483"><ele></ele><time>2016-5-22T14:21:30Z</time></trkpt>
<trkpt lat="46.2195533" lon="7.3681833"><ele></ele><time>2016-5-22T14:21:33Z</time></trkpt>
<trkpt lat="46.2195983" lon="7.3683217"><ele></ele><time>2016-5-22T14:21:36Z</time></trkpt>
<trkpt lat="46.2196450" lon="7.3684550"><ele></ele><time>2016-5-22T14:21:39Z</time></trkpt>
<trkpt lat="46.2196850" lon="7.3685717"><ele></ele><time>2016-5-22T14:21:42Z</time></trkpt>
<trkpt lat="46.2197267" lon="7.3687050"><ele></ele><time>2016-5-22T14:21:45Z</time></trkpt>
<trkpt lat="46.2197550" lon="7.3688583"><ele></ele><time>2016-5-22T14:21:48Z</time></trkpt>
<trkpt lat="46.2197800" lon="7.3690017"><ele></ele><time>2016-5-22T14:21:51Z</time></trkpt>
<trkpt lat="46.2198033" lon="7.3691550"><ele></ele><time>2016-5-22T14:21:54Z</time></trkpt>
<trkpt lat="46.2198200" lon="7.3692983"><ele></ele><time>2016-5-22T14:21:57Z</time></trkpt>
<trkpt lat="46.2198333" lon="7.3694133"><ele></ele><time>2016-5-22T14:22:0Z</time></trkpt>
<trkpt lat="46.2198383" lon="7.3695083"><ele></ele><time>2016-5-22T14:22:3Z</time></trkpt>
<trkpt lat="46.2198233" lon="7.3696233"><ele></ele><time>2016-5-22T14:22:6Z</time></trkpt>
<trkpt lat="46.2197950" lon="7.3697400"><ele></ele><time>2016-5-22T14:22:9Z</time></trkpt>
<trkpt lat="46.2197600" lon="7.3698733"><ele></ele><time>2016-5-22T14:22:12Z</time></trkpt>
<trkpt lat="46.2197233" lon="7.3700100"><ele></ele><time>2016-5-22T14:22:15Z</time></trkpt>
<trkpt lat="46.2196983" lon="7.3701267"><ele></ele><time>2016-5-22T14:22:18Z</time></trkpt>
<trkpt lat="46.2197200" lon="7.3702267"><ele></ele><time>2016-5-22T14:22:21Z</time></trkpt>
<trkpt lat="46.2197400" lon="7.3702533"><ele></ele><time>2016-5-22T14:22:24Z</time></trkpt>
<trkpt lat="46.2197650" lon="7.3702833"><ele></ele><time>2016-5-22T14:22:27Z</time></trkpt>
<trkpt lat="46.2197883" lon="7.3703133"><ele></ele><time>2016-5-22T14:22:30Z</time></trkpt>
<trkpt lat="46.2198233" lon="7.3703533"><ele></ele><time>2016-5-22T14:22:33Z</time></trkpt>
<trkpt lat="46.2198733" lon="7.3704117"><ele></ele><time>2016-5-22T14:22:36Z</time></trkpt>
<trkpt lat="46.2199300" lon="7.3704783"><ele></ele><time>2016-5-22T14:22:39Z</time></trkpt>
<trkpt lat="46.2199817" lon="7.3705383"><ele></ele><time>2016-5-22T14:22:42Z</time></trkpt>
<trkpt lat="46.2200317" lon="7.3706050"><ele></ele><time>2016-5-22T14:22:45Z</time></trkpt>
<trkpt lat="46.2200750" lon="7.3706767"><ele></ele><time>2016-5-22T14:22:48Z</time></trkpt>
<trkpt lat="46.2201133" lon="7.3707467"><ele></ele><time>2016-5-22T14:22:51Z</time></trkpt>
<trkpt lat="46.2201567" lon="7.3708433"><ele></ele><time>2016-5-22T14:22:54Z</time></trkpt>
<trkpt lat="46.2201933" lon="7.3709300"><ele></ele><time>2016-5-22T14:22:57Z</time></trkpt>
<trkpt lat="46.2202250" lon="7.3709950"><ele></ele><time>2016-5-22T14:23:0Z</time></trkpt>
<trkpt lat="46.2202383" lon="7.3710133"><ele></ele><time>2016-5-22T14:23:3Z</time></trkpt>
<trkpt lat="46.2203350" lon="7.3710583"><ele></ele><time>2016-5-22T14:23:6Z</time></trkpt>
<trkpt lat="46.2204167" lon="7.3710933"><ele></ele><time>2016-5-22T14:23:9Z</time></trkpt>
<trkpt lat="46.2205017" lon="7.3711283"><ele></ele><time>2016-5-22T14:23:12Z</time></trkpt>
<trkpt lat="46.2205667" lon="7.3711617"><ele></ele><time>2016-5-22T14:23:15Z</time></trkpt>
<trkpt lat="46.2206283" lon="7.3711933"><ele></ele><time>2016-5-22T14:23:18Z</time></trkpt>
<trkpt lat="46.2206767" lon="7.3712200"><ele></ele><time>2016-5-22T14:23:21Z</time></trkpt>
<trkpt lat="46.2207150" lon="7.3712550"><ele></ele><time>2016-5-22T14:23:24Z</time></trkpt>
<trkpt lat="46.2207483" lon="7.3712867"><ele></ele><time>2016-5-22T14:23:27Z</time></trkpt>
<trkpt lat="46.2207867" lon="7.3713283"><ele></ele><time>2016-5-22T14:23:30Z</time></trkpt>
<trkpt lat="46.2208333" lon="7.3713867"><ele></ele><time>2016-5-22T14:23:33Z</time></trkpt>
<trkpt lat="46.2208900" lon="7.3714550"><ele></ele><time>2016-5-22T14:23:36Z</time></trkpt>
<trkpt lat="46.2209567" lon="7.3715067"><ele></ele><time>2016-5-22T14:23:39Z</time></trkpt>
<trkpt lat="46.2210300" lon="7.3715833"><ele></ele><time>2016-5-22T14:23:42Z</time></trkpt>
<trkpt lat="46.2211000" lon="7.3716633"><ele></ele><time>2016-5-22T14:23:45Z</time></trkpt>
<trkpt lat="46.2211633" lon="7.3717533"><ele></ele><time>2016-5-22T14:23:48Z</time></trkpt>
<trkpt lat="46.2212233" lon="7.3718433"><ele></ele><time>2016-5-22T14:23:51Z</time></trkpt>
<trkpt lat="46.2212800" lon="7.3719333"><ele></ele><time>2016-5-22T14:23:54Z</time></trkpt>
<trkpt lat="46.2213383" lon="7.3720200"><ele></ele><time>2016-5-22T14:23:57Z</time></trkpt>
<trkpt lat="46.2213850" lon="7.3720933"><ele></ele><time>2016-5-22T14:24:0Z</time></trkpt>
<trkpt lat="46.2213450" lon="7.3719683"><ele></ele><time>2016-5-22T14:24:3Z</time></trkpt>
<trkpt lat="46.2213600" lon="7.3719550"><ele></ele><time>2016-5-22T14:24:6Z</time></trkpt>
<trkpt lat="46.2214750" lon="7.3721583"><ele></ele><time>2016-5-22T14:24:9Z</time></trkpt>
<trkpt lat="46.2213800" lon="7.3719333"><ele></ele><time>2016-5-22T14:24:12Z</time></trkpt>
<trkpt lat="46.2214833" lon="7.3721383"><ele></ele><time>2016-5-22T14:24:15Z</time></trkpt>
<trkpt lat="46.2213833" lon="7.3719300"><ele></ele><time>2016-5-22T14:24:18Z</time></trkpt>
<trkpt lat="46.2214867" lon="7.3721383"><ele></ele><time>2016-5-22T14:24:21Z</time></trkpt>
<trkpt lat="46.2213850" lon="7.3719317"><ele></ele><time>2016-5-22T14:24:24Z</time></trkpt>
<trkpt lat="46.2213817" lon="7.3719267"><ele></ele><time>2016-5-22T14:24:27Z</time></trkpt>
<trkpt lat="46.2215133" lon="7.3722317"><ele></ele><time>2016-5-22T14:24:30Z</time></trkpt>
<trkpt lat="46.2215067" lon="7.3722117"><ele></ele><time>2016-5-22T14:24:33Z</time></trkpt>
<trkpt lat="46.2215083" lon="7.3722167"><ele></ele><time>2016-5-22T14:24:36Z</time></trkpt>
<trkpt lat="46.2215067" lon="7.3722133"><ele></ele><time>2016-5-22T14:24:39Z</time></trkpt>
<trkpt lat="46.2215083" lon="7.3722150"><ele></ele><time>2016-5-22T14:24:42Z</time></trkpt>
<trkpt lat="46.2215067" lon="7.3722117"><ele></ele><time>2016-5-22T14:24:45Z</time></trkpt>
<trkpt lat="46.2215067" lon="7.3722117"><ele></ele><time>2016-5-22T14:24:48Z</time></trkpt>
<trkpt lat="46.2215067" lon="7.3722117"><ele></ele><time>2016-5-22T14:24:51Z</time></trkpt>
<trkpt lat="46.2215067" lon="7.3722117"><ele></ele><time>2016-5-22T14:24:54Z</time></trkpt>
<trkpt lat="46.2215067" lon="7.3722133"><ele></ele><time>2016-5-22T14:24:57Z</time></trkpt>
<trkpt lat="46.2215067" lon="7.3722133"><ele></ele><time>2016-5-22T14:25:0Z</time></trkpt>
<trkpt lat="46.2215067" lon="7.3722133"><ele></ele><time>2016-5-22T14:25:3Z</time></trkpt>
<trkpt lat="46.2215133" lon="7.3722333"><ele></ele><time>2016-5-22T14:25:6Z</time></trkpt>
<trkpt lat="46.2215117" lon="7.3722183"><ele></ele><time>2016-5-22T14:25:9Z</time></trkpt>
<trkpt lat="46.2216233" lon="7.3721633"><ele></ele><time>2016-5-22T14:25:12Z</time></trkpt>
<trkpt lat="46.2217000" lon="7.3721467"><ele></ele><time>2016-5-22T14:25:15Z</time></trkpt>
<trkpt lat="46.2217633" lon="7.3721550"><ele></ele><time>2016-5-22T14:25:18Z</time></trkpt>
<trkpt lat="46.2218383" lon="7.3721667"><ele></ele><time>2016-5-22T14:25:21Z</time></trkpt>
<trkpt lat="46.2219317" lon="7.3721900"><ele></ele><time>2016-5-22T14:25:24Z</time></trkpt>
<trkpt lat="46.2220350" lon="7.3722000"><ele></ele><time>2016-5-22T14:25:27Z</time></trkpt>
<trkpt lat="46.2221317" lon="7.3722017"><ele></ele><time>2016-5-22T14:25:30Z</time></trkpt>
<trkpt lat="46.2222517" lon="7.3722100"><ele></ele><time>2016-5-22T14:25:33Z</time></trkpt>
<trkpt lat="46.2223683" lon="7.3722067"><ele></ele><time>2016-5-22T14:25:36Z</time></trkpt>
<trkpt lat="46.2224867" lon="7.3721917"><ele></ele><time>2016-5-22T14:25:39Z</time></trkpt>
<trkpt lat="46.2226000" lon="7.3721767"><ele></ele><time>2016-5-22T14:25:42Z</time></trkpt>
<trkpt lat="46.2227133" lon="7.3721717"><ele></ele><time>2016-5-22T14:25:45Z</time></trkpt>
<trkpt lat="46.2228283" lon="7.3721467"><ele></ele><time>2016-5-22T14:25:48Z</time></trkpt>
<trkpt lat="46.2229317" lon="7.3721200"><ele></ele><time>2016-5-22T14:25:51Z</time></trkpt>
<trkpt lat="46.2230350" lon="7.3720900"><ele></ele><time>2016-5-22T14:25:54Z</time></trkpt>
<trkpt lat="46.2231317" lon="7.3720067"><ele></ele><time>2016-5-22T14:25:57Z</time></trkpt>
<trkpt lat="46.2232317" lon="7.3719900"><ele></ele><time>2016-5-22T14:26:0Z</time></trkpt>
<trkpt lat="46.2233400" lon="7.3719650"><ele></ele><time>2016-5-22T14:26:3Z</time></trkpt>
<trkpt lat="46.2234500" lon="7.3719350"><ele></ele><time>2016-5-22T14:26:6Z</time></trkpt>
<trkpt lat="46.2235567" lon="7.3719033"><ele></ele><time>2016-5-22T14:26:9Z</time></trkpt>
<trkpt lat="46.2236617" lon="7.3718733"><ele></ele><time>2016-5-22T14:26:12Z</time></trkpt>
<trkpt lat="46.2237617" lon="7.3718383"><ele></ele><time>2016-5-22T14:26:15Z</time></trkpt>
<trkpt lat="46.2238367" lon="7.3718117"><ele></ele><time>2016-5-22T14:26:18Z</time></trkpt>
<trkpt lat="46.2239067" lon="7.3717867"><ele></ele><time>2016-5-22T14:26:21Z</time></trkpt>
<trkpt lat="46.2239650" lon="7.3717667"><ele></ele><time>2016-5-22T14:26:24Z</time></trkpt>
<trkpt lat="46.2240017" lon="7.3717533"><ele></ele><time>2016-5-22T14:26:27Z</time></trkpt>
<trkpt lat="46.2240283" lon="7.3717433"><ele></ele><time>2016-5-22T14:26:30Z</time></trkpt>
<trkpt lat="46.2240450" lon="7.3717367"><ele></ele><time>2016-5-22T14:26:33Z</time></trkpt>
<trkpt lat="46.2240650" lon="7.3717300"><ele></ele><time>2016-5-22T14:26:36Z</time></trkpt>
<trkpt lat="46.2240650" lon="7.3717300"><ele></ele><time>2016-5-22T14:26:39Z</time></trkpt>
<trkpt lat="46.2240650" lon="7.3717300"><ele></ele><time>2016-5-22T14:26:42Z</time></trkpt>
<trkpt lat="46.2240650" lon="7.3717300"><ele></ele><time>2016-5-22T14:26:45Z</time></trkpt>
<trkpt lat="46.2240650" lon="7.3717300"><ele></ele><time>2016-5-22T14:26:48Z</time></trkpt>
<trkpt lat="46.2240683" lon="7.3717283"><ele></ele><time>2016-5-22T14:26:51Z</time></trkpt>
<trkpt lat="46.2240650" lon="7.3717300"><ele></ele><time>2016-5-22T14:26:54Z</time></trkpt>
<trkpt lat="46.2240667" lon="7.3717283"><ele></ele><time>2016-5-22T14:26:57Z</time></trkpt>
<trkpt lat="46.2240683" lon="7.3717283"><ele></ele><time>2016-5-22T14:27:0Z</time></trkpt>
<trkpt lat="46.2242150" lon="7.3716633"><ele></ele><time>2016-5-22T14:27:3Z</time></trkpt>
<trkpt lat="46.2242350" lon="7.3716550"><ele></ele><time>2016-5-22T14:27:6Z</time></trkpt>
<trkpt lat="46.2242550" lon="7.3716467"><ele></ele><time>2016-5-22T14:27:9Z</time></trkpt>
<trkpt lat="46.2242700" lon="7.3716400"><ele></ele><time>2016-5-22T14:27:12Z</time></trkpt>
<trkpt lat="46.2242667" lon="7.3716233"><ele></ele><time>2016-5-22T14:27:15Z</time></trkpt>
<trkpt lat="46.2242667" lon="7.3716233"><ele></ele><time>2016-5-22T14:27:18Z</time></trkpt>
<trkpt lat="46.2242417" lon="7.3716117"><ele></ele><time>2016-5-22T14:27:21Z</time></trkpt>
<trkpt lat="46.2242417" lon="7.3716117"><ele></ele><time>2016-5-22T14:27:24Z</time></trkpt>
<trkpt lat="46.2242417" lon="7.3716117"><ele></ele><time>2016-5-22T14:27:27Z</time></trkpt>
<trkpt lat="46.2242417" lon="7.3716117"><ele></ele><time>2016-5-22T14:27:30Z</time></trkpt>
<trkpt lat="46.2242417" lon="7.3716117"><ele></ele><time>2016-5-22T14:27:33Z</time></trkpt>
<trkpt lat="46.2242417" lon="7.3716117"><ele></ele><time>2016-5-22T14:27:36Z</time></trkpt>
<trkpt lat="46.2242417" lon="7.3716117"><ele></ele><time>2016-5-22T14:27:39Z</time></trkpt>
<trkpt lat="46.2242417" lon="7.3716117"><ele></ele><time>2016-5-22T14:27:42Z</time></trkpt>
<trkpt lat="46.2242417" lon="7.3716117"><ele></ele><time>2016-5-22T14:27:45Z</time></trkpt>
<trkpt lat="46.2242417" lon="7.3716117"><ele></ele><time>2016-5-22T14:27:48Z</time></trkpt>
<trkpt lat="46.2242417" lon="7.3716117"><ele></ele><time>2016-5-22T14:27:51Z</time></trkpt>
<trkpt lat="46.2242417" lon="7.3716117"><ele></ele><time>2016-5-22T14:27:54Z</time></trkpt>
<trkpt lat="46.2242417" lon="7.3716117"><ele></ele><time>2016-5-22T14:27:57Z</time></trkpt>
<trkpt lat="46.2242417" lon="7.3716117"><ele></ele><time>2016-5-22T14:28:0Z</time></trkpt>
<trkpt lat="46.2242417" lon="7.3716117"><ele></ele><time>2016-5-22T14:28:3Z</time></trkpt>
<trkpt lat="46.2242417" lon="7.3716117"><ele></ele><time>2016-5-22T14:28:6Z</time></trkpt>
<trkpt lat="46.2242250" lon="7.3716217"><ele></ele><time>2016-5-22T14:28:9Z</time></trkpt>
<trkpt lat="46.2242250" lon="7.3716217"><ele></ele><time>2016-5-22T14:28:12Z</time></trkpt>
<trkpt lat="46.2242250" lon="7.3716217"><ele></ele><time>2016-5-22T14:28:15Z</time></trkpt>
<trkpt lat="46.2242250" lon="7.3716217"><ele></ele><time>2016-5-22T14:28:18Z</time></trkpt>
<trkpt lat="46.2242250" lon="7.3716217"><ele></ele><time>2016-5-22T14:28:21Z</time></trkpt>
<trkpt lat="46.2242317" lon="7.3716150"><ele></ele><time>2016-5-22T14:28:24Z</time></trkpt>
<trkpt lat="46.2242317" lon="7.3716150"><ele></ele><time>2016-5-22T14:28:27Z</time></trkpt>
<trkpt lat="46.2242350" lon="7.3716133"><ele></ele><time>2016-5-22T14:28:30Z</time></trkpt>
<trkpt lat="46.2242350" lon="7.3716133"><ele></ele><time>2016-5-22T14:28:33Z</time></trkpt>
<trkpt lat="46.2242350" lon="7.3716133"><ele></ele><time>2016-5-22T14:28:36Z</time></trkpt>
<trkpt lat="46.2242350" lon="7.3716133"><ele></ele><time>2016-5-22T14:28:39Z</time></trkpt>
<trkpt lat="46.2242367" lon="7.3716067"><ele></ele><time>2016-5-22T14:28:42Z</time></trkpt>
<trkpt lat="46.2242367" lon="7.3716067"><ele></ele><time>2016-5-22T14:28:45Z</time></trkpt>
<trkpt lat="46.2242333" lon="7.3716083"><ele></ele><time>2016-5-22T14:28:48Z</time></trkpt>
<trkpt lat="46.2242283" lon="7.3716117"><ele></ele><time>2016-5-22T14:28:51Z</time></trkpt>
<trkpt lat="46.2242283" lon="7.3716117"><ele></ele><time>2016-5-22T14:28:54Z</time></trkpt>
<trkpt lat="46.2242283" lon="7.3716117"><ele></ele><time>2016-5-22T14:28:57Z</time></trkpt>
<trkpt lat="46.2242283" lon="7.3716117"><ele></ele><time>2016-5-22T14:29:0Z</time></trkpt>
<trkpt lat="46.2242083" lon="7.3716233"><ele></ele><time>2016-5-22T14:29:3Z</time></trkpt>
<trkpt lat="46.2242083" lon="7.3716233"><ele></ele><time>2016-5-22T14:29:6Z</time></trkpt>
<trkpt lat="46.2242083" lon="7.3716233"><ele></ele><time>2016-5-22T14:29:9Z</time></trkpt>
<trkpt lat="46.2242083" lon="7.3716233"><ele></ele><time>2016-5-22T14:29:12Z</time></trkpt>
<trkpt lat="46.2242083" lon="7.3716233"><ele></ele><time>2016-5-22T14:29:15Z</time></trkpt>
<trkpt lat="46.2242083" lon="7.3716233"><ele></ele><time>2016-5-22T14:29:18Z</time></trkpt>
<trkpt lat="46.2241967" lon="7.3716400"><ele></ele><time>2016-5-22T14:29:21Z</time></trkpt>
<trkpt lat="46.2241917" lon="7.3716383"><ele></ele><time>2016-5-22T14:29:24Z</time></trkpt>
<trkpt lat="46.2241917" lon="7.3716383"><ele></ele><time>2016-5-22T14:29:27Z</time></trkpt>
<trkpt lat="46.2241917" lon="7.3716383"><ele></ele><time>2016-5-22T14:29:30Z</time></trkpt>
<trkpt lat="46.2241917" lon="7.3716383"><ele></ele><time>2016-5-22T14:29:33Z</time></trkpt>
<trkpt lat="46.2241917" lon="7.3716383"><ele></ele><time>2016-5-22T14:29:36Z</time></trkpt>
<trkpt lat="46.2241917" lon="7.3716383"><ele></ele><time>2016-5-22T14:29:39Z</time></trkpt>
<trkpt lat="46.2241917" lon="7.3716383"><ele></ele><time>2016-5-22T14:29:42Z</time></trkpt>
<trkpt lat="46.2241917" lon="7.3716383"><ele></ele><time>2016-5-22T14:29:45Z</time></trkpt>
<trkpt lat="46.2241917" lon="7.3716383"><ele></ele><time>2016-5-22T14:29:48Z</time></trkpt>
<trkpt lat="46.2241917" lon="7.3716383"><ele></ele><time>2016-5-22T14:29:51Z</time></trkpt>
<trkpt lat="46.2241917" lon="7.3716383"><ele></ele><time>2016-5-22T14:29:54Z</time></trkpt>
<trkpt lat="46.2241917" lon="7.3716383"><ele></ele><time>2016-5-22T14:29:57Z</time></trkpt>
<trkpt lat="46.2241917" lon="7.3716383"><ele></ele><time>2016-5-22T14:30:0Z</time></trkpt>
<trkpt lat="46.2241917" lon="7.3716383"><ele></ele><time>2016-5-22T14:30:3Z</time></trkpt>
<trkpt lat="46.2241917" lon="7.3716383"><ele></ele><time>2016-5-22T14:30:6Z</time></trkpt>
<trkpt lat="46.2241917" lon="7.3716383"><ele></ele><time>2016-5-22T14:30:9Z</time></trkpt>
<trkpt lat="46.2241917" lon="7.3716383"><ele></ele><time>2016-5-22T14:30:12Z</time></trkpt>
<trkpt lat="46.2241917" lon="7.3716383"><ele></ele><time>2016-5-22T14:30:15Z</time></trkpt>
<trkpt lat="46.2241917" lon="7.3716383"><ele></ele><time>2016-5-22T14:30:18Z</time></trkpt>
<trkpt lat="46.2241917" lon="7.3716383"><ele></ele><time>2016-5-22T14:30:21Z</time></trkpt>
<trkpt lat="46.2242000" lon="7.3717017"><ele></ele><time>2016-5-22T14:30:24Z</time></trkpt>
<trkpt lat="46.2242000" lon="7.3717017"><ele></ele><time>2016-5-22T14:30:27Z</time></trkpt>
<trkpt lat="46.2242000" lon="7.3717017"><ele></ele><time>2016-5-22T14:30:30Z</time></trkpt>
<trkpt lat="46.2242000" lon="7.3717017"><ele></ele><time>2016-5-22T14:30:33Z</time></trkpt>
<trkpt lat="46.2242000" lon="7.3717017"><ele></ele><time>2016-5-22T14:30:36Z</time></trkpt>
<trkpt lat="46.2242000" lon="7.3717017"><ele></ele><time>2016-5-22T14:30:39Z</time></trkpt>
<trkpt lat="46.2241883" lon="7.3716800"><ele></ele><time>2016-5-22T14:30:42Z</time></trkpt>
<trkpt lat="46.2241883" lon="7.3716800"><ele></ele><time>2016-5-22T14:30:45Z</time></trkpt>
<trkpt lat="46.2241883" lon="7.3716800"><ele></ele><time>2016-5-22T14:30:48Z</time></trkpt>
<trkpt lat="46.2241883" lon="7.3716833"><ele></ele><time>2016-5-22T14:30:51Z</time></trkpt>
<trkpt lat="46.2241733" lon="7.3716767"><ele></ele><time>2016-5-22T14:30:54Z</time></trkpt>
<trkpt lat="46.2241617" lon="7.3716500"><ele></ele><time>2016-5-22T14:30:57Z</time></trkpt>
<trkpt lat="46.2241617" lon="7.3716167"><ele></ele><time>2016-5-22T14:31:0Z</time></trkpt>
<trkpt lat="46.2241683" lon="7.3715967"><ele></ele><time>2016-5-22T14:31:3Z</time></trkpt>
<trkpt lat="46.2241767" lon="7.3715967"><ele></ele><time>2016-5-22T14:31:6Z</time></trkpt>
<trkpt lat="46.2241833" lon="7.3715850"><ele></ele><time>2016-5-22T14:31:9Z</time></trkpt>
<trkpt lat="46.2242050" lon="7.3716083"><ele></ele><time>2016-5-22T14:31:12Z</time></trkpt>
<trkpt lat="46.2242167" lon="7.3716067"><ele></ele><time>2016-5-22T14:31:15Z</time></trkpt>
<trkpt lat="46.2242350" lon="7.3716050"><ele></ele><time>2016-5-22T14:31:18Z</time></trkpt>
<trkpt lat="46.2242533" lon="7.3715983"><ele></ele><time>2016-5-22T14:31:21Z</time></trkpt>
<trkpt lat="46.2242767" lon="7.3715950"><ele></ele><time>2016-5-22T14:31:24Z</time></trkpt>
<trkpt lat="46.2242983" lon="7.3715950"><ele></ele><time>2016-5-22T14:31:27Z</time></trkpt>
<trkpt lat="46.2243250" lon="7.3715933"><ele></ele><time>2016-5-22T14:31:30Z</time></trkpt>
<trkpt lat="46.2243500" lon="7.3715933"><ele></ele><time>2016-5-22T14:31:33Z</time></trkpt>
<trkpt lat="46.2243700" lon="7.3715967"><ele></ele><time>2016-5-22T14:31:36Z</time></trkpt>
<trkpt lat="46.2243867" lon="7.3715883"><ele></ele><time>2016-5-22T14:31:39Z</time></trkpt>
<trkpt lat="46.2244033" lon="7.3715800"><ele></ele><time>2016-5-22T14:31:42Z</time></trkpt>
<trkpt lat="46.2244133" lon="7.3715767"><ele></ele><time>2016-5-22T14:31:45Z</time></trkpt>
<trkpt lat="46.2244283" lon="7.3715700"><ele></ele><time>2016-5-22T14:31:48Z</time></trkpt>
<trkpt lat="46.2244600" lon="7.3715567"><ele></ele><time>2016-5-22T14:31:51Z</time></trkpt>
<trkpt lat="46.2244950" lon="7.3715400"><ele></ele><time>2016-5-22T14:31:54Z</time></trkpt>
<trkpt lat="46.2245200" lon="7.3715300"><ele></ele><time>2016-5-22T14:31:57Z</time></trkpt>
<trkpt lat="46.2245667" lon="7.3715083"><ele></ele><time>2016-5-22T14:32:0Z</time></trkpt>
<trkpt lat="46.2246083" lon="7.3714900"><ele></ele><time>2016-5-22T14:32:3Z</time></trkpt>
<trkpt lat="46.2246517" lon="7.3714717"><ele></ele><time>2016-5-22T14:32:6Z</time></trkpt>
<trkpt lat="46.2247050" lon="7.3714483"><ele></ele><time>2016-5-22T14:32:9Z</time></trkpt>
<trkpt lat="46.2247400" lon="7.3714317"><ele></ele><time>2016-5-22T14:32:12Z</time></trkpt>
<trkpt lat="46.2247783" lon="7.3714150"><ele></ele><time>2016-5-22T14:32:15Z</time></trkpt>
<trkpt lat="46.2248200" lon="7.3713967"><ele></ele><time>2016-5-22T14:32:18Z</time></trkpt>
<trkpt lat="46.2248650" lon="7.3714150"><ele></ele><time>2016-5-22T14:32:21Z</time></trkpt>
<trkpt lat="46.2248967" lon="7.3713933"><ele></ele><time>2016-5-22T14:32:24Z</time></trkpt>
<trkpt lat="46.2249250" lon="7.3713633"><ele></ele><time>2016-5-22T14:32:27Z</time></trkpt>
<trkpt lat="46.2249583" lon="7.3713350"><ele></ele><time>2016-5-22T14:32:30Z</time></trkpt>
<trkpt lat="46.2249900" lon="7.3713100"><ele></ele><time>2016-5-22T14:32:33Z</time></trkpt>
<trkpt lat="46.2250217" lon="7.3712867"><ele></ele><time>2016-5-22T14:32:36Z</time></trkpt>
<trkpt lat="46.2250567" lon="7.3712633"><ele></ele><time>2016-5-22T14:32:39Z</time></trkpt>
<trkpt lat="46.2250883" lon="7.3712483"><ele></ele><time>2016-5-22T14:32:42Z</time></trkpt>
<trkpt lat="46.2251217" lon="7.3712300"><ele></ele><time>2016-5-22T14:32:45Z</time></trkpt>
<trkpt lat="46.2251550" lon="7.3712133"><ele></ele><time>2016-5-22T14:32:48Z</time></trkpt>
<trkpt lat="46.2252017" lon="7.3711933"><ele></ele><time>2016-5-22T14:32:51Z</time></trkpt>
<trkpt lat="46.2252350" lon="7.3711717"><ele></ele><time>2016-5-22T14:32:54Z</time></trkpt>
<trkpt lat="46.2252667" lon="7.3711667"><ele></ele><time>2016-5-22T14:32:57Z</time></trkpt>
<trkpt lat="46.2252933" lon="7.3711567"><ele></ele><time>2016-5-22T14:33:0Z</time></trkpt>
<trkpt lat="46.2253167" lon="7.3711700"><ele></ele><time>2016-5-22T14:33:3Z</time></trkpt>
<trkpt lat="46.2253417" lon="7.3711583"><ele></ele><time>2016-5-22T14:33:6Z</time></trkpt>
<trkpt lat="46.2253683" lon="7.3711533"><ele></ele><time>2016-5-22T14:33:9Z</time></trkpt>
<trkpt lat="46.2254000" lon="7.3711567"><ele></ele><time>2016-5-22T14:33:12Z</time></trkpt>
<trkpt lat="46.2254300" lon="7.3711517"><ele></ele><time>2016-5-22T14:33:15Z</time></trkpt>
<trkpt lat="46.2254533" lon="7.3711367"><ele></ele><time>2016-5-22T14:33:18Z</time></trkpt>
<trkpt lat="46.2254683" lon="7.3711150"><ele></ele><time>2016-5-22T14:33:21Z</time></trkpt>
<trkpt lat="46.2254867" lon="7.3711050"><ele></ele><time>2016-5-22T14:33:24Z</time></trkpt>
<trkpt lat="46.2255050" lon="7.3710800"><ele></ele><time>2016-5-22T14:33:27Z</time></trkpt>
<trkpt lat="46.2255150" lon="7.3710667"><ele></ele><time>2016-5-22T14:33:30Z</time></trkpt>
<trkpt lat="46.2255100" lon="7.3710500"><ele></ele><time>2016-5-22T14:33:33Z</time></trkpt>
<trkpt lat="46.2255033" lon="7.3710417"><ele></ele><time>2016-5-22T14:33:36Z</time></trkpt>
<trkpt lat="46.2254983" lon="7.3710233"><ele></ele><time>2016-5-22T14:33:39Z</time></trkpt>
<trkpt lat="46.2255067" lon="7.3709983"><ele></ele><time>2016-5-22T14:33:42Z</time></trkpt>
<trkpt lat="46.2255167" lon="7.3709733"><ele></ele><time>2016-5-22T14:33:45Z</time></trkpt>
<trkpt lat="46.2255233" lon="7.3709517"><ele></ele><time>2016-5-22T14:33:48Z</time></trkpt>
<trkpt lat="46.2255250" lon="7.3709317"><ele></ele><time>2016-5-22T14:33:51Z</time></trkpt>
<trkpt lat="46.2255217" lon="7.3709150"><ele></ele><time>2016-5-22T14:33:54Z</time></trkpt>
<trkpt lat="46.2255067" lon="7.3709117"><ele></ele><time>2016-5-22T14:33:57Z</time></trkpt>
<trkpt lat="46.2254900" lon="7.3709250"><ele></ele><time>2016-5-22T14:34:0Z</time></trkpt>
<trkpt lat="46.2254817" lon="7.3709483"><ele></ele><time>2016-5-22T14:34:3Z</time></trkpt>
<trkpt lat="46.2254800" lon="7.3709733"><ele></ele><time>2016-5-22T14:34:6Z</time></trkpt>
<trkpt lat="46.2254850" lon="7.3710000"><ele></ele><time>2016-5-22T14:34:9Z</time></trkpt>
<trkpt lat="46.2254250" lon="7.3710617"><ele></ele><time>2016-5-22T14:34:12Z</time></trkpt>
<trkpt lat="46.2254383" lon="7.3710283"><ele></ele><time>2016-5-22T14:34:15Z</time></trkpt>
<trkpt lat="46.2253917" lon="7.3711183"><ele></ele><time>2016-5-22T14:34:18Z</time></trkpt>
<trkpt lat="46.2254100" lon="7.3710900"><ele></ele><time>2016-5-22T14:34:21Z</time></trkpt>
<trkpt lat="46.2253933" lon="7.3711167"><ele></ele><time>2016-5-22T14:34:24Z</time></trkpt>
<trkpt lat="46.2253650" lon="7.3711500"><ele></ele><time>2016-5-22T14:34:27Z</time></trkpt>
<trkpt lat="46.2253350" lon="7.3711683"><ele></ele><time>2016-5-22T14:34:30Z</time></trkpt>
<trkpt lat="46.2253000" lon="7.3711850"><ele></ele><time>2016-5-22T14:34:33Z</time></trkpt>
<trkpt lat="46.2252600" lon="7.3712033"><ele></ele><time>2016-5-22T14:34:36Z</time></trkpt>
<trkpt lat="46.2252150" lon="7.3712217"><ele></ele><time>2016-5-22T14:34:39Z</time></trkpt>
<trkpt lat="46.2251767" lon="7.3712400"><ele></ele><time>2016-5-22T14:34:42Z</time></trkpt>
<trkpt lat="46.2251333" lon="7.3712583"><ele></ele><time>2016-5-22T14:34:45Z</time></trkpt>
<trkpt lat="46.2250783" lon="7.3712833"><ele></ele><time>2016-5-22T14:34:48Z</time></trkpt>
<trkpt lat="46.2250333" lon="7.3713017"><ele></ele><time>2016-5-22T14:34:51Z</time></trkpt>
<trkpt lat="46.2249917" lon="7.3713200"><ele></ele><time>2016-5-22T14:34:54Z</time></trkpt>
<trkpt lat="46.2249550" lon="7.3713367"><ele></ele><time>2016-5-22T14:34:57Z</time></trkpt>
<trkpt lat="46.2249167" lon="7.3713550"><ele></ele><time>2016-5-22T14:35:0Z</time></trkpt>
<trkpt lat="46.2248633" lon="7.3713783"><ele></ele><time>2016-5-22T14:35:3Z</time></trkpt>
<trkpt lat="46.2248183" lon="7.3713967"><ele></ele><time>2016-5-22T14:35:6Z</time></trkpt>
<trkpt lat="46.2247783" lon="7.3714150"><ele></ele><time>2016-5-22T14:35:9Z</time></trkpt>
<trkpt lat="46.2247400" lon="7.3714317"><ele></ele><time>2016-5-22T14:35:12Z</time></trkpt>
<trkpt lat="46.2246983" lon="7.3714500"><ele></ele><time>2016-5-22T14:35:15Z</time></trkpt>
<trkpt lat="46.2246433" lon="7.3714750"><ele></ele><time>2016-5-22T14:35:18Z</time></trkpt>
<trkpt lat="46.2246033" lon="7.3714917"><ele></ele><time>2016-5-22T14:35:21Z</time></trkpt>
<trkpt lat="46.2245750" lon="7.3715050"><ele></ele><time>2016-5-22T14:35:24Z</time></trkpt>
<trkpt lat="46.2245133" lon="7.3715317"><ele></ele><time>2016-5-22T14:35:27Z</time></trkpt>
<trkpt lat="46.2244867" lon="7.3715450"><ele></ele><time>2016-5-22T14:35:30Z</time></trkpt>
<trkpt lat="46.2244400" lon="7.3715650"><ele></ele><time>2016-5-22T14:35:33Z</time></trkpt>
<trkpt lat="46.2244000" lon="7.3715833"><ele></ele><time>2016-5-22T14:35:36Z</time></trkpt>
<trkpt lat="46.2243700" lon="7.3715950"><ele></ele><time>2016-5-22T14:35:39Z</time></trkpt>
<trkpt lat="46.2243367" lon="7.3716100"><ele></ele><time>2016-5-22T14:35:42Z</time></trkpt>
<trkpt lat="46.2243033" lon="7.3716250"><ele></ele><time>2016-5-22T14:35:45Z</time></trkpt>
<trkpt lat="46.2242667" lon="7.3716417"><ele></ele><time>2016-5-22T14:35:48Z</time></trkpt>
<trkpt lat="46.2242317" lon="7.3716567"><ele></ele><time>2016-5-22T14:35:51Z</time></trkpt>
<trkpt lat="46.2241983" lon="7.3716717"><ele></ele><time>2016-5-22T14:35:54Z</time></trkpt>
<trkpt lat="46.2241767" lon="7.3716817"><ele></ele><time>2016-5-22T14:35:57Z</time></trkpt>
<trkpt lat="46.2241617" lon="7.3716883"><ele></ele><time>2016-5-22T14:36:0Z</time></trkpt>
<trkpt lat="46.2241517" lon="7.3716917"><ele></ele><time>2016-5-22T14:36:3Z</time></trkpt>
<trkpt lat="46.2241483" lon="7.3716933"><ele></ele><time>2016-5-22T14:36:6Z</time></trkpt>
<trkpt lat="46.2241383" lon="7.3716983"><ele></ele><time>2016-5-22T14:36:9Z</time></trkpt>
<trkpt lat="46.2241300" lon="7.3717050"><ele></ele><time>2016-5-22T14:36:12Z</time></trkpt>
<trkpt lat="46.2241233" lon="7.3717217"><ele></ele><time>2016-5-22T14:36:15Z</time></trkpt>
<trkpt lat="46.2240783" lon="7.3716933"><ele></ele><time>2016-5-22T14:36:18Z</time></trkpt>
<trkpt lat="46.2241233" lon="7.3718150"><ele></ele><time>2016-5-22T14:36:21Z</time></trkpt>
<trkpt lat="46.2241900" lon="7.3719500"><ele></ele><time>2016-5-22T14:36:24Z</time></trkpt>
<trkpt lat="46.2242150" lon="7.3719933"><ele></ele><time>2016-5-22T14:36:27Z</time></trkpt>
<trkpt lat="46.2242467" lon="7.3720400"><ele></ele><time>2016-5-22T14:36:30Z</time></trkpt>
<trkpt lat="46.2242867" lon="7.3720667"><ele></ele><time>2016-5-22T14:36:33Z</time></trkpt>
<trkpt lat="46.2243200" lon="7.3721133"><ele></ele><time>2016-5-22T14:36:36Z</time></trkpt>
<trkpt lat="46.2243500" lon="7.3721700"><ele></ele><time>2016-5-22T14:36:39Z</time></trkpt>
<trkpt lat="46.2243817" lon="7.3722183"><ele></ele><time>2016-5-22T14:36:42Z</time></trkpt>
<trkpt lat="46.2244133" lon="7.3722767"><ele></ele><time>2016-5-22T14:36:45Z</time></trkpt>
<trkpt lat="46.2244500" lon="7.3723217"><ele></ele><time>2016-5-22T14:36:48Z</time></trkpt>
<trkpt lat="46.2244850" lon="7.3723850"><ele></ele><time>2016-5-22T14:36:51Z</time></trkpt>
<trkpt lat="46.2245250" lon="7.3724317"><ele></ele><time>2016-5-22T14:36:54Z</time></trkpt>
<trkpt lat="46.2245683" lon="7.3724783"><ele></ele><time>2016-5-22T14:36:57Z</time></trkpt>
<trkpt lat="46.2246050" lon="7.3725317"><ele></ele><time>2016-5-22T14:37:0Z</time></trkpt>
<trkpt lat="46.2246500" lon="7.3725783"><ele></ele><time>2016-5-22T14:37:3Z</time></trkpt>
<trkpt lat="46.2246933" lon="7.3726233"><ele></ele><time>2016-5-22T14:37:6Z</time></trkpt>
<trkpt lat="46.2247433" lon="7.3726750"><ele></ele><time>2016-5-22T14:37:9Z</time></trkpt>
<trkpt lat="46.2247917" lon="7.3727217"><ele></ele><time>2016-5-22T14:37:12Z</time></trkpt>
<trkpt lat="46.2248300" lon="7.3727650"><ele></ele><time>2016-5-22T14:37:15Z</time></trkpt>
<trkpt lat="46.2248783" lon="7.3728017"><ele></ele><time>2016-5-22T14:37:18Z</time></trkpt>
<trkpt lat="46.2249217" lon="7.3728283"><ele></ele><time>2016-5-22T14:37:21Z</time></trkpt>
<trkpt lat="46.2249700" lon="7.3728633"><ele></ele><time>2016-5-22T14:37:24Z</time></trkpt>
<trkpt lat="46.2250133" lon="7.3728983"><ele></ele><time>2016-5-22T14:37:27Z</time></trkpt>
<trkpt lat="46.2250567" lon="7.3729317"><ele></ele><time>2016-5-22T14:37:30Z</time></trkpt>
<trkpt lat="46.2251067" lon="7.3729600"><ele></ele><time>2016-5-22T14:37:33Z</time></trkpt>
<trkpt lat="46.2251583" lon="7.3729833"><ele></ele><time>2016-5-22T14:37:36Z</time></trkpt>
<trkpt lat="46.2252050" lon="7.3730117"><ele></ele><time>2016-5-22T14:37:39Z</time></trkpt>
<trkpt lat="46.2252567" lon="7.3730467"><ele></ele><time>2016-5-22T14:37:42Z</time></trkpt>
<trkpt lat="46.2252850" lon="7.3730783"><ele></ele><time>2016-5-22T14:37:45Z</time></trkpt>
<trkpt lat="46.2253167" lon="7.3731133"><ele></ele><time>2016-5-22T14:37:48Z</time></trkpt>
<trkpt lat="46.2253400" lon="7.3731400"><ele></ele><time>2016-5-22T14:37:51Z</time></trkpt>
<trkpt lat="46.2253550" lon="7.3731700"><ele></ele><time>2016-5-22T14:37:54Z</time></trkpt>
<trkpt lat="46.2253700" lon="7.3732050"><ele></ele><time>2016-5-22T14:37:57Z</time></trkpt>
<trkpt lat="46.2253750" lon="7.3732617"><ele></ele><time>2016-5-22T14:38:0Z</time></trkpt>
<trkpt lat="46.2253983" lon="7.3733117"><ele></ele><time>2016-5-22T14:38:3Z</time></trkpt>
<trkpt lat="46.2254300" lon="7.3733467"><ele></ele><time>2016-5-22T14:38:6Z</time></trkpt>
<trkpt lat="46.2254700" lon="7.3733617"><ele></ele><time>2016-5-22T14:38:9Z</time></trkpt>
<trkpt lat="46.2255367" lon="7.3733567"><ele></ele><time>2016-5-22T14:38:12Z</time></trkpt>
<trkpt lat="46.2255617" lon="7.3733467"><ele></ele><time>2016-5-22T14:38:15Z</time></trkpt>
<trkpt lat="46.2256100" lon="7.3733350"><ele></ele><time>2016-5-22T14:38:18Z</time></trkpt>
<trkpt lat="46.2256600" lon="7.3733167"><ele></ele><time>2016-5-22T14:38:21Z</time></trkpt>
<trkpt lat="46.2257150" lon="7.3733283"><ele></ele><time>2016-5-22T14:38:24Z</time></trkpt>
<trkpt lat="46.2257717" lon="7.3733383"><ele></ele><time>2016-5-22T14:38:27Z</time></trkpt>
<trkpt lat="46.2258267" lon="7.3733267"><ele></ele><time>2016-5-22T14:38:30Z</time></trkpt>
<trkpt lat="46.2258833" lon="7.3733283"><ele></ele><time>2016-5-22T14:38:33Z</time></trkpt>
<trkpt lat="46.2259400" lon="7.3733067"><ele></ele><time>2016-5-22T14:38:36Z</time></trkpt>
<trkpt lat="46.2259850" lon="7.3732700"><ele></ele><time>2016-5-22T14:38:39Z</time></trkpt>
<trkpt lat="46.2260100" lon="7.3731950"><ele></ele><time>2016-5-22T14:38:42Z</time></trkpt>
<trkpt lat="46.2260167" lon="7.3731500"><ele></ele><time>2016-5-22T14:38:45Z</time></trkpt>
<trkpt lat="46.2260300" lon="7.3730900"><ele></ele><time>2016-5-22T14:38:48Z</time></trkpt>
<trkpt lat="46.2260350" lon="7.3730633"><ele></ele><time>2016-5-22T14:38:51Z</time></trkpt>
<trkpt lat="46.2261167" lon="7.3729183"><ele></ele><time>2016-5-22T14:38:54Z</time></trkpt>
<trkpt lat="46.2261083" lon="7.3729300"><ele></ele><time>2016-5-22T14:38:57Z</time></trkpt>
<trkpt lat="46.2261800" lon="7.3728717"><ele></ele><time>2016-5-22T14:39:0Z</time></trkpt>
<trkpt lat="46.2262317" lon="7.3728383"><ele></ele><time>2016-5-22T14:39:3Z</time></trkpt>
<trkpt lat="46.2262750" lon="7.3727950"><ele></ele><time>2016-5-22T14:39:6Z</time></trkpt>
<trkpt lat="46.2263267" lon="7.3727517"><ele></ele><time>2016-5-22T14:39:9Z</time></trkpt>
<trkpt lat="46.2263800" lon="7.3727050"><ele></ele><time>2016-5-22T14:39:12Z</time></trkpt>
<trkpt lat="46.2264317" lon="7.3726633"><ele></ele><time>2016-5-22T14:39:15Z</time></trkpt>
<trkpt lat="46.2264800" lon="7.3726350"><ele></ele><time>2016-5-22T14:39:18Z</time></trkpt>
<trkpt lat="46.2265250" lon="7.3725900"><ele></ele><time>2016-5-22T14:39:21Z</time></trkpt>
<trkpt lat="46.2265717" lon="7.3725467"><ele></ele><time>2016-5-22T14:39:24Z</time></trkpt>
<trkpt lat="46.2266200" lon="7.3725017"><ele></ele><time>2016-5-22T14:39:27Z</time></trkpt>
<trkpt lat="46.2266667" lon="7.3724600"><ele></ele><time>2016-5-22T14:39:30Z</time></trkpt>
<trkpt lat="46.2267117" lon="7.3724100"><ele></ele><time>2016-5-22T14:39:33Z</time></trkpt>
<trkpt lat="46.2267517" lon="7.3723750"><ele></ele><time>2016-5-22T14:39:36Z</time></trkpt>
<trkpt lat="46.2267967" lon="7.3723367"><ele></ele><time>2016-5-22T14:39:39Z</time></trkpt>
<trkpt lat="46.2268433" lon="7.3723150"><ele></ele><time>2016-5-22T14:39:42Z</time></trkpt>
<trkpt lat="46.2268833" lon="7.3722817"><ele></ele><time>2016-5-22T14:39:45Z</time></trkpt>
<trkpt lat="46.2269350" lon="7.3722417"><ele></ele><time>2016-5-22T14:39:48Z</time></trkpt>
<trkpt lat="46.2269850" lon="7.3722033"><ele></ele><time>2016-5-22T14:39:51Z</time></trkpt>
<trkpt lat="46.2270317" lon="7.3721733"><ele></ele><time>2016-5-22T14:39:54Z</time></trkpt>
<trkpt lat="46.2270683" lon="7.3721433"><ele></ele><time>2016-5-22T14:39:57Z</time></trkpt>
<trkpt lat="46.2271183" lon="7.3721067"><ele></ele><time>2016-5-22T14:40:0Z</time></trkpt>
<trkpt lat="46.2271700" lon="7.3720750"><ele></ele><time>2016-5-22T14:40:3Z</time></trkpt>
<trkpt lat="46.2272133" lon="7.3720367"><ele></ele><time>2016-5-22T14:40:6Z</time></trkpt>
<trkpt lat="46.2272633" lon="7.3720117"><ele></ele><time>2016-5-22T14:40:9Z</time></trkpt>
<trkpt lat="46.2273167" lon="7.3719733"><ele></ele><time>2016-5-22T14:40:12Z</time></trkpt>
<trkpt lat="46.2273583" lon="7.3719433"><ele></ele><time>2016-5-22T14:40:15Z</time></trkpt>
<trkpt lat="46.2274100" lon="7.3719017"><ele></ele><time>2016-5-22T14:40:18Z</time></trkpt>
<trkpt lat="46.2274650" lon="7.3718900"><ele></ele><time>2016-5-22T14:40:21Z</time></trkpt>
<trkpt lat="46.2275067" lon="7.3718483"><ele></ele><time>2016-5-22T14:40:24Z</time></trkpt>
<trkpt lat="46.2275617" lon="7.3718167"><ele></ele><time>2016-5-22T14:40:27Z</time></trkpt>
<trkpt lat="46.2276117" lon="7.3717817"><ele></ele><time>2016-5-22T14:40:30Z</time></trkpt>
<trkpt lat="46.2276633" lon="7.3717467"><ele></ele><time>2016-5-22T14:40:33Z</time></trkpt>
<trkpt lat="46.2277017" lon="7.3717000"><ele></ele><time>2016-5-22T14:40:36Z</time></trkpt>
<trkpt lat="46.2277400" lon="7.3716650"><ele></ele><time>2016-5-22T14:40:39Z</time></trkpt>
<trkpt lat="46.2277900" lon="7.3716350"><ele></ele><time>2016-5-22T14:40:42Z</time></trkpt>
<trkpt lat="46.2278533" lon="7.3716167"><ele></ele><time>2016-5-22T14:40:45Z</time></trkpt>
<trkpt lat="46.2279667" lon="7.3717183"><ele></ele><time>2016-5-22T14:40:48Z</time></trkpt>
<trkpt lat="46.2279433" lon="7.3716817"><ele></ele><time>2016-5-22T14:40:51Z</time></trkpt>
<trkpt lat="46.2279800" lon="7.3716883"><ele></ele><time>2016-5-22T14:40:54Z</time></trkpt>
<trkpt lat="46.2280300" lon="7.3716817"><ele></ele><time>2016-5-22T14:40:57Z</time></trkpt>
<trkpt lat="46.2280350" lon="7.3716550"><ele></ele><time>2016-5-22T14:41:0Z</time></trkpt>
<trkpt lat="46.2281267" lon="7.3715650"><ele></ele><time>2016-5-22T14:41:3Z</time></trkpt>
<trkpt lat="46.2281567" lon="7.3715250"><ele></ele><time>2016-5-22T14:41:6Z</time></trkpt>
<trkpt lat="46.2281683" lon="7.3714717"><ele></ele><time>2016-5-22T14:41:9Z</time></trkpt>
<trkpt lat="46.2281633" lon="7.3713550"><ele></ele><time>2016-5-22T14:41:12Z</time></trkpt>
<trkpt lat="46.2281567" lon="7.3712900"><ele></ele><time>2016-5-22T14:41:15Z</time></trkpt>
<trkpt lat="46.2281617" lon="7.3712833"><ele></ele><time>2016-5-22T14:41:18Z</time></trkpt>
<trkpt lat="46.2281700" lon="7.3712733"><ele></ele><time>2016-5-22T14:41:21Z</time></trkpt>
<trkpt lat="46.2281617" lon="7.3710550"><ele></ele><time>2016-5-22T14:41:24Z</time></trkpt>
<trkpt lat="46.2281700" lon="7.3709900"><ele></ele><time>2016-5-22T14:41:27Z</time></trkpt>
<trkpt lat="46.2281817" lon="7.3709200"><ele></ele><time>2016-5-22T14:41:30Z</time></trkpt>
<trkpt lat="46.2281850" lon="7.3709200"><ele></ele><time>2016-5-22T14:41:33Z</time></trkpt>
<trkpt lat="46.2281883" lon="7.3709217"><ele></ele><time>2016-5-22T14:41:36Z</time></trkpt>
<trkpt lat="46.2281900" lon="7.3709217"><ele></ele><time>2016-5-22T14:41:39Z</time></trkpt>
<trkpt lat="46.2282467" lon="7.3706600"><ele></ele><time>2016-5-22T14:41:42Z</time></trkpt>
<trkpt lat="46.2282467" lon="7.3706633"><ele></ele><time>2016-5-22T14:41:45Z</time></trkpt>
<trkpt lat="46.2282467" lon="7.3706600"><ele></ele><time>2016-5-22T14:41:48Z</time></trkpt>
<trkpt lat="46.2283950" lon="7.3704883"><ele></ele><time>2016-5-22T14:41:51Z</time></trkpt>
<trkpt lat="46.2284483" lon="7.3704567"><ele></ele><time>2016-5-22T14:41:54Z</time></trkpt>
<trkpt lat="46.2284983" lon="7.3704233"><ele></ele><time>2016-5-22T14:41:57Z</time></trkpt>
<trkpt lat="46.2285350" lon="7.3704367"><ele></ele><time>2016-5-22T14:42:0Z</time></trkpt>
<trkpt lat="46.2285817" lon="7.3704483"><ele></ele><time>2016-5-22T14:42:3Z</time></trkpt>
<trkpt lat="46.2286267" lon="7.3704600"><ele></ele><time>2016-5-22T14:42:6Z</time></trkpt>
<trkpt lat="46.2286783" lon="7.3704733"><ele></ele><time>2016-5-22T14:42:9Z</time></trkpt>
<trkpt lat="46.2287250" lon="7.3704850"><ele></ele><time>2016-5-22T14:42:12Z</time></trkpt>
<trkpt lat="46.2287750" lon="7.3705017"><ele></ele><time>2016-5-22T14:42:15Z</time></trkpt>
<trkpt lat="46.2288167" lon="7.3705183"><ele></ele><time>2016-5-22T14:42:18Z</time></trkpt>
<trkpt lat="46.2288517" lon="7.3705383"><ele></ele><time>2016-5-22T14:42:21Z</time></trkpt>
<trkpt lat="46.2288867" lon="7.3705583"><ele></ele><time>2016-5-22T14:42:24Z</time></trkpt>
<trkpt lat="46.2289167" lon="7.3705750"><ele></ele><time>2016-5-22T14:42:27Z</time></trkpt>
<trkpt lat="46.2289517" lon="7.3705950"><ele></ele><time>2016-5-22T14:42:30Z</time></trkpt>
<trkpt lat="46.2290100" lon="7.3706300"><ele></ele><time>2016-5-22T14:42:33Z</time></trkpt>
<trkpt lat="46.2290383" lon="7.3706467"><ele></ele><time>2016-5-22T14:42:36Z</time></trkpt>
<trkpt lat="46.2290400" lon="7.3706467"><ele></ele><time>2016-5-22T14:42:39Z</time></trkpt>
<trkpt lat="46.2291133" lon="7.3706917"><ele></ele><time>2016-5-22T14:42:42Z</time></trkpt>
<trkpt lat="46.2291183" lon="7.3706950"><ele></ele><time>2016-5-22T14:42:45Z</time></trkpt>
<trkpt lat="46.2291567" lon="7.3707183"><ele></ele><time>2016-5-22T14:42:48Z</time></trkpt>
<trkpt lat="46.2291733" lon="7.3707283"><ele></ele><time>2016-5-22T14:42:51Z</time></trkpt>
<trkpt lat="46.2291917" lon="7.3707417"><ele></ele><time>2016-5-22T14:42:54Z</time></trkpt>
<trkpt lat="46.2292350" lon="7.3707683"><ele></ele><time>2016-5-22T14:42:57Z</time></trkpt>
<trkpt lat="46.2293750" lon="7.3708517"><ele></ele><time>2016-5-22T14:43:0Z</time></trkpt>
<trkpt lat="46.2295150" lon="7.3709117"><ele></ele><time>2016-5-22T14:43:3Z</time></trkpt>
<trkpt lat="46.2293550" lon="7.3708400"><ele></ele><time>2016-5-22T14:43:6Z</time></trkpt>
<trkpt lat="46.2294167" lon="7.3708717"><ele></ele><time>2016-5-22T14:43:9Z</time></trkpt>
<trkpt lat="46.2294567" lon="7.3708900"><ele></ele><time>2016-5-22T14:43:12Z</time></trkpt>
<trkpt lat="46.2295900" lon="7.3709267"><ele></ele><time>2016-5-22T14:43:15Z</time></trkpt>
<trkpt lat="46.2296250" lon="7.3709283"><ele></ele><time>2016-5-22T14:43:18Z</time></trkpt>
<trkpt lat="46.2296217" lon="7.3709283"><ele></ele><time>2016-5-22T14:43:21Z</time></trkpt>
<trkpt lat="46.2296217" lon="7.3709283"><ele></ele><time>2016-5-22T14:43:24Z</time></trkpt>
<trkpt lat="46.2298283" lon="7.3709117"><ele></ele><time>2016-5-22T14:43:27Z</time></trkpt>
<trkpt lat="46.2298717" lon="7.3709067"><ele></ele><time>2016-5-22T14:43:30Z</time></trkpt>
<trkpt lat="46.2299050" lon="7.3709033"><ele></ele><time>2016-5-22T14:43:33Z</time></trkpt>
<trkpt lat="46.2299617" lon="7.3708983"><ele></ele><time>2016-5-22T14:43:36Z</time></trkpt>
<trkpt lat="46.2300250" lon="7.3708917"><ele></ele><time>2016-5-22T14:43:39Z</time></trkpt>
<trkpt lat="46.2300733" lon="7.3708867"><ele></ele><time>2016-5-22T14:43:42Z</time></trkpt>
<trkpt lat="46.2301217" lon="7.3708817"><ele></ele><time>2016-5-22T14:43:45Z</time></trkpt>
<trkpt lat="46.2301617" lon="7.3708800"><ele></ele><time>2016-5-22T14:43:48Z</time></trkpt>
<trkpt lat="46.2302083" lon="7.3708750"><ele></ele><time>2016-5-22T14:43:51Z</time></trkpt>
<trkpt lat="46.2302583" lon="7.3708717"><ele></ele><time>2016-5-22T14:43:54Z</time></trkpt>
<trkpt lat="46.2303050" lon="7.3708683"><ele></ele><time>2016-5-22T14:43:57Z</time></trkpt>
<trkpt lat="46.2303317" lon="7.3708683"><ele></ele><time>2016-5-22T14:44:0Z</time></trkpt>
<trkpt lat="46.2303667" lon="7.3708683"><ele></ele><time>2016-5-22T14:44:3Z</time></trkpt>
<trkpt lat="46.2304133" lon="7.3708717"><ele></ele><time>2016-5-22T14:44:6Z</time></trkpt>
<trkpt lat="46.2304567" lon="7.3708767"><ele></ele><time>2016-5-22T14:44:9Z</time></trkpt>
<trkpt lat="46.2305100" lon="7.3708850"><ele></ele><time>2016-5-22T14:44:12Z</time></trkpt>
<trkpt lat="46.2305383" lon="7.3708900"><ele></ele><time>2016-5-22T14:44:15Z</time></trkpt>
<trkpt lat="46.2305850" lon="7.3708983"><ele></ele><time>2016-5-22T14:44:18Z</time></trkpt>
<trkpt lat="46.2306183" lon="7.3709050"><ele></ele><time>2016-5-22T14:44:21Z</time></trkpt>
<trkpt lat="46.2306217" lon="7.3709050"><ele></ele><time>2016-5-22T14:44:24Z</time></trkpt>
<trkpt lat="46.2306217" lon="7.3709050"><ele></ele><time>2016-5-22T14:44:27Z</time></trkpt>
<trkpt lat="46.2307617" lon="7.3709317"><ele></ele><time>2016-5-22T14:44:30Z</time></trkpt>
<trkpt lat="46.2307583" lon="7.3709300"><ele></ele><time>2016-5-22T14:44:33Z</time></trkpt>
<trkpt lat="46.2307650" lon="7.3709317"><ele></ele><time>2016-5-22T14:44:36Z</time></trkpt>
<trkpt lat="46.2309600" lon="7.3709533"><ele></ele><time>2016-5-22T14:44:39Z</time></trkpt>
<trkpt lat="46.2310250" lon="7.3709583"><ele></ele><time>2016-5-22T14:44:42Z</time></trkpt>
<trkpt lat="46.2310733" lon="7.3709600"><ele></ele><time>2016-5-22T14:44:45Z</time></trkpt>
<trkpt lat="46.2311233" lon="7.3709633"><ele></ele><time>2016-5-22T14:44:48Z</time></trkpt>
<trkpt lat="46.2311883" lon="7.3709650"><ele></ele><time>2016-5-22T14:44:51Z</time></trkpt>
<trkpt lat="46.2312300" lon="7.3709650"><ele></ele><time>2016-5-22T14:44:54Z</time></trkpt>
<trkpt lat="46.2312800" lon="7.3709633"><ele></ele><time>2016-5-22T14:44:57Z</time></trkpt>
<trkpt lat="46.2313250" lon="7.3709633"><ele></ele><time>2016-5-22T14:45:0Z</time></trkpt>
<trkpt lat="46.2313917" lon="7.3709617"><ele></ele><time>2016-5-22T14:45:3Z</time></trkpt>
<trkpt lat="46.2314267" lon="7.3709600"><ele></ele><time>2016-5-22T14:45:6Z</time></trkpt>
<trkpt lat="46.2314767" lon="7.3709567"><ele></ele><time>2016-5-22T14:45:9Z</time></trkpt>
<trkpt lat="46.2315350" lon="7.3709550"><ele></ele><time>2016-5-22T14:45:12Z</time></trkpt>
<trkpt lat="46.2315850" lon="7.3709517"><ele></ele><time>2016-5-22T14:45:15Z</time></trkpt>
<trkpt lat="46.2316250" lon="7.3709483"><ele></ele><time>2016-5-22T14:45:18Z</time></trkpt>
<trkpt lat="46.2316817" lon="7.3709450"><ele></ele><time>2016-5-22T14:45:21Z</time></trkpt>
<trkpt lat="46.2317383" lon="7.3709417"><ele></ele><time>2016-5-22T14:45:24Z</time></trkpt>
<trkpt lat="46.2317850" lon="7.3709383"><ele></ele><time>2016-5-22T14:45:27Z</time></trkpt>
<trkpt lat="46.2318217" lon="7.3709367"><ele></ele><time>2016-5-22T14:45:30Z</time></trkpt>
<trkpt lat="46.2318817" lon="7.3709333"><ele></ele><time>2016-5-22T14:45:33Z</time></trkpt>
<trkpt lat="46.2319333" lon="7.3709300"><ele></ele><time>2016-5-22T14:45:36Z</time></trkpt>
<trkpt lat="46.2319783" lon="7.3709267"><ele></ele><time>2016-5-22T14:45:39Z</time></trkpt>
<trkpt lat="46.2320283" lon="7.3709233"><ele></ele><time>2016-5-22T14:45:42Z</time></trkpt>
<trkpt lat="46.2320683" lon="7.3709217"><ele></ele><time>2016-5-22T14:45:45Z</time></trkpt>
<trkpt lat="46.2321267" lon="7.3709183"><ele></ele><time>2016-5-22T14:45:48Z</time></trkpt>
<trkpt lat="46.2321783" lon="7.3709150"><ele></ele><time>2016-5-22T14:45:51Z</time></trkpt>
<trkpt lat="46.2322267" lon="7.3709117"><ele></ele><time>2016-5-22T14:45:54Z</time></trkpt>
<trkpt lat="46.2322633" lon="7.3705900"><ele></ele><time>2016-5-22T14:45:57Z</time></trkpt>
<trkpt lat="46.2323100" lon="7.3705917"><ele></ele><time>2016-5-22T14:46:0Z</time></trkpt>
<trkpt lat="46.2323517" lon="7.3706133"><ele></ele><time>2016-5-22T14:46:3Z</time></trkpt>
<trkpt lat="46.2323900" lon="7.3706567"><ele></ele><time>2016-5-22T14:46:6Z</time></trkpt>
<trkpt lat="46.2324233" lon="7.3706583"><ele></ele><time>2016-5-22T14:46:9Z</time></trkpt>
<trkpt lat="46.2324100" lon="7.3706517"><ele></ele><time>2016-5-22T14:46:12Z</time></trkpt>
<trkpt lat="46.2324233" lon="7.3706033"><ele></ele><time>2016-5-22T14:46:15Z</time></trkpt>
<trkpt lat="46.2324367" lon="7.3705717"><ele></ele><time>2016-5-22T14:46:18Z</time></trkpt>
<trkpt lat="46.2324500" lon="7.3705383"><ele></ele><time>2016-5-22T14:46:21Z</time></trkpt>
<trkpt lat="46.2324700" lon="7.3704833"><ele></ele><time>2016-5-22T14:46:24Z</time></trkpt>
<trkpt lat="46.2324800" lon="7.3704250"><ele></ele><time>2016-5-22T14:46:27Z</time></trkpt>
<trkpt lat="46.2324883" lon="7.3703417"><ele></ele><time>2016-5-22T14:46:30Z</time></trkpt>
<trkpt lat="46.2324967" lon="7.3702933"><ele></ele><time>2016-5-22T14:46:33Z</time></trkpt>
<trkpt lat="46.2325050" lon="7.3702467"><ele></ele><time>2016-5-22T14:46:36Z</time></trkpt>
<trkpt lat="46.2325133" lon="7.3702017"><ele></ele><time>2016-5-22T14:46:39Z</time></trkpt>
<trkpt lat="46.2325233" lon="7.3701567"><ele></ele><time>2016-5-22T14:46:42Z</time></trkpt>
<trkpt lat="46.2325317" lon="7.3701083"><ele></ele><time>2016-5-22T14:46:45Z</time></trkpt>
<trkpt lat="46.2325350" lon="7.3700617"><ele></ele><time>2016-5-22T14:46:48Z</time></trkpt>
<trkpt lat="46.2325350" lon="7.3700250"><ele></ele><time>2016-5-22T14:46:51Z</time></trkpt>
<trkpt lat="46.2325383" lon="7.3699933"><ele></ele><time>2016-5-22T14:46:54Z</time></trkpt>
<trkpt lat="46.2325517" lon="7.3699633"><ele></ele><time>2016-5-22T14:46:57Z</time></trkpt>
<trkpt lat="46.2325583" lon="7.3699333"><ele></ele><time>2016-5-22T14:47:0Z</time></trkpt>
<trkpt lat="46.2325167" lon="7.3697733"><ele></ele><time>2016-5-22T14:47:3Z</time></trkpt>
<trkpt lat="46.2325517" lon="7.3697783"><ele></ele><time>2016-5-22T14:47:6Z</time></trkpt>
<trkpt lat="46.2325900" lon="7.3697867"><ele></ele><time>2016-5-22T14:47:9Z</time></trkpt>
<trkpt lat="46.2325850" lon="7.3697833"><ele></ele><time>2016-5-22T14:47:12Z</time></trkpt>
<trkpt lat="46.2325867" lon="7.3697800"><ele></ele><time>2016-5-22T14:47:15Z</time></trkpt>
<trkpt lat="46.2325850" lon="7.3697767"><ele></ele><time>2016-5-22T14:47:18Z</time></trkpt>
<trkpt lat="46.2325783" lon="7.3697733"><ele></ele><time>2016-5-22T14:47:21Z</time></trkpt>
<trkpt lat="46.2325650" lon="7.3697750"><ele></ele><time>2016-5-22T14:47:24Z</time></trkpt>
<trkpt lat="46.2325667" lon="7.3697750"><ele></ele><time>2016-5-22T14:47:27Z</time></trkpt>
<trkpt lat="46.2325633" lon="7.3697750"><ele></ele><time>2016-5-22T14:47:30Z</time></trkpt>
<trkpt lat="46.2325583" lon="7.3697733"><ele></ele><time>2016-5-22T14:47:33Z</time></trkpt>
<trkpt lat="46.2325550" lon="7.3697717"><ele></ele><time>2016-5-22T14:47:36Z</time></trkpt>
<trkpt lat="46.2325400" lon="7.3697667"><ele></ele><time>2016-5-22T14:47:39Z</time></trkpt>
<trkpt lat="46.2325217" lon="7.3697617"><ele></ele><time>2016-5-22T14:47:42Z</time></trkpt>
<trkpt lat="46.2325083" lon="7.3697583"><ele></ele><time>2016-5-22T14:47:45Z</time></trkpt>
<trkpt lat="46.2324983" lon="7.3697500"><ele></ele><time>2016-5-22T14:47:48Z</time></trkpt>
<trkpt lat="46.2325217" lon="7.3695217"><ele></ele><time>2016-5-22T14:47:51Z</time></trkpt>
<trkpt lat="46.2325283" lon="7.3694717"><ele></ele><time>2016-5-22T14:47:54Z</time></trkpt>
<trkpt lat="46.2325383" lon="7.3694217"><ele></ele><time>2016-5-22T14:47:57Z</time></trkpt>
<trkpt lat="46.2325533" lon="7.3693717"><ele></ele><time>2016-5-22T14:48:0Z</time></trkpt>
<trkpt lat="46.2325767" lon="7.3693267"><ele></ele><time>2016-5-22T14:48:3Z</time></trkpt>
<trkpt lat="46.2325983" lon="7.3692917"><ele></ele><time>2016-5-22T14:48:6Z</time></trkpt>
<trkpt lat="46.2326217" lon="7.3692617"><ele></ele><time>2016-5-22T14:48:9Z</time></trkpt>
<trkpt lat="46.2326483" lon="7.3692300"><ele></ele><time>2016-5-22T14:48:12Z</time></trkpt>
<trkpt lat="46.2326750" lon="7.3692100"><ele></ele><time>2016-5-22T14:48:15Z</time></trkpt>
<trkpt lat="46.2327050" lon="7.3691950"><ele></ele><time>2016-5-22T14:48:18Z</time></trkpt>
<trkpt lat="46.2327367" lon="7.3691917"><ele></ele><time>2016-5-22T14:48:21Z</time></trkpt>
<trkpt lat="46.2327667" lon="7.3692000"><ele></ele><time>2016-5-22T14:48:24Z</time></trkpt>
<trkpt lat="46.2327933" lon="7.3692183"><ele></ele><time>2016-5-22T14:48:27Z</time></trkpt>
<trkpt lat="46.2328150" lon="7.3692417"><ele></ele><time>2016-5-22T14:48:30Z</time></trkpt>
<trkpt lat="46.2328383" lon="7.3692650"><ele></ele><time>2016-5-22T14:48:33Z</time></trkpt>
<trkpt lat="46.2328800" lon="7.3692283"><ele></ele><time>2016-5-22T14:48:36Z</time></trkpt>
<trkpt lat="46.2329067" lon="7.3692483"><ele></ele><time>2016-5-22T14:48:39Z</time></trkpt>
<trkpt lat="46.2329333" lon="7.3692667"><ele></ele><time>2016-5-22T14:48:42Z</time></trkpt>
<trkpt lat="46.2329583" lon="7.3692850"><ele></ele><time>2016-5-22T14:48:45Z</time></trkpt>
<trkpt lat="46.2329817" lon="7.3693017"><ele></ele><time>2016-5-22T14:48:48Z</time></trkpt>
<trkpt lat="46.2330033" lon="7.3693167"><ele></ele><time>2016-5-22T14:48:51Z</time></trkpt>
<trkpt lat="46.2330283" lon="7.3693350"><ele></ele><time>2016-5-22T14:48:54Z</time></trkpt>
<trkpt lat="46.2330483" lon="7.3693483"><ele></ele><time>2016-5-22T14:48:57Z</time></trkpt>
<trkpt lat="46.2330700" lon="7.3693650"><ele></ele><time>2016-5-22T14:49:0Z</time></trkpt>
<trkpt lat="46.2330867" lon="7.3693767"><ele></ele><time>2016-5-22T14:49:3Z</time></trkpt>
<trkpt lat="46.2330967" lon="7.3693833"><ele></ele><time>2016-5-22T14:49:6Z</time></trkpt>
<trkpt lat="46.2331100" lon="7.3693933"><ele></ele><time>2016-5-22T14:49:9Z</time></trkpt>
<trkpt lat="46.2331183" lon="7.3694000"><ele></ele><time>2016-5-22T14:49:12Z</time></trkpt>
<trkpt lat="46.2331233" lon="7.3694033"><ele></ele><time>2016-5-22T14:49:15Z</time></trkpt>
<trkpt lat="46.2331333" lon="7.3694117"><ele></ele><time>2016-5-22T14:49:18Z</time></trkpt>
<trkpt lat="46.2331367" lon="7.3694133"><ele></ele><time>2016-5-22T14:49:21Z</time></trkpt>
<trkpt lat="46.2331400" lon="7.3694150"><ele></ele><time>2016-5-22T14:49:24Z</time></trkpt>
<trkpt lat="46.2337867" lon="7.3693783"><ele></ele><time>2016-5-22T14:49:27Z</time></trkpt>
<trkpt lat="46.2337700" lon="7.3693817"><ele></ele><time>2016-5-22T14:49:30Z</time></trkpt>
<trkpt lat="46.2335917" lon="7.3693467"><ele></ele><time>2016-5-22T14:49:33Z</time></trkpt>
<trkpt lat="46.2333550" lon="7.3688800"><ele></ele><time>2016-5-22T14:49:36Z</time></trkpt>
<trkpt lat="46.2331750" lon="7.3693217"><ele></ele><time>2016-5-22T14:49:39Z</time></trkpt>
<trkpt lat="46.2331750" lon="7.3693217"><ele></ele><time>2016-5-22T14:49:42Z</time></trkpt>
<trkpt lat="46.2331650" lon="7.3693100"><ele></ele><time>2016-5-22T14:49:45Z</time></trkpt>
<trkpt lat="46.2331750" lon="7.3692883"><ele></ele><time>2016-5-22T14:49:48Z</time></trkpt>
<trkpt lat="46.2331833" lon="7.3692650"><ele></ele><time>2016-5-22T14:49:51Z</time></trkpt>
<trkpt lat="46.2331900" lon="7.3692400"><ele></ele><time>2016-5-22T14:49:54Z</time></trkpt>
<trkpt lat="46.2332000" lon="7.3692167"><ele></ele><time>2016-5-22T14:49:57Z</time></trkpt>
<trkpt lat="46.2332100" lon="7.3691917"><ele></ele><time>2016-5-22T14:50:0Z</time></trkpt>
<trkpt lat="46.2332233" lon="7.3691700"><ele></ele><time>2016-5-22T14:50:3Z</time></trkpt>
<trkpt lat="46.2332317" lon="7.3691450"><ele></ele><time>2016-5-22T14:50:6Z</time></trkpt>
<trkpt lat="46.2332683" lon="7.3690283"><ele></ele><time>2016-5-22T14:50:9Z</time></trkpt>
<trkpt lat="46.2332817" lon="7.3689883"><ele></ele><time>2016-5-22T14:50:12Z</time></trkpt>
<trkpt lat="46.2332950" lon="7.3689483"><ele></ele><time>2016-5-22T14:50:15Z</time></trkpt>
<trkpt lat="46.2333067" lon="7.3689150"><ele></ele><time>2016-5-22T14:50:18Z</time></trkpt>
<trkpt lat="46.2333200" lon="7.3688850"><ele></ele><time>2016-5-22T14:50:21Z</time></trkpt>
<trkpt lat="46.2333333" lon="7.3688533"><ele></ele><time>2016-5-22T14:50:24Z</time></trkpt>
<trkpt lat="46.2333417" lon="7.3688033"><ele></ele><time>2016-5-22T14:50:27Z</time></trkpt>
<trkpt lat="46.2333367" lon="7.3687467"><ele></ele><time>2016-5-22T14:50:30Z</time></trkpt>
<trkpt lat="46.2333150" lon="7.3686900"><ele></ele><time>2016-5-22T14:50:33Z</time></trkpt>
<trkpt lat="46.2332933" lon="7.3686417"><ele></ele><time>2016-5-22T14:50:36Z</time></trkpt>
<trkpt lat="46.2332483" lon="7.3685933"><ele></ele><time>2016-5-22T14:50:39Z</time></trkpt>
<trkpt lat="46.2331983" lon="7.3685817"><ele></ele><time>2016-5-22T14:50:42Z</time></trkpt>
<trkpt lat="46.2331600" lon="7.3685783"><ele></ele><time>2016-5-22T14:50:45Z</time></trkpt>
<trkpt lat="46.2331017" lon="7.3685533"><ele></ele><time>2016-5-22T14:50:48Z</time></trkpt>
<trkpt lat="46.2330600" lon="7.3685183"><ele></ele><time>2016-5-22T14:50:51Z</time></trkpt>
<trkpt lat="46.2330117" lon="7.3684883"><ele></ele><time>2016-5-22T14:50:54Z</time></trkpt>
<trkpt lat="46.2329700" lon="7.3684567"><ele></ele><time>2016-5-22T14:50:57Z</time></trkpt>
<trkpt lat="46.2329333" lon="7.3684150"><ele></ele><time>2016-5-22T14:51:0Z</time></trkpt>
<trkpt lat="46.2328917" lon="7.3683700"><ele></ele><time>2016-5-22T14:51:3Z</time></trkpt>
<trkpt lat="46.2328983" lon="7.3683500"><ele></ele><time>2016-5-22T14:51:6Z</time></trkpt>
<trkpt lat="46.2329133" lon="7.3683333"><ele></ele><time>2016-5-22T14:51:9Z</time></trkpt>
<trkpt lat="46.2329283" lon="7.3683200"><ele></ele><time>2016-5-22T14:51:12Z</time></trkpt>
<trkpt lat="46.2327767" lon="7.3681183"><ele></ele><time>2016-5-22T14:51:15Z</time></trkpt>
<trkpt lat="46.2327567" lon="7.3680517"><ele></ele><time>2016-5-22T14:51:18Z</time></trkpt>
<trkpt lat="46.2327217" lon="7.3679317"><ele></ele><time>2016-5-22T14:51:21Z</time></trkpt>
<trkpt lat="46.2327117" lon="7.3679000"><ele></ele><time>2016-5-22T14:51:24Z</time></trkpt>
<trkpt lat="46.2327017" lon="7.3678233"><ele></ele><time>2016-5-22T14:51:27Z</time></trkpt>
<trkpt lat="46.2326950" lon="7.3677833"><ele></ele><time>2016-5-22T14:51:30Z</time></trkpt>
<trkpt lat="46.2327017" lon="7.3677783"><ele></ele><time>2016-5-22T14:51:33Z</time></trkpt>
<trkpt lat="46.2327117" lon="7.3677717"><ele></ele><time>2016-5-22T14:51:36Z</time></trkpt>
<trkpt lat="46.2326500" lon="7.3675333"><ele></ele><time>2016-5-22T14:51:39Z</time></trkpt>
<trkpt lat="46.2326367" lon="7.3674750"><ele></ele><time>2016-5-22T14:51:42Z</time></trkpt>
<trkpt lat="46.2326367" lon="7.3674117"><ele></ele><time>2016-5-22T14:51:45Z</time></trkpt>
<trkpt lat="46.2326183" lon="7.3673383"><ele></ele><time>2016-5-22T14:51:48Z</time></trkpt>
<trkpt lat="46.2325983" lon="7.3672733"><ele></ele><time>2016-5-22T14:51:51Z</time></trkpt>
<trkpt lat="46.2325717" lon="7.3672133"><ele></ele><time>2016-5-22T14:51:54Z</time></trkpt>
<trkpt lat="46.2325517" lon="7.3671400"><ele></ele><time>2016-5-22T14:51:57Z</time></trkpt>
<trkpt lat="46.2325400" lon="7.3670583"><ele></ele><time>2016-5-22T14:52:0Z</time></trkpt>
<trkpt lat="46.2325317" lon="7.3669800"><ele></ele><time>2016-5-22T14:52:3Z</time></trkpt>
<trkpt lat="46.2325267" lon="7.3669183"><ele></ele><time>2016-5-22T14:52:6Z</time></trkpt>
<trkpt lat="46.2325100" lon="7.3668533"><ele></ele><time>2016-5-22T14:52:9Z</time></trkpt>
<trkpt lat="46.2324983" lon="7.3667867"><ele></ele><time>2016-5-22T14:52:12Z</time></trkpt>
<trkpt lat="46.2324833" lon="7.3667250"><ele></ele><time>2016-5-22T14:52:15Z</time></trkpt>
<trkpt lat="46.2324767" lon="7.3666533"><ele></ele><time>2016-5-22T14:52:18Z</time></trkpt>
<trkpt lat="46.2324700" lon="7.3665850"><ele></ele><time>2016-5-22T14:52:21Z</time></trkpt>
<trkpt lat="46.2324633" lon="7.3665267"><ele></ele><time>2016-5-22T14:52:24Z</time></trkpt>
<trkpt lat="46.2324583" lon="7.3664400"><ele></ele><time>2016-5-22T14:52:27Z</time></trkpt>
<trkpt lat="46.2324550" lon="7.3663667"><ele></ele><time>2016-5-22T14:52:30Z</time></trkpt>
<trkpt lat="46.2324617" lon="7.3663683"><ele></ele><time>2016-5-22T14:52:33Z</time></trkpt>
<trkpt lat="46.2324617" lon="7.3663683"><ele></ele><time>2016-5-22T14:52:36Z</time></trkpt>
<trkpt lat="46.2324617" lon="7.3663683"><ele></ele><time>2016-5-22T14:52:39Z</time></trkpt>
<trkpt lat="46.2324400" lon="7.3660817"><ele></ele><time>2016-5-22T14:52:42Z</time></trkpt>
<trkpt lat="46.2324367" lon="7.3660100"><ele></ele><time>2016-5-22T14:52:45Z</time></trkpt>
<trkpt lat="46.2324317" lon="7.3659417"><ele></ele><time>2016-5-22T14:52:48Z</time></trkpt>
<trkpt lat="46.2324233" lon="7.3658817"><ele></ele><time>2016-5-22T14:52:51Z</time></trkpt>
<trkpt lat="46.2324167" lon="7.3658150"><ele></ele><time>2016-5-22T14:52:54Z</time></trkpt>
<trkpt lat="46.2324000" lon="7.3657567"><ele></ele><time>2016-5-22T14:52:57Z</time></trkpt>
<trkpt lat="46.2323883" lon="7.3656933"><ele></ele><time>2016-5-22T14:53:0Z</time></trkpt>
<trkpt lat="46.2324000" lon="7.3656167"><ele></ele><time>2016-5-22T14:53:3Z</time></trkpt>
<trkpt lat="46.2324033" lon="7.3655433"><ele></ele><time>2016-5-22T14:53:6Z</time></trkpt>
<trkpt lat="46.2323867" lon="7.3655033"><ele></ele><time>2016-5-22T14:53:9Z</time></trkpt>
<trkpt lat="46.2323933" lon="7.3654867"><ele></ele><time>2016-5-22T14:53:12Z</time></trkpt>
<trkpt lat="46.2323933" lon="7.3654867"><ele></ele><time>2016-5-22T14:53:15Z</time></trkpt>
<trkpt lat="46.2323733" lon="7.3652950"><ele></ele><time>2016-5-22T14:53:18Z</time></trkpt>
<trkpt lat="46.2323483" lon="7.3652567"><ele></ele><time>2016-5-22T14:53:21Z</time></trkpt>
<trkpt lat="46.2323217" lon="7.3651933"><ele></ele><time>2016-5-22T14:53:24Z</time></trkpt>
<trkpt lat="46.2323117" lon="7.3651267"><ele></ele><time>2016-5-22T14:53:27Z</time></trkpt>
<trkpt lat="46.2323033" lon="7.3650517"><ele></ele><time>2016-5-22T14:53:30Z</time></trkpt>
<trkpt lat="46.2322950" lon="7.3649800"><ele></ele><time>2016-5-22T14:53:33Z</time></trkpt>
<trkpt lat="46.2322967" lon="7.3649017"><ele></ele><time>2016-5-22T14:53:36Z</time></trkpt>
<trkpt lat="46.2322917" lon="7.3648517"><ele></ele><time>2016-5-22T14:53:39Z</time></trkpt>
<trkpt lat="46.2322817" lon="7.3648117"><ele></ele><time>2016-5-22T14:53:42Z</time></trkpt>
<trkpt lat="46.2322700" lon="7.3647717"><ele></ele><time>2016-5-22T14:53:45Z</time></trkpt>
<trkpt lat="46.2322533" lon="7.3647117"><ele></ele><time>2016-5-22T14:53:48Z</time></trkpt>
<trkpt lat="46.2322433" lon="7.3646600"><ele></ele><time>2016-5-22T14:53:51Z</time></trkpt>
<trkpt lat="46.2322283" lon="7.3646083"><ele></ele><time>2016-5-22T14:53:54Z</time></trkpt>
<trkpt lat="46.2322217" lon="7.3645483"><ele></ele><time>2016-5-22T14:53:57Z</time></trkpt>
<trkpt lat="46.2322133" lon="7.3645033"><ele></ele><time>2016-5-22T14:54:0Z</time></trkpt>
<trkpt lat="46.2322033" lon="7.3644583"><ele></ele><time>2016-5-22T14:54:3Z</time></trkpt>
<trkpt lat="46.2321883" lon="7.3644167"><ele></ele><time>2016-5-22T14:54:6Z</time></trkpt>
<trkpt lat="46.2321650" lon="7.3643767"><ele></ele><time>2016-5-22T14:54:9Z</time></trkpt>
<trkpt lat="46.2321450" lon="7.3643367"><ele></ele><time>2016-5-22T14:54:12Z</time></trkpt>
<trkpt lat="46.2321283" lon="7.3643000"><ele></ele><time>2016-5-22T14:54:15Z</time></trkpt>
<trkpt lat="46.2321133" lon="7.3642667"><ele></ele><time>2016-5-22T14:54:18Z</time></trkpt>
<trkpt lat="46.2321017" lon="7.3642317"><ele></ele><time>2016-5-22T14:54:21Z</time></trkpt>
<trkpt lat="46.2320950" lon="7.3641983"><ele></ele><time>2016-5-22T14:54:24Z</time></trkpt>
<trkpt lat="46.2321217" lon="7.3638267"><ele></ele><time>2016-5-22T14:54:27Z</time></trkpt>
<trkpt lat="46.2321367" lon="7.3638250"><ele></ele><time>2016-5-22T14:54:30Z</time></trkpt>
<trkpt lat="46.2321333" lon="7.3638633"><ele></ele><time>2016-5-22T14:54:33Z</time></trkpt>
<trkpt lat="46.2321450" lon="7.3638267"><ele></ele><time>2016-5-22T14:54:36Z</time></trkpt>
<trkpt lat="46.2321317" lon="7.3637933"><ele></ele><time>2016-5-22T14:54:39Z</time></trkpt>
<trkpt lat="46.2321133" lon="7.3637800"><ele></ele><time>2016-5-22T14:54:42Z</time></trkpt>
<trkpt lat="46.2321217" lon="7.3638467"><ele></ele><time>2016-5-22T14:54:45Z</time></trkpt>
<trkpt lat="46.2321183" lon="7.3638567"><ele></ele><time>2016-5-22T14:54:48Z</time></trkpt>
<trkpt lat="46.2321100" lon="7.3638650"><ele></ele><time>2016-5-22T14:54:51Z</time></trkpt>
<trkpt lat="46.2321183" lon="7.3638500"><ele></ele><time>2016-5-22T14:54:54Z</time></trkpt>
<trkpt lat="46.2321067" lon="7.3638550"><ele></ele><time>2016-5-22T14:54:57Z</time></trkpt>
<trkpt lat="46.2320967" lon="7.3638583"><ele></ele><time>2016-5-22T14:55:0Z</time></trkpt>
<trkpt lat="46.2320883" lon="7.3638567"><ele></ele><time>2016-5-22T14:55:3Z</time></trkpt>
<trkpt lat="46.2320900" lon="7.3638250"><ele></ele><time>2016-5-22T14:55:6Z</time></trkpt>
<trkpt lat="46.2320950" lon="7.3638033"><ele></ele><time>2016-5-22T14:55:9Z</time></trkpt>
<trkpt lat="46.2321067" lon="7.3637917"><ele></ele><time>2016-5-22T14:55:12Z</time></trkpt>
<trkpt lat="46.2321200" lon="7.3637950"><ele></ele><time>2016-5-22T14:55:15Z</time></trkpt>
<trkpt lat="46.2321300" lon="7.3638000"><ele></ele><time>2016-5-22T14:55:18Z</time></trkpt>
<trkpt lat="46.2321433" lon="7.3638033"><ele></ele><time>2016-5-22T14:55:21Z</time></trkpt>
<trkpt lat="46.2321467" lon="7.3638017"><ele></ele><time>2016-5-22T14:55:24Z</time></trkpt>
<trkpt lat="46.2321467" lon="7.3638017"><ele></ele><time>2016-5-22T14:55:27Z</time></trkpt>
<trkpt lat="46.2321400" lon="7.3637583"><ele></ele><time>2016-5-22T14:55:30Z</time></trkpt>
<trkpt lat="46.2321383" lon="7.3637550"><ele></ele><time>2016-5-22T14:55:33Z</time></trkpt>
<trkpt lat="46.2321383" lon="7.3637667"><ele></ele><time>2016-5-22T14:55:36Z</time></trkpt>
<trkpt lat="46.2321317" lon="7.3637833"><ele></ele><time>2016-5-22T14:55:39Z</time></trkpt>
<trkpt lat="46.2322700" lon="7.3636400"><ele></ele><time>2016-5-22T14:55:42Z</time></trkpt>
<trkpt lat="46.2322867" lon="7.3636350"><ele></ele><time>2016-5-22T14:55:45Z</time></trkpt>
<trkpt lat="46.2322883" lon="7.3634850"><ele></ele><time>2016-5-22T14:55:48Z</time></trkpt>
<trkpt lat="46.2322933" lon="7.3634450"><ele></ele><time>2016-5-22T14:55:51Z</time></trkpt>
<trkpt lat="46.2322900" lon="7.3634067"><ele></ele><time>2016-5-22T14:55:54Z</time></trkpt>
<trkpt lat="46.2322867" lon="7.3633667"><ele></ele><time>2016-5-22T14:55:57Z</time></trkpt>
<trkpt lat="46.2322883" lon="7.3633267"><ele></ele><time>2016-5-22T14:56:0Z</time></trkpt>
<trkpt lat="46.2322967" lon="7.3632867"><ele></ele><time>2016-5-22T14:56:3Z</time></trkpt>
<trkpt lat="46.2323100" lon="7.3632517"><ele></ele><time>2016-5-22T14:56:6Z</time></trkpt>
<trkpt lat="46.2323283" lon="7.3632217"><ele></ele><time>2016-5-22T14:56:9Z</time></trkpt>
<trkpt lat="46.2323533" lon="7.3631950"><ele></ele><time>2016-5-22T14:56:12Z</time></trkpt>
<trkpt lat="46.2323800" lon="7.3631717"><ele></ele><time>2016-5-22T14:56:15Z</time></trkpt>
<trkpt lat="46.2324050" lon="7.3631500"><ele></ele><time>2016-5-22T14:56:18Z</time></trkpt>
<trkpt lat="46.2324283" lon="7.3631250"><ele></ele><time>2016-5-22T14:56:21Z</time></trkpt>
<trkpt lat="46.2324483" lon="7.3630983"><ele></ele><time>2016-5-22T14:56:24Z</time></trkpt>
<trkpt lat="46.2324683" lon="7.3630650"><ele></ele><time>2016-5-22T14:56:27Z</time></trkpt>
<trkpt lat="46.2324850" lon="7.3630283"><ele></ele><time>2016-5-22T14:56:30Z</time></trkpt>
<trkpt lat="46.2324983" lon="7.3629900"><ele></ele><time>2016-5-22T14:56:33Z</time></trkpt>
<trkpt lat="46.2325033" lon="7.3629517"><ele></ele><time>2016-5-22T14:56:36Z</time></trkpt>
<trkpt lat="46.2325017" lon="7.3629150"><ele></ele><time>2016-5-22T14:56:39Z</time></trkpt>
<trkpt lat="46.2324950" lon="7.3628800"><ele></ele><time>2016-5-22T14:56:42Z</time></trkpt>
<trkpt lat="46.2324883" lon="7.3628400"><ele></ele><time>2016-5-22T14:56:45Z</time></trkpt>
<trkpt lat="46.2324833" lon="7.3628033"><ele></ele><time>2016-5-22T14:56:48Z</time></trkpt>
<trkpt lat="46.2324800" lon="7.3627633"><ele></ele><time>2016-5-22T14:56:51Z</time></trkpt>
<trkpt lat="46.2324767" lon="7.3627283"><ele></ele><time>2016-5-22T14:56:54Z</time></trkpt>
<trkpt lat="46.2324700" lon="7.3626917"><ele></ele><time>2016-5-22T14:56:57Z</time></trkpt>
<trkpt lat="46.2324650" lon="7.3626567"><ele></ele><time>2016-5-22T14:57:0Z</time></trkpt>
<trkpt lat="46.2324583" lon="7.3626217"><ele></ele><time>2016-5-22T14:57:3Z</time></trkpt>
<trkpt lat="46.2324533" lon="7.3625867"><ele></ele><time>2016-5-22T14:57:6Z</time></trkpt>
<trkpt lat="46.2324483" lon="7.3625550"><ele></ele><time>2016-5-22T14:57:9Z</time></trkpt>
<trkpt lat="46.2324467" lon="7.3625200"><ele></ele><time>2016-5-22T14:57:12Z</time></trkpt>
<trkpt lat="46.2324433" lon="7.3624883"><ele></ele><time>2016-5-22T14:57:15Z</time></trkpt>
<trkpt lat="46.2324400" lon="7.3624533"><ele></ele><time>2016-5-22T14:57:18Z</time></trkpt>
<trkpt lat="46.2324400" lon="7.3624150"><ele></ele><time>2016-5-22T14:57:21Z</time></trkpt>
<trkpt lat="46.2324267" lon="7.3623750"><ele></ele><time>2016-5-22T14:57:24Z</time></trkpt>
<trkpt lat="46.2324000" lon="7.3623400"><ele></ele><time>2016-5-22T14:57:27Z</time></trkpt>
<trkpt lat="46.2323683" lon="7.3623100"><ele></ele><time>2016-5-22T14:57:30Z</time></trkpt>
<trkpt lat="46.2323333" lon="7.3622833"><ele></ele><time>2016-5-22T14:57:33Z</time></trkpt>
<trkpt lat="46.2323033" lon="7.3622600"><ele></ele><time>2016-5-22T14:57:36Z</time></trkpt>
<trkpt lat="46.2322883" lon="7.3622317"><ele></ele><time>2016-5-22T14:57:39Z</time></trkpt>
<trkpt lat="46.2322850" lon="7.3622000"><ele></ele><time>2016-5-22T14:57:42Z</time></trkpt>
<trkpt lat="46.2322983" lon="7.3621650"><ele></ele><time>2016-5-22T14:57:45Z</time></trkpt>
<trkpt lat="46.2323150" lon="7.3621283"><ele></ele><time>2016-5-22T14:57:48Z</time></trkpt>
<trkpt lat="46.2323333" lon="7.3620917"><ele></ele><time>2016-5-22T14:57:51Z</time></trkpt>
<trkpt lat="46.2323500" lon="7.3620567"><ele></ele><time>2016-5-22T14:57:54Z</time></trkpt>
<trkpt lat="46.2323667" lon="7.3620183"><ele></ele><time>2016-5-22T14:57:57Z</time></trkpt>
<trkpt lat="46.2323833" lon="7.3619817"><ele></ele><time>2016-5-22T14:58:0Z</time></trkpt>
<trkpt lat="46.2324000" lon="7.3619417"><ele></ele><time>2016-5-22T14:58:3Z</time></trkpt>
<trkpt lat="46.2324183" lon="7.3619000"><ele></ele><time>2016-5-22T14:58:6Z</time></trkpt>
<trkpt lat="46.2324333" lon="7.3618583"><ele></ele><time>2016-5-22T14:58:9Z</time></trkpt>
<trkpt lat="46.2324483" lon="7.3618200"><ele></ele><time>2016-5-22T14:58:12Z</time></trkpt>
<trkpt lat="46.2324617" lon="7.3617867"><ele></ele><time>2016-5-22T14:58:15Z</time></trkpt>
<trkpt lat="46.2324767" lon="7.3617533"><ele></ele><time>2016-5-22T14:58:18Z</time></trkpt>
<trkpt lat="46.2324950" lon="7.3617167"><ele></ele><time>2016-5-22T14:58:21Z</time></trkpt>
<trkpt lat="46.2325150" lon="7.3616800"><ele></ele><time>2016-5-22T14:58:24Z</time></trkpt>
<trkpt lat="46.2325350" lon="7.3616450"><ele></ele><time>2016-5-22T14:58:27Z</time></trkpt>
<trkpt lat="46.2325517" lon="7.3616167"><ele></ele><time>2016-5-22T14:58:30Z</time></trkpt>
<trkpt lat="46.2325700" lon="7.3615917"><ele></ele><time>2016-5-22T14:58:33Z</time></trkpt>
<trkpt lat="46.2325900" lon="7.3615650"><ele></ele><time>2016-5-22T14:58:36Z</time></trkpt>
<trkpt lat="46.2326100" lon="7.3615333"><ele></ele><time>2016-5-22T14:58:39Z</time></trkpt>
<trkpt lat="46.2326283" lon="7.3614983"><ele></ele><time>2016-5-22T14:58:42Z</time></trkpt>
<trkpt lat="46.2326450" lon="7.3614600"><ele></ele><time>2016-5-22T14:58:45Z</time></trkpt>
<trkpt lat="46.2326617" lon="7.3614267"><ele></ele><time>2016-5-22T14:58:48Z</time></trkpt>
<trkpt lat="46.2326767" lon="7.3613933"><ele></ele><time>2016-5-22T14:58:51Z</time></trkpt>
<trkpt lat="46.2326917" lon="7.3613550"><ele></ele><time>2016-5-22T14:58:54Z</time></trkpt>
<trkpt lat="46.2327083" lon="7.3613150"><ele></ele><time>2016-5-22T14:58:57Z</time></trkpt>
<trkpt lat="46.2327267" lon="7.3612717"><ele></ele><time>2016-5-22T14:59:0Z</time></trkpt>
<trkpt lat="46.2327483" lon="7.3612283"><ele></ele><time>2016-5-22T14:59:3Z</time></trkpt>
<trkpt lat="46.2327733" lon="7.3611883"><ele></ele><time>2016-5-22T14:59:6Z</time></trkpt>
<trkpt lat="46.2327833" lon="7.3611667"><ele></ele><time>2016-5-22T14:59:9Z</time></trkpt>
<trkpt lat="46.2327833" lon="7.3611583"><ele></ele><time>2016-5-22T14:59:12Z</time></trkpt>
<trkpt lat="46.2327733" lon="7.3611550"><ele></ele><time>2016-5-22T14:59:15Z</time></trkpt>
<trkpt lat="46.2327633" lon="7.3611583"><ele></ele><time>2016-5-22T14:59:18Z</time></trkpt>
<trkpt lat="46.2327650" lon="7.3611517"><ele></ele><time>2016-5-22T14:59:21Z</time></trkpt>
<trkpt lat="46.2327783" lon="7.3611400"><ele></ele><time>2016-5-22T14:59:24Z</time></trkpt>
<trkpt lat="46.2327917" lon="7.3610967"><ele></ele><time>2016-5-22T14:59:27Z</time></trkpt>
<trkpt lat="46.2328100" lon="7.3610500"><ele></ele><time>2016-5-22T14:59:30Z</time></trkpt>
<trkpt lat="46.2328300" lon="7.3610067"><ele></ele><time>2016-5-22T14:59:33Z</time></trkpt>
<trkpt lat="46.2328550" lon="7.3609650"><ele></ele><time>2016-5-22T14:59:36Z</time></trkpt>
<trkpt lat="46.2328817" lon="7.3609283"><ele></ele><time>2016-5-22T14:59:39Z</time></trkpt>
<trkpt lat="46.2329100" lon="7.3608900"><ele></ele><time>2016-5-22T14:59:42Z</time></trkpt>
<trkpt lat="46.2329367" lon="7.3608550"><ele></ele><time>2016-5-22T14:59:45Z</time></trkpt>
<trkpt lat="46.2329633" lon="7.3608217"><ele></ele><time>2016-5-22T14:59:48Z</time></trkpt>
<trkpt lat="46.2329900" lon="7.3607917"><ele></ele><time>2016-5-22T14:59:51Z</time></trkpt>
<trkpt lat="46.2330167" lon="7.3607617"><ele></ele><time>2016-5-22T14:59:54Z</time></trkpt>
<trkpt lat="46.2330467" lon="7.3607350"><ele></ele><time>2016-5-22T14:59:57Z</time></trkpt>
<trkpt lat="46.2330717" lon="7.3607083"><ele></ele><time>2016-5-22T15:0:0Z</time></trkpt>
<trkpt lat="46.2330983" lon="7.3606867"><ele></ele><time>2016-5-22T15:0:3Z</time></trkpt>
<trkpt lat="46.2331267" lon="7.3606667"><ele></ele><time>2016-5-22T15:0:6Z</time></trkpt>
<trkpt lat="46.2331500" lon="7.3606550"><ele></ele><time>2016-5-22T15:0:9Z</time></trkpt>
<trkpt lat="46.2331733" lon="7.3606500"><ele></ele><time>2016-5-22T15:0:12Z</time></trkpt>
<trkpt lat="46.2332033" lon="7.3606450"><ele></ele><time>2016-5-22T15:0:15Z</time></trkpt>
<trkpt lat="46.2332633" lon="7.3606383"><ele></ele><time>2016-5-22T15:0:18Z</time></trkpt>
<trkpt lat="46.2332667" lon="7.3606333"><ele></ele><time>2016-5-22T15:0:21Z</time></trkpt>
<trkpt lat="46.2333100" lon="7.3606250"><ele></ele><time>2016-5-22T15:0:24Z</time></trkpt>
<trkpt lat="46.2333300" lon="7.3606167"><ele></ele><time>2016-5-22T15:0:27Z</time></trkpt>
<trkpt lat="46.2333583" lon="7.3606100"><ele></ele><time>2016-5-22T15:0:30Z</time></trkpt>
<trkpt lat="46.2333883" lon="7.3606000"><ele></ele><time>2016-5-22T15:0:33Z</time></trkpt>
<trkpt lat="46.2333983" lon="7.3605917"><ele></ele><time>2016-5-22T15:0:36Z</time></trkpt>
<trkpt lat="46.2334017" lon="7.3605833"><ele></ele><time>2016-5-22T15:0:39Z</time></trkpt>
<trkpt lat="46.2334017" lon="7.3605750"><ele></ele><time>2016-5-22T15:0:42Z</time></trkpt>
<trkpt lat="46.2334017" lon="7.3605667"><ele></ele><time>2016-5-22T15:0:45Z</time></trkpt>
<trkpt lat="46.2334017" lon="7.3605617"><ele></ele><time>2016-5-22T15:0:48Z</time></trkpt>
<trkpt lat="46.2334000" lon="7.3605583"><ele></ele><time>2016-5-22T15:0:51Z</time></trkpt>
<trkpt lat="46.2336100" lon="7.3605417"><ele></ele><time>2016-5-22T15:0:54Z</time></trkpt>
<trkpt lat="46.2336517" lon="7.3605367"><ele></ele><time>2016-5-22T15:0:57Z</time></trkpt>
<trkpt lat="46.2336900" lon="7.3605333"><ele></ele><time>2016-5-22T15:1:0Z</time></trkpt>
<trkpt lat="46.2337050" lon="7.3605367"><ele></ele><time>2016-5-22T15:1:3Z</time></trkpt>
<trkpt lat="46.2337067" lon="7.3605400"><ele></ele><time>2016-5-22T15:1:6Z</time></trkpt>
<trkpt lat="46.2337083" lon="7.3605400"><ele></ele><time>2016-5-22T15:1:9Z</time></trkpt>
<trkpt lat="46.2337067" lon="7.3605333"><ele></ele><time>2016-5-22T15:1:12Z</time></trkpt>
<trkpt lat="46.2337067" lon="7.3605333"><ele></ele><time>2016-5-22T15:1:15Z</time></trkpt>
<trkpt lat="46.2338633" lon="7.3605033"><ele></ele><time>2016-5-22T15:1:18Z</time></trkpt>
<trkpt lat="46.2338683" lon="7.3605050"><ele></ele><time>2016-5-22T15:1:21Z</time></trkpt>
<trkpt lat="46.2338683" lon="7.3605033"><ele></ele><time>2016-5-22T15:1:24Z</time></trkpt>
<trkpt lat="46.2338683" lon="7.3604967"><ele></ele><time>2016-5-22T15:1:27Z</time></trkpt>
<trkpt lat="46.2338683" lon="7.3604883"><ele></ele><time>2016-5-22T15:1:30Z</time></trkpt>
<trkpt lat="46.2340650" lon="7.3604533"><ele></ele><time>2016-5-22T15:1:33Z</time></trkpt>
<trkpt lat="46.2341167" lon="7.3604383"><ele></ele><time>2016-5-22T15:1:36Z</time></trkpt>
<trkpt lat="46.2341567" lon="7.3604283"><ele></ele><time>2016-5-22T15:1:39Z</time></trkpt>
<trkpt lat="46.2341983" lon="7.3604183"><ele></ele><time>2016-5-22T15:1:42Z</time></trkpt>
<trkpt lat="46.2342383" lon="7.3604100"><ele></ele><time>2016-5-22T15:1:45Z</time></trkpt>
<trkpt lat="46.2342733" lon="7.3604017"><ele></ele><time>2016-5-22T15:1:48Z</time></trkpt>
<trkpt lat="46.2343083" lon="7.3603950"><ele></ele><time>2016-5-22T15:1:51Z</time></trkpt>
<trkpt lat="46.2343467" lon="7.3603900"><ele></ele><time>2016-5-22T15:1:54Z</time></trkpt>
<trkpt lat="46.2343817" lon="7.3603917"><ele></ele><time>2016-5-22T15:1:57Z</time></trkpt>
<trkpt lat="46.2344067" lon="7.3604000"><ele></ele><time>2016-5-22T15:2:0Z</time></trkpt>
<trkpt lat="46.2344233" lon="7.3604083"><ele></ele><time>2016-5-22T15:2:3Z</time></trkpt>
<trkpt lat="46.2344367" lon="7.3604167"><ele></ele><time>2016-5-22T15:2:6Z</time></trkpt>
<trkpt lat="46.2344600" lon="7.3604350"><ele></ele><time>2016-5-22T15:2:9Z</time></trkpt>
<trkpt lat="46.2344983" lon="7.3604433"><ele></ele><time>2016-5-22T15:2:12Z</time></trkpt>
<trkpt lat="46.2345333" lon="7.3604567"><ele></ele><time>2016-5-22T15:2:15Z</time></trkpt>
<trkpt lat="46.2345733" lon="7.3604650"><ele></ele><time>2016-5-22T15:2:18Z</time></trkpt>
<trkpt lat="46.2346150" lon="7.3604733"><ele></ele><time>2016-5-22T15:2:21Z</time></trkpt>
<trkpt lat="46.2346517" lon="7.3604800"><ele></ele><time>2016-5-22T15:2:24Z</time></trkpt>
<trkpt lat="46.2347017" lon="7.3604817"><ele></ele><time>2016-5-22T15:2:27Z</time></trkpt>
<trkpt lat="46.2347583" lon="7.3604767"><ele></ele><time>2016-5-22T15:2:30Z</time></trkpt>
<trkpt lat="46.2348067" lon="7.3604700"><ele></ele><time>2016-5-22T15:2:33Z</time></trkpt>
<trkpt lat="46.2348600" lon="7.3604667"><ele></ele><time>2016-5-22T15:2:36Z</time></trkpt>
<trkpt lat="46.2349167" lon="7.3604733"><ele></ele><time>2016-5-22T15:2:39Z</time></trkpt>
<trkpt lat="46.2349283" lon="7.3604750"><ele></ele><time>2016-5-22T15:2:42Z</time></trkpt>
<trkpt lat="46.2349317" lon="7.3604667"><ele></ele><time>2016-5-22T15:2:45Z</time></trkpt>
<trkpt lat="46.2349333" lon="7.3604567"><ele></ele><time>2016-5-22T15:2:48Z</time></trkpt>
<trkpt lat="46.2351100" lon="7.3604767"><ele></ele><time>2016-5-22T15:2:51Z</time></trkpt>
<trkpt lat="46.2351417" lon="7.3604733"><ele></ele><time>2016-5-22T15:2:54Z</time></trkpt>
<trkpt lat="46.2351700" lon="7.3604733"><ele></ele><time>2016-5-22T15:2:57Z</time></trkpt>
<trkpt lat="46.2351983" lon="7.3604750"><ele></ele><time>2016-5-22T15:3:0Z</time></trkpt>
<trkpt lat="46.2352267" lon="7.3604767"><ele></ele><time>2016-5-22T15:3:3Z</time></trkpt>
<trkpt lat="46.2352600" lon="7.3604750"><ele></ele><time>2016-5-22T15:3:6Z</time></trkpt>
<trkpt lat="46.2353033" lon="7.3604767"><ele></ele><time>2016-5-22T15:3:9Z</time></trkpt>
<trkpt lat="46.2353467" lon="7.3604800"><ele></ele><time>2016-5-22T15:3:12Z</time></trkpt>
<trkpt lat="46.2353750" lon="7.3604867"><ele></ele><time>2016-5-22T15:3:15Z</time></trkpt>
<trkpt lat="46.2354067" lon="7.3604950"><ele></ele><time>2016-5-22T15:3:18Z</time></trkpt>
<trkpt lat="46.2354400" lon="7.3605083"><ele></ele><time>2016-5-22T15:3:21Z</time></trkpt>
<trkpt lat="46.2354417" lon="7.3605083"><ele></ele><time>2016-5-22T15:3:24Z</time></trkpt>
<trkpt lat="46.2354433" lon="7.3605000"><ele></ele><time>2016-5-22T15:3:27Z</time></trkpt>
<trkpt lat="46.2354433" lon="7.3604900"><ele></ele><time>2016-5-22T15:3:30Z</time></trkpt>
<trkpt lat="46.2356033" lon="7.3605133"><ele></ele><time>2016-5-22T15:3:33Z</time></trkpt>
<trkpt lat="46.2356367" lon="7.3605183"><ele></ele><time>2016-5-22T15:3:36Z</time></trkpt>
<trkpt lat="46.2356467" lon="7.3605217"><ele></ele><time>2016-5-22T15:3:39Z</time></trkpt>
<trkpt lat="46.2356583" lon="7.3604950"><ele></ele><time>2016-5-22T15:3:42Z</time></trkpt>
<trkpt lat="46.2357683" lon="7.3606100"><ele></ele><time>2016-5-22T15:3:45Z</time></trkpt>
<trkpt lat="46.2358083" lon="7.3605733"><ele></ele><time>2016-5-22T15:3:48Z</time></trkpt>
<trkpt lat="46.2358517" lon="7.3605683"><ele></ele><time>2016-5-22T15:3:51Z</time></trkpt>
<trkpt lat="46.2358883" lon="7.3605583"><ele></ele><time>2016-5-22T15:3:54Z</time></trkpt>
<trkpt lat="46.2359117" lon="7.3605350"><ele></ele><time>2016-5-22T15:3:57Z</time></trkpt>
<trkpt lat="46.2358517" lon="7.3606300"><ele></ele><time>2016-5-22T15:4:0Z</time></trkpt>
<trkpt lat="46.2358800" lon="7.3605100"><ele></ele><time>2016-5-22T15:4:3Z</time></trkpt>
<trkpt lat="46.2358967" lon="7.3605033"><ele></ele><time>2016-5-22T15:4:6Z</time></trkpt>
<trkpt lat="46.2359000" lon="7.3605033"><ele></ele><time>2016-5-22T15:4:9Z</time></trkpt>
<trkpt lat="46.2358783" lon="7.3604900"><ele></ele><time>2016-5-22T15:4:12Z</time></trkpt>
<trkpt lat="46.2357867" lon="7.3603283"><ele></ele><time>2016-5-22T15:4:15Z</time></trkpt>
<trkpt lat="46.2358533" lon="7.3604100"><ele></ele><time>2016-5-22T15:4:18Z</time></trkpt>
<trkpt lat="46.2358433" lon="7.3603617"><ele></ele><time>2016-5-22T15:4:21Z</time></trkpt>
<trkpt lat="46.2357250" lon="7.3600633"><ele></ele><time>2016-5-22T15:4:24Z</time></trkpt>
<trkpt lat="46.2357083" lon="7.3600050"><ele></ele><time>2016-5-22T15:4:27Z</time></trkpt>
<trkpt lat="46.2356883" lon="7.3599400"><ele></ele><time>2016-5-22T15:4:30Z</time></trkpt>
<trkpt lat="46.2356750" lon="7.3598950"><ele></ele><time>2016-5-22T15:4:33Z</time></trkpt>
<trkpt lat="46.2356533" lon="7.3598267"><ele></ele><time>2016-5-22T15:4:36Z</time></trkpt>
<trkpt lat="46.2356383" lon="7.3597800"><ele></ele><time>2016-5-22T15:4:39Z</time></trkpt>
<trkpt lat="46.2356200" lon="7.3597150"><ele></ele><time>2016-5-22T15:4:42Z</time></trkpt>
<trkpt lat="46.2356067" lon="7.3596500"><ele></ele><time>2016-5-22T15:4:45Z</time></trkpt>
<trkpt lat="46.2355933" lon="7.3595917"><ele></ele><time>2016-5-22T15:4:48Z</time></trkpt>
<trkpt lat="46.2355800" lon="7.3595267"><ele></ele><time>2016-5-22T15:4:51Z</time></trkpt>
<trkpt lat="46.2355650" lon="7.3594567"><ele></ele><time>2016-5-22T15:4:54Z</time></trkpt>
<trkpt lat="46.2355550" lon="7.3594183"><ele></ele><time>2016-5-22T15:4:57Z</time></trkpt>
<trkpt lat="46.2355450" lon="7.3593650"><ele></ele><time>2016-5-22T15:5:0Z</time></trkpt>
<trkpt lat="46.2355317" lon="7.3592983"><ele></ele><time>2016-5-22T15:5:3Z</time></trkpt>
<trkpt lat="46.2355183" lon="7.3592333"><ele></ele><time>2016-5-22T15:5:6Z</time></trkpt>
<trkpt lat="46.2355067" lon="7.3591767"><ele></ele><time>2016-5-22T15:5:9Z</time></trkpt>
<trkpt lat="46.2354933" lon="7.3591150"><ele></ele><time>2016-5-22T15:5:12Z</time></trkpt>
<trkpt lat="46.2354783" lon="7.3590450"><ele></ele><time>2016-5-22T15:5:15Z</time></trkpt>
<trkpt lat="46.2354683" lon="7.3589950"><ele></ele><time>2016-5-22T15:5:18Z</time></trkpt>
<trkpt lat="46.2354600" lon="7.3589467"><ele></ele><time>2016-5-22T15:5:21Z</time></trkpt>
<trkpt lat="46.2354317" lon="7.3589033"><ele></ele><time>2016-5-22T15:5:24Z</time></trkpt>
<trkpt lat="46.2354033" lon="7.3588400"><ele></ele><time>2016-5-22T15:5:27Z</time></trkpt>
<trkpt lat="46.2353783" lon="7.3587717"><ele></ele><time>2016-5-22T15:5:30Z</time></trkpt>
<trkpt lat="46.2353700" lon="7.3587067"><ele></ele><time>2016-5-22T15:5:33Z</time></trkpt>
<trkpt lat="46.2353483" lon="7.3586367"><ele></ele><time>2016-5-22T15:5:36Z</time></trkpt>
<trkpt lat="46.2353350" lon="7.3585767"><ele></ele><time>2016-5-22T15:5:39Z</time></trkpt>
<trkpt lat="46.2353383" lon="7.3585050"><ele></ele><time>2016-5-22T15:5:42Z</time></trkpt>
<trkpt lat="46.2353783" lon="7.3584667"><ele></ele><time>2016-5-22T15:5:45Z</time></trkpt>
<trkpt lat="46.2354050" lon="7.3584500"><ele></ele><time>2016-5-22T15:5:48Z</time></trkpt>
<trkpt lat="46.2354300" lon="7.3584400"><ele></ele><time>2016-5-22T15:5:51Z</time></trkpt>
<trkpt lat="46.2354383" lon="7.3584417"><ele></ele><time>2016-5-22T15:5:54Z</time></trkpt>
<trkpt lat="46.2354333" lon="7.3584267"><ele></ele><time>2016-5-22T15:5:57Z</time></trkpt>
<trkpt lat="46.2354350" lon="7.3584333"><ele></ele><time>2016-5-22T15:6:0Z</time></trkpt>
<trkpt lat="46.2355383" lon="7.3583567"><ele></ele><time>2016-5-22T15:6:3Z</time></trkpt>
<trkpt lat="46.2355350" lon="7.3583483"><ele></ele><time>2016-5-22T15:6:6Z</time></trkpt>
<trkpt lat="46.2355300" lon="7.3583467"><ele></ele><time>2016-5-22T15:6:9Z</time></trkpt>
<trkpt lat="46.2355317" lon="7.3583500"><ele></ele><time>2016-5-22T15:6:12Z</time></trkpt>
<trkpt lat="46.2355333" lon="7.3583517"><ele></ele><time>2016-5-22T15:6:15Z</time></trkpt>
<trkpt lat="46.2355317" lon="7.3583450"><ele></ele><time>2016-5-22T15:6:18Z</time></trkpt>
<trkpt lat="46.2356083" lon="7.3581267"><ele></ele><time>2016-5-22T15:6:21Z</time></trkpt>
<trkpt lat="46.2356233" lon="7.3581117"><ele></ele><time>2016-5-22T15:6:24Z</time></trkpt>
<trkpt lat="46.2356333" lon="7.3581017"><ele></ele><time>2016-5-22T15:6:27Z</time></trkpt>
<trkpt lat="46.2356400" lon="7.3580950"><ele></ele><time>2016-5-22T15:6:30Z</time></trkpt>
<trkpt lat="46.2356417" lon="7.3580933"><ele></ele><time>2016-5-22T15:6:33Z</time></trkpt>
<trkpt lat="46.2356433" lon="7.3580917"><ele></ele><time>2016-5-22T15:6:36Z</time></trkpt>
<trkpt lat="46.2356483" lon="7.3580867"><ele></ele><time>2016-5-22T15:6:39Z</time></trkpt>
<trkpt lat="46.2356533" lon="7.3580817"><ele></ele><time>2016-5-22T15:6:42Z</time></trkpt>
<trkpt lat="46.2356667" lon="7.3580683"><ele></ele><time>2016-5-22T15:6:45Z</time></trkpt>
<trkpt lat="46.2356750" lon="7.3580583"><ele></ele><time>2016-5-22T15:6:48Z</time></trkpt>
<trkpt lat="46.2356733" lon="7.3580617"><ele></ele><time>2016-5-22T15:6:51Z</time></trkpt>
<trkpt lat="46.2357117" lon="7.3580183"><ele></ele><time>2016-5-22T15:6:54Z</time></trkpt>
<trkpt lat="46.2357317" lon="7.3579950"><ele></ele><time>2016-5-22T15:6:57Z</time></trkpt>
<trkpt lat="46.2357533" lon="7.3579717"><ele></ele><time>2016-5-22T15:7:0Z</time></trkpt>
<trkpt lat="46.2357733" lon="7.3579500"><ele></ele><time>2016-5-22T15:7:3Z</time></trkpt>
<trkpt lat="46.2357883" lon="7.3579317"><ele></ele><time>2016-5-22T15:7:6Z</time></trkpt>
<trkpt lat="46.2358067" lon="7.3579117"><ele></ele><time>2016-5-22T15:7:9Z</time></trkpt>
<trkpt lat="46.2358217" lon="7.3578933"><ele></ele><time>2016-5-22T15:7:12Z</time></trkpt>
<trkpt lat="46.2358533" lon="7.3578583"><ele></ele><time>2016-5-22T15:7:15Z</time></trkpt>
<trkpt lat="46.2358833" lon="7.3578250"><ele></ele><time>2016-5-22T15:7:18Z</time></trkpt>
<trkpt lat="46.2359017" lon="7.3578033"><ele></ele><time>2016-5-22T15:7:21Z</time></trkpt>
<trkpt lat="46.2359217" lon="7.3577800"><ele></ele><time>2016-5-22T15:7:24Z</time></trkpt>
<trkpt lat="46.2359417" lon="7.3577600"><ele></ele><time>2016-5-22T15:7:27Z</time></trkpt>
<trkpt lat="46.2359600" lon="7.3577400"><ele></ele><time>2016-5-22T15:7:30Z</time></trkpt>
<trkpt lat="46.2359767" lon="7.3577200"><ele></ele><time>2016-5-22T15:7:33Z</time></trkpt>
<trkpt lat="46.2359967" lon="7.3576983"><ele></ele><time>2016-5-22T15:7:36Z</time></trkpt>
<trkpt lat="46.2360233" lon="7.3576700"><ele></ele><time>2016-5-22T15:7:39Z</time></trkpt>
<trkpt lat="46.2360483" lon="7.3576417"><ele></ele><time>2016-5-22T15:7:42Z</time></trkpt>
<trkpt lat="46.2360717" lon="7.3576167"><ele></ele><time>2016-5-22T15:7:45Z</time></trkpt>
<trkpt lat="46.2360967" lon="7.3575900"><ele></ele><time>2016-5-22T15:7:48Z</time></trkpt>
<trkpt lat="46.2361233" lon="7.3575600"><ele></ele><time>2016-5-22T15:7:51Z</time></trkpt>
<trkpt lat="46.2361467" lon="7.3575333"><ele></ele><time>2016-5-22T15:7:54Z</time></trkpt>
<trkpt lat="46.2361700" lon="7.3575083"><ele></ele><time>2016-5-22T15:7:57Z</time></trkpt>
<trkpt lat="46.2361917" lon="7.3574833"><ele></ele><time>2016-5-22T15:8:0Z</time></trkpt>
<trkpt lat="46.2362133" lon="7.3574567"><ele></ele><time>2016-5-22T15:8:3Z</time></trkpt>
<trkpt lat="46.2362367" lon="7.3574300"><ele></ele><time>2016-5-22T15:8:6Z</time></trkpt>
<trkpt lat="46.2362600" lon="7.3574000"><ele></ele><time>2016-5-22T15:8:9Z</time></trkpt>
<trkpt lat="46.2362867" lon="7.3573650"><ele></ele><time>2016-5-22T15:8:12Z</time></trkpt>
<trkpt lat="46.2363133" lon="7.3573317"><ele></ele><time>2016-5-22T15:8:15Z</time></trkpt>
<trkpt lat="46.2363317" lon="7.3573067"><ele></ele><time>2016-5-22T15:8:18Z</time></trkpt>
<trkpt lat="46.2363467" lon="7.3572867"><ele></ele><time>2016-5-22T15:8:21Z</time></trkpt>
<trkpt lat="46.2363717" lon="7.3572533"><ele></ele><time>2016-5-22T15:8:24Z</time></trkpt>
<trkpt lat="46.2363800" lon="7.3572400"><ele></ele><time>2016-5-22T15:8:27Z</time></trkpt>
<trkpt lat="46.2364050" lon="7.3572050"><ele></ele><time>2016-5-22T15:8:30Z</time></trkpt>
<trkpt lat="46.2364250" lon="7.3571750"><ele></ele><time>2016-5-22T15:8:33Z</time></trkpt>
<trkpt lat="46.2364433" lon="7.3571483"><ele></ele><time>2016-5-22T15:8:36Z</time></trkpt>
<trkpt lat="46.2364067" lon="7.3572033"><ele></ele><time>2016-5-22T15:8:39Z</time></trkpt>
<trkpt lat="46.2365317" lon="7.3570100"><ele></ele><time>2016-5-22T15:8:42Z</time></trkpt>
<trkpt lat="46.2365000" lon="7.3570617"><ele></ele><time>2016-5-22T15:8:45Z</time></trkpt>
<trkpt lat="46.2365233" lon="7.3570250"><ele></ele><time>2016-5-22T15:8:48Z</time></trkpt>
<trkpt lat="46.2365417" lon="7.3569950"><ele></ele><time>2016-5-22T15:8:51Z</time></trkpt>
<trkpt lat="46.2365633" lon="7.3569600"><ele></ele><time>2016-5-22T15:8:54Z</time></trkpt>
<trkpt lat="46.2365883" lon="7.3569183"><ele></ele><time>2016-5-22T15:8:57Z</time></trkpt>
<trkpt lat="46.2366133" lon="7.3568783"><ele></ele><time>2016-5-22T15:9:0Z</time></trkpt>
<trkpt lat="46.2366283" lon="7.3568517"><ele></ele><time>2016-5-22T15:9:3Z</time></trkpt>
<trkpt lat="46.2366500" lon="7.3568150"><ele></ele><time>2016-5-22T15:9:6Z</time></trkpt>
<trkpt lat="46.2366733" lon="7.3567733"><ele></ele><time>2016-5-22T15:9:9Z</time></trkpt>
<trkpt lat="46.2366933" lon="7.3567350"><ele></ele><time>2016-5-22T15:9:12Z</time></trkpt>
<trkpt lat="46.2367150" lon="7.3566950"><ele></ele><time>2016-5-22T15:9:15Z</time></trkpt>
<trkpt lat="46.2367300" lon="7.3566633"><ele></ele><time>2016-5-22T15:9:18Z</time></trkpt>
<trkpt lat="46.2367450" lon="7.3566333"><ele></ele><time>2016-5-22T15:9:21Z</time></trkpt>
<trkpt lat="46.2367600" lon="7.3566050"><ele></ele><time>2016-5-22T15:9:24Z</time></trkpt>
<trkpt lat="46.2367717" lon="7.3565783"><ele></ele><time>2016-5-22T15:9:27Z</time></trkpt>
<trkpt lat="46.2367800" lon="7.3565483"><ele></ele><time>2016-5-22T15:9:30Z</time></trkpt>
<trkpt lat="46.2367933" lon="7.3564850"><ele></ele><time>2016-5-22T15:9:33Z</time></trkpt>
<trkpt lat="46.2367967" lon="7.3564517"><ele></ele><time>2016-5-22T15:9:36Z</time></trkpt>
<trkpt lat="46.2367967" lon="7.3564517"><ele></ele><time>2016-5-22T15:9:39Z</time></trkpt>
<trkpt lat="46.2367967" lon="7.3564500"><ele></ele><time>2016-5-22T15:9:42Z</time></trkpt>
<trkpt lat="46.2367967" lon="7.3564500"><ele></ele><time>2016-5-22T15:9:45Z</time></trkpt>
<trkpt lat="46.2367967" lon="7.3564483"><ele></ele><time>2016-5-22T15:9:48Z</time></trkpt>
<trkpt lat="46.2367600" lon="7.3563083"><ele></ele><time>2016-5-22T15:9:51Z</time></trkpt>
<trkpt lat="46.2367483" lon="7.3562817"><ele></ele><time>2016-5-22T15:9:54Z</time></trkpt>
<trkpt lat="46.2367250" lon="7.3562317"><ele></ele><time>2016-5-22T15:9:57Z</time></trkpt>
<trkpt lat="46.2367083" lon="7.3561933"><ele></ele><time>2016-5-22T15:10:0Z</time></trkpt>
<trkpt lat="46.2366883" lon="7.3561533"><ele></ele><time>2016-5-22T15:10:3Z</time></trkpt>
<trkpt lat="46.2366683" lon="7.3561083"><ele></ele><time>2016-5-22T15:10:6Z</time></trkpt>
<trkpt lat="46.2366500" lon="7.3560683"><ele></ele><time>2016-5-22T15:10:9Z</time></trkpt>
<trkpt lat="46.2366350" lon="7.3560383"><ele></ele><time>2016-5-22T15:10:12Z</time></trkpt>
<trkpt lat="46.2366200" lon="7.3560067"><ele></ele><time>2016-5-22T15:10:15Z</time></trkpt>
<trkpt lat="46.2366067" lon="7.3559750"><ele></ele><time>2016-5-22T15:10:18Z</time></trkpt>
<trkpt lat="46.2365917" lon="7.3559433"><ele></ele><time>2016-5-22T15:10:21Z</time></trkpt>
<trkpt lat="46.2365750" lon="7.3559067"><ele></ele><time>2016-5-22T15:10:24Z</time></trkpt>
<trkpt lat="46.2365600" lon="7.3558767"><ele></ele><time>2016-5-22T15:10:27Z</time></trkpt>
<trkpt lat="46.2365467" lon="7.3558467"><ele></ele><time>2016-5-22T15:10:30Z</time></trkpt>
<trkpt lat="46.2365300" lon="7.3558117"><ele></ele><time>2016-5-22T15:10:33Z</time></trkpt>
<trkpt lat="46.2365100" lon="7.3557650"><ele></ele><time>2016-5-22T15:10:36Z</time></trkpt>
<trkpt lat="46.2364833" lon="7.3557100"><ele></ele><time>2016-5-22T15:10:39Z</time></trkpt>
<trkpt lat="46.2364633" lon="7.3556617"><ele></ele><time>2016-5-22T15:10:42Z</time></trkpt>
<trkpt lat="46.2364433" lon="7.3556183"><ele></ele><time>2016-5-22T15:10:45Z</time></trkpt>
<trkpt lat="46.2364200" lon="7.3555700"><ele></ele><time>2016-5-22T15:10:48Z</time></trkpt>
<trkpt lat="46.2364000" lon="7.3555250"><ele></ele><time>2016-5-22T15:10:51Z</time></trkpt>
<trkpt lat="46.2363800" lon="7.3554783"><ele></ele><time>2016-5-22T15:10:54Z</time></trkpt>
<trkpt lat="46.2363583" lon="7.3554317"><ele></ele><time>2016-5-22T15:10:57Z</time></trkpt>
<trkpt lat="46.2363367" lon="7.3553817"><ele></ele><time>2016-5-22T15:11:0Z</time></trkpt>
<trkpt lat="46.2363150" lon="7.3553350"><ele></ele><time>2016-5-22T15:11:3Z</time></trkpt>
<trkpt lat="46.2362933" lon="7.3552883"><ele></ele><time>2016-5-22T15:11:6Z</time></trkpt>
<trkpt lat="46.2362733" lon="7.3552450"><ele></ele><time>2016-5-22T15:11:9Z</time></trkpt>
<trkpt lat="46.2362550" lon="7.3552033"><ele></ele><time>2016-5-22T15:11:12Z</time></trkpt>
<trkpt lat="46.2362383" lon="7.3551650"><ele></ele><time>2016-5-22T15:11:15Z</time></trkpt>
<trkpt lat="46.2362183" lon="7.3551200"><ele></ele><time>2016-5-22T15:11:18Z</time></trkpt>
<trkpt lat="46.2362000" lon="7.3550817"><ele></ele><time>2016-5-22T15:11:21Z</time></trkpt>
<trkpt lat="46.2361817" lon="7.3550433"><ele></ele><time>2016-5-22T15:11:24Z</time></trkpt>
<trkpt lat="46.2361633" lon="7.3550050"><ele></ele><time>2016-5-22T15:11:27Z</time></trkpt>
<trkpt lat="46.2361433" lon="7.3549650"><ele></ele><time>2016-5-22T15:11:30Z</time></trkpt>
<trkpt lat="46.2361217" lon="7.3549217"><ele></ele><time>2016-5-22T15:11:33Z</time></trkpt>
<trkpt lat="46.2361050" lon="7.3548883"><ele></ele><time>2016-5-22T15:11:36Z</time></trkpt>
<trkpt lat="46.2360883" lon="7.3548567"><ele></ele><time>2016-5-22T15:11:39Z</time></trkpt>
<trkpt lat="46.2360700" lon="7.3548233"><ele></ele><time>2016-5-22T15:11:42Z</time></trkpt>
<trkpt lat="46.2360533" lon="7.3547933"><ele></ele><time>2016-5-22T15:11:45Z</time></trkpt>
<trkpt lat="46.2360300" lon="7.3547567"><ele></ele><time>2016-5-22T15:11:48Z</time></trkpt>
<trkpt lat="46.2360117" lon="7.3547283"><ele></ele><time>2016-5-22T15:11:51Z</time></trkpt>
<trkpt lat="46.2359917" lon="7.3546967"><ele></ele><time>2016-5-22T15:11:54Z</time></trkpt>
<trkpt lat="46.2359717" lon="7.3546667"><ele></ele><time>2016-5-22T15:11:57Z</time></trkpt>
<trkpt lat="46.2359500" lon="7.3546333"><ele></ele><time>2016-5-22T15:12:0Z</time></trkpt>
<trkpt lat="46.2359283" lon="7.3546000"><ele></ele><time>2016-5-22T15:12:3Z</time></trkpt>
<trkpt lat="46.2359067" lon="7.3545667"><ele></ele><time>2016-5-22T15:12:6Z</time></trkpt>
<trkpt lat="46.2358917" lon="7.3545433"><ele></ele><time>2016-5-22T15:12:9Z</time></trkpt>
<trkpt lat="46.2358767" lon="7.3545200"><ele></ele><time>2016-5-22T15:12:12Z</time></trkpt>
<trkpt lat="46.2358633" lon="7.3545000"><ele></ele><time>2016-5-22T15:12:15Z</time></trkpt>
<trkpt lat="46.2358467" lon="7.3544750"><ele></ele><time>2016-5-22T15:12:18Z</time></trkpt>
<trkpt lat="46.2358300" lon="7.3544500"><ele></ele><time>2016-5-22T15:12:21Z</time></trkpt>
<trkpt lat="46.2358100" lon="7.3544233"><ele></ele><time>2016-5-22T15:12:24Z</time></trkpt>
<trkpt lat="46.2357900" lon="7.3543950"><ele></ele><time>2016-5-22T15:12:27Z</time></trkpt>
<trkpt lat="46.2357700" lon="7.3543667"><ele></ele><time>2016-5-22T15:12:30Z</time></trkpt>
<trkpt lat="46.2356967" lon="7.3542683"><ele></ele><time>2016-5-22T15:12:33Z</time></trkpt>
<trkpt lat="46.2357233" lon="7.3543050"><ele></ele><time>2016-5-22T15:12:36Z</time></trkpt>
<trkpt lat="46.2357050" lon="7.3542783"><ele></ele><time>2016-5-22T15:12:39Z</time></trkpt>
<trkpt lat="46.2357000" lon="7.3542733"><ele></ele><time>2016-5-22T15:12:42Z</time></trkpt>
<trkpt lat="46.2357017" lon="7.3542733"><ele></ele><time>2016-5-22T15:12:45Z</time></trkpt>
<trkpt lat="46.2356650" lon="7.3542250"><ele></ele><time>2016-5-22T15:12:48Z</time></trkpt>
<trkpt lat="46.2356517" lon="7.3542083"><ele></ele><time>2016-5-22T15:12:51Z</time></trkpt>
<trkpt lat="46.2356383" lon="7.3541883"><ele></ele><time>2016-5-22T15:12:54Z</time></trkpt>
<trkpt lat="46.2356250" lon="7.3541717"><ele></ele><time>2016-5-22T15:12:57Z</time></trkpt>
<trkpt lat="46.2356117" lon="7.3541533"><ele></ele><time>2016-5-22T15:13:0Z</time></trkpt>
<trkpt lat="46.2355983" lon="7.3541350"><ele></ele><time>2016-5-22T15:13:3Z</time></trkpt>
<trkpt lat="46.2355850" lon="7.3541183"><ele></ele><time>2016-5-22T15:13:6Z</time></trkpt>
<trkpt lat="46.2355700" lon="7.3540983"><ele></ele><time>2016-5-22T15:13:9Z</time></trkpt>
<trkpt lat="46.2355567" lon="7.3540817"><ele></ele><time>2016-5-22T15:13:12Z</time></trkpt>
<trkpt lat="46.2355450" lon="7.3540650"><ele></ele><time>2016-5-22T15:13:15Z</time></trkpt>
<trkpt lat="46.2355300" lon="7.3540433"><ele></ele><time>2016-5-22T15:13:18Z</time></trkpt>
<trkpt lat="46.2355150" lon="7.3540250"><ele></ele><time>2016-5-22T15:13:21Z</time></trkpt>
<trkpt lat="46.2355050" lon="7.3540100"><ele></ele><time>2016-5-22T15:13:24Z</time></trkpt>
<trkpt lat="46.2354917" lon="7.3539917"><ele></ele><time>2016-5-22T15:13:27Z</time></trkpt>
<trkpt lat="46.2354817" lon="7.3539750"><ele></ele><time>2016-5-22T15:13:30Z</time></trkpt>
<trkpt lat="46.2354683" lon="7.3539567"><ele></ele><time>2016-5-22T15:13:33Z</time></trkpt>
<trkpt lat="46.2354567" lon="7.3539400"><ele></ele><time>2016-5-22T15:13:36Z</time></trkpt>
<trkpt lat="46.2354450" lon="7.3539233"><ele></ele><time>2016-5-22T15:13:39Z</time></trkpt>
<trkpt lat="46.2354317" lon="7.3539017"><ele></ele><time>2016-5-22T15:13:42Z</time></trkpt>
<trkpt lat="46.2354233" lon="7.3538833"><ele></ele><time>2016-5-22T15:13:45Z</time></trkpt>
<trkpt lat="46.2354117" lon="7.3538633"><ele></ele><time>2016-5-22T15:13:48Z</time></trkpt>
<trkpt lat="46.2354000" lon="7.3538417"><ele></ele><time>2016-5-22T15:13:51Z</time></trkpt>
<trkpt lat="46.2353917" lon="7.3538233"><ele></ele><time>2016-5-22T15:13:54Z</time></trkpt>
<trkpt lat="46.2353800" lon="7.3538000"><ele></ele><time>2016-5-22T15:13:57Z</time></trkpt>
<trkpt lat="46.2353067" lon="7.3536250"><ele></ele><time>2016-5-22T15:14:0Z</time></trkpt>
<trkpt lat="46.2353633" lon="7.3537633"><ele></ele><time>2016-5-22T15:14:3Z</time></trkpt>
<trkpt lat="46.2353383" lon="7.3537100"><ele></ele><time>2016-5-22T15:14:6Z</time></trkpt>
<trkpt lat="46.2353433" lon="7.3537183"><ele></ele><time>2016-5-22T15:14:9Z</time></trkpt>
<trkpt lat="46.2353300" lon="7.3536883"><ele></ele><time>2016-5-22T15:14:12Z</time></trkpt>
<trkpt lat="46.2353233" lon="7.3536683"><ele></ele><time>2016-5-22T15:14:15Z</time></trkpt>
<trkpt lat="46.2353133" lon="7.3536433"><ele></ele><time>2016-5-22T15:14:18Z</time></trkpt>
<trkpt lat="46.2353050" lon="7.3536167"><ele></ele><time>2016-5-22T15:14:21Z</time></trkpt>
<trkpt lat="46.2352950" lon="7.3535900"><ele></ele><time>2016-5-22T15:14:24Z</time></trkpt>
<trkpt lat="46.2352867" lon="7.3535633"><ele></ele><time>2016-5-22T15:14:27Z</time></trkpt>
<trkpt lat="46.2352867" lon="7.3535633"><ele></ele><time>2016-5-22T15:14:30Z</time></trkpt>
<trkpt lat="46.2352867" lon="7.3535633"><ele></ele><time>2016-5-22T15:14:33Z</time></trkpt>
<trkpt lat="46.2352867" lon="7.3535633"><ele></ele><time>2016-5-22T15:14:36Z</time></trkpt>
<trkpt lat="46.2352867" lon="7.3535633"><ele></ele><time>2016-5-22T15:14:39Z</time></trkpt>
<trkpt lat="46.2352867" lon="7.3535633"><ele></ele><time>2016-5-22T15:14:42Z</time></trkpt>
<trkpt lat="46.2352867" lon="7.3535633"><ele></ele><time>2016-5-22T15:14:45Z</time></trkpt>
<trkpt lat="46.2352867" lon="7.3535633"><ele></ele><time>2016-5-22T15:14:48Z</time></trkpt>
<trkpt lat="46.2352867" lon="7.3535633"><ele></ele><time>2016-5-22T15:14:51Z</time></trkpt>
<trkpt lat="46.2352867" lon="7.3535633"><ele></ele><time>2016-5-22T15:14:54Z</time></trkpt>
<trkpt lat="46.2352117" lon="7.3533483"><ele></ele><time>2016-5-22T15:14:57Z</time></trkpt>
<trkpt lat="46.2352017" lon="7.3533250"><ele></ele><time>2016-5-22T15:15:0Z</time></trkpt>
<trkpt lat="46.2351933" lon="7.3532983"><ele></ele><time>2016-5-22T15:15:3Z</time></trkpt>
<trkpt lat="46.2351650" lon="7.3532250"><ele></ele><time>2016-5-22T15:15:6Z</time></trkpt>
<trkpt lat="46.2351717" lon="7.3532450"><ele></ele><time>2016-5-22T15:15:9Z</time></trkpt>
<trkpt lat="46.2351633" lon="7.3532217"><ele></ele><time>2016-5-22T15:15:12Z</time></trkpt>
<trkpt lat="46.2351533" lon="7.3532000"><ele></ele><time>2016-5-22T15:15:15Z</time></trkpt>
<trkpt lat="46.2351433" lon="7.3531767"><ele></ele><time>2016-5-22T15:15:18Z</time></trkpt>
<trkpt lat="46.2351383" lon="7.3531667"><ele></ele><time>2016-5-22T15:15:21Z</time></trkpt>
<trkpt lat="46.2351383" lon="7.3531667"><ele></ele><time>2016-5-22T15:15:24Z</time></trkpt>
<trkpt lat="46.2351383" lon="7.3531667"><ele></ele><time>2016-5-22T15:15:27Z</time></trkpt>
<trkpt lat="46.2351383" lon="7.3531667"><ele></ele><time>2016-5-22T15:15:30Z</time></trkpt>
<trkpt lat="46.2351383" lon="7.3531667"><ele></ele><time>2016-5-22T15:15:33Z</time></trkpt>
<trkpt lat="46.2351383" lon="7.3531500"><ele></ele><time>2016-5-22T15:15:36Z</time></trkpt>
<trkpt lat="46.2351400" lon="7.3531700"><ele></ele><time>2016-5-22T15:15:39Z</time></trkpt>
<trkpt lat="46.2351400" lon="7.3531700"><ele></ele><time>2016-5-22T15:15:42Z</time></trkpt>
<trkpt lat="46.2351400" lon="7.3531700"><ele></ele><time>2016-5-22T15:15:45Z</time></trkpt>
<trkpt lat="46.2351400" lon="7.3531700"><ele></ele><time>2016-5-22T15:15:48Z</time></trkpt>
<trkpt lat="46.2350333" lon="7.3529567"><ele></ele><time>2016-5-22T15:15:51Z</time></trkpt>
<trkpt lat="46.2350200" lon="7.3529333"><ele></ele><time>2016-5-22T15:15:54Z</time></trkpt>
<trkpt lat="46.2350083" lon="7.3529150"><ele></ele><time>2016-5-22T15:15:57Z</time></trkpt>
<trkpt lat="46.2349967" lon="7.3528950"><ele></ele><time>2016-5-22T15:16:0Z</time></trkpt>
<trkpt lat="46.2349883" lon="7.3528783"><ele></ele><time>2016-5-22T15:16:3Z</time></trkpt>
<trkpt lat="46.2349750" lon="7.3528600"><ele></ele><time>2016-5-22T15:16:6Z</time></trkpt>
<trkpt lat="46.2349617" lon="7.3528400"><ele></ele><time>2016-5-22T15:16:9Z</time></trkpt>
<trkpt lat="46.2349500" lon="7.3528233"><ele></ele><time>2016-5-22T15:16:12Z</time></trkpt>
<trkpt lat="46.2349400" lon="7.3528083"><ele></ele><time>2016-5-22T15:16:15Z</time></trkpt>
<trkpt lat="46.2349283" lon="7.3527900"><ele></ele><time>2016-5-22T15:16:18Z</time></trkpt>
<trkpt lat="46.2349150" lon="7.3527717"><ele></ele><time>2016-5-22T15:16:21Z</time></trkpt>
<trkpt lat="46.2349033" lon="7.3527550"><ele></ele><time>2016-5-22T15:16:24Z</time></trkpt>
<trkpt lat="46.2348900" lon="7.3527367"><ele></ele><time>2016-5-22T15:16:27Z</time></trkpt>
<trkpt lat="46.2349150" lon="7.3527717"><ele></ele><time>2016-5-22T15:16:30Z</time></trkpt>
<trkpt lat="46.2348817" lon="7.3527267"><ele></ele><time>2016-5-22T15:16:33Z</time></trkpt>
<trkpt lat="46.2348550" lon="7.3526917"><ele></ele><time>2016-5-22T15:16:36Z</time></trkpt>
<trkpt lat="46.2348433" lon="7.3526767"><ele></ele><time>2016-5-22T15:16:39Z</time></trkpt>
<trkpt lat="46.2348300" lon="7.3526583"><ele></ele><time>2016-5-22T15:16:42Z</time></trkpt>
<trkpt lat="46.2348183" lon="7.3526433"><ele></ele><time>2016-5-22T15:16:45Z</time></trkpt>
<trkpt lat="46.2348050" lon="7.3526267"><ele></ele><time>2016-5-22T15:16:48Z</time></trkpt>
<trkpt lat="46.2347933" lon="7.3526117"><ele></ele><time>2016-5-22T15:16:51Z</time></trkpt>
<trkpt lat="46.2347850" lon="7.3526017"><ele></ele><time>2016-5-22T15:16:54Z</time></trkpt>
<trkpt lat="46.2347667" lon="7.3525783"><ele></ele><time>2016-5-22T15:16:57Z</time></trkpt>
<trkpt lat="46.2347550" lon="7.3525617"><ele></ele><time>2016-5-22T15:17:0Z</time></trkpt>
<trkpt lat="46.2347400" lon="7.3525417"><ele></ele><time>2016-5-22T15:17:3Z</time></trkpt>
<trkpt lat="46.2346417" lon="7.3523950"><ele></ele><time>2016-5-22T15:17:6Z</time></trkpt>
<trkpt lat="46.2347150" lon="7.3525067"><ele></ele><time>2016-5-22T15:17:9Z</time></trkpt>
<trkpt lat="46.2347017" lon="7.3524883"><ele></ele><time>2016-5-22T15:17:12Z</time></trkpt>
<trkpt lat="46.2346850" lon="7.3524633"><ele></ele><time>2016-5-22T15:17:15Z</time></trkpt>
<trkpt lat="46.2346750" lon="7.3524467"><ele></ele><time>2016-5-22T15:17:18Z</time></trkpt>
<trkpt lat="46.2346650" lon="7.3524300"><ele></ele><time>2016-5-22T15:17:21Z</time></trkpt>
<trkpt lat="46.2346483" lon="7.3524050"><ele></ele><time>2016-5-22T15:17:24Z</time></trkpt>
<trkpt lat="46.2346367" lon="7.3523850"><ele></ele><time>2016-5-22T15:17:27Z</time></trkpt>
<trkpt lat="46.2346250" lon="7.3523650"><ele></ele><time>2016-5-22T15:17:30Z</time></trkpt>
<trkpt lat="46.2346100" lon="7.3523417"><ele></ele><time>2016-5-22T15:17:33Z</time></trkpt>
<trkpt lat="46.2345967" lon="7.3523183"><ele></ele><time>2016-5-22T15:17:36Z</time></trkpt>
<trkpt lat="46.2345900" lon="7.3523033"><ele></ele><time>2016-5-22T15:17:39Z</time></trkpt>
<trkpt lat="46.2345850" lon="7.3522950"><ele></ele><time>2016-5-22T15:17:42Z</time></trkpt>
<trkpt lat="46.2345733" lon="7.3522750"><ele></ele><time>2016-5-22T15:17:45Z</time></trkpt>
<trkpt lat="46.2345633" lon="7.3522550"><ele></ele><time>2016-5-22T15:17:48Z</time></trkpt>
<trkpt lat="46.2345450" lon="7.3522183"><ele></ele><time>2016-5-22T15:17:51Z</time></trkpt>
<trkpt lat="46.2345317" lon="7.3521867"><ele></ele><time>2016-5-22T15:17:54Z</time></trkpt>
<trkpt lat="46.2345167" lon="7.3521533"><ele></ele><time>2016-5-22T15:17:57Z</time></trkpt>
<trkpt lat="46.2345017" lon="7.3521167"><ele></ele><time>2016-5-22T15:18:0Z</time></trkpt>
<trkpt lat="46.2344867" lon="7.3520750"><ele></ele><time>2016-5-22T15:18:3Z</time></trkpt>
<trkpt lat="46.2344783" lon="7.3520500"><ele></ele><time>2016-5-22T15:18:6Z</time></trkpt>
<trkpt lat="46.2344650" lon="7.3520167"><ele></ele><time>2016-5-22T15:18:9Z</time></trkpt>
<trkpt lat="46.2344567" lon="7.3519900"><ele></ele><time>2016-5-22T15:18:12Z</time></trkpt>
<trkpt lat="46.2344467" lon="7.3519533"><ele></ele><time>2016-5-22T15:18:15Z</time></trkpt>
<trkpt lat="46.2344383" lon="7.3519183"><ele></ele><time>2016-5-22T15:18:18Z</time></trkpt>
<trkpt lat="46.2344317" lon="7.3518617"><ele></ele><time>2016-5-22T15:18:21Z</time></trkpt>
<trkpt lat="46.2344283" lon="7.3518417"><ele></ele><time>2016-5-22T15:18:24Z</time></trkpt>
<trkpt lat="46.2344283" lon="7.3518417"><ele></ele><time>2016-5-22T15:18:27Z</time></trkpt>
<trkpt lat="46.2344300" lon="7.3518450"><ele></ele><time>2016-5-22T15:18:30Z</time></trkpt>
<trkpt lat="46.2344300" lon="7.3518433"><ele></ele><time>2016-5-22T15:18:33Z</time></trkpt>
<trkpt lat="46.2344300" lon="7.3518433"><ele></ele><time>2016-5-22T15:18:36Z</time></trkpt>
<trkpt lat="46.2344300" lon="7.3518433"><ele></ele><time>2016-5-22T15:18:39Z</time></trkpt>
<trkpt lat="46.2344300" lon="7.3516050"><ele></ele><time>2016-5-22T15:18:42Z</time></trkpt>
<trkpt lat="46.2344317" lon="7.3515683"><ele></ele><time>2016-5-22T15:18:45Z</time></trkpt>
<trkpt lat="46.2344317" lon="7.3515267"><ele></ele><time>2016-5-22T15:18:48Z</time></trkpt>
<trkpt lat="46.2344317" lon="7.3514933"><ele></ele><time>2016-5-22T15:18:51Z</time></trkpt>
<trkpt lat="46.2344333" lon="7.3514600"><ele></ele><time>2016-5-22T15:18:54Z</time></trkpt>
<trkpt lat="46.2344333" lon="7.3514250"><ele></ele><time>2016-5-22T15:18:57Z</time></trkpt>
<trkpt lat="46.2344333" lon="7.3513967"><ele></ele><time>2016-5-22T15:19:0Z</time></trkpt>
<trkpt lat="46.2344333" lon="7.3513650"><ele></ele><time>2016-5-22T15:19:3Z</time></trkpt>
<trkpt lat="46.2344350" lon="7.3513333"><ele></ele><time>2016-5-22T15:19:6Z</time></trkpt>
<trkpt lat="46.2344350" lon="7.3513067"><ele></ele><time>2016-5-22T15:19:9Z</time></trkpt>
<trkpt lat="46.2344350" lon="7.3512750"><ele></ele><time>2016-5-22T15:19:12Z</time></trkpt>
<trkpt lat="46.2344917" lon="7.3512467"><ele></ele><time>2016-5-22T15:19:15Z</time></trkpt>
<trkpt lat="46.2344917" lon="7.3512117"><ele></ele><time>2016-5-22T15:19:18Z</time></trkpt>
<trkpt lat="46.2344933" lon="7.3511767"><ele></ele><time>2016-5-22T15:19:21Z</time></trkpt>
<trkpt lat="46.2344917" lon="7.3511467"><ele></ele><time>2016-5-22T15:19:24Z</time></trkpt>
<trkpt lat="46.2344333" lon="7.3511200"><ele></ele><time>2016-5-22T15:19:27Z</time></trkpt>
<trkpt lat="46.2344333" lon="7.3510900"><ele></ele><time>2016-5-22T15:19:30Z</time></trkpt>
<trkpt lat="46.2344333" lon="7.3509700"><ele></ele><time>2016-5-22T15:19:33Z</time></trkpt>
<trkpt lat="46.2344333" lon="7.3510200"><ele></ele><time>2016-5-22T15:19:36Z</time></trkpt>
<trkpt lat="46.2344333" lon="7.3509850"><ele></ele><time>2016-5-22T15:19:39Z</time></trkpt>
<trkpt lat="46.2345117" lon="7.3509500"><ele></ele><time>2016-5-22T15:19:42Z</time></trkpt>
<trkpt lat="46.2345117" lon="7.3509000"><ele></ele><time>2016-5-22T15:19:45Z</time></trkpt>
<trkpt lat="46.2345100" lon="7.3508633"><ele></ele><time>2016-5-22T15:19:48Z</time></trkpt>
<trkpt lat="46.2345083" lon="7.3508367"><ele></ele><time>2016-5-22T15:19:51Z</time></trkpt>
<trkpt lat="46.2345000" lon="7.3508050"><ele></ele><time>2016-5-22T15:19:54Z</time></trkpt>
<trkpt lat="46.2344950" lon="7.3507700"><ele></ele><time>2016-5-22T15:19:57Z</time></trkpt>
<trkpt lat="46.2344967" lon="7.3507350"><ele></ele><time>2016-5-22T15:20:0Z</time></trkpt>
<trkpt lat="46.2344933" lon="7.3507050"><ele></ele><time>2016-5-22T15:20:3Z</time></trkpt>
<trkpt lat="46.2344683" lon="7.3506850"><ele></ele><time>2016-5-22T15:20:6Z</time></trkpt>
<trkpt lat="46.2344433" lon="7.3506650"><ele></ele><time>2016-5-22T15:20:9Z</time></trkpt>
<trkpt lat="46.2344550" lon="7.3506300"><ele></ele><time>2016-5-22T15:20:12Z</time></trkpt>
<trkpt lat="46.2344467" lon="7.3506000"><ele></ele><time>2016-5-22T15:20:15Z</time></trkpt>
<trkpt lat="46.2344150" lon="7.3505800"><ele></ele><time>2016-5-22T15:20:18Z</time></trkpt>
<trkpt lat="46.2344067" lon="7.3505450"><ele></ele><time>2016-5-22T15:20:21Z</time></trkpt>
<trkpt lat="46.2344067" lon="7.3505133"><ele></ele><time>2016-5-22T15:20:24Z</time></trkpt>
<trkpt lat="46.2344050" lon="7.3504833"><ele></ele><time>2016-5-22T15:20:27Z</time></trkpt>
<trkpt lat="46.2344233" lon="7.3504417"><ele></ele><time>2016-5-22T15:20:30Z</time></trkpt>
<trkpt lat="46.2344450" lon="7.3503967"><ele></ele><time>2016-5-22T15:20:33Z</time></trkpt>
<trkpt lat="46.2344433" lon="7.3503700"><ele></ele><time>2016-5-22T15:20:36Z</time></trkpt>
<trkpt lat="46.2344267" lon="7.3503483"><ele></ele><time>2016-5-22T15:20:39Z</time></trkpt>
<trkpt lat="46.2344333" lon="7.3503267"><ele></ele><time>2016-5-22T15:20:42Z</time></trkpt>
<trkpt lat="46.2344500" lon="7.3503067"><ele></ele><time>2016-5-22T15:20:45Z</time></trkpt>
<trkpt lat="46.2344733" lon="7.3502850"><ele></ele><time>2016-5-22T15:20:48Z</time></trkpt>
<trkpt lat="46.2344950" lon="7.3502650"><ele></ele><time>2016-5-22T15:20:51Z</time></trkpt>
<trkpt lat="46.2345133" lon="7.3502450"><ele></ele><time>2016-5-22T15:20:54Z</time></trkpt>
<trkpt lat="46.2345333" lon="7.3502300"><ele></ele><time>2016-5-22T15:20:57Z</time></trkpt>
<trkpt lat="46.2345500" lon="7.3502233"><ele></ele><time>2016-5-22T15:21:0Z</time></trkpt>
<trkpt lat="46.2345667" lon="7.3502000"><ele></ele><time>2016-5-22T15:21:3Z</time></trkpt>
<trkpt lat="46.2345800" lon="7.3501750"><ele></ele><time>2016-5-22T15:21:6Z</time></trkpt>
<trkpt lat="46.2345917" lon="7.3501567"><ele></ele><time>2016-5-22T15:21:9Z</time></trkpt>
<trkpt lat="46.2346183" lon="7.3501483"><ele></ele><time>2016-5-22T15:21:12Z</time></trkpt>
<trkpt lat="46.2346350" lon="7.3501350"><ele></ele><time>2016-5-22T15:21:15Z</time></trkpt>
<trkpt lat="46.2346467" lon="7.3501150"><ele></ele><time>2016-5-22T15:21:18Z</time></trkpt>
<trkpt lat="46.2346583" lon="7.3500917"><ele></ele><time>2016-5-22T15:21:21Z</time></trkpt>
<trkpt lat="46.2346733" lon="7.3500767"><ele></ele><time>2016-5-22T15:21:24Z</time></trkpt>
<trkpt lat="46.2346883" lon="7.3500667"><ele></ele><time>2016-5-22T15:21:27Z</time></trkpt>
<trkpt lat="46.2347000" lon="7.3500550"><ele></ele><time>2016-5-22T15:21:30Z</time></trkpt>
<trkpt lat="46.2347117" lon="7.3500400"><ele></ele><time>2016-5-22T15:21:33Z</time></trkpt>
<trkpt lat="46.2347233" lon="7.3500117"><ele></ele><time>2016-5-22T15:21:36Z</time></trkpt>
<trkpt lat="46.2347367" lon="7.3499900"><ele></ele><time>2016-5-22T15:21:39Z</time></trkpt>
<trkpt lat="46.2347500" lon="7.3499717"><ele></ele><time>2016-5-22T15:21:42Z</time></trkpt>
<trkpt lat="46.2347667" lon="7.3499567"><ele></ele><time>2016-5-22T15:21:45Z</time></trkpt>
<trkpt lat="46.2347833" lon="7.3499400"><ele></ele><time>2016-5-22T15:21:48Z</time></trkpt>
<trkpt lat="46.2348000" lon="7.3499233"><ele></ele><time>2016-5-22T15:21:51Z</time></trkpt>
<trkpt lat="46.2348167" lon="7.3499050"><ele></ele><time>2016-5-22T15:21:54Z</time></trkpt>
<trkpt lat="46.2348317" lon="7.3498900"><ele></ele><time>2016-5-22T15:21:57Z</time></trkpt>
<trkpt lat="46.2348483" lon="7.3498733"><ele></ele><time>2016-5-22T15:22:0Z</time></trkpt>
<trkpt lat="46.2348667" lon="7.3498567"><ele></ele><time>2016-5-22T15:22:3Z</time></trkpt>
<trkpt lat="46.2348850" lon="7.3498400"><ele></ele><time>2016-5-22T15:22:6Z</time></trkpt>
<trkpt lat="46.2349033" lon="7.3498250"><ele></ele><time>2016-5-22T15:22:9Z</time></trkpt>
<trkpt lat="46.2349200" lon="7.3498083"><ele></ele><time>2016-5-22T15:22:12Z</time></trkpt>
<trkpt lat="46.2349400" lon="7.3497950"><ele></ele><time>2016-5-22T15:22:15Z</time></trkpt>
<trkpt lat="46.2349650" lon="7.3498000"><ele></ele><time>2016-5-22T15:22:18Z</time></trkpt>
<trkpt lat="46.2349783" lon="7.3497917"><ele></ele><time>2016-5-22T15:22:21Z</time></trkpt>
<trkpt lat="46.2349900" lon="7.3497867"><ele></ele><time>2016-5-22T15:22:24Z</time></trkpt>
<trkpt lat="46.2349983" lon="7.3497767"><ele></ele><time>2016-5-22T15:22:27Z</time></trkpt>
<trkpt lat="46.2350117" lon="7.3497650"><ele></ele><time>2016-5-22T15:22:30Z</time></trkpt>
<trkpt lat="46.2350233" lon="7.3497467"><ele></ele><time>2016-5-22T15:22:33Z</time></trkpt>
<trkpt lat="46.2350333" lon="7.3497267"><ele></ele><time>2016-5-22T15:22:36Z</time></trkpt>
<trkpt lat="46.2350283" lon="7.3497033"><ele></ele><time>2016-5-22T15:22:39Z</time></trkpt>
<trkpt lat="46.2350183" lon="7.3496850"><ele></ele><time>2016-5-22T15:22:42Z</time></trkpt>
<trkpt lat="46.2350200" lon="7.3496833"><ele></ele><time>2016-5-22T15:22:45Z</time></trkpt>
<trkpt lat="46.2350150" lon="7.3496650"><ele></ele><time>2016-5-22T15:22:48Z</time></trkpt>
<trkpt lat="46.2350083" lon="7.3496483"><ele></ele><time>2016-5-22T15:22:51Z</time></trkpt>
<trkpt lat="46.2350000" lon="7.3496450"><ele></ele><time>2016-5-22T15:22:54Z</time></trkpt>
<trkpt lat="46.2349867" lon="7.3496300"><ele></ele><time>2016-5-22T15:22:57Z</time></trkpt>
<trkpt lat="46.2349750" lon="7.3496100"><ele></ele><time>2016-5-22T15:23:0Z</time></trkpt>
<trkpt lat="46.2349617" lon="7.3495900"><ele></ele><time>2016-5-22T15:23:3Z</time></trkpt>
<trkpt lat="46.2349500" lon="7.3495717"><ele></ele><time>2016-5-22T15:23:6Z</time></trkpt>
<trkpt lat="46.2349417" lon="7.3495567"><ele></ele><time>2016-5-22T15:23:9Z</time></trkpt>
<trkpt lat="46.2349567" lon="7.3495367"><ele></ele><time>2016-5-22T15:23:12Z</time></trkpt>
<trkpt lat="46.2349617" lon="7.3495000"><ele></ele><time>2016-5-22T15:23:15Z</time></trkpt>
<trkpt lat="46.2349433" lon="7.3494700"><ele></ele><time>2016-5-22T15:23:18Z</time></trkpt>
<trkpt lat="46.2349283" lon="7.3494433"><ele></ele><time>2016-5-22T15:23:21Z</time></trkpt>
<trkpt lat="46.2349167" lon="7.3494150"><ele></ele><time>2016-5-22T15:23:24Z</time></trkpt>
<trkpt lat="46.2349050" lon="7.3493967"><ele></ele><time>2016-5-22T15:23:27Z</time></trkpt>
<trkpt lat="46.2348967" lon="7.3493867"><ele></ele><time>2016-5-22T15:23:30Z</time></trkpt>
<trkpt lat="46.2348817" lon="7.3493700"><ele></ele><time>2016-5-22T15:23:33Z</time></trkpt>
<trkpt lat="46.2348533" lon="7.3493433"><ele></ele><time>2016-5-22T15:23:36Z</time></trkpt>
<trkpt lat="46.2348350" lon="7.3493250"><ele></ele><time>2016-5-22T15:23:39Z</time></trkpt>
<trkpt lat="46.2348167" lon="7.3493100"><ele></ele><time>2016-5-22T15:23:42Z</time></trkpt>
<trkpt lat="46.2347967" lon="7.3492900"><ele></ele><time>2016-5-22T15:23:45Z</time></trkpt>
<trkpt lat="46.2347783" lon="7.3492700"><ele></ele><time>2016-5-22T15:23:48Z</time></trkpt>
<trkpt lat="46.2347617" lon="7.3492517"><ele></ele><time>2016-5-22T15:23:51Z</time></trkpt>
<trkpt lat="46.2347417" lon="7.3492333"><ele></ele><time>2016-5-22T15:23:54Z</time></trkpt>
<trkpt lat="46.2347250" lon="7.3492167"><ele></ele><time>2016-5-22T15:23:57Z</time></trkpt>
<trkpt lat="46.2347067" lon="7.3492000"><ele></ele><time>2016-5-22T15:24:0Z</time></trkpt>
<trkpt lat="46.2346900" lon="7.3491850"><ele></ele><time>2016-5-22T15:24:3Z</time></trkpt>
<trkpt lat="46.2346717" lon="7.3491667"><ele></ele><time>2016-5-22T15:24:6Z</time></trkpt>
<trkpt lat="46.2346533" lon="7.3491500"><ele></ele><time>2016-5-22T15:24:9Z</time></trkpt>
<trkpt lat="46.2346417" lon="7.3491250"><ele></ele><time>2016-5-22T15:24:12Z</time></trkpt>
<trkpt lat="46.2346283" lon="7.3491067"><ele></ele><time>2016-5-22T15:24:15Z</time></trkpt>
<trkpt lat="46.2346133" lon="7.3490867"><ele></ele><time>2016-5-22T15:24:18Z</time></trkpt>
<trkpt lat="46.2345983" lon="7.3490683"><ele></ele><time>2016-5-22T15:24:21Z</time></trkpt>
<trkpt lat="46.2345883" lon="7.3490483"><ele></ele><time>2016-5-22T15:24:24Z</time></trkpt>
<trkpt lat="46.2345783" lon="7.3490367"><ele></ele><time>2016-5-22T15:24:27Z</time></trkpt>
<trkpt lat="46.2345683" lon="7.3490183"><ele></ele><time>2016-5-22T15:24:30Z</time></trkpt>
<trkpt lat="46.2345550" lon="7.3490000"><ele></ele><time>2016-5-22T15:24:33Z</time></trkpt>
<trkpt lat="46.2345383" lon="7.3489850"><ele></ele><time>2016-5-22T15:24:36Z</time></trkpt>
<trkpt lat="46.2345300" lon="7.3489650"><ele></ele><time>2016-5-22T15:24:39Z</time></trkpt>
<trkpt lat="46.2345217" lon="7.3489383"><ele></ele><time>2016-5-22T15:24:42Z</time></trkpt>
<trkpt lat="46.2345100" lon="7.3489117"><ele></ele><time>2016-5-22T15:24:45Z</time></trkpt>
<trkpt lat="46.2344983" lon="7.3488833"><ele></ele><time>2016-5-22T15:24:48Z</time></trkpt>
<trkpt lat="46.2344883" lon="7.3488583"><ele></ele><time>2016-5-22T15:24:51Z</time></trkpt>
<trkpt lat="46.2344800" lon="7.3488350"><ele></ele><time>2016-5-22T15:24:54Z</time></trkpt>
<trkpt lat="46.2344750" lon="7.3488083"><ele></ele><time>2016-5-22T15:24:57Z</time></trkpt>
<trkpt lat="46.2344717" lon="7.3487783"><ele></ele><time>2016-5-22T15:25:0Z</time></trkpt>
<trkpt lat="46.2344667" lon="7.3487500"><ele></ele><time>2016-5-22T15:25:3Z</time></trkpt>
<trkpt lat="46.2344650" lon="7.3487200"><ele></ele><time>2016-5-22T15:25:6Z</time></trkpt>
<trkpt lat="46.2344650" lon="7.3486883"><ele></ele><time>2016-5-22T15:25:9Z</time></trkpt>
<trkpt lat="46.2344667" lon="7.3486633"><ele></ele><time>2016-5-22T15:25:12Z</time></trkpt>
<trkpt lat="46.2344650" lon="7.3486383"><ele></ele><time>2016-5-22T15:25:15Z</time></trkpt>
<trkpt lat="46.2344667" lon="7.3486083"><ele></ele><time>2016-5-22T15:25:18Z</time></trkpt>
<trkpt lat="46.2344683" lon="7.3485817"><ele></ele><time>2016-5-22T15:25:21Z</time></trkpt>
<trkpt lat="46.2344733" lon="7.3485533"><ele></ele><time>2016-5-22T15:25:24Z</time></trkpt>
<trkpt lat="46.2344867" lon="7.3485283"><ele></ele><time>2016-5-22T15:25:27Z</time></trkpt>
<trkpt lat="46.2344950" lon="7.3484967"><ele></ele><time>2016-5-22T15:25:30Z</time></trkpt>
<trkpt lat="46.2345033" lon="7.3484683"><ele></ele><time>2016-5-22T15:25:33Z</time></trkpt>
<trkpt lat="46.2345100" lon="7.3484400"><ele></ele><time>2016-5-22T15:25:36Z</time></trkpt>
<trkpt lat="46.2345167" lon="7.3484100"><ele></ele><time>2016-5-22T15:25:39Z</time></trkpt>
<trkpt lat="46.2345267" lon="7.3483783"><ele></ele><time>2016-5-22T15:25:42Z</time></trkpt>
<trkpt lat="46.2345350" lon="7.3483500"><ele></ele><time>2016-5-22T15:25:45Z</time></trkpt>
<trkpt lat="46.2345433" lon="7.3483250"><ele></ele><time>2016-5-22T15:25:48Z</time></trkpt>
<trkpt lat="46.2345500" lon="7.3483050"><ele></ele><time>2016-5-22T15:25:51Z</time></trkpt>
<trkpt lat="46.2345583" lon="7.3482867"><ele></ele><time>2016-5-22T15:25:54Z</time></trkpt>
<trkpt lat="46.2345667" lon="7.3482617"><ele></ele><time>2016-5-22T15:25:57Z</time></trkpt>
<trkpt lat="46.2345750" lon="7.3482367"><ele></ele><time>2016-5-22T15:26:0Z</time></trkpt>
<trkpt lat="46.2345833" lon="7.3482117"><ele></ele><time>2016-5-22T15:26:3Z</time></trkpt>
<trkpt lat="46.2345900" lon="7.3481833"><ele></ele><time>2016-5-22T15:26:6Z</time></trkpt>
<trkpt lat="46.2345967" lon="7.3481583"><ele></ele><time>2016-5-22T15:26:9Z</time></trkpt>
<trkpt lat="46.2346050" lon="7.3481300"><ele></ele><time>2016-5-22T15:26:12Z</time></trkpt>
<trkpt lat="46.2346150" lon="7.3481033"><ele></ele><time>2016-5-22T15:26:15Z</time></trkpt>
<trkpt lat="46.2346217" lon="7.3480817"><ele></ele><time>2016-5-22T15:26:18Z</time></trkpt>
<trkpt lat="46.2346267" lon="7.3480583"><ele></ele><time>2016-5-22T15:26:21Z</time></trkpt>
<trkpt lat="46.2346267" lon="7.3480317"><ele></ele><time>2016-5-22T15:26:24Z</time></trkpt>
<trkpt lat="46.2346200" lon="7.3480067"><ele></ele><time>2016-5-22T15:26:27Z</time></trkpt>
<trkpt lat="46.2346117" lon="7.3479817"><ele></ele><time>2016-5-22T15:26:30Z</time></trkpt>
<trkpt lat="46.2346000" lon="7.3479583"><ele></ele><time>2016-5-22T15:26:33Z</time></trkpt>
<trkpt lat="46.2345883" lon="7.3479333"><ele></ele><time>2016-5-22T15:26:36Z</time></trkpt>
<trkpt lat="46.2345800" lon="7.3479100"><ele></ele><time>2016-5-22T15:26:39Z</time></trkpt>
<trkpt lat="46.2345750" lon="7.3478867"><ele></ele><time>2016-5-22T15:26:42Z</time></trkpt>
<trkpt lat="46.2345717" lon="7.3478633"><ele></ele><time>2016-5-22T15:26:45Z</time></trkpt>
<trkpt lat="46.2345683" lon="7.3478400"><ele></ele><time>2016-5-22T15:26:48Z</time></trkpt>
<trkpt lat="46.2345650" lon="7.3478167"><ele></ele><time>2016-5-22T15:26:51Z</time></trkpt>
<trkpt lat="46.2345617" lon="7.3477917"><ele></ele><time>2016-5-22T15:26:54Z</time></trkpt>
<trkpt lat="46.2345567" lon="7.3477667"><ele></ele><time>2016-5-22T15:26:57Z</time></trkpt>
<trkpt lat="46.2345517" lon="7.3477433"><ele></ele><time>2016-5-22T15:27:0Z</time></trkpt>
<trkpt lat="46.2345533" lon="7.3477233"><ele></ele><time>2016-5-22T15:27:3Z</time></trkpt>
<trkpt lat="46.2345483" lon="7.3477017"><ele></ele><time>2016-5-22T15:27:6Z</time></trkpt>
<trkpt lat="46.2345417" lon="7.3476783"><ele></ele><time>2016-5-22T15:27:9Z</time></trkpt>
<trkpt lat="46.2345367" lon="7.3476583"><ele></ele><time>2016-5-22T15:27:12Z</time></trkpt>
<trkpt lat="46.2345317" lon="7.3476367"><ele></ele><time>2016-5-22T15:27:15Z</time></trkpt>
<trkpt lat="46.2345267" lon="7.3476133"><ele></ele><time>2016-5-22T15:27:18Z</time></trkpt>
<trkpt lat="46.2345200" lon="7.3475917"><ele></ele><time>2016-5-22T15:27:21Z</time></trkpt>
<trkpt lat="46.2345133" lon="7.3475683"><ele></ele><time>2016-5-22T15:27:24Z</time></trkpt>
<trkpt lat="46.2345100" lon="7.3475450"><ele></ele><time>2016-5-22T15:27:27Z</time></trkpt>
<trkpt lat="46.2345083" lon="7.3475233"><ele></ele><time>2016-5-22T15:27:30Z</time></trkpt>
<trkpt lat="46.2345067" lon="7.3475000"><ele></ele><time>2016-5-22T15:27:33Z</time></trkpt>
<trkpt lat="46.2345033" lon="7.3474767"><ele></ele><time>2016-5-22T15:27:36Z</time></trkpt>
<trkpt lat="46.2344983" lon="7.3474550"><ele></ele><time>2016-5-22T15:27:39Z</time></trkpt>
<trkpt lat="46.2344967" lon="7.3474317"><ele></ele><time>2016-5-22T15:27:42Z</time></trkpt>
<trkpt lat="46.2344933" lon="7.3474083"><ele></ele><time>2016-5-22T15:27:45Z</time></trkpt>
<trkpt lat="46.2344883" lon="7.3473833"><ele></ele><time>2016-5-22T15:27:48Z</time></trkpt>
<trkpt lat="46.2344850" lon="7.3473600"><ele></ele><time>2016-5-22T15:27:51Z</time></trkpt>
<trkpt lat="46.2344817" lon="7.3473383"><ele></ele><time>2016-5-22T15:27:54Z</time></trkpt>
<trkpt lat="46.2344750" lon="7.3473150"><ele></ele><time>2016-5-22T15:27:57Z</time></trkpt>
<trkpt lat="46.2344700" lon="7.3472933"><ele></ele><time>2016-5-22T15:28:0Z</time></trkpt>
<trkpt lat="46.2344667" lon="7.3472717"><ele></ele><time>2016-5-22T15:28:3Z</time></trkpt>
<trkpt lat="46.2344617" lon="7.3472483"><ele></ele><time>2016-5-22T15:28:6Z</time></trkpt>
<trkpt lat="46.2344533" lon="7.3472300"><ele></ele><time>2016-5-22T15:28:9Z</time></trkpt>
<trkpt lat="46.2344483" lon="7.3472117"><ele></ele><time>2016-5-22T15:28:12Z</time></trkpt>
<trkpt lat="46.2344433" lon="7.3471917"><ele></ele><time>2016-5-22T15:28:15Z</time></trkpt>
<trkpt lat="46.2344383" lon="7.3471733"><ele></ele><time>2016-5-22T15:28:18Z</time></trkpt>
<trkpt lat="46.2344317" lon="7.3471550"><ele></ele><time>2016-5-22T15:28:21Z</time></trkpt>
<trkpt lat="46.2344233" lon="7.3471367"><ele></ele><time>2016-5-22T15:28:24Z</time></trkpt>
<trkpt lat="46.2344150" lon="7.3471200"><ele></ele><time>2016-5-22T15:28:27Z</time></trkpt>
<trkpt lat="46.2344067" lon="7.3471067"><ele></ele><time>2016-5-22T15:28:30Z</time></trkpt>
<trkpt lat="46.2343967" lon="7.3470950"><ele></ele><time>2016-5-22T15:28:33Z</time></trkpt>
<trkpt lat="46.2343867" lon="7.3470833"><ele></ele><time>2016-5-22T15:28:36Z</time></trkpt>
<trkpt lat="46.2343767" lon="7.3470717"><ele></ele><time>2016-5-22T15:28:39Z</time></trkpt>
<trkpt lat="46.2343650" lon="7.3470633"><ele></ele><time>2016-5-22T15:28:42Z</time></trkpt>
<trkpt lat="46.2343517" lon="7.3470583"><ele></ele><time>2016-5-22T15:28:45Z</time></trkpt>
<trkpt lat="46.2343383" lon="7.3470550"><ele></ele><time>2016-5-22T15:28:48Z</time></trkpt>
<trkpt lat="46.2343250" lon="7.3470517"><ele></ele><time>2016-5-22T15:28:51Z</time></trkpt>
<trkpt lat="46.2343133" lon="7.3470450"><ele></ele><time>2016-5-22T15:28:54Z</time></trkpt>
<trkpt lat="46.2343033" lon="7.3470333"><ele></ele><time>2016-5-22T15:28:57Z</time></trkpt>
<trkpt lat="46.2342933" lon="7.3470217"><ele></ele><time>2016-5-22T15:29:0Z</time></trkpt>
<trkpt lat="46.2342817" lon="7.3470050"><ele></ele><time>2016-5-22T15:29:3Z</time></trkpt>
<trkpt lat="46.2342683" lon="7.3469900"><ele></ele><time>2016-5-22T15:29:6Z</time></trkpt>
<trkpt lat="46.2342550" lon="7.3469750"><ele></ele><time>2016-5-22T15:29:9Z</time></trkpt>
<trkpt lat="46.2342400" lon="7.3469600"><ele></ele><time>2016-5-22T15:29:12Z</time></trkpt>
<trkpt lat="46.2342283" lon="7.3469467"><ele></ele><time>2016-5-22T15:29:15Z</time></trkpt>
<trkpt lat="46.2342200" lon="7.3469300"><ele></ele><time>2016-5-22T15:29:18Z</time></trkpt>
<trkpt lat="46.2342033" lon="7.3469133"><ele></ele><time>2016-5-22T15:29:21Z</time></trkpt>
<trkpt lat="46.2341967" lon="7.3469000"><ele></ele><time>2016-5-22T15:29:24Z</time></trkpt>
<trkpt lat="46.2341950" lon="7.3468833"><ele></ele><time>2016-5-22T15:29:27Z</time></trkpt>
<trkpt lat="46.2341950" lon="7.3468650"><ele></ele><time>2016-5-22T15:29:30Z</time></trkpt>
<trkpt lat="46.2341933" lon="7.3468467"><ele></ele><time>2016-5-22T15:29:33Z</time></trkpt>
<trkpt lat="46.2341883" lon="7.3468283"><ele></ele><time>2016-5-22T15:29:36Z</time></trkpt>
<trkpt lat="46.2341817" lon="7.3468133"><ele></ele><time>2016-5-22T15:29:39Z</time></trkpt>
<trkpt lat="46.2341733" lon="7.3468033"><ele></ele><time>2016-5-22T15:29:42Z</time></trkpt>
<trkpt lat="46.2341617" lon="7.3467933"><ele></ele><time>2016-5-22T15:29:45Z</time></trkpt>
<trkpt lat="46.2341450" lon="7.3467833"><ele></ele><time>2016-5-22T15:29:48Z</time></trkpt>
<trkpt lat="46.2341300" lon="7.3467717"><ele></ele><time>2016-5-22T15:29:51Z</time></trkpt>
<trkpt lat="46.2341217" lon="7.3467567"><ele></ele><time>2016-5-22T15:29:54Z</time></trkpt>
<trkpt lat="46.2341200" lon="7.3467383"><ele></ele><time>2016-5-22T15:29:57Z</time></trkpt>
<trkpt lat="46.2341217" lon="7.3467183"><ele></ele><time>2016-5-22T15:30:0Z</time></trkpt>
<trkpt lat="46.2341250" lon="7.3466933"><ele></ele><time>2016-5-22T15:30:3Z</time></trkpt>
<trkpt lat="46.2341317" lon="7.3466650"><ele></ele><time>2016-5-22T15:30:6Z</time></trkpt>
<trkpt lat="46.2341400" lon="7.3466350"><ele></ele><time>2016-5-22T15:30:9Z</time></trkpt>
<trkpt lat="46.2341267" lon="7.3466267"><ele></ele><time>2016-5-22T15:30:12Z</time></trkpt>
<trkpt lat="46.2341217" lon="7.3466033"><ele></ele><time>2016-5-22T15:30:15Z</time></trkpt>
<trkpt lat="46.2341233" lon="7.3465750"><ele></ele><time>2016-5-22T15:30:18Z</time></trkpt>
<trkpt lat="46.2341267" lon="7.3465550"><ele></ele><time>2016-5-22T15:30:21Z</time></trkpt>
<trkpt lat="46.2341267" lon="7.3465333"><ele></ele><time>2016-5-22T15:30:24Z</time></trkpt>
<trkpt lat="46.2341267" lon="7.3465050"><ele></ele><time>2016-5-22T15:30:27Z</time></trkpt>
<trkpt lat="46.2341283" lon="7.3464833"><ele></ele><time>2016-5-22T15:30:30Z</time></trkpt>
<trkpt lat="46.2341333" lon="7.3464667"><ele></ele><time>2016-5-22T15:30:33Z</time></trkpt>
<trkpt lat="46.2341367" lon="7.3464550"><ele></ele><time>2016-5-22T15:30:36Z</time></trkpt>
<trkpt lat="46.2341350" lon="7.3464433"><ele></ele><time>2016-5-22T15:30:39Z</time></trkpt>
<trkpt lat="46.2341317" lon="7.3464283"><ele></ele><time>2016-5-22T15:30:42Z</time></trkpt>
<trkpt lat="46.2341283" lon="7.3464117"><ele></ele><time>2016-5-22T15:30:45Z</time></trkpt>
<trkpt lat="46.2341300" lon="7.3463883"><ele></ele><time>2016-5-22T15:30:48Z</time></trkpt>
<trkpt lat="46.2341333" lon="7.3463683"><ele></ele><time>2016-5-22T15:30:51Z</time></trkpt>
<trkpt lat="46.2341350" lon="7.3463483"><ele></ele><time>2016-5-22T15:30:54Z</time></trkpt>
<trkpt lat="46.2341317" lon="7.3463250"><ele></ele><time>2016-5-22T15:30:57Z</time></trkpt>
<trkpt lat="46.2341267" lon="7.3463017"><ele></ele><time>2016-5-22T15:31:0Z</time></trkpt>
<trkpt lat="46.2341217" lon="7.3462750"><ele></ele><time>2016-5-22T15:31:3Z</time></trkpt>
<trkpt lat="46.2341167" lon="7.3462500"><ele></ele><time>2016-5-22T15:31:6Z</time></trkpt>
<trkpt lat="46.2341133" lon="7.3462283"><ele></ele><time>2016-5-22T15:31:9Z</time></trkpt>
<trkpt lat="46.2341117" lon="7.3462050"><ele></ele><time>2016-5-22T15:31:12Z</time></trkpt>
<trkpt lat="46.2341083" lon="7.3461800"><ele></ele><time>2016-5-22T15:31:15Z</time></trkpt>
<trkpt lat="46.2341033" lon="7.3461567"><ele></ele><time>2016-5-22T15:31:18Z</time></trkpt>
<trkpt lat="46.2340967" lon="7.3461383"><ele></ele><time>2016-5-22T15:31:21Z</time></trkpt>
<trkpt lat="46.2340900" lon="7.3461250"><ele></ele><time>2016-5-22T15:31:24Z</time></trkpt>
<trkpt lat="46.2340850" lon="7.3461167"><ele></ele><time>2016-5-22T15:31:27Z</time></trkpt>
<trkpt lat="46.2340800" lon="7.3461083"><ele></ele><time>2016-5-22T15:31:30Z</time></trkpt>
<trkpt lat="46.2340750" lon="7.3460983"><ele></ele><time>2016-5-22T15:31:33Z</time></trkpt>
<trkpt lat="46.2340700" lon="7.3460917"><ele></ele><time>2016-5-22T15:31:36Z</time></trkpt>
<trkpt lat="46.2340633" lon="7.3460833"><ele></ele><time>2016-5-22T15:31:39Z</time></trkpt>
<trkpt lat="46.2340583" lon="7.3460800"><ele></ele><time>2016-5-22T15:31:42Z</time></trkpt>
<trkpt lat="46.2340517" lon="7.3460783"><ele></ele><time>2016-5-22T15:31:45Z</time></trkpt>
<trkpt lat="46.2340500" lon="7.3460783"><ele></ele><time>2016-5-22T15:31:48Z</time></trkpt>
<trkpt lat="46.2340500" lon="7.3460783"><ele></ele><time>2016-5-22T15:31:51Z</time></trkpt>
<trkpt lat="46.2340500" lon="7.3460783"><ele></ele><time>2016-5-22T15:31:54Z</time></trkpt>
<trkpt lat="46.2340500" lon="7.3460783"><ele></ele><time>2016-5-22T15:31:57Z</time></trkpt>
<trkpt lat="46.2340500" lon="7.3460783"><ele></ele><time>2016-5-22T15:32:0Z</time></trkpt>
<trkpt lat="46.2340500" lon="7.3460783"><ele></ele><time>2016-5-22T15:32:3Z</time></trkpt>
<trkpt lat="46.2340500" lon="7.3460783"><ele></ele><time>2016-5-22T15:32:6Z</time></trkpt>
<trkpt lat="46.2340500" lon="7.3460783"><ele></ele><time>2016-5-22T15:32:9Z</time></trkpt>
<trkpt lat="46.2340500" lon="7.3460783"><ele></ele><time>2016-5-22T15:32:12Z</time></trkpt>
<trkpt lat="46.2340500" lon="7.3460783"><ele></ele><time>2016-5-22T15:32:15Z</time></trkpt>
<trkpt lat="46.2340500" lon="7.3460783"><ele></ele><time>2016-5-22T15:32:18Z</time></trkpt>
<trkpt lat="46.2340500" lon="7.3460783"><ele></ele><time>2016-5-22T15:32:21Z</time></trkpt>
<trkpt lat="46.2340500" lon="7.3460783"><ele></ele><time>2016-5-22T15:32:24Z</time></trkpt>
<trkpt lat="46.2340500" lon="7.3460783"><ele></ele><time>2016-5-22T15:32:27Z</time></trkpt>
<trkpt lat="46.2340500" lon="7.3460783"><ele></ele><time>2016-5-22T15:32:30Z</time></trkpt>
<trkpt lat="46.2340500" lon="7.3460783"><ele></ele><time>2016-5-22T15:32:33Z</time></trkpt>
<trkpt lat="46.2340500" lon="7.3460783"><ele></ele><time>2016-5-22T15:32:36Z</time></trkpt>
<trkpt lat="46.2340500" lon="7.3460783"><ele></ele><time>2016-5-22T15:32:39Z</time></trkpt>
<trkpt lat="46.2340500" lon="7.3460783"><ele></ele><time>2016-5-22T15:32:42Z</time></trkpt>
<trkpt lat="46.2340500" lon="7.3460783"><ele></ele><time>2016-5-22T15:32:45Z</time></trkpt>
<trkpt lat="46.2340500" lon="7.3460783"><ele></ele><time>2016-5-22T15:32:48Z</time></trkpt>
<trkpt lat="46.2340500" lon="7.3460783"><ele></ele><time>2016-5-22T15:32:51Z</time></trkpt>
<trkpt lat="46.2340500" lon="7.3460783"><ele></ele><time>2016-5-22T15:32:54Z</time></trkpt>
<trkpt lat="46.2340500" lon="7.3460783"><ele></ele><time>2016-5-22T15:32:57Z</time></trkpt>
<trkpt lat="46.2340500" lon="7.3460783"><ele></ele><time>2016-5-22T15:33:0Z</time></trkpt>
<trkpt lat="46.2340500" lon="7.3460783"><ele></ele><time>2016-5-22T15:33:3Z</time></trkpt>
<trkpt lat="46.2340500" lon="7.3460783"><ele></ele><time>2016-5-22T15:33:6Z</time></trkpt>
<trkpt lat="46.2340500" lon="7.3460783"><ele></ele><time>2016-5-22T15:33:9Z</time></trkpt>
<trkpt lat="46.2340500" lon="7.3460783"><ele></ele><time>2016-5-22T15:33:12Z</time></trkpt>
<trkpt lat="46.2340500" lon="7.3460783"><ele></ele><time>2016-5-22T15:33:15Z</time></trkpt>
<trkpt lat="46.2340500" lon="7.3460783"><ele></ele><time>2016-5-22T15:33:18Z</time></trkpt>
<trkpt lat="46.2340500" lon="7.3460783"><ele></ele><time>2016-5-22T15:33:21Z</time></trkpt>
<trkpt lat="46.2340500" lon="7.3460783"><ele></ele><time>2016-5-22T15:33:24Z</time></trkpt>
<trkpt lat="46.2340500" lon="7.3460783"><ele></ele><time>2016-5-22T15:33:27Z</time></trkpt>
<trkpt lat="46.2340500" lon="7.3460783"><ele></ele><time>2016-5-22T15:33:30Z</time></trkpt>
<trkpt lat="46.2340500" lon="7.3460783"><ele></ele><time>2016-5-22T15:33:33Z</time></trkpt>
<trkpt lat="46.2340500" lon="7.3460783"><ele></ele><time>2016-5-22T15:33:36Z</time></trkpt>
<trkpt lat="46.2340500" lon="7.3460783"><ele></ele><time>2016-5-22T15:33:39Z</time></trkpt>
<trkpt lat="46.2340500" lon="7.3460783"><ele></ele><time>2016-5-22T15:33:42Z</time></trkpt>
<trkpt lat="46.2340500" lon="7.3460783"><ele></ele><time>2016-5-22T15:33:45Z</time></trkpt>
<trkpt lat="46.2340500" lon="7.3460783"><ele></ele><time>2016-5-22T15:33:48Z</time></trkpt>
<trkpt lat="46.2340500" lon="7.3460783"><ele></ele><time>2016-5-22T15:33:51Z</time></trkpt>
<trkpt lat="46.2340500" lon="7.3460783"><ele></ele><time>2016-5-22T15:33:54Z</time></trkpt>
<trkpt lat="46.2340500" lon="7.3460783"><ele></ele><time>2016-5-22T15:33:57Z</time></trkpt>
<trkpt lat="46.2340500" lon="7.3460783"><ele></ele><time>2016-5-22T15:34:0Z</time></trkpt>
<trkpt lat="46.2340500" lon="7.3460783"><ele></ele><time>2016-5-22T15:34:3Z</time></trkpt>
<trkpt lat="46.2340500" lon="7.3460783"><ele></ele><time>2016-5-22T15:34:6Z</time></trkpt>
<trkpt lat="46.2340500" lon="7.3460783"><ele></ele><time>2016-5-22T15:34:9Z</time></trkpt>
<trkpt lat="46.2340500" lon="7.3460783"><ele></ele><time>2016-5-22T15:34:12Z</time></trkpt>
<trkpt lat="46.2340500" lon="7.3460783"><ele></ele><time>2016-5-22T15:34:15Z</time></trkpt>
<trkpt lat="46.2340500" lon="7.3460783"><ele></ele><time>2016-5-22T15:34:18Z</time></trkpt>
<trkpt lat="46.2340500" lon="7.3460783"><ele></ele><time>2016-5-22T15:34:21Z</time></trkpt>
<trkpt lat="46.2340500" lon="7.3460783"><ele></ele><time>2016-5-22T15:34:24Z</time></trkpt>
<trkpt lat="46.2340500" lon="7.3460783"><ele></ele><time>2016-5-22T15:34:27Z</time></trkpt>
<trkpt lat="46.2340500" lon="7.3460783"><ele></ele><time>2016-5-22T15:34:30Z</time></trkpt>
<trkpt lat="46.2340500" lon="7.3460783"><ele></ele><time>2016-5-22T15:34:33Z</time></trkpt>
<trkpt lat="46.2340500" lon="7.3460783"><ele></ele><time>2016-5-22T15:34:36Z</time></trkpt>
<trkpt lat="46.2340500" lon="7.3460783"><ele></ele><time>2016-5-22T15:34:39Z</time></trkpt>
<trkpt lat="46.2340500" lon="7.3460783"><ele></ele><time>2016-5-22T15:34:42Z</time></trkpt>
<trkpt lat="46.2340500" lon="7.3460783"><ele></ele><time>2016-5-22T15:34:45Z</time></trkpt>
<trkpt lat="46.2340500" lon="7.3460783"><ele></ele><time>2016-5-22T15:34:48Z</time></trkpt>
<trkpt lat="46.2340500" lon="7.3460783"><ele></ele><time>2016-5-22T15:34:51Z</time></trkpt>
<trkpt lat="46.2340500" lon="7.3460783"><ele></ele><time>2016-5-22T15:34:54Z</time></trkpt>
<trkpt lat="46.2340500" lon="7.3460783"><ele></ele><time>2016-5-22T15:34:57Z</time></trkpt>
<trkpt lat="46.2340500" lon="7.3460783"><ele></ele><time>2016-5-22T15:35:0Z</time></trkpt>
<trkpt lat="46.2340500" lon="7.3460783"><ele></ele><time>2016-5-22T15:35:3Z</time></trkpt>
<trkpt lat="46.2340500" lon="7.3460783"><ele></ele><time>2016-5-22T15:35:6Z</time></trkpt>
<trkpt lat="46.2340500" lon="7.3460783"><ele></ele><time>2016-5-22T15:35:9Z</time></trkpt>
<trkpt lat="46.2340500" lon="7.3460783"><ele></ele><time>2016-5-22T15:35:12Z</time></trkpt>
<trkpt lat="46.2340500" lon="7.3460783"><ele></ele><time>2016-5-22T15:35:15Z</time></trkpt>
<trkpt lat="46.2340500" lon="7.3460783"><ele></ele><time>2016-5-22T15:35:18Z</time></trkpt>
<trkpt lat="46.2340500" lon="7.3460783"><ele></ele><time>2016-5-22T15:35:21Z</time></trkpt>
<trkpt lat="46.2340500" lon="7.3460783"><ele></ele><time>2016-5-22T15:35:24Z</time></trkpt>
<trkpt lat="46.2340500" lon="7.3460783"><ele></ele><time>2016-5-22T15:35:27Z</time></trkpt>
<trkpt lat="46.2340550" lon="7.3460883"><ele></ele><time>2016-5-22T15:35:30Z</time></trkpt>
<trkpt lat="46.2340550" lon="7.3460883"><ele></ele><time>2016-5-22T15:35:33Z</time></trkpt>
<trkpt lat="46.2340550" lon="7.3460883"><ele></ele><time>2016-5-22T15:35:36Z</time></trkpt>
<trkpt lat="46.2340550" lon="7.3460883"><ele></ele><time>2016-5-22T15:35:39Z</time></trkpt>
<trkpt lat="46.2340550" lon="7.3460883"><ele></ele><time>2016-5-22T15:35:42Z</time></trkpt>
<trkpt lat="46.2340550" lon="7.3460883"><ele></ele><time>2016-5-22T15:35:45Z</time></trkpt>
<trkpt lat="46.2340550" lon="7.3460883"><ele></ele><time>2016-5-22T15:35:48Z</time></trkpt>
<trkpt lat="46.2340583" lon="7.3460933"><ele></ele><time>2016-5-22T15:35:51Z</time></trkpt>
<trkpt lat="46.2340617" lon="7.3460900"><ele></ele><time>2016-5-22T15:35:54Z</time></trkpt>
<trkpt lat="46.2340683" lon="7.3460833"><ele></ele><time>2016-5-22T15:35:57Z</time></trkpt>
<trkpt lat="46.2340750" lon="7.3460817"><ele></ele><time>2016-5-22T15:36:0Z</time></trkpt>
<trkpt lat="46.2340833" lon="7.3460850"><ele></ele><time>2016-5-22T15:36:3Z</time></trkpt>
<trkpt lat="46.2340933" lon="7.3460900"><ele></ele><time>2016-5-22T15:36:6Z</time></trkpt>
<trkpt lat="46.2341033" lon="7.3460933"><ele></ele><time>2016-5-22T15:36:9Z</time></trkpt>
<trkpt lat="46.2341083" lon="7.3460950"><ele></ele><time>2016-5-22T15:36:12Z</time></trkpt>
<trkpt lat="46.2341183" lon="7.3460933"><ele></ele><time>2016-5-22T15:36:15Z</time></trkpt>
<trkpt lat="46.2341283" lon="7.3460933"><ele></ele><time>2016-5-22T15:36:18Z</time></trkpt>
<trkpt lat="46.2341367" lon="7.3460950"><ele></ele><time>2016-5-22T15:36:21Z</time></trkpt>
<trkpt lat="46.2341400" lon="7.3461017"><ele></ele><time>2016-5-22T15:36:24Z</time></trkpt>
<trkpt lat="46.2341433" lon="7.3461100"><ele></ele><time>2016-5-22T15:36:27Z</time></trkpt>
<trkpt lat="46.2341483" lon="7.3461167"><ele></ele><time>2016-5-22T15:36:30Z</time></trkpt>
<trkpt lat="46.2341567" lon="7.3461200"><ele></ele><time>2016-5-22T15:36:33Z</time></trkpt>
<trkpt lat="46.2341700" lon="7.3461250"><ele></ele><time>2016-5-22T15:36:36Z</time></trkpt>
<trkpt lat="46.2341900" lon="7.3461283"><ele></ele><time>2016-5-22T15:36:39Z</time></trkpt>
<trkpt lat="46.2342150" lon="7.3461333"><ele></ele><time>2016-5-22T15:36:42Z</time></trkpt>
<trkpt lat="46.2342400" lon="7.3461350"><ele></ele><time>2016-5-22T15:36:45Z</time></trkpt>
<trkpt lat="46.2342583" lon="7.3461250"><ele></ele><time>2016-5-22T15:36:48Z</time></trkpt>
<trkpt lat="46.2342733" lon="7.3461067"><ele></ele><time>2016-5-22T15:36:51Z</time></trkpt>
<trkpt lat="46.2342817" lon="7.3460850"><ele></ele><time>2016-5-22T15:36:54Z</time></trkpt>
<trkpt lat="46.2342883" lon="7.3460650"><ele></ele><time>2016-5-22T15:36:57Z</time></trkpt>
<trkpt lat="46.2342933" lon="7.3460500"><ele></ele><time>2016-5-22T15:37:0Z</time></trkpt>
<trkpt lat="46.2342967" lon="7.3460333"><ele></ele><time>2016-5-22T15:37:3Z</time></trkpt>
<trkpt lat="46.2342967" lon="7.3460133"><ele></ele><time>2016-5-22T15:37:6Z</time></trkpt>
<trkpt lat="46.2342983" lon="7.3459917"><ele></ele><time>2016-5-22T15:37:9Z</time></trkpt>
<trkpt lat="46.2343033" lon="7.3459650"><ele></ele><time>2016-5-22T15:37:12Z</time></trkpt>
<trkpt lat="46.2343083" lon="7.3459350"><ele></ele><time>2016-5-22T15:37:15Z</time></trkpt>
<trkpt lat="46.2343117" lon="7.3459050"><ele></ele><time>2016-5-22T15:37:18Z</time></trkpt>
<trkpt lat="46.2343100" lon="7.3458767"><ele></ele><time>2016-5-22T15:37:21Z</time></trkpt>
<trkpt lat="46.2343050" lon="7.3458483"><ele></ele><time>2016-5-22T15:37:24Z</time></trkpt>
<trkpt lat="46.2342950" lon="7.3458200"><ele></ele><time>2016-5-22T15:37:27Z</time></trkpt>
<trkpt lat="46.2342850" lon="7.3457900"><ele></ele><time>2016-5-22T15:37:30Z</time></trkpt>
<trkpt lat="46.2342733" lon="7.3457583"><ele></ele><time>2016-5-22T15:37:33Z</time></trkpt>
<trkpt lat="46.2342650" lon="7.3457267"><ele></ele><time>2016-5-22T15:37:36Z</time></trkpt>
<trkpt lat="46.2342600" lon="7.3456967"><ele></ele><time>2016-5-22T15:37:39Z</time></trkpt>
<trkpt lat="46.2342550" lon="7.3456633"><ele></ele><time>2016-5-22T15:37:42Z</time></trkpt>
<trkpt lat="46.2342533" lon="7.3456250"><ele></ele><time>2016-5-22T15:37:45Z</time></trkpt>
<trkpt lat="46.2342517" lon="7.3455850"><ele></ele><time>2016-5-22T15:37:48Z</time></trkpt>
<trkpt lat="46.2342517" lon="7.3455500"><ele></ele><time>2016-5-22T15:37:51Z</time></trkpt>
<trkpt lat="46.2342500" lon="7.3455233"><ele></ele><time>2016-5-22T15:37:54Z</time></trkpt>
<trkpt lat="46.2342483" lon="7.3455000"><ele></ele><time>2016-5-22T15:37:57Z</time></trkpt>
<trkpt lat="46.2342500" lon="7.3454733"><ele></ele><time>2016-5-22T15:38:0Z</time></trkpt>
<trkpt lat="46.2342500" lon="7.3454450"><ele></ele><time>2016-5-22T15:38:3Z</time></trkpt>
<trkpt lat="46.2342533" lon="7.3454117"><ele></ele><time>2016-5-22T15:38:6Z</time></trkpt>
<trkpt lat="46.2342533" lon="7.3453800"><ele></ele><time>2016-5-22T15:38:9Z</time></trkpt>
<trkpt lat="46.2342533" lon="7.3453567"><ele></ele><time>2016-5-22T15:38:12Z</time></trkpt>
<trkpt lat="46.2342500" lon="7.3453283"><ele></ele><time>2016-5-22T15:38:15Z</time></trkpt>
<trkpt lat="46.2342483" lon="7.3453033"><ele></ele><time>2016-5-22T15:38:18Z</time></trkpt>
<trkpt lat="46.2342467" lon="7.3452717"><ele></ele><time>2016-5-22T15:38:21Z</time></trkpt>
<trkpt lat="46.2342433" lon="7.3452267"><ele></ele><time>2016-5-22T15:38:24Z</time></trkpt>
<trkpt lat="46.2342450" lon="7.3451750"><ele></ele><time>2016-5-22T15:38:27Z</time></trkpt>
<trkpt lat="46.2342967" lon="7.3449783"><ele></ele><time>2016-5-22T15:38:30Z</time></trkpt>
<trkpt lat="46.2343033" lon="7.3449833"><ele></ele><time>2016-5-22T15:38:33Z</time></trkpt>
<trkpt lat="46.2343067" lon="7.3449717"><ele></ele><time>2016-5-22T15:38:36Z</time></trkpt>
<trkpt lat="46.2343067" lon="7.3449717"><ele></ele><time>2016-5-22T15:38:39Z</time></trkpt>
<trkpt lat="46.2343067" lon="7.3449717"><ele></ele><time>2016-5-22T15:38:42Z</time></trkpt>
<trkpt lat="46.2343067" lon="7.3449717"><ele></ele><time>2016-5-22T15:38:45Z</time></trkpt>
<trkpt lat="46.2343067" lon="7.3449717"><ele></ele><time>2016-5-22T15:38:48Z</time></trkpt>
<trkpt lat="46.2343067" lon="7.3449717"><ele></ele><time>2016-5-22T15:38:51Z</time></trkpt>
<trkpt lat="46.2343067" lon="7.3449717"><ele></ele><time>2016-5-22T15:38:54Z</time></trkpt>
<trkpt lat="46.2343067" lon="7.3449717"><ele></ele><time>2016-5-22T15:38:57Z</time></trkpt>
<trkpt lat="46.2343067" lon="7.3449717"><ele></ele><time>2016-5-22T15:39:0Z</time></trkpt>
<trkpt lat="46.2343067" lon="7.3449717"><ele></ele><time>2016-5-22T15:39:3Z</time></trkpt>
<trkpt lat="46.2343067" lon="7.3449717"><ele></ele><time>2016-5-22T15:39:6Z</time></trkpt>
<trkpt lat="46.2343067" lon="7.3449717"><ele></ele><time>2016-5-22T15:39:9Z</time></trkpt>
<trkpt lat="46.2343067" lon="7.3449717"><ele></ele><time>2016-5-22T15:39:12Z</time></trkpt>
<trkpt lat="46.2343067" lon="7.3449717"><ele></ele><time>2016-5-22T15:39:15Z</time></trkpt>
<trkpt lat="46.2343067" lon="7.3449717"><ele></ele><time>2016-5-22T15:39:18Z</time></trkpt>
<trkpt lat="46.2343067" lon="7.3449717"><ele></ele><time>2016-5-22T15:39:21Z</time></trkpt>
<trkpt lat="46.2343033" lon="7.3449650"><ele></ele><time>2016-5-22T15:39:24Z</time></trkpt>
<trkpt lat="46.2343017" lon="7.3449600"><ele></ele><time>2016-5-22T15:39:27Z</time></trkpt>
<trkpt lat="46.2342983" lon="7.3449550"><ele></ele><time>2016-5-22T15:39:30Z</time></trkpt>
<trkpt lat="46.2342950" lon="7.3449467"><ele></ele><time>2016-5-22T15:39:33Z</time></trkpt>
<trkpt lat="46.2342917" lon="7.3449433"><ele></ele><time>2016-5-22T15:39:36Z</time></trkpt>
<trkpt lat="46.2342900" lon="7.3449383"><ele></ele><time>2016-5-22T15:39:39Z</time></trkpt>
<trkpt lat="46.2342867" lon="7.3449350"><ele></ele><time>2016-5-22T15:39:42Z</time></trkpt>
<trkpt lat="46.2342850" lon="7.3449283"><ele></ele><time>2016-5-22T15:39:45Z</time></trkpt>
<trkpt lat="46.2342817" lon="7.3449233"><ele></ele><time>2016-5-22T15:39:48Z</time></trkpt>
<trkpt lat="46.2341067" lon="7.3445433"><ele></ele><time>2016-5-22T15:39:51Z</time></trkpt>
<trkpt lat="46.2341050" lon="7.3445600"><ele></ele><time>2016-5-22T15:39:54Z</time></trkpt>
<trkpt lat="46.2341133" lon="7.3445917"><ele></ele><time>2016-5-22T15:39:57Z</time></trkpt>
<trkpt lat="46.2341217" lon="7.3446183"><ele></ele><time>2016-5-22T15:40:0Z</time></trkpt>
<trkpt lat="46.2341350" lon="7.3446500"><ele></ele><time>2016-5-22T15:40:3Z</time></trkpt>
<trkpt lat="46.2341617" lon="7.3446983"><ele></ele><time>2016-5-22T15:40:6Z</time></trkpt>
<trkpt lat="46.2341767" lon="7.3447283"><ele></ele><time>2016-5-22T15:40:9Z</time></trkpt>
<trkpt lat="46.2341883" lon="7.3447500"><ele></ele><time>2016-5-22T15:40:12Z</time></trkpt>
<trkpt lat="46.2341050" lon="7.3445667"><ele></ele><time>2016-5-22T15:40:15Z</time></trkpt>
<trkpt lat="46.2341733" lon="7.3447217"><ele></ele><time>2016-5-22T15:40:18Z</time></trkpt>
<trkpt lat="46.2342000" lon="7.3447700"><ele></ele><time>2016-5-22T15:40:21Z</time></trkpt>
<trkpt lat="46.2342250" lon="7.3448183"><ele></ele><time>2016-5-22T15:40:24Z</time></trkpt>
<trkpt lat="46.2342167" lon="7.3448033"><ele></ele><time>2016-5-22T15:40:27Z</time></trkpt>
<trkpt lat="46.2342100" lon="7.3447900"><ele></ele><time>2016-5-22T15:40:30Z</time></trkpt>
<trkpt lat="46.2342000" lon="7.3447700"><ele></ele><time>2016-5-22T15:40:33Z</time></trkpt>
<trkpt lat="46.2341917" lon="7.3447567"><ele></ele><time>2016-5-22T15:40:36Z</time></trkpt>
<trkpt lat="46.2340750" lon="7.3444117"><ele></ele><time>2016-5-22T15:40:39Z</time></trkpt>
<trkpt lat="46.2341033" lon="7.3445517"><ele></ele><time>2016-5-22T15:40:42Z</time></trkpt>
<trkpt lat="46.2341100" lon="7.3445783"><ele></ele><time>2016-5-22T15:40:45Z</time></trkpt>
<trkpt lat="46.2340900" lon="7.3444950"><ele></ele><time>2016-5-22T15:40:48Z</time></trkpt>
<trkpt lat="46.2341033" lon="7.3445583"><ele></ele><time>2016-5-22T15:40:51Z</time></trkpt>
<trkpt lat="46.2341150" lon="7.3445967"><ele></ele><time>2016-5-22T15:40:54Z</time></trkpt>
<trkpt lat="46.2340983" lon="7.3445350"><ele></ele><time>2016-5-22T15:40:57Z</time></trkpt>
<trkpt lat="46.2340950" lon="7.3445133"><ele></ele><time>2016-5-22T15:41:0Z</time></trkpt>
<trkpt lat="46.2340867" lon="7.3444783"><ele></ele><time>2016-5-22T15:41:3Z</time></trkpt>
<trkpt lat="46.2340817" lon="7.3444483"><ele></ele><time>2016-5-22T15:41:6Z</time></trkpt>
<trkpt lat="46.2340783" lon="7.3444267"><ele></ele><time>2016-5-22T15:41:9Z</time></trkpt>
<trkpt lat="46.2340700" lon="7.3443800"><ele></ele><time>2016-5-22T15:41:12Z</time></trkpt>
<trkpt lat="46.2340667" lon="7.3443467"><ele></ele><time>2016-5-22T15:41:15Z</time></trkpt>
<trkpt lat="46.2340633" lon="7.3443233"><ele></ele><time>2016-5-22T15:41:18Z</time></trkpt>
<trkpt lat="46.2340600" lon="7.3443017"><ele></ele><time>2016-5-22T15:41:21Z</time></trkpt>
<trkpt lat="46.2340583" lon="7.3442800"><ele></ele><time>2016-5-22T15:41:24Z</time></trkpt>
<trkpt lat="46.2340550" lon="7.3442600"><ele></ele><time>2016-5-22T15:41:27Z</time></trkpt>
<trkpt lat="46.2340533" lon="7.3442383"><ele></ele><time>2016-5-22T15:41:30Z</time></trkpt>
<trkpt lat="46.2340483" lon="7.3442100"><ele></ele><time>2016-5-22T15:41:33Z</time></trkpt>
<trkpt lat="46.2340467" lon="7.3441933"><ele></ele><time>2016-5-22T15:41:36Z</time></trkpt>
<trkpt lat="46.2340433" lon="7.3441533"><ele></ele><time>2016-5-22T15:41:39Z</time></trkpt>
<trkpt lat="46.2340400" lon="7.3441317"><ele></ele><time>2016-5-22T15:41:42Z</time></trkpt>
<trkpt lat="46.2340400" lon="7.3441150"><ele></ele><time>2016-5-22T15:41:45Z</time></trkpt>
<trkpt lat="46.2340467" lon="7.3441850"><ele></ele><time>2016-5-22T15:41:48Z</time></trkpt>
<trkpt lat="46.2340517" lon="7.3441733"><ele></ele><time>2016-5-22T15:41:51Z</time></trkpt>
<trkpt lat="46.2340350" lon="7.3440700"><ele></ele><time>2016-5-22T15:41:54Z</time></trkpt>
<trkpt lat="46.2340333" lon="7.3440550"><ele></ele><time>2016-5-22T15:41:57Z</time></trkpt>
<trkpt lat="46.2340450" lon="7.3441800"><ele></ele><time>2016-5-22T15:42:0Z</time></trkpt>
<trkpt lat="46.2340333" lon="7.3439500"><ele></ele><time>2016-5-22T15:42:3Z</time></trkpt>
<trkpt lat="46.2340350" lon="7.3439283"><ele></ele><time>2016-5-22T15:42:6Z</time></trkpt>
<trkpt lat="46.2341100" lon="7.3437583"><ele></ele><time>2016-5-22T15:42:9Z</time></trkpt>
<trkpt lat="46.2341117" lon="7.3437533"><ele></ele><time>2016-5-22T15:42:12Z</time></trkpt>
<trkpt lat="46.2341117" lon="7.3437500"><ele></ele><time>2016-5-22T15:42:15Z</time></trkpt>
<trkpt lat="46.2341117" lon="7.3437483"><ele></ele><time>2016-5-22T15:42:18Z</time></trkpt>
<trkpt lat="46.2341117" lon="7.3437467"><ele></ele><time>2016-5-22T15:42:21Z</time></trkpt>
<trkpt lat="46.2341133" lon="7.3437400"><ele></ele><time>2016-5-22T15:42:24Z</time></trkpt>
<trkpt lat="46.2341133" lon="7.3437383"><ele></ele><time>2016-5-22T15:42:27Z</time></trkpt>
<trkpt lat="46.2341150" lon="7.3437317"><ele></ele><time>2016-5-22T15:42:30Z</time></trkpt>
<trkpt lat="46.2341167" lon="7.3437283"><ele></ele><time>2016-5-22T15:42:33Z</time></trkpt>
<trkpt lat="46.2341133" lon="7.3437033"><ele></ele><time>2016-5-22T15:42:36Z</time></trkpt>
<trkpt lat="46.2341167" lon="7.3437000"><ele></ele><time>2016-5-22T15:42:39Z</time></trkpt>
<trkpt lat="46.2341200" lon="7.3436950"><ele></ele><time>2016-5-22T15:42:42Z</time></trkpt>
<trkpt lat="46.2341233" lon="7.3436900"><ele></ele><time>2016-5-22T15:42:45Z</time></trkpt>
<trkpt lat="46.2341250" lon="7.3436867"><ele></ele><time>2016-5-22T15:42:48Z</time></trkpt>
<trkpt lat="46.2341233" lon="7.3436883"><ele></ele><time>2016-5-22T15:42:51Z</time></trkpt>
<trkpt lat="46.2341250" lon="7.3436867"><ele></ele><time>2016-5-22T15:42:54Z</time></trkpt>
<trkpt lat="46.2341250" lon="7.3436867"><ele></ele><time>2016-5-22T15:42:57Z</time></trkpt>
<trkpt lat="46.2341250" lon="7.3436850"><ele></ele><time>2016-5-22T15:43:0Z</time></trkpt>
<trkpt lat="46.2341267" lon="7.3436833"><ele></ele><time>2016-5-22T15:43:3Z</time></trkpt>
<trkpt lat="46.2341300" lon="7.3436783"><ele></ele><time>2016-5-22T15:43:6Z</time></trkpt>
<trkpt lat="46.2341300" lon="7.3436800"><ele></ele><time>2016-5-22T15:43:9Z</time></trkpt>
<trkpt lat="46.2341300" lon="7.3436800"><ele></ele><time>2016-5-22T15:43:12Z</time></trkpt>
<trkpt lat="46.2341300" lon="7.3436783"><ele></ele><time>2016-5-22T15:43:15Z</time></trkpt>
<trkpt lat="46.2341300" lon="7.3436783"><ele></ele><time>2016-5-22T15:43:18Z</time></trkpt>
<trkpt lat="46.2341283" lon="7.3436817"><ele></ele><time>2016-5-22T15:43:21Z</time></trkpt>
<trkpt lat="46.2341300" lon="7.3436800"><ele></ele><time>2016-5-22T15:43:24Z</time></trkpt>
<trkpt lat="46.2341300" lon="7.3436800"><ele></ele><time>2016-5-22T15:43:27Z</time></trkpt>
<trkpt lat="46.2341300" lon="7.3436800"><ele></ele><time>2016-5-22T15:43:30Z</time></trkpt>
<trkpt lat="46.2341300" lon="7.3436800"><ele></ele><time>2016-5-22T15:43:33Z</time></trkpt>
<trkpt lat="46.2341300" lon="7.3436783"><ele></ele><time>2016-5-22T15:43:36Z</time></trkpt>
<trkpt lat="46.2341983" lon="7.3435933"><ele></ele><time>2016-5-22T15:43:39Z</time></trkpt>
<trkpt lat="46.2341817" lon="7.3436150"><ele></ele><time>2016-5-22T15:43:42Z</time></trkpt>
<trkpt lat="46.2341850" lon="7.3436117"><ele></ele><time>2016-5-22T15:43:45Z</time></trkpt>
<trkpt lat="46.2341883" lon="7.3436083"><ele></ele><time>2016-5-22T15:43:48Z</time></trkpt>
<trkpt lat="46.2341950" lon="7.3436000"><ele></ele><time>2016-5-22T15:43:51Z</time></trkpt>
<trkpt lat="46.2341983" lon="7.3435933"><ele></ele><time>2016-5-22T15:43:54Z</time></trkpt>
<trkpt lat="46.2342017" lon="7.3435883"><ele></ele><time>2016-5-22T15:43:57Z</time></trkpt>
<trkpt lat="46.2342067" lon="7.3435800"><ele></ele><time>2016-5-22T15:44:0Z</time></trkpt>
<trkpt lat="46.2342117" lon="7.3435700"><ele></ele><time>2016-5-22T15:44:3Z</time></trkpt>
<trkpt lat="46.2342167" lon="7.3435583"><ele></ele><time>2016-5-22T15:44:6Z</time></trkpt>
<trkpt lat="46.2342217" lon="7.3435483"><ele></ele><time>2016-5-22T15:44:9Z</time></trkpt>
<trkpt lat="46.2342250" lon="7.3435383"><ele></ele><time>2016-5-22T15:44:12Z</time></trkpt>
<trkpt lat="46.2342283" lon="7.3435333"><ele></ele><time>2016-5-22T15:44:15Z</time></trkpt>
<trkpt lat="46.2342317" lon="7.3435217"><ele></ele><time>2016-5-22T15:44:18Z</time></trkpt>
<trkpt lat="46.2342333" lon="7.3435133"><ele></ele><time>2016-5-22T15:44:21Z</time></trkpt>
<trkpt lat="46.2342350" lon="7.3435033"><ele></ele><time>2016-5-22T15:44:24Z</time></trkpt>
<trkpt lat="46.2342350" lon="7.3435017"><ele></ele><time>2016-5-22T15:44:27Z</time></trkpt>
<trkpt lat="46.2342367" lon="7.3435000"><ele></ele><time>2016-5-22T15:44:30Z</time></trkpt>
<trkpt lat="46.2342350" lon="7.3435017"><ele></ele><time>2016-5-22T15:44:33Z</time></trkpt>
<trkpt lat="46.2342350" lon="7.3435050"><ele></ele><time>2016-5-22T15:44:36Z</time></trkpt>
<trkpt lat="46.2342350" lon="7.3435033"><ele></ele><time>2016-5-22T15:44:39Z</time></trkpt>
<trkpt lat="46.2342367" lon="7.3435000"><ele></ele><time>2016-5-22T15:44:42Z</time></trkpt>
<trkpt lat="46.2342350" lon="7.3435017"><ele></ele><time>2016-5-22T15:44:45Z</time></trkpt>
<trkpt lat="46.2342350" lon="7.3435033"><ele></ele><time>2016-5-22T15:44:48Z</time></trkpt>
<trkpt lat="46.2342367" lon="7.3435017"><ele></ele><time>2016-5-22T15:44:51Z</time></trkpt>
<trkpt lat="46.2342350" lon="7.3435017"><ele></ele><time>2016-5-22T15:44:54Z</time></trkpt>
<trkpt lat="46.2342350" lon="7.3435017"><ele></ele><time>2016-5-22T15:44:57Z</time></trkpt>
<trkpt lat="46.2342350" lon="7.3435017"><ele></ele><time>2016-5-22T15:45:0Z</time></trkpt>
<trkpt lat="46.2342350" lon="7.3435017"><ele></ele><time>2016-5-22T15:45:3Z</time></trkpt>
<trkpt lat="46.2342417" lon="7.3434483"><ele></ele><time>2016-5-22T15:45:6Z</time></trkpt>
<trkpt lat="46.2342417" lon="7.3434400"><ele></ele><time>2016-5-22T15:45:9Z</time></trkpt>
<trkpt lat="46.2342417" lon="7.3434300"><ele></ele><time>2016-5-22T15:45:12Z</time></trkpt>
<trkpt lat="46.2342433" lon="7.3434283"><ele></ele><time>2016-5-22T15:45:15Z</time></trkpt>
<trkpt lat="46.2342433" lon="7.3434150"><ele></ele><time>2016-5-22T15:45:18Z</time></trkpt>
<trkpt lat="46.2342433" lon="7.3434083"><ele></ele><time>2016-5-22T15:45:21Z</time></trkpt>
<trkpt lat="46.2342433" lon="7.3434000"><ele></ele><time>2016-5-22T15:45:24Z</time></trkpt>
<trkpt lat="46.2342450" lon="7.3433900"><ele></ele><time>2016-5-22T15:45:27Z</time></trkpt>
<trkpt lat="46.2342450" lon="7.3433833"><ele></ele><time>2016-5-22T15:45:30Z</time></trkpt>
<trkpt lat="46.2342450" lon="7.3433800"><ele></ele><time>2016-5-22T15:45:33Z</time></trkpt>
<trkpt lat="46.2342450" lon="7.3433750"><ele></ele><time>2016-5-22T15:45:36Z</time></trkpt>
<trkpt lat="46.2342450" lon="7.3433750"><ele></ele><time>2016-5-22T15:45:39Z</time></trkpt>
<trkpt lat="46.2342450" lon="7.3433750"><ele></ele><time>2016-5-22T15:45:42Z</time></trkpt>
<trkpt lat="46.2342450" lon="7.3433733"><ele></ele><time>2016-5-22T15:45:45Z</time></trkpt>
<trkpt lat="46.2342450" lon="7.3433733"><ele></ele><time>2016-5-22T15:45:48Z</time></trkpt>
<trkpt lat="46.2342450" lon="7.3433733"><ele></ele><time>2016-5-22T15:45:51Z</time></trkpt>
<trkpt lat="46.2342450" lon="7.3433733"><ele></ele><time>2016-5-22T15:45:54Z</time></trkpt>
<trkpt lat="46.2342450" lon="7.3433750"><ele></ele><time>2016-5-22T15:45:57Z</time></trkpt>
<trkpt lat="46.2342450" lon="7.3433733"><ele></ele><time>2016-5-22T15:46:0Z</time></trkpt>
<trkpt lat="46.2342450" lon="7.3433800"><ele></ele><time>2016-5-22T15:46:3Z</time></trkpt>
<trkpt lat="46.2342450" lon="7.3433850"><ele></ele><time>2016-5-22T15:46:6Z</time></trkpt>
<trkpt lat="46.2342450" lon="7.3433733"><ele></ele><time>2016-5-22T15:46:9Z</time></trkpt>
<trkpt lat="46.2342450" lon="7.3433750"><ele></ele><time>2016-5-22T15:46:12Z</time></trkpt>
<trkpt lat="46.2342450" lon="7.3433733"><ele></ele><time>2016-5-22T15:46:15Z</time></trkpt>
<trkpt lat="46.2342450" lon="7.3433733"><ele></ele><time>2016-5-22T15:46:18Z</time></trkpt>
<trkpt lat="46.2342450" lon="7.3433750"><ele></ele><time>2016-5-22T15:46:21Z</time></trkpt>
<trkpt lat="46.2342450" lon="7.3433767"><ele></ele><time>2016-5-22T15:46:24Z</time></trkpt>
<trkpt lat="46.2342450" lon="7.3432950"><ele></ele><time>2016-5-22T15:46:27Z</time></trkpt>
<trkpt lat="46.2342450" lon="7.3432950"><ele></ele><time>2016-5-22T15:46:30Z</time></trkpt>
<trkpt lat="46.2342367" lon="7.3431983"><ele></ele><time>2016-5-22T15:46:33Z</time></trkpt>
<trkpt lat="46.2342350" lon="7.3431833"><ele></ele><time>2016-5-22T15:46:36Z</time></trkpt>
<trkpt lat="46.2342350" lon="7.3431783"><ele></ele><time>2016-5-22T15:46:39Z</time></trkpt>
<trkpt lat="46.2342333" lon="7.3431633"><ele></ele><time>2016-5-22T15:46:42Z</time></trkpt>
<trkpt lat="46.2342317" lon="7.3431500"><ele></ele><time>2016-5-22T15:46:45Z</time></trkpt>
<trkpt lat="46.2342300" lon="7.3431350"><ele></ele><time>2016-5-22T15:46:48Z</time></trkpt>
<trkpt lat="46.2342283" lon="7.3431167"><ele></ele><time>2016-5-22T15:46:51Z</time></trkpt>
<trkpt lat="46.2342267" lon="7.3431050"><ele></ele><time>2016-5-22T15:46:54Z</time></trkpt>
<trkpt lat="46.2342250" lon="7.3430900"><ele></ele><time>2016-5-22T15:46:57Z</time></trkpt>
<trkpt lat="46.2342233" lon="7.3430717"><ele></ele><time>2016-5-22T15:47:0Z</time></trkpt>
<trkpt lat="46.2342217" lon="7.3430583"><ele></ele><time>2016-5-22T15:47:3Z</time></trkpt>
<trkpt lat="46.2342200" lon="7.3430450"><ele></ele><time>2016-5-22T15:47:6Z</time></trkpt>
<trkpt lat="46.2342183" lon="7.3430333"><ele></ele><time>2016-5-22T15:47:9Z</time></trkpt>
<trkpt lat="46.2342167" lon="7.3430233"><ele></ele><time>2016-5-22T15:47:12Z</time></trkpt>
<trkpt lat="46.2342167" lon="7.3430100"><ele></ele><time>2016-5-22T15:47:15Z</time></trkpt>
<trkpt lat="46.2342150" lon="7.3429967"><ele></ele><time>2016-5-22T15:47:18Z</time></trkpt>
<trkpt lat="46.2342133" lon="7.3429867"><ele></ele><time>2016-5-22T15:47:21Z</time></trkpt>
<trkpt lat="46.2342117" lon="7.3429717"><ele></ele><time>2016-5-22T15:47:24Z</time></trkpt>
<trkpt lat="46.2342100" lon="7.3429533"><ele></ele><time>2016-5-22T15:47:27Z</time></trkpt>
<trkpt lat="46.2342083" lon="7.3429367"><ele></ele><time>2016-5-22T15:47:30Z</time></trkpt>
<trkpt lat="46.2342050" lon="7.3429200"><ele></ele><time>2016-5-22T15:47:33Z</time></trkpt>
<trkpt lat="46.2342050" lon="7.3429083"><ele></ele><time>2016-5-22T15:47:36Z</time></trkpt>
<trkpt lat="46.2342033" lon="7.3428967"><ele></ele><time>2016-5-22T15:47:39Z</time></trkpt>
<trkpt lat="46.2342017" lon="7.3428817"><ele></ele><time>2016-5-22T15:47:42Z</time></trkpt>
<trkpt lat="46.2342000" lon="7.3428733"><ele></ele><time>2016-5-22T15:47:45Z</time></trkpt>
<trkpt lat="46.2341983" lon="7.3428567"><ele></ele><time>2016-5-22T15:47:48Z</time></trkpt>
<trkpt lat="46.2341967" lon="7.3428450"><ele></ele><time>2016-5-22T15:47:51Z</time></trkpt>
<trkpt lat="46.2341967" lon="7.3428350"><ele></ele><time>2016-5-22T15:47:54Z</time></trkpt>
<trkpt lat="46.2341950" lon="7.3428217"><ele></ele><time>2016-5-22T15:47:57Z</time></trkpt>
<trkpt lat="46.2341933" lon="7.3428050"><ele></ele><time>2016-5-22T15:48:0Z</time></trkpt>
<trkpt lat="46.2341917" lon="7.3427967"><ele></ele><time>2016-5-22T15:48:3Z</time></trkpt>
<trkpt lat="46.2341900" lon="7.3427883"><ele></ele><time>2016-5-22T15:48:6Z</time></trkpt>
<trkpt lat="46.2341883" lon="7.3427800"><ele></ele><time>2016-5-22T15:48:9Z</time></trkpt>
<trkpt lat="46.2341883" lon="7.3427767"><ele></ele><time>2016-5-22T15:48:12Z</time></trkpt>
<trkpt lat="46.2341900" lon="7.3427850"><ele></ele><time>2016-5-22T15:48:15Z</time></trkpt>
<trkpt lat="46.2341883" lon="7.3427767"><ele></ele><time>2016-5-22T15:48:18Z</time></trkpt>
<trkpt lat="46.2341883" lon="7.3427783"><ele></ele><time>2016-5-22T15:48:21Z</time></trkpt>
<trkpt lat="46.2341883" lon="7.3427783"><ele></ele><time>2016-5-22T15:48:24Z</time></trkpt>
<trkpt lat="46.2341883" lon="7.3427783"><ele></ele><time>2016-5-22T15:48:27Z</time></trkpt>
<trkpt lat="46.2341867" lon="7.3427700"><ele></ele><time>2016-5-22T15:48:30Z</time></trkpt>
<trkpt lat="46.2341883" lon="7.3427817"><ele></ele><time>2016-5-22T15:48:33Z</time></trkpt>
<trkpt lat="46.2341883" lon="7.3427800"><ele></ele><time>2016-5-22T15:48:36Z</time></trkpt>
<trkpt lat="46.2341883" lon="7.3427783"><ele></ele><time>2016-5-22T15:48:39Z</time></trkpt>
<trkpt lat="46.2341883" lon="7.3427783"><ele></ele><time>2016-5-22T15:48:42Z</time></trkpt>
<trkpt lat="46.2341883" lon="7.3427767"><ele></ele><time>2016-5-22T15:48:45Z</time></trkpt>
<trkpt lat="46.2341883" lon="7.3427800"><ele></ele><time>2016-5-22T15:48:48Z</time></trkpt>
<trkpt lat="46.2341883" lon="7.3427800"><ele></ele><time>2016-5-22T15:48:51Z</time></trkpt>
<trkpt lat="46.2341883" lon="7.3427783"><ele></ele><time>2016-5-22T15:48:54Z</time></trkpt>
<trkpt lat="46.2341883" lon="7.3427800"><ele></ele><time>2016-5-22T15:48:57Z</time></trkpt>
<trkpt lat="46.2341883" lon="7.3427783"><ele></ele><time>2016-5-22T15:49:0Z</time></trkpt>
<trkpt lat="46.2341883" lon="7.3427767"><ele></ele><time>2016-5-22T15:49:3Z</time></trkpt>
<trkpt lat="46.2341883" lon="7.3427817"><ele></ele><time>2016-5-22T15:49:6Z</time></trkpt>
<trkpt lat="46.2341883" lon="7.3427767"><ele></ele><time>2016-5-22T15:49:9Z</time></trkpt>
<trkpt lat="46.2341883" lon="7.3427783"><ele></ele><time>2016-5-22T15:49:12Z</time></trkpt>
<trkpt lat="46.2341883" lon="7.3427800"><ele></ele><time>2016-5-22T15:49:15Z</time></trkpt>
<trkpt lat="46.2341883" lon="7.3427783"><ele></ele><time>2016-5-22T15:49:18Z</time></trkpt>
<trkpt lat="46.2341883" lon="7.3427767"><ele></ele><time>2016-5-22T15:49:21Z</time></trkpt>
<trkpt lat="46.2341883" lon="7.3427783"><ele></ele><time>2016-5-22T15:49:24Z</time></trkpt>
<trkpt lat="46.2341883" lon="7.3427767"><ele></ele><time>2016-5-22T15:49:27Z</time></trkpt>
<trkpt lat="46.2341883" lon="7.3427767"><ele></ele><time>2016-5-22T15:49:30Z</time></trkpt>
<trkpt lat="46.2341883" lon="7.3427783"><ele></ele><time>2016-5-22T15:49:33Z</time></trkpt>
<trkpt lat="46.2341883" lon="7.3427767"><ele></ele><time>2016-5-22T15:49:36Z</time></trkpt>
<trkpt lat="46.2341883" lon="7.3427783"><ele></ele><time>2016-5-22T15:49:39Z</time></trkpt>
<trkpt lat="46.2341883" lon="7.3427783"><ele></ele><time>2016-5-22T15:49:42Z</time></trkpt>
<trkpt lat="46.2341883" lon="7.3427817"><ele></ele><time>2016-5-22T15:49:45Z</time></trkpt>
<trkpt lat="46.2341883" lon="7.3427783"><ele></ele><time>2016-5-22T15:49:48Z</time></trkpt>
<trkpt lat="46.2341883" lon="7.3427783"><ele></ele><time>2016-5-22T15:49:51Z</time></trkpt>
<trkpt lat="46.2341883" lon="7.3427733"><ele></ele><time>2016-5-22T15:49:54Z</time></trkpt>
<trkpt lat="46.2341883" lon="7.3427783"><ele></ele><time>2016-5-22T15:49:57Z</time></trkpt>
<trkpt lat="46.2341883" lon="7.3427767"><ele></ele><time>2016-5-22T15:50:0Z</time></trkpt>
<trkpt lat="46.2341883" lon="7.3427800"><ele></ele><time>2016-5-22T15:50:3Z</time></trkpt>
<trkpt lat="46.2341883" lon="7.3427817"><ele></ele><time>2016-5-22T15:50:6Z</time></trkpt>
<trkpt lat="46.2341883" lon="7.3427783"><ele></ele><time>2016-5-22T15:50:9Z</time></trkpt>
<trkpt lat="46.2341883" lon="7.3427767"><ele></ele><time>2016-5-22T15:50:12Z</time></trkpt>
<trkpt lat="46.2341883" lon="7.3427767"><ele></ele><time>2016-5-22T15:50:15Z</time></trkpt>
<trkpt lat="46.2341883" lon="7.3427800"><ele></ele><time>2016-5-22T15:50:18Z</time></trkpt>
<trkpt lat="46.2341883" lon="7.3427767"><ele></ele><time>2016-5-22T15:50:21Z</time></trkpt>
<trkpt lat="46.2341883" lon="7.3427800"><ele></ele><time>2016-5-22T15:50:24Z</time></trkpt>
<trkpt lat="46.2341883" lon="7.3427767"><ele></ele><time>2016-5-22T15:50:27Z</time></trkpt>
<trkpt lat="46.2341883" lon="7.3427783"><ele></ele><time>2016-5-22T15:50:30Z</time></trkpt>
<trkpt lat="46.2341883" lon="7.3427783"><ele></ele><time>2016-5-22T15:50:33Z</time></trkpt>
<trkpt lat="46.2341883" lon="7.3427817"><ele></ele><time>2016-5-22T15:50:36Z</time></trkpt>
<trkpt lat="46.2341883" lon="7.3427767"><ele></ele><time>2016-5-22T15:50:39Z</time></trkpt>
<trkpt lat="46.2341867" lon="7.3427650"><ele></ele><time>2016-5-22T15:50:42Z</time></trkpt>
<trkpt lat="46.2341833" lon="7.3427483"><ele></ele><time>2016-5-22T15:50:45Z</time></trkpt>
<trkpt lat="46.2341817" lon="7.3427367"><ele></ele><time>2016-5-22T15:50:48Z</time></trkpt>
<trkpt lat="46.2341800" lon="7.3427300"><ele></ele><time>2016-5-22T15:50:51Z</time></trkpt>
<trkpt lat="46.2341800" lon="7.3427300"><ele></ele><time>2016-5-22T15:50:54Z</time></trkpt>
<trkpt lat="46.2341800" lon="7.3427283"><ele></ele><time>2016-5-22T15:50:57Z</time></trkpt>
<trkpt lat="46.2341800" lon="7.3427283"><ele></ele><time>2016-5-22T15:51:0Z</time></trkpt>
<trkpt lat="46.2341800" lon="7.3427283"><ele></ele><time>2016-5-22T15:51:3Z</time></trkpt>
<trkpt lat="46.2341800" lon="7.3427317"><ele></ele><time>2016-5-22T15:51:6Z</time></trkpt>
<trkpt lat="46.2341800" lon="7.3427283"><ele></ele><time>2016-5-22T15:51:9Z</time></trkpt>
<trkpt lat="46.2341800" lon="7.3427283"><ele></ele><time>2016-5-22T15:51:12Z</time></trkpt>
<trkpt lat="46.2341817" lon="7.3427350"><ele></ele><time>2016-5-22T15:51:15Z</time></trkpt>
<trkpt lat="46.2341800" lon="7.3427283"><ele></ele><time>2016-5-22T15:51:18Z</time></trkpt>
<trkpt lat="46.2341817" lon="7.3427350"><ele></ele><time>2016-5-22T15:51:21Z</time></trkpt>
<trkpt lat="46.2341817" lon="7.3427333"><ele></ele><time>2016-5-22T15:51:24Z</time></trkpt>
<trkpt lat="46.2341800" lon="7.3427300"><ele></ele><time>2016-5-22T15:51:27Z</time></trkpt>
<trkpt lat="46.2341800" lon="7.3427283"><ele></ele><time>2016-5-22T15:51:30Z</time></trkpt>
<trkpt lat="46.2341800" lon="7.3427317"><ele></ele><time>2016-5-22T15:51:33Z</time></trkpt>
<trkpt lat="46.2341800" lon="7.3427300"><ele></ele><time>2016-5-22T15:51:36Z</time></trkpt>
<trkpt lat="46.2341817" lon="7.3427317"><ele></ele><time>2016-5-22T15:51:39Z</time></trkpt>
<trkpt lat="46.2341817" lon="7.3427400"><ele></ele><time>2016-5-22T15:51:42Z</time></trkpt>
<trkpt lat="46.2341817" lon="7.3427383"><ele></ele><time>2016-5-22T15:51:45Z</time></trkpt>
<trkpt lat="46.2341817" lon="7.3427383"><ele></ele><time>2016-5-22T15:51:48Z</time></trkpt>
<trkpt lat="46.2341850" lon="7.3427550"><ele></ele><time>2016-5-22T15:51:51Z</time></trkpt>
<trkpt lat="46.2341833" lon="7.3427500"><ele></ele><time>2016-5-22T15:51:54Z</time></trkpt>
<trkpt lat="46.2341817" lon="7.3427367"><ele></ele><time>2016-5-22T15:51:57Z</time></trkpt>
<trkpt lat="46.2341817" lon="7.3427317"><ele></ele><time>2016-5-22T15:52:0Z</time></trkpt>
<trkpt lat="46.2341800" lon="7.3427283"><ele></ele><time>2016-5-22T15:52:3Z</time></trkpt>
<trkpt lat="46.2341717" lon="7.3426817"><ele></ele><time>2016-5-22T15:52:6Z</time></trkpt>
<trkpt lat="46.2341667" lon="7.3426600"><ele></ele><time>2016-5-22T15:52:9Z</time></trkpt>
<trkpt lat="46.2341633" lon="7.3426450"><ele></ele><time>2016-5-22T15:52:12Z</time></trkpt>
<trkpt lat="46.2341617" lon="7.3426300"><ele></ele><time>2016-5-22T15:52:15Z</time></trkpt>
<trkpt lat="46.2341583" lon="7.3426200"><ele></ele><time>2016-5-22T15:52:18Z</time></trkpt>
<trkpt lat="46.2341600" lon="7.3426217"><ele></ele><time>2016-5-22T15:52:21Z</time></trkpt>
<trkpt lat="46.2341550" lon="7.3425867"><ele></ele><time>2016-5-22T15:52:24Z</time></trkpt>
<trkpt lat="46.2341517" lon="7.3425617"><ele></ele><time>2016-5-22T15:52:27Z</time></trkpt>
<trkpt lat="46.2341483" lon="7.3425433"><ele></ele><time>2016-5-22T15:52:30Z</time></trkpt>
<trkpt lat="46.2341467" lon="7.3425217"><ele></ele><time>2016-5-22T15:52:33Z</time></trkpt>
<trkpt lat="46.2341450" lon="7.3425083"><ele></ele><time>2016-5-22T15:52:36Z</time></trkpt>
<trkpt lat="46.2341417" lon="7.3424917"><ele></ele><time>2016-5-22T15:52:39Z</time></trkpt>
<trkpt lat="46.2341400" lon="7.3424733"><ele></ele><time>2016-5-22T15:52:42Z</time></trkpt>
<trkpt lat="46.2341400" lon="7.3424733"><ele></ele><time>2016-5-22T15:52:45Z</time></trkpt>
<trkpt lat="46.2341400" lon="7.3424683"><ele></ele><time>2016-5-22T15:52:48Z</time></trkpt>
<trkpt lat="46.2341383" lon="7.3424583"><ele></ele><time>2016-5-22T15:52:51Z</time></trkpt>
<trkpt lat="46.2341383" lon="7.3424550"><ele></ele><time>2016-5-22T15:52:54Z</time></trkpt>
<trkpt lat="46.2341383" lon="7.3424567"><ele></ele><time>2016-5-22T15:52:57Z</time></trkpt>
<trkpt lat="46.2341367" lon="7.3424533"><ele></ele><time>2016-5-22T15:53:0Z</time></trkpt>
<trkpt lat="46.2341367" lon="7.3424533"><ele></ele><time>2016-5-22T15:53:3Z</time></trkpt>
<trkpt lat="46.2341367" lon="7.3424467"><ele></ele><time>2016-5-22T15:53:6Z</time></trkpt>
<trkpt lat="46.2341367" lon="7.3424500"><ele></ele><time>2016-5-22T15:53:9Z</time></trkpt>
<trkpt lat="46.2341367" lon="7.3424517"><ele></ele><time>2016-5-22T15:53:12Z</time></trkpt>
<trkpt lat="46.2341367" lon="7.3424483"><ele></ele><time>2016-5-22T15:53:15Z</time></trkpt>
<trkpt lat="46.2341367" lon="7.3424483"><ele></ele><time>2016-5-22T15:53:18Z</time></trkpt>
<trkpt lat="46.2341367" lon="7.3424550"><ele></ele><time>2016-5-22T15:53:21Z</time></trkpt>
<trkpt lat="46.2341367" lon="7.3424517"><ele></ele><time>2016-5-22T15:53:24Z</time></trkpt>
<trkpt lat="46.2341367" lon="7.3424500"><ele></ele><time>2016-5-22T15:53:27Z</time></trkpt>
<trkpt lat="46.2341367" lon="7.3424500"><ele></ele><time>2016-5-22T15:53:30Z</time></trkpt>
<trkpt lat="46.2341367" lon="7.3424500"><ele></ele><time>2016-5-22T15:53:33Z</time></trkpt>
<trkpt lat="46.2341367" lon="7.3424500"><ele></ele><time>2016-5-22T15:53:36Z</time></trkpt>
<trkpt lat="46.2341367" lon="7.3424517"><ele></ele><time>2016-5-22T15:53:39Z</time></trkpt>
<trkpt lat="46.2341367" lon="7.3424483"><ele></ele><time>2016-5-22T15:53:42Z</time></trkpt>
<trkpt lat="46.2341367" lon="7.3424483"><ele></ele><time>2016-5-22T15:53:45Z</time></trkpt>
<trkpt lat="46.2341367" lon="7.3424500"><ele></ele><time>2016-5-22T15:53:48Z</time></trkpt>
<trkpt lat="46.2341367" lon="7.3424500"><ele></ele><time>2016-5-22T15:53:51Z</time></trkpt>
<trkpt lat="46.2341367" lon="7.3424517"><ele></ele><time>2016-5-22T15:53:54Z</time></trkpt>
<trkpt lat="46.2341367" lon="7.3424517"><ele></ele><time>2016-5-22T15:53:57Z</time></trkpt>
<trkpt lat="46.2341383" lon="7.3424550"><ele></ele><time>2016-5-22T15:54:0Z</time></trkpt>
<trkpt lat="46.2341367" lon="7.3424500"><ele></ele><time>2016-5-22T15:54:3Z</time></trkpt>
<trkpt lat="46.2341367" lon="7.3424500"><ele></ele><time>2016-5-22T15:54:6Z</time></trkpt>
<trkpt lat="46.2341367" lon="7.3424550"><ele></ele><time>2016-5-22T15:54:9Z</time></trkpt>
<trkpt lat="46.2341367" lon="7.3424467"><ele></ele><time>2016-5-22T15:54:12Z</time></trkpt>
<trkpt lat="46.2341367" lon="7.3424500"><ele></ele><time>2016-5-22T15:54:15Z</time></trkpt>
<trkpt lat="46.2341367" lon="7.3424483"><ele></ele><time>2016-5-22T15:54:18Z</time></trkpt>
<trkpt lat="46.2341367" lon="7.3424483"><ele></ele><time>2016-5-22T15:54:21Z</time></trkpt>
<trkpt lat="46.2341367" lon="7.3424500"><ele></ele><time>2016-5-22T15:54:24Z</time></trkpt>
<trkpt lat="46.2341367" lon="7.3424500"><ele></ele><time>2016-5-22T15:54:27Z</time></trkpt>
<trkpt lat="46.2341367" lon="7.3424517"><ele></ele><time>2016-5-22T15:54:30Z</time></trkpt>
<trkpt lat="46.2341367" lon="7.3424467"><ele></ele><time>2016-5-22T15:54:33Z</time></trkpt>
<trkpt lat="46.2341367" lon="7.3424500"><ele></ele><time>2016-5-22T15:54:36Z</time></trkpt>
<trkpt lat="46.2341350" lon="7.3424367"><ele></ele><time>2016-5-22T15:54:39Z</time></trkpt>
<trkpt lat="46.2341333" lon="7.3424183"><ele></ele><time>2016-5-22T15:54:42Z</time></trkpt>
<trkpt lat="46.2341300" lon="7.3424033"><ele></ele><time>2016-5-22T15:54:45Z</time></trkpt>
<trkpt lat="46.2341283" lon="7.3423900"><ele></ele><time>2016-5-22T15:54:48Z</time></trkpt>
<trkpt lat="46.2341267" lon="7.3423717"><ele></ele><time>2016-5-22T15:54:51Z</time></trkpt>
<trkpt lat="46.2341250" lon="7.3423550"><ele></ele><time>2016-5-22T15:54:54Z</time></trkpt>
<trkpt lat="46.2341217" lon="7.3423400"><ele></ele><time>2016-5-22T15:54:57Z</time></trkpt>
<trkpt lat="46.2341233" lon="7.3423400"><ele></ele><time>2016-5-22T15:55:0Z</time></trkpt>
<trkpt lat="46.2341217" lon="7.3423350"><ele></ele><time>2016-5-22T15:55:3Z</time></trkpt>
<trkpt lat="46.2341217" lon="7.3423367"><ele></ele><time>2016-5-22T15:55:6Z</time></trkpt>
<trkpt lat="46.2341217" lon="7.3423367"><ele></ele><time>2016-5-22T15:55:9Z</time></trkpt>
<trkpt lat="46.2341217" lon="7.3423350"><ele></ele><time>2016-5-22T15:55:12Z</time></trkpt>
<trkpt lat="46.2341233" lon="7.3422317"><ele></ele><time>2016-5-22T15:55:15Z</time></trkpt>
<trkpt lat="46.2341267" lon="7.3422183"><ele></ele><time>2016-5-22T15:55:18Z</time></trkpt>
<trkpt lat="46.2341300" lon="7.3422050"><ele></ele><time>2016-5-22T15:55:21Z</time></trkpt>
<trkpt lat="46.2341317" lon="7.3421917"><ele></ele><time>2016-5-22T15:55:24Z</time></trkpt>
<trkpt lat="46.2341350" lon="7.3421767"><ele></ele><time>2016-5-22T15:55:27Z</time></trkpt>
<trkpt lat="46.2341383" lon="7.3421533"><ele></ele><time>2016-5-22T15:55:30Z</time></trkpt>
<trkpt lat="46.2341400" lon="7.3421250"><ele></ele><time>2016-5-22T15:55:33Z</time></trkpt>
<trkpt lat="46.2341400" lon="7.3420833"><ele></ele><time>2016-5-22T15:55:36Z</time></trkpt>
<trkpt lat="46.2341400" lon="7.3420350"><ele></ele><time>2016-5-22T15:55:39Z</time></trkpt>
<trkpt lat="46.2341383" lon="7.3419967"><ele></ele><time>2016-5-22T15:55:42Z</time></trkpt>
<trkpt lat="46.2341417" lon="7.3419417"><ele></ele><time>2016-5-22T15:55:45Z</time></trkpt>
<trkpt lat="46.2341567" lon="7.3418917"><ele></ele><time>2016-5-22T15:55:48Z</time></trkpt>
<trkpt lat="46.2341633" lon="7.3418817"><ele></ele><time>2016-5-22T15:55:51Z</time></trkpt>
<trkpt lat="46.2341350" lon="7.3418283"><ele></ele><time>2016-5-22T15:55:54Z</time></trkpt>
<trkpt lat="46.2341350" lon="7.3418250"><ele></ele><time>2016-5-22T15:55:57Z</time></trkpt>
<trkpt lat="46.2341067" lon="7.3417717"><ele></ele><time>2016-5-22T15:56:0Z</time></trkpt>
<trkpt lat="46.2340883" lon="7.3417383"><ele></ele><time>2016-5-22T15:56:3Z</time></trkpt>
<trkpt lat="46.2341367" lon="7.3418300"><ele></ele><time>2016-5-22T15:56:6Z</time></trkpt>
<trkpt lat="46.2340533" lon="7.3416717"><ele></ele><time>2016-5-22T15:56:9Z</time></trkpt>
<trkpt lat="46.2340367" lon="7.3416383"><ele></ele><time>2016-5-22T15:56:12Z</time></trkpt>
<trkpt lat="46.2340217" lon="7.3416117"><ele></ele><time>2016-5-22T15:56:15Z</time></trkpt>
<trkpt lat="46.2340083" lon="7.3415850"><ele></ele><time>2016-5-22T15:56:18Z</time></trkpt>
<trkpt lat="46.2339917" lon="7.3415533"><ele></ele><time>2016-5-22T15:56:21Z</time></trkpt>
<trkpt lat="46.2339717" lon="7.3415150"><ele></ele><time>2016-5-22T15:56:24Z</time></trkpt>
<trkpt lat="46.2339533" lon="7.3414800"><ele></ele><time>2016-5-22T15:56:27Z</time></trkpt>
<trkpt lat="46.2339367" lon="7.3414483"><ele></ele><time>2016-5-22T15:56:30Z</time></trkpt>
<trkpt lat="46.2339200" lon="7.3414133"><ele></ele><time>2016-5-22T15:56:33Z</time></trkpt>
<trkpt lat="46.2339017" lon="7.3413750"><ele></ele><time>2016-5-22T15:56:36Z</time></trkpt>
<trkpt lat="46.2338833" lon="7.3413400"><ele></ele><time>2016-5-22T15:56:39Z</time></trkpt>
<trkpt lat="46.2338650" lon="7.3413033"><ele></ele><time>2016-5-22T15:56:42Z</time></trkpt>
<trkpt lat="46.2338467" lon="7.3412667"><ele></ele><time>2016-5-22T15:56:45Z</time></trkpt>
<trkpt lat="46.2338300" lon="7.3412367"><ele></ele><time>2016-5-22T15:56:48Z</time></trkpt>
<trkpt lat="46.2338117" lon="7.3412017"><ele></ele><time>2016-5-22T15:56:51Z</time></trkpt>
<trkpt lat="46.2337967" lon="7.3411733"><ele></ele><time>2016-5-22T15:56:54Z</time></trkpt>
<trkpt lat="46.2337833" lon="7.3411450"><ele></ele><time>2016-5-22T15:56:57Z</time></trkpt>
<trkpt lat="46.2337667" lon="7.3411150"><ele></ele><time>2016-5-22T15:57:0Z</time></trkpt>
<trkpt lat="46.2337550" lon="7.3410933"><ele></ele><time>2016-5-22T15:57:3Z</time></trkpt>
<trkpt lat="46.2337650" lon="7.3411117"><ele></ele><time>2016-5-22T15:57:6Z</time></trkpt>
<trkpt lat="46.2337667" lon="7.3411150"><ele></ele><time>2016-5-22T15:57:9Z</time></trkpt>
<trkpt lat="46.2337033" lon="7.3409983"><ele></ele><time>2016-5-22T15:57:12Z</time></trkpt>
<trkpt lat="46.2336883" lon="7.3409717"><ele></ele><time>2016-5-22T15:57:15Z</time></trkpt>
<trkpt lat="46.2336217" lon="7.3408800"><ele></ele><time>2016-5-22T15:57:18Z</time></trkpt>
<trkpt lat="46.2336517" lon="7.3409183"><ele></ele><time>2016-5-22T15:57:21Z</time></trkpt>
<trkpt lat="46.2336267" lon="7.3408867"><ele></ele><time>2016-5-22T15:57:24Z</time></trkpt>
<trkpt lat="46.2336050" lon="7.3408633"><ele></ele><time>2016-5-22T15:57:27Z</time></trkpt>
<trkpt lat="46.2335750" lon="7.3408383"><ele></ele><time>2016-5-22T15:57:30Z</time></trkpt>
<trkpt lat="46.2335450" lon="7.3408183"><ele></ele><time>2016-5-22T15:57:33Z</time></trkpt>
<trkpt lat="46.2335067" lon="7.3408033"><ele></ele><time>2016-5-22T15:57:36Z</time></trkpt>
<trkpt lat="46.2335317" lon="7.3408117"><ele></ele><time>2016-5-22T15:57:39Z</time></trkpt>
<trkpt lat="46.2335567" lon="7.3408250"><ele></ele><time>2016-5-22T15:57:42Z</time></trkpt>
<trkpt lat="46.2335900" lon="7.3408500"><ele></ele><time>2016-5-22T15:57:45Z</time></trkpt>
<trkpt lat="46.2333500" lon="7.3407283"><ele></ele><time>2016-5-22T15:57:48Z</time></trkpt>
<trkpt lat="46.2333400" lon="7.3406117"><ele></ele><time>2016-5-22T15:57:51Z</time></trkpt>
<trkpt lat="46.2333433" lon="7.3406617"><ele></ele><time>2016-5-22T15:57:54Z</time></trkpt>
<trkpt lat="46.2333450" lon="7.3406733"><ele></ele><time>2016-5-22T15:57:57Z</time></trkpt>
<trkpt lat="46.2333417" lon="7.3406350"><ele></ele><time>2016-5-22T15:58:0Z</time></trkpt>
<trkpt lat="46.2333383" lon="7.3405817"><ele></ele><time>2016-5-22T15:58:3Z</time></trkpt>
<trkpt lat="46.2333383" lon="7.3405400"><ele></ele><time>2016-5-22T15:58:6Z</time></trkpt>
<trkpt lat="46.2333350" lon="7.3404800"><ele></ele><time>2016-5-22T15:58:9Z</time></trkpt>
<trkpt lat="46.2333350" lon="7.3404383"><ele></ele><time>2016-5-22T15:58:12Z</time></trkpt>
<trkpt lat="46.2333400" lon="7.3404033"><ele></ele><time>2016-5-22T15:58:15Z</time></trkpt>
<trkpt lat="46.2333417" lon="7.3403717"><ele></ele><time>2016-5-22T15:58:18Z</time></trkpt>
<trkpt lat="46.2333433" lon="7.3403333"><ele></ele><time>2016-5-22T15:58:21Z</time></trkpt>
<trkpt lat="46.2334083" lon="7.3402317"><ele></ele><time>2016-5-22T15:58:24Z</time></trkpt>
<trkpt lat="46.2334350" lon="7.3402150"><ele></ele><time>2016-5-22T15:58:27Z</time></trkpt>
<trkpt lat="46.2334450" lon="7.3402083"><ele></ele><time>2016-5-22T15:58:30Z</time></trkpt>
<trkpt lat="46.2334633" lon="7.3402000"><ele></ele><time>2016-5-22T15:58:33Z</time></trkpt>
<trkpt lat="46.2334800" lon="7.3401917"><ele></ele><time>2016-5-22T15:58:36Z</time></trkpt>
<trkpt lat="46.2334333" lon="7.3402150"><ele></ele><time>2016-5-22T15:58:39Z</time></trkpt>
<trkpt lat="46.2335333" lon="7.3401650"><ele></ele><time>2016-5-22T15:58:42Z</time></trkpt>
<trkpt lat="46.2335583" lon="7.3401550"><ele></ele><time>2016-5-22T15:58:45Z</time></trkpt>
<trkpt lat="46.2335567" lon="7.3401550"><ele></ele><time>2016-5-22T15:58:48Z</time></trkpt>
<trkpt lat="46.2335983" lon="7.3401433"><ele></ele><time>2016-5-22T15:58:51Z</time></trkpt>
<trkpt lat="46.2336183" lon="7.3401400"><ele></ele><time>2016-5-22T15:58:54Z</time></trkpt>
<trkpt lat="46.2336517" lon="7.3401350"><ele></ele><time>2016-5-22T15:58:57Z</time></trkpt>
<trkpt lat="46.2336650" lon="7.3401333"><ele></ele><time>2016-5-22T15:59:0Z</time></trkpt>
<trkpt lat="46.2336683" lon="7.3401333"><ele></ele><time>2016-5-22T15:59:3Z</time></trkpt>
<trkpt lat="46.2336667" lon="7.3401333"><ele></ele><time>2016-5-22T15:59:6Z</time></trkpt>
<trkpt lat="46.2336683" lon="7.3401333"><ele></ele><time>2016-5-22T15:59:9Z</time></trkpt>
<trkpt lat="46.2337067" lon="7.3400150"><ele></ele><time>2016-5-22T15:59:12Z</time></trkpt>
<trkpt lat="46.2337017" lon="7.3399800"><ele></ele><time>2016-5-22T15:59:15Z</time></trkpt>
<trkpt lat="46.2336983" lon="7.3399483"><ele></ele><time>2016-5-22T15:59:18Z</time></trkpt>
<trkpt lat="46.2336967" lon="7.3399217"><ele></ele><time>2016-5-22T15:59:21Z</time></trkpt>
<trkpt lat="46.2337000" lon="7.3398867"><ele></ele><time>2016-5-22T15:59:24Z</time></trkpt>
<trkpt lat="46.2337000" lon="7.3398450"><ele></ele><time>2016-5-22T15:59:27Z</time></trkpt>
<trkpt lat="46.2337000" lon="7.3398033"><ele></ele><time>2016-5-22T15:59:30Z</time></trkpt>
<trkpt lat="46.2336967" lon="7.3397567"><ele></ele><time>2016-5-22T15:59:33Z</time></trkpt>
<trkpt lat="46.2336967" lon="7.3397167"><ele></ele><time>2016-5-22T15:59:36Z</time></trkpt>
<trkpt lat="46.2337050" lon="7.3396767"><ele></ele><time>2016-5-22T15:59:39Z</time></trkpt>
<trkpt lat="46.2337517" lon="7.3397117"><ele></ele><time>2016-5-22T15:59:42Z</time></trkpt>
<trkpt lat="46.2337667" lon="7.3396433"><ele></ele><time>2016-5-22T15:59:45Z</time></trkpt>
<trkpt lat="46.2337917" lon="7.3395317"><ele></ele><time>2016-5-22T15:59:48Z</time></trkpt>
<trkpt lat="46.2338033" lon="7.3394733"><ele></ele><time>2016-5-22T15:59:51Z</time></trkpt>
<trkpt lat="46.2338117" lon="7.3394267"><ele></ele><time>2016-5-22T15:59:54Z</time></trkpt>
<trkpt lat="46.2338233" lon="7.3393667"><ele></ele><time>2016-5-22T15:59:57Z</time></trkpt>
<trkpt lat="46.2338317" lon="7.3393117"><ele></ele><time>2016-5-22T16:0:0Z</time></trkpt>
<trkpt lat="46.2338417" lon="7.3392533"><ele></ele><time>2016-5-22T16:0:3Z</time></trkpt>
<trkpt lat="46.2338500" lon="7.3392067"><ele></ele><time>2016-5-22T16:0:6Z</time></trkpt>
<trkpt lat="46.2338533" lon="7.3391667"><ele></ele><time>2016-5-22T16:0:9Z</time></trkpt>
<trkpt lat="46.2338583" lon="7.3391267"><ele></ele><time>2016-5-22T16:0:12Z</time></trkpt>
<trkpt lat="46.2338650" lon="7.3390700"><ele></ele><time>2016-5-22T16:0:15Z</time></trkpt>
<trkpt lat="46.2338700" lon="7.3390217"><ele></ele><time>2016-5-22T16:0:18Z</time></trkpt>
<trkpt lat="46.2338750" lon="7.3389750"><ele></ele><time>2016-5-22T16:0:21Z</time></trkpt>
<trkpt lat="46.2338783" lon="7.3389217"><ele></ele><time>2016-5-22T16:0:24Z</time></trkpt>
<trkpt lat="46.2338817" lon="7.3388650"><ele></ele><time>2016-5-22T16:0:27Z</time></trkpt>
<trkpt lat="46.2338833" lon="7.3388100"><ele></ele><time>2016-5-22T16:0:30Z</time></trkpt>
<trkpt lat="46.2338850" lon="7.3387683"><ele></ele><time>2016-5-22T16:0:33Z</time></trkpt>
<trkpt lat="46.2338833" lon="7.3387317"><ele></ele><time>2016-5-22T16:0:36Z</time></trkpt>
<trkpt lat="46.2338833" lon="7.3386883"><ele></ele><time>2016-5-22T16:0:39Z</time></trkpt>
<trkpt lat="46.2338800" lon="7.3386367"><ele></ele><time>2016-5-22T16:0:42Z</time></trkpt>
<trkpt lat="46.2338750" lon="7.3385833"><ele></ele><time>2016-5-22T16:0:45Z</time></trkpt>
<trkpt lat="46.2338717" lon="7.3385350"><ele></ele><time>2016-5-22T16:0:48Z</time></trkpt>
<trkpt lat="46.2338683" lon="7.3384883"><ele></ele><time>2016-5-22T16:0:51Z</time></trkpt>
<trkpt lat="46.2338633" lon="7.3384417"><ele></ele><time>2016-5-22T16:0:54Z</time></trkpt>
<trkpt lat="46.2338600" lon="7.3384083"><ele></ele><time>2016-5-22T16:0:57Z</time></trkpt>
<trkpt lat="46.2338567" lon="7.3383567"><ele></ele><time>2016-5-22T16:1:0Z</time></trkpt>
<trkpt lat="46.2338533" lon="7.3383200"><ele></ele><time>2016-5-22T16:1:3Z</time></trkpt>
<trkpt lat="46.2338500" lon="7.3382883"><ele></ele><time>2016-5-22T16:1:6Z</time></trkpt>
<trkpt lat="46.2338467" lon="7.3382450"><ele></ele><time>2016-5-22T16:1:9Z</time></trkpt>
<trkpt lat="46.2338417" lon="7.3382050"><ele></ele><time>2016-5-22T16:1:12Z</time></trkpt>
<trkpt lat="46.2338333" lon="7.3381600"><ele></ele><time>2016-5-22T16:1:15Z</time></trkpt>
<trkpt lat="46.2338250" lon="7.3381183"><ele></ele><time>2016-5-22T16:1:18Z</time></trkpt>
<trkpt lat="46.2338183" lon="7.3380800"><ele></ele><time>2016-5-22T16:1:21Z</time></trkpt>
<trkpt lat="46.2338100" lon="7.3380417"><ele></ele><time>2016-5-22T16:1:24Z</time></trkpt>
<trkpt lat="46.2338017" lon="7.3379967"><ele></ele><time>2016-5-22T16:1:27Z</time></trkpt>
<trkpt lat="46.2337917" lon="7.3379450"><ele></ele><time>2016-5-22T16:1:30Z</time></trkpt>
<trkpt lat="46.2337800" lon="7.3378883"><ele></ele><time>2016-5-22T16:1:33Z</time></trkpt>
<trkpt lat="46.2337717" lon="7.3378383"><ele></ele><time>2016-5-22T16:1:36Z</time></trkpt>
<trkpt lat="46.2337600" lon="7.3377850"><ele></ele><time>2016-5-22T16:1:39Z</time></trkpt>
<trkpt lat="46.2337517" lon="7.3377367"><ele></ele><time>2016-5-22T16:1:42Z</time></trkpt>
<trkpt lat="46.2337417" lon="7.3376833"><ele></ele><time>2016-5-22T16:1:45Z</time></trkpt>
<trkpt lat="46.2337300" lon="7.3376183"><ele></ele><time>2016-5-22T16:1:48Z</time></trkpt>
<trkpt lat="46.2337217" lon="7.3375650"><ele></ele><time>2016-5-22T16:1:51Z</time></trkpt>
<trkpt lat="46.2337117" lon="7.3375150"><ele></ele><time>2016-5-22T16:1:54Z</time></trkpt>
<trkpt lat="46.2337033" lon="7.3374617"><ele></ele><time>2016-5-22T16:1:57Z</time></trkpt>
<trkpt lat="46.2336967" lon="7.3374100"><ele></ele><time>2016-5-22T16:2:0Z</time></trkpt>
<trkpt lat="46.2336883" lon="7.3373533"><ele></ele><time>2016-5-22T16:2:3Z</time></trkpt>
<trkpt lat="46.2336817" lon="7.3373017"><ele></ele><time>2016-5-22T16:2:6Z</time></trkpt>
<trkpt lat="46.2336733" lon="7.3372500"><ele></ele><time>2016-5-22T16:2:9Z</time></trkpt>
<trkpt lat="46.2336667" lon="7.3371950"><ele></ele><time>2016-5-22T16:2:12Z</time></trkpt>
<trkpt lat="46.2336600" lon="7.3371467"><ele></ele><time>2016-5-22T16:2:15Z</time></trkpt>
<trkpt lat="46.2336533" lon="7.3370967"><ele></ele><time>2016-5-22T16:2:18Z</time></trkpt>
<trkpt lat="46.2336483" lon="7.3370500"><ele></ele><time>2016-5-22T16:2:21Z</time></trkpt>
<trkpt lat="46.2336433" lon="7.3370067"><ele></ele><time>2016-5-22T16:2:24Z</time></trkpt>
<trkpt lat="46.2336383" lon="7.3369650"><ele></ele><time>2016-5-22T16:2:27Z</time></trkpt>
<trkpt lat="46.2336317" lon="7.3369250"><ele></ele><time>2016-5-22T16:2:30Z</time></trkpt>
<trkpt lat="46.2336283" lon="7.3368917"><ele></ele><time>2016-5-22T16:2:33Z</time></trkpt>
<trkpt lat="46.2336233" lon="7.3368483"><ele></ele><time>2016-5-22T16:2:36Z</time></trkpt>
<trkpt lat="46.2336183" lon="7.3368050"><ele></ele><time>2016-5-22T16:2:39Z</time></trkpt>
<trkpt lat="46.2336133" lon="7.3367683"><ele></ele><time>2016-5-22T16:2:42Z</time></trkpt>
<trkpt lat="46.2336100" lon="7.3367383"><ele></ele><time>2016-5-22T16:2:45Z</time></trkpt>
<trkpt lat="46.2336067" lon="7.3367100"><ele></ele><time>2016-5-22T16:2:48Z</time></trkpt>
<trkpt lat="46.2336033" lon="7.3366817"><ele></ele><time>2016-5-22T16:2:51Z</time></trkpt>
<trkpt lat="46.2336000" lon="7.3366517"><ele></ele><time>2016-5-22T16:2:54Z</time></trkpt>
<trkpt lat="46.2335950" lon="7.3366150"><ele></ele><time>2016-5-22T16:2:57Z</time></trkpt>
<trkpt lat="46.2335900" lon="7.3365717"><ele></ele><time>2016-5-22T16:3:0Z</time></trkpt>
<trkpt lat="46.2335867" lon="7.3365350"><ele></ele><time>2016-5-22T16:3:3Z</time></trkpt>
<trkpt lat="46.2335833" lon="7.3365050"><ele></ele><time>2016-5-22T16:3:6Z</time></trkpt>
<trkpt lat="46.2335817" lon="7.3364883"><ele></ele><time>2016-5-22T16:3:9Z</time></trkpt>
<trkpt lat="46.2335800" lon="7.3364767"><ele></ele><time>2016-5-22T16:3:12Z</time></trkpt>
<trkpt lat="46.2335783" lon="7.3364650"><ele></ele><time>2016-5-22T16:3:15Z</time></trkpt>
<trkpt lat="46.2335767" lon="7.3364533"><ele></ele><time>2016-5-22T16:3:18Z</time></trkpt>
<trkpt lat="46.2335750" lon="7.3364367"><ele></ele><time>2016-5-22T16:3:21Z</time></trkpt>
<trkpt lat="46.2335733" lon="7.3364183"><ele></ele><time>2016-5-22T16:3:24Z</time></trkpt>
<trkpt lat="46.2335717" lon="7.3364000"><ele></ele><time>2016-5-22T16:3:27Z</time></trkpt>
<trkpt lat="46.2335700" lon="7.3363850"><ele></ele><time>2016-5-22T16:3:30Z</time></trkpt>
<trkpt lat="46.2335683" lon="7.3363700"><ele></ele><time>2016-5-22T16:3:33Z</time></trkpt>
<trkpt lat="46.2335650" lon="7.3363533"><ele></ele><time>2016-5-22T16:3:36Z</time></trkpt>
<trkpt lat="46.2335633" lon="7.3363333"><ele></ele><time>2016-5-22T16:3:39Z</time></trkpt>
<trkpt lat="46.2335617" lon="7.3363167"><ele></ele><time>2016-5-22T16:3:42Z</time></trkpt>
<trkpt lat="46.2335600" lon="7.3362983"><ele></ele><time>2016-5-22T16:3:45Z</time></trkpt>
<trkpt lat="46.2335567" lon="7.3362783"><ele></ele><time>2016-5-22T16:3:48Z</time></trkpt>
<trkpt lat="46.2335533" lon="7.3362450"><ele></ele><time>2016-5-22T16:3:51Z</time></trkpt>
<trkpt lat="46.2335500" lon="7.3362150"><ele></ele><time>2016-5-22T16:3:54Z</time></trkpt>
<trkpt lat="46.2335467" lon="7.3361900"><ele></ele><time>2016-5-22T16:3:57Z</time></trkpt>
<trkpt lat="46.2335433" lon="7.3361567"><ele></ele><time>2016-5-22T16:4:0Z</time></trkpt>
<trkpt lat="46.2335400" lon="7.3361250"><ele></ele><time>2016-5-22T16:4:3Z</time></trkpt>
<trkpt lat="46.2335367" lon="7.3360900"><ele></ele><time>2016-5-22T16:4:6Z</time></trkpt>
<trkpt lat="46.2335350" lon="7.3360867"><ele></ele><time>2016-5-22T16:4:9Z</time></trkpt>
<trkpt lat="46.2335250" lon="7.3360167"><ele></ele><time>2016-5-22T16:4:12Z</time></trkpt>
<trkpt lat="46.2335167" lon="7.3359633"><ele></ele><time>2016-5-22T16:4:15Z</time></trkpt>
<trkpt lat="46.2335067" lon="7.3359083"><ele></ele><time>2016-5-22T16:4:18Z</time></trkpt>
<trkpt lat="46.2334983" lon="7.3358617"><ele></ele><time>2016-5-22T16:4:21Z</time></trkpt>
<trkpt lat="46.2334883" lon="7.3358017"><ele></ele><time>2016-5-22T16:4:24Z</time></trkpt>
<trkpt lat="46.2334783" lon="7.3357467"><ele></ele><time>2016-5-22T16:4:27Z</time></trkpt>
<trkpt lat="46.2334683" lon="7.3356917"><ele></ele><time>2016-5-22T16:4:30Z</time></trkpt>
<trkpt lat="46.2334583" lon="7.3356350"><ele></ele><time>2016-5-22T16:4:33Z</time></trkpt>
<trkpt lat="46.2334450" lon="7.3355833"><ele></ele><time>2016-5-22T16:4:36Z</time></trkpt>
<trkpt lat="46.2334250" lon="7.3355233"><ele></ele><time>2016-5-22T16:4:39Z</time></trkpt>
<trkpt lat="46.2334133" lon="7.3354900"><ele></ele><time>2016-5-22T16:4:42Z</time></trkpt>
<trkpt lat="46.2333933" lon="7.3354500"><ele></ele><time>2016-5-22T16:4:45Z</time></trkpt>
<trkpt lat="46.2333783" lon="7.3354167"><ele></ele><time>2016-5-22T16:4:48Z</time></trkpt>
<trkpt lat="46.2333633" lon="7.3353850"><ele></ele><time>2016-5-22T16:4:51Z</time></trkpt>
<trkpt lat="46.2333467" lon="7.3353550"><ele></ele><time>2016-5-22T16:4:54Z</time></trkpt>
<trkpt lat="46.2333350" lon="7.3353350"><ele></ele><time>2016-5-22T16:4:57Z</time></trkpt>
<trkpt lat="46.2333167" lon="7.3353050"><ele></ele><time>2016-5-22T16:5:0Z</time></trkpt>
<trkpt lat="46.2333033" lon="7.3352833"><ele></ele><time>2016-5-22T16:5:3Z</time></trkpt>
<trkpt lat="46.2332883" lon="7.3352567"><ele></ele><time>2016-5-22T16:5:6Z</time></trkpt>
<trkpt lat="46.2332733" lon="7.3352333"><ele></ele><time>2016-5-22T16:5:9Z</time></trkpt>
<trkpt lat="46.2332600" lon="7.3352150"><ele></ele><time>2016-5-22T16:5:12Z</time></trkpt>
<trkpt lat="46.2332517" lon="7.3352033"><ele></ele><time>2016-5-22T16:5:15Z</time></trkpt>
<trkpt lat="46.2332400" lon="7.3351867"><ele></ele><time>2016-5-22T16:5:18Z</time></trkpt>
<trkpt lat="46.2332233" lon="7.3351650"><ele></ele><time>2016-5-22T16:5:21Z</time></trkpt>
<trkpt lat="46.2332067" lon="7.3351417"><ele></ele><time>2016-5-22T16:5:24Z</time></trkpt>
<trkpt lat="46.2331883" lon="7.3351167"><ele></ele><time>2016-5-22T16:5:27Z</time></trkpt>
<trkpt lat="46.2331683" lon="7.3350917"><ele></ele><time>2016-5-22T16:5:30Z</time></trkpt>
<trkpt lat="46.2331467" lon="7.3350633"><ele></ele><time>2016-5-22T16:5:33Z</time></trkpt>
<trkpt lat="46.2331267" lon="7.3350367"><ele></ele><time>2016-5-22T16:5:36Z</time></trkpt>
<trkpt lat="46.2331033" lon="7.3350033"><ele></ele><time>2016-5-22T16:5:39Z</time></trkpt>
<trkpt lat="46.2330800" lon="7.3349667"><ele></ele><time>2016-5-22T16:5:42Z</time></trkpt>
<trkpt lat="46.2330550" lon="7.3349267"><ele></ele><time>2016-5-22T16:5:45Z</time></trkpt>
<trkpt lat="46.2330283" lon="7.3348833"><ele></ele><time>2016-5-22T16:5:48Z</time></trkpt>
<trkpt lat="46.2330017" lon="7.3348400"><ele></ele><time>2016-5-22T16:5:51Z</time></trkpt>
<trkpt lat="46.2329767" lon="7.3347983"><ele></ele><time>2016-5-22T16:5:54Z</time></trkpt>
<trkpt lat="46.2329267" lon="7.3347167"><ele></ele><time>2016-5-22T16:5:57Z</time></trkpt>
<trkpt lat="46.2328933" lon="7.3346650"><ele></ele><time>2016-5-22T16:6:0Z</time></trkpt>
<trkpt lat="46.2328667" lon="7.3346200"><ele></ele><time>2016-5-22T16:6:3Z</time></trkpt>
<trkpt lat="46.2328367" lon="7.3345700"><ele></ele><time>2016-5-22T16:6:6Z</time></trkpt>
<trkpt lat="46.2328033" lon="7.3345167"><ele></ele><time>2016-5-22T16:6:9Z</time></trkpt>
<trkpt lat="46.2327717" lon="7.3344667"><ele></ele><time>2016-5-22T16:6:12Z</time></trkpt>
<trkpt lat="46.2327367" lon="7.3344100"><ele></ele><time>2016-5-22T16:6:15Z</time></trkpt>
<trkpt lat="46.2327050" lon="7.3343617"><ele></ele><time>2016-5-22T16:6:18Z</time></trkpt>
<trkpt lat="46.2326783" lon="7.3343283"><ele></ele><time>2016-5-22T16:6:21Z</time></trkpt>
<trkpt lat="46.2326267" lon="7.3342650"><ele></ele><time>2016-5-22T16:6:24Z</time></trkpt>
<trkpt lat="46.2325933" lon="7.3342350"><ele></ele><time>2016-5-22T16:6:27Z</time></trkpt>
<trkpt lat="46.2325533" lon="7.3342083"><ele></ele><time>2016-5-22T16:6:30Z</time></trkpt>
<trkpt lat="46.2325133" lon="7.3341867"><ele></ele><time>2016-5-22T16:6:33Z</time></trkpt>
<trkpt lat="46.2324667" lon="7.3341717"><ele></ele><time>2016-5-22T16:6:36Z</time></trkpt>
<trkpt lat="46.2324233" lon="7.3341650"><ele></ele><time>2016-5-22T16:6:39Z</time></trkpt>
<trkpt lat="46.2324000" lon="7.3341633"><ele></ele><time>2016-5-22T16:6:42Z</time></trkpt>
<trkpt lat="46.2323583" lon="7.3341683"><ele></ele><time>2016-5-22T16:6:45Z</time></trkpt>
<trkpt lat="46.2323900" lon="7.3341633"><ele></ele><time>2016-5-22T16:6:48Z</time></trkpt>
<trkpt lat="46.2323867" lon="7.3341633"><ele></ele><time>2016-5-22T16:6:51Z</time></trkpt>
<trkpt lat="46.2323883" lon="7.3341633"><ele></ele><time>2016-5-22T16:6:54Z</time></trkpt>
<trkpt lat="46.2323900" lon="7.3341633"><ele></ele><time>2016-5-22T16:6:57Z</time></trkpt>
<trkpt lat="46.2323867" lon="7.3341633"><ele></ele><time>2016-5-22T16:7:0Z</time></trkpt>
<trkpt lat="46.2323867" lon="7.3341633"><ele></ele><time>2016-5-22T16:7:3Z</time></trkpt>
<trkpt lat="46.2323867" lon="7.3341633"><ele></ele><time>2016-5-22T16:7:6Z</time></trkpt>
<trkpt lat="46.2323817" lon="7.3341567"><ele></ele><time>2016-5-22T16:7:9Z</time></trkpt>
<trkpt lat="46.2321767" lon="7.3339050"><ele></ele><time>2016-5-22T16:7:12Z</time></trkpt>
<trkpt lat="46.2321717" lon="7.3338467"><ele></ele><time>2016-5-22T16:7:15Z</time></trkpt>
<trkpt lat="46.2321500" lon="7.3337850"><ele></ele><time>2016-5-22T16:7:18Z</time></trkpt>
<trkpt lat="46.2320700" lon="7.3336717"><ele></ele><time>2016-5-22T16:7:21Z</time></trkpt>
<trkpt lat="46.2320583" lon="7.3336367"><ele></ele><time>2016-5-22T16:7:24Z</time></trkpt>
<trkpt lat="46.2320567" lon="7.3336083"><ele></ele><time>2016-5-22T16:7:27Z</time></trkpt>
<trkpt lat="46.2320533" lon="7.3335733"><ele></ele><time>2016-5-22T16:7:30Z</time></trkpt>
<trkpt lat="46.2320500" lon="7.3335417"><ele></ele><time>2016-5-22T16:7:33Z</time></trkpt>
<trkpt lat="46.2320633" lon="7.3335000"><ele></ele><time>2016-5-22T16:7:36Z</time></trkpt>
<trkpt lat="46.2320400" lon="7.3334650"><ele></ele><time>2016-5-22T16:7:39Z</time></trkpt>
<trkpt lat="46.2320450" lon="7.3334250"><ele></ele><time>2016-5-22T16:7:42Z</time></trkpt>
<trkpt lat="46.2320350" lon="7.3333783"><ele></ele><time>2016-5-22T16:7:45Z</time></trkpt>
<trkpt lat="46.2320100" lon="7.3333167"><ele></ele><time>2016-5-22T16:7:48Z</time></trkpt>
<trkpt lat="46.2319933" lon="7.3332717"><ele></ele><time>2016-5-22T16:7:51Z</time></trkpt>
<trkpt lat="46.2319683" lon="7.3332283"><ele></ele><time>2016-5-22T16:7:54Z</time></trkpt>
<trkpt lat="46.2319533" lon="7.3331817"><ele></ele><time>2016-5-22T16:7:57Z</time></trkpt>
<trkpt lat="46.2319400" lon="7.3331317"><ele></ele><time>2016-5-22T16:8:0Z</time></trkpt>
<trkpt lat="46.2319267" lon="7.3330833"><ele></ele><time>2016-5-22T16:8:3Z</time></trkpt>
<trkpt lat="46.2319200" lon="7.3330433"><ele></ele><time>2016-5-22T16:8:6Z</time></trkpt>
<trkpt lat="46.2319167" lon="7.3330000"><ele></ele><time>2016-5-22T16:8:9Z</time></trkpt>
<trkpt lat="46.2319117" lon="7.3329550"><ele></ele><time>2016-5-22T16:8:12Z</time></trkpt>
<trkpt lat="46.2319017" lon="7.3329183"><ele></ele><time>2016-5-22T16:8:15Z</time></trkpt>
<trkpt lat="46.2318917" lon="7.3328817"><ele></ele><time>2016-5-22T16:8:18Z</time></trkpt>
<trkpt lat="46.2318817" lon="7.3328450"><ele></ele><time>2016-5-22T16:8:21Z</time></trkpt>
<trkpt lat="46.2318717" lon="7.3328083"><ele></ele><time>2016-5-22T16:8:24Z</time></trkpt>
<trkpt lat="46.2318667" lon="7.3327733"><ele></ele><time>2016-5-22T16:8:27Z</time></trkpt>
<trkpt lat="46.2318617" lon="7.3327333"><ele></ele><time>2016-5-22T16:8:30Z</time></trkpt>
<trkpt lat="46.2318567" lon="7.3326917"><ele></ele><time>2016-5-22T16:8:33Z</time></trkpt>
<trkpt lat="46.2318483" lon="7.3326567"><ele></ele><time>2016-5-22T16:8:36Z</time></trkpt>
<trkpt lat="46.2318383" lon="7.3326183"><ele></ele><time>2016-5-22T16:8:39Z</time></trkpt>
<trkpt lat="46.2318283" lon="7.3325767"><ele></ele><time>2016-5-22T16:8:42Z</time></trkpt>
<trkpt lat="46.2318217" lon="7.3325350"><ele></ele><time>2016-5-22T16:8:45Z</time></trkpt>
<trkpt lat="46.2318133" lon="7.3324867"><ele></ele><time>2016-5-22T16:8:48Z</time></trkpt>
<trkpt lat="46.2318017" lon="7.3324350"><ele></ele><time>2016-5-22T16:8:51Z</time></trkpt>
<trkpt lat="46.2317917" lon="7.3323883"><ele></ele><time>2016-5-22T16:8:54Z</time></trkpt>
<trkpt lat="46.2317867" lon="7.3323450"><ele></ele><time>2016-5-22T16:8:57Z</time></trkpt>
<trkpt lat="46.2317817" lon="7.3323033"><ele></ele><time>2016-5-22T16:9:0Z</time></trkpt>
<trkpt lat="46.2317767" lon="7.3322667"><ele></ele><time>2016-5-22T16:9:3Z</time></trkpt>
<trkpt lat="46.2317733" lon="7.3322333"><ele></ele><time>2016-5-22T16:9:6Z</time></trkpt>
<trkpt lat="46.2317633" lon="7.3322033"><ele></ele><time>2016-5-22T16:9:9Z</time></trkpt>
<trkpt lat="46.2317533" lon="7.3321767"><ele></ele><time>2016-5-22T16:9:12Z</time></trkpt>
<trkpt lat="46.2317450" lon="7.3321583"><ele></ele><time>2016-5-22T16:9:15Z</time></trkpt>
<trkpt lat="46.2317350" lon="7.3321400"><ele></ele><time>2016-5-22T16:9:18Z</time></trkpt>
<trkpt lat="46.2317250" lon="7.3321167"><ele></ele><time>2016-5-22T16:9:21Z</time></trkpt>
<trkpt lat="46.2317200" lon="7.3321000"><ele></ele><time>2016-5-22T16:9:24Z</time></trkpt>
<trkpt lat="46.2317200" lon="7.3320850"><ele></ele><time>2016-5-22T16:9:27Z</time></trkpt>
<trkpt lat="46.2317233" lon="7.3320617"><ele></ele><time>2016-5-22T16:9:30Z</time></trkpt>
<trkpt lat="46.2317250" lon="7.3320383"><ele></ele><time>2016-5-22T16:9:33Z</time></trkpt>
<trkpt lat="46.2317250" lon="7.3320133"><ele></ele><time>2016-5-22T16:9:36Z</time></trkpt>
<trkpt lat="46.2317217" lon="7.3319917"><ele></ele><time>2016-5-22T16:9:39Z</time></trkpt>
<trkpt lat="46.2317167" lon="7.3319683"><ele></ele><time>2016-5-22T16:9:42Z</time></trkpt>
<trkpt lat="46.2317100" lon="7.3319467"><ele></ele><time>2016-5-22T16:9:45Z</time></trkpt>
<trkpt lat="46.2317067" lon="7.3319283"><ele></ele><time>2016-5-22T16:9:48Z</time></trkpt>
<trkpt lat="46.2317000" lon="7.3319100"><ele></ele><time>2016-5-22T16:9:51Z</time></trkpt>
<trkpt lat="46.2316950" lon="7.3318883"><ele></ele><time>2016-5-22T16:9:54Z</time></trkpt>
<trkpt lat="46.2316933" lon="7.3318650"><ele></ele><time>2016-5-22T16:9:57Z</time></trkpt>
<trkpt lat="46.2316900" lon="7.3318433"><ele></ele><time>2016-5-22T16:10:0Z</time></trkpt>
<trkpt lat="46.2316867" lon="7.3318217"><ele></ele><time>2016-5-22T16:10:3Z</time></trkpt>
<trkpt lat="46.2316833" lon="7.3317967"><ele></ele><time>2016-5-22T16:10:6Z</time></trkpt>
<trkpt lat="46.2316750" lon="7.3317650"><ele></ele><time>2016-5-22T16:10:9Z</time></trkpt>
<trkpt lat="46.2316700" lon="7.3317383"><ele></ele><time>2016-5-22T16:10:12Z</time></trkpt>
<trkpt lat="46.2316633" lon="7.3317117"><ele></ele><time>2016-5-22T16:10:15Z</time></trkpt>
<trkpt lat="46.2316600" lon="7.3316867"><ele></ele><time>2016-5-22T16:10:18Z</time></trkpt>
<trkpt lat="46.2316567" lon="7.3316650"><ele></ele><time>2016-5-22T16:10:21Z</time></trkpt>
<trkpt lat="46.2316517" lon="7.3316400"><ele></ele><time>2016-5-22T16:10:24Z</time></trkpt>
<trkpt lat="46.2316433" lon="7.3316150"><ele></ele><time>2016-5-22T16:10:27Z</time></trkpt>
<trkpt lat="46.2316317" lon="7.3315933"><ele></ele><time>2016-5-22T16:10:30Z</time></trkpt>
<trkpt lat="46.2316233" lon="7.3315783"><ele></ele><time>2016-5-22T16:10:33Z</time></trkpt>
<trkpt lat="46.2316133" lon="7.3315633"><ele></ele><time>2016-5-22T16:10:36Z</time></trkpt>
<trkpt lat="46.2316017" lon="7.3315383"><ele></ele><time>2016-5-22T16:10:39Z</time></trkpt>
<trkpt lat="46.2315933" lon="7.3315100"><ele></ele><time>2016-5-22T16:10:42Z</time></trkpt>
<trkpt lat="46.2314633" lon="7.3313000"><ele></ele><time>2016-5-22T16:10:45Z</time></trkpt>
<trkpt lat="46.2314633" lon="7.3312983"><ele></ele><time>2016-5-22T16:10:48Z</time></trkpt>
<trkpt lat="46.2314667" lon="7.3313217"><ele></ele><time>2016-5-22T16:10:51Z</time></trkpt>
<trkpt lat="46.2314717" lon="7.3313367"><ele></ele><time>2016-5-22T16:10:54Z</time></trkpt>
<trkpt lat="46.2316500" lon="7.3314017"><ele></ele><time>2016-5-22T16:10:57Z</time></trkpt>
<trkpt lat="46.2316733" lon="7.3313867"><ele></ele><time>2016-5-22T16:11:0Z</time></trkpt>
<trkpt lat="46.2317067" lon="7.3313717"><ele></ele><time>2016-5-22T16:11:3Z</time></trkpt>
<trkpt lat="46.2317450" lon="7.3313600"><ele></ele><time>2016-5-22T16:11:6Z</time></trkpt>
<trkpt lat="46.2317817" lon="7.3313517"><ele></ele><time>2016-5-22T16:11:9Z</time></trkpt>
<trkpt lat="46.2318200" lon="7.3313467"><ele></ele><time>2016-5-22T16:11:12Z</time></trkpt>
<trkpt lat="46.2318617" lon="7.3313450"><ele></ele><time>2016-5-22T16:11:15Z</time></trkpt>
<trkpt lat="46.2319317" lon="7.3313600"><ele></ele><time>2016-5-22T16:11:18Z</time></trkpt>
<trkpt lat="46.2319733" lon="7.3313850"><ele></ele><time>2016-5-22T16:11:21Z</time></trkpt>
<trkpt lat="46.2320050" lon="7.3314133"><ele></ele><time>2016-5-22T16:11:24Z</time></trkpt>
<trkpt lat="46.2320133" lon="7.3314767"><ele></ele><time>2016-5-22T16:11:27Z</time></trkpt>
<trkpt lat="46.2320283" lon="7.3315150"><ele></ele><time>2016-5-22T16:11:30Z</time></trkpt>
<trkpt lat="46.2320483" lon="7.3315667"><ele></ele><time>2016-5-22T16:11:33Z</time></trkpt>
<trkpt lat="46.2320683" lon="7.3316083"><ele></ele><time>2016-5-22T16:11:36Z</time></trkpt>
<trkpt lat="46.2320933" lon="7.3316633"><ele></ele><time>2016-5-22T16:11:39Z</time></trkpt>
<trkpt lat="46.2321117" lon="7.3317000"><ele></ele><time>2016-5-22T16:11:42Z</time></trkpt>
<trkpt lat="46.2321350" lon="7.3317483"><ele></ele><time>2016-5-22T16:11:45Z</time></trkpt>
<trkpt lat="46.2321550" lon="7.3317867"><ele></ele><time>2016-5-22T16:11:48Z</time></trkpt>
<trkpt lat="46.2321767" lon="7.3318283"><ele></ele><time>2016-5-22T16:11:51Z</time></trkpt>
<trkpt lat="46.2321983" lon="7.3318667"><ele></ele><time>2016-5-22T16:11:54Z</time></trkpt>
<trkpt lat="46.2322233" lon="7.3319017"><ele></ele><time>2016-5-22T16:11:57Z</time></trkpt>
<trkpt lat="46.2322467" lon="7.3319350"><ele></ele><time>2016-5-22T16:12:0Z</time></trkpt>
<trkpt lat="46.2322733" lon="7.3319667"><ele></ele><time>2016-5-22T16:12:3Z</time></trkpt>
<trkpt lat="46.2322967" lon="7.3319950"><ele></ele><time>2016-5-22T16:12:6Z</time></trkpt>
<trkpt lat="46.2323217" lon="7.3320217"><ele></ele><time>2016-5-22T16:12:9Z</time></trkpt>
<trkpt lat="46.2323467" lon="7.3320483"><ele></ele><time>2016-5-22T16:12:12Z</time></trkpt>
<trkpt lat="46.2323767" lon="7.3320767"><ele></ele><time>2016-5-22T16:12:15Z</time></trkpt>
<trkpt lat="46.2324000" lon="7.3321000"><ele></ele><time>2016-5-22T16:12:18Z</time></trkpt>
<trkpt lat="46.2324300" lon="7.3321267"><ele></ele><time>2016-5-22T16:12:21Z</time></trkpt>
<trkpt lat="46.2324567" lon="7.3321467"><ele></ele><time>2016-5-22T16:12:24Z</time></trkpt>
<trkpt lat="46.2324867" lon="7.3321700"><ele></ele><time>2016-5-22T16:12:27Z</time></trkpt>
<trkpt lat="46.2325133" lon="7.3321950"><ele></ele><time>2016-5-22T16:12:30Z</time></trkpt>
<trkpt lat="46.2325400" lon="7.3322267"><ele></ele><time>2016-5-22T16:12:33Z</time></trkpt>
<trkpt lat="46.2325633" lon="7.3322617"><ele></ele><time>2016-5-22T16:12:36Z</time></trkpt>
<trkpt lat="46.2325900" lon="7.3323067"><ele></ele><time>2016-5-22T16:12:39Z</time></trkpt>
<trkpt lat="46.2326167" lon="7.3323533"><ele></ele><time>2016-5-22T16:12:42Z</time></trkpt>
<trkpt lat="46.2326417" lon="7.3324017"><ele></ele><time>2016-5-22T16:12:45Z</time></trkpt>
<trkpt lat="46.2326717" lon="7.3324550"><ele></ele><time>2016-5-22T16:12:48Z</time></trkpt>
<trkpt lat="46.2326950" lon="7.3325017"><ele></ele><time>2016-5-22T16:12:51Z</time></trkpt>
<trkpt lat="46.2327283" lon="7.3325633"><ele></ele><time>2016-5-22T16:12:54Z</time></trkpt>
<trkpt lat="46.2327617" lon="7.3326333"><ele></ele><time>2016-5-22T16:12:57Z</time></trkpt>
<trkpt lat="46.2327883" lon="7.3326900"><ele></ele><time>2016-5-22T16:13:0Z</time></trkpt>
<trkpt lat="46.2328050" lon="7.3327250"><ele></ele><time>2016-5-22T16:13:3Z</time></trkpt>
<trkpt lat="46.2328317" lon="7.3327833"><ele></ele><time>2016-5-22T16:13:6Z</time></trkpt>
<trkpt lat="46.2328583" lon="7.3328367"><ele></ele><time>2016-5-22T16:13:9Z</time></trkpt>
<trkpt lat="46.2328833" lon="7.3328900"><ele></ele><time>2016-5-22T16:13:12Z</time></trkpt>
<trkpt lat="46.2329117" lon="7.3329500"><ele></ele><time>2016-5-22T16:13:15Z</time></trkpt>
<trkpt lat="46.2329350" lon="7.3329983"><ele></ele><time>2016-5-22T16:13:18Z</time></trkpt>
<trkpt lat="46.2329617" lon="7.3330533"><ele></ele><time>2016-5-22T16:13:21Z</time></trkpt>
<trkpt lat="46.2329850" lon="7.3331033"><ele></ele><time>2016-5-22T16:13:24Z</time></trkpt>
<trkpt lat="46.2330133" lon="7.3331633"><ele></ele><time>2016-5-22T16:13:27Z</time></trkpt>
<trkpt lat="46.2330367" lon="7.3332133"><ele></ele><time>2016-5-22T16:13:30Z</time></trkpt>
<trkpt lat="46.2330583" lon="7.3332567"><ele></ele><time>2016-5-22T16:13:33Z</time></trkpt>
<trkpt lat="46.2330833" lon="7.3333100"><ele></ele><time>2016-5-22T16:13:36Z</time></trkpt>
<trkpt lat="46.2330983" lon="7.3333433"><ele></ele><time>2016-5-22T16:13:39Z</time></trkpt>
<trkpt lat="46.2331200" lon="7.3333883"><ele></ele><time>2016-5-22T16:13:42Z</time></trkpt>
<trkpt lat="46.2331400" lon="7.3334317"><ele></ele><time>2016-5-22T16:13:45Z</time></trkpt>
<trkpt lat="46.2331567" lon="7.3334683"><ele></ele><time>2016-5-22T16:13:48Z</time></trkpt>
<trkpt lat="46.2331733" lon="7.3335050"><ele></ele><time>2016-5-22T16:13:51Z</time></trkpt>
<trkpt lat="46.2331883" lon="7.3335367"><ele></ele><time>2016-5-22T16:13:54Z</time></trkpt>
<trkpt lat="46.2332067" lon="7.3335750"><ele></ele><time>2016-5-22T16:13:57Z</time></trkpt>
<trkpt lat="46.2332233" lon="7.3336133"><ele></ele><time>2016-5-22T16:14:0Z</time></trkpt>
<trkpt lat="46.2332400" lon="7.3336483"><ele></ele><time>2016-5-22T16:14:3Z</time></trkpt>
<trkpt lat="46.2332583" lon="7.3336850"><ele></ele><time>2016-5-22T16:14:6Z</time></trkpt>
<trkpt lat="46.2332733" lon="7.3337183"><ele></ele><time>2016-5-22T16:14:9Z</time></trkpt>
<trkpt lat="46.2332933" lon="7.3337633"><ele></ele><time>2016-5-22T16:14:12Z</time></trkpt>
<trkpt lat="46.2333133" lon="7.3338050"><ele></ele><time>2016-5-22T16:14:15Z</time></trkpt>
<trkpt lat="46.2333350" lon="7.3338500"><ele></ele><time>2016-5-22T16:14:18Z</time></trkpt>
<trkpt lat="46.2333567" lon="7.3338967"><ele></ele><time>2016-5-22T16:14:21Z</time></trkpt>
<trkpt lat="46.2333783" lon="7.3339433"><ele></ele><time>2016-5-22T16:14:24Z</time></trkpt>
<trkpt lat="46.2334000" lon="7.3339900"><ele></ele><time>2016-5-22T16:14:27Z</time></trkpt>
<trkpt lat="46.2334217" lon="7.3340367"><ele></ele><time>2016-5-22T16:14:30Z</time></trkpt>
<trkpt lat="46.2334400" lon="7.3340783"><ele></ele><time>2016-5-22T16:14:33Z</time></trkpt>
<trkpt lat="46.2334633" lon="7.3341300"><ele></ele><time>2016-5-22T16:14:36Z</time></trkpt>
<trkpt lat="46.2334817" lon="7.3341717"><ele></ele><time>2016-5-22T16:14:39Z</time></trkpt>
<trkpt lat="46.2334950" lon="7.3342017"><ele></ele><time>2016-5-22T16:14:42Z</time></trkpt>
<trkpt lat="46.2334950" lon="7.3342017"><ele></ele><time>2016-5-22T16:14:45Z</time></trkpt>
<trkpt lat="46.2334950" lon="7.3342017"><ele></ele><time>2016-5-22T16:14:48Z</time></trkpt>
<trkpt lat="46.2334950" lon="7.3342017"><ele></ele><time>2016-5-22T16:14:51Z</time></trkpt>
<trkpt lat="46.2334950" lon="7.3342017"><ele></ele><time>2016-5-22T16:14:54Z</time></trkpt>
<trkpt lat="46.2335833" lon="7.3344017"><ele></ele><time>2016-5-22T16:14:57Z</time></trkpt>
<trkpt lat="46.2336000" lon="7.3344400"><ele></ele><time>2016-5-22T16:15:0Z</time></trkpt>
<trkpt lat="46.2336167" lon="7.3344767"><ele></ele><time>2016-5-22T16:15:3Z</time></trkpt>
<trkpt lat="46.2336350" lon="7.3345183"><ele></ele><time>2016-5-22T16:15:6Z</time></trkpt>
<trkpt lat="46.2336550" lon="7.3345600"><ele></ele><time>2016-5-22T16:15:9Z</time></trkpt>
<trkpt lat="46.2336733" lon="7.3346050"><ele></ele><time>2016-5-22T16:15:12Z</time></trkpt>
<trkpt lat="46.2336950" lon="7.3346517"><ele></ele><time>2016-5-22T16:15:15Z</time></trkpt>
<trkpt lat="46.2337167" lon="7.3346983"><ele></ele><time>2016-5-22T16:15:18Z</time></trkpt>
<trkpt lat="46.2337383" lon="7.3347450"><ele></ele><time>2016-5-22T16:15:21Z</time></trkpt>
<trkpt lat="46.2337600" lon="7.3347933"><ele></ele><time>2016-5-22T16:15:24Z</time></trkpt>
<trkpt lat="46.2337850" lon="7.3348450"><ele></ele><time>2016-5-22T16:15:27Z</time></trkpt>
<trkpt lat="46.2338117" lon="7.3349000"><ele></ele><time>2016-5-22T16:15:30Z</time></trkpt>
<trkpt lat="46.2338417" lon="7.3349583"><ele></ele><time>2016-5-22T16:15:33Z</time></trkpt>
<trkpt lat="46.2338683" lon="7.3350133"><ele></ele><time>2016-5-22T16:15:36Z</time></trkpt>
<trkpt lat="46.2339033" lon="7.3350783"><ele></ele><time>2016-5-22T16:15:39Z</time></trkpt>
<trkpt lat="46.2339367" lon="7.3351367"><ele></ele><time>2016-5-22T16:15:42Z</time></trkpt>
<trkpt lat="46.2339733" lon="7.3351983"><ele></ele><time>2016-5-22T16:15:45Z</time></trkpt>
<trkpt lat="46.2340167" lon="7.3352633"><ele></ele><time>2016-5-22T16:15:48Z</time></trkpt>
<trkpt lat="46.2340650" lon="7.3353300"><ele></ele><time>2016-5-22T16:15:51Z</time></trkpt>
<trkpt lat="46.2341150" lon="7.3353983"><ele></ele><time>2016-5-22T16:15:54Z</time></trkpt>
<trkpt lat="46.2341767" lon="7.3354767"><ele></ele><time>2016-5-22T16:15:57Z</time></trkpt>
<trkpt lat="46.2342317" lon="7.3355500"><ele></ele><time>2016-5-22T16:16:0Z</time></trkpt>
<trkpt lat="46.2342900" lon="7.3356233"><ele></ele><time>2016-5-22T16:16:3Z</time></trkpt>
<trkpt lat="46.2343167" lon="7.3356400"><ele></ele><time>2016-5-22T16:16:6Z</time></trkpt>
<trkpt lat="46.2343100" lon="7.3356467"><ele></ele><time>2016-5-22T16:16:9Z</time></trkpt>
<trkpt lat="46.2343067" lon="7.3356433"><ele></ele><time>2016-5-22T16:16:12Z</time></trkpt>
<trkpt lat="46.2343250" lon="7.3356733"><ele></ele><time>2016-5-22T16:16:15Z</time></trkpt>
<trkpt lat="46.2343367" lon="7.3356517"><ele></ele><time>2016-5-22T16:16:18Z</time></trkpt>
<trkpt lat="46.2343333" lon="7.3356833"><ele></ele><time>2016-5-22T16:16:21Z</time></trkpt>
<trkpt lat="46.2343617" lon="7.3357300"><ele></ele><time>2016-5-22T16:16:24Z</time></trkpt>
<trkpt lat="46.2343917" lon="7.3357817"><ele></ele><time>2016-5-22T16:16:27Z</time></trkpt>
<trkpt lat="46.2344217" lon="7.3358283"><ele></ele><time>2016-5-22T16:16:30Z</time></trkpt>
<trkpt lat="46.2344383" lon="7.3358300"><ele></ele><time>2016-5-22T16:16:33Z</time></trkpt>
<trkpt lat="46.2344383" lon="7.3358050"><ele></ele><time>2016-5-22T16:16:36Z</time></trkpt>
<trkpt lat="46.2344367" lon="7.3357750"><ele></ele><time>2016-5-22T16:16:39Z</time></trkpt>
<trkpt lat="46.2344333" lon="7.3357517"><ele></ele><time>2016-5-22T16:16:42Z</time></trkpt>
<trkpt lat="46.2344333" lon="7.3357150"><ele></ele><time>2016-5-22T16:16:45Z</time></trkpt>
<trkpt lat="46.2344200" lon="7.3356917"><ele></ele><time>2016-5-22T16:16:48Z</time></trkpt>
<trkpt lat="46.2344267" lon="7.3356100"><ele></ele><time>2016-5-22T16:16:51Z</time></trkpt>
<trkpt lat="46.2344267" lon="7.3355467"><ele></ele><time>2016-5-22T16:16:54Z</time></trkpt>
<trkpt lat="46.2343567" lon="7.3354467"><ele></ele><time>2016-5-22T16:16:57Z</time></trkpt>
<trkpt lat="46.2346850" lon="7.3355450"><ele></ele><time>2016-5-22T16:17:0Z</time></trkpt>
<trkpt lat="46.2346917" lon="7.3354650"><ele></ele><time>2016-5-22T16:17:3Z</time></trkpt>
<trkpt lat="46.2346850" lon="7.3353850"><ele></ele><time>2016-5-22T16:17:6Z</time></trkpt>
<trkpt lat="46.2346867" lon="7.3352817"><ele></ele><time>2016-5-22T16:17:9Z</time></trkpt>
<trkpt lat="46.2346400" lon="7.3351783"><ele></ele><time>2016-5-22T16:17:12Z</time></trkpt>
<trkpt lat="46.2346383" lon="7.3351250"><ele></ele><time>2016-5-22T16:17:15Z</time></trkpt>
<trkpt lat="46.2346367" lon="7.3350583"><ele></ele><time>2016-5-22T16:17:18Z</time></trkpt>
<trkpt lat="46.2347083" lon="7.3349983"><ele></ele><time>2016-5-22T16:17:21Z</time></trkpt>
<trkpt lat="46.2346267" lon="7.3347800"><ele></ele><time>2016-5-22T16:17:24Z</time></trkpt>
<trkpt lat="46.2346233" lon="7.3346550"><ele></ele><time>2016-5-22T16:17:27Z</time></trkpt>
<trkpt lat="46.2346167" lon="7.3345200"><ele></ele><time>2016-5-22T16:17:30Z</time></trkpt>
<trkpt lat="46.2346050" lon="7.3343533"><ele></ele><time>2016-5-22T16:17:33Z</time></trkpt>
<trkpt lat="46.2345950" lon="7.3342217"><ele></ele><time>2016-5-22T16:17:36Z</time></trkpt>
<trkpt lat="46.2345833" lon="7.3340967"><ele></ele><time>2016-5-22T16:17:39Z</time></trkpt>
<trkpt lat="46.2345683" lon="7.3339517"><ele></ele><time>2016-5-22T16:17:42Z</time></trkpt>
<trkpt lat="46.2345550" lon="7.3338183"><ele></ele><time>2016-5-22T16:17:45Z</time></trkpt>
<trkpt lat="46.2345417" lon="7.3337000"><ele></ele><time>2016-5-22T16:17:48Z</time></trkpt>
<trkpt lat="46.2345267" lon="7.3335600"><ele></ele><time>2016-5-22T16:17:51Z</time></trkpt>
<trkpt lat="46.2345167" lon="7.3334483"><ele></ele><time>2016-5-22T16:17:54Z</time></trkpt>
<trkpt lat="46.2345033" lon="7.3333200"><ele></ele><time>2016-5-22T16:17:57Z</time></trkpt>
<trkpt lat="46.2344950" lon="7.3332183"><ele></ele><time>2016-5-22T16:18:0Z</time></trkpt>
<trkpt lat="46.2344817" lon="7.3330867"><ele></ele><time>2016-5-22T16:18:3Z</time></trkpt>
<trkpt lat="46.2344733" lon="7.3329933"><ele></ele><time>2016-5-22T16:18:6Z</time></trkpt>
<trkpt lat="46.2344633" lon="7.3328883"><ele></ele><time>2016-5-22T16:18:9Z</time></trkpt>
<trkpt lat="46.2344533" lon="7.3327850"><ele></ele><time>2016-5-22T16:18:12Z</time></trkpt>
<trkpt lat="46.2344467" lon="7.3327217"><ele></ele><time>2016-5-22T16:18:15Z</time></trkpt>
<trkpt lat="46.2344383" lon="7.3326183"><ele></ele><time>2016-5-22T16:18:18Z</time></trkpt>
<trkpt lat="46.2344317" lon="7.3325183"><ele></ele><time>2016-5-22T16:18:21Z</time></trkpt>
<trkpt lat="46.2344267" lon="7.3324350"><ele></ele><time>2016-5-22T16:18:24Z</time></trkpt>
<trkpt lat="46.2344217" lon="7.3323417"><ele></ele><time>2016-5-22T16:18:27Z</time></trkpt>
<trkpt lat="46.2344183" lon="7.3322467"><ele></ele><time>2016-5-22T16:18:30Z</time></trkpt>
<trkpt lat="46.2344167" lon="7.3321350"><ele></ele><time>2016-5-22T16:18:33Z</time></trkpt>
<trkpt lat="46.2344167" lon="7.3320200"><ele></ele><time>2016-5-22T16:18:36Z</time></trkpt>
<trkpt lat="46.2344183" lon="7.3319117"><ele></ele><time>2016-5-22T16:18:39Z</time></trkpt>
<trkpt lat="46.2344233" lon="7.3318067"><ele></ele><time>2016-5-22T16:18:42Z</time></trkpt>
<trkpt lat="46.2344267" lon="7.3317217"><ele></ele><time>2016-5-22T16:18:45Z</time></trkpt>
<trkpt lat="46.2344300" lon="7.3316033"><ele></ele><time>2016-5-22T16:18:48Z</time></trkpt>
<trkpt lat="46.2344283" lon="7.3314750"><ele></ele><time>2016-5-22T16:18:51Z</time></trkpt>
<trkpt lat="46.2344133" lon="7.3313450"><ele></ele><time>2016-5-22T16:18:54Z</time></trkpt>
<trkpt lat="46.2343983" lon="7.3312517"><ele></ele><time>2016-5-22T16:18:57Z</time></trkpt>
<trkpt lat="46.2343183" lon="7.3311250"><ele></ele><time>2016-5-22T16:19:0Z</time></trkpt>
<trkpt lat="46.2342533" lon="7.3310050"><ele></ele><time>2016-5-22T16:19:3Z</time></trkpt>
<trkpt lat="46.2341900" lon="7.3309000"><ele></ele><time>2016-5-22T16:19:6Z</time></trkpt>
<trkpt lat="46.2342067" lon="7.3307150"><ele></ele><time>2016-5-22T16:19:9Z</time></trkpt>
<trkpt lat="46.2341533" lon="7.3306167"><ele></ele><time>2016-5-22T16:19:12Z</time></trkpt>
<trkpt lat="46.2340867" lon="7.3305100"><ele></ele><time>2016-5-22T16:19:15Z</time></trkpt>
<trkpt lat="46.2339083" lon="7.3303383"><ele></ele><time>2016-5-22T16:19:18Z</time></trkpt>
<trkpt lat="46.2338333" lon="7.3302983"><ele></ele><time>2016-5-22T16:19:21Z</time></trkpt>
<trkpt lat="46.2337517" lon="7.3302533"><ele></ele><time>2016-5-22T16:19:24Z</time></trkpt>
<trkpt lat="46.2336817" lon="7.3302150"><ele></ele><time>2016-5-22T16:19:27Z</time></trkpt>
<trkpt lat="46.2336100" lon="7.3301750"><ele></ele><time>2016-5-22T16:19:30Z</time></trkpt>
<trkpt lat="46.2335333" lon="7.3300950"><ele></ele><time>2016-5-22T16:19:33Z</time></trkpt>
<trkpt lat="46.2334700" lon="7.3300000"><ele></ele><time>2016-5-22T16:19:36Z</time></trkpt>
<trkpt lat="46.2334183" lon="7.3298833"><ele></ele><time>2016-5-22T16:19:39Z</time></trkpt>
<trkpt lat="46.2333733" lon="7.3297600"><ele></ele><time>2016-5-22T16:19:42Z</time></trkpt>
<trkpt lat="46.2333750" lon="7.3297633"><ele></ele><time>2016-5-22T16:19:45Z</time></trkpt>
<trkpt lat="46.2333067" lon="7.3295217"><ele></ele><time>2016-5-22T16:19:48Z</time></trkpt>
<trkpt lat="46.2332667" lon="7.3293533"><ele></ele><time>2016-5-22T16:19:51Z</time></trkpt>
<trkpt lat="46.2332433" lon="7.3292317"><ele></ele><time>2016-5-22T16:19:54Z</time></trkpt>
<trkpt lat="46.2332200" lon="7.3290983"><ele></ele><time>2016-5-22T16:19:57Z</time></trkpt>
<trkpt lat="46.2331933" lon="7.3289333"><ele></ele><time>2016-5-22T16:20:0Z</time></trkpt>
<trkpt lat="46.2331517" lon="7.3287883"><ele></ele><time>2016-5-22T16:20:3Z</time></trkpt>
<trkpt lat="46.2331417" lon="7.3286333"><ele></ele><time>2016-5-22T16:20:6Z</time></trkpt>
<trkpt lat="46.2331533" lon="7.3284883"><ele></ele><time>2016-5-22T16:20:9Z</time></trkpt>
<trkpt lat="46.2332117" lon="7.3283483"><ele></ele><time>2016-5-22T16:20:12Z</time></trkpt>
<trkpt lat="46.2331633" lon="7.3282050"><ele></ele><time>2016-5-22T16:20:15Z</time></trkpt>
<trkpt lat="46.2331517" lon="7.3280517"><ele></ele><time>2016-5-22T16:20:18Z</time></trkpt>
<trkpt lat="46.2330267" lon="7.3279267"><ele></ele><time>2016-5-22T16:20:21Z</time></trkpt>
<trkpt lat="46.2329950" lon="7.3277350"><ele></ele><time>2016-5-22T16:20:24Z</time></trkpt>
<trkpt lat="46.2329633" lon="7.3275350"><ele></ele><time>2016-5-22T16:20:27Z</time></trkpt>
<trkpt lat="46.2329267" lon="7.3273083"><ele></ele><time>2016-5-22T16:20:30Z</time></trkpt>
<trkpt lat="46.2328900" lon="7.3270850"><ele></ele><time>2016-5-22T16:20:33Z</time></trkpt>
<trkpt lat="46.2328600" lon="7.3268950"><ele></ele><time>2016-5-22T16:20:36Z</time></trkpt>
<trkpt lat="46.2328283" lon="7.3267067"><ele></ele><time>2016-5-22T16:20:39Z</time></trkpt>
<trkpt lat="46.2327917" lon="7.3264983"><ele></ele><time>2016-5-22T16:20:42Z</time></trkpt>
<trkpt lat="46.2327533" lon="7.3262933"><ele></ele><time>2016-5-22T16:20:45Z</time></trkpt>
<trkpt lat="46.2327250" lon="7.3261517"><ele></ele><time>2016-5-22T16:20:48Z</time></trkpt>
<trkpt lat="46.2326867" lon="7.3259667"><ele></ele><time>2016-5-22T16:20:51Z</time></trkpt>
<trkpt lat="46.2326433" lon="7.3257583"><ele></ele><time>2016-5-22T16:20:54Z</time></trkpt>
<trkpt lat="46.2326017" lon="7.3255783"><ele></ele><time>2016-5-22T16:20:57Z</time></trkpt>
<trkpt lat="46.2325467" lon="7.3253833"><ele></ele><time>2016-5-22T16:21:0Z</time></trkpt>
<trkpt lat="46.2324950" lon="7.3252117"><ele></ele><time>2016-5-22T16:21:3Z</time></trkpt>
<trkpt lat="46.2324383" lon="7.3250450"><ele></ele><time>2016-5-22T16:21:6Z</time></trkpt>
<trkpt lat="46.2323700" lon="7.3248817"><ele></ele><time>2016-5-22T16:21:9Z</time></trkpt>
<trkpt lat="46.2322950" lon="7.3247250"><ele></ele><time>2016-5-22T16:21:12Z</time></trkpt>
<trkpt lat="46.2322133" lon="7.3245617"><ele></ele><time>2016-5-22T16:21:15Z</time></trkpt>
<trkpt lat="46.2321317" lon="7.3244050"><ele></ele><time>2016-5-22T16:21:18Z</time></trkpt>
<trkpt lat="46.2320483" lon="7.3242500"><ele></ele><time>2016-5-22T16:21:21Z</time></trkpt>
<trkpt lat="46.2319617" lon="7.3240817"><ele></ele><time>2016-5-22T16:21:24Z</time></trkpt>
<trkpt lat="46.2318850" lon="7.3238850"><ele></ele><time>2016-5-22T16:21:27Z</time></trkpt>
<trkpt lat="46.2318333" lon="7.3236800"><ele></ele><time>2016-5-22T16:21:30Z</time></trkpt>
<trkpt lat="46.2317933" lon="7.3235017"><ele></ele><time>2016-5-22T16:21:33Z</time></trkpt>
<trkpt lat="46.2317450" lon="7.3232933"><ele></ele><time>2016-5-22T16:21:36Z</time></trkpt>
<trkpt lat="46.2316950" lon="7.3230783"><ele></ele><time>2016-5-22T16:21:39Z</time></trkpt>
<trkpt lat="46.2316567" lon="7.3229150"><ele></ele><time>2016-5-22T16:21:42Z</time></trkpt>
<trkpt lat="46.2316200" lon="7.3227533"><ele></ele><time>2016-5-22T16:21:45Z</time></trkpt>
<trkpt lat="46.2315833" lon="7.3225917"><ele></ele><time>2016-5-22T16:21:48Z</time></trkpt>
<trkpt lat="46.2315433" lon="7.3224250"><ele></ele><time>2016-5-22T16:21:51Z</time></trkpt>
<trkpt lat="46.2315067" lon="7.3222733"><ele></ele><time>2016-5-22T16:21:54Z</time></trkpt>
<trkpt lat="46.2314717" lon="7.3221200"><ele></ele><time>2016-5-22T16:21:57Z</time></trkpt>
<trkpt lat="46.2314300" lon="7.3219433"><ele></ele><time>2016-5-22T16:22:0Z</time></trkpt>
<trkpt lat="46.2313883" lon="7.3217700"><ele></ele><time>2016-5-22T16:22:3Z</time></trkpt>
<trkpt lat="46.2313467" lon="7.3216000"><ele></ele><time>2016-5-22T16:22:6Z</time></trkpt>
<trkpt lat="46.2313067" lon="7.3214367"><ele></ele><time>2016-5-22T16:22:9Z</time></trkpt>
<trkpt lat="46.2312783" lon="7.3212833"><ele></ele><time>2016-5-22T16:22:12Z</time></trkpt>
<trkpt lat="46.2313367" lon="7.3210717"><ele></ele><time>2016-5-22T16:22:15Z</time></trkpt>
<trkpt lat="46.2313817" lon="7.3209183"><ele></ele><time>2016-5-22T16:22:18Z</time></trkpt>
<trkpt lat="46.2314233" lon="7.3207767"><ele></ele><time>2016-5-22T16:22:21Z</time></trkpt>
<trkpt lat="46.2314683" lon="7.3206250"><ele></ele><time>2016-5-22T16:22:24Z</time></trkpt>
<trkpt lat="46.2315100" lon="7.3204783"><ele></ele><time>2016-5-22T16:22:27Z</time></trkpt>
<trkpt lat="46.2315517" lon="7.3203317"><ele></ele><time>2016-5-22T16:22:30Z</time></trkpt>
<trkpt lat="46.2315900" lon="7.3201967"><ele></ele><time>2016-5-22T16:22:33Z</time></trkpt>
<trkpt lat="46.2316267" lon="7.3200617"><ele></ele><time>2016-5-22T16:22:36Z</time></trkpt>
<trkpt lat="46.2316433" lon="7.3199233"><ele></ele><time>2016-5-22T16:22:39Z</time></trkpt>
<trkpt lat="46.2316400" lon="7.3197850"><ele></ele><time>2016-5-22T16:22:42Z</time></trkpt>
<trkpt lat="46.2316283" lon="7.3196633"><ele></ele><time>2016-5-22T16:22:45Z</time></trkpt>
<trkpt lat="46.2316050" lon="7.3195367"><ele></ele><time>2016-5-22T16:22:48Z</time></trkpt>
<trkpt lat="46.2315700" lon="7.3193917"><ele></ele><time>2016-5-22T16:22:51Z</time></trkpt>
<trkpt lat="46.2315367" lon="7.3192800"><ele></ele><time>2016-5-22T16:22:54Z</time></trkpt>
<trkpt lat="46.2315000" lon="7.3191617"><ele></ele><time>2016-5-22T16:22:57Z</time></trkpt>
<trkpt lat="46.2314550" lon="7.3190250"><ele></ele><time>2016-5-22T16:23:0Z</time></trkpt>
<trkpt lat="46.2314167" lon="7.3189033"><ele></ele><time>2016-5-22T16:23:3Z</time></trkpt>
<trkpt lat="46.2313967" lon="7.3187850"><ele></ele><time>2016-5-22T16:23:6Z</time></trkpt>
<trkpt lat="46.2314017" lon="7.3187150"><ele></ele><time>2016-5-22T16:23:9Z</time></trkpt>
<trkpt lat="46.2315150" lon="7.3185233"><ele></ele><time>2016-5-22T16:23:12Z</time></trkpt>
<trkpt lat="46.2315717" lon="7.3184467"><ele></ele><time>2016-5-22T16:23:15Z</time></trkpt>
<trkpt lat="46.2316300" lon="7.3183650"><ele></ele><time>2016-5-22T16:23:18Z</time></trkpt>
<trkpt lat="46.2316900" lon="7.3182850"><ele></ele><time>2016-5-22T16:23:21Z</time></trkpt>
<trkpt lat="46.2317383" lon="7.3182217"><ele></ele><time>2016-5-22T16:23:24Z</time></trkpt>
<trkpt lat="46.2317867" lon="7.3181567"><ele></ele><time>2016-5-22T16:23:27Z</time></trkpt>
<trkpt lat="46.2318400" lon="7.3180850"><ele></ele><time>2016-5-22T16:23:30Z</time></trkpt>
<trkpt lat="46.2318783" lon="7.3180350"><ele></ele><time>2016-5-22T16:23:33Z</time></trkpt>
<trkpt lat="46.2318200" lon="7.3176800"><ele></ele><time>2016-5-22T16:23:36Z</time></trkpt>
<trkpt lat="46.2318933" lon="7.3178367"><ele></ele><time>2016-5-22T16:23:39Z</time></trkpt>
<trkpt lat="46.2318833" lon="7.3177467"><ele></ele><time>2016-5-22T16:23:42Z</time></trkpt>
<trkpt lat="46.2318750" lon="7.3176633"><ele></ele><time>2016-5-22T16:23:45Z</time></trkpt>
<trkpt lat="46.2318683" lon="7.3175817"><ele></ele><time>2016-5-22T16:23:48Z</time></trkpt>
<trkpt lat="46.2318117" lon="7.3175033"><ele></ele><time>2016-5-22T16:23:51Z</time></trkpt>
<trkpt lat="46.2318067" lon="7.3174067"><ele></ele><time>2016-5-22T16:23:54Z</time></trkpt>
<trkpt lat="46.2318050" lon="7.3173100"><ele></ele><time>2016-5-22T16:23:57Z</time></trkpt>
<trkpt lat="46.2318050" lon="7.3172167"><ele></ele><time>2016-5-22T16:24:0Z</time></trkpt>
<trkpt lat="46.2318050" lon="7.3171217"><ele></ele><time>2016-5-22T16:24:3Z</time></trkpt>
<trkpt lat="46.2318050" lon="7.3170267"><ele></ele><time>2016-5-22T16:24:6Z</time></trkpt>
<trkpt lat="46.2318050" lon="7.3169433"><ele></ele><time>2016-5-22T16:24:9Z</time></trkpt>
<trkpt lat="46.2318050" lon="7.3168400"><ele></ele><time>2016-5-22T16:24:12Z</time></trkpt>
<trkpt lat="46.2318050" lon="7.3167550"><ele></ele><time>2016-5-22T16:24:15Z</time></trkpt>
<trkpt lat="46.2318067" lon="7.3166450"><ele></ele><time>2016-5-22T16:24:18Z</time></trkpt>
<trkpt lat="46.2318067" lon="7.3165567"><ele></ele><time>2016-5-22T16:24:21Z</time></trkpt>
<trkpt lat="46.2318083" lon="7.3164533"><ele></ele><time>2016-5-22T16:24:24Z</time></trkpt>
<trkpt lat="46.2318100" lon="7.3163617"><ele></ele><time>2016-5-22T16:24:27Z</time></trkpt>
<trkpt lat="46.2318117" lon="7.3162700"><ele></ele><time>2016-5-22T16:24:30Z</time></trkpt>
<trkpt lat="46.2318133" lon="7.3161883"><ele></ele><time>2016-5-22T16:24:33Z</time></trkpt>
<trkpt lat="46.2318150" lon="7.3160817"><ele></ele><time>2016-5-22T16:24:36Z</time></trkpt>
<trkpt lat="46.2318167" lon="7.3159933"><ele></ele><time>2016-5-22T16:24:39Z</time></trkpt>
<trkpt lat="46.2318200" lon="7.3158900"><ele></ele><time>2016-5-22T16:24:42Z</time></trkpt>
<trkpt lat="46.2318233" lon="7.3157933"><ele></ele><time>2016-5-22T16:24:45Z</time></trkpt>
<trkpt lat="46.2318267" lon="7.3157167"><ele></ele><time>2016-5-22T16:24:48Z</time></trkpt>
<trkpt lat="46.2318300" lon="7.3156400"><ele></ele><time>2016-5-22T16:24:51Z</time></trkpt>
<trkpt lat="46.2318333" lon="7.3155567"><ele></ele><time>2016-5-22T16:24:54Z</time></trkpt>
<trkpt lat="46.2318383" lon="7.3154700"><ele></ele><time>2016-5-22T16:24:57Z</time></trkpt>
<trkpt lat="46.2318417" lon="7.3153867"><ele></ele><time>2016-5-22T16:25:0Z</time></trkpt>
<trkpt lat="46.2318450" lon="7.3153317"><ele></ele><time>2016-5-22T16:25:3Z</time></trkpt>
<trkpt lat="46.2318483" lon="7.3152650"><ele></ele><time>2016-5-22T16:25:6Z</time></trkpt>
<trkpt lat="46.2318500" lon="7.3152150"><ele></ele><time>2016-5-22T16:25:9Z</time></trkpt>
<trkpt lat="46.2318550" lon="7.3151450"><ele></ele><time>2016-5-22T16:25:12Z</time></trkpt>
<trkpt lat="46.2318567" lon="7.3150917"><ele></ele><time>2016-5-22T16:25:15Z</time></trkpt>
<trkpt lat="46.2318600" lon="7.3150400"><ele></ele><time>2016-5-22T16:25:18Z</time></trkpt>
<trkpt lat="46.2318633" lon="7.3149750"><ele></ele><time>2016-5-22T16:25:21Z</time></trkpt>
<trkpt lat="46.2318650" lon="7.3149267"><ele></ele><time>2016-5-22T16:25:24Z</time></trkpt>
<trkpt lat="46.2318683" lon="7.3148850"><ele></ele><time>2016-5-22T16:25:27Z</time></trkpt>
<trkpt lat="46.2318700" lon="7.3148350"><ele></ele><time>2016-5-22T16:25:30Z</time></trkpt>
<trkpt lat="46.2318733" lon="7.3147917"><ele></ele><time>2016-5-22T16:25:33Z</time></trkpt>
<trkpt lat="46.2318750" lon="7.3147433"><ele></ele><time>2016-5-22T16:25:36Z</time></trkpt>
<trkpt lat="46.2318767" lon="7.3147017"><ele></ele><time>2016-5-22T16:25:39Z</time></trkpt>
<trkpt lat="46.2318800" lon="7.3146550"><ele></ele><time>2016-5-22T16:25:42Z</time></trkpt>
<trkpt lat="46.2318833" lon="7.3146017"><ele></ele><time>2016-5-22T16:25:45Z</time></trkpt>
<trkpt lat="46.2318850" lon="7.3145567"><ele></ele><time>2016-5-22T16:25:48Z</time></trkpt>
<trkpt lat="46.2318883" lon="7.3145050"><ele></ele><time>2016-5-22T16:25:51Z</time></trkpt>
<trkpt lat="46.2318900" lon="7.3144600"><ele></ele><time>2016-5-22T16:25:54Z</time></trkpt>
<trkpt lat="46.2318933" lon="7.3144150"><ele></ele><time>2016-5-22T16:25:57Z</time></trkpt>
<trkpt lat="46.2318950" lon="7.3143717"><ele></ele><time>2016-5-22T16:26:0Z</time></trkpt>
<trkpt lat="46.2318983" lon="7.3143217"><ele></ele><time>2016-5-22T16:26:3Z</time></trkpt>
<trkpt lat="46.2319017" lon="7.3142767"><ele></ele><time>2016-5-22T16:26:6Z</time></trkpt>
<trkpt lat="46.2319050" lon="7.3142250"><ele></ele><time>2016-5-22T16:26:9Z</time></trkpt>
<trkpt lat="46.2319083" lon="7.3141783"><ele></ele><time>2016-5-22T16:26:12Z</time></trkpt>
<trkpt lat="46.2319117" lon="7.3141317"><ele></ele><time>2016-5-22T16:26:15Z</time></trkpt>
<trkpt lat="46.2319150" lon="7.3140800"><ele></ele><time>2016-5-22T16:26:18Z</time></trkpt>
<trkpt lat="46.2319200" lon="7.3140317"><ele></ele><time>2016-5-22T16:26:21Z</time></trkpt>
<trkpt lat="46.2319233" lon="7.3139950"><ele></ele><time>2016-5-22T16:26:24Z</time></trkpt>
<trkpt lat="46.2319267" lon="7.3139583"><ele></ele><time>2016-5-22T16:26:27Z</time></trkpt>
<trkpt lat="46.2319300" lon="7.3139233"><ele></ele><time>2016-5-22T16:26:30Z</time></trkpt>
<trkpt lat="46.2319333" lon="7.3138900"><ele></ele><time>2016-5-22T16:26:33Z</time></trkpt>
<trkpt lat="46.2319367" lon="7.3138517"><ele></ele><time>2016-5-22T16:26:36Z</time></trkpt>
<trkpt lat="46.2319400" lon="7.3138167"><ele></ele><time>2016-5-22T16:26:39Z</time></trkpt>
<trkpt lat="46.2319433" lon="7.3137767"><ele></ele><time>2016-5-22T16:26:42Z</time></trkpt>
<trkpt lat="46.2319467" lon="7.3137350"><ele></ele><time>2016-5-22T16:26:45Z</time></trkpt>
<trkpt lat="46.2319517" lon="7.3136933"><ele></ele><time>2016-5-22T16:26:48Z</time></trkpt>
<trkpt lat="46.2319550" lon="7.3136500"><ele></ele><time>2016-5-22T16:26:51Z</time></trkpt>
<trkpt lat="46.2319600" lon="7.3136033"><ele></ele><time>2016-5-22T16:26:54Z</time></trkpt>
<trkpt lat="46.2319633" lon="7.3135667"><ele></ele><time>2016-5-22T16:26:57Z</time></trkpt>
<trkpt lat="46.2319683" lon="7.3135283"><ele></ele><time>2016-5-22T16:27:0Z</time></trkpt>
<trkpt lat="46.2319717" lon="7.3134883"><ele></ele><time>2016-5-22T16:27:3Z</time></trkpt>
<trkpt lat="46.2319767" lon="7.3134533"><ele></ele><time>2016-5-22T16:27:6Z</time></trkpt>
<trkpt lat="46.2319800" lon="7.3134117"><ele></ele><time>2016-5-22T16:27:9Z</time></trkpt>
<trkpt lat="46.2319850" lon="7.3133750"><ele></ele><time>2016-5-22T16:27:12Z</time></trkpt>
<trkpt lat="46.2319883" lon="7.3133433"><ele></ele><time>2016-5-22T16:27:15Z</time></trkpt>
<trkpt lat="46.2319917" lon="7.3133067"><ele></ele><time>2016-5-22T16:27:18Z</time></trkpt>
<trkpt lat="46.2319950" lon="7.3132733"><ele></ele><time>2016-5-22T16:27:21Z</time></trkpt>
<trkpt lat="46.2319983" lon="7.3132400"><ele></ele><time>2016-5-22T16:27:24Z</time></trkpt>
<trkpt lat="46.2320000" lon="7.3132067"><ele></ele><time>2016-5-22T16:27:27Z</time></trkpt>
<trkpt lat="46.2320033" lon="7.3131733"><ele></ele><time>2016-5-22T16:27:30Z</time></trkpt>
<trkpt lat="46.2320050" lon="7.3131317"><ele></ele><time>2016-5-22T16:27:33Z</time></trkpt>
<trkpt lat="46.2320083" lon="7.3130850"><ele></ele><time>2016-5-22T16:27:36Z</time></trkpt>
<trkpt lat="46.2320117" lon="7.3130450"><ele></ele><time>2016-5-22T16:27:39Z</time></trkpt>
<trkpt lat="46.2320150" lon="7.3130017"><ele></ele><time>2016-5-22T16:27:42Z</time></trkpt>
<trkpt lat="46.2320167" lon="7.3129583"><ele></ele><time>2016-5-22T16:27:45Z</time></trkpt>
<trkpt lat="46.2320200" lon="7.3129217"><ele></ele><time>2016-5-22T16:27:48Z</time></trkpt>
<trkpt lat="46.2320217" lon="7.3128883"><ele></ele><time>2016-5-22T16:27:51Z</time></trkpt>
<trkpt lat="46.2320233" lon="7.3128467"><ele></ele><time>2016-5-22T16:27:54Z</time></trkpt>
<trkpt lat="46.2320250" lon="7.3128133"><ele></ele><time>2016-5-22T16:27:57Z</time></trkpt>
<trkpt lat="46.2320267" lon="7.3127733"><ele></ele><time>2016-5-22T16:28:0Z</time></trkpt>
<trkpt lat="46.2320267" lon="7.3127367"><ele></ele><time>2016-5-22T16:28:3Z</time></trkpt>
<trkpt lat="46.2320283" lon="7.3127033"><ele></ele><time>2016-5-22T16:28:6Z</time></trkpt>
<trkpt lat="46.2320300" lon="7.3126750"><ele></ele><time>2016-5-22T16:28:9Z</time></trkpt>
<trkpt lat="46.2320317" lon="7.3126567"><ele></ele><time>2016-5-22T16:28:12Z</time></trkpt>
<trkpt lat="46.2320317" lon="7.3126350"><ele></ele><time>2016-5-22T16:28:15Z</time></trkpt>
<trkpt lat="46.2320333" lon="7.3126133"><ele></ele><time>2016-5-22T16:28:18Z</time></trkpt>
<trkpt lat="46.2320333" lon="7.3126033"><ele></ele><time>2016-5-22T16:28:21Z</time></trkpt>
<trkpt lat="46.2320333" lon="7.3125950"><ele></ele><time>2016-5-22T16:28:24Z</time></trkpt>
<trkpt lat="46.2320333" lon="7.3125833"><ele></ele><time>2016-5-22T16:28:27Z</time></trkpt>
<trkpt lat="46.2320333" lon="7.3125783"><ele></ele><time>2016-5-22T16:28:30Z</time></trkpt>
<trkpt lat="46.2320350" lon="7.3125733"><ele></ele><time>2016-5-22T16:28:33Z</time></trkpt>
<trkpt lat="46.2320350" lon="7.3125767"><ele></ele><time>2016-5-22T16:28:36Z</time></trkpt>
<trkpt lat="46.2321433" lon="7.3125200"><ele></ele><time>2016-5-22T16:28:39Z</time></trkpt>
<trkpt lat="46.2321800" lon="7.3125183"><ele></ele><time>2016-5-22T16:28:42Z</time></trkpt>
<trkpt lat="46.2322217" lon="7.3125150"><ele></ele><time>2016-5-22T16:28:45Z</time></trkpt>
<trkpt lat="46.2322633" lon="7.3125117"><ele></ele><time>2016-5-22T16:28:48Z</time></trkpt>
<trkpt lat="46.2323017" lon="7.3125050"><ele></ele><time>2016-5-22T16:28:51Z</time></trkpt>
<trkpt lat="46.2323400" lon="7.3124967"><ele></ele><time>2016-5-22T16:28:54Z</time></trkpt>
<trkpt lat="46.2323750" lon="7.3124917"><ele></ele><time>2016-5-22T16:28:57Z</time></trkpt>
<trkpt lat="46.2324083" lon="7.3124867"><ele></ele><time>2016-5-22T16:29:0Z</time></trkpt>
<trkpt lat="46.2324450" lon="7.3124817"><ele></ele><time>2016-5-22T16:29:3Z</time></trkpt>
<trkpt lat="46.2324800" lon="7.3124767"><ele></ele><time>2016-5-22T16:29:6Z</time></trkpt>
<trkpt lat="46.2325133" lon="7.3124717"><ele></ele><time>2016-5-22T16:29:9Z</time></trkpt>
<trkpt lat="46.2325467" lon="7.3124617"><ele></ele><time>2016-5-22T16:29:12Z</time></trkpt>
<trkpt lat="46.2325533" lon="7.3124550"><ele></ele><time>2016-5-22T16:29:15Z</time></trkpt>
<trkpt lat="46.2325517" lon="7.3124400"><ele></ele><time>2016-5-22T16:29:18Z</time></trkpt>
<trkpt lat="46.2325550" lon="7.3124050"><ele></ele><time>2016-5-22T16:29:21Z</time></trkpt>
<trkpt lat="46.2325367" lon="7.3123667"><ele></ele><time>2016-5-22T16:29:24Z</time></trkpt>
<trkpt lat="46.2325233" lon="7.3123150"><ele></ele><time>2016-5-22T16:29:27Z</time></trkpt>
<trkpt lat="46.2325067" lon="7.3122600"><ele></ele><time>2016-5-22T16:29:30Z</time></trkpt>
<trkpt lat="46.2324933" lon="7.3122083"><ele></ele><time>2016-5-22T16:29:33Z</time></trkpt>
<trkpt lat="46.2324767" lon="7.3121500"><ele></ele><time>2016-5-22T16:29:36Z</time></trkpt>
<trkpt lat="46.2324617" lon="7.3120917"><ele></ele><time>2016-5-22T16:29:39Z</time></trkpt>
<trkpt lat="46.2324450" lon="7.3120333"><ele></ele><time>2016-5-22T16:29:42Z</time></trkpt>
<trkpt lat="46.2324300" lon="7.3119750"><ele></ele><time>2016-5-22T16:29:45Z</time></trkpt>
<trkpt lat="46.2324150" lon="7.3119183"><ele></ele><time>2016-5-22T16:29:48Z</time></trkpt>
<trkpt lat="46.2324000" lon="7.3118650"><ele></ele><time>2016-5-22T16:29:51Z</time></trkpt>
<trkpt lat="46.2323850" lon="7.3118100"><ele></ele><time>2016-5-22T16:29:54Z</time></trkpt>
<trkpt lat="46.2323700" lon="7.3117550"><ele></ele><time>2016-5-22T16:29:57Z</time></trkpt>
<trkpt lat="46.2323533" lon="7.3116983"><ele></ele><time>2016-5-22T16:30:0Z</time></trkpt>
<trkpt lat="46.2323383" lon="7.3116417"><ele></ele><time>2016-5-22T16:30:3Z</time></trkpt>
<trkpt lat="46.2323250" lon="7.3115933"><ele></ele><time>2016-5-22T16:30:6Z</time></trkpt>
<trkpt lat="46.2323133" lon="7.3115333"><ele></ele><time>2016-5-22T16:30:9Z</time></trkpt>
<trkpt lat="46.2322983" lon="7.3114750"><ele></ele><time>2016-5-22T16:30:12Z</time></trkpt>
<trkpt lat="46.2322900" lon="7.3114417"><ele></ele><time>2016-5-22T16:30:15Z</time></trkpt>
<trkpt lat="46.2322883" lon="7.3114400"><ele></ele><time>2016-5-22T16:30:18Z</time></trkpt>
<trkpt lat="46.2322700" lon="7.3113950"><ele></ele><time>2016-5-22T16:30:21Z</time></trkpt>
<trkpt lat="46.2322400" lon="7.3113300"><ele></ele><time>2016-5-22T16:30:24Z</time></trkpt>
<trkpt lat="46.2322283" lon="7.3113067"><ele></ele><time>2016-5-22T16:30:27Z</time></trkpt>
<trkpt lat="46.2322150" lon="7.3112850"><ele></ele><time>2016-5-22T16:30:30Z</time></trkpt>
<trkpt lat="46.2322050" lon="7.3112683"><ele></ele><time>2016-5-22T16:30:33Z</time></trkpt>
<trkpt lat="46.2322000" lon="7.3112617"><ele></ele><time>2016-5-22T16:30:36Z</time></trkpt>
<trkpt lat="46.2321950" lon="7.3112517"><ele></ele><time>2016-5-22T16:30:39Z</time></trkpt>
<trkpt lat="46.2321917" lon="7.3112467"><ele></ele><time>2016-5-22T16:30:42Z</time></trkpt>
<trkpt lat="46.2321917" lon="7.3112450"><ele></ele><time>2016-5-22T16:30:45Z</time></trkpt>
<trkpt lat="46.2321900" lon="7.3112433"><ele></ele><time>2016-5-22T16:30:48Z</time></trkpt>
<trkpt lat="46.2321917" lon="7.3112450"><ele></ele><time>2016-5-22T16:30:51Z</time></trkpt>
<trkpt lat="46.2321917" lon="7.3112450"><ele></ele><time>2016-5-22T16:30:54Z</time></trkpt>
<trkpt lat="46.2321883" lon="7.3112400"><ele></ele><time>2016-5-22T16:30:57Z</time></trkpt>
<trkpt lat="46.2321883" lon="7.3112417"><ele></ele><time>2016-5-22T16:31:0Z</time></trkpt>
<trkpt lat="46.2321883" lon="7.3112400"><ele></ele><time>2016-5-22T16:31:3Z</time></trkpt>
<trkpt lat="46.2321883" lon="7.3112400"><ele></ele><time>2016-5-22T16:31:6Z</time></trkpt>
<trkpt lat="46.2321900" lon="7.3112417"><ele></ele><time>2016-5-22T16:31:9Z</time></trkpt>
<trkpt lat="46.2321900" lon="7.3112433"><ele></ele><time>2016-5-22T16:31:12Z</time></trkpt>
<trkpt lat="46.2321800" lon="7.3112267"><ele></ele><time>2016-5-22T16:31:15Z</time></trkpt>
<trkpt lat="46.2321683" lon="7.3112083"><ele></ele><time>2016-5-22T16:31:18Z</time></trkpt>
<trkpt lat="46.2321517" lon="7.3111800"><ele></ele><time>2016-5-22T16:31:21Z</time></trkpt>
<trkpt lat="46.2321450" lon="7.3111700"><ele></ele><time>2016-5-22T16:31:24Z</time></trkpt>
<trkpt lat="46.2321450" lon="7.3111700"><ele></ele><time>2016-5-22T16:31:27Z</time></trkpt>
<trkpt lat="46.2321450" lon="7.3111700"><ele></ele><time>2016-5-22T16:31:30Z</time></trkpt>
<trkpt lat="46.2321117" lon="7.3112417"><ele></ele><time>2016-5-22T16:31:33Z</time></trkpt>
<trkpt lat="46.2321483" lon="7.3111733"><ele></ele><time>2016-5-22T16:31:36Z</time></trkpt>
<trkpt lat="46.2320717" lon="7.3109283"><ele></ele><time>2016-5-22T16:31:39Z</time></trkpt>
<trkpt lat="46.2320550" lon="7.3108933"><ele></ele><time>2016-5-22T16:31:42Z</time></trkpt>
<trkpt lat="46.2320383" lon="7.3108500"><ele></ele><time>2016-5-22T16:31:45Z</time></trkpt>
<trkpt lat="46.2320200" lon="7.3108017"><ele></ele><time>2016-5-22T16:31:48Z</time></trkpt>
<trkpt lat="46.2320033" lon="7.3107583"><ele></ele><time>2016-5-22T16:31:51Z</time></trkpt>
<trkpt lat="46.2319850" lon="7.3107117"><ele></ele><time>2016-5-22T16:31:54Z</time></trkpt>
<trkpt lat="46.2319650" lon="7.3106633"><ele></ele><time>2016-5-22T16:31:57Z</time></trkpt>
<trkpt lat="46.2319417" lon="7.3106083"><ele></ele><time>2016-5-22T16:32:0Z</time></trkpt>
<trkpt lat="46.2319183" lon="7.3105667"><ele></ele><time>2016-5-22T16:32:3Z</time></trkpt>
<trkpt lat="46.2318917" lon="7.3105150"><ele></ele><time>2016-5-22T16:32:6Z</time></trkpt>
<trkpt lat="46.2318717" lon="7.3104683"><ele></ele><time>2016-5-22T16:32:9Z</time></trkpt>
<trkpt lat="46.2318433" lon="7.3104283"><ele></ele><time>2016-5-22T16:32:12Z</time></trkpt>
<trkpt lat="46.2318217" lon="7.3103817"><ele></ele><time>2016-5-22T16:32:15Z</time></trkpt>
<trkpt lat="46.2317983" lon="7.3103250"><ele></ele><time>2016-5-22T16:32:18Z</time></trkpt>
<trkpt lat="46.2317767" lon="7.3102750"><ele></ele><time>2016-5-22T16:32:21Z</time></trkpt>
<trkpt lat="46.2317550" lon="7.3102317"><ele></ele><time>2016-5-22T16:32:24Z</time></trkpt>
<trkpt lat="46.2317333" lon="7.3101833"><ele></ele><time>2016-5-22T16:32:27Z</time></trkpt>
<trkpt lat="46.2317067" lon="7.3101333"><ele></ele><time>2016-5-22T16:32:30Z</time></trkpt>
<trkpt lat="46.2316867" lon="7.3100883"><ele></ele><time>2016-5-22T16:32:33Z</time></trkpt>
<trkpt lat="46.2316633" lon="7.3100300"><ele></ele><time>2016-5-22T16:32:36Z</time></trkpt>
<trkpt lat="46.2316467" lon="7.3099750"><ele></ele><time>2016-5-22T16:32:39Z</time></trkpt>
<trkpt lat="46.2316367" lon="7.3099183"><ele></ele><time>2016-5-22T16:32:42Z</time></trkpt>
<trkpt lat="46.2316183" lon="7.3098500"><ele></ele><time>2016-5-22T16:32:45Z</time></trkpt>
<trkpt lat="46.2316133" lon="7.3097900"><ele></ele><time>2016-5-22T16:32:48Z</time></trkpt>
<trkpt lat="46.2316200" lon="7.3097183"><ele></ele><time>2016-5-22T16:32:51Z</time></trkpt>
<trkpt lat="46.2316183" lon="7.3096450"><ele></ele><time>2016-5-22T16:32:54Z</time></trkpt>
<trkpt lat="46.2316167" lon="7.3095750"><ele></ele><time>2016-5-22T16:32:57Z</time></trkpt>
<trkpt lat="46.2316100" lon="7.3094933"><ele></ele><time>2016-5-22T16:33:0Z</time></trkpt>
<trkpt lat="46.2316033" lon="7.3094283"><ele></ele><time>2016-5-22T16:33:3Z</time></trkpt>
<trkpt lat="46.2316017" lon="7.3093533"><ele></ele><time>2016-5-22T16:33:6Z</time></trkpt>
<trkpt lat="46.2315983" lon="7.3092817"><ele></ele><time>2016-5-22T16:33:9Z</time></trkpt>
<trkpt lat="46.2315883" lon="7.3092017"><ele></ele><time>2016-5-22T16:33:12Z</time></trkpt>
<trkpt lat="46.2315867" lon="7.3091217"><ele></ele><time>2016-5-22T16:33:15Z</time></trkpt>
<trkpt lat="46.2315867" lon="7.3090383"><ele></ele><time>2016-5-22T16:33:18Z</time></trkpt>
<trkpt lat="46.2315833" lon="7.3089583"><ele></ele><time>2016-5-22T16:33:21Z</time></trkpt>
<trkpt lat="46.2315750" lon="7.3089150"><ele></ele><time>2016-5-22T16:33:24Z</time></trkpt>
<trkpt lat="46.2314317" lon="7.3089700"><ele></ele><time>2016-5-22T16:33:27Z</time></trkpt>
<trkpt lat="46.2315567" lon="7.3088850"><ele></ele><time>2016-5-22T16:33:30Z</time></trkpt>
<trkpt lat="46.2315250" lon="7.3088933"><ele></ele><time>2016-5-22T16:33:33Z</time></trkpt>
<trkpt lat="46.2314583" lon="7.3086250"><ele></ele><time>2016-5-22T16:33:36Z</time></trkpt>
<trkpt lat="46.2314217" lon="7.3085550"><ele></ele><time>2016-5-22T16:33:39Z</time></trkpt>
<trkpt lat="46.2313933" lon="7.3084717"><ele></ele><time>2016-5-22T16:33:42Z</time></trkpt>
<trkpt lat="46.2313700" lon="7.3084217"><ele></ele><time>2016-5-22T16:33:45Z</time></trkpt>
<trkpt lat="46.2313267" lon="7.3083517"><ele></ele><time>2016-5-22T16:33:48Z</time></trkpt>
<trkpt lat="46.2313117" lon="7.3083200"><ele></ele><time>2016-5-22T16:33:51Z</time></trkpt>
<trkpt lat="46.2313117" lon="7.3083200"><ele></ele><time>2016-5-22T16:33:54Z</time></trkpt>
<trkpt lat="46.2312167" lon="7.3081283"><ele></ele><time>2016-5-22T16:33:57Z</time></trkpt>
<trkpt lat="46.2311917" lon="7.3080483"><ele></ele><time>2016-5-22T16:34:0Z</time></trkpt>
<trkpt lat="46.2311550" lon="7.3079700"><ele></ele><time>2016-5-22T16:34:3Z</time></trkpt>
<trkpt lat="46.2311200" lon="7.3078783"><ele></ele><time>2016-5-22T16:34:6Z</time></trkpt>
<trkpt lat="46.2310783" lon="7.3077950"><ele></ele><time>2016-5-22T16:34:9Z</time></trkpt>
<trkpt lat="46.2310400" lon="7.3076983"><ele></ele><time>2016-5-22T16:34:12Z</time></trkpt>
<trkpt lat="46.2310083" lon="7.3076150"><ele></ele><time>2016-5-22T16:34:15Z</time></trkpt>
<trkpt lat="46.2309800" lon="7.3075217"><ele></ele><time>2016-5-22T16:34:18Z</time></trkpt>
<trkpt lat="46.2309550" lon="7.3074400"><ele></ele><time>2016-5-22T16:34:21Z</time></trkpt>
<trkpt lat="46.2309333" lon="7.3073400"><ele></ele><time>2016-5-22T16:34:24Z</time></trkpt>
<trkpt lat="46.2309117" lon="7.3072500"><ele></ele><time>2016-5-22T16:34:27Z</time></trkpt>
<trkpt lat="46.2308867" lon="7.3071467"><ele></ele><time>2016-5-22T16:34:30Z</time></trkpt>
<trkpt lat="46.2308633" lon="7.3070533"><ele></ele><time>2016-5-22T16:34:33Z</time></trkpt>
<trkpt lat="46.2308567" lon="7.3069450"><ele></ele><time>2016-5-22T16:34:36Z</time></trkpt>
<trkpt lat="46.2308433" lon="7.3068517"><ele></ele><time>2016-5-22T16:34:39Z</time></trkpt>
<trkpt lat="46.2308217" lon="7.3067500"><ele></ele><time>2016-5-22T16:34:42Z</time></trkpt>
<trkpt lat="46.2308067" lon="7.3066483"><ele></ele><time>2016-5-22T16:34:45Z</time></trkpt>
<trkpt lat="46.2307900" lon="7.3065517"><ele></ele><time>2016-5-22T16:34:48Z</time></trkpt>
<trkpt lat="46.2307683" lon="7.3064450"><ele></ele><time>2016-5-22T16:34:51Z</time></trkpt>
<trkpt lat="46.2307500" lon="7.3063400"><ele></ele><time>2016-5-22T16:34:54Z</time></trkpt>
<trkpt lat="46.2307183" lon="7.3062183"><ele></ele><time>2016-5-22T16:34:57Z</time></trkpt>
<trkpt lat="46.2306900" lon="7.3061083"><ele></ele><time>2016-5-22T16:35:0Z</time></trkpt>
<trkpt lat="46.2306617" lon="7.3059967"><ele></ele><time>2016-5-22T16:35:3Z</time></trkpt>
<trkpt lat="46.2306333" lon="7.3058917"><ele></ele><time>2016-5-22T16:35:6Z</time></trkpt>
<trkpt lat="46.2306050" lon="7.3057900"><ele></ele><time>2016-5-22T16:35:9Z</time></trkpt>
<trkpt lat="46.2305867" lon="7.3056717"><ele></ele><time>2016-5-22T16:35:12Z</time></trkpt>
<trkpt lat="46.2305567" lon="7.3055683"><ele></ele><time>2016-5-22T16:35:15Z</time></trkpt>
<trkpt lat="46.2305250" lon="7.3054650"><ele></ele><time>2016-5-22T16:35:18Z</time></trkpt>
<trkpt lat="46.2304900" lon="7.3053700"><ele></ele><time>2016-5-22T16:35:21Z</time></trkpt>
<trkpt lat="46.2304633" lon="7.3052683"><ele></ele><time>2016-5-22T16:35:24Z</time></trkpt>
<trkpt lat="46.2304517" lon="7.3051800"><ele></ele><time>2016-5-22T16:35:27Z</time></trkpt>
<trkpt lat="46.2304350" lon="7.3050833"><ele></ele><time>2016-5-22T16:35:30Z</time></trkpt>
<trkpt lat="46.2304217" lon="7.3049733"><ele></ele><time>2016-5-22T16:35:33Z</time></trkpt>
<trkpt lat="46.2303867" lon="7.3048667"><ele></ele><time>2016-5-22T16:35:36Z</time></trkpt>
<trkpt lat="46.2303767" lon="7.3048633"><ele></ele><time>2016-5-22T16:35:39Z</time></trkpt>
<trkpt lat="46.2303783" lon="7.3048617"><ele></ele><time>2016-5-22T16:35:42Z</time></trkpt>
<trkpt lat="46.2303000" lon="7.3045767"><ele></ele><time>2016-5-22T16:35:45Z</time></trkpt>
<trkpt lat="46.2302700" lon="7.3044950"><ele></ele><time>2016-5-22T16:35:48Z</time></trkpt>
<trkpt lat="46.2302367" lon="7.3044133"><ele></ele><time>2016-5-22T16:35:51Z</time></trkpt>
<trkpt lat="46.2302200" lon="7.3043283"><ele></ele><time>2016-5-22T16:35:54Z</time></trkpt>
<trkpt lat="46.2302000" lon="7.3042417"><ele></ele><time>2016-5-22T16:35:57Z</time></trkpt>
<trkpt lat="46.2301783" lon="7.3041383"><ele></ele><time>2016-5-22T16:36:0Z</time></trkpt>
<trkpt lat="46.2301650" lon="7.3040300"><ele></ele><time>2016-5-22T16:36:3Z</time></trkpt>
<trkpt lat="46.2301333" lon="7.3039267"><ele></ele><time>2016-5-22T16:36:6Z</time></trkpt>
<trkpt lat="46.2301267" lon="7.3038483"><ele></ele><time>2016-5-22T16:36:9Z</time></trkpt>
<trkpt lat="46.2300983" lon="7.3037600"><ele></ele><time>2016-5-22T16:36:12Z</time></trkpt>
<trkpt lat="46.2300683" lon="7.3036783"><ele></ele><time>2016-5-22T16:36:15Z</time></trkpt>
<trkpt lat="46.2300467" lon="7.3036567"><ele></ele><time>2016-5-22T16:36:18Z</time></trkpt>
<trkpt lat="46.2300500" lon="7.3036533"><ele></ele><time>2016-5-22T16:36:21Z</time></trkpt>
<trkpt lat="46.2299900" lon="7.3035500"><ele></ele><time>2016-5-22T16:36:24Z</time></trkpt>
<trkpt lat="46.2299933" lon="7.3032817"><ele></ele><time>2016-5-22T16:36:27Z</time></trkpt>
<trkpt lat="46.2299850" lon="7.3031583"><ele></ele><time>2016-5-22T16:36:30Z</time></trkpt>
<trkpt lat="46.2299783" lon="7.3030633"><ele></ele><time>2016-5-22T16:36:33Z</time></trkpt>
<trkpt lat="46.2299717" lon="7.3029767"><ele></ele><time>2016-5-22T16:36:36Z</time></trkpt>
<trkpt lat="46.2299633" lon="7.3028600"><ele></ele><time>2016-5-22T16:36:39Z</time></trkpt>
<trkpt lat="46.2299600" lon="7.3028117"><ele></ele><time>2016-5-22T16:36:42Z</time></trkpt>
<trkpt lat="46.2299550" lon="7.3026400"><ele></ele><time>2016-5-22T16:36:45Z</time></trkpt>
<trkpt lat="46.2299550" lon="7.3025333"><ele></ele><time>2016-5-22T16:36:48Z</time></trkpt>
<trkpt lat="46.2299550" lon="7.3024383"><ele></ele><time>2016-5-22T16:36:51Z</time></trkpt>
<trkpt lat="46.2299550" lon="7.3024017"><ele></ele><time>2016-5-22T16:36:54Z</time></trkpt>
<trkpt lat="46.2299550" lon="7.3024217"><ele></ele><time>2016-5-22T16:36:57Z</time></trkpt>
<trkpt lat="46.2299533" lon="7.3021267"><ele></ele><time>2016-5-22T16:37:0Z</time></trkpt>
<trkpt lat="46.2299533" lon="7.3020633"><ele></ele><time>2016-5-22T16:37:3Z</time></trkpt>
<trkpt lat="46.2299533" lon="7.3020617"><ele></ele><time>2016-5-22T16:37:6Z</time></trkpt>
<trkpt lat="46.2299450" lon="7.3018650"><ele></ele><time>2016-5-22T16:37:9Z</time></trkpt>
<trkpt lat="46.2299400" lon="7.3017617"><ele></ele><time>2016-5-22T16:37:12Z</time></trkpt>
<trkpt lat="46.2299350" lon="7.3016583"><ele></ele><time>2016-5-22T16:37:15Z</time></trkpt>
<trkpt lat="46.2299317" lon="7.3015667"><ele></ele><time>2016-5-22T16:37:18Z</time></trkpt>
<trkpt lat="46.2299283" lon="7.3014717"><ele></ele><time>2016-5-22T16:37:21Z</time></trkpt>
<trkpt lat="46.2299233" lon="7.3013683"><ele></ele><time>2016-5-22T16:37:24Z</time></trkpt>
<trkpt lat="46.2299217" lon="7.3013483"><ele></ele><time>2016-5-22T16:37:27Z</time></trkpt>
<trkpt lat="46.2299217" lon="7.3013483"><ele></ele><time>2016-5-22T16:37:30Z</time></trkpt>
<trkpt lat="46.2298967" lon="7.3010967"><ele></ele><time>2016-5-22T16:37:33Z</time></trkpt>
<trkpt lat="46.2298783" lon="7.3010033"><ele></ele><time>2016-5-22T16:37:36Z</time></trkpt>
<trkpt lat="46.2298600" lon="7.3009233"><ele></ele><time>2016-5-22T16:37:39Z</time></trkpt>
<trkpt lat="46.2298383" lon="7.3008300"><ele></ele><time>2016-5-22T16:37:42Z</time></trkpt>
<trkpt lat="46.2298183" lon="7.3007583"><ele></ele><time>2016-5-22T16:37:45Z</time></trkpt>
<trkpt lat="46.2297950" lon="7.3006800"><ele></ele><time>2016-5-22T16:37:48Z</time></trkpt>
<trkpt lat="46.2297683" lon="7.3005883"><ele></ele><time>2016-5-22T16:37:51Z</time></trkpt>
<trkpt lat="46.2297450" lon="7.3005100"><ele></ele><time>2016-5-22T16:37:54Z</time></trkpt>
<trkpt lat="46.2297217" lon="7.3004300"><ele></ele><time>2016-5-22T16:37:57Z</time></trkpt>
<trkpt lat="46.2296967" lon="7.3003483"><ele></ele><time>2016-5-22T16:38:0Z</time></trkpt>
<trkpt lat="46.2296750" lon="7.3002750"><ele></ele><time>2016-5-22T16:38:3Z</time></trkpt>
<trkpt lat="46.2296517" lon="7.3001950"><ele></ele><time>2016-5-22T16:38:6Z</time></trkpt>
<trkpt lat="46.2296283" lon="7.3001167"><ele></ele><time>2016-5-22T16:38:9Z</time></trkpt>
<trkpt lat="46.2296000" lon="7.3000200"><ele></ele><time>2016-5-22T16:38:12Z</time></trkpt>
<trkpt lat="46.2295767" lon="7.2999417"><ele></ele><time>2016-5-22T16:38:15Z</time></trkpt>
<trkpt lat="46.2295483" lon="7.2998467"><ele></ele><time>2016-5-22T16:38:18Z</time></trkpt>
<trkpt lat="46.2295283" lon="7.2997767"><ele></ele><time>2016-5-22T16:38:21Z</time></trkpt>
<trkpt lat="46.2295033" lon="7.2996950"><ele></ele><time>2016-5-22T16:38:24Z</time></trkpt>
<trkpt lat="46.2294733" lon="7.2996033"><ele></ele><time>2016-5-22T16:38:27Z</time></trkpt>
<trkpt lat="46.2294450" lon="7.2995183"><ele></ele><time>2016-5-22T16:38:30Z</time></trkpt>
<trkpt lat="46.2294183" lon="7.2994450"><ele></ele><time>2016-5-22T16:38:33Z</time></trkpt>
<trkpt lat="46.2293933" lon="7.2993850"><ele></ele><time>2016-5-22T16:38:36Z</time></trkpt>
<trkpt lat="46.2293667" lon="7.2993183"><ele></ele><time>2016-5-22T16:38:39Z</time></trkpt>
<trkpt lat="46.2293383" lon="7.2992467"><ele></ele><time>2016-5-22T16:38:42Z</time></trkpt>
<trkpt lat="46.2293183" lon="7.2991867"><ele></ele><time>2016-5-22T16:38:45Z</time></trkpt>
<trkpt lat="46.2292933" lon="7.2990983"><ele></ele><time>2016-5-22T16:38:48Z</time></trkpt>
<trkpt lat="46.2292783" lon="7.2990167"><ele></ele><time>2016-5-22T16:38:51Z</time></trkpt>
<trkpt lat="46.2292700" lon="7.2989400"><ele></ele><time>2016-5-22T16:38:54Z</time></trkpt>
<trkpt lat="46.2292650" lon="7.2988483"><ele></ele><time>2016-5-22T16:38:57Z</time></trkpt>
<trkpt lat="46.2292617" lon="7.2987500"><ele></ele><time>2016-5-22T16:39:0Z</time></trkpt>
<trkpt lat="46.2292583" lon="7.2986667"><ele></ele><time>2016-5-22T16:39:3Z</time></trkpt>
<trkpt lat="46.2292567" lon="7.2985917"><ele></ele><time>2016-5-22T16:39:6Z</time></trkpt>
<trkpt lat="46.2292517" lon="7.2985000"><ele></ele><time>2016-5-22T16:39:9Z</time></trkpt>
<trkpt lat="46.2292450" lon="7.2984067"><ele></ele><time>2016-5-22T16:39:12Z</time></trkpt>
<trkpt lat="46.2292367" lon="7.2983250"><ele></ele><time>2016-5-22T16:39:15Z</time></trkpt>
<trkpt lat="46.2292283" lon="7.2982550"><ele></ele><time>2016-5-22T16:39:18Z</time></trkpt>
<trkpt lat="46.2292100" lon="7.2981533"><ele></ele><time>2016-5-22T16:39:21Z</time></trkpt>
<trkpt lat="46.2291900" lon="7.2980533"><ele></ele><time>2016-5-22T16:39:24Z</time></trkpt>
<trkpt lat="46.2291717" lon="7.2979800"><ele></ele><time>2016-5-22T16:39:27Z</time></trkpt>
<trkpt lat="46.2291500" lon="7.2978917"><ele></ele><time>2016-5-22T16:39:30Z</time></trkpt>
<trkpt lat="46.2291283" lon="7.2978117"><ele></ele><time>2016-5-22T16:39:33Z</time></trkpt>
<trkpt lat="46.2291067" lon="7.2977317"><ele></ele><time>2016-5-22T16:39:36Z</time></trkpt>
<trkpt lat="46.2290833" lon="7.2976483"><ele></ele><time>2016-5-22T16:39:39Z</time></trkpt>
<trkpt lat="46.2290617" lon="7.2975750"><ele></ele><time>2016-5-22T16:39:42Z</time></trkpt>
<trkpt lat="46.2290400" lon="7.2974967"><ele></ele><time>2016-5-22T16:39:45Z</time></trkpt>
<trkpt lat="46.2290117" lon="7.2974067"><ele></ele><time>2016-5-22T16:39:48Z</time></trkpt>
<trkpt lat="46.2289850" lon="7.2973233"><ele></ele><time>2016-5-22T16:39:51Z</time></trkpt>
<trkpt lat="46.2289600" lon="7.2972433"><ele></ele><time>2016-5-22T16:39:54Z</time></trkpt>
<trkpt lat="46.2289617" lon="7.2972450"><ele></ele><time>2016-5-22T16:39:57Z</time></trkpt>
<trkpt lat="46.2289167" lon="7.2970717"><ele></ele><time>2016-5-22T16:40:0Z</time></trkpt>
<trkpt lat="46.2288900" lon="7.2969600"><ele></ele><time>2016-5-22T16:40:3Z</time></trkpt>
<trkpt lat="46.2288667" lon="7.2968633"><ele></ele><time>2016-5-22T16:40:6Z</time></trkpt>
<trkpt lat="46.2288533" lon="7.2967900"><ele></ele><time>2016-5-22T16:40:9Z</time></trkpt>
<trkpt lat="46.2288417" lon="7.2967017"><ele></ele><time>2016-5-22T16:40:12Z</time></trkpt>
<trkpt lat="46.2288350" lon="7.2966317"><ele></ele><time>2016-5-22T16:40:15Z</time></trkpt>
<trkpt lat="46.2288267" lon="7.2965450"><ele></ele><time>2016-5-22T16:40:18Z</time></trkpt>
<trkpt lat="46.2288217" lon="7.2964517"><ele></ele><time>2016-5-22T16:40:21Z</time></trkpt>
<trkpt lat="46.2288167" lon="7.2963650"><ele></ele><time>2016-5-22T16:40:24Z</time></trkpt>
<trkpt lat="46.2288100" lon="7.2962833"><ele></ele><time>2016-5-22T16:40:27Z</time></trkpt>
<trkpt lat="46.2288017" lon="7.2962050"><ele></ele><time>2016-5-22T16:40:30Z</time></trkpt>
<trkpt lat="46.2287950" lon="7.2961250"><ele></ele><time>2016-5-22T16:40:33Z</time></trkpt>
<trkpt lat="46.2287833" lon="7.2960300"><ele></ele><time>2016-5-22T16:40:36Z</time></trkpt>
<trkpt lat="46.2287717" lon="7.2959533"><ele></ele><time>2016-5-22T16:40:39Z</time></trkpt>
<trkpt lat="46.2287567" lon="7.2958617"><ele></ele><time>2016-5-22T16:40:42Z</time></trkpt>
<trkpt lat="46.2287633" lon="7.2957483"><ele></ele><time>2016-5-22T16:40:45Z</time></trkpt>
<trkpt lat="46.2287367" lon="7.2956683"><ele></ele><time>2016-5-22T16:40:48Z</time></trkpt>
<trkpt lat="46.2287183" lon="7.2955867"><ele></ele><time>2016-5-22T16:40:51Z</time></trkpt>
<trkpt lat="46.2286833" lon="7.2955200"><ele></ele><time>2016-5-22T16:40:54Z</time></trkpt>
<trkpt lat="46.2286467" lon="7.2954517"><ele></ele><time>2016-5-22T16:40:57Z</time></trkpt>
<trkpt lat="46.2286050" lon="7.2953917"><ele></ele><time>2016-5-22T16:41:0Z</time></trkpt>
<trkpt lat="46.2285733" lon="7.2953133"><ele></ele><time>2016-5-22T16:41:3Z</time></trkpt>
<trkpt lat="46.2285417" lon="7.2952433"><ele></ele><time>2016-5-22T16:41:6Z</time></trkpt>
<trkpt lat="46.2285217" lon="7.2951583"><ele></ele><time>2016-5-22T16:41:9Z</time></trkpt>
<trkpt lat="46.2285000" lon="7.2950883"><ele></ele><time>2016-5-22T16:41:12Z</time></trkpt>
<trkpt lat="46.2284883" lon="7.2950100"><ele></ele><time>2016-5-22T16:41:15Z</time></trkpt>
<trkpt lat="46.2284700" lon="7.2949350"><ele></ele><time>2016-5-22T16:41:18Z</time></trkpt>
<trkpt lat="46.2284567" lon="7.2948500"><ele></ele><time>2016-5-22T16:41:21Z</time></trkpt>
<trkpt lat="46.2284367" lon="7.2947767"><ele></ele><time>2016-5-22T16:41:24Z</time></trkpt>
<trkpt lat="46.2284250" lon="7.2947050"><ele></ele><time>2016-5-22T16:41:27Z</time></trkpt>
<trkpt lat="46.2284133" lon="7.2946283"><ele></ele><time>2016-5-22T16:41:30Z</time></trkpt>
<trkpt lat="46.2284050" lon="7.2945600"><ele></ele><time>2016-5-22T16:41:33Z</time></trkpt>
<trkpt lat="46.2284050" lon="7.2944717"><ele></ele><time>2016-5-22T16:41:36Z</time></trkpt>
<trkpt lat="46.2284000" lon="7.2943933"><ele></ele><time>2016-5-22T16:41:39Z</time></trkpt>
<trkpt lat="46.2284033" lon="7.2943100"><ele></ele><time>2016-5-22T16:41:42Z</time></trkpt>
<trkpt lat="46.2284150" lon="7.2942450"><ele></ele><time>2016-5-22T16:41:45Z</time></trkpt>
<trkpt lat="46.2284233" lon="7.2941617"><ele></ele><time>2016-5-22T16:41:48Z</time></trkpt>
<trkpt lat="46.2284350" lon="7.2940900"><ele></ele><time>2016-5-22T16:41:51Z</time></trkpt>
<trkpt lat="46.2284533" lon="7.2940217"><ele></ele><time>2016-5-22T16:41:54Z</time></trkpt>
<trkpt lat="46.2284633" lon="7.2939533"><ele></ele><time>2016-5-22T16:41:57Z</time></trkpt>
<trkpt lat="46.2284767" lon="7.2938817"><ele></ele><time>2016-5-22T16:42:0Z</time></trkpt>
<trkpt lat="46.2284867" lon="7.2938133"><ele></ele><time>2016-5-22T16:42:3Z</time></trkpt>
<trkpt lat="46.2285033" lon="7.2937333"><ele></ele><time>2016-5-22T16:42:6Z</time></trkpt>
<trkpt lat="46.2285167" lon="7.2936500"><ele></ele><time>2016-5-22T16:42:9Z</time></trkpt>
<trkpt lat="46.2285350" lon="7.2935800"><ele></ele><time>2016-5-22T16:42:12Z</time></trkpt>
<trkpt lat="46.2285533" lon="7.2934900"><ele></ele><time>2016-5-22T16:42:15Z</time></trkpt>
<trkpt lat="46.2285783" lon="7.2934033"><ele></ele><time>2016-5-22T16:42:18Z</time></trkpt>
<trkpt lat="46.2286033" lon="7.2933250"><ele></ele><time>2016-5-22T16:42:21Z</time></trkpt>
<trkpt lat="46.2286250" lon="7.2932417"><ele></ele><time>2016-5-22T16:42:24Z</time></trkpt>
<trkpt lat="46.2286367" lon="7.2931550"><ele></ele><time>2016-5-22T16:42:27Z</time></trkpt>
<trkpt lat="46.2286400" lon="7.2930667"><ele></ele><time>2016-5-22T16:42:30Z</time></trkpt>
<trkpt lat="46.2286317" lon="7.2929817"><ele></ele><time>2016-5-22T16:42:33Z</time></trkpt>
<trkpt lat="46.2286167" lon="7.2928983"><ele></ele><time>2016-5-22T16:42:36Z</time></trkpt>
<trkpt lat="46.2285917" lon="7.2928150"><ele></ele><time>2016-5-22T16:42:39Z</time></trkpt>
<trkpt lat="46.2285567" lon="7.2927500"><ele></ele><time>2016-5-22T16:42:42Z</time></trkpt>
<trkpt lat="46.2285183" lon="7.2926850"><ele></ele><time>2016-5-22T16:42:45Z</time></trkpt>
<trkpt lat="46.2284783" lon="7.2926233"><ele></ele><time>2016-5-22T16:42:48Z</time></trkpt>
<trkpt lat="46.2284383" lon="7.2925583"><ele></ele><time>2016-5-22T16:42:51Z</time></trkpt>
<trkpt lat="46.2284017" lon="7.2924950"><ele></ele><time>2016-5-22T16:42:54Z</time></trkpt>
<trkpt lat="46.2283617" lon="7.2924350"><ele></ele><time>2016-5-22T16:42:57Z</time></trkpt>
<trkpt lat="46.2283167" lon="7.2923683"><ele></ele><time>2016-5-22T16:43:0Z</time></trkpt>
<trkpt lat="46.2282783" lon="7.2923067"><ele></ele><time>2016-5-22T16:43:3Z</time></trkpt>
<trkpt lat="46.2282400" lon="7.2922400"><ele></ele><time>2016-5-22T16:43:6Z</time></trkpt>
<trkpt lat="46.2282067" lon="7.2921700"><ele></ele><time>2016-5-22T16:43:9Z</time></trkpt>
<trkpt lat="46.2281700" lon="7.2920950"><ele></ele><time>2016-5-22T16:43:12Z</time></trkpt>
<trkpt lat="46.2281383" lon="7.2920217"><ele></ele><time>2016-5-22T16:43:15Z</time></trkpt>
<trkpt lat="46.2281100" lon="7.2919433"><ele></ele><time>2016-5-22T16:43:18Z</time></trkpt>
<trkpt lat="46.2280817" lon="7.2918667"><ele></ele><time>2016-5-22T16:43:21Z</time></trkpt>
<trkpt lat="46.2280550" lon="7.2917833"><ele></ele><time>2016-5-22T16:43:24Z</time></trkpt>
<trkpt lat="46.2280283" lon="7.2917000"><ele></ele><time>2016-5-22T16:43:27Z</time></trkpt>
<trkpt lat="46.2280067" lon="7.2916133"><ele></ele><time>2016-5-22T16:43:30Z</time></trkpt>
<trkpt lat="46.2279867" lon="7.2915300"><ele></ele><time>2016-5-22T16:43:33Z</time></trkpt>
<trkpt lat="46.2279633" lon="7.2914450"><ele></ele><time>2016-5-22T16:43:36Z</time></trkpt>
<trkpt lat="46.2279367" lon="7.2913617"><ele></ele><time>2016-5-22T16:43:39Z</time></trkpt>
<trkpt lat="46.2279050" lon="7.2912850"><ele></ele><time>2016-5-22T16:43:42Z</time></trkpt>
<trkpt lat="46.2278833" lon="7.2912000"><ele></ele><time>2016-5-22T16:43:45Z</time></trkpt>
<trkpt lat="46.2278600" lon="7.2911117"><ele></ele><time>2016-5-22T16:43:48Z</time></trkpt>
<trkpt lat="46.2278400" lon="7.2910217"><ele></ele><time>2016-5-22T16:43:51Z</time></trkpt>
<trkpt lat="46.2278117" lon="7.2909383"><ele></ele><time>2016-5-22T16:43:54Z</time></trkpt>
<trkpt lat="46.2277750" lon="7.2908550"><ele></ele><time>2016-5-22T16:43:57Z</time></trkpt>
<trkpt lat="46.2277483" lon="7.2907750"><ele></ele><time>2016-5-22T16:44:0Z</time></trkpt>
<trkpt lat="46.2277167" lon="7.2906850"><ele></ele><time>2016-5-22T16:44:3Z</time></trkpt>
<trkpt lat="46.2276917" lon="7.2905833"><ele></ele><time>2016-5-22T16:44:6Z</time></trkpt>
<trkpt lat="46.2276667" lon="7.2904900"><ele></ele><time>2016-5-22T16:44:9Z</time></trkpt>
<trkpt lat="46.2276483" lon="7.2903900"><ele></ele><time>2016-5-22T16:44:12Z</time></trkpt>
<trkpt lat="46.2276283" lon="7.2902900"><ele></ele><time>2016-5-22T16:44:15Z</time></trkpt>
<trkpt lat="46.2276133" lon="7.2902000"><ele></ele><time>2016-5-22T16:44:18Z</time></trkpt>
<trkpt lat="46.2276050" lon="7.2901117"><ele></ele><time>2016-5-22T16:44:21Z</time></trkpt>
<trkpt lat="46.2275967" lon="7.2900050"><ele></ele><time>2016-5-22T16:44:24Z</time></trkpt>
<trkpt lat="46.2275917" lon="7.2899167"><ele></ele><time>2016-5-22T16:44:27Z</time></trkpt>
<trkpt lat="46.2275867" lon="7.2898250"><ele></ele><time>2016-5-22T16:44:30Z</time></trkpt>
<trkpt lat="46.2275783" lon="7.2897367"><ele></ele><time>2016-5-22T16:44:33Z</time></trkpt>
<trkpt lat="46.2275733" lon="7.2896467"><ele></ele><time>2016-5-22T16:44:36Z</time></trkpt>
<trkpt lat="46.2275717" lon="7.2895600"><ele></ele><time>2016-5-22T16:44:39Z</time></trkpt>
<trkpt lat="46.2275667" lon="7.2894717"><ele></ele><time>2016-5-22T16:44:42Z</time></trkpt>
<trkpt lat="46.2275667" lon="7.2893933"><ele></ele><time>2016-5-22T16:44:45Z</time></trkpt>
<trkpt lat="46.2275700" lon="7.2893050"><ele></ele><time>2016-5-22T16:44:48Z</time></trkpt>
<trkpt lat="46.2275933" lon="7.2892217"><ele></ele><time>2016-5-22T16:44:51Z</time></trkpt>
<trkpt lat="46.2276050" lon="7.2891367"><ele></ele><time>2016-5-22T16:44:54Z</time></trkpt>
<trkpt lat="46.2276183" lon="7.2890467"><ele></ele><time>2016-5-22T16:44:57Z</time></trkpt>
<trkpt lat="46.2276417" lon="7.2889700"><ele></ele><time>2016-5-22T16:45:0Z</time></trkpt>
<trkpt lat="46.2276367" lon="7.2888900"><ele></ele><time>2016-5-22T16:45:3Z</time></trkpt>
<trkpt lat="46.2276367" lon="7.2888050"><ele></ele><time>2016-5-22T16:45:6Z</time></trkpt>
<trkpt lat="46.2276367" lon="7.2887150"><ele></ele><time>2016-5-22T16:45:9Z</time></trkpt>
<trkpt lat="46.2276300" lon="7.2886200"><ele></ele><time>2016-5-22T16:45:12Z</time></trkpt>
<trkpt lat="46.2276183" lon="7.2885250"><ele></ele><time>2016-5-22T16:45:15Z</time></trkpt>
<trkpt lat="46.2276067" lon="7.2884250"><ele></ele><time>2016-5-22T16:45:18Z</time></trkpt>
<trkpt lat="46.2275917" lon="7.2883333"><ele></ele><time>2016-5-22T16:45:21Z</time></trkpt>
<trkpt lat="46.2275700" lon="7.2882400"><ele></ele><time>2016-5-22T16:45:24Z</time></trkpt>
<trkpt lat="46.2275583" lon="7.2881483"><ele></ele><time>2016-5-22T16:45:27Z</time></trkpt>
<trkpt lat="46.2275433" lon="7.2880583"><ele></ele><time>2016-5-22T16:45:30Z</time></trkpt>
<trkpt lat="46.2275317" lon="7.2879667"><ele></ele><time>2016-5-22T16:45:33Z</time></trkpt>
<trkpt lat="46.2275300" lon="7.2878700"><ele></ele><time>2016-5-22T16:45:36Z</time></trkpt>
<trkpt lat="46.2275133" lon="7.2877883"><ele></ele><time>2016-5-22T16:45:39Z</time></trkpt>
<trkpt lat="46.2274933" lon="7.2877133"><ele></ele><time>2016-5-22T16:45:42Z</time></trkpt>
<trkpt lat="46.2274800" lon="7.2876517"><ele></ele><time>2016-5-22T16:45:45Z</time></trkpt>
<trkpt lat="46.2274583" lon="7.2875617"><ele></ele><time>2016-5-22T16:45:48Z</time></trkpt>
<trkpt lat="46.2274467" lon="7.2875050"><ele></ele><time>2016-5-22T16:45:51Z</time></trkpt>
<trkpt lat="46.2274333" lon="7.2874267"><ele></ele><time>2016-5-22T16:45:54Z</time></trkpt>
<trkpt lat="46.2274233" lon="7.2873467"><ele></ele><time>2016-5-22T16:45:57Z</time></trkpt>
<trkpt lat="46.2274167" lon="7.2872500"><ele></ele><time>2016-5-22T16:46:0Z</time></trkpt>
<trkpt lat="46.2274050" lon="7.2871567"><ele></ele><time>2016-5-22T16:46:3Z</time></trkpt>
<trkpt lat="46.2273883" lon="7.2870467"><ele></ele><time>2016-5-22T16:46:6Z</time></trkpt>
<trkpt lat="46.2274000" lon="7.2869550"><ele></ele><time>2016-5-22T16:46:9Z</time></trkpt>
<trkpt lat="46.2273967" lon="7.2868600"><ele></ele><time>2016-5-22T16:46:12Z</time></trkpt>
<trkpt lat="46.2273967" lon="7.2867600"><ele></ele><time>2016-5-22T16:46:15Z</time></trkpt>
<trkpt lat="46.2273950" lon="7.2866633"><ele></ele><time>2016-5-22T16:46:18Z</time></trkpt>
<trkpt lat="46.2273850" lon="7.2865650"><ele></ele><time>2016-5-22T16:46:21Z</time></trkpt>
<trkpt lat="46.2273750" lon="7.2864650"><ele></ele><time>2016-5-22T16:46:24Z</time></trkpt>
<trkpt lat="46.2273817" lon="7.2863733"><ele></ele><time>2016-5-22T16:46:27Z</time></trkpt>
<trkpt lat="46.2273717" lon="7.2862917"><ele></ele><time>2016-5-22T16:46:30Z</time></trkpt>
<trkpt lat="46.2273633" lon="7.2862117"><ele></ele><time>2016-5-22T16:46:33Z</time></trkpt>
<trkpt lat="46.2273500" lon="7.2861267"><ele></ele><time>2016-5-22T16:46:36Z</time></trkpt>
<trkpt lat="46.2273383" lon="7.2860450"><ele></ele><time>2016-5-22T16:46:39Z</time></trkpt>
<trkpt lat="46.2273217" lon="7.2859650"><ele></ele><time>2016-5-22T16:46:42Z</time></trkpt>
<trkpt lat="46.2273100" lon="7.2859033"><ele></ele><time>2016-5-22T16:46:45Z</time></trkpt>
<trkpt lat="46.2272917" lon="7.2858450"><ele></ele><time>2016-5-22T16:46:48Z</time></trkpt>
<trkpt lat="46.2272717" lon="7.2857800"><ele></ele><time>2016-5-22T16:46:51Z</time></trkpt>
<trkpt lat="46.2272567" lon="7.2857167"><ele></ele><time>2016-5-22T16:46:54Z</time></trkpt>
<trkpt lat="46.2272500" lon="7.2856533"><ele></ele><time>2016-5-22T16:46:57Z</time></trkpt>
<trkpt lat="46.2272350" lon="7.2855833"><ele></ele><time>2016-5-22T16:47:0Z</time></trkpt>
<trkpt lat="46.2272183" lon="7.2855133"><ele></ele><time>2016-5-22T16:47:3Z</time></trkpt>
<trkpt lat="46.2272033" lon="7.2854433"><ele></ele><time>2016-5-22T16:47:6Z</time></trkpt>
<trkpt lat="46.2271933" lon="7.2853750"><ele></ele><time>2016-5-22T16:47:9Z</time></trkpt>
<trkpt lat="46.2271900" lon="7.2852983"><ele></ele><time>2016-5-22T16:47:12Z</time></trkpt>
<trkpt lat="46.2271933" lon="7.2852267"><ele></ele><time>2016-5-22T16:47:15Z</time></trkpt>
<trkpt lat="46.2271917" lon="7.2851650"><ele></ele><time>2016-5-22T16:47:18Z</time></trkpt>
<trkpt lat="46.2271850" lon="7.2850967"><ele></ele><time>2016-5-22T16:47:21Z</time></trkpt>
<trkpt lat="46.2271967" lon="7.2850500"><ele></ele><time>2016-5-22T16:47:24Z</time></trkpt>
<trkpt lat="46.2272167" lon="7.2850050"><ele></ele><time>2016-5-22T16:47:27Z</time></trkpt>
<trkpt lat="46.2272267" lon="7.2849667"><ele></ele><time>2016-5-22T16:47:30Z</time></trkpt>
<trkpt lat="46.2272383" lon="7.2849300"><ele></ele><time>2016-5-22T16:47:33Z</time></trkpt>
<trkpt lat="46.2272483" lon="7.2848950"><ele></ele><time>2016-5-22T16:47:36Z</time></trkpt>
<trkpt lat="46.2272583" lon="7.2848617"><ele></ele><time>2016-5-22T16:47:39Z</time></trkpt>
<trkpt lat="46.2272733" lon="7.2848200"><ele></ele><time>2016-5-22T16:47:42Z</time></trkpt>
<trkpt lat="46.2272683" lon="7.2847733"><ele></ele><time>2016-5-22T16:47:45Z</time></trkpt>
<trkpt lat="46.2272667" lon="7.2847200"><ele></ele><time>2016-5-22T16:47:48Z</time></trkpt>
<trkpt lat="46.2272567" lon="7.2846567"><ele></ele><time>2016-5-22T16:47:51Z</time></trkpt>
<trkpt lat="46.2272433" lon="7.2845783"><ele></ele><time>2016-5-22T16:47:54Z</time></trkpt>
<trkpt lat="46.2272383" lon="7.2844983"><ele></ele><time>2016-5-22T16:47:57Z</time></trkpt>
<trkpt lat="46.2272400" lon="7.2844033"><ele></ele><time>2016-5-22T16:48:0Z</time></trkpt>
<trkpt lat="46.2272317" lon="7.2843100"><ele></ele><time>2016-5-22T16:48:3Z</time></trkpt>
<trkpt lat="46.2272217" lon="7.2842217"><ele></ele><time>2016-5-22T16:48:6Z</time></trkpt>
<trkpt lat="46.2271933" lon="7.2841100"><ele></ele><time>2016-5-22T16:48:9Z</time></trkpt>
<trkpt lat="46.2271683" lon="7.2840050"><ele></ele><time>2016-5-22T16:48:12Z</time></trkpt>
<trkpt lat="46.2271500" lon="7.2839267"><ele></ele><time>2016-5-22T16:48:15Z</time></trkpt>
<trkpt lat="46.2271383" lon="7.2838367"><ele></ele><time>2016-5-22T16:48:18Z</time></trkpt>
<trkpt lat="46.2271250" lon="7.2837267"><ele></ele><time>2016-5-22T16:48:21Z</time></trkpt>
<trkpt lat="46.2271000" lon="7.2836067"><ele></ele><time>2016-5-22T16:48:24Z</time></trkpt>
<trkpt lat="46.2270783" lon="7.2835150"><ele></ele><time>2016-5-22T16:48:27Z</time></trkpt>
<trkpt lat="46.2270417" lon="7.2834017"><ele></ele><time>2016-5-22T16:48:30Z</time></trkpt>
<trkpt lat="46.2270200" lon="7.2832883"><ele></ele><time>2016-5-22T16:48:33Z</time></trkpt>
<trkpt lat="46.2269967" lon="7.2831850"><ele></ele><time>2016-5-22T16:48:36Z</time></trkpt>
<trkpt lat="46.2269883" lon="7.2831583"><ele></ele><time>2016-5-22T16:48:39Z</time></trkpt>
<trkpt lat="46.2269600" lon="7.2831033"><ele></ele><time>2016-5-22T16:48:42Z</time></trkpt>
<trkpt lat="46.2269433" lon="7.2830433"><ele></ele><time>2016-5-22T16:48:45Z</time></trkpt>
<trkpt lat="46.2269233" lon="7.2829850"><ele></ele><time>2016-5-22T16:48:48Z</time></trkpt>
<trkpt lat="46.2269400" lon="7.2829483"><ele></ele><time>2016-5-22T16:48:51Z</time></trkpt>
<trkpt lat="46.2269150" lon="7.2829000"><ele></ele><time>2016-5-22T16:48:54Z</time></trkpt>
<trkpt lat="46.2269150" lon="7.2828433"><ele></ele><time>2016-5-22T16:48:57Z</time></trkpt>
<trkpt lat="46.2269133" lon="7.2827717"><ele></ele><time>2016-5-22T16:49:0Z</time></trkpt>
<trkpt lat="46.2269017" lon="7.2827167"><ele></ele><time>2016-5-22T16:49:3Z</time></trkpt>
<trkpt lat="46.2269000" lon="7.2826617"><ele></ele><time>2016-5-22T16:49:6Z</time></trkpt>
<trkpt lat="46.2269050" lon="7.2826050"><ele></ele><time>2016-5-22T16:49:9Z</time></trkpt>
<trkpt lat="46.2269017" lon="7.2825583"><ele></ele><time>2016-5-22T16:49:12Z</time></trkpt>
<trkpt lat="46.2269000" lon="7.2825000"><ele></ele><time>2016-5-22T16:49:15Z</time></trkpt>
<trkpt lat="46.2268933" lon="7.2824567"><ele></ele><time>2016-5-22T16:49:18Z</time></trkpt>
<trkpt lat="46.2268867" lon="7.2824133"><ele></ele><time>2016-5-22T16:49:21Z</time></trkpt>
<trkpt lat="46.2268783" lon="7.2823700"><ele></ele><time>2016-5-22T16:49:24Z</time></trkpt>
<trkpt lat="46.2268683" lon="7.2823283"><ele></ele><time>2016-5-22T16:49:27Z</time></trkpt>
<trkpt lat="46.2268583" lon="7.2822867"><ele></ele><time>2016-5-22T16:49:30Z</time></trkpt>
<trkpt lat="46.2268533" lon="7.2822433"><ele></ele><time>2016-5-22T16:49:33Z</time></trkpt>
<trkpt lat="46.2268500" lon="7.2822033"><ele></ele><time>2016-5-22T16:49:36Z</time></trkpt>
<trkpt lat="46.2268483" lon="7.2821700"><ele></ele><time>2016-5-22T16:49:39Z</time></trkpt>
<trkpt lat="46.2268483" lon="7.2821367"><ele></ele><time>2016-5-22T16:49:42Z</time></trkpt>
<trkpt lat="46.2268483" lon="7.2820967"><ele></ele><time>2016-5-22T16:49:45Z</time></trkpt>
<trkpt lat="46.2268483" lon="7.2820617"><ele></ele><time>2016-5-22T16:49:48Z</time></trkpt>
<trkpt lat="46.2268450" lon="7.2820283"><ele></ele><time>2016-5-22T16:49:51Z</time></trkpt>
<trkpt lat="46.2268400" lon="7.2819883"><ele></ele><time>2016-5-22T16:49:54Z</time></trkpt>
<trkpt lat="46.2268350" lon="7.2819450"><ele></ele><time>2016-5-22T16:49:57Z</time></trkpt>
<trkpt lat="46.2268300" lon="7.2818983"><ele></ele><time>2016-5-22T16:50:0Z</time></trkpt>
<trkpt lat="46.2268250" lon="7.2818433"><ele></ele><time>2016-5-22T16:50:3Z</time></trkpt>
<trkpt lat="46.2268300" lon="7.2817767"><ele></ele><time>2016-5-22T16:50:6Z</time></trkpt>
<trkpt lat="46.2268317" lon="7.2816883"><ele></ele><time>2016-5-22T16:50:9Z</time></trkpt>
<trkpt lat="46.2268267" lon="7.2816050"><ele></ele><time>2016-5-22T16:50:12Z</time></trkpt>
<trkpt lat="46.2268117" lon="7.2815150"><ele></ele><time>2016-5-22T16:50:15Z</time></trkpt>
<trkpt lat="46.2268100" lon="7.2814283"><ele></ele><time>2016-5-22T16:50:18Z</time></trkpt>
<trkpt lat="46.2267983" lon="7.2813617"><ele></ele><time>2016-5-22T16:50:21Z</time></trkpt>
<trkpt lat="46.2267833" lon="7.2812900"><ele></ele><time>2016-5-22T16:50:24Z</time></trkpt>
<trkpt lat="46.2267650" lon="7.2812100"><ele></ele><time>2016-5-22T16:50:27Z</time></trkpt>
<trkpt lat="46.2267617" lon="7.2811517"><ele></ele><time>2016-5-22T16:50:30Z</time></trkpt>
<trkpt lat="46.2267483" lon="7.2810933"><ele></ele><time>2016-5-22T16:50:33Z</time></trkpt>
<trkpt lat="46.2267417" lon="7.2810367"><ele></ele><time>2016-5-22T16:50:36Z</time></trkpt>
<trkpt lat="46.2267067" lon="7.2809517"><ele></ele><time>2016-5-22T16:50:39Z</time></trkpt>
<trkpt lat="46.2266883" lon="7.2808783"><ele></ele><time>2016-5-22T16:50:42Z</time></trkpt>
<trkpt lat="46.2266933" lon="7.2807983"><ele></ele><time>2016-5-22T16:50:45Z</time></trkpt>
<trkpt lat="46.2266867" lon="7.2807183"><ele></ele><time>2016-5-22T16:50:48Z</time></trkpt>
<trkpt lat="46.2266683" lon="7.2806350"><ele></ele><time>2016-5-22T16:50:51Z</time></trkpt>
<trkpt lat="46.2266583" lon="7.2805467"><ele></ele><time>2016-5-22T16:50:54Z</time></trkpt>
<trkpt lat="46.2266417" lon="7.2804567"><ele></ele><time>2016-5-22T16:50:57Z</time></trkpt>
<trkpt lat="46.2266183" lon="7.2803700"><ele></ele><time>2016-5-22T16:51:0Z</time></trkpt>
<trkpt lat="46.2265950" lon="7.2803000"><ele></ele><time>2016-5-22T16:51:3Z</time></trkpt>
<trkpt lat="46.2265783" lon="7.2802267"><ele></ele><time>2016-5-22T16:51:6Z</time></trkpt>
<trkpt lat="46.2265633" lon="7.2801517"><ele></ele><time>2016-5-22T16:51:9Z</time></trkpt>
<trkpt lat="46.2265500" lon="7.2800700"><ele></ele><time>2016-5-22T16:51:12Z</time></trkpt>
<trkpt lat="46.2265350" lon="7.2799783"><ele></ele><time>2016-5-22T16:51:15Z</time></trkpt>
<trkpt lat="46.2265133" lon="7.2798783"><ele></ele><time>2016-5-22T16:51:18Z</time></trkpt>
<trkpt lat="46.2264933" lon="7.2797733"><ele></ele><time>2016-5-22T16:51:21Z</time></trkpt>
<trkpt lat="46.2264683" lon="7.2796617"><ele></ele><time>2016-5-22T16:51:24Z</time></trkpt>
<trkpt lat="46.2264517" lon="7.2795283"><ele></ele><time>2016-5-22T16:51:27Z</time></trkpt>
<trkpt lat="46.2264317" lon="7.2794183"><ele></ele><time>2016-5-22T16:51:30Z</time></trkpt>
<trkpt lat="46.2264000" lon="7.2793000"><ele></ele><time>2016-5-22T16:51:33Z</time></trkpt>
<trkpt lat="46.2263700" lon="7.2791867"><ele></ele><time>2016-5-22T16:51:36Z</time></trkpt>
<trkpt lat="46.2263417" lon="7.2790717"><ele></ele><time>2016-5-22T16:51:39Z</time></trkpt>
<trkpt lat="46.2263083" lon="7.2789500"><ele></ele><time>2016-5-22T16:51:42Z</time></trkpt>
<trkpt lat="46.2262700" lon="7.2788200"><ele></ele><time>2016-5-22T16:51:45Z</time></trkpt>
<trkpt lat="46.2262367" lon="7.2787117"><ele></ele><time>2016-5-22T16:51:48Z</time></trkpt>
<trkpt lat="46.2261883" lon="7.2785983"><ele></ele><time>2016-5-22T16:51:51Z</time></trkpt>
<trkpt lat="46.2261400" lon="7.2784800"><ele></ele><time>2016-5-22T16:51:54Z</time></trkpt>
<trkpt lat="46.2260900" lon="7.2783717"><ele></ele><time>2016-5-22T16:51:57Z</time></trkpt>
<trkpt lat="46.2260533" lon="7.2782883"><ele></ele><time>2016-5-22T16:52:0Z</time></trkpt>
<trkpt lat="46.2260317" lon="7.2782750"><ele></ele><time>2016-5-22T16:52:3Z</time></trkpt>
<trkpt lat="46.2260017" lon="7.2782350"><ele></ele><time>2016-5-22T16:52:6Z</time></trkpt>
<trkpt lat="46.2259667" lon="7.2782167"><ele></ele><time>2016-5-22T16:52:9Z</time></trkpt>
<trkpt lat="46.2259317" lon="7.2782300"><ele></ele><time>2016-5-22T16:52:12Z</time></trkpt>
<trkpt lat="46.2258950" lon="7.2782467"><ele></ele><time>2016-5-22T16:52:15Z</time></trkpt>
<trkpt lat="46.2258550" lon="7.2782800"><ele></ele><time>2016-5-22T16:52:18Z</time></trkpt>
<trkpt lat="46.2258200" lon="7.2783033"><ele></ele><time>2016-5-22T16:52:21Z</time></trkpt>
<trkpt lat="46.2257833" lon="7.2783383"><ele></ele><time>2016-5-22T16:52:24Z</time></trkpt>
<trkpt lat="46.2257583" lon="7.2783350"><ele></ele><time>2016-5-22T16:52:27Z</time></trkpt>
<trkpt lat="46.2257283" lon="7.2783300"><ele></ele><time>2016-5-22T16:52:30Z</time></trkpt>
<trkpt lat="46.2257150" lon="7.2782767"><ele></ele><time>2016-5-22T16:52:33Z</time></trkpt>
<trkpt lat="46.2257133" lon="7.2782233"><ele></ele><time>2016-5-22T16:52:36Z</time></trkpt>
<trkpt lat="46.2257100" lon="7.2781483"><ele></ele><time>2016-5-22T16:52:39Z</time></trkpt>
<trkpt lat="46.2257150" lon="7.2780900"><ele></ele><time>2016-5-22T16:52:42Z</time></trkpt>
<trkpt lat="46.2257133" lon="7.2780200"><ele></ele><time>2016-5-22T16:52:45Z</time></trkpt>
<trkpt lat="46.2257117" lon="7.2779400"><ele></ele><time>2016-5-22T16:52:48Z</time></trkpt>
<trkpt lat="46.2257083" lon="7.2778500"><ele></ele><time>2016-5-22T16:52:51Z</time></trkpt>
<trkpt lat="46.2257100" lon="7.2777567"><ele></ele><time>2016-5-22T16:52:54Z</time></trkpt>
<trkpt lat="46.2257067" lon="7.2776700"><ele></ele><time>2016-5-22T16:52:57Z</time></trkpt>
<trkpt lat="46.2257000" lon="7.2775967"><ele></ele><time>2016-5-22T16:53:0Z</time></trkpt>
<trkpt lat="46.2256817" lon="7.2775200"><ele></ele><time>2016-5-22T16:53:3Z</time></trkpt>
<trkpt lat="46.2256700" lon="7.2774333"><ele></ele><time>2016-5-22T16:53:6Z</time></trkpt>
<trkpt lat="46.2256533" lon="7.2773433"><ele></ele><time>2016-5-22T16:53:9Z</time></trkpt>
<trkpt lat="46.2256233" lon="7.2772533"><ele></ele><time>2016-5-22T16:53:12Z</time></trkpt>
<trkpt lat="46.2255683" lon="7.2772050"><ele></ele><time>2016-5-22T16:53:15Z</time></trkpt>
<trkpt lat="46.2255233" lon="7.2771833"><ele></ele><time>2016-5-22T16:53:18Z</time></trkpt>
<trkpt lat="46.2254733" lon="7.2771900"><ele></ele><time>2016-5-22T16:53:21Z</time></trkpt>
<trkpt lat="46.2254267" lon="7.2772133"><ele></ele><time>2016-5-22T16:53:24Z</time></trkpt>
<trkpt lat="46.2253683" lon="7.2772533"><ele></ele><time>2016-5-22T16:53:27Z</time></trkpt>
<trkpt lat="46.2253183" lon="7.2772933"><ele></ele><time>2016-5-22T16:53:30Z</time></trkpt>
<trkpt lat="46.2252867" lon="7.2773417"><ele></ele><time>2016-5-22T16:53:33Z</time></trkpt>
<trkpt lat="46.2252183" lon="7.2773967"><ele></ele><time>2016-5-22T16:53:36Z</time></trkpt>
<trkpt lat="46.2251517" lon="7.2774433"><ele></ele><time>2016-5-22T16:53:39Z</time></trkpt>
<trkpt lat="46.2250917" lon="7.2774917"><ele></ele><time>2016-5-22T16:53:42Z</time></trkpt>
<trkpt lat="46.2250283" lon="7.2775350"><ele></ele><time>2016-5-22T16:53:45Z</time></trkpt>
<trkpt lat="46.2249767" lon="7.2775900"><ele></ele><time>2016-5-22T16:53:48Z</time></trkpt>
<trkpt lat="46.2249100" lon="7.2776367"><ele></ele><time>2016-5-22T16:53:51Z</time></trkpt>
<trkpt lat="46.2248417" lon="7.2776750"><ele></ele><time>2016-5-22T16:53:54Z</time></trkpt>
<trkpt lat="46.2247833" lon="7.2777283"><ele></ele><time>2016-5-22T16:53:57Z</time></trkpt>
<trkpt lat="46.2247217" lon="7.2777750"><ele></ele><time>2016-5-22T16:54:0Z</time></trkpt>
<trkpt lat="46.2246717" lon="7.2778117"><ele></ele><time>2016-5-22T16:54:3Z</time></trkpt>
<trkpt lat="46.2246117" lon="7.2778550"><ele></ele><time>2016-5-22T16:54:6Z</time></trkpt>
<trkpt lat="46.2245700" lon="7.2778900"><ele></ele><time>2016-5-22T16:54:9Z</time></trkpt>
<trkpt lat="46.2245300" lon="7.2779267"><ele></ele><time>2016-5-22T16:54:12Z</time></trkpt>
<trkpt lat="46.2245017" lon="7.2779417"><ele></ele><time>2016-5-22T16:54:15Z</time></trkpt>
<trkpt lat="46.2244650" lon="7.2779050"><ele></ele><time>2016-5-22T16:54:18Z</time></trkpt>
<trkpt lat="46.2244467" lon="7.2778600"><ele></ele><time>2016-5-22T16:54:21Z</time></trkpt>
<trkpt lat="46.2244267" lon="7.2778067"><ele></ele><time>2016-5-22T16:54:24Z</time></trkpt>
<trkpt lat="46.2244067" lon="7.2777600"><ele></ele><time>2016-5-22T16:54:27Z</time></trkpt>
<trkpt lat="46.2243817" lon="7.2777083"><ele></ele><time>2016-5-22T16:54:30Z</time></trkpt>
<trkpt lat="46.2243617" lon="7.2776633"><ele></ele><time>2016-5-22T16:54:33Z</time></trkpt>
<trkpt lat="46.2243383" lon="7.2776233"><ele></ele><time>2016-5-22T16:54:36Z</time></trkpt>
<trkpt lat="46.2243100" lon="7.2775750"><ele></ele><time>2016-5-22T16:54:39Z</time></trkpt>
<trkpt lat="46.2242833" lon="7.2775250"><ele></ele><time>2016-5-22T16:54:42Z</time></trkpt>
<trkpt lat="46.2242550" lon="7.2774600"><ele></ele><time>2016-5-22T16:54:45Z</time></trkpt>
<trkpt lat="46.2242267" lon="7.2773967"><ele></ele><time>2016-5-22T16:54:48Z</time></trkpt>
<trkpt lat="46.2241983" lon="7.2773400"><ele></ele><time>2016-5-22T16:54:51Z</time></trkpt>
<trkpt lat="46.2241667" lon="7.2772783"><ele></ele><time>2016-5-22T16:54:54Z</time></trkpt>
<trkpt lat="46.2241400" lon="7.2772117"><ele></ele><time>2016-5-22T16:54:57Z</time></trkpt>
<trkpt lat="46.2241117" lon="7.2771400"><ele></ele><time>2016-5-22T16:55:0Z</time></trkpt>
<trkpt lat="46.2240817" lon="7.2770717"><ele></ele><time>2016-5-22T16:55:3Z</time></trkpt>
<trkpt lat="46.2240483" lon="7.2769983"><ele></ele><time>2016-5-22T16:55:6Z</time></trkpt>
<trkpt lat="46.2240100" lon="7.2769383"><ele></ele><time>2016-5-22T16:55:9Z</time></trkpt>
<trkpt lat="46.2239650" lon="7.2768850"><ele></ele><time>2016-5-22T16:55:12Z</time></trkpt>
<trkpt lat="46.2239383" lon="7.2768300"><ele></ele><time>2016-5-22T16:55:15Z</time></trkpt>
<trkpt lat="46.2239000" lon="7.2767717"><ele></ele><time>2016-5-22T16:55:18Z</time></trkpt>
<trkpt lat="46.2238583" lon="7.2767117"><ele></ele><time>2016-5-22T16:55:21Z</time></trkpt>
<trkpt lat="46.2238250" lon="7.2766650"><ele></ele><time>2016-5-22T16:55:24Z</time></trkpt>
<trkpt lat="46.2237917" lon="7.2766217"><ele></ele><time>2016-5-22T16:55:27Z</time></trkpt>
<trkpt lat="46.2237567" lon="7.2765650"><ele></ele><time>2016-5-22T16:55:30Z</time></trkpt>
<trkpt lat="46.2237217" lon="7.2765017"><ele></ele><time>2016-5-22T16:55:33Z</time></trkpt>
<trkpt lat="46.2236883" lon="7.2764533"><ele></ele><time>2016-5-22T16:55:36Z</time></trkpt>
<trkpt lat="46.2236467" lon="7.2764167"><ele></ele><time>2016-5-22T16:55:39Z</time></trkpt>
<trkpt lat="46.2235967" lon="7.2763717"><ele></ele><time>2016-5-22T16:55:42Z</time></trkpt>
<trkpt lat="46.2235600" lon="7.2763117"><ele></ele><time>2016-5-22T16:55:45Z</time></trkpt>
<trkpt lat="46.2235117" lon="7.2762683"><ele></ele><time>2016-5-22T16:55:48Z</time></trkpt>
<trkpt lat="46.2234633" lon="7.2762267"><ele></ele><time>2016-5-22T16:55:51Z</time></trkpt>
<trkpt lat="46.2234183" lon="7.2761933"><ele></ele><time>2016-5-22T16:55:54Z</time></trkpt>
<trkpt lat="46.2233733" lon="7.2761400"><ele></ele><time>2016-5-22T16:55:57Z</time></trkpt>
<trkpt lat="46.2233267" lon="7.2761033"><ele></ele><time>2016-5-22T16:56:0Z</time></trkpt>
<trkpt lat="46.2232833" lon="7.2760617"><ele></ele><time>2016-5-22T16:56:3Z</time></trkpt>
<trkpt lat="46.2232333" lon="7.2760267"><ele></ele><time>2016-5-22T16:56:6Z</time></trkpt>
<trkpt lat="46.2231933" lon="7.2759983"><ele></ele><time>2016-5-22T16:56:9Z</time></trkpt>
<trkpt lat="46.2231467" lon="7.2759617"><ele></ele><time>2016-5-22T16:56:12Z</time></trkpt>
<trkpt lat="46.2231000" lon="7.2759217"><ele></ele><time>2016-5-22T16:56:15Z</time></trkpt>
<trkpt lat="46.2230550" lon="7.2758833"><ele></ele><time>2016-5-22T16:56:18Z</time></trkpt>
<trkpt lat="46.2230067" lon="7.2758417"><ele></ele><time>2016-5-22T16:56:21Z</time></trkpt>
<trkpt lat="46.2229550" lon="7.2757950"><ele></ele><time>2016-5-22T16:56:24Z</time></trkpt>
<trkpt lat="46.2229050" lon="7.2757550"><ele></ele><time>2016-5-22T16:56:27Z</time></trkpt>
<trkpt lat="46.2228533" lon="7.2757183"><ele></ele><time>2016-5-22T16:56:30Z</time></trkpt>
<trkpt lat="46.2228017" lon="7.2756783"><ele></ele><time>2016-5-22T16:56:33Z</time></trkpt>
<trkpt lat="46.2227567" lon="7.2756350"><ele></ele><time>2016-5-22T16:56:36Z</time></trkpt>
<trkpt lat="46.2227050" lon="7.2755983"><ele></ele><time>2016-5-22T16:56:39Z</time></trkpt>
<trkpt lat="46.2226550" lon="7.2755483"><ele></ele><time>2016-5-22T16:56:42Z</time></trkpt>
<trkpt lat="46.2226100" lon="7.2755050"><ele></ele><time>2016-5-22T16:56:45Z</time></trkpt>
<trkpt lat="46.2225650" lon="7.2754633"><ele></ele><time>2016-5-22T16:56:48Z</time></trkpt>
<trkpt lat="46.2225167" lon="7.2754283"><ele></ele><time>2016-5-22T16:56:51Z</time></trkpt>
<trkpt lat="46.2224750" lon="7.2753800"><ele></ele><time>2016-5-22T16:56:54Z</time></trkpt>
<trkpt lat="46.2224433" lon="7.2753250"><ele></ele><time>2016-5-22T16:56:57Z</time></trkpt>
<trkpt lat="46.2224067" lon="7.2752767"><ele></ele><time>2016-5-22T16:57:0Z</time></trkpt>
<trkpt lat="46.2223667" lon="7.2752117"><ele></ele><time>2016-5-22T16:57:3Z</time></trkpt>
<trkpt lat="46.2223367" lon="7.2751600"><ele></ele><time>2016-5-22T16:57:6Z</time></trkpt>
<trkpt lat="46.2222983" lon="7.2751100"><ele></ele><time>2016-5-22T16:57:9Z</time></trkpt>
<trkpt lat="46.2222667" lon="7.2750683"><ele></ele><time>2016-5-22T16:57:12Z</time></trkpt>
<trkpt lat="46.2222300" lon="7.2750183"><ele></ele><time>2016-5-22T16:57:15Z</time></trkpt>
<trkpt lat="46.2221900" lon="7.2749733"><ele></ele><time>2016-5-22T16:57:18Z</time></trkpt>
<trkpt lat="46.2221450" lon="7.2749283"><ele></ele><time>2016-5-22T16:57:21Z</time></trkpt>
<trkpt lat="46.2221000" lon="7.2748833"><ele></ele><time>2016-5-22T16:57:24Z</time></trkpt>
<trkpt lat="46.2220583" lon="7.2748350"><ele></ele><time>2016-5-22T16:57:27Z</time></trkpt>
<trkpt lat="46.2220167" lon="7.2747800"><ele></ele><time>2016-5-22T16:57:30Z</time></trkpt>
<trkpt lat="46.2219750" lon="7.2747317"><ele></ele><time>2016-5-22T16:57:33Z</time></trkpt>
<trkpt lat="46.2219317" lon="7.2746833"><ele></ele><time>2016-5-22T16:57:36Z</time></trkpt>
<trkpt lat="46.2218933" lon="7.2746267"><ele></ele><time>2016-5-22T16:57:39Z</time></trkpt>
<trkpt lat="46.2218533" lon="7.2745800"><ele></ele><time>2016-5-22T16:57:42Z</time></trkpt>
<trkpt lat="46.2218100" lon="7.2745317"><ele></ele><time>2016-5-22T16:57:45Z</time></trkpt>
<trkpt lat="46.2217733" lon="7.2744767"><ele></ele><time>2016-5-22T16:57:48Z</time></trkpt>
<trkpt lat="46.2217300" lon="7.2744283"><ele></ele><time>2016-5-22T16:57:51Z</time></trkpt>
<trkpt lat="46.2216867" lon="7.2743750"><ele></ele><time>2016-5-22T16:57:54Z</time></trkpt>
<trkpt lat="46.2216350" lon="7.2743117"><ele></ele><time>2016-5-22T16:57:57Z</time></trkpt>
<trkpt lat="46.2215933" lon="7.2742750"><ele></ele><time>2016-5-22T16:58:0Z</time></trkpt>
<trkpt lat="46.2215483" lon="7.2742150"><ele></ele><time>2016-5-22T16:58:3Z</time></trkpt>
<trkpt lat="46.2215050" lon="7.2741550"><ele></ele><time>2016-5-22T16:58:6Z</time></trkpt>
<trkpt lat="46.2214667" lon="7.2741017"><ele></ele><time>2016-5-22T16:58:9Z</time></trkpt>
<trkpt lat="46.2214317" lon="7.2740533"><ele></ele><time>2016-5-22T16:58:12Z</time></trkpt>
<trkpt lat="46.2213900" lon="7.2739967"><ele></ele><time>2016-5-22T16:58:15Z</time></trkpt>
<trkpt lat="46.2213450" lon="7.2739500"><ele></ele><time>2016-5-22T16:58:18Z</time></trkpt>
<trkpt lat="46.2213067" lon="7.2738733"><ele></ele><time>2016-5-22T16:58:21Z</time></trkpt>
<trkpt lat="46.2212633" lon="7.2738167"><ele></ele><time>2016-5-22T16:58:24Z</time></trkpt>
<trkpt lat="46.2212250" lon="7.2737600"><ele></ele><time>2016-5-22T16:58:27Z</time></trkpt>
<trkpt lat="46.2211833" lon="7.2737050"><ele></ele><time>2016-5-22T16:58:30Z</time></trkpt>
<trkpt lat="46.2211400" lon="7.2736617"><ele></ele><time>2016-5-22T16:58:33Z</time></trkpt>
<trkpt lat="46.2210900" lon="7.2736250"><ele></ele><time>2016-5-22T16:58:36Z</time></trkpt>
<trkpt lat="46.2210417" lon="7.2735883"><ele></ele><time>2016-5-22T16:58:39Z</time></trkpt>
<trkpt lat="46.2209933" lon="7.2735467"><ele></ele><time>2016-5-22T16:58:42Z</time></trkpt>
<trkpt lat="46.2209433" lon="7.2734950"><ele></ele><time>2016-5-22T16:58:45Z</time></trkpt>
<trkpt lat="46.2208950" lon="7.2734667"><ele></ele><time>2016-5-22T16:58:48Z</time></trkpt>
<trkpt lat="46.2208450" lon="7.2734417"><ele></ele><time>2016-5-22T16:58:51Z</time></trkpt>
<trkpt lat="46.2207917" lon="7.2734100"><ele></ele><time>2016-5-22T16:58:54Z</time></trkpt>
<trkpt lat="46.2207367" lon="7.2733900"><ele></ele><time>2016-5-22T16:58:57Z</time></trkpt>
<trkpt lat="46.2206750" lon="7.2733717"><ele></ele><time>2016-5-22T16:59:0Z</time></trkpt>
<trkpt lat="46.2206200" lon="7.2733483"><ele></ele><time>2016-5-22T16:59:3Z</time></trkpt>
<trkpt lat="46.2205667" lon="7.2733283"><ele></ele><time>2016-5-22T16:59:6Z</time></trkpt>
<trkpt lat="46.2205067" lon="7.2733100"><ele></ele><time>2016-5-22T16:59:9Z</time></trkpt>
<trkpt lat="46.2204533" lon="7.2732833"><ele></ele><time>2016-5-22T16:59:12Z</time></trkpt>
<trkpt lat="46.2203983" lon="7.2732650"><ele></ele><time>2016-5-22T16:59:15Z</time></trkpt>
<trkpt lat="46.2203433" lon="7.2732617"><ele></ele><time>2016-5-22T16:59:18Z</time></trkpt>
<trkpt lat="46.2202850" lon="7.2732333"><ele></ele><time>2016-5-22T16:59:21Z</time></trkpt>
<trkpt lat="46.2202233" lon="7.2731950"><ele></ele><time>2016-5-22T16:59:24Z</time></trkpt>
<trkpt lat="46.2201717" lon="7.2731600"><ele></ele><time>2016-5-22T16:59:27Z</time></trkpt>
<trkpt lat="46.2201183" lon="7.2731333"><ele></ele><time>2016-5-22T16:59:30Z</time></trkpt>
<trkpt lat="46.2200633" lon="7.2731100"><ele></ele><time>2016-5-22T16:59:33Z</time></trkpt>
<trkpt lat="46.2200050" lon="7.2730867"><ele></ele><time>2016-5-22T16:59:36Z</time></trkpt>
<trkpt lat="46.2199450" lon="7.2730633"><ele></ele><time>2016-5-22T16:59:39Z</time></trkpt>
<trkpt lat="46.2198917" lon="7.2730417"><ele></ele><time>2016-5-22T16:59:42Z</time></trkpt>
<trkpt lat="46.2198283" lon="7.2730200"><ele></ele><time>2016-5-22T16:59:45Z</time></trkpt>
<trkpt lat="46.2197733" lon="7.2729967"><ele></ele><time>2016-5-22T16:59:48Z</time></trkpt>
<trkpt lat="46.2197233" lon="7.2729683"><ele></ele><time>2016-5-22T16:59:51Z</time></trkpt>
<trkpt lat="46.2196683" lon="7.2729400"><ele></ele><time>2016-5-22T16:59:54Z</time></trkpt>
<trkpt lat="46.2196117" lon="7.2729067"><ele></ele><time>2016-5-22T16:59:57Z</time></trkpt>
<trkpt lat="46.2195583" lon="7.2728767"><ele></ele><time>2016-5-22T17:0:0Z</time></trkpt>
<trkpt lat="46.2195067" lon="7.2728500"><ele></ele><time>2016-5-22T17:0:3Z</time></trkpt>
<trkpt lat="46.2194600" lon="7.2728333"><ele></ele><time>2016-5-22T17:0:6Z</time></trkpt>
<trkpt lat="46.2194100" lon="7.2728083"><ele></ele><time>2016-5-22T17:0:9Z</time></trkpt>
<trkpt lat="46.2193617" lon="7.2727867"><ele></ele><time>2016-5-22T17:0:12Z</time></trkpt>
<trkpt lat="46.2193167" lon="7.2727400"><ele></ele><time>2016-5-22T17:0:15Z</time></trkpt>
<trkpt lat="46.2192767" lon="7.2727050"><ele></ele><time>2016-5-22T17:0:18Z</time></trkpt>
<trkpt lat="46.2192300" lon="7.2726700"><ele></ele><time>2016-5-22T17:0:21Z</time></trkpt>
<trkpt lat="46.2191817" lon="7.2726483"><ele></ele><time>2016-5-22T17:0:24Z</time></trkpt>
<trkpt lat="46.2191400" lon="7.2726250"><ele></ele><time>2016-5-22T17:0:27Z</time></trkpt>
<trkpt lat="46.2190933" lon="7.2725900"><ele></ele><time>2016-5-22T17:0:30Z</time></trkpt>
<trkpt lat="46.2190500" lon="7.2725617"><ele></ele><time>2016-5-22T17:0:33Z</time></trkpt>
<trkpt lat="46.2190050" lon="7.2725133"><ele></ele><time>2016-5-22T17:0:36Z</time></trkpt>
<trkpt lat="46.2189600" lon="7.2724717"><ele></ele><time>2016-5-22T17:0:39Z</time></trkpt>
<trkpt lat="46.2189217" lon="7.2724333"><ele></ele><time>2016-5-22T17:0:42Z</time></trkpt>
<trkpt lat="46.2188800" lon="7.2723967"><ele></ele><time>2016-5-22T17:0:45Z</time></trkpt>
<trkpt lat="46.2188400" lon="7.2723650"><ele></ele><time>2016-5-22T17:0:48Z</time></trkpt>
<trkpt lat="46.2187950" lon="7.2723283"><ele></ele><time>2016-5-22T17:0:51Z</time></trkpt>
<trkpt lat="46.2187517" lon="7.2722900"><ele></ele><time>2016-5-22T17:0:54Z</time></trkpt>
<trkpt lat="46.2187083" lon="7.2722400"><ele></ele><time>2016-5-22T17:0:57Z</time></trkpt>
<trkpt lat="46.2186717" lon="7.2722083"><ele></ele><time>2016-5-22T17:1:0Z</time></trkpt>
<trkpt lat="46.2186283" lon="7.2721817"><ele></ele><time>2016-5-22T17:1:3Z</time></trkpt>
<trkpt lat="46.2185933" lon="7.2721533"><ele></ele><time>2016-5-22T17:1:6Z</time></trkpt>
<trkpt lat="46.2185583" lon="7.2721067"><ele></ele><time>2016-5-22T17:1:9Z</time></trkpt>
<trkpt lat="46.2185217" lon="7.2720733"><ele></ele><time>2016-5-22T17:1:12Z</time></trkpt>
<trkpt lat="46.2184783" lon="7.2720550"><ele></ele><time>2016-5-22T17:1:15Z</time></trkpt>
<trkpt lat="46.2184500" lon="7.2720267"><ele></ele><time>2016-5-22T17:1:18Z</time></trkpt>
<trkpt lat="46.2184267" lon="7.2719683"><ele></ele><time>2016-5-22T17:1:21Z</time></trkpt>
<trkpt lat="46.2184033" lon="7.2719117"><ele></ele><time>2016-5-22T17:1:24Z</time></trkpt>
<trkpt lat="46.2183800" lon="7.2718550"><ele></ele><time>2016-5-22T17:1:27Z</time></trkpt>
<trkpt lat="46.2183550" lon="7.2718017"><ele></ele><time>2016-5-22T17:1:30Z</time></trkpt>
<trkpt lat="46.2183400" lon="7.2717400"><ele></ele><time>2016-5-22T17:1:33Z</time></trkpt>
<trkpt lat="46.2183217" lon="7.2716683"><ele></ele><time>2016-5-22T17:1:36Z</time></trkpt>
<trkpt lat="46.2183117" lon="7.2715950"><ele></ele><time>2016-5-22T17:1:39Z</time></trkpt>
<trkpt lat="46.2183033" lon="7.2715333"><ele></ele><time>2016-5-22T17:1:42Z</time></trkpt>
<trkpt lat="46.2182950" lon="7.2714667"><ele></ele><time>2016-5-22T17:1:45Z</time></trkpt>
<trkpt lat="46.2182900" lon="7.2714067"><ele></ele><time>2016-5-22T17:1:48Z</time></trkpt>
<trkpt lat="46.2182767" lon="7.2713383"><ele></ele><time>2016-5-22T17:1:51Z</time></trkpt>
<trkpt lat="46.2182717" lon="7.2712817"><ele></ele><time>2016-5-22T17:1:54Z</time></trkpt>
<trkpt lat="46.2182633" lon="7.2712150"><ele></ele><time>2016-5-22T17:1:57Z</time></trkpt>
<trkpt lat="46.2182383" lon="7.2711617"><ele></ele><time>2016-5-22T17:2:0Z</time></trkpt>
<trkpt lat="46.2182317" lon="7.2711000"><ele></ele><time>2016-5-22T17:2:3Z</time></trkpt>
<trkpt lat="46.2182133" lon="7.2710450"><ele></ele><time>2016-5-22T17:2:6Z</time></trkpt>
<trkpt lat="46.2181933" lon="7.2709783"><ele></ele><time>2016-5-22T17:2:9Z</time></trkpt>
<trkpt lat="46.2181683" lon="7.2709233"><ele></ele><time>2016-5-22T17:2:12Z</time></trkpt>
<trkpt lat="46.2181467" lon="7.2708767"><ele></ele><time>2016-5-22T17:2:15Z</time></trkpt>
<trkpt lat="46.2181150" lon="7.2708217"><ele></ele><time>2016-5-22T17:2:18Z</time></trkpt>
<trkpt lat="46.2180833" lon="7.2707700"><ele></ele><time>2016-5-22T17:2:21Z</time></trkpt>
<trkpt lat="46.2180500" lon="7.2707250"><ele></ele><time>2016-5-22T17:2:24Z</time></trkpt>
<trkpt lat="46.2180117" lon="7.2706783"><ele></ele><time>2016-5-22T17:2:27Z</time></trkpt>
<trkpt lat="46.2179783" lon="7.2706317"><ele></ele><time>2016-5-22T17:2:30Z</time></trkpt>
<trkpt lat="46.2179450" lon="7.2705783"><ele></ele><time>2016-5-22T17:2:33Z</time></trkpt>
<trkpt lat="46.2179117" lon="7.2705333"><ele></ele><time>2016-5-22T17:2:36Z</time></trkpt>
<trkpt lat="46.2178783" lon="7.2704883"><ele></ele><time>2016-5-22T17:2:39Z</time></trkpt>
<trkpt lat="46.2178533" lon="7.2704450"><ele></ele><time>2016-5-22T17:2:42Z</time></trkpt>
<trkpt lat="46.2178283" lon="7.2703933"><ele></ele><time>2016-5-22T17:2:45Z</time></trkpt>
<trkpt lat="46.2177967" lon="7.2703433"><ele></ele><time>2016-5-22T17:2:48Z</time></trkpt>
<trkpt lat="46.2177733" lon="7.2702967"><ele></ele><time>2016-5-22T17:2:51Z</time></trkpt>
<trkpt lat="46.2177450" lon="7.2702517"><ele></ele><time>2016-5-22T17:2:54Z</time></trkpt>
<trkpt lat="46.2177167" lon="7.2702033"><ele></ele><time>2016-5-22T17:2:57Z</time></trkpt>
<trkpt lat="46.2176917" lon="7.2701600"><ele></ele><time>2016-5-22T17:3:0Z</time></trkpt>
<trkpt lat="46.2176683" lon="7.2701150"><ele></ele><time>2016-5-22T17:3:3Z</time></trkpt>
<trkpt lat="46.2176417" lon="7.2700667"><ele></ele><time>2016-5-22T17:3:6Z</time></trkpt>
<trkpt lat="46.2176167" lon="7.2700217"><ele></ele><time>2016-5-22T17:3:9Z</time></trkpt>
<trkpt lat="46.2175917" lon="7.2699633"><ele></ele><time>2016-5-22T17:3:12Z</time></trkpt>
<trkpt lat="46.2175583" lon="7.2699150"><ele></ele><time>2016-5-22T17:3:15Z</time></trkpt>
<trkpt lat="46.2175283" lon="7.2698683"><ele></ele><time>2016-5-22T17:3:18Z</time></trkpt>
<trkpt lat="46.2175000" lon="7.2698217"><ele></ele><time>2016-5-22T17:3:21Z</time></trkpt>
<trkpt lat="46.2174650" lon="7.2697683"><ele></ele><time>2016-5-22T17:3:24Z</time></trkpt>
<trkpt lat="46.2174383" lon="7.2697117"><ele></ele><time>2016-5-22T17:3:27Z</time></trkpt>
<trkpt lat="46.2174100" lon="7.2696633"><ele></ele><time>2016-5-22T17:3:30Z</time></trkpt>
<trkpt lat="46.2173750" lon="7.2696083"><ele></ele><time>2016-5-22T17:3:33Z</time></trkpt>
<trkpt lat="46.2173417" lon="7.2695533"><ele></ele><time>2016-5-22T17:3:36Z</time></trkpt>
<trkpt lat="46.2173083" lon="7.2695017"><ele></ele><time>2016-5-22T17:3:39Z</time></trkpt>
<trkpt lat="46.2172683" lon="7.2694467"><ele></ele><time>2016-5-22T17:3:42Z</time></trkpt>
<trkpt lat="46.2172317" lon="7.2693950"><ele></ele><time>2016-5-22T17:3:45Z</time></trkpt>
<trkpt lat="46.2172067" lon="7.2693400"><ele></ele><time>2016-5-22T17:3:48Z</time></trkpt>
<trkpt lat="46.2171650" lon="7.2692817"><ele></ele><time>2016-5-22T17:3:51Z</time></trkpt>
<trkpt lat="46.2171283" lon="7.2692300"><ele></ele><time>2016-5-22T17:3:54Z</time></trkpt>
<trkpt lat="46.2170917" lon="7.2691683"><ele></ele><time>2016-5-22T17:3:57Z</time></trkpt>
<trkpt lat="46.2170467" lon="7.2691117"><ele></ele><time>2016-5-22T17:4:0Z</time></trkpt>
<trkpt lat="46.2170000" lon="7.2690633"><ele></ele><time>2016-5-22T17:4:3Z</time></trkpt>
<trkpt lat="46.2169650" lon="7.2690133"><ele></ele><time>2016-5-22T17:4:6Z</time></trkpt>
<trkpt lat="46.2169333" lon="7.2689633"><ele></ele><time>2016-5-22T17:4:9Z</time></trkpt>
<trkpt lat="46.2168967" lon="7.2688967"><ele></ele><time>2016-5-22T17:4:12Z</time></trkpt>
<trkpt lat="46.2168650" lon="7.2688450"><ele></ele><time>2016-5-22T17:4:15Z</time></trkpt>
<trkpt lat="46.2168217" lon="7.2687783"><ele></ele><time>2016-5-22T17:4:18Z</time></trkpt>
<trkpt lat="46.2167883" lon="7.2687250"><ele></ele><time>2016-5-22T17:4:21Z</time></trkpt>
<trkpt lat="46.2167567" lon="7.2686783"><ele></ele><time>2016-5-22T17:4:24Z</time></trkpt>
<trkpt lat="46.2167100" lon="7.2686200"><ele></ele><time>2016-5-22T17:4:27Z</time></trkpt>
<trkpt lat="46.2166700" lon="7.2685683"><ele></ele><time>2016-5-22T17:4:30Z</time></trkpt>
<trkpt lat="46.2166367" lon="7.2685117"><ele></ele><time>2016-5-22T17:4:33Z</time></trkpt>
<trkpt lat="46.2166067" lon="7.2684483"><ele></ele><time>2016-5-22T17:4:36Z</time></trkpt>
<trkpt lat="46.2165667" lon="7.2684000"><ele></ele><time>2016-5-22T17:4:39Z</time></trkpt>
<trkpt lat="46.2165350" lon="7.2683467"><ele></ele><time>2016-5-22T17:4:42Z</time></trkpt>
<trkpt lat="46.2165017" lon="7.2682950"><ele></ele><time>2016-5-22T17:4:45Z</time></trkpt>
<trkpt lat="46.2164700" lon="7.2682367"><ele></ele><time>2016-5-22T17:4:48Z</time></trkpt>
<trkpt lat="46.2164433" lon="7.2681883"><ele></ele><time>2016-5-22T17:4:51Z</time></trkpt>
<trkpt lat="46.2164117" lon="7.2681367"><ele></ele><time>2016-5-22T17:4:54Z</time></trkpt>
<trkpt lat="46.2163717" lon="7.2680933"><ele></ele><time>2016-5-22T17:4:57Z</time></trkpt>
<trkpt lat="46.2163367" lon="7.2680483"><ele></ele><time>2016-5-22T17:5:0Z</time></trkpt>
<trkpt lat="46.2162967" lon="7.2679967"><ele></ele><time>2016-5-22T17:5:3Z</time></trkpt>
<trkpt lat="46.2162567" lon="7.2679433"><ele></ele><time>2016-5-22T17:5:6Z</time></trkpt>
<trkpt lat="46.2162200" lon="7.2678950"><ele></ele><time>2016-5-22T17:5:9Z</time></trkpt>
<trkpt lat="46.2161867" lon="7.2678400"><ele></ele><time>2016-5-22T17:5:12Z</time></trkpt>
<trkpt lat="46.2161500" lon="7.2677917"><ele></ele><time>2016-5-22T17:5:15Z</time></trkpt>
<trkpt lat="46.2161050" lon="7.2677267"><ele></ele><time>2016-5-22T17:5:18Z</time></trkpt>
<trkpt lat="46.2160633" lon="7.2676800"><ele></ele><time>2016-5-22T17:5:21Z</time></trkpt>
<trkpt lat="46.2160267" lon="7.2676233"><ele></ele><time>2016-5-22T17:5:24Z</time></trkpt>
<trkpt lat="46.2159833" lon="7.2675683"><ele></ele><time>2016-5-22T17:5:27Z</time></trkpt>
<trkpt lat="46.2159533" lon="7.2675150"><ele></ele><time>2016-5-22T17:5:30Z</time></trkpt>
<trkpt lat="46.2159167" lon="7.2674700"><ele></ele><time>2016-5-22T17:5:33Z</time></trkpt>
<trkpt lat="46.2158783" lon="7.2674117"><ele></ele><time>2016-5-22T17:5:36Z</time></trkpt>
<trkpt lat="46.2158417" lon="7.2673567"><ele></ele><time>2016-5-22T17:5:39Z</time></trkpt>
<trkpt lat="46.2158200" lon="7.2672850"><ele></ele><time>2016-5-22T17:5:42Z</time></trkpt>
<trkpt lat="46.2157767" lon="7.2672417"><ele></ele><time>2016-5-22T17:5:45Z</time></trkpt>
<trkpt lat="46.2157400" lon="7.2671967"><ele></ele><time>2016-5-22T17:5:48Z</time></trkpt>
<trkpt lat="46.2157050" lon="7.2671500"><ele></ele><time>2016-5-22T17:5:51Z</time></trkpt>
<trkpt lat="46.2156700" lon="7.2670950"><ele></ele><time>2016-5-22T17:5:54Z</time></trkpt>
<trkpt lat="46.2156400" lon="7.2670567"><ele></ele><time>2016-5-22T17:5:57Z</time></trkpt>
<trkpt lat="46.2156100" lon="7.2670033"><ele></ele><time>2016-5-22T17:6:0Z</time></trkpt>
<trkpt lat="46.2155750" lon="7.2669533"><ele></ele><time>2016-5-22T17:6:3Z</time></trkpt>
<trkpt lat="46.2155400" lon="7.2668950"><ele></ele><time>2016-5-22T17:6:6Z</time></trkpt>
<trkpt lat="46.2155100" lon="7.2668400"><ele></ele><time>2016-5-22T17:6:9Z</time></trkpt>
<trkpt lat="46.2154750" lon="7.2667950"><ele></ele><time>2016-5-22T17:6:12Z</time></trkpt>
<trkpt lat="46.2154483" lon="7.2667367"><ele></ele><time>2016-5-22T17:6:15Z</time></trkpt>
<trkpt lat="46.2154267" lon="7.2666750"><ele></ele><time>2016-5-22T17:6:18Z</time></trkpt>
<trkpt lat="46.2153950" lon="7.2666133"><ele></ele><time>2016-5-22T17:6:21Z</time></trkpt>
<trkpt lat="46.2153650" lon="7.2665500"><ele></ele><time>2016-5-22T17:6:24Z</time></trkpt>
<trkpt lat="46.2153367" lon="7.2664833"><ele></ele><time>2016-5-22T17:6:27Z</time></trkpt>
<trkpt lat="46.2153067" lon="7.2664117"><ele></ele><time>2016-5-22T17:6:30Z</time></trkpt>
<trkpt lat="46.2152800" lon="7.2663467"><ele></ele><time>2016-5-22T17:6:33Z</time></trkpt>
<trkpt lat="46.2152617" lon="7.2662867"><ele></ele><time>2016-5-22T17:6:36Z</time></trkpt>
<trkpt lat="46.2152400" lon="7.2662350"><ele></ele><time>2016-5-22T17:6:39Z</time></trkpt>
<trkpt lat="46.2152217" lon="7.2661850"><ele></ele><time>2016-5-22T17:6:42Z</time></trkpt>
<trkpt lat="46.2151983" lon="7.2661300"><ele></ele><time>2016-5-22T17:6:45Z</time></trkpt>
<trkpt lat="46.2151817" lon="7.2660783"><ele></ele><time>2016-5-22T17:6:48Z</time></trkpt>
<trkpt lat="46.2151633" lon="7.2660333"><ele></ele><time>2016-5-22T17:6:51Z</time></trkpt>
<trkpt lat="46.2151433" lon="7.2659867"><ele></ele><time>2016-5-22T17:6:54Z</time></trkpt>
<trkpt lat="46.2151417" lon="7.2659217"><ele></ele><time>2016-5-22T17:6:57Z</time></trkpt>
<trkpt lat="46.2151300" lon="7.2658750"><ele></ele><time>2016-5-22T17:7:0Z</time></trkpt>
<trkpt lat="46.2151250" lon="7.2658317"><ele></ele><time>2016-5-22T17:7:3Z</time></trkpt>
<trkpt lat="46.2151033" lon="7.2657917"><ele></ele><time>2016-5-22T17:7:6Z</time></trkpt>
<trkpt lat="46.2150767" lon="7.2657833"><ele></ele><time>2016-5-22T17:7:9Z</time></trkpt>
<trkpt lat="46.2150533" lon="7.2658000"><ele></ele><time>2016-5-22T17:7:12Z</time></trkpt>
<trkpt lat="46.2150300" lon="7.2658233"><ele></ele><time>2016-5-22T17:7:15Z</time></trkpt>
<trkpt lat="46.2150033" lon="7.2658467"><ele></ele><time>2016-5-22T17:7:18Z</time></trkpt>
<trkpt lat="46.2149783" lon="7.2658667"><ele></ele><time>2016-5-22T17:7:21Z</time></trkpt>
<trkpt lat="46.2149550" lon="7.2658883"><ele></ele><time>2016-5-22T17:7:24Z</time></trkpt>
<trkpt lat="46.2149433" lon="7.2659100"><ele></ele><time>2016-5-22T17:7:27Z</time></trkpt>
<trkpt lat="46.2149433" lon="7.2659283"><ele></ele><time>2016-5-22T17:7:30Z</time></trkpt>
<trkpt lat="46.2149567" lon="7.2659317"><ele></ele><time>2016-5-22T17:7:33Z</time></trkpt>
<trkpt lat="46.2149750" lon="7.2659150"><ele></ele><time>2016-5-22T17:7:36Z</time></trkpt>
<trkpt lat="46.2149933" lon="7.2658900"><ele></ele><time>2016-5-22T17:7:39Z</time></trkpt>
<trkpt lat="46.2150167" lon="7.2658650"><ele></ele><time>2016-5-22T17:7:42Z</time></trkpt>
<trkpt lat="46.2150450" lon="7.2658383"><ele></ele><time>2016-5-22T17:7:45Z</time></trkpt>
<trkpt lat="46.2150733" lon="7.2658150"><ele></ele><time>2016-5-22T17:7:48Z</time></trkpt>
<trkpt lat="46.2151050" lon="7.2657917"><ele></ele><time>2016-5-22T17:7:51Z</time></trkpt>
<trkpt lat="46.2151367" lon="7.2657683"><ele></ele><time>2016-5-22T17:7:54Z</time></trkpt>
<trkpt lat="46.2151700" lon="7.2657433"><ele></ele><time>2016-5-22T17:7:57Z</time></trkpt>
<trkpt lat="46.2152067" lon="7.2657250"><ele></ele><time>2016-5-22T17:8:0Z</time></trkpt>
<trkpt lat="46.2152433" lon="7.2657083"><ele></ele><time>2016-5-22T17:8:3Z</time></trkpt>
<trkpt lat="46.2152817" lon="7.2656950"><ele></ele><time>2016-5-22T17:8:6Z</time></trkpt>
<trkpt lat="46.2153200" lon="7.2656883"><ele></ele><time>2016-5-22T17:8:9Z</time></trkpt>
<trkpt lat="46.2153583" lon="7.2656867"><ele></ele><time>2016-5-22T17:8:12Z</time></trkpt>
<trkpt lat="46.2153967" lon="7.2656883"><ele></ele><time>2016-5-22T17:8:15Z</time></trkpt>
<trkpt lat="46.2154350" lon="7.2656883"><ele></ele><time>2016-5-22T17:8:18Z</time></trkpt>
<trkpt lat="46.2154750" lon="7.2656900"><ele></ele><time>2016-5-22T17:8:21Z</time></trkpt>
<trkpt lat="46.2155150" lon="7.2656900"><ele></ele><time>2016-5-22T17:8:24Z</time></trkpt>
<trkpt lat="46.2155567" lon="7.2656900"><ele></ele><time>2016-5-22T17:8:27Z</time></trkpt>
<trkpt lat="46.2155967" lon="7.2656867"><ele></ele><time>2016-5-22T17:8:30Z</time></trkpt>
<trkpt lat="46.2156333" lon="7.2656717"><ele></ele><time>2016-5-22T17:8:33Z</time></trkpt>
<trkpt lat="46.2156650" lon="7.2656417"><ele></ele><time>2016-5-22T17:8:36Z</time></trkpt>
<trkpt lat="46.2156800" lon="7.2655950"><ele></ele><time>2016-5-22T17:8:39Z</time></trkpt>
<trkpt lat="46.2156767" lon="7.2655450"><ele></ele><time>2016-5-22T17:8:42Z</time></trkpt>
<trkpt lat="46.2156567" lon="7.2654967"><ele></ele><time>2016-5-22T17:8:45Z</time></trkpt>
<trkpt lat="46.2156317" lon="7.2654517"><ele></ele><time>2016-5-22T17:8:48Z</time></trkpt>
<trkpt lat="46.2156017" lon="7.2654083"><ele></ele><time>2016-5-22T17:8:51Z</time></trkpt>
<trkpt lat="46.2155700" lon="7.2653667"><ele></ele><time>2016-5-22T17:8:54Z</time></trkpt>
<trkpt lat="46.2155383" lon="7.2653250"><ele></ele><time>2016-5-22T17:8:57Z</time></trkpt>
<trkpt lat="46.2155067" lon="7.2652833"><ele></ele><time>2016-5-22T17:9:0Z</time></trkpt>
<trkpt lat="46.2154767" lon="7.2652367"><ele></ele><time>2016-5-22T17:9:3Z</time></trkpt>
<trkpt lat="46.2154450" lon="7.2651917"><ele></ele><time>2016-5-22T17:9:6Z</time></trkpt>
<trkpt lat="46.2154133" lon="7.2651517"><ele></ele><time>2016-5-22T17:9:9Z</time></trkpt>
<trkpt lat="46.2153867" lon="7.2651100"><ele></ele><time>2016-5-22T17:9:12Z</time></trkpt>
<trkpt lat="46.2153600" lon="7.2650667"><ele></ele><time>2016-5-22T17:9:15Z</time></trkpt>
<trkpt lat="46.2153350" lon="7.2650167"><ele></ele><time>2016-5-22T17:9:18Z</time></trkpt>
<trkpt lat="46.2153100" lon="7.2649650"><ele></ele><time>2016-5-22T17:9:21Z</time></trkpt>
<trkpt lat="46.2152867" lon="7.2649150"><ele></ele><time>2016-5-22T17:9:24Z</time></trkpt>
<trkpt lat="46.2152500" lon="7.2648600"><ele></ele><time>2016-5-22T17:9:27Z</time></trkpt>
<trkpt lat="46.2152233" lon="7.2648083"><ele></ele><time>2016-5-22T17:9:30Z</time></trkpt>
<trkpt lat="46.2151950" lon="7.2647683"><ele></ele><time>2016-5-22T17:9:33Z</time></trkpt>
<trkpt lat="46.2151700" lon="7.2647150"><ele></ele><time>2016-5-22T17:9:36Z</time></trkpt>
<trkpt lat="46.2151483" lon="7.2646583"><ele></ele><time>2016-5-22T17:9:39Z</time></trkpt>
<trkpt lat="46.2151250" lon="7.2646017"><ele></ele><time>2016-5-22T17:9:42Z</time></trkpt>
<trkpt lat="46.2151033" lon="7.2645483"><ele></ele><time>2016-5-22T17:9:45Z</time></trkpt>
<trkpt lat="46.2150750" lon="7.2644917"><ele></ele><time>2016-5-22T17:9:48Z</time></trkpt>
<trkpt lat="46.2150367" lon="7.2644433"><ele></ele><time>2016-5-22T17:9:51Z</time></trkpt>
<trkpt lat="46.2150067" lon="7.2643883"><ele></ele><time>2016-5-22T17:9:54Z</time></trkpt>
<trkpt lat="46.2149817" lon="7.2643533"><ele></ele><time>2016-5-22T17:9:57Z</time></trkpt>
<trkpt lat="46.2149533" lon="7.2642983"><ele></ele><time>2016-5-22T17:10:0Z</time></trkpt>
<trkpt lat="46.2149183" lon="7.2642500"><ele></ele><time>2016-5-22T17:10:3Z</time></trkpt>
<trkpt lat="46.2148800" lon="7.2642133"><ele></ele><time>2016-5-22T17:10:6Z</time></trkpt>
<trkpt lat="46.2148533" lon="7.2641633"><ele></ele><time>2016-5-22T17:10:9Z</time></trkpt>
<trkpt lat="46.2148250" lon="7.2641183"><ele></ele><time>2016-5-22T17:10:12Z</time></trkpt>
<trkpt lat="46.2148033" lon="7.2640767"><ele></ele><time>2016-5-22T17:10:15Z</time></trkpt>
<trkpt lat="46.2147750" lon="7.2640417"><ele></ele><time>2016-5-22T17:10:18Z</time></trkpt>
<trkpt lat="46.2147450" lon="7.2640000"><ele></ele><time>2016-5-22T17:10:21Z</time></trkpt>
<trkpt lat="46.2147250" lon="7.2639600"><ele></ele><time>2016-5-22T17:10:24Z</time></trkpt>
<trkpt lat="46.2147000" lon="7.2639217"><ele></ele><time>2016-5-22T17:10:27Z</time></trkpt>
<trkpt lat="46.2146717" lon="7.2638783"><ele></ele><time>2016-5-22T17:10:30Z</time></trkpt>
<trkpt lat="46.2146450" lon="7.2638333"><ele></ele><time>2016-5-22T17:10:33Z</time></trkpt>
<trkpt lat="46.2146167" lon="7.2637900"><ele></ele><time>2016-5-22T17:10:36Z</time></trkpt>
<trkpt lat="46.2145900" lon="7.2637433"><ele></ele><time>2016-5-22T17:10:39Z</time></trkpt>
<trkpt lat="46.2145633" lon="7.2636967"><ele></ele><time>2016-5-22T17:10:42Z</time></trkpt>
<trkpt lat="46.2145350" lon="7.2636500"><ele></ele><time>2016-5-22T17:10:45Z</time></trkpt>
<trkpt lat="46.2145067" lon="7.2636067"><ele></ele><time>2016-5-22T17:10:48Z</time></trkpt>
<trkpt lat="46.2144783" lon="7.2635617"><ele></ele><time>2016-5-22T17:10:51Z</time></trkpt>
<trkpt lat="46.2144500" lon="7.2635167"><ele></ele><time>2016-5-22T17:10:54Z</time></trkpt>
<trkpt lat="46.2144200" lon="7.2634733"><ele></ele><time>2016-5-22T17:10:57Z</time></trkpt>
<trkpt lat="46.2143917" lon="7.2634317"><ele></ele><time>2016-5-22T17:11:0Z</time></trkpt>
<trkpt lat="46.2143617" lon="7.2633917"><ele></ele><time>2016-5-22T17:11:3Z</time></trkpt>
<trkpt lat="46.2143333" lon="7.2633483"><ele></ele><time>2016-5-22T17:11:6Z</time></trkpt>
<trkpt lat="46.2143067" lon="7.2633050"><ele></ele><time>2016-5-22T17:11:9Z</time></trkpt>
<trkpt lat="46.2142817" lon="7.2632617"><ele></ele><time>2016-5-22T17:11:12Z</time></trkpt>
<trkpt lat="46.2142600" lon="7.2632250"><ele></ele><time>2016-5-22T17:11:15Z</time></trkpt>
<trkpt lat="46.2142333" lon="7.2631867"><ele></ele><time>2016-5-22T17:11:18Z</time></trkpt>
<trkpt lat="46.2142033" lon="7.2631483"><ele></ele><time>2016-5-22T17:11:21Z</time></trkpt>
<trkpt lat="46.2141700" lon="7.2631100"><ele></ele><time>2016-5-22T17:11:24Z</time></trkpt>
<trkpt lat="46.2141350" lon="7.2630750"><ele></ele><time>2016-5-22T17:11:27Z</time></trkpt>
<trkpt lat="46.2141000" lon="7.2630383"><ele></ele><time>2016-5-22T17:11:30Z</time></trkpt>
<trkpt lat="46.2140467" lon="7.2630100"><ele></ele><time>2016-5-22T17:11:33Z</time></trkpt>
<trkpt lat="46.2140050" lon="7.2629817"><ele></ele><time>2016-5-22T17:11:36Z</time></trkpt>
<trkpt lat="46.2139767" lon="7.2629650"><ele></ele><time>2016-5-22T17:11:39Z</time></trkpt>
<trkpt lat="46.2139400" lon="7.2629467"><ele></ele><time>2016-5-22T17:11:42Z</time></trkpt>
<trkpt lat="46.2139217" lon="7.2629283"><ele></ele><time>2016-5-22T17:11:45Z</time></trkpt>
<trkpt lat="46.2139000" lon="7.2629133"><ele></ele><time>2016-5-22T17:11:48Z</time></trkpt>
<trkpt lat="46.2138750" lon="7.2628933"><ele></ele><time>2016-5-22T17:11:51Z</time></trkpt>
<trkpt lat="46.2138617" lon="7.2628833"><ele></ele><time>2016-5-22T17:11:54Z</time></trkpt>
<trkpt lat="46.2138400" lon="7.2628783"><ele></ele><time>2016-5-22T17:11:57Z</time></trkpt>
<trkpt lat="46.2138200" lon="7.2628800"><ele></ele><time>2016-5-22T17:12:0Z</time></trkpt>
<trkpt lat="46.2137917" lon="7.2628717"><ele></ele><time>2016-5-22T17:12:3Z</time></trkpt>
<trkpt lat="46.2137583" lon="7.2628967"><ele></ele><time>2016-5-22T17:12:6Z</time></trkpt>
<trkpt lat="46.2137183" lon="7.2629250"><ele></ele><time>2016-5-22T17:12:9Z</time></trkpt>
<trkpt lat="46.2136883" lon="7.2629683"><ele></ele><time>2016-5-22T17:12:12Z</time></trkpt>
<trkpt lat="46.2136600" lon="7.2630183"><ele></ele><time>2016-5-22T17:12:15Z</time></trkpt>
<trkpt lat="46.2136383" lon="7.2630683"><ele></ele><time>2016-5-22T17:12:18Z</time></trkpt>
<trkpt lat="46.2136133" lon="7.2631167"><ele></ele><time>2016-5-22T17:12:21Z</time></trkpt>
<trkpt lat="46.2135900" lon="7.2631650"><ele></ele><time>2016-5-22T17:12:24Z</time></trkpt>
<trkpt lat="46.2135767" lon="7.2632133"><ele></ele><time>2016-5-22T17:12:27Z</time></trkpt>
<trkpt lat="46.2135617" lon="7.2632617"><ele></ele><time>2016-5-22T17:12:30Z</time></trkpt>
<trkpt lat="46.2135417" lon="7.2633083"><ele></ele><time>2016-5-22T17:12:33Z</time></trkpt>
<trkpt lat="46.2135200" lon="7.2633567"><ele></ele><time>2016-5-22T17:12:36Z</time></trkpt>
<trkpt lat="46.2135017" lon="7.2634033"><ele></ele><time>2016-5-22T17:12:39Z</time></trkpt>
<trkpt lat="46.2134733" lon="7.2634533"><ele></ele><time>2016-5-22T17:12:42Z</time></trkpt>
<trkpt lat="46.2134500" lon="7.2635033"><ele></ele><time>2016-5-22T17:12:45Z</time></trkpt>
<trkpt lat="46.2134233" lon="7.2635517"><ele></ele><time>2016-5-22T17:12:48Z</time></trkpt>
<trkpt lat="46.2133967" lon="7.2635983"><ele></ele><time>2016-5-22T17:12:51Z</time></trkpt>
<trkpt lat="46.2133733" lon="7.2636450"><ele></ele><time>2016-5-22T17:12:54Z</time></trkpt>
<trkpt lat="46.2133517" lon="7.2636933"><ele></ele><time>2016-5-22T17:12:57Z</time></trkpt>
<trkpt lat="46.2133283" lon="7.2637450"><ele></ele><time>2016-5-22T17:13:0Z</time></trkpt>
<trkpt lat="46.2133050" lon="7.2637967"><ele></ele><time>2016-5-22T17:13:3Z</time></trkpt>
<trkpt lat="46.2132800" lon="7.2638483"><ele></ele><time>2016-5-22T17:13:6Z</time></trkpt>
<trkpt lat="46.2132550" lon="7.2639000"><ele></ele><time>2016-5-22T17:13:9Z</time></trkpt>
<trkpt lat="46.2132300" lon="7.2639517"><ele></ele><time>2016-5-22T17:13:12Z</time></trkpt>
<trkpt lat="46.2132050" lon="7.2640017"><ele></ele><time>2016-5-22T17:13:15Z</time></trkpt>
<trkpt lat="46.2131817" lon="7.2640500"><ele></ele><time>2016-5-22T17:13:18Z</time></trkpt>
<trkpt lat="46.2131583" lon="7.2640983"><ele></ele><time>2016-5-22T17:13:21Z</time></trkpt>
<trkpt lat="46.2131333" lon="7.2641483"><ele></ele><time>2016-5-22T17:13:24Z</time></trkpt>
<trkpt lat="46.2131083" lon="7.2641917"><ele></ele><time>2016-5-22T17:13:27Z</time></trkpt>
<trkpt lat="46.2130833" lon="7.2642467"><ele></ele><time>2016-5-22T17:13:30Z</time></trkpt>
<trkpt lat="46.2130650" lon="7.2643033"><ele></ele><time>2016-5-22T17:13:33Z</time></trkpt>
<trkpt lat="46.2130350" lon="7.2643600"><ele></ele><time>2016-5-22T17:13:36Z</time></trkpt>
<trkpt lat="46.2130200" lon="7.2644500"><ele></ele><time>2016-5-22T17:13:39Z</time></trkpt>
<trkpt lat="46.2129967" lon="7.2645100"><ele></ele><time>2016-5-22T17:13:42Z</time></trkpt>
<trkpt lat="46.2129717" lon="7.2645683"><ele></ele><time>2016-5-22T17:13:45Z</time></trkpt>
<trkpt lat="46.2129450" lon="7.2646250"><ele></ele><time>2016-5-22T17:13:48Z</time></trkpt>
<trkpt lat="46.2129117" lon="7.2646700"><ele></ele><time>2016-5-22T17:13:51Z</time></trkpt>
<trkpt lat="46.2128667" lon="7.2647100"><ele></ele><time>2016-5-22T17:13:54Z</time></trkpt>
<trkpt lat="46.2128367" lon="7.2647533"><ele></ele><time>2016-5-22T17:13:57Z</time></trkpt>
<trkpt lat="46.2128133" lon="7.2647850"><ele></ele><time>2016-5-22T17:14:0Z</time></trkpt>
<trkpt lat="46.2127950" lon="7.2648383"><ele></ele><time>2016-5-22T17:14:3Z</time></trkpt>
<trkpt lat="46.2127783" lon="7.2648750"><ele></ele><time>2016-5-22T17:14:6Z</time></trkpt>
<trkpt lat="46.2127417" lon="7.2649067"><ele></ele><time>2016-5-22T17:14:9Z</time></trkpt>
<trkpt lat="46.2126983" lon="7.2649483"><ele></ele><time>2016-5-22T17:14:12Z</time></trkpt>
<trkpt lat="46.2126633" lon="7.2649867"><ele></ele><time>2016-5-22T17:14:15Z</time></trkpt>
<trkpt lat="46.2126200" lon="7.2650117"><ele></ele><time>2016-5-22T17:14:18Z</time></trkpt>
<trkpt lat="46.2125717" lon="7.2650283"><ele></ele><time>2016-5-22T17:14:21Z</time></trkpt>
<trkpt lat="46.2125267" lon="7.2650100"><ele></ele><time>2016-5-22T17:14:24Z</time></trkpt>
<trkpt lat="46.2124883" lon="7.2649733"><ele></ele><time>2016-5-22T17:14:27Z</time></trkpt>
<trkpt lat="46.2124400" lon="7.2649433"><ele></ele><time>2016-5-22T17:14:30Z</time></trkpt>
<trkpt lat="46.2124117" lon="7.2648717"><ele></ele><time>2016-5-22T17:14:33Z</time></trkpt>
<trkpt lat="46.2123650" lon="7.2648267"><ele></ele><time>2016-5-22T17:14:36Z</time></trkpt>
<trkpt lat="46.2123167" lon="7.2647850"><ele></ele><time>2016-5-22T17:14:39Z</time></trkpt>
<trkpt lat="46.2122667" lon="7.2647383"><ele></ele><time>2016-5-22T17:14:42Z</time></trkpt>
<trkpt lat="46.2122183" lon="7.2646817"><ele></ele><time>2016-5-22T17:14:45Z</time></trkpt>
<trkpt lat="46.2121700" lon="7.2646233"><ele></ele><time>2016-5-22T17:14:48Z</time></trkpt>
<trkpt lat="46.2121200" lon="7.2645733"><ele></ele><time>2016-5-22T17:14:51Z</time></trkpt>
<trkpt lat="46.2120583" lon="7.2645267"><ele></ele><time>2016-5-22T17:14:54Z</time></trkpt>
<trkpt lat="46.2120033" lon="7.2644883"><ele></ele><time>2016-5-22T17:14:57Z</time></trkpt>
<trkpt lat="46.2119550" lon="7.2644250"><ele></ele><time>2016-5-22T17:15:0Z</time></trkpt>
<trkpt lat="46.2119100" lon="7.2643650"><ele></ele><time>2016-5-22T17:15:3Z</time></trkpt>
<trkpt lat="46.2118650" lon="7.2643133"><ele></ele><time>2016-5-22T17:15:6Z</time></trkpt>
<trkpt lat="46.2118117" lon="7.2642583"><ele></ele><time>2016-5-22T17:15:9Z</time></trkpt>
<trkpt lat="46.2117583" lon="7.2642183"><ele></ele><time>2016-5-22T17:15:12Z</time></trkpt>
<trkpt lat="46.2117117" lon="7.2641700"><ele></ele><time>2016-5-22T17:15:15Z</time></trkpt>
<trkpt lat="46.2116667" lon="7.2641200"><ele></ele><time>2016-5-22T17:15:18Z</time></trkpt>
<trkpt lat="46.2116300" lon="7.2640817"><ele></ele><time>2016-5-22T17:15:21Z</time></trkpt>
<trkpt lat="46.2115867" lon="7.2640467"><ele></ele><time>2016-5-22T17:15:24Z</time></trkpt>
<trkpt lat="46.2115383" lon="7.2640017"><ele></ele><time>2016-5-22T17:15:27Z</time></trkpt>
<trkpt lat="46.2114883" lon="7.2639650"><ele></ele><time>2016-5-22T17:15:30Z</time></trkpt>
<trkpt lat="46.2114433" lon="7.2639200"><ele></ele><time>2016-5-22T17:15:33Z</time></trkpt>
<trkpt lat="46.2113933" lon="7.2638883"><ele></ele><time>2016-5-22T17:15:36Z</time></trkpt>
<trkpt lat="46.2113517" lon="7.2638517"><ele></ele><time>2016-5-22T17:15:39Z</time></trkpt>
<trkpt lat="46.2113233" lon="7.2638117"><ele></ele><time>2016-5-22T17:15:42Z</time></trkpt>
<trkpt lat="46.2112733" lon="7.2637800"><ele></ele><time>2016-5-22T17:15:45Z</time></trkpt>
<trkpt lat="46.2112367" lon="7.2637183"><ele></ele><time>2016-5-22T17:15:48Z</time></trkpt>
<trkpt lat="46.2111967" lon="7.2636650"><ele></ele><time>2016-5-22T17:15:51Z</time></trkpt>
<trkpt lat="46.2111550" lon="7.2636183"><ele></ele><time>2016-5-22T17:15:54Z</time></trkpt>
<trkpt lat="46.2111050" lon="7.2635683"><ele></ele><time>2016-5-22T17:15:57Z</time></trkpt>
<trkpt lat="46.2110550" lon="7.2635233"><ele></ele><time>2016-5-22T17:16:0Z</time></trkpt>
<trkpt lat="46.2110167" lon="7.2634600"><ele></ele><time>2016-5-22T17:16:3Z</time></trkpt>
<trkpt lat="46.2109783" lon="7.2633900"><ele></ele><time>2016-5-22T17:16:6Z</time></trkpt>
<trkpt lat="46.2109367" lon="7.2633350"><ele></ele><time>2016-5-22T17:16:9Z</time></trkpt>
<trkpt lat="46.2108883" lon="7.2632683"><ele></ele><time>2016-5-22T17:16:12Z</time></trkpt>
<trkpt lat="46.2108467" lon="7.2632000"><ele></ele><time>2016-5-22T17:16:15Z</time></trkpt>
<trkpt lat="46.2108067" lon="7.2631217"><ele></ele><time>2016-5-22T17:16:18Z</time></trkpt>
<trkpt lat="46.2107717" lon="7.2630417"><ele></ele><time>2016-5-22T17:16:21Z</time></trkpt>
<trkpt lat="46.2107283" lon="7.2629583"><ele></ele><time>2016-5-22T17:16:24Z</time></trkpt>
<trkpt lat="46.2106900" lon="7.2628733"><ele></ele><time>2016-5-22T17:16:27Z</time></trkpt>
<trkpt lat="46.2106500" lon="7.2627950"><ele></ele><time>2016-5-22T17:16:30Z</time></trkpt>
<trkpt lat="46.2106150" lon="7.2627217"><ele></ele><time>2016-5-22T17:16:33Z</time></trkpt>
<trkpt lat="46.2105817" lon="7.2626333"><ele></ele><time>2016-5-22T17:16:36Z</time></trkpt>
<trkpt lat="46.2105450" lon="7.2625517"><ele></ele><time>2016-5-22T17:16:39Z</time></trkpt>
<trkpt lat="46.2105067" lon="7.2624783"><ele></ele><time>2016-5-22T17:16:42Z</time></trkpt>
<trkpt lat="46.2104750" lon="7.2623950"><ele></ele><time>2016-5-22T17:16:45Z</time></trkpt>
<trkpt lat="46.2104417" lon="7.2623200"><ele></ele><time>2016-5-22T17:16:48Z</time></trkpt>
<trkpt lat="46.2104017" lon="7.2622500"><ele></ele><time>2016-5-22T17:16:51Z</time></trkpt>
<trkpt lat="46.2103650" lon="7.2621783"><ele></ele><time>2016-5-22T17:16:54Z</time></trkpt>
<trkpt lat="46.2103333" lon="7.2621083"><ele></ele><time>2016-5-22T17:16:57Z</time></trkpt>
<trkpt lat="46.2102967" lon="7.2620367"><ele></ele><time>2016-5-22T17:17:0Z</time></trkpt>
<trkpt lat="46.2102600" lon="7.2619717"><ele></ele><time>2016-5-22T17:17:3Z</time></trkpt>
<trkpt lat="46.2102267" lon="7.2619017"><ele></ele><time>2016-5-22T17:17:6Z</time></trkpt>
<trkpt lat="46.2101867" lon="7.2618200"><ele></ele><time>2016-5-22T17:17:9Z</time></trkpt>
<trkpt lat="46.2101467" lon="7.2617417"><ele></ele><time>2016-5-22T17:17:12Z</time></trkpt>
<trkpt lat="46.2101217" lon="7.2616650"><ele></ele><time>2016-5-22T17:17:15Z</time></trkpt>
<trkpt lat="46.2100917" lon="7.2615967"><ele></ele><time>2016-5-22T17:17:18Z</time></trkpt>
<trkpt lat="46.2100550" lon="7.2615100"><ele></ele><time>2016-5-22T17:17:21Z</time></trkpt>
<trkpt lat="46.2100183" lon="7.2614383"><ele></ele><time>2016-5-22T17:17:24Z</time></trkpt>
<trkpt lat="46.2099850" lon="7.2613567"><ele></ele><time>2016-5-22T17:17:27Z</time></trkpt>
<trkpt lat="46.2099483" lon="7.2612850"><ele></ele><time>2016-5-22T17:17:30Z</time></trkpt>
<trkpt lat="46.2098933" lon="7.2612050"><ele></ele><time>2016-5-22T17:17:33Z</time></trkpt>
<trkpt lat="46.2098633" lon="7.2611233"><ele></ele><time>2016-5-22T17:17:36Z</time></trkpt>
<trkpt lat="46.2098300" lon="7.2610467"><ele></ele><time>2016-5-22T17:17:39Z</time></trkpt>
<trkpt lat="46.2097933" lon="7.2609683"><ele></ele><time>2016-5-22T17:17:42Z</time></trkpt>
<trkpt lat="46.2097533" lon="7.2608867"><ele></ele><time>2016-5-22T17:17:45Z</time></trkpt>
<trkpt lat="46.2097233" lon="7.2608067"><ele></ele><time>2016-5-22T17:17:48Z</time></trkpt>
<trkpt lat="46.2096950" lon="7.2607283"><ele></ele><time>2016-5-22T17:17:51Z</time></trkpt>
<trkpt lat="46.2096600" lon="7.2606533"><ele></ele><time>2016-5-22T17:17:54Z</time></trkpt>
<trkpt lat="46.2096283" lon="7.2605800"><ele></ele><time>2016-5-22T17:17:57Z</time></trkpt>
<trkpt lat="46.2096050" lon="7.2605050"><ele></ele><time>2016-5-22T17:18:0Z</time></trkpt>
<trkpt lat="46.2095767" lon="7.2604217"><ele></ele><time>2016-5-22T17:18:3Z</time></trkpt>
<trkpt lat="46.2095400" lon="7.2603550"><ele></ele><time>2016-5-22T17:18:6Z</time></trkpt>
<trkpt lat="46.2095050" lon="7.2602783"><ele></ele><time>2016-5-22T17:18:9Z</time></trkpt>
<trkpt lat="46.2094667" lon="7.2602000"><ele></ele><time>2016-5-22T17:18:12Z</time></trkpt>
<trkpt lat="46.2094317" lon="7.2601267"><ele></ele><time>2016-5-22T17:18:15Z</time></trkpt>
<trkpt lat="46.2094017" lon="7.2600583"><ele></ele><time>2016-5-22T17:18:18Z</time></trkpt>
<trkpt lat="46.2093600" lon="7.2599950"><ele></ele><time>2016-5-22T17:18:21Z</time></trkpt>
<trkpt lat="46.2093233" lon="7.2599233"><ele></ele><time>2016-5-22T17:18:24Z</time></trkpt>
<trkpt lat="46.2092883" lon="7.2598483"><ele></ele><time>2016-5-22T17:18:27Z</time></trkpt>
<trkpt lat="46.2092517" lon="7.2597800"><ele></ele><time>2016-5-22T17:18:30Z</time></trkpt>
<trkpt lat="46.2092267" lon="7.2597150"><ele></ele><time>2016-5-22T17:18:33Z</time></trkpt>
<trkpt lat="46.2091917" lon="7.2596483"><ele></ele><time>2016-5-22T17:18:36Z</time></trkpt>
<trkpt lat="46.2091550" lon="7.2595750"><ele></ele><time>2016-5-22T17:18:39Z</time></trkpt>
<trkpt lat="46.2091233" lon="7.2594950"><ele></ele><time>2016-5-22T17:18:42Z</time></trkpt>
<trkpt lat="46.2090867" lon="7.2594217"><ele></ele><time>2016-5-22T17:18:45Z</time></trkpt>
<trkpt lat="46.2090483" lon="7.2593433"><ele></ele><time>2016-5-22T17:18:48Z</time></trkpt>
<trkpt lat="46.2090117" lon="7.2592633"><ele></ele><time>2016-5-22T17:18:51Z</time></trkpt>
<trkpt lat="46.2089767" lon="7.2591850"><ele></ele><time>2016-5-22T17:18:54Z</time></trkpt>
<trkpt lat="46.2089367" lon="7.2591083"><ele></ele><time>2016-5-22T17:18:57Z</time></trkpt>
<trkpt lat="46.2088967" lon="7.2590267"><ele></ele><time>2016-5-22T17:19:0Z</time></trkpt>
<trkpt lat="46.2088583" lon="7.2589483"><ele></ele><time>2016-5-22T17:19:3Z</time></trkpt>
<trkpt lat="46.2088150" lon="7.2588717"><ele></ele><time>2016-5-22T17:19:6Z</time></trkpt>
<trkpt lat="46.2087800" lon="7.2588083"><ele></ele><time>2016-5-22T17:19:9Z</time></trkpt>
<trkpt lat="46.2087417" lon="7.2587250"><ele></ele><time>2016-5-22T17:19:12Z</time></trkpt>
<trkpt lat="46.2087100" lon="7.2586500"><ele></ele><time>2016-5-22T17:19:15Z</time></trkpt>
<trkpt lat="46.2086850" lon="7.2585850"><ele></ele><time>2016-5-22T17:19:18Z</time></trkpt>
<trkpt lat="46.2086767" lon="7.2585050"><ele></ele><time>2016-5-22T17:19:21Z</time></trkpt>
<trkpt lat="46.2086567" lon="7.2584283"><ele></ele><time>2016-5-22T17:19:24Z</time></trkpt>
<trkpt lat="46.2086233" lon="7.2583550"><ele></ele><time>2016-5-22T17:19:27Z</time></trkpt>
<trkpt lat="46.2085917" lon="7.2582767"><ele></ele><time>2016-5-22T17:19:30Z</time></trkpt>
<trkpt lat="46.2085500" lon="7.2581983"><ele></ele><time>2016-5-22T17:19:33Z</time></trkpt>
<trkpt lat="46.2085133" lon="7.2581117"><ele></ele><time>2016-5-22T17:19:36Z</time></trkpt>
<trkpt lat="46.2084767" lon="7.2580400"><ele></ele><time>2016-5-22T17:19:39Z</time></trkpt>
<trkpt lat="46.2084467" lon="7.2579700"><ele></ele><time>2016-5-22T17:19:42Z</time></trkpt>
<trkpt lat="46.2084183" lon="7.2578933"><ele></ele><time>2016-5-22T17:19:45Z</time></trkpt>
<trkpt lat="46.2083783" lon="7.2578133"><ele></ele><time>2016-5-22T17:19:48Z</time></trkpt>
<trkpt lat="46.2083433" lon="7.2577333"><ele></ele><time>2016-5-22T17:19:51Z</time></trkpt>
<trkpt lat="46.2083050" lon="7.2576600"><ele></ele><time>2016-5-22T17:19:54Z</time></trkpt>
<trkpt lat="46.2082633" lon="7.2575717"><ele></ele><time>2016-5-22T17:19:57Z</time></trkpt>
<trkpt lat="46.2082183" lon="7.2574783"><ele></ele><time>2016-5-22T17:20:0Z</time></trkpt>
<trkpt lat="46.2081733" lon="7.2573917"><ele></ele><time>2016-5-22T17:20:3Z</time></trkpt>
<trkpt lat="46.2081350" lon="7.2573033"><ele></ele><time>2016-5-22T17:20:6Z</time></trkpt>
<trkpt lat="46.2080950" lon="7.2572167"><ele></ele><time>2016-5-22T17:20:9Z</time></trkpt>
<trkpt lat="46.2080567" lon="7.2571300"><ele></ele><time>2016-5-22T17:20:12Z</time></trkpt>
<trkpt lat="46.2080183" lon="7.2570450"><ele></ele><time>2016-5-22T17:20:15Z</time></trkpt>
<trkpt lat="46.2079750" lon="7.2569600"><ele></ele><time>2016-5-22T17:20:18Z</time></trkpt>
<trkpt lat="46.2079367" lon="7.2568800"><ele></ele><time>2016-5-22T17:20:21Z</time></trkpt>
<trkpt lat="46.2079067" lon="7.2567983"><ele></ele><time>2016-5-22T17:20:24Z</time></trkpt>
<trkpt lat="46.2078683" lon="7.2567250"><ele></ele><time>2016-5-22T17:20:27Z</time></trkpt>
<trkpt lat="46.2078300" lon="7.2566500"><ele></ele><time>2016-5-22T17:20:30Z</time></trkpt>
<trkpt lat="46.2077900" lon="7.2565817"><ele></ele><time>2016-5-22T17:20:33Z</time></trkpt>
<trkpt lat="46.2077517" lon="7.2565117"><ele></ele><time>2016-5-22T17:20:36Z</time></trkpt>
<trkpt lat="46.2077200" lon="7.2564350"><ele></ele><time>2016-5-22T17:20:39Z</time></trkpt>
<trkpt lat="46.2076883" lon="7.2563617"><ele></ele><time>2016-5-22T17:20:42Z</time></trkpt>
<trkpt lat="46.2076550" lon="7.2562950"><ele></ele><time>2016-5-22T17:20:45Z</time></trkpt>
<trkpt lat="46.2076183" lon="7.2562300"><ele></ele><time>2016-5-22T17:20:48Z</time></trkpt>
<trkpt lat="46.2075817" lon="7.2561617"><ele></ele><time>2016-5-22T17:20:51Z</time></trkpt>
<trkpt lat="46.2075600" lon="7.2560850"><ele></ele><time>2016-5-22T17:20:54Z</time></trkpt>
<trkpt lat="46.2075467" lon="7.2560100"><ele></ele><time>2016-5-22T17:20:57Z</time></trkpt>
<trkpt lat="46.2075167" lon="7.2559433"><ele></ele><time>2016-5-22T17:21:0Z</time></trkpt>
<trkpt lat="46.2074850" lon="7.2558750"><ele></ele><time>2016-5-22T17:21:3Z</time></trkpt>
<trkpt lat="46.2074317" lon="7.2558317"><ele></ele><time>2016-5-22T17:21:6Z</time></trkpt>
<trkpt lat="46.2073750" lon="7.2557867"><ele></ele><time>2016-5-22T17:21:9Z</time></trkpt>
<trkpt lat="46.2073300" lon="7.2557417"><ele></ele><time>2016-5-22T17:21:12Z</time></trkpt>
<trkpt lat="46.2072750" lon="7.2556950"><ele></ele><time>2016-5-22T17:21:15Z</time></trkpt>
<trkpt lat="46.2072200" lon="7.2556550"><ele></ele><time>2016-5-22T17:21:18Z</time></trkpt>
<trkpt lat="46.2071667" lon="7.2556333"><ele></ele><time>2016-5-22T17:21:21Z</time></trkpt>
<trkpt lat="46.2071250" lon="7.2555867"><ele></ele><time>2016-5-22T17:21:24Z</time></trkpt>
<trkpt lat="46.2070717" lon="7.2555600"><ele></ele><time>2016-5-22T17:21:27Z</time></trkpt>
<trkpt lat="46.2070217" lon="7.2555317"><ele></ele><time>2016-5-22T17:21:30Z</time></trkpt>
<trkpt lat="46.2069733" lon="7.2555100"><ele></ele><time>2016-5-22T17:21:33Z</time></trkpt>
<trkpt lat="46.2069283" lon="7.2554700"><ele></ele><time>2016-5-22T17:21:36Z</time></trkpt>
<trkpt lat="46.2068800" lon="7.2554317"><ele></ele><time>2016-5-22T17:21:39Z</time></trkpt>
<trkpt lat="46.2068383" lon="7.2553900"><ele></ele><time>2016-5-22T17:21:42Z</time></trkpt>
<trkpt lat="46.2068050" lon="7.2553317"><ele></ele><time>2016-5-22T17:21:45Z</time></trkpt>
<trkpt lat="46.2067617" lon="7.2552983"><ele></ele><time>2016-5-22T17:21:48Z</time></trkpt>
<trkpt lat="46.2067200" lon="7.2552467"><ele></ele><time>2016-5-22T17:21:51Z</time></trkpt>
<trkpt lat="46.2066750" lon="7.2552133"><ele></ele><time>2016-5-22T17:21:54Z</time></trkpt>
<trkpt lat="46.2066267" lon="7.2551933"><ele></ele><time>2016-5-22T17:21:57Z</time></trkpt>
<trkpt lat="46.2065850" lon="7.2551733"><ele></ele><time>2016-5-22T17:22:0Z</time></trkpt>
<trkpt lat="46.2065400" lon="7.2551417"><ele></ele><time>2016-5-22T17:22:3Z</time></trkpt>
<trkpt lat="46.2064933" lon="7.2551150"><ele></ele><time>2016-5-22T17:22:6Z</time></trkpt>
<trkpt lat="46.2064350" lon="7.2550950"><ele></ele><time>2016-5-22T17:22:9Z</time></trkpt>
<trkpt lat="46.2063933" lon="7.2550633"><ele></ele><time>2016-5-22T17:22:12Z</time></trkpt>
<trkpt lat="46.2063517" lon="7.2550217"><ele></ele><time>2016-5-22T17:22:15Z</time></trkpt>
<trkpt lat="46.2063067" lon="7.2549900"><ele></ele><time>2016-5-22T17:22:18Z</time></trkpt>
<trkpt lat="46.2062633" lon="7.2549467"><ele></ele><time>2016-5-22T17:22:21Z</time></trkpt>
<trkpt lat="46.2062167" lon="7.2549217"><ele></ele><time>2016-5-22T17:22:24Z</time></trkpt>
<trkpt lat="46.2061667" lon="7.2549000"><ele></ele><time>2016-5-22T17:22:27Z</time></trkpt>
<trkpt lat="46.2061200" lon="7.2548833"><ele></ele><time>2016-5-22T17:22:30Z</time></trkpt>
<trkpt lat="46.2060783" lon="7.2548617"><ele></ele><time>2016-5-22T17:22:33Z</time></trkpt>
<trkpt lat="46.2060317" lon="7.2548450"><ele></ele><time>2016-5-22T17:22:36Z</time></trkpt>
<trkpt lat="46.2059933" lon="7.2548250"><ele></ele><time>2016-5-22T17:22:39Z</time></trkpt>
<trkpt lat="46.2059483" lon="7.2548067"><ele></ele><time>2016-5-22T17:22:42Z</time></trkpt>
<trkpt lat="46.2059083" lon="7.2547833"><ele></ele><time>2016-5-22T17:22:45Z</time></trkpt>
<trkpt lat="46.2058700" lon="7.2547550"><ele></ele><time>2016-5-22T17:22:48Z</time></trkpt>
<trkpt lat="46.2058283" lon="7.2547350"><ele></ele><time>2016-5-22T17:22:51Z</time></trkpt>
<trkpt lat="46.2057867" lon="7.2547133"><ele></ele><time>2016-5-22T17:22:54Z</time></trkpt>
<trkpt lat="46.2057400" lon="7.2546800"><ele></ele><time>2016-5-22T17:22:57Z</time></trkpt>
<trkpt lat="46.2056933" lon="7.2546533"><ele></ele><time>2016-5-22T17:23:0Z</time></trkpt>
<trkpt lat="46.2056433" lon="7.2546350"><ele></ele><time>2016-5-22T17:23:3Z</time></trkpt>
<trkpt lat="46.2055983" lon="7.2545967"><ele></ele><time>2016-5-22T17:23:6Z</time></trkpt>
<trkpt lat="46.2055467" lon="7.2545983"><ele></ele><time>2016-5-22T17:23:9Z</time></trkpt>
<trkpt lat="46.2055083" lon="7.2545750"><ele></ele><time>2016-5-22T17:23:12Z</time></trkpt>
<trkpt lat="46.2054567" lon="7.2545533"><ele></ele><time>2016-5-22T17:23:15Z</time></trkpt>
<trkpt lat="46.2054083" lon="7.2545500"><ele></ele><time>2016-5-22T17:23:18Z</time></trkpt>
<trkpt lat="46.2053567" lon="7.2545367"><ele></ele><time>2016-5-22T17:23:21Z</time></trkpt>
<trkpt lat="46.2053033" lon="7.2545333"><ele></ele><time>2016-5-22T17:23:24Z</time></trkpt>
<trkpt lat="46.2052550" lon="7.2545283"><ele></ele><time>2016-5-22T17:23:27Z</time></trkpt>
<trkpt lat="46.2052200" lon="7.2545033"><ele></ele><time>2016-5-22T17:23:30Z</time></trkpt>
<trkpt lat="46.2051833" lon="7.2544917"><ele></ele><time>2016-5-22T17:23:33Z</time></trkpt>
<trkpt lat="46.2051367" lon="7.2544867"><ele></ele><time>2016-5-22T17:23:36Z</time></trkpt>
<trkpt lat="46.2050867" lon="7.2544717"><ele></ele><time>2016-5-22T17:23:39Z</time></trkpt>
<trkpt lat="46.2050467" lon="7.2544650"><ele></ele><time>2016-5-22T17:23:42Z</time></trkpt>
<trkpt lat="46.2050067" lon="7.2544750"><ele></ele><time>2016-5-22T17:23:45Z</time></trkpt>
<trkpt lat="46.2049633" lon="7.2544683"><ele></ele><time>2016-5-22T17:23:48Z</time></trkpt>
<trkpt lat="46.2049250" lon="7.2544550"><ele></ele><time>2016-5-22T17:23:51Z</time></trkpt>
<trkpt lat="46.2048767" lon="7.2544417"><ele></ele><time>2016-5-22T17:23:54Z</time></trkpt>
<trkpt lat="46.2048333" lon="7.2544267"><ele></ele><time>2016-5-22T17:23:57Z</time></trkpt>
<trkpt lat="46.2047817" lon="7.2544200"><ele></ele><time>2016-5-22T17:24:0Z</time></trkpt>
<trkpt lat="46.2047367" lon="7.2544317"><ele></ele><time>2016-5-22T17:24:3Z</time></trkpt>
<trkpt lat="46.2046833" lon="7.2544300"><ele></ele><time>2016-5-22T17:24:6Z</time></trkpt>
<trkpt lat="46.2046417" lon="7.2544217"><ele></ele><time>2016-5-22T17:24:9Z</time></trkpt>
<trkpt lat="46.2046000" lon="7.2544200"><ele></ele><time>2016-5-22T17:24:12Z</time></trkpt>
<trkpt lat="46.2045600" lon="7.2544233"><ele></ele><time>2016-5-22T17:24:15Z</time></trkpt>
<trkpt lat="46.2045150" lon="7.2544267"><ele></ele><time>2016-5-22T17:24:18Z</time></trkpt>
<trkpt lat="46.2044700" lon="7.2544150"><ele></ele><time>2016-5-22T17:24:21Z</time></trkpt>
<trkpt lat="46.2044250" lon="7.2544117"><ele></ele><time>2016-5-22T17:24:24Z</time></trkpt>
<trkpt lat="46.2043867" lon="7.2544017"><ele></ele><time>2016-5-22T17:24:27Z</time></trkpt>
<trkpt lat="46.2043417" lon="7.2543983"><ele></ele><time>2016-5-22T17:24:30Z</time></trkpt>
<trkpt lat="46.2043033" lon="7.2544117"><ele></ele><time>2016-5-22T17:24:33Z</time></trkpt>
<trkpt lat="46.2042600" lon="7.2544067"><ele></ele><time>2016-5-22T17:24:36Z</time></trkpt>
<trkpt lat="46.2042033" lon="7.2543967"><ele></ele><time>2016-5-22T17:24:39Z</time></trkpt>
<trkpt lat="46.2041567" lon="7.2543900"><ele></ele><time>2016-5-22T17:24:42Z</time></trkpt>
<trkpt lat="46.2041050" lon="7.2543933"><ele></ele><time>2016-5-22T17:24:45Z</time></trkpt>
<trkpt lat="46.2040600" lon="7.2544033"><ele></ele><time>2016-5-22T17:24:48Z</time></trkpt>
<trkpt lat="46.2040183" lon="7.2544100"><ele></ele><time>2016-5-22T17:24:51Z</time></trkpt>
<trkpt lat="46.2039683" lon="7.2544200"><ele></ele><time>2016-5-22T17:24:54Z</time></trkpt>
<trkpt lat="46.2039117" lon="7.2544267"><ele></ele><time>2016-5-22T17:24:57Z</time></trkpt>
<trkpt lat="46.2038550" lon="7.2544367"><ele></ele><time>2016-5-22T17:25:0Z</time></trkpt>
<trkpt lat="46.2038117" lon="7.2544367"><ele></ele><time>2016-5-22T17:25:3Z</time></trkpt>
<trkpt lat="46.2037633" lon="7.2544517"><ele></ele><time>2016-5-22T17:25:6Z</time></trkpt>
<trkpt lat="46.2037117" lon="7.2544700"><ele></ele><time>2016-5-22T17:25:9Z</time></trkpt>
<trkpt lat="46.2036517" lon="7.2544800"><ele></ele><time>2016-5-22T17:25:12Z</time></trkpt>
<trkpt lat="46.2036100" lon="7.2545083"><ele></ele><time>2016-5-22T17:25:15Z</time></trkpt>
<trkpt lat="46.2035533" lon="7.2545433"><ele></ele><time>2016-5-22T17:25:18Z</time></trkpt>
<trkpt lat="46.2035100" lon="7.2545700"><ele></ele><time>2016-5-22T17:25:21Z</time></trkpt>
<trkpt lat="46.2034633" lon="7.2545933"><ele></ele><time>2016-5-22T17:25:24Z</time></trkpt>
<trkpt lat="46.2034067" lon="7.2546033"><ele></ele><time>2016-5-22T17:25:27Z</time></trkpt>
<trkpt lat="46.2033550" lon="7.2545950"><ele></ele><time>2016-5-22T17:25:30Z</time></trkpt>
<trkpt lat="46.2033050" lon="7.2545517"><ele></ele><time>2016-5-22T17:25:33Z</time></trkpt>
<trkpt lat="46.2032767" lon="7.2544950"><ele></ele><time>2016-5-22T17:25:36Z</time></trkpt>
<trkpt lat="46.2032533" lon="7.2544300"><ele></ele><time>2016-5-22T17:25:39Z</time></trkpt>
<trkpt lat="46.2032267" lon="7.2543683"><ele></ele><time>2016-5-22T17:25:42Z</time></trkpt>
<trkpt lat="46.2031983" lon="7.2543000"><ele></ele><time>2016-5-22T17:25:45Z</time></trkpt>
<trkpt lat="46.2031717" lon="7.2542400"><ele></ele><time>2016-5-22T17:25:48Z</time></trkpt>
<trkpt lat="46.2031383" lon="7.2541767"><ele></ele><time>2016-5-22T17:25:51Z</time></trkpt>
<trkpt lat="46.2031017" lon="7.2541117"><ele></ele><time>2016-5-22T17:25:54Z</time></trkpt>
<trkpt lat="46.2030483" lon="7.2540767"><ele></ele><time>2016-5-22T17:25:57Z</time></trkpt>
<trkpt lat="46.2030033" lon="7.2540467"><ele></ele><time>2016-5-22T17:26:0Z</time></trkpt>
<trkpt lat="46.2029683" lon="7.2540283"><ele></ele><time>2016-5-22T17:26:3Z</time></trkpt>
<trkpt lat="46.2029183" lon="7.2540150"><ele></ele><time>2016-5-22T17:26:6Z</time></trkpt>
<trkpt lat="46.2028633" lon="7.2540033"><ele></ele><time>2016-5-22T17:26:9Z</time></trkpt>
<trkpt lat="46.2028150" lon="7.2540067"><ele></ele><time>2016-5-22T17:26:12Z</time></trkpt>
<trkpt lat="46.2027667" lon="7.2539967"><ele></ele><time>2016-5-22T17:26:15Z</time></trkpt>
<trkpt lat="46.2027117" lon="7.2539917"><ele></ele><time>2016-5-22T17:26:18Z</time></trkpt>
<trkpt lat="46.2026600" lon="7.2539800"><ele></ele><time>2016-5-22T17:26:21Z</time></trkpt>
<trkpt lat="46.2026067" lon="7.2539750"><ele></ele><time>2016-5-22T17:26:24Z</time></trkpt>
<trkpt lat="46.2025500" lon="7.2539700"><ele></ele><time>2016-5-22T17:26:27Z</time></trkpt>
<trkpt lat="46.2025017" lon="7.2539583"><ele></ele><time>2016-5-22T17:26:30Z</time></trkpt>
<trkpt lat="46.2024433" lon="7.2539400"><ele></ele><time>2016-5-22T17:26:33Z</time></trkpt>
<trkpt lat="46.2023867" lon="7.2539217"><ele></ele><time>2016-5-22T17:26:36Z</time></trkpt>
<trkpt lat="46.2023283" lon="7.2538983"><ele></ele><time>2016-5-22T17:26:39Z</time></trkpt>
<trkpt lat="46.2022750" lon="7.2538800"><ele></ele><time>2016-5-22T17:26:42Z</time></trkpt>
<trkpt lat="46.2022250" lon="7.2538567"><ele></ele><time>2016-5-22T17:26:45Z</time></trkpt>
<trkpt lat="46.2021700" lon="7.2538233"><ele></ele><time>2016-5-22T17:26:48Z</time></trkpt>
<trkpt lat="46.2021167" lon="7.2537967"><ele></ele><time>2016-5-22T17:26:51Z</time></trkpt>
<trkpt lat="46.2020617" lon="7.2537867"><ele></ele><time>2016-5-22T17:26:54Z</time></trkpt>
<trkpt lat="46.2020100" lon="7.2537500"><ele></ele><time>2016-5-22T17:26:57Z</time></trkpt>
<trkpt lat="46.2019583" lon="7.2537150"><ele></ele><time>2016-5-22T17:27:0Z</time></trkpt>
<trkpt lat="46.2019083" lon="7.2536833"><ele></ele><time>2016-5-22T17:27:3Z</time></trkpt>
<trkpt lat="46.2018567" lon="7.2536550"><ele></ele><time>2016-5-22T17:27:6Z</time></trkpt>
<trkpt lat="46.2018017" lon="7.2536367"><ele></ele><time>2016-5-22T17:27:9Z</time></trkpt>
<trkpt lat="46.2017450" lon="7.2536133"><ele></ele><time>2016-5-22T17:27:12Z</time></trkpt>
<trkpt lat="46.2016917" lon="7.2535933"><ele></ele><time>2016-5-22T17:27:15Z</time></trkpt>
<trkpt lat="46.2016300" lon="7.2535750"><ele></ele><time>2016-5-22T17:27:18Z</time></trkpt>
<trkpt lat="46.2015700" lon="7.2535667"><ele></ele><time>2016-5-22T17:27:21Z</time></trkpt>
<trkpt lat="46.2015200" lon="7.2535483"><ele></ele><time>2016-5-22T17:27:24Z</time></trkpt>
<trkpt lat="46.2014733" lon="7.2535250"><ele></ele><time>2016-5-22T17:27:27Z</time></trkpt>
<trkpt lat="46.2014183" lon="7.2535050"><ele></ele><time>2016-5-22T17:27:30Z</time></trkpt>
<trkpt lat="46.2013667" lon="7.2534867"><ele></ele><time>2016-5-22T17:27:33Z</time></trkpt>
<trkpt lat="46.2013150" lon="7.2534683"><ele></ele><time>2016-5-22T17:27:36Z</time></trkpt>
<trkpt lat="46.2012667" lon="7.2534500"><ele></ele><time>2016-5-22T17:27:39Z</time></trkpt>
<trkpt lat="46.2012183" lon="7.2534333"><ele></ele><time>2016-5-22T17:27:42Z</time></trkpt>
<trkpt lat="46.2011667" lon="7.2534217"><ele></ele><time>2016-5-22T17:27:45Z</time></trkpt>
<trkpt lat="46.2011200" lon="7.2534083"><ele></ele><time>2016-5-22T17:27:48Z</time></trkpt>
<trkpt lat="46.2010733" lon="7.2533950"><ele></ele><time>2016-5-22T17:27:51Z</time></trkpt>
<trkpt lat="46.2010217" lon="7.2533900"><ele></ele><time>2016-5-22T17:27:54Z</time></trkpt>
<trkpt lat="46.2009750" lon="7.2533700"><ele></ele><time>2016-5-22T17:27:57Z</time></trkpt>
<trkpt lat="46.2009250" lon="7.2533517"><ele></ele><time>2016-5-22T17:28:0Z</time></trkpt>
<trkpt lat="46.2008750" lon="7.2533300"><ele></ele><time>2016-5-22T17:28:3Z</time></trkpt>
<trkpt lat="46.2008183" lon="7.2533100"><ele></ele><time>2016-5-22T17:28:6Z</time></trkpt>
<trkpt lat="46.2007667" lon="7.2532917"><ele></ele><time>2016-5-22T17:28:9Z</time></trkpt>
<trkpt lat="46.2007183" lon="7.2532733"><ele></ele><time>2016-5-22T17:28:12Z</time></trkpt>
<trkpt lat="46.2006817" lon="7.2532617"><ele></ele><time>2016-5-22T17:28:15Z</time></trkpt>
<trkpt lat="46.2006417" lon="7.2532317"><ele></ele><time>2016-5-22T17:28:18Z</time></trkpt>
<trkpt lat="46.2005950" lon="7.2532050"><ele></ele><time>2016-5-22T17:28:21Z</time></trkpt>
<trkpt lat="46.2005500" lon="7.2531817"><ele></ele><time>2016-5-22T17:28:24Z</time></trkpt>
<trkpt lat="46.2005083" lon="7.2531683"><ele></ele><time>2016-5-22T17:28:27Z</time></trkpt>
<trkpt lat="46.2004700" lon="7.2531383"><ele></ele><time>2016-5-22T17:28:30Z</time></trkpt>
<trkpt lat="46.2004217" lon="7.2531167"><ele></ele><time>2016-5-22T17:28:33Z</time></trkpt>
<trkpt lat="46.2003817" lon="7.2530817"><ele></ele><time>2016-5-22T17:28:36Z</time></trkpt>
<trkpt lat="46.2003417" lon="7.2530350"><ele></ele><time>2016-5-22T17:28:39Z</time></trkpt>
<trkpt lat="46.2002933" lon="7.2529967"><ele></ele><time>2016-5-22T17:28:42Z</time></trkpt>
<trkpt lat="46.2002483" lon="7.2529767"><ele></ele><time>2016-5-22T17:28:45Z</time></trkpt>
<trkpt lat="46.2002033" lon="7.2529517"><ele></ele><time>2016-5-22T17:28:48Z</time></trkpt>
<trkpt lat="46.2001583" lon="7.2529200"><ele></ele><time>2016-5-22T17:28:51Z</time></trkpt>
<trkpt lat="46.2001133" lon="7.2528900"><ele></ele><time>2016-5-22T17:28:54Z</time></trkpt>
<trkpt lat="46.2000700" lon="7.2528533"><ele></ele><time>2016-5-22T17:28:57Z</time></trkpt>
<trkpt lat="46.2000200" lon="7.2528217"><ele></ele><time>2016-5-22T17:29:0Z</time></trkpt>
<trkpt lat="46.1999767" lon="7.2527950"><ele></ele><time>2016-5-22T17:29:3Z</time></trkpt>
<trkpt lat="46.1999317" lon="7.2527617"><ele></ele><time>2016-5-22T17:29:6Z</time></trkpt>
<trkpt lat="46.1998900" lon="7.2527383"><ele></ele><time>2016-5-22T17:29:9Z</time></trkpt>
<trkpt lat="46.1998533" lon="7.2527167"><ele></ele><time>2016-5-22T17:29:12Z</time></trkpt>
<trkpt lat="46.1998117" lon="7.2526833"><ele></ele><time>2016-5-22T17:29:15Z</time></trkpt>
<trkpt lat="46.1997683" lon="7.2526683"><ele></ele><time>2016-5-22T17:29:18Z</time></trkpt>
<trkpt lat="46.1997200" lon="7.2526250"><ele></ele><time>2016-5-22T17:29:21Z</time></trkpt>
<trkpt lat="46.1996767" lon="7.2525933"><ele></ele><time>2016-5-22T17:29:24Z</time></trkpt>
<trkpt lat="46.1996333" lon="7.2525600"><ele></ele><time>2016-5-22T17:29:27Z</time></trkpt>
<trkpt lat="46.1995917" lon="7.2525317"><ele></ele><time>2016-5-22T17:29:30Z</time></trkpt>
<trkpt lat="46.1995467" lon="7.2525033"><ele></ele><time>2016-5-22T17:29:33Z</time></trkpt>
<trkpt lat="46.1995067" lon="7.2524733"><ele></ele><time>2016-5-22T17:29:36Z</time></trkpt>
<trkpt lat="46.1994650" lon="7.2524367"><ele></ele><time>2016-5-22T17:29:39Z</time></trkpt>
<trkpt lat="46.1994250" lon="7.2524150"><ele></ele><time>2016-5-22T17:29:42Z</time></trkpt>
<trkpt lat="46.1993867" lon="7.2523850"><ele></ele><time>2016-5-22T17:29:45Z</time></trkpt>
<trkpt lat="46.1993350" lon="7.2523567"><ele></ele><time>2016-5-22T17:29:48Z</time></trkpt>
<trkpt lat="46.1992950" lon="7.2523133"><ele></ele><time>2016-5-22T17:29:51Z</time></trkpt>
<trkpt lat="46.1992533" lon="7.2522767"><ele></ele><time>2016-5-22T17:29:54Z</time></trkpt>
<trkpt lat="46.1992117" lon="7.2522417"><ele></ele><time>2016-5-22T17:29:57Z</time></trkpt>
<trkpt lat="46.1991833" lon="7.2521933"><ele></ele><time>2016-5-22T17:30:0Z</time></trkpt>
<trkpt lat="46.1991433" lon="7.2521417"><ele></ele><time>2016-5-22T17:30:3Z</time></trkpt>
<trkpt lat="46.1991067" lon="7.2521117"><ele></ele><time>2016-5-22T17:30:6Z</time></trkpt>
<trkpt lat="46.1990650" lon="7.2520800"><ele></ele><time>2016-5-22T17:30:9Z</time></trkpt>
<trkpt lat="46.1990217" lon="7.2520300"><ele></ele><time>2016-5-22T17:30:12Z</time></trkpt>
<trkpt lat="46.1989800" lon="7.2519900"><ele></ele><time>2016-5-22T17:30:15Z</time></trkpt>
<trkpt lat="46.1989417" lon="7.2519483"><ele></ele><time>2016-5-22T17:30:18Z</time></trkpt>
<trkpt lat="46.1989033" lon="7.2518950"><ele></ele><time>2016-5-22T17:30:21Z</time></trkpt>
<trkpt lat="46.1988633" lon="7.2518550"><ele></ele><time>2016-5-22T17:30:24Z</time></trkpt>
<trkpt lat="46.1988250" lon="7.2518000"><ele></ele><time>2016-5-22T17:30:27Z</time></trkpt>
<trkpt lat="46.1987783" lon="7.2517533"><ele></ele><time>2016-5-22T17:30:30Z</time></trkpt>
<trkpt lat="46.1987367" lon="7.2517133"><ele></ele><time>2016-5-22T17:30:33Z</time></trkpt>
<trkpt lat="46.1986983" lon="7.2516633"><ele></ele><time>2016-5-22T17:30:36Z</time></trkpt>
<trkpt lat="46.1986517" lon="7.2516167"><ele></ele><time>2016-5-22T17:30:39Z</time></trkpt>
<trkpt lat="46.1986067" lon="7.2515667"><ele></ele><time>2016-5-22T17:30:42Z</time></trkpt>
<trkpt lat="46.1985617" lon="7.2515283"><ele></ele><time>2016-5-22T17:30:45Z</time></trkpt>
<trkpt lat="46.1985167" lon="7.2514800"><ele></ele><time>2016-5-22T17:30:48Z</time></trkpt>
<trkpt lat="46.1984633" lon="7.2514400"><ele></ele><time>2016-5-22T17:30:51Z</time></trkpt>
<trkpt lat="46.1984183" lon="7.2513917"><ele></ele><time>2016-5-22T17:30:54Z</time></trkpt>
<trkpt lat="46.1983750" lon="7.2513483"><ele></ele><time>2016-5-22T17:30:57Z</time></trkpt>
<trkpt lat="46.1983383" lon="7.2513033"><ele></ele><time>2016-5-22T17:31:0Z</time></trkpt>
<trkpt lat="46.1983000" lon="7.2512467"><ele></ele><time>2016-5-22T17:31:3Z</time></trkpt>
<trkpt lat="46.1982600" lon="7.2512067"><ele></ele><time>2016-5-22T17:31:6Z</time></trkpt>
<trkpt lat="46.1982183" lon="7.2511567"><ele></ele><time>2016-5-22T17:31:9Z</time></trkpt>
<trkpt lat="46.1981733" lon="7.2511233"><ele></ele><time>2016-5-22T17:31:12Z</time></trkpt>
<trkpt lat="46.1981283" lon="7.2510967"><ele></ele><time>2016-5-22T17:31:15Z</time></trkpt>
<trkpt lat="46.1980833" lon="7.2510600"><ele></ele><time>2016-5-22T17:31:18Z</time></trkpt>
<trkpt lat="46.1980400" lon="7.2510167"><ele></ele><time>2016-5-22T17:31:21Z</time></trkpt>
<trkpt lat="46.1979917" lon="7.2509817"><ele></ele><time>2016-5-22T17:31:24Z</time></trkpt>
<trkpt lat="46.1979583" lon="7.2509283"><ele></ele><time>2016-5-22T17:31:27Z</time></trkpt>
<trkpt lat="46.1979167" lon="7.2508983"><ele></ele><time>2016-5-22T17:31:30Z</time></trkpt>
<trkpt lat="46.1978750" lon="7.2508517"><ele></ele><time>2016-5-22T17:31:33Z</time></trkpt>
<trkpt lat="46.1978300" lon="7.2508133"><ele></ele><time>2016-5-22T17:31:36Z</time></trkpt>
<trkpt lat="46.1977883" lon="7.2507700"><ele></ele><time>2016-5-22T17:31:39Z</time></trkpt>
<trkpt lat="46.1977467" lon="7.2507333"><ele></ele><time>2016-5-22T17:31:42Z</time></trkpt>
<trkpt lat="46.1976967" lon="7.2507000"><ele></ele><time>2016-5-22T17:31:45Z</time></trkpt>
<trkpt lat="46.1976567" lon="7.2506733"><ele></ele><time>2016-5-22T17:31:48Z</time></trkpt>
<trkpt lat="46.1976117" lon="7.2506417"><ele></ele><time>2016-5-22T17:31:51Z</time></trkpt>
<trkpt lat="46.1975683" lon="7.2506067"><ele></ele><time>2016-5-22T17:31:54Z</time></trkpt>
<trkpt lat="46.1975233" lon="7.2505683"><ele></ele><time>2016-5-22T17:31:57Z</time></trkpt>
<trkpt lat="46.1974767" lon="7.2505217"><ele></ele><time>2016-5-22T17:32:0Z</time></trkpt>
<trkpt lat="46.1974317" lon="7.2504800"><ele></ele><time>2016-5-22T17:32:3Z</time></trkpt>
<trkpt lat="46.1973800" lon="7.2504600"><ele></ele><time>2016-5-22T17:32:6Z</time></trkpt>
<trkpt lat="46.1973383" lon="7.2504233"><ele></ele><time>2016-5-22T17:32:9Z</time></trkpt>
<trkpt lat="46.1972983" lon="7.2503883"><ele></ele><time>2016-5-22T17:32:12Z</time></trkpt>
<trkpt lat="46.1972600" lon="7.2503400"><ele></ele><time>2016-5-22T17:32:15Z</time></trkpt>
<trkpt lat="46.1972200" lon="7.2503100"><ele></ele><time>2016-5-22T17:32:18Z</time></trkpt>
<trkpt lat="46.1971667" lon="7.2502717"><ele></ele><time>2016-5-22T17:32:21Z</time></trkpt>
<trkpt lat="46.1971183" lon="7.2502333"><ele></ele><time>2016-5-22T17:32:24Z</time></trkpt>
<trkpt lat="46.1970733" lon="7.2502000"><ele></ele><time>2016-5-22T17:32:27Z</time></trkpt>
<trkpt lat="46.1970350" lon="7.2501683"><ele></ele><time>2016-5-22T17:32:30Z</time></trkpt>
<trkpt lat="46.1969933" lon="7.2501350"><ele></ele><time>2016-5-22T17:32:33Z</time></trkpt>
<trkpt lat="46.1969500" lon="7.2500950"><ele></ele><time>2016-5-22T17:32:36Z</time></trkpt>
<trkpt lat="46.1969083" lon="7.2500600"><ele></ele><time>2016-5-22T17:32:39Z</time></trkpt>
<trkpt lat="46.1968667" lon="7.2500150"><ele></ele><time>2016-5-22T17:32:42Z</time></trkpt>
<trkpt lat="46.1968217" lon="7.2499700"><ele></ele><time>2016-5-22T17:32:45Z</time></trkpt>
<trkpt lat="46.1967850" lon="7.2499417"><ele></ele><time>2016-5-22T17:32:48Z</time></trkpt>
<trkpt lat="46.1967433" lon="7.2499017"><ele></ele><time>2016-5-22T17:32:51Z</time></trkpt>
<trkpt lat="46.1966950" lon="7.2498617"><ele></ele><time>2016-5-22T17:32:54Z</time></trkpt>
<trkpt lat="46.1966567" lon="7.2498300"><ele></ele><time>2016-5-22T17:32:57Z</time></trkpt>
<trkpt lat="46.1966117" lon="7.2497850"><ele></ele><time>2016-5-22T17:33:0Z</time></trkpt>
<trkpt lat="46.1965683" lon="7.2497217"><ele></ele><time>2016-5-22T17:33:3Z</time></trkpt>
<trkpt lat="46.1965250" lon="7.2496667"><ele></ele><time>2016-5-22T17:33:6Z</time></trkpt>
<trkpt lat="46.1964867" lon="7.2496367"><ele></ele><time>2016-5-22T17:33:9Z</time></trkpt>
<trkpt lat="46.1964483" lon="7.2495767"><ele></ele><time>2016-5-22T17:33:12Z</time></trkpt>
<trkpt lat="46.1964250" lon="7.2495067"><ele></ele><time>2016-5-22T17:33:15Z</time></trkpt>
<trkpt lat="46.1963933" lon="7.2494450"><ele></ele><time>2016-5-22T17:33:18Z</time></trkpt>
<trkpt lat="46.1963517" lon="7.2493867"><ele></ele><time>2016-5-22T17:33:21Z</time></trkpt>
<trkpt lat="46.1963233" lon="7.2493267"><ele></ele><time>2016-5-22T17:33:24Z</time></trkpt>
<trkpt lat="46.1962917" lon="7.2492683"><ele></ele><time>2016-5-22T17:33:27Z</time></trkpt>
<trkpt lat="46.1962483" lon="7.2492083"><ele></ele><time>2016-5-22T17:33:30Z</time></trkpt>
<trkpt lat="46.1962167" lon="7.2491617"><ele></ele><time>2016-5-22T17:33:33Z</time></trkpt>
<trkpt lat="46.1961883" lon="7.2491033"><ele></ele><time>2016-5-22T17:33:36Z</time></trkpt>
<trkpt lat="46.1961550" lon="7.2490400"><ele></ele><time>2016-5-22T17:33:39Z</time></trkpt>
<trkpt lat="46.1961217" lon="7.2489867"><ele></ele><time>2016-5-22T17:33:42Z</time></trkpt>
<trkpt lat="46.1960900" lon="7.2489350"><ele></ele><time>2016-5-22T17:33:45Z</time></trkpt>
<trkpt lat="46.1960583" lon="7.2488883"><ele></ele><time>2016-5-22T17:33:48Z</time></trkpt>
<trkpt lat="46.1960217" lon="7.2488283"><ele></ele><time>2016-5-22T17:33:51Z</time></trkpt>
<trkpt lat="46.1959783" lon="7.2487833"><ele></ele><time>2016-5-22T17:33:54Z</time></trkpt>
<trkpt lat="46.1959517" lon="7.2487100"><ele></ele><time>2016-5-22T17:33:57Z</time></trkpt>
<trkpt lat="46.1959233" lon="7.2486700"><ele></ele><time>2016-5-22T17:34:0Z</time></trkpt>
<trkpt lat="46.1958950" lon="7.2486167"><ele></ele><time>2016-5-22T17:34:3Z</time></trkpt>
<trkpt lat="46.1958683" lon="7.2485617"><ele></ele><time>2016-5-22T17:34:6Z</time></trkpt>
<trkpt lat="46.1958367" lon="7.2485150"><ele></ele><time>2016-5-22T17:34:9Z</time></trkpt>
<trkpt lat="46.1958067" lon="7.2484717"><ele></ele><time>2016-5-22T17:34:12Z</time></trkpt>
<trkpt lat="46.1957800" lon="7.2484217"><ele></ele><time>2016-5-22T17:34:15Z</time></trkpt>
<trkpt lat="46.1957450" lon="7.2483767"><ele></ele><time>2016-5-22T17:34:18Z</time></trkpt>
<trkpt lat="46.1957167" lon="7.2483333"><ele></ele><time>2016-5-22T17:34:21Z</time></trkpt>
<trkpt lat="46.1957000" lon="7.2482833"><ele></ele><time>2016-5-22T17:34:24Z</time></trkpt>
<trkpt lat="46.1956667" lon="7.2482333"><ele></ele><time>2016-5-22T17:34:27Z</time></trkpt>
<trkpt lat="46.1956417" lon="7.2481867"><ele></ele><time>2016-5-22T17:34:30Z</time></trkpt>
<trkpt lat="46.1956200" lon="7.2481417"><ele></ele><time>2016-5-22T17:34:33Z</time></trkpt>
<trkpt lat="46.1956100" lon="7.2481000"><ele></ele><time>2016-5-22T17:34:36Z</time></trkpt>
<trkpt lat="46.1956250" lon="7.2480417"><ele></ele><time>2016-5-22T17:34:39Z</time></trkpt>
<trkpt lat="46.1956500" lon="7.2479900"><ele></ele><time>2016-5-22T17:34:42Z</time></trkpt>
<trkpt lat="46.1956767" lon="7.2479367"><ele></ele><time>2016-5-22T17:34:45Z</time></trkpt>
<trkpt lat="46.1956983" lon="7.2478850"><ele></ele><time>2016-5-22T17:34:48Z</time></trkpt>
<trkpt lat="46.1957217" lon="7.2478400"><ele></ele><time>2016-5-22T17:34:51Z</time></trkpt>
<trkpt lat="46.1957467" lon="7.2477950"><ele></ele><time>2016-5-22T17:34:54Z</time></trkpt>
<trkpt lat="46.1957717" lon="7.2477500"><ele></ele><time>2016-5-22T17:34:57Z</time></trkpt>
<trkpt lat="46.1957983" lon="7.2477000"><ele></ele><time>2016-5-22T17:35:0Z</time></trkpt>
<trkpt lat="46.1958250" lon="7.2476500"><ele></ele><time>2016-5-22T17:35:3Z</time></trkpt>
<trkpt lat="46.1958467" lon="7.2475967"><ele></ele><time>2016-5-22T17:35:6Z</time></trkpt>
<trkpt lat="46.1958617" lon="7.2475417"><ele></ele><time>2016-5-22T17:35:9Z</time></trkpt>
<trkpt lat="46.1958683" lon="7.2474850"><ele></ele><time>2016-5-22T17:35:12Z</time></trkpt>
<trkpt lat="46.1958633" lon="7.2474233"><ele></ele><time>2016-5-22T17:35:15Z</time></trkpt>
<trkpt lat="46.1958500" lon="7.2473683"><ele></ele><time>2016-5-22T17:35:18Z</time></trkpt>
<trkpt lat="46.1958283" lon="7.2473200"><ele></ele><time>2016-5-22T17:35:21Z</time></trkpt>
<trkpt lat="46.1957983" lon="7.2472767"><ele></ele><time>2016-5-22T17:35:24Z</time></trkpt>
<trkpt lat="46.1957667" lon="7.2472333"><ele></ele><time>2016-5-22T17:35:27Z</time></trkpt>
<trkpt lat="46.1957333" lon="7.2471933"><ele></ele><time>2016-5-22T17:35:30Z</time></trkpt>
<trkpt lat="46.1957017" lon="7.2471500"><ele></ele><time>2016-5-22T17:35:33Z</time></trkpt>
<trkpt lat="46.1956717" lon="7.2471050"><ele></ele><time>2016-5-22T17:35:36Z</time></trkpt>
<trkpt lat="46.1956400" lon="7.2470617"><ele></ele><time>2016-5-22T17:35:39Z</time></trkpt>
<trkpt lat="46.1956100" lon="7.2470167"><ele></ele><time>2016-5-22T17:35:42Z</time></trkpt>
<trkpt lat="46.1955800" lon="7.2469700"><ele></ele><time>2016-5-22T17:35:45Z</time></trkpt>
<trkpt lat="46.1955483" lon="7.2469233"><ele></ele><time>2016-5-22T17:35:48Z</time></trkpt>
<trkpt lat="46.1955050" lon="7.2468817"><ele></ele><time>2016-5-22T17:35:51Z</time></trkpt>
<trkpt lat="46.1954700" lon="7.2468183"><ele></ele><time>2016-5-22T17:35:54Z</time></trkpt>
<trkpt lat="46.1954417" lon="7.2467683"><ele></ele><time>2016-5-22T17:35:57Z</time></trkpt>
<trkpt lat="46.1954117" lon="7.2467250"><ele></ele><time>2016-5-22T17:36:0Z</time></trkpt>
<trkpt lat="46.1953833" lon="7.2466700"><ele></ele><time>2016-5-22T17:36:3Z</time></trkpt>
<trkpt lat="46.1953583" lon="7.2466250"><ele></ele><time>2016-5-22T17:36:6Z</time></trkpt>
<trkpt lat="46.1953333" lon="7.2465783"><ele></ele><time>2016-5-22T17:36:9Z</time></trkpt>
<trkpt lat="46.1953033" lon="7.2465333"><ele></ele><time>2016-5-22T17:36:12Z</time></trkpt>
<trkpt lat="46.1952717" lon="7.2464800"><ele></ele><time>2016-5-22T17:36:15Z</time></trkpt>
<trkpt lat="46.1952417" lon="7.2464333"><ele></ele><time>2016-5-22T17:36:18Z</time></trkpt>
<trkpt lat="46.1952100" lon="7.2463933"><ele></ele><time>2016-5-22T17:36:21Z</time></trkpt>
<trkpt lat="46.1951850" lon="7.2463617"><ele></ele><time>2016-5-22T17:36:24Z</time></trkpt>
<trkpt lat="46.1951567" lon="7.2463300"><ele></ele><time>2016-5-22T17:36:27Z</time></trkpt>
<trkpt lat="46.1951417" lon="7.2462883"><ele></ele><time>2016-5-22T17:36:30Z</time></trkpt>
<trkpt lat="46.1951200" lon="7.2462517"><ele></ele><time>2016-5-22T17:36:33Z</time></trkpt>
<trkpt lat="46.1950983" lon="7.2462217"><ele></ele><time>2016-5-22T17:36:36Z</time></trkpt>
<trkpt lat="46.1950783" lon="7.2461917"><ele></ele><time>2016-5-22T17:36:39Z</time></trkpt>
<trkpt lat="46.1950617" lon="7.2461650"><ele></ele><time>2016-5-22T17:36:42Z</time></trkpt>
<trkpt lat="46.1950417" lon="7.2461450"><ele></ele><time>2016-5-22T17:36:45Z</time></trkpt>
<trkpt lat="46.1950200" lon="7.2461233"><ele></ele><time>2016-5-22T17:36:48Z</time></trkpt>
<trkpt lat="46.1949983" lon="7.2461017"><ele></ele><time>2016-5-22T17:36:51Z</time></trkpt>
<trkpt lat="46.1949800" lon="7.2460717"><ele></ele><time>2016-5-22T17:36:54Z</time></trkpt>
<trkpt lat="46.1949650" lon="7.2460333"><ele></ele><time>2016-5-22T17:36:57Z</time></trkpt>
<trkpt lat="46.1949500" lon="7.2459950"><ele></ele><time>2016-5-22T17:37:0Z</time></trkpt>
<trkpt lat="46.1949350" lon="7.2459567"><ele></ele><time>2016-5-22T17:37:3Z</time></trkpt>
<trkpt lat="46.1949167" lon="7.2459167"><ele></ele><time>2016-5-22T17:37:6Z</time></trkpt>
<trkpt lat="46.1948917" lon="7.2458783"><ele></ele><time>2016-5-22T17:37:9Z</time></trkpt>
<trkpt lat="46.1948650" lon="7.2458400"><ele></ele><time>2016-5-22T17:37:12Z</time></trkpt>
<trkpt lat="46.1948367" lon="7.2458000"><ele></ele><time>2016-5-22T17:37:15Z</time></trkpt>
<trkpt lat="46.1948083" lon="7.2457583"><ele></ele><time>2016-5-22T17:37:18Z</time></trkpt>
<trkpt lat="46.1947817" lon="7.2457050"><ele></ele><time>2016-5-22T17:37:21Z</time></trkpt>
<trkpt lat="46.1947550" lon="7.2456500"><ele></ele><time>2016-5-22T17:37:24Z</time></trkpt>
<trkpt lat="46.1947333" lon="7.2456067"><ele></ele><time>2016-5-22T17:37:27Z</time></trkpt>
<trkpt lat="46.1947083" lon="7.2455550"><ele></ele><time>2016-5-22T17:37:30Z</time></trkpt>
<trkpt lat="46.1946883" lon="7.2455183"><ele></ele><time>2016-5-22T17:37:33Z</time></trkpt>
<trkpt lat="46.1946617" lon="7.2454750"><ele></ele><time>2016-5-22T17:37:36Z</time></trkpt>
<trkpt lat="46.1946350" lon="7.2454283"><ele></ele><time>2016-5-22T17:37:39Z</time></trkpt>
<trkpt lat="46.1946133" lon="7.2453833"><ele></ele><time>2016-5-22T17:37:42Z</time></trkpt>
<trkpt lat="46.1945883" lon="7.2453467"><ele></ele><time>2016-5-22T17:37:45Z</time></trkpt>
<trkpt lat="46.1945633" lon="7.2453150"><ele></ele><time>2016-5-22T17:37:48Z</time></trkpt>
<trkpt lat="46.1945383" lon="7.2452800"><ele></ele><time>2016-5-22T17:37:51Z</time></trkpt>
<trkpt lat="46.1945100" lon="7.2452333"><ele></ele><time>2016-5-22T17:37:54Z</time></trkpt>
<trkpt lat="46.1944817" lon="7.2451867"><ele></ele><time>2016-5-22T17:37:57Z</time></trkpt>
<trkpt lat="46.1944500" lon="7.2451450"><ele></ele><time>2016-5-22T17:38:0Z</time></trkpt>
<trkpt lat="46.1944200" lon="7.2451033"><ele></ele><time>2016-5-22T17:38:3Z</time></trkpt>
<trkpt lat="46.1943917" lon="7.2450633"><ele></ele><time>2016-5-22T17:38:6Z</time></trkpt>
<trkpt lat="46.1943633" lon="7.2450233"><ele></ele><time>2016-5-22T17:38:9Z</time></trkpt>
<trkpt lat="46.1943350" lon="7.2449767"><ele></ele><time>2016-5-22T17:38:12Z</time></trkpt>
<trkpt lat="46.1943083" lon="7.2449317"><ele></ele><time>2016-5-22T17:38:15Z</time></trkpt>
<trkpt lat="46.1942800" lon="7.2448900"><ele></ele><time>2016-5-22T17:38:18Z</time></trkpt>
<trkpt lat="46.1942517" lon="7.2448483"><ele></ele><time>2016-5-22T17:38:21Z</time></trkpt>
<trkpt lat="46.1942233" lon="7.2448083"><ele></ele><time>2016-5-22T17:38:24Z</time></trkpt>
<trkpt lat="46.1942000" lon="7.2447683"><ele></ele><time>2016-5-22T17:38:27Z</time></trkpt>
<trkpt lat="46.1941750" lon="7.2447267"><ele></ele><time>2016-5-22T17:38:30Z</time></trkpt>
<trkpt lat="46.1941500" lon="7.2446850"><ele></ele><time>2016-5-22T17:38:33Z</time></trkpt>
<trkpt lat="46.1941233" lon="7.2446433"><ele></ele><time>2016-5-22T17:38:36Z</time></trkpt>
<trkpt lat="46.1940983" lon="7.2446033"><ele></ele><time>2016-5-22T17:38:39Z</time></trkpt>
<trkpt lat="46.1940750" lon="7.2445617"><ele></ele><time>2016-5-22T17:38:42Z</time></trkpt>
<trkpt lat="46.1940517" lon="7.2445233"><ele></ele><time>2016-5-22T17:38:45Z</time></trkpt>
<trkpt lat="46.1940300" lon="7.2444867"><ele></ele><time>2016-5-22T17:38:48Z</time></trkpt>
<trkpt lat="46.1940083" lon="7.2444550"><ele></ele><time>2016-5-22T17:38:51Z</time></trkpt>
<trkpt lat="46.1939883" lon="7.2444300"><ele></ele><time>2016-5-22T17:38:54Z</time></trkpt>
<trkpt lat="46.1939700" lon="7.2444100"><ele></ele><time>2016-5-22T17:38:57Z</time></trkpt>
<trkpt lat="46.1939533" lon="7.2443883"><ele></ele><time>2016-5-22T17:39:0Z</time></trkpt>
<trkpt lat="46.1939367" lon="7.2443683"><ele></ele><time>2016-5-22T17:39:3Z</time></trkpt>
<trkpt lat="46.1939217" lon="7.2443483"><ele></ele><time>2016-5-22T17:39:6Z</time></trkpt>
<trkpt lat="46.1939100" lon="7.2443300"><ele></ele><time>2016-5-22T17:39:9Z</time></trkpt>
<trkpt lat="46.1939017" lon="7.2443100"><ele></ele><time>2016-5-22T17:39:12Z</time></trkpt>
<trkpt lat="46.1939000" lon="7.2442917"><ele></ele><time>2016-5-22T17:39:15Z</time></trkpt>
<trkpt lat="46.1939000" lon="7.2442733"><ele></ele><time>2016-5-22T17:39:18Z</time></trkpt>
<trkpt lat="46.1939017" lon="7.2442517"><ele></ele><time>2016-5-22T17:39:21Z</time></trkpt>
<trkpt lat="46.1939100" lon="7.2442250"><ele></ele><time>2016-5-22T17:39:24Z</time></trkpt>
<trkpt lat="46.1939233" lon="7.2441967"><ele></ele><time>2016-5-22T17:39:27Z</time></trkpt>
<trkpt lat="46.1939400" lon="7.2441717"><ele></ele><time>2016-5-22T17:39:30Z</time></trkpt>
<trkpt lat="46.1939600" lon="7.2441467"><ele></ele><time>2016-5-22T17:39:33Z</time></trkpt>
<trkpt lat="46.1939767" lon="7.2441200"><ele></ele><time>2016-5-22T17:39:36Z</time></trkpt>
<trkpt lat="46.1939900" lon="7.2440950"><ele></ele><time>2016-5-22T17:39:39Z</time></trkpt>
<trkpt lat="46.1940033" lon="7.2440667"><ele></ele><time>2016-5-22T17:39:42Z</time></trkpt>
<trkpt lat="46.1940167" lon="7.2440367"><ele></ele><time>2016-5-22T17:39:45Z</time></trkpt>
<trkpt lat="46.1940333" lon="7.2440083"><ele></ele><time>2016-5-22T17:39:48Z</time></trkpt>
<trkpt lat="46.1940500" lon="7.2439800"><ele></ele><time>2016-5-22T17:39:51Z</time></trkpt>
<trkpt lat="46.1940667" lon="7.2439567"><ele></ele><time>2016-5-22T17:39:54Z</time></trkpt>
<trkpt lat="46.1940850" lon="7.2439300"><ele></ele><time>2016-5-22T17:39:57Z</time></trkpt>
<trkpt lat="46.1941017" lon="7.2439033"><ele></ele><time>2016-5-22T17:40:0Z</time></trkpt>
<trkpt lat="46.1941167" lon="7.2438767"><ele></ele><time>2016-5-22T17:40:3Z</time></trkpt>
<trkpt lat="46.1941300" lon="7.2438500"><ele></ele><time>2016-5-22T17:40:6Z</time></trkpt>
<trkpt lat="46.1941433" lon="7.2438233"><ele></ele><time>2016-5-22T17:40:9Z</time></trkpt>
<trkpt lat="46.1941583" lon="7.2437967"><ele></ele><time>2016-5-22T17:40:12Z</time></trkpt>
<trkpt lat="46.1941733" lon="7.2437717"><ele></ele><time>2016-5-22T17:40:15Z</time></trkpt>
<trkpt lat="46.1941883" lon="7.2437433"><ele></ele><time>2016-5-22T17:40:18Z</time></trkpt>
<trkpt lat="46.1942033" lon="7.2437133"><ele></ele><time>2016-5-22T17:40:21Z</time></trkpt>
<trkpt lat="46.1942167" lon="7.2436833"><ele></ele><time>2016-5-22T17:40:24Z</time></trkpt>
<trkpt lat="46.1942317" lon="7.2436550"><ele></ele><time>2016-5-22T17:40:27Z</time></trkpt>
<trkpt lat="46.1942467" lon="7.2436300"><ele></ele><time>2016-5-22T17:40:30Z</time></trkpt>
<trkpt lat="46.1942617" lon="7.2436033"><ele></ele><time>2016-5-22T17:40:33Z</time></trkpt>
<trkpt lat="46.1942800" lon="7.2435783"><ele></ele><time>2016-5-22T17:40:36Z</time></trkpt>
<trkpt lat="46.1942950" lon="7.2435550"><ele></ele><time>2016-5-22T17:40:39Z</time></trkpt>
<trkpt lat="46.1943083" lon="7.2435333"><ele></ele><time>2016-5-22T17:40:42Z</time></trkpt>
<trkpt lat="46.1943233" lon="7.2435117"><ele></ele><time>2016-5-22T17:40:45Z</time></trkpt>
<trkpt lat="46.1943417" lon="7.2434850"><ele></ele><time>2016-5-22T17:40:48Z</time></trkpt>
<trkpt lat="46.1943617" lon="7.2434600"><ele></ele><time>2016-5-22T17:40:51Z</time></trkpt>
<trkpt lat="46.1943800" lon="7.2434333"><ele></ele><time>2016-5-22T17:40:54Z</time></trkpt>
<trkpt lat="46.1943983" lon="7.2434033"><ele></ele><time>2016-5-22T17:40:57Z</time></trkpt>
<trkpt lat="46.1944150" lon="7.2433750"><ele></ele><time>2016-5-22T17:41:0Z</time></trkpt>
<trkpt lat="46.1944300" lon="7.2433450"><ele></ele><time>2016-5-22T17:41:3Z</time></trkpt>
<trkpt lat="46.1944417" lon="7.2433217"><ele></ele><time>2016-5-22T17:41:6Z</time></trkpt>
<trkpt lat="46.1944550" lon="7.2432967"><ele></ele><time>2016-5-22T17:41:9Z</time></trkpt>
<trkpt lat="46.1944700" lon="7.2432667"><ele></ele><time>2016-5-22T17:41:12Z</time></trkpt>
<trkpt lat="46.1944850" lon="7.2432383"><ele></ele><time>2016-5-22T17:41:15Z</time></trkpt>
<trkpt lat="46.1945000" lon="7.2432083"><ele></ele><time>2016-5-22T17:41:18Z</time></trkpt>
<trkpt lat="46.1945183" lon="7.2431767"><ele></ele><time>2016-5-22T17:41:21Z</time></trkpt>
<trkpt lat="46.1945400" lon="7.2431417"><ele></ele><time>2016-5-22T17:41:24Z</time></trkpt>
<trkpt lat="46.1945617" lon="7.2431067"><ele></ele><time>2016-5-22T17:41:27Z</time></trkpt>
<trkpt lat="46.1945817" lon="7.2430717"><ele></ele><time>2016-5-22T17:41:30Z</time></trkpt>
<trkpt lat="46.1946000" lon="7.2430383"><ele></ele><time>2016-5-22T17:41:33Z</time></trkpt>
<trkpt lat="46.1946167" lon="7.2430067"><ele></ele><time>2016-5-22T17:41:36Z</time></trkpt>
<trkpt lat="46.1946333" lon="7.2429733"><ele></ele><time>2016-5-22T17:41:39Z</time></trkpt>
<trkpt lat="46.1946517" lon="7.2429433"><ele></ele><time>2016-5-22T17:41:42Z</time></trkpt>
<trkpt lat="46.1946700" lon="7.2429150"><ele></ele><time>2016-5-22T17:41:45Z</time></trkpt>
<trkpt lat="46.1946883" lon="7.2428867"><ele></ele><time>2016-5-22T17:41:48Z</time></trkpt>
<trkpt lat="46.1947067" lon="7.2428583"><ele></ele><time>2016-5-22T17:41:51Z</time></trkpt>
<trkpt lat="46.1947250" lon="7.2428317"><ele></ele><time>2016-5-22T17:41:54Z</time></trkpt>
<trkpt lat="46.1947433" lon="7.2428067"><ele></ele><time>2016-5-22T17:41:57Z</time></trkpt>
<trkpt lat="46.1947600" lon="7.2427833"><ele></ele><time>2016-5-22T17:42:0Z</time></trkpt>
<trkpt lat="46.1947817" lon="7.2427650"><ele></ele><time>2016-5-22T17:42:3Z</time></trkpt>
<trkpt lat="46.1948067" lon="7.2427533"><ele></ele><time>2016-5-22T17:42:6Z</time></trkpt>
<trkpt lat="46.1948333" lon="7.2427467"><ele></ele><time>2016-5-22T17:42:9Z</time></trkpt>
<trkpt lat="46.1948617" lon="7.2427433"><ele></ele><time>2016-5-22T17:42:12Z</time></trkpt>
<trkpt lat="46.1948917" lon="7.2427450"><ele></ele><time>2016-5-22T17:42:15Z</time></trkpt>
<trkpt lat="46.1949217" lon="7.2427550"><ele></ele><time>2016-5-22T17:42:18Z</time></trkpt>
<trkpt lat="46.1949517" lon="7.2427700"><ele></ele><time>2016-5-22T17:42:21Z</time></trkpt>
<trkpt lat="46.1949800" lon="7.2427917"><ele></ele><time>2016-5-22T17:42:24Z</time></trkpt>
<trkpt lat="46.1950050" lon="7.2428183"><ele></ele><time>2016-5-22T17:42:27Z</time></trkpt>
<trkpt lat="46.1950317" lon="7.2428483"><ele></ele><time>2016-5-22T17:42:30Z</time></trkpt>
<trkpt lat="46.1950583" lon="7.2428833"><ele></ele><time>2016-5-22T17:42:33Z</time></trkpt>
<trkpt lat="46.1950833" lon="7.2429183"><ele></ele><time>2016-5-22T17:42:36Z</time></trkpt>
<trkpt lat="46.1951083" lon="7.2429533"><ele></ele><time>2016-5-22T17:42:39Z</time></trkpt>
<trkpt lat="46.1951367" lon="7.2429883"><ele></ele><time>2016-5-22T17:42:42Z</time></trkpt>
<trkpt lat="46.1951700" lon="7.2430200"><ele></ele><time>2016-5-22T17:42:45Z</time></trkpt>
<trkpt lat="46.1952033" lon="7.2430500"><ele></ele><time>2016-5-22T17:42:48Z</time></trkpt>
<trkpt lat="46.1952417" lon="7.2430783"><ele></ele><time>2016-5-22T17:42:51Z</time></trkpt>
<trkpt lat="46.1952817" lon="7.2431000"><ele></ele><time>2016-5-22T17:42:54Z</time></trkpt>
<trkpt lat="46.1953250" lon="7.2431133"><ele></ele><time>2016-5-22T17:42:57Z</time></trkpt>
<trkpt lat="46.1953767" lon="7.2430900"><ele></ele><time>2016-5-22T17:43:0Z</time></trkpt>
<trkpt lat="46.1954267" lon="7.2430750"><ele></ele><time>2016-5-22T17:43:3Z</time></trkpt>
<trkpt lat="46.1954717" lon="7.2430483"><ele></ele><time>2016-5-22T17:43:6Z</time></trkpt>
<trkpt lat="46.1955050" lon="7.2430067"><ele></ele><time>2016-5-22T17:43:9Z</time></trkpt>
<trkpt lat="46.1955400" lon="7.2429667"><ele></ele><time>2016-5-22T17:43:12Z</time></trkpt>
<trkpt lat="46.1955667" lon="7.2429200"><ele></ele><time>2016-5-22T17:43:15Z</time></trkpt>
<trkpt lat="46.1955967" lon="7.2428800"><ele></ele><time>2016-5-22T17:43:18Z</time></trkpt>
<trkpt lat="46.1956083" lon="7.2428283"><ele></ele><time>2016-5-22T17:43:21Z</time></trkpt>
<trkpt lat="46.1956317" lon="7.2427817"><ele></ele><time>2016-5-22T17:43:24Z</time></trkpt>
<trkpt lat="46.1956517" lon="7.2427350"><ele></ele><time>2016-5-22T17:43:27Z</time></trkpt>
<trkpt lat="46.1956850" lon="7.2427033"><ele></ele><time>2016-5-22T17:43:30Z</time></trkpt>
<trkpt lat="46.1956967" lon="7.2426733"><ele></ele><time>2016-5-22T17:43:33Z</time></trkpt>
<trkpt lat="46.1957233" lon="7.2426117"><ele></ele><time>2016-5-22T17:43:36Z</time></trkpt>
<trkpt lat="46.1957383" lon="7.2425667"><ele></ele><time>2016-5-22T17:43:39Z</time></trkpt>
<trkpt lat="46.1957417" lon="7.2425250"><ele></ele><time>2016-5-22T17:43:42Z</time></trkpt>
<trkpt lat="46.1957400" lon="7.2424800"><ele></ele><time>2016-5-22T17:43:45Z</time></trkpt>
<trkpt lat="46.1957367" lon="7.2424400"><ele></ele><time>2016-5-22T17:43:48Z</time></trkpt>
<trkpt lat="46.1957300" lon="7.2423967"><ele></ele><time>2016-5-22T17:43:51Z</time></trkpt>
<trkpt lat="46.1957200" lon="7.2423533"><ele></ele><time>2016-5-22T17:43:54Z</time></trkpt>
<trkpt lat="46.1957050" lon="7.2423117"><ele></ele><time>2016-5-22T17:43:57Z</time></trkpt>
<trkpt lat="46.1956850" lon="7.2422717"><ele></ele><time>2016-5-22T17:44:0Z</time></trkpt>
<trkpt lat="46.1956600" lon="7.2422367"><ele></ele><time>2016-5-22T17:44:3Z</time></trkpt>
<trkpt lat="46.1956317" lon="7.2422083"><ele></ele><time>2016-5-22T17:44:6Z</time></trkpt>
<trkpt lat="46.1956017" lon="7.2421850"><ele></ele><time>2016-5-22T17:44:9Z</time></trkpt>
<trkpt lat="46.1955733" lon="7.2421650"><ele></ele><time>2016-5-22T17:44:12Z</time></trkpt>
<trkpt lat="46.1955467" lon="7.2421467"><ele></ele><time>2016-5-22T17:44:15Z</time></trkpt>
<trkpt lat="46.1955217" lon="7.2421283"><ele></ele><time>2016-5-22T17:44:18Z</time></trkpt>
<trkpt lat="46.1954950" lon="7.2421100"><ele></ele><time>2016-5-22T17:44:21Z</time></trkpt>
<trkpt lat="46.1954717" lon="7.2420883"><ele></ele><time>2016-5-22T17:44:24Z</time></trkpt>
<trkpt lat="46.1954517" lon="7.2420633"><ele></ele><time>2016-5-22T17:44:27Z</time></trkpt>
<trkpt lat="46.1954367" lon="7.2420317"><ele></ele><time>2016-5-22T17:44:30Z</time></trkpt>
<trkpt lat="46.1954300" lon="7.2419983"><ele></ele><time>2016-5-22T17:44:33Z</time></trkpt>
<trkpt lat="46.1954267" lon="7.2419600"><ele></ele><time>2016-5-22T17:44:36Z</time></trkpt>
<trkpt lat="46.1954300" lon="7.2419217"><ele></ele><time>2016-5-22T17:44:39Z</time></trkpt>
<trkpt lat="46.1954383" lon="7.2418850"><ele></ele><time>2016-5-22T17:44:42Z</time></trkpt>
<trkpt lat="46.1954533" lon="7.2418517"><ele></ele><time>2016-5-22T17:44:45Z</time></trkpt>
<trkpt lat="46.1954733" lon="7.2418233"><ele></ele><time>2016-5-22T17:44:48Z</time></trkpt>
<trkpt lat="46.1954950" lon="7.2417983"><ele></ele><time>2016-5-22T17:44:51Z</time></trkpt>
<trkpt lat="46.1955167" lon="7.2417783"><ele></ele><time>2016-5-22T17:44:54Z</time></trkpt>
<trkpt lat="46.1955333" lon="7.2417650"><ele></ele><time>2016-5-22T17:44:57Z</time></trkpt>
<trkpt lat="46.1955450" lon="7.2417550"><ele></ele><time>2016-5-22T17:45:0Z</time></trkpt>
<trkpt lat="46.1955550" lon="7.2417483"><ele></ele><time>2016-5-22T17:45:3Z</time></trkpt>
<trkpt lat="46.1955650" lon="7.2417400"><ele></ele><time>2016-5-22T17:45:6Z</time></trkpt>
<trkpt lat="46.1955733" lon="7.2417300"><ele></ele><time>2016-5-22T17:45:9Z</time></trkpt>
<trkpt lat="46.1955850" lon="7.2417167"><ele></ele><time>2016-5-22T17:45:12Z</time></trkpt>
<trkpt lat="46.1955967" lon="7.2416900"><ele></ele><time>2016-5-22T17:45:15Z</time></trkpt>
<trkpt lat="46.1956017" lon="7.2416567"><ele></ele><time>2016-5-22T17:45:18Z</time></trkpt>
<trkpt lat="46.1955967" lon="7.2416150"><ele></ele><time>2016-5-22T17:45:21Z</time></trkpt>
<trkpt lat="46.1955800" lon="7.2415733"><ele></ele><time>2016-5-22T17:45:24Z</time></trkpt>
<trkpt lat="46.1955567" lon="7.2415350"><ele></ele><time>2016-5-22T17:45:27Z</time></trkpt>
<trkpt lat="46.1955267" lon="7.2414950"><ele></ele><time>2016-5-22T17:45:30Z</time></trkpt>
<trkpt lat="46.1954967" lon="7.2414567"><ele></ele><time>2016-5-22T17:45:33Z</time></trkpt>
<trkpt lat="46.1954667" lon="7.2414183"><ele></ele><time>2016-5-22T17:45:36Z</time></trkpt>
<trkpt lat="46.1954367" lon="7.2413783"><ele></ele><time>2016-5-22T17:45:39Z</time></trkpt>
<trkpt lat="46.1954050" lon="7.2413367"><ele></ele><time>2016-5-22T17:45:42Z</time></trkpt>
<trkpt lat="46.1953717" lon="7.2412933"><ele></ele><time>2016-5-22T17:45:45Z</time></trkpt>
<trkpt lat="46.1953400" lon="7.2412483"><ele></ele><time>2016-5-22T17:45:48Z</time></trkpt>
<trkpt lat="46.1953067" lon="7.2412050"><ele></ele><time>2016-5-22T17:45:51Z</time></trkpt>
<trkpt lat="46.1952733" lon="7.2411600"><ele></ele><time>2016-5-22T17:45:54Z</time></trkpt>
<trkpt lat="46.1952350" lon="7.2411083"><ele></ele><time>2016-5-22T17:45:57Z</time></trkpt>
<trkpt lat="46.1952067" lon="7.2410600"><ele></ele><time>2016-5-22T17:46:0Z</time></trkpt>
<trkpt lat="46.1951700" lon="7.2410133"><ele></ele><time>2016-5-22T17:46:3Z</time></trkpt>
<trkpt lat="46.1951400" lon="7.2409700"><ele></ele><time>2016-5-22T17:46:6Z</time></trkpt>
<trkpt lat="46.1951100" lon="7.2409233"><ele></ele><time>2016-5-22T17:46:9Z</time></trkpt>
<trkpt lat="46.1950767" lon="7.2408750"><ele></ele><time>2016-5-22T17:46:12Z</time></trkpt>
<trkpt lat="46.1950433" lon="7.2408283"><ele></ele><time>2016-5-22T17:46:15Z</time></trkpt>
<trkpt lat="46.1950100" lon="7.2407817"><ele></ele><time>2016-5-22T17:46:18Z</time></trkpt>
<trkpt lat="46.1949717" lon="7.2407383"><ele></ele><time>2016-5-22T17:46:21Z</time></trkpt>
<trkpt lat="46.1949383" lon="7.2406933"><ele></ele><time>2016-5-22T17:46:24Z</time></trkpt>
<trkpt lat="46.1949050" lon="7.2406467"><ele></ele><time>2016-5-22T17:46:27Z</time></trkpt>
<trkpt lat="46.1948700" lon="7.2405933"><ele></ele><time>2016-5-22T17:46:30Z</time></trkpt>
<trkpt lat="46.1948417" lon="7.2405433"><ele></ele><time>2016-5-22T17:46:33Z</time></trkpt>
<trkpt lat="46.1948067" lon="7.2405050"><ele></ele><time>2016-5-22T17:46:36Z</time></trkpt>
<trkpt lat="46.1947800" lon="7.2404633"><ele></ele><time>2016-5-22T17:46:39Z</time></trkpt>
<trkpt lat="46.1947500" lon="7.2404200"><ele></ele><time>2016-5-22T17:46:42Z</time></trkpt>
<trkpt lat="46.1947183" lon="7.2403783"><ele></ele><time>2016-5-22T17:46:45Z</time></trkpt>
<trkpt lat="46.1946833" lon="7.2403517"><ele></ele><time>2016-5-22T17:46:48Z</time></trkpt>
<trkpt lat="46.1946533" lon="7.2403117"><ele></ele><time>2016-5-22T17:46:51Z</time></trkpt>
<trkpt lat="46.1946100" lon="7.2402767"><ele></ele><time>2016-5-22T17:46:54Z</time></trkpt>
<trkpt lat="46.1945750" lon="7.2402383"><ele></ele><time>2016-5-22T17:46:57Z</time></trkpt>
<trkpt lat="46.1945450" lon="7.2402000"><ele></ele><time>2016-5-22T17:47:0Z</time></trkpt>
<trkpt lat="46.1945167" lon="7.2401533"><ele></ele><time>2016-5-22T17:47:3Z</time></trkpt>
<trkpt lat="46.1944867" lon="7.2401133"><ele></ele><time>2016-5-22T17:47:6Z</time></trkpt>
<trkpt lat="46.1944617" lon="7.2400683"><ele></ele><time>2016-5-22T17:47:9Z</time></trkpt>
<trkpt lat="46.1944283" lon="7.2400250"><ele></ele><time>2016-5-22T17:47:12Z</time></trkpt>
<trkpt lat="46.1943983" lon="7.2399767"><ele></ele><time>2016-5-22T17:47:15Z</time></trkpt>
<trkpt lat="46.1943650" lon="7.2399217"><ele></ele><time>2016-5-22T17:47:18Z</time></trkpt>
<trkpt lat="46.1943300" lon="7.2398817"><ele></ele><time>2016-5-22T17:47:21Z</time></trkpt>
<trkpt lat="46.1943000" lon="7.2398383"><ele></ele><time>2016-5-22T17:47:24Z</time></trkpt>
<trkpt lat="46.1942533" lon="7.2397900"><ele></ele><time>2016-5-22T17:47:27Z</time></trkpt>
<trkpt lat="46.1942250" lon="7.2397450"><ele></ele><time>2016-5-22T17:47:30Z</time></trkpt>
<trkpt lat="46.1941900" lon="7.2396967"><ele></ele><time>2016-5-22T17:47:33Z</time></trkpt>
<trkpt lat="46.1941583" lon="7.2396500"><ele></ele><time>2016-5-22T17:47:36Z</time></trkpt>
<trkpt lat="46.1941267" lon="7.2396117"><ele></ele><time>2016-5-22T17:47:39Z</time></trkpt>
<trkpt lat="46.1940950" lon="7.2395650"><ele></ele><time>2016-5-22T17:47:42Z</time></trkpt>
<trkpt lat="46.1940700" lon="7.2395150"><ele></ele><time>2016-5-22T17:47:45Z</time></trkpt>
<trkpt lat="46.1940367" lon="7.2394700"><ele></ele><time>2016-5-22T17:47:48Z</time></trkpt>
<trkpt lat="46.1940033" lon="7.2394200"><ele></ele><time>2016-5-22T17:47:51Z</time></trkpt>
<trkpt lat="46.1939733" lon="7.2393717"><ele></ele><time>2016-5-22T17:47:54Z</time></trkpt>
<trkpt lat="46.1939383" lon="7.2393300"><ele></ele><time>2016-5-22T17:47:57Z</time></trkpt>
<trkpt lat="46.1939017" lon="7.2392900"><ele></ele><time>2016-5-22T17:48:0Z</time></trkpt>
<trkpt lat="46.1938667" lon="7.2392383"><ele></ele><time>2016-5-22T17:48:3Z</time></trkpt>
<trkpt lat="46.1938367" lon="7.2391900"><ele></ele><time>2016-5-22T17:48:6Z</time></trkpt>
<trkpt lat="46.1937983" lon="7.2391533"><ele></ele><time>2016-5-22T17:48:9Z</time></trkpt>
<trkpt lat="46.1937700" lon="7.2391067"><ele></ele><time>2016-5-22T17:48:12Z</time></trkpt>
<trkpt lat="46.1937383" lon="7.2390683"><ele></ele><time>2016-5-22T17:48:15Z</time></trkpt>
<trkpt lat="46.1937050" lon="7.2390183"><ele></ele><time>2016-5-22T17:48:18Z</time></trkpt>
<trkpt lat="46.1936800" lon="7.2389667"><ele></ele><time>2016-5-22T17:48:21Z</time></trkpt>
<trkpt lat="46.1936483" lon="7.2389133"><ele></ele><time>2016-5-22T17:48:24Z</time></trkpt>
<trkpt lat="46.1936167" lon="7.2388733"><ele></ele><time>2016-5-22T17:48:27Z</time></trkpt>
<trkpt lat="46.1935850" lon="7.2388333"><ele></ele><time>2016-5-22T17:48:30Z</time></trkpt>
<trkpt lat="46.1935550" lon="7.2387867"><ele></ele><time>2016-5-22T17:48:33Z</time></trkpt>
<trkpt lat="46.1935200" lon="7.2387450"><ele></ele><time>2016-5-22T17:48:36Z</time></trkpt>
<trkpt lat="46.1934850" lon="7.2387000"><ele></ele><time>2016-5-22T17:48:39Z</time></trkpt>
<trkpt lat="46.1934583" lon="7.2386533"><ele></ele><time>2016-5-22T17:48:42Z</time></trkpt>
<trkpt lat="46.1934267" lon="7.2386067"><ele></ele><time>2016-5-22T17:48:45Z</time></trkpt>
<trkpt lat="46.1933933" lon="7.2385717"><ele></ele><time>2016-5-22T17:48:48Z</time></trkpt>
<trkpt lat="46.1933683" lon="7.2385250"><ele></ele><time>2016-5-22T17:48:51Z</time></trkpt>
<trkpt lat="46.1933433" lon="7.2384833"><ele></ele><time>2016-5-22T17:48:54Z</time></trkpt>
<trkpt lat="46.1933133" lon="7.2384467"><ele></ele><time>2016-5-22T17:48:57Z</time></trkpt>
<trkpt lat="46.1932883" lon="7.2383967"><ele></ele><time>2016-5-22T17:49:0Z</time></trkpt>
<trkpt lat="46.1932533" lon="7.2383583"><ele></ele><time>2016-5-22T17:49:3Z</time></trkpt>
<trkpt lat="46.1932183" lon="7.2383250"><ele></ele><time>2016-5-22T17:49:6Z</time></trkpt>
<trkpt lat="46.1931833" lon="7.2382867"><ele></ele><time>2016-5-22T17:49:9Z</time></trkpt>
<trkpt lat="46.1931567" lon="7.2382433"><ele></ele><time>2016-5-22T17:49:12Z</time></trkpt>
<trkpt lat="46.1931183" lon="7.2381983"><ele></ele><time>2016-5-22T17:49:15Z</time></trkpt>
<trkpt lat="46.1930783" lon="7.2381567"><ele></ele><time>2016-5-22T17:49:18Z</time></trkpt>
<trkpt lat="46.1930400" lon="7.2381133"><ele></ele><time>2016-5-22T17:49:21Z</time></trkpt>
<trkpt lat="46.1930083" lon="7.2380733"><ele></ele><time>2016-5-22T17:49:24Z</time></trkpt>
<trkpt lat="46.1929817" lon="7.2380267"><ele></ele><time>2016-5-22T17:49:27Z</time></trkpt>
<trkpt lat="46.1929500" lon="7.2379883"><ele></ele><time>2016-5-22T17:49:30Z</time></trkpt>
<trkpt lat="46.1929183" lon="7.2379550"><ele></ele><time>2016-5-22T17:49:33Z</time></trkpt>
<trkpt lat="46.1928850" lon="7.2379183"><ele></ele><time>2016-5-22T17:49:36Z</time></trkpt>
<trkpt lat="46.1928567" lon="7.2378850"><ele></ele><time>2016-5-22T17:49:39Z</time></trkpt>
<trkpt lat="46.1928300" lon="7.2378467"><ele></ele><time>2016-5-22T17:49:42Z</time></trkpt>
<trkpt lat="46.1927983" lon="7.2378017"><ele></ele><time>2016-5-22T17:49:45Z</time></trkpt>
<trkpt lat="46.1927700" lon="7.2377633"><ele></ele><time>2016-5-22T17:49:48Z</time></trkpt>
<trkpt lat="46.1927500" lon="7.2377150"><ele></ele><time>2016-5-22T17:49:51Z</time></trkpt>
<trkpt lat="46.1927217" lon="7.2377067"><ele></ele><time>2016-5-22T17:49:54Z</time></trkpt>
<trkpt lat="46.1926917" lon="7.2376733"><ele></ele><time>2016-5-22T17:49:57Z</time></trkpt>
<trkpt lat="46.1926617" lon="7.2376350"><ele></ele><time>2016-5-22T17:50:0Z</time></trkpt>
<trkpt lat="46.1926317" lon="7.2376000"><ele></ele><time>2016-5-22T17:50:3Z</time></trkpt>
<trkpt lat="46.1926067" lon="7.2375667"><ele></ele><time>2016-5-22T17:50:6Z</time></trkpt>
<trkpt lat="46.1925817" lon="7.2375350"><ele></ele><time>2016-5-22T17:50:9Z</time></trkpt>
<trkpt lat="46.1925583" lon="7.2375050"><ele></ele><time>2016-5-22T17:50:12Z</time></trkpt>
<trkpt lat="46.1925400" lon="7.2374717"><ele></ele><time>2016-5-22T17:50:15Z</time></trkpt>
<trkpt lat="46.1925217" lon="7.2374367"><ele></ele><time>2016-5-22T17:50:18Z</time></trkpt>
<trkpt lat="46.1925000" lon="7.2374000"><ele></ele><time>2016-5-22T17:50:21Z</time></trkpt>
<trkpt lat="46.1924783" lon="7.2373683"><ele></ele><time>2016-5-22T17:50:24Z</time></trkpt>
<trkpt lat="46.1924567" lon="7.2373383"><ele></ele><time>2016-5-22T17:50:27Z</time></trkpt>
<trkpt lat="46.1924333" lon="7.2373050"><ele></ele><time>2016-5-22T17:50:30Z</time></trkpt>
<trkpt lat="46.1924033" lon="7.2372667"><ele></ele><time>2016-5-22T17:50:33Z</time></trkpt>
<trkpt lat="46.1923733" lon="7.2372300"><ele></ele><time>2016-5-22T17:50:36Z</time></trkpt>
<trkpt lat="46.1923417" lon="7.2371967"><ele></ele><time>2016-5-22T17:50:39Z</time></trkpt>
<trkpt lat="46.1923100" lon="7.2371650"><ele></ele><time>2016-5-22T17:50:42Z</time></trkpt>
<trkpt lat="46.1922783" lon="7.2371350"><ele></ele><time>2016-5-22T17:50:45Z</time></trkpt>
<trkpt lat="46.1922450" lon="7.2371033"><ele></ele><time>2016-5-22T17:50:48Z</time></trkpt>
<trkpt lat="46.1922117" lon="7.2370683"><ele></ele><time>2016-5-22T17:50:51Z</time></trkpt>
<trkpt lat="46.1921800" lon="7.2370350"><ele></ele><time>2016-5-22T17:50:54Z</time></trkpt>
<trkpt lat="46.1921467" lon="7.2370100"><ele></ele><time>2016-5-22T17:50:57Z</time></trkpt>
<trkpt lat="46.1921067" lon="7.2369950"><ele></ele><time>2016-5-22T17:51:0Z</time></trkpt>
<trkpt lat="46.1920683" lon="7.2369833"><ele></ele><time>2016-5-22T17:51:3Z</time></trkpt>
<trkpt lat="46.1920283" lon="7.2369767"><ele></ele><time>2016-5-22T17:51:6Z</time></trkpt>
<trkpt lat="46.1919867" lon="7.2369700"><ele></ele><time>2016-5-22T17:51:9Z</time></trkpt>
<trkpt lat="46.1919450" lon="7.2369667"><ele></ele><time>2016-5-22T17:51:12Z</time></trkpt>
<trkpt lat="46.1918867" lon="7.2369750"><ele></ele><time>2016-5-22T17:51:15Z</time></trkpt>
<trkpt lat="46.1918500" lon="7.2369550"><ele></ele><time>2016-5-22T17:51:18Z</time></trkpt>
<trkpt lat="46.1918100" lon="7.2369367"><ele></ele><time>2016-5-22T17:51:21Z</time></trkpt>
<trkpt lat="46.1917917" lon="7.2369133"><ele></ele><time>2016-5-22T17:51:24Z</time></trkpt>
<trkpt lat="46.1917683" lon="7.2369000"><ele></ele><time>2016-5-22T17:51:27Z</time></trkpt>
<trkpt lat="46.1917650" lon="7.2369233"><ele></ele><time>2016-5-22T17:51:30Z</time></trkpt>
<trkpt lat="46.1917617" lon="7.2369383"><ele></ele><time>2016-5-22T17:51:33Z</time></trkpt>
<trkpt lat="46.1917633" lon="7.2369467"><ele></ele><time>2016-5-22T17:51:36Z</time></trkpt>
<trkpt lat="46.1918000" lon="7.2369317"><ele></ele><time>2016-5-22T17:51:39Z</time></trkpt>
<trkpt lat="46.1918050" lon="7.2369200"><ele></ele><time>2016-5-22T17:51:42Z</time></trkpt>
<trkpt lat="46.1918283" lon="7.2369300"><ele></ele><time>2016-5-22T17:51:45Z</time></trkpt>
<trkpt lat="46.1918517" lon="7.2369300"><ele></ele><time>2016-5-22T17:51:48Z</time></trkpt>
<trkpt lat="46.1918750" lon="7.2369383"><ele></ele><time>2016-5-22T17:51:51Z</time></trkpt>
<trkpt lat="46.1918950" lon="7.2369483"><ele></ele><time>2016-5-22T17:51:54Z</time></trkpt>
<trkpt lat="46.1919133" lon="7.2369600"><ele></ele><time>2016-5-22T17:51:57Z</time></trkpt>
<trkpt lat="46.1919300" lon="7.2369717"><ele></ele><time>2016-5-22T17:52:0Z</time></trkpt>
<trkpt lat="46.1919467" lon="7.2369817"><ele></ele><time>2016-5-22T17:52:3Z</time></trkpt>
<trkpt lat="46.1919733" lon="7.2369833"><ele></ele><time>2016-5-22T17:52:6Z</time></trkpt>
<trkpt lat="46.1920100" lon="7.2369833"><ele></ele><time>2016-5-22T17:52:9Z</time></trkpt>
<trkpt lat="46.1920400" lon="7.2369833"><ele></ele><time>2016-5-22T17:52:12Z</time></trkpt>
<trkpt lat="46.1920750" lon="7.2369833"><ele></ele><time>2016-5-22T17:52:15Z</time></trkpt>
<trkpt lat="46.1921000" lon="7.2369917"><ele></ele><time>2016-5-22T17:52:18Z</time></trkpt>
<trkpt lat="46.1921183" lon="7.2370017"><ele></ele><time>2016-5-22T17:52:21Z</time></trkpt>
<trkpt lat="46.1921333" lon="7.2370133"><ele></ele><time>2016-5-22T17:52:24Z</time></trkpt>
<trkpt lat="46.1921450" lon="7.2370267"><ele></ele><time>2016-5-22T17:52:27Z</time></trkpt>
<trkpt lat="46.1921500" lon="7.2370400"><ele></ele><time>2016-5-22T17:52:30Z</time></trkpt>
<trkpt lat="46.1921450" lon="7.2370483"><ele></ele><time>2016-5-22T17:52:33Z</time></trkpt>
<trkpt lat="46.1921450" lon="7.2370483"><ele></ele><time>2016-5-22T17:52:36Z</time></trkpt>
<trkpt lat="46.1921217" lon="7.2370717"><ele></ele><time>2016-5-22T17:52:39Z</time></trkpt>
<trkpt lat="46.1921250" lon="7.2370867"><ele></ele><time>2016-5-22T17:52:42Z</time></trkpt>
<trkpt lat="46.1921383" lon="7.2370950"><ele></ele><time>2016-5-22T17:52:45Z</time></trkpt>
<trkpt lat="46.1921483" lon="7.2370917"><ele></ele><time>2016-5-22T17:52:48Z</time></trkpt>
<trkpt lat="46.1921517" lon="7.2370817"><ele></ele><time>2016-5-22T17:52:51Z</time></trkpt>
<trkpt lat="46.1921417" lon="7.2370567"><ele></ele><time>2016-5-22T17:52:54Z</time></trkpt>
<trkpt lat="46.1921250" lon="7.2370217"><ele></ele><time>2016-5-22T17:52:57Z</time></trkpt>
<trkpt lat="46.1921000" lon="7.2369883"><ele></ele><time>2016-5-22T17:53:0Z</time></trkpt>
<trkpt lat="46.1920650" lon="7.2369550"><ele></ele><time>2016-5-22T17:53:3Z</time></trkpt>
<trkpt lat="46.1920183" lon="7.2369300"><ele></ele><time>2016-5-22T17:53:6Z</time></trkpt>
<trkpt lat="46.1919700" lon="7.2369183"><ele></ele><time>2016-5-22T17:53:9Z</time></trkpt>
<trkpt lat="46.1919183" lon="7.2369150"><ele></ele><time>2016-5-22T17:53:12Z</time></trkpt>
<trkpt lat="46.1918667" lon="7.2369100"><ele></ele><time>2016-5-22T17:53:15Z</time></trkpt>
<trkpt lat="46.1918150" lon="7.2369000"><ele></ele><time>2016-5-22T17:53:18Z</time></trkpt>
<trkpt lat="46.1917383" lon="7.2368867"><ele></ele><time>2016-5-22T17:53:21Z</time></trkpt>
<trkpt lat="46.1917017" lon="7.2368550"><ele></ele><time>2016-5-22T17:53:24Z</time></trkpt>
<trkpt lat="46.1916550" lon="7.2368250"><ele></ele><time>2016-5-22T17:53:27Z</time></trkpt>
<trkpt lat="46.1916217" lon="7.2368133"><ele></ele><time>2016-5-22T17:53:30Z</time></trkpt>
<trkpt lat="46.1915717" lon="7.2367917"><ele></ele><time>2016-5-22T17:53:33Z</time></trkpt>
<trkpt lat="46.1915367" lon="7.2367583"><ele></ele><time>2016-5-22T17:53:36Z</time></trkpt>
<trkpt lat="46.1914850" lon="7.2367533"><ele></ele><time>2016-5-22T17:53:39Z</time></trkpt>
<trkpt lat="46.1914433" lon="7.2367300"><ele></ele><time>2016-5-22T17:53:42Z</time></trkpt>
<trkpt lat="46.1913983" lon="7.2367000"><ele></ele><time>2016-5-22T17:53:45Z</time></trkpt>
<trkpt lat="46.1913617" lon="7.2366417"><ele></ele><time>2016-5-22T17:53:48Z</time></trkpt>
<trkpt lat="46.1913183" lon="7.2366033"><ele></ele><time>2016-5-22T17:53:51Z</time></trkpt>
<trkpt lat="46.1912583" lon="7.2365783"><ele></ele><time>2016-5-22T17:53:54Z</time></trkpt>
<trkpt lat="46.1911983" lon="7.2365517"><ele></ele><time>2016-5-22T17:53:57Z</time></trkpt>
<trkpt lat="46.1911400" lon="7.2365167"><ele></ele><time>2016-5-22T17:54:0Z</time></trkpt>
<trkpt lat="46.1910500" lon="7.2364883"><ele></ele><time>2016-5-22T17:54:3Z</time></trkpt>
<trkpt lat="46.1909933" lon="7.2364450"><ele></ele><time>2016-5-22T17:54:6Z</time></trkpt>
<trkpt lat="46.1909333" lon="7.2364083"><ele></ele><time>2016-5-22T17:54:9Z</time></trkpt>
<trkpt lat="46.1908650" lon="7.2363600"><ele></ele><time>2016-5-22T17:54:12Z</time></trkpt>
<trkpt lat="46.1908067" lon="7.2363150"><ele></ele><time>2016-5-22T17:54:15Z</time></trkpt>
<trkpt lat="46.1907283" lon="7.2362700"><ele></ele><time>2016-5-22T17:54:18Z</time></trkpt>
<trkpt lat="46.1906567" lon="7.2362233"><ele></ele><time>2016-5-22T17:54:21Z</time></trkpt>
<trkpt lat="46.1905850" lon="7.2361733"><ele></ele><time>2016-5-22T17:54:24Z</time></trkpt>
<trkpt lat="46.1905050" lon="7.2361250"><ele></ele><time>2016-5-22T17:54:27Z</time></trkpt>
<trkpt lat="46.1904283" lon="7.2360750"><ele></ele><time>2016-5-22T17:54:30Z</time></trkpt>
<trkpt lat="46.1903550" lon="7.2360067"><ele></ele><time>2016-5-22T17:54:33Z</time></trkpt>
<trkpt lat="46.1902783" lon="7.2359650"><ele></ele><time>2016-5-22T17:54:36Z</time></trkpt>
<trkpt lat="46.1901967" lon="7.2359267"><ele></ele><time>2016-5-22T17:54:39Z</time></trkpt>
<trkpt lat="46.1901150" lon="7.2358850"><ele></ele><time>2016-5-22T17:54:42Z</time></trkpt>
<trkpt lat="46.1900367" lon="7.2358333"><ele></ele><time>2016-5-22T17:54:45Z</time></trkpt>
<trkpt lat="46.1899567" lon="7.2357833"><ele></ele><time>2016-5-22T17:54:48Z</time></trkpt>
<trkpt lat="46.1898800" lon="7.2357500"><ele></ele><time>2016-5-22T17:54:51Z</time></trkpt>
<trkpt lat="46.1898017" lon="7.2357183"><ele></ele><time>2016-5-22T17:54:54Z</time></trkpt>
<trkpt lat="46.1897183" lon="7.2356933"><ele></ele><time>2016-5-22T17:54:57Z</time></trkpt>
<trkpt lat="46.1896300" lon="7.2356633"><ele></ele><time>2016-5-22T17:55:0Z</time></trkpt>
<trkpt lat="46.1895350" lon="7.2356483"><ele></ele><time>2016-5-22T17:55:3Z</time></trkpt>
<trkpt lat="46.1894450" lon="7.2356350"><ele></ele><time>2016-5-22T17:55:6Z</time></trkpt>
<trkpt lat="46.1893533" lon="7.2355967"><ele></ele><time>2016-5-22T17:55:9Z</time></trkpt>
<trkpt lat="46.1892717" lon="7.2355883"><ele></ele><time>2016-5-22T17:55:12Z</time></trkpt>
<trkpt lat="46.1891733" lon="7.2355617"><ele></ele><time>2016-5-22T17:55:15Z</time></trkpt>
<trkpt lat="46.1890817" lon="7.2355217"><ele></ele><time>2016-5-22T17:55:18Z</time></trkpt>
<trkpt lat="46.1889900" lon="7.2354850"><ele></ele><time>2016-5-22T17:55:21Z</time></trkpt>
<trkpt lat="46.1889083" lon="7.2354483"><ele></ele><time>2016-5-22T17:55:24Z</time></trkpt>
<trkpt lat="46.1888150" lon="7.2354000"><ele></ele><time>2016-5-22T17:55:27Z</time></trkpt>
<trkpt lat="46.1887233" lon="7.2353783"><ele></ele><time>2016-5-22T17:55:30Z</time></trkpt>
<trkpt lat="46.1886217" lon="7.2353533"><ele></ele><time>2016-5-22T17:55:33Z</time></trkpt>
<trkpt lat="46.1885300" lon="7.2353250"><ele></ele><time>2016-5-22T17:55:36Z</time></trkpt>
<trkpt lat="46.1884350" lon="7.2352983"><ele></ele><time>2016-5-22T17:55:39Z</time></trkpt>
<trkpt lat="46.1883367" lon="7.2352750"><ele></ele><time>2016-5-22T17:55:42Z</time></trkpt>
<trkpt lat="46.1882417" lon="7.2352550"><ele></ele><time>2016-5-22T17:55:45Z</time></trkpt>
<trkpt lat="46.1881517" lon="7.2352317"><ele></ele><time>2016-5-22T17:55:48Z</time></trkpt>
<trkpt lat="46.1880717" lon="7.2352033"><ele></ele><time>2016-5-22T17:55:51Z</time></trkpt>
<trkpt lat="46.1879867" lon="7.2351967"><ele></ele><time>2016-5-22T17:55:54Z</time></trkpt>
<trkpt lat="46.1879033" lon="7.2351733"><ele></ele><time>2016-5-22T17:55:57Z</time></trkpt>
<trkpt lat="46.1878183" lon="7.2351383"><ele></ele><time>2016-5-22T17:56:0Z</time></trkpt>
<trkpt lat="46.1877283" lon="7.2351033"><ele></ele><time>2016-5-22T17:56:3Z</time></trkpt>
<trkpt lat="46.1876383" lon="7.2350733"><ele></ele><time>2016-5-22T17:56:6Z</time></trkpt>
<trkpt lat="46.1875533" lon="7.2350517"><ele></ele><time>2016-5-22T17:56:9Z</time></trkpt>
<trkpt lat="46.1874733" lon="7.2350167"><ele></ele><time>2016-5-22T17:56:12Z</time></trkpt>
<trkpt lat="46.1873867" lon="7.2349950"><ele></ele><time>2016-5-22T17:56:15Z</time></trkpt>
<trkpt lat="46.1872917" lon="7.2349700"><ele></ele><time>2016-5-22T17:56:18Z</time></trkpt>
<trkpt lat="46.1871900" lon="7.2349283"><ele></ele><time>2016-5-22T17:56:21Z</time></trkpt>
<trkpt lat="46.1871000" lon="7.2348533"><ele></ele><time>2016-5-22T17:56:24Z</time></trkpt>
<trkpt lat="46.1870233" lon="7.2347567"><ele></ele><time>2016-5-22T17:56:27Z</time></trkpt>
<trkpt lat="46.1869550" lon="7.2346350"><ele></ele><time>2016-5-22T17:56:30Z</time></trkpt>
<trkpt lat="46.1868783" lon="7.2345200"><ele></ele><time>2016-5-22T17:56:33Z</time></trkpt>
<trkpt lat="46.1867900" lon="7.2344183"><ele></ele><time>2016-5-22T17:56:36Z</time></trkpt>
<trkpt lat="46.1867000" lon="7.2343333"><ele></ele><time>2016-5-22T17:56:39Z</time></trkpt>
<trkpt lat="46.1866083" lon="7.2342550"><ele></ele><time>2016-5-22T17:56:42Z</time></trkpt>
<trkpt lat="46.1865100" lon="7.2341650"><ele></ele><time>2016-5-22T17:56:45Z</time></trkpt>
<trkpt lat="46.1864233" lon="7.2340867"><ele></ele><time>2016-5-22T17:56:48Z</time></trkpt>
<trkpt lat="46.1863317" lon="7.2340117"><ele></ele><time>2016-5-22T17:56:51Z</time></trkpt>
<trkpt lat="46.1862433" lon="7.2339317"><ele></ele><time>2016-5-22T17:56:54Z</time></trkpt>
<trkpt lat="46.1861533" lon="7.2338583"><ele></ele><time>2016-5-22T17:56:57Z</time></trkpt>
<trkpt lat="46.1860683" lon="7.2337733"><ele></ele><time>2016-5-22T17:57:0Z</time></trkpt>
<trkpt lat="46.1859700" lon="7.2336850"><ele></ele><time>2016-5-22T17:57:3Z</time></trkpt>
<trkpt lat="46.1858817" lon="7.2335883"><ele></ele><time>2016-5-22T17:57:6Z</time></trkpt>
<trkpt lat="46.1857967" lon="7.2335033"><ele></ele><time>2016-5-22T17:57:9Z</time></trkpt>
<trkpt lat="46.1857200" lon="7.2334183"><ele></ele><time>2016-5-22T17:57:12Z</time></trkpt>
<trkpt lat="46.1856467" lon="7.2333117"><ele></ele><time>2016-5-22T17:57:15Z</time></trkpt>
<trkpt lat="46.1855700" lon="7.2332083"><ele></ele><time>2016-5-22T17:57:18Z</time></trkpt>
<trkpt lat="46.1854967" lon="7.2330933"><ele></ele><time>2016-5-22T17:57:21Z</time></trkpt>
<trkpt lat="46.1854217" lon="7.2329917"><ele></ele><time>2016-5-22T17:57:24Z</time></trkpt>
<trkpt lat="46.1853350" lon="7.2329083"><ele></ele><time>2016-5-22T17:57:27Z</time></trkpt>
<trkpt lat="46.1852550" lon="7.2328167"><ele></ele><time>2016-5-22T17:57:30Z</time></trkpt>
<trkpt lat="46.1851833" lon="7.2327117"><ele></ele><time>2016-5-22T17:57:33Z</time></trkpt>
<trkpt lat="46.1851167" lon="7.2326033"><ele></ele><time>2016-5-22T17:57:36Z</time></trkpt>
<trkpt lat="46.1850467" lon="7.2324900"><ele></ele><time>2016-5-22T17:57:39Z</time></trkpt>
<trkpt lat="46.1849850" lon="7.2323867"><ele></ele><time>2016-5-22T17:57:42Z</time></trkpt>
<trkpt lat="46.1849200" lon="7.2322900"><ele></ele><time>2016-5-22T17:57:45Z</time></trkpt>
<trkpt lat="46.1848567" lon="7.2321933"><ele></ele><time>2016-5-22T17:57:48Z</time></trkpt>
<trkpt lat="46.1847967" lon="7.2320933"><ele></ele><time>2016-5-22T17:57:51Z</time></trkpt>
<trkpt lat="46.1847317" lon="7.2319933"><ele></ele><time>2016-5-22T17:57:54Z</time></trkpt>
<trkpt lat="46.1846683" lon="7.2318850"><ele></ele><time>2016-5-22T17:57:57Z</time></trkpt>
<trkpt lat="46.1846067" lon="7.2317817"><ele></ele><time>2016-5-22T17:58:0Z</time></trkpt>
<trkpt lat="46.1845383" lon="7.2316717"><ele></ele><time>2016-5-22T17:58:3Z</time></trkpt>
<trkpt lat="46.1844717" lon="7.2315667"><ele></ele><time>2016-5-22T17:58:6Z</time></trkpt>
<trkpt lat="46.1844050" lon="7.2314617"><ele></ele><time>2016-5-22T17:58:9Z</time></trkpt>
<trkpt lat="46.1843400" lon="7.2313600"><ele></ele><time>2016-5-22T17:58:12Z</time></trkpt>
<trkpt lat="46.1842717" lon="7.2312617"><ele></ele><time>2016-5-22T17:58:15Z</time></trkpt>
<trkpt lat="46.1842083" lon="7.2311550"><ele></ele><time>2016-5-22T17:58:18Z</time></trkpt>
<trkpt lat="46.1841383" lon="7.2310450"><ele></ele><time>2016-5-22T17:58:21Z</time></trkpt>
<trkpt lat="46.1840700" lon="7.2309383"><ele></ele><time>2016-5-22T17:58:24Z</time></trkpt>
<trkpt lat="46.1839967" lon="7.2308400"><ele></ele><time>2016-5-22T17:58:27Z</time></trkpt>
<trkpt lat="46.1839317" lon="7.2307450"><ele></ele><time>2016-5-22T17:58:30Z</time></trkpt>
<trkpt lat="46.1838733" lon="7.2306400"><ele></ele><time>2016-5-22T17:58:33Z</time></trkpt>
<trkpt lat="46.1838100" lon="7.2305317"><ele></ele><time>2016-5-22T17:58:36Z</time></trkpt>
<trkpt lat="46.1837550" lon="7.2304250"><ele></ele><time>2016-5-22T17:58:39Z</time></trkpt>
<trkpt lat="46.1836900" lon="7.2303250"><ele></ele><time>2016-5-22T17:58:42Z</time></trkpt>
<trkpt lat="46.1836317" lon="7.2302250"><ele></ele><time>2016-5-22T17:58:45Z</time></trkpt>
<trkpt lat="46.1835750" lon="7.2301367"><ele></ele><time>2016-5-22T17:58:48Z</time></trkpt>
<trkpt lat="46.1835100" lon="7.2300533"><ele></ele><time>2016-5-22T17:58:51Z</time></trkpt>
<trkpt lat="46.1834517" lon="7.2299533"><ele></ele><time>2016-5-22T17:58:54Z</time></trkpt>
<trkpt lat="46.1834033" lon="7.2298600"><ele></ele><time>2016-5-22T17:58:57Z</time></trkpt>
<trkpt lat="46.1833433" lon="7.2297717"><ele></ele><time>2016-5-22T17:59:0Z</time></trkpt>
<trkpt lat="46.1832900" lon="7.2296817"><ele></ele><time>2016-5-22T17:59:3Z</time></trkpt>
<trkpt lat="46.1832317" lon="7.2295800"><ele></ele><time>2016-5-22T17:59:6Z</time></trkpt>
<trkpt lat="46.1831750" lon="7.2294833"><ele></ele><time>2016-5-22T17:59:9Z</time></trkpt>
<trkpt lat="46.1831217" lon="7.2293900"><ele></ele><time>2016-5-22T17:59:12Z</time></trkpt>
<trkpt lat="46.1830633" lon="7.2292917"><ele></ele><time>2016-5-22T17:59:15Z</time></trkpt>
<trkpt lat="46.1830033" lon="7.2291933"><ele></ele><time>2016-5-22T17:59:18Z</time></trkpt>
<trkpt lat="46.1829533" lon="7.2290883"><ele></ele><time>2016-5-22T17:59:21Z</time></trkpt>
<trkpt lat="46.1829050" lon="7.2289833"><ele></ele><time>2016-5-22T17:59:24Z</time></trkpt>
<trkpt lat="46.1828583" lon="7.2288717"><ele></ele><time>2016-5-22T17:59:27Z</time></trkpt>
<trkpt lat="46.1828117" lon="7.2287633"><ele></ele><time>2016-5-22T17:59:30Z</time></trkpt>
<trkpt lat="46.1827683" lon="7.2286533"><ele></ele><time>2016-5-22T17:59:33Z</time></trkpt>
<trkpt lat="46.1827183" lon="7.2285483"><ele></ele><time>2016-5-22T17:59:36Z</time></trkpt>
<trkpt lat="46.1826700" lon="7.2284450"><ele></ele><time>2016-5-22T17:59:39Z</time></trkpt>
<trkpt lat="46.1826333" lon="7.2283400"><ele></ele><time>2016-5-22T17:59:42Z</time></trkpt>
<trkpt lat="46.1825933" lon="7.2282267"><ele></ele><time>2016-5-22T17:59:45Z</time></trkpt>
<trkpt lat="46.1825383" lon="7.2281050"><ele></ele><time>2016-5-22T17:59:48Z</time></trkpt>
<trkpt lat="46.1824950" lon="7.2279900"><ele></ele><time>2016-5-22T17:59:51Z</time></trkpt>
<trkpt lat="46.1824617" lon="7.2278817"><ele></ele><time>2016-5-22T17:59:54Z</time></trkpt>
<trkpt lat="46.1824250" lon="7.2277683"><ele></ele><time>2016-5-22T17:59:57Z</time></trkpt>
<trkpt lat="46.1823950" lon="7.2276583"><ele></ele><time>2016-5-22T18:0:0Z</time></trkpt>
<trkpt lat="46.1823633" lon="7.2275400"><ele></ele><time>2016-5-22T18:0:3Z</time></trkpt>
<trkpt lat="46.1823367" lon="7.2274217"><ele></ele><time>2016-5-22T18:0:6Z</time></trkpt>
<trkpt lat="46.1823183" lon="7.2273050"><ele></ele><time>2016-5-22T18:0:9Z</time></trkpt>
<trkpt lat="46.1822950" lon="7.2271950"><ele></ele><time>2016-5-22T18:0:12Z</time></trkpt>
<trkpt lat="46.1822667" lon="7.2270767"><ele></ele><time>2016-5-22T18:0:15Z</time></trkpt>
<trkpt lat="46.1822467" lon="7.2269683"><ele></ele><time>2016-5-22T18:0:18Z</time></trkpt>
<trkpt lat="46.1822200" lon="7.2268617"><ele></ele><time>2016-5-22T18:0:21Z</time></trkpt>
<trkpt lat="46.1822067" lon="7.2267500"><ele></ele><time>2016-5-22T18:0:24Z</time></trkpt>
<trkpt lat="46.1821917" lon="7.2266317"><ele></ele><time>2016-5-22T18:0:27Z</time></trkpt>
<trkpt lat="46.1821733" lon="7.2265150"><ele></ele><time>2016-5-22T18:0:30Z</time></trkpt>
<trkpt lat="46.1821617" lon="7.2263933"><ele></ele><time>2016-5-22T18:0:33Z</time></trkpt>
<trkpt lat="46.1821467" lon="7.2263067"><ele></ele><time>2016-5-22T18:0:36Z</time></trkpt>
<trkpt lat="46.1821350" lon="7.2261983"><ele></ele><time>2016-5-22T18:0:39Z</time></trkpt>
<trkpt lat="46.1821300" lon="7.2261000"><ele></ele><time>2016-5-22T18:0:42Z</time></trkpt>
<trkpt lat="46.1821267" lon="7.2259967"><ele></ele><time>2016-5-22T18:0:45Z</time></trkpt>
<trkpt lat="46.1821283" lon="7.2258867"><ele></ele><time>2016-5-22T18:0:48Z</time></trkpt>
<trkpt lat="46.1821250" lon="7.2257867"><ele></ele><time>2016-5-22T18:0:51Z</time></trkpt>
<trkpt lat="46.1821233" lon="7.2257000"><ele></ele><time>2016-5-22T18:0:54Z</time></trkpt>
<trkpt lat="46.1821183" lon="7.2256150"><ele></ele><time>2016-5-22T18:0:57Z</time></trkpt>
<trkpt lat="46.1821183" lon="7.2255283"><ele></ele><time>2016-5-22T18:1:0Z</time></trkpt>
<trkpt lat="46.1821200" lon="7.2254383"><ele></ele><time>2016-5-22T18:1:3Z</time></trkpt>
<trkpt lat="46.1821200" lon="7.2253400"><ele></ele><time>2016-5-22T18:1:6Z</time></trkpt>
<trkpt lat="46.1821117" lon="7.2252350"><ele></ele><time>2016-5-22T18:1:9Z</time></trkpt>
<trkpt lat="46.1821100" lon="7.2251217"><ele></ele><time>2016-5-22T18:1:12Z</time></trkpt>
<trkpt lat="46.1821100" lon="7.2250017"><ele></ele><time>2016-5-22T18:1:15Z</time></trkpt>
<trkpt lat="46.1821083" lon="7.2249100"><ele></ele><time>2016-5-22T18:1:18Z</time></trkpt>
<trkpt lat="46.1821067" lon="7.2248017"><ele></ele><time>2016-5-22T18:1:21Z</time></trkpt>
<trkpt lat="46.1820867" lon="7.2247250"><ele></ele><time>2016-5-22T18:1:24Z</time></trkpt>
<trkpt lat="46.1820483" lon="7.2246533"><ele></ele><time>2016-5-22T18:1:27Z</time></trkpt>
<trkpt lat="46.1819967" lon="7.2246067"><ele></ele><time>2016-5-22T18:1:30Z</time></trkpt>
<trkpt lat="46.1819117" lon="7.2245933"><ele></ele><time>2016-5-22T18:1:33Z</time></trkpt>
<trkpt lat="46.1818400" lon="7.2245817"><ele></ele><time>2016-5-22T18:1:36Z</time></trkpt>
<trkpt lat="46.1817633" lon="7.2245683"><ele></ele><time>2016-5-22T18:1:39Z</time></trkpt>
<trkpt lat="46.1816933" lon="7.2245800"><ele></ele><time>2016-5-22T18:1:42Z</time></trkpt>
<trkpt lat="46.1816067" lon="7.2245917"><ele></ele><time>2016-5-22T18:1:45Z</time></trkpt>
<trkpt lat="46.1815400" lon="7.2245917"><ele></ele><time>2016-5-22T18:1:48Z</time></trkpt>
<trkpt lat="46.1814700" lon="7.2245933"><ele></ele><time>2016-5-22T18:1:51Z</time></trkpt>
<trkpt lat="46.1814083" lon="7.2245750"><ele></ele><time>2016-5-22T18:1:54Z</time></trkpt>
<trkpt lat="46.1813283" lon="7.2245450"><ele></ele><time>2016-5-22T18:1:57Z</time></trkpt>
<trkpt lat="46.1812550" lon="7.2245350"><ele></ele><time>2016-5-22T18:2:0Z</time></trkpt>
<trkpt lat="46.1811867" lon="7.2245367"><ele></ele><time>2016-5-22T18:2:3Z</time></trkpt>
<trkpt lat="46.1811117" lon="7.2245350"><ele></ele><time>2016-5-22T18:2:6Z</time></trkpt>
<trkpt lat="46.1810400" lon="7.2245317"><ele></ele><time>2016-5-22T18:2:9Z</time></trkpt>
<trkpt lat="46.1809667" lon="7.2245267"><ele></ele><time>2016-5-22T18:2:12Z</time></trkpt>
<trkpt lat="46.1808917" lon="7.2245300"><ele></ele><time>2016-5-22T18:2:15Z</time></trkpt>
<trkpt lat="46.1808100" lon="7.2245333"><ele></ele><time>2016-5-22T18:2:18Z</time></trkpt>
<trkpt lat="46.1807483" lon="7.2245200"><ele></ele><time>2016-5-22T18:2:21Z</time></trkpt>
<trkpt lat="46.1807050" lon="7.2244967"><ele></ele><time>2016-5-22T18:2:24Z</time></trkpt>
<trkpt lat="46.1806600" lon="7.2244967"><ele></ele><time>2016-5-22T18:2:27Z</time></trkpt>
<trkpt lat="46.1806367" lon="7.2244867"><ele></ele><time>2016-5-22T18:2:30Z</time></trkpt>
<trkpt lat="46.1806117" lon="7.2244933"><ele></ele><time>2016-5-22T18:2:33Z</time></trkpt>
<trkpt lat="46.1805967" lon="7.2244967"><ele></ele><time>2016-5-22T18:2:36Z</time></trkpt>
<trkpt lat="46.1805933" lon="7.2244800"><ele></ele><time>2016-5-22T18:2:39Z</time></trkpt>
<trkpt lat="46.1805983" lon="7.2244550"><ele></ele><time>2016-5-22T18:2:42Z</time></trkpt>
<trkpt lat="46.1806117" lon="7.2244250"><ele></ele><time>2016-5-22T18:2:45Z</time></trkpt>
<trkpt lat="46.1806233" lon="7.2243967"><ele></ele><time>2016-5-22T18:2:48Z</time></trkpt>
<trkpt lat="46.1806450" lon="7.2243500"><ele></ele><time>2016-5-22T18:2:51Z</time></trkpt>
<trkpt lat="46.1806700" lon="7.2242817"><ele></ele><time>2016-5-22T18:2:54Z</time></trkpt>
<trkpt lat="46.1806933" lon="7.2242417"><ele></ele><time>2016-5-22T18:2:57Z</time></trkpt>
<trkpt lat="46.1807083" lon="7.2241950"><ele></ele><time>2016-5-22T18:3:0Z</time></trkpt>
<trkpt lat="46.1807317" lon="7.2241450"><ele></ele><time>2016-5-22T18:3:3Z</time></trkpt>
<trkpt lat="46.1807517" lon="7.2240983"><ele></ele><time>2016-5-22T18:3:6Z</time></trkpt>
<trkpt lat="46.1807600" lon="7.2240467"><ele></ele><time>2016-5-22T18:3:9Z</time></trkpt>
<trkpt lat="46.1807783" lon="7.2240033"><ele></ele><time>2016-5-22T18:3:12Z</time></trkpt>
<trkpt lat="46.1807800" lon="7.2239500"><ele></ele><time>2016-5-22T18:3:15Z</time></trkpt>
<trkpt lat="46.1807750" lon="7.2238750"><ele></ele><time>2016-5-22T18:3:18Z</time></trkpt>
<trkpt lat="46.1807717" lon="7.2237683"><ele></ele><time>2016-5-22T18:3:21Z</time></trkpt>
<trkpt lat="46.1807733" lon="7.2236683"><ele></ele><time>2016-5-22T18:3:24Z</time></trkpt>
<trkpt lat="46.1807717" lon="7.2235700"><ele></ele><time>2016-5-22T18:3:27Z</time></trkpt>
<trkpt lat="46.1807700" lon="7.2234667"><ele></ele><time>2016-5-22T18:3:30Z</time></trkpt>
<trkpt lat="46.1807750" lon="7.2233900"><ele></ele><time>2016-5-22T18:3:33Z</time></trkpt>
<trkpt lat="46.1807317" lon="7.2232967"><ele></ele><time>2016-5-22T18:3:36Z</time></trkpt>
<trkpt lat="46.1807150" lon="7.2232333"><ele></ele><time>2016-5-22T18:3:39Z</time></trkpt>
<trkpt lat="46.1807067" lon="7.2231850"><ele></ele><time>2016-5-22T18:3:42Z</time></trkpt>
<trkpt lat="46.1806833" lon="7.2231617"><ele></ele><time>2016-5-22T18:3:45Z</time></trkpt>
<trkpt lat="46.1806500" lon="7.2231450"><ele></ele><time>2016-5-22T18:3:48Z</time></trkpt>
<trkpt lat="46.1806333" lon="7.2231433"><ele></ele><time>2016-5-22T18:3:51Z</time></trkpt>
<trkpt lat="46.1805967" lon="7.2231250"><ele></ele><time>2016-5-22T18:3:54Z</time></trkpt>
<trkpt lat="46.1805533" lon="7.2231067"><ele></ele><time>2016-5-22T18:3:57Z</time></trkpt>
<trkpt lat="46.1805050" lon="7.2231067"><ele></ele><time>2016-5-22T18:4:0Z</time></trkpt>
<trkpt lat="46.1804567" lon="7.2230883"><ele></ele><time>2016-5-22T18:4:3Z</time></trkpt>
<trkpt lat="46.1804083" lon="7.2230817"><ele></ele><time>2016-5-22T18:4:6Z</time></trkpt>
<trkpt lat="46.1803633" lon="7.2230700"><ele></ele><time>2016-5-22T18:4:9Z</time></trkpt>
<trkpt lat="46.1803133" lon="7.2230533"><ele></ele><time>2016-5-22T18:4:12Z</time></trkpt>
<trkpt lat="46.1802667" lon="7.2230383"><ele></ele><time>2016-5-22T18:4:15Z</time></trkpt>
<trkpt lat="46.1802117" lon="7.2230100"><ele></ele><time>2016-5-22T18:4:18Z</time></trkpt>
<trkpt lat="46.1801600" lon="7.2230000"><ele></ele><time>2016-5-22T18:4:21Z</time></trkpt>
<trkpt lat="46.1801000" lon="7.2230000"><ele></ele><time>2016-5-22T18:4:24Z</time></trkpt>
<trkpt lat="46.1800367" lon="7.2229983"><ele></ele><time>2016-5-22T18:4:27Z</time></trkpt>
<trkpt lat="46.1799683" lon="7.2229933"><ele></ele><time>2016-5-22T18:4:30Z</time></trkpt>
<trkpt lat="46.1799017" lon="7.2229900"><ele></ele><time>2016-5-22T18:4:33Z</time></trkpt>
<trkpt lat="46.1798317" lon="7.2229817"><ele></ele><time>2016-5-22T18:4:36Z</time></trkpt>
<trkpt lat="46.1797617" lon="7.2229833"><ele></ele><time>2016-5-22T18:4:39Z</time></trkpt>
<trkpt lat="46.1796950" lon="7.2229817"><ele></ele><time>2016-5-22T18:4:42Z</time></trkpt>
<trkpt lat="46.1796183" lon="7.2229733"><ele></ele><time>2016-5-22T18:4:45Z</time></trkpt>
<trkpt lat="46.1795533" lon="7.2229617"><ele></ele><time>2016-5-22T18:4:48Z</time></trkpt>
<trkpt lat="46.1794733" lon="7.2229517"><ele></ele><time>2016-5-22T18:4:51Z</time></trkpt>
<trkpt lat="46.1794117" lon="7.2229400"><ele></ele><time>2016-5-22T18:4:54Z</time></trkpt>
<trkpt lat="46.1793450" lon="7.2229350"><ele></ele><time>2016-5-22T18:4:57Z</time></trkpt>
<trkpt lat="46.1792800" lon="7.2229100"><ele></ele><time>2016-5-22T18:5:0Z</time></trkpt>
<trkpt lat="46.1792183" lon="7.2228850"><ele></ele><time>2016-5-22T18:5:3Z</time></trkpt>
<trkpt lat="46.1791633" lon="7.2228167"><ele></ele><time>2016-5-22T18:5:6Z</time></trkpt>
<trkpt lat="46.1790967" lon="7.2227700"><ele></ele><time>2016-5-22T18:5:9Z</time></trkpt>
<trkpt lat="46.1790483" lon="7.2227033"><ele></ele><time>2016-5-22T18:5:12Z</time></trkpt>
<trkpt lat="46.1790000" lon="7.2226317"><ele></ele><time>2016-5-22T18:5:15Z</time></trkpt>
<trkpt lat="46.1789717" lon="7.2225567"><ele></ele><time>2016-5-22T18:5:18Z</time></trkpt>
<trkpt lat="46.1789583" lon="7.2224733"><ele></ele><time>2016-5-22T18:5:21Z</time></trkpt>
<trkpt lat="46.1789583" lon="7.2223967"><ele></ele><time>2016-5-22T18:5:24Z</time></trkpt>
<trkpt lat="46.1789550" lon="7.2223117"><ele></ele><time>2016-5-22T18:5:27Z</time></trkpt>
<trkpt lat="46.1789417" lon="7.2222250"><ele></ele><time>2016-5-22T18:5:30Z</time></trkpt>
<trkpt lat="46.1789367" lon="7.2221383"><ele></ele><time>2016-5-22T18:5:33Z</time></trkpt>
<trkpt lat="46.1789367" lon="7.2220500"><ele></ele><time>2016-5-22T18:5:36Z</time></trkpt>
<trkpt lat="46.1789283" lon="7.2219550"><ele></ele><time>2016-5-22T18:5:39Z</time></trkpt>
<trkpt lat="46.1789317" lon="7.2218700"><ele></ele><time>2016-5-22T18:5:42Z</time></trkpt>
<trkpt lat="46.1789183" lon="7.2217767"><ele></ele><time>2016-5-22T18:5:45Z</time></trkpt>
<trkpt lat="46.1789117" lon="7.2216717"><ele></ele><time>2016-5-22T18:5:48Z</time></trkpt>
<trkpt lat="46.1789033" lon="7.2215750"><ele></ele><time>2016-5-22T18:5:51Z</time></trkpt>
<trkpt lat="46.1788800" lon="7.2214767"><ele></ele><time>2016-5-22T18:5:54Z</time></trkpt>
<trkpt lat="46.1788800" lon="7.2213833"><ele></ele><time>2016-5-22T18:5:57Z</time></trkpt>
<trkpt lat="46.1788817" lon="7.2212717"><ele></ele><time>2016-5-22T18:6:0Z</time></trkpt>
<trkpt lat="46.1788833" lon="7.2211750"><ele></ele><time>2016-5-22T18:6:3Z</time></trkpt>
<trkpt lat="46.1788767" lon="7.2210683"><ele></ele><time>2016-5-22T18:6:6Z</time></trkpt>
<trkpt lat="46.1788717" lon="7.2209583"><ele></ele><time>2016-5-22T18:6:9Z</time></trkpt>
<trkpt lat="46.1788617" lon="7.2208517"><ele></ele><time>2016-5-22T18:6:12Z</time></trkpt>
<trkpt lat="46.1788550" lon="7.2207550"><ele></ele><time>2016-5-22T18:6:15Z</time></trkpt>
<trkpt lat="46.1788433" lon="7.2206517"><ele></ele><time>2016-5-22T18:6:18Z</time></trkpt>
<trkpt lat="46.1788350" lon="7.2205433"><ele></ele><time>2016-5-22T18:6:21Z</time></trkpt>
<trkpt lat="46.1788383" lon="7.2204367"><ele></ele><time>2016-5-22T18:6:24Z</time></trkpt>
<trkpt lat="46.1788433" lon="7.2203283"><ele></ele><time>2016-5-22T18:6:27Z</time></trkpt>
<trkpt lat="46.1788317" lon="7.2202100"><ele></ele><time>2016-5-22T18:6:30Z</time></trkpt>
<trkpt lat="46.1788383" lon="7.2201133"><ele></ele><time>2016-5-22T18:6:33Z</time></trkpt>
<trkpt lat="46.1788267" lon="7.2199867"><ele></ele><time>2016-5-22T18:6:36Z</time></trkpt>
<trkpt lat="46.1788217" lon="7.2198750"><ele></ele><time>2016-5-22T18:6:39Z</time></trkpt>
<trkpt lat="46.1788283" lon="7.2197633"><ele></ele><time>2016-5-22T18:6:42Z</time></trkpt>
<trkpt lat="46.1788283" lon="7.2196567"><ele></ele><time>2016-5-22T18:6:45Z</time></trkpt>
<trkpt lat="46.1788183" lon="7.2195533"><ele></ele><time>2016-5-22T18:6:48Z</time></trkpt>
<trkpt lat="46.1788150" lon="7.2194567"><ele></ele><time>2016-5-22T18:6:51Z</time></trkpt>
<trkpt lat="46.1788200" lon="7.2193467"><ele></ele><time>2016-5-22T18:6:54Z</time></trkpt>
<trkpt lat="46.1788217" lon="7.2192417"><ele></ele><time>2016-5-22T18:6:57Z</time></trkpt>
<trkpt lat="46.1788233" lon="7.2191117"><ele></ele><time>2016-5-22T18:7:0Z</time></trkpt>
<trkpt lat="46.1788217" lon="7.2189967"><ele></ele><time>2016-5-22T18:7:3Z</time></trkpt>
<trkpt lat="46.1788183" lon="7.2188883"><ele></ele><time>2016-5-22T18:7:6Z</time></trkpt>
<trkpt lat="46.1788100" lon="7.2187867"><ele></ele><time>2016-5-22T18:7:9Z</time></trkpt>
<trkpt lat="46.1788150" lon="7.2186550"><ele></ele><time>2016-5-22T18:7:12Z</time></trkpt>
<trkpt lat="46.1788117" lon="7.2185350"><ele></ele><time>2016-5-22T18:7:15Z</time></trkpt>
<trkpt lat="46.1788017" lon="7.2184333"><ele></ele><time>2016-5-22T18:7:18Z</time></trkpt>
<trkpt lat="46.1787967" lon="7.2183433"><ele></ele><time>2016-5-22T18:7:21Z</time></trkpt>
<trkpt lat="46.1788000" lon="7.2182367"><ele></ele><time>2016-5-22T18:7:24Z</time></trkpt>
<trkpt lat="46.1788133" lon="7.2181417"><ele></ele><time>2016-5-22T18:7:27Z</time></trkpt>
<trkpt lat="46.1788300" lon="7.2180500"><ele></ele><time>2016-5-22T18:7:30Z</time></trkpt>
<trkpt lat="46.1788417" lon="7.2179850"><ele></ele><time>2016-5-22T18:7:33Z</time></trkpt>
<trkpt lat="46.1788467" lon="7.2179350"><ele></ele><time>2016-5-22T18:7:36Z</time></trkpt>
<trkpt lat="46.1788483" lon="7.2178950"><ele></ele><time>2016-5-22T18:7:39Z</time></trkpt>
<trkpt lat="46.1788433" lon="7.2178483"><ele></ele><time>2016-5-22T18:7:42Z</time></trkpt>
<trkpt lat="46.1788183" lon="7.2177983"><ele></ele><time>2016-5-22T18:7:45Z</time></trkpt>
<trkpt lat="46.1787933" lon="7.2177500"><ele></ele><time>2016-5-22T18:7:48Z</time></trkpt>
<trkpt lat="46.1787750" lon="7.2176917"><ele></ele><time>2016-5-22T18:7:51Z</time></trkpt>
<trkpt lat="46.1787583" lon="7.2176267"><ele></ele><time>2016-5-22T18:7:54Z</time></trkpt>
<trkpt lat="46.1787467" lon="7.2175467"><ele></ele><time>2016-5-22T18:7:57Z</time></trkpt>
<trkpt lat="46.1787283" lon="7.2174767"><ele></ele><time>2016-5-22T18:8:0Z</time></trkpt>
<trkpt lat="46.1787333" lon="7.2173983"><ele></ele><time>2016-5-22T18:8:3Z</time></trkpt>
<trkpt lat="46.1787250" lon="7.2173067"><ele></ele><time>2016-5-22T18:8:6Z</time></trkpt>
<trkpt lat="46.1787250" lon="7.2172100"><ele></ele><time>2016-5-22T18:8:9Z</time></trkpt>
<trkpt lat="46.1787233" lon="7.2171300"><ele></ele><time>2016-5-22T18:8:12Z</time></trkpt>
<trkpt lat="46.1787283" lon="7.2170267"><ele></ele><time>2016-5-22T18:8:15Z</time></trkpt>
<trkpt lat="46.1787233" lon="7.2169333"><ele></ele><time>2016-5-22T18:8:18Z</time></trkpt>
<trkpt lat="46.1787167" lon="7.2168450"><ele></ele><time>2016-5-22T18:8:21Z</time></trkpt>
<trkpt lat="46.1787133" lon="7.2167450"><ele></ele><time>2016-5-22T18:8:24Z</time></trkpt>
<trkpt lat="46.1786967" lon="7.2166617"><ele></ele><time>2016-5-22T18:8:27Z</time></trkpt>
<trkpt lat="46.1787083" lon="7.2165567"><ele></ele><time>2016-5-22T18:8:30Z</time></trkpt>
<trkpt lat="46.1787083" lon="7.2164650"><ele></ele><time>2016-5-22T18:8:33Z</time></trkpt>
<trkpt lat="46.1787067" lon="7.2163850"><ele></ele><time>2016-5-22T18:8:36Z</time></trkpt>
<trkpt lat="46.1786967" lon="7.2162833"><ele></ele><time>2016-5-22T18:8:39Z</time></trkpt>
<trkpt lat="46.1787033" lon="7.2161817"><ele></ele><time>2016-5-22T18:8:42Z</time></trkpt>
<trkpt lat="46.1787067" lon="7.2160767"><ele></ele><time>2016-5-22T18:8:45Z</time></trkpt>
<trkpt lat="46.1787000" lon="7.2159817"><ele></ele><time>2016-5-22T18:8:48Z</time></trkpt>
<trkpt lat="46.1787050" lon="7.2158783"><ele></ele><time>2016-5-22T18:8:51Z</time></trkpt>
<trkpt lat="46.1787067" lon="7.2157917"><ele></ele><time>2016-5-22T18:8:54Z</time></trkpt>
<trkpt lat="46.1787050" lon="7.2157117"><ele></ele><time>2016-5-22T18:8:57Z</time></trkpt>
<trkpt lat="46.1787100" lon="7.2156383"><ele></ele><time>2016-5-22T18:9:0Z</time></trkpt>
<trkpt lat="46.1787083" lon="7.2155600"><ele></ele><time>2016-5-22T18:9:3Z</time></trkpt>
<trkpt lat="46.1787083" lon="7.2154683"><ele></ele><time>2016-5-22T18:9:6Z</time></trkpt>
<trkpt lat="46.1787100" lon="7.2153733"><ele></ele><time>2016-5-22T18:9:9Z</time></trkpt>
<trkpt lat="46.1787100" lon="7.2152633"><ele></ele><time>2016-5-22T18:9:12Z</time></trkpt>
<trkpt lat="46.1787167" lon="7.2151417"><ele></ele><time>2016-5-22T18:9:15Z</time></trkpt>
<trkpt lat="46.1787233" lon="7.2150167"><ele></ele><time>2016-5-22T18:9:18Z</time></trkpt>
<trkpt lat="46.1787300" lon="7.2148933"><ele></ele><time>2016-5-22T18:9:21Z</time></trkpt>
<trkpt lat="46.1787350" lon="7.2147733"><ele></ele><time>2016-5-22T18:9:24Z</time></trkpt>
<trkpt lat="46.1787183" lon="7.2146233"><ele></ele><time>2016-5-22T18:9:27Z</time></trkpt>
<trkpt lat="46.1787117" lon="7.2145050"><ele></ele><time>2016-5-22T18:9:30Z</time></trkpt>
<trkpt lat="46.1787083" lon="7.2144167"><ele></ele><time>2016-5-22T18:9:33Z</time></trkpt>
<trkpt lat="46.1786967" lon="7.2142950"><ele></ele><time>2016-5-22T18:9:36Z</time></trkpt>
<trkpt lat="46.1786850" lon="7.2141883"><ele></ele><time>2016-5-22T18:9:39Z</time></trkpt>
<trkpt lat="46.1786683" lon="7.2140883"><ele></ele><time>2016-5-22T18:9:42Z</time></trkpt>
<trkpt lat="46.1786533" lon="7.2139767"><ele></ele><time>2016-5-22T18:9:45Z</time></trkpt>
<trkpt lat="46.1786383" lon="7.2138700"><ele></ele><time>2016-5-22T18:9:48Z</time></trkpt>
<trkpt lat="46.1786117" lon="7.2137633"><ele></ele><time>2016-5-22T18:9:51Z</time></trkpt>
<trkpt lat="46.1785983" lon="7.2136600"><ele></ele><time>2016-5-22T18:9:54Z</time></trkpt>
<trkpt lat="46.1785850" lon="7.2135583"><ele></ele><time>2016-5-22T18:9:57Z</time></trkpt>
<trkpt lat="46.1785733" lon="7.2134617"><ele></ele><time>2016-5-22T18:10:0Z</time></trkpt>
<trkpt lat="46.1785633" lon="7.2133567"><ele></ele><time>2016-5-22T18:10:3Z</time></trkpt>
<trkpt lat="46.1785533" lon="7.2132633"><ele></ele><time>2016-5-22T18:10:6Z</time></trkpt>
<trkpt lat="46.1785483" lon="7.2131567"><ele></ele><time>2016-5-22T18:10:9Z</time></trkpt>
<trkpt lat="46.1785383" lon="7.2130517"><ele></ele><time>2016-5-22T18:10:12Z</time></trkpt>
<trkpt lat="46.1785333" lon="7.2129400"><ele></ele><time>2016-5-22T18:10:15Z</time></trkpt>
<trkpt lat="46.1785417" lon="7.2128150"><ele></ele><time>2016-5-22T18:10:18Z</time></trkpt>
<trkpt lat="46.1785600" lon="7.2126767"><ele></ele><time>2016-5-22T18:10:21Z</time></trkpt>
<trkpt lat="46.1785667" lon="7.2125867"><ele></ele><time>2016-5-22T18:10:24Z</time></trkpt>
<trkpt lat="46.1785617" lon="7.2124783"><ele></ele><time>2016-5-22T18:10:27Z</time></trkpt>
<trkpt lat="46.1785550" lon="7.2123633"><ele></ele><time>2016-5-22T18:10:30Z</time></trkpt>
<trkpt lat="46.1785417" lon="7.2122483"><ele></ele><time>2016-5-22T18:10:33Z</time></trkpt>
<trkpt lat="46.1785417" lon="7.2121450"><ele></ele><time>2016-5-22T18:10:36Z</time></trkpt>
<trkpt lat="46.1785317" lon="7.2120350"><ele></ele><time>2016-5-22T18:10:39Z</time></trkpt>
<trkpt lat="46.1785200" lon="7.2119300"><ele></ele><time>2016-5-22T18:10:42Z</time></trkpt>
<trkpt lat="46.1785133" lon="7.2118100"><ele></ele><time>2016-5-22T18:10:45Z</time></trkpt>
<trkpt lat="46.1785050" lon="7.2117067"><ele></ele><time>2016-5-22T18:10:48Z</time></trkpt>
<trkpt lat="46.1784850" lon="7.2116100"><ele></ele><time>2016-5-22T18:10:51Z</time></trkpt>
<trkpt lat="46.1784717" lon="7.2115033"><ele></ele><time>2016-5-22T18:10:54Z</time></trkpt>
<trkpt lat="46.1784700" lon="7.2113983"><ele></ele><time>2016-5-22T18:10:57Z</time></trkpt>
<trkpt lat="46.1784667" lon="7.2112900"><ele></ele><time>2016-5-22T18:11:0Z</time></trkpt>
<trkpt lat="46.1784617" lon="7.2111817"><ele></ele><time>2016-5-22T18:11:3Z</time></trkpt>
<trkpt lat="46.1784617" lon="7.2110700"><ele></ele><time>2016-5-22T18:11:6Z</time></trkpt>
<trkpt lat="46.1784483" lon="7.2109733"><ele></ele><time>2016-5-22T18:11:9Z</time></trkpt>
<trkpt lat="46.1784533" lon="7.2108767"><ele></ele><time>2016-5-22T18:11:12Z</time></trkpt>
<trkpt lat="46.1784533" lon="7.2107633"><ele></ele><time>2016-5-22T18:11:15Z</time></trkpt>
<trkpt lat="46.1784450" lon="7.2106400"><ele></ele><time>2016-5-22T18:11:18Z</time></trkpt>
<trkpt lat="46.1784433" lon="7.2105383"><ele></ele><time>2016-5-22T18:11:21Z</time></trkpt>
<trkpt lat="46.1784417" lon="7.2104333"><ele></ele><time>2016-5-22T18:11:24Z</time></trkpt>
<trkpt lat="46.1784333" lon="7.2103350"><ele></ele><time>2016-5-22T18:11:27Z</time></trkpt>
<trkpt lat="46.1784333" lon="7.2102233"><ele></ele><time>2016-5-22T18:11:30Z</time></trkpt>
<trkpt lat="46.1784367" lon="7.2101050"><ele></ele><time>2016-5-22T18:11:33Z</time></trkpt>
<trkpt lat="46.1784300" lon="7.2099833"><ele></ele><time>2016-5-22T18:11:36Z</time></trkpt>
<trkpt lat="46.1784283" lon="7.2098767"><ele></ele><time>2016-5-22T18:11:39Z</time></trkpt>
<trkpt lat="46.1784167" lon="7.2097700"><ele></ele><time>2016-5-22T18:11:42Z</time></trkpt>
<trkpt lat="46.1784033" lon="7.2096633"><ele></ele><time>2016-5-22T18:11:45Z</time></trkpt>
<trkpt lat="46.1783867" lon="7.2095400"><ele></ele><time>2016-5-22T18:11:48Z</time></trkpt>
<trkpt lat="46.1783817" lon="7.2094367"><ele></ele><time>2016-5-22T18:11:51Z</time></trkpt>
<trkpt lat="46.1783733" lon="7.2093317"><ele></ele><time>2016-5-22T18:11:54Z</time></trkpt>
<trkpt lat="46.1783550" lon="7.2092200"><ele></ele><time>2016-5-22T18:11:57Z</time></trkpt>
<trkpt lat="46.1783400" lon="7.2091217"><ele></ele><time>2016-5-22T18:12:0Z</time></trkpt>
<trkpt lat="46.1783317" lon="7.2090117"><ele></ele><time>2016-5-22T18:12:3Z</time></trkpt>
<trkpt lat="46.1783233" lon="7.2089017"><ele></ele><time>2016-5-22T18:12:6Z</time></trkpt>
<trkpt lat="46.1783150" lon="7.2087983"><ele></ele><time>2016-5-22T18:12:9Z</time></trkpt>
<trkpt lat="46.1783100" lon="7.2086900"><ele></ele><time>2016-5-22T18:12:12Z</time></trkpt>
<trkpt lat="46.1782967" lon="7.2085833"><ele></ele><time>2016-5-22T18:12:15Z</time></trkpt>
<trkpt lat="46.1782817" lon="7.2084833"><ele></ele><time>2016-5-22T18:12:18Z</time></trkpt>
<trkpt lat="46.1782633" lon="7.2083750"><ele></ele><time>2016-5-22T18:12:21Z</time></trkpt>
<trkpt lat="46.1782467" lon="7.2082817"><ele></ele><time>2016-5-22T18:12:24Z</time></trkpt>
<trkpt lat="46.1782317" lon="7.2081900"><ele></ele><time>2016-5-22T18:12:27Z</time></trkpt>
<trkpt lat="46.1782200" lon="7.2081050"><ele></ele><time>2016-5-22T18:12:30Z</time></trkpt>
<trkpt lat="46.1782133" lon="7.2080017"><ele></ele><time>2016-5-22T18:12:33Z</time></trkpt>
<trkpt lat="46.1782083" lon="7.2078983"><ele></ele><time>2016-5-22T18:12:36Z</time></trkpt>
<trkpt lat="46.1781867" lon="7.2078000"><ele></ele><time>2016-5-22T18:12:39Z</time></trkpt>
<trkpt lat="46.1781683" lon="7.2077117"><ele></ele><time>2016-5-22T18:12:42Z</time></trkpt>
<trkpt lat="46.1781467" lon="7.2076267"><ele></ele><time>2016-5-22T18:12:45Z</time></trkpt>
<trkpt lat="46.1781217" lon="7.2075333"><ele></ele><time>2016-5-22T18:12:48Z</time></trkpt>
<trkpt lat="46.1780767" lon="7.2074367"><ele></ele><time>2016-5-22T18:12:51Z</time></trkpt>
<trkpt lat="46.1780583" lon="7.2073517"><ele></ele><time>2016-5-22T18:12:54Z</time></trkpt>
<trkpt lat="46.1780267" lon="7.2072600"><ele></ele><time>2016-5-22T18:12:57Z</time></trkpt>
<trkpt lat="46.1779983" lon="7.2071617"><ele></ele><time>2016-5-22T18:13:0Z</time></trkpt>
<trkpt lat="46.1779767" lon="7.2070750"><ele></ele><time>2016-5-22T18:13:3Z</time></trkpt>
<trkpt lat="46.1779517" lon="7.2069800"><ele></ele><time>2016-5-22T18:13:6Z</time></trkpt>
<trkpt lat="46.1779300" lon="7.2068800"><ele></ele><time>2016-5-22T18:13:9Z</time></trkpt>
<trkpt lat="46.1779150" lon="7.2067817"><ele></ele><time>2016-5-22T18:13:12Z</time></trkpt>
<trkpt lat="46.1778833" lon="7.2067000"><ele></ele><time>2016-5-22T18:13:15Z</time></trkpt>
<trkpt lat="46.1778617" lon="7.2066217"><ele></ele><time>2016-5-22T18:13:18Z</time></trkpt>
<trkpt lat="46.1778417" lon="7.2065383"><ele></ele><time>2016-5-22T18:13:21Z</time></trkpt>
<trkpt lat="46.1778100" lon="7.2064467"><ele></ele><time>2016-5-22T18:13:24Z</time></trkpt>
<trkpt lat="46.1777917" lon="7.2063750"><ele></ele><time>2016-5-22T18:13:27Z</time></trkpt>
<trkpt lat="46.1777700" lon="7.2062917"><ele></ele><time>2016-5-22T18:13:30Z</time></trkpt>
<trkpt lat="46.1777350" lon="7.2062000"><ele></ele><time>2016-5-22T18:13:33Z</time></trkpt>
<trkpt lat="46.1777100" lon="7.2061067"><ele></ele><time>2016-5-22T18:13:36Z</time></trkpt>
<trkpt lat="46.1776767" lon="7.2060167"><ele></ele><time>2016-5-22T18:13:39Z</time></trkpt>
<trkpt lat="46.1776383" lon="7.2059317"><ele></ele><time>2016-5-22T18:13:42Z</time></trkpt>
<trkpt lat="46.1776100" lon="7.2058467"><ele></ele><time>2016-5-22T18:13:45Z</time></trkpt>
<trkpt lat="46.1775867" lon="7.2057417"><ele></ele><time>2016-5-22T18:13:48Z</time></trkpt>
<trkpt lat="46.1775567" lon="7.2056483"><ele></ele><time>2016-5-22T18:13:51Z</time></trkpt>
<trkpt lat="46.1775333" lon="7.2055617"><ele></ele><time>2016-5-22T18:13:54Z</time></trkpt>
<trkpt lat="46.1775050" lon="7.2054733"><ele></ele><time>2016-5-22T18:13:57Z</time></trkpt>
<trkpt lat="46.1774750" lon="7.2053733"><ele></ele><time>2016-5-22T18:14:0Z</time></trkpt>
<trkpt lat="46.1774433" lon="7.2052783"><ele></ele><time>2016-5-22T18:14:3Z</time></trkpt>
<trkpt lat="46.1774117" lon="7.2051833"><ele></ele><time>2016-5-22T18:14:6Z</time></trkpt>
<trkpt lat="46.1773783" lon="7.2050850"><ele></ele><time>2016-5-22T18:14:9Z</time></trkpt>
<trkpt lat="46.1773400" lon="7.2049917"><ele></ele><time>2016-5-22T18:14:12Z</time></trkpt>
<trkpt lat="46.1772917" lon="7.2048950"><ele></ele><time>2016-5-22T18:14:15Z</time></trkpt>
<trkpt lat="46.1772483" lon="7.2048017"><ele></ele><time>2016-5-22T18:14:18Z</time></trkpt>
<trkpt lat="46.1771967" lon="7.2047117"><ele></ele><time>2016-5-22T18:14:21Z</time></trkpt>
<trkpt lat="46.1771467" lon="7.2046233"><ele></ele><time>2016-5-22T18:14:24Z</time></trkpt>
<trkpt lat="46.1771050" lon="7.2045350"><ele></ele><time>2016-5-22T18:14:27Z</time></trkpt>
<trkpt lat="46.1770583" lon="7.2044500"><ele></ele><time>2016-5-22T18:14:30Z</time></trkpt>
<trkpt lat="46.1770133" lon="7.2043650"><ele></ele><time>2016-5-22T18:14:33Z</time></trkpt>
<trkpt lat="46.1769733" lon="7.2042800"><ele></ele><time>2016-5-22T18:14:36Z</time></trkpt>
<trkpt lat="46.1769283" lon="7.2042000"><ele></ele><time>2016-5-22T18:14:39Z</time></trkpt>
<trkpt lat="46.1768767" lon="7.2041150"><ele></ele><time>2016-5-22T18:14:42Z</time></trkpt>
<trkpt lat="46.1768400" lon="7.2040283"><ele></ele><time>2016-5-22T18:14:45Z</time></trkpt>
<trkpt lat="46.1768000" lon="7.2039500"><ele></ele><time>2016-5-22T18:14:48Z</time></trkpt>
<trkpt lat="46.1767500" lon="7.2038583"><ele></ele><time>2016-5-22T18:14:51Z</time></trkpt>
<trkpt lat="46.1767033" lon="7.2037917"><ele></ele><time>2016-5-22T18:14:54Z</time></trkpt>
<trkpt lat="46.1766650" lon="7.2037167"><ele></ele><time>2016-5-22T18:14:57Z</time></trkpt>
<trkpt lat="46.1766333" lon="7.2036317"><ele></ele><time>2016-5-22T18:15:0Z</time></trkpt>
<trkpt lat="46.1765867" lon="7.2035600"><ele></ele><time>2016-5-22T18:15:3Z</time></trkpt>
<trkpt lat="46.1765400" lon="7.2034917"><ele></ele><time>2016-5-22T18:15:6Z</time></trkpt>
<trkpt lat="46.1765050" lon="7.2034133"><ele></ele><time>2016-5-22T18:15:9Z</time></trkpt>
<trkpt lat="46.1764617" lon="7.2033433"><ele></ele><time>2016-5-22T18:15:12Z</time></trkpt>
<trkpt lat="46.1764017" lon="7.2032700"><ele></ele><time>2016-5-22T18:15:15Z</time></trkpt>
<trkpt lat="46.1763583" lon="7.2031983"><ele></ele><time>2016-5-22T18:15:18Z</time></trkpt>
<trkpt lat="46.1763183" lon="7.2031267"><ele></ele><time>2016-5-22T18:15:21Z</time></trkpt>
<trkpt lat="46.1762783" lon="7.2030617"><ele></ele><time>2016-5-22T18:15:24Z</time></trkpt>
<trkpt lat="46.1762333" lon="7.2029933"><ele></ele><time>2016-5-22T18:15:27Z</time></trkpt>
<trkpt lat="46.1761883" lon="7.2029217"><ele></ele><time>2016-5-22T18:15:30Z</time></trkpt>
<trkpt lat="46.1761400" lon="7.2028533"><ele></ele><time>2016-5-22T18:15:33Z</time></trkpt>
<trkpt lat="46.1760900" lon="7.2027800"><ele></ele><time>2016-5-22T18:15:36Z</time></trkpt>
<trkpt lat="46.1760417" lon="7.2027133"><ele></ele><time>2016-5-22T18:15:39Z</time></trkpt>
<trkpt lat="46.1759967" lon="7.2026367"><ele></ele><time>2016-5-22T18:15:42Z</time></trkpt>
<trkpt lat="46.1759550" lon="7.2025783"><ele></ele><time>2016-5-22T18:15:45Z</time></trkpt>
<trkpt lat="46.1759083" lon="7.2025150"><ele></ele><time>2016-5-22T18:15:48Z</time></trkpt>
<trkpt lat="46.1758550" lon="7.2024450"><ele></ele><time>2016-5-22T18:15:51Z</time></trkpt>
<trkpt lat="46.1758083" lon="7.2023817"><ele></ele><time>2016-5-22T18:15:54Z</time></trkpt>
<trkpt lat="46.1757583" lon="7.2023133"><ele></ele><time>2016-5-22T18:15:57Z</time></trkpt>
<trkpt lat="46.1757133" lon="7.2022533"><ele></ele><time>2016-5-22T18:16:0Z</time></trkpt>
<trkpt lat="46.1756750" lon="7.2021750"><ele></ele><time>2016-5-22T18:16:3Z</time></trkpt>
<trkpt lat="46.1756317" lon="7.2021100"><ele></ele><time>2016-5-22T18:16:6Z</time></trkpt>
<trkpt lat="46.1755833" lon="7.2020417"><ele></ele><time>2016-5-22T18:16:9Z</time></trkpt>
<trkpt lat="46.1755283" lon="7.2019700"><ele></ele><time>2016-5-22T18:16:12Z</time></trkpt>
<trkpt lat="46.1754933" lon="7.2019000"><ele></ele><time>2016-5-22T18:16:15Z</time></trkpt>
<trkpt lat="46.1754567" lon="7.2018283"><ele></ele><time>2016-5-22T18:16:18Z</time></trkpt>
<trkpt lat="46.1754133" lon="7.2017650"><ele></ele><time>2016-5-22T18:16:21Z</time></trkpt>
<trkpt lat="46.1753733" lon="7.2017000"><ele></ele><time>2016-5-22T18:16:24Z</time></trkpt>
<trkpt lat="46.1753283" lon="7.2016517"><ele></ele><time>2016-5-22T18:16:27Z</time></trkpt>
<trkpt lat="46.1752867" lon="7.2016100"><ele></ele><time>2016-5-22T18:16:30Z</time></trkpt>
<trkpt lat="46.1752517" lon="7.2015533"><ele></ele><time>2016-5-22T18:16:33Z</time></trkpt>
<trkpt lat="46.1752283" lon="7.2015033"><ele></ele><time>2016-5-22T18:16:36Z</time></trkpt>
<trkpt lat="46.1752367" lon="7.2014367"><ele></ele><time>2016-5-22T18:16:39Z</time></trkpt>
<trkpt lat="46.1752683" lon="7.2013933"><ele></ele><time>2016-5-22T18:16:42Z</time></trkpt>
<trkpt lat="46.1753133" lon="7.2013583"><ele></ele><time>2016-5-22T18:16:45Z</time></trkpt>
<trkpt lat="46.1753767" lon="7.2013117"><ele></ele><time>2016-5-22T18:16:48Z</time></trkpt>
<trkpt lat="46.1754317" lon="7.2012900"><ele></ele><time>2016-5-22T18:16:51Z</time></trkpt>
<trkpt lat="46.1754717" lon="7.2012583"><ele></ele><time>2016-5-22T18:16:54Z</time></trkpt>
<trkpt lat="46.1754967" lon="7.2012100"><ele></ele><time>2016-5-22T18:16:57Z</time></trkpt>
<trkpt lat="46.1754983" lon="7.2011433"><ele></ele><time>2016-5-22T18:17:0Z</time></trkpt>
<trkpt lat="46.1754733" lon="7.2010767"><ele></ele><time>2016-5-22T18:17:3Z</time></trkpt>
<trkpt lat="46.1754283" lon="7.2010350"><ele></ele><time>2016-5-22T18:17:6Z</time></trkpt>
<trkpt lat="46.1753800" lon="7.2010067"><ele></ele><time>2016-5-22T18:17:9Z</time></trkpt>
<trkpt lat="46.1753283" lon="7.2009733"><ele></ele><time>2016-5-22T18:17:12Z</time></trkpt>
<trkpt lat="46.1752683" lon="7.2009267"><ele></ele><time>2016-5-22T18:17:15Z</time></trkpt>
<trkpt lat="46.1752117" lon="7.2008817"><ele></ele><time>2016-5-22T18:17:18Z</time></trkpt>
<trkpt lat="46.1751583" lon="7.2008333"><ele></ele><time>2016-5-22T18:17:21Z</time></trkpt>
<trkpt lat="46.1751033" lon="7.2007950"><ele></ele><time>2016-5-22T18:17:24Z</time></trkpt>
<trkpt lat="46.1750550" lon="7.2007550"><ele></ele><time>2016-5-22T18:17:27Z</time></trkpt>
<trkpt lat="46.1750033" lon="7.2007067"><ele></ele><time>2016-5-22T18:17:30Z</time></trkpt>
<trkpt lat="46.1749583" lon="7.2006700"><ele></ele><time>2016-5-22T18:17:33Z</time></trkpt>
<trkpt lat="46.1749033" lon="7.2006450"><ele></ele><time>2016-5-22T18:17:36Z</time></trkpt>
<trkpt lat="46.1748483" lon="7.2006017"><ele></ele><time>2016-5-22T18:17:39Z</time></trkpt>
<trkpt lat="46.1747933" lon="7.2005500"><ele></ele><time>2016-5-22T18:17:42Z</time></trkpt>
<trkpt lat="46.1747400" lon="7.2005017"><ele></ele><time>2016-5-22T18:17:45Z</time></trkpt>
<trkpt lat="46.1746867" lon="7.2004567"><ele></ele><time>2016-5-22T18:17:48Z</time></trkpt>
<trkpt lat="46.1746283" lon="7.2004033"><ele></ele><time>2016-5-22T18:17:51Z</time></trkpt>
<trkpt lat="46.1745700" lon="7.2003467"><ele></ele><time>2016-5-22T18:17:54Z</time></trkpt>
<trkpt lat="46.1745050" lon="7.2002867"><ele></ele><time>2016-5-22T18:17:57Z</time></trkpt>
<trkpt lat="46.1744450" lon="7.2002367"><ele></ele><time>2016-5-22T18:18:0Z</time></trkpt>
<trkpt lat="46.1743833" lon="7.2001917"><ele></ele><time>2016-5-22T18:18:3Z</time></trkpt>
<trkpt lat="46.1743183" lon="7.2001367"><ele></ele><time>2016-5-22T18:18:6Z</time></trkpt>
<trkpt lat="46.1742633" lon="7.2000783"><ele></ele><time>2016-5-22T18:18:9Z</time></trkpt>
<trkpt lat="46.1741950" lon="7.2000250"><ele></ele><time>2016-5-22T18:18:12Z</time></trkpt>
<trkpt lat="46.1741267" lon="7.1999733"><ele></ele><time>2016-5-22T18:18:15Z</time></trkpt>
<trkpt lat="46.1740617" lon="7.1999300"><ele></ele><time>2016-5-22T18:18:18Z</time></trkpt>
<trkpt lat="46.1739967" lon="7.1998800"><ele></ele><time>2016-5-22T18:18:21Z</time></trkpt>
<trkpt lat="46.1739317" lon="7.1998367"><ele></ele><time>2016-5-22T18:18:24Z</time></trkpt>
<trkpt lat="46.1738583" lon="7.1997867"><ele></ele><time>2016-5-22T18:18:27Z</time></trkpt>
<trkpt lat="46.1737867" lon="7.1997283"><ele></ele><time>2016-5-22T18:18:30Z</time></trkpt>
<trkpt lat="46.1737067" lon="7.1996717"><ele></ele><time>2016-5-22T18:18:33Z</time></trkpt>
<trkpt lat="46.1736400" lon="7.1996050"><ele></ele><time>2016-5-22T18:18:36Z</time></trkpt>
<trkpt lat="46.1735767" lon="7.1995583"><ele></ele><time>2016-5-22T18:18:39Z</time></trkpt>
<trkpt lat="46.1735117" lon="7.1995017"><ele></ele><time>2016-5-22T18:18:42Z</time></trkpt>
<trkpt lat="46.1734400" lon="7.1994467"><ele></ele><time>2016-5-22T18:18:45Z</time></trkpt>
<trkpt lat="46.1733800" lon="7.1994000"><ele></ele><time>2016-5-22T18:18:48Z</time></trkpt>
<trkpt lat="46.1733183" lon="7.1993467"><ele></ele><time>2016-5-22T18:18:51Z</time></trkpt>
<trkpt lat="46.1732450" lon="7.1992950"><ele></ele><time>2016-5-22T18:18:54Z</time></trkpt>
<trkpt lat="46.1731800" lon="7.1992350"><ele></ele><time>2016-5-22T18:18:57Z</time></trkpt>
<trkpt lat="46.1731150" lon="7.1991833"><ele></ele><time>2016-5-22T18:19:0Z</time></trkpt>
<trkpt lat="46.1730450" lon="7.1991317"><ele></ele><time>2016-5-22T18:19:3Z</time></trkpt>
<trkpt lat="46.1729750" lon="7.1990800"><ele></ele><time>2016-5-22T18:19:6Z</time></trkpt>
<trkpt lat="46.1729167" lon="7.1990167"><ele></ele><time>2016-5-22T18:19:9Z</time></trkpt>
<trkpt lat="46.1728417" lon="7.1989583"><ele></ele><time>2016-5-22T18:19:12Z</time></trkpt>
<trkpt lat="46.1727717" lon="7.1988917"><ele></ele><time>2016-5-22T18:19:15Z</time></trkpt>
<trkpt lat="46.1727083" lon="7.1988350"><ele></ele><time>2016-5-22T18:19:18Z</time></trkpt>
<trkpt lat="46.1726467" lon="7.1987817"><ele></ele><time>2016-5-22T18:19:21Z</time></trkpt>
<trkpt lat="46.1725850" lon="7.1987217"><ele></ele><time>2016-5-22T18:19:24Z</time></trkpt>
<trkpt lat="46.1725250" lon="7.1986650"><ele></ele><time>2016-5-22T18:19:27Z</time></trkpt>
<trkpt lat="46.1724617" lon="7.1986017"><ele></ele><time>2016-5-22T18:19:30Z</time></trkpt>
<trkpt lat="46.1723900" lon="7.1985483"><ele></ele><time>2016-5-22T18:19:33Z</time></trkpt>
<trkpt lat="46.1723150" lon="7.1984917"><ele></ele><time>2016-5-22T18:19:36Z</time></trkpt>
<trkpt lat="46.1722350" lon="7.1984433"><ele></ele><time>2016-5-22T18:19:39Z</time></trkpt>
<trkpt lat="46.1721433" lon="7.1983950"><ele></ele><time>2016-5-22T18:19:42Z</time></trkpt>
<trkpt lat="46.1720617" lon="7.1983417"><ele></ele><time>2016-5-22T18:19:45Z</time></trkpt>
<trkpt lat="46.1719867" lon="7.1982817"><ele></ele><time>2016-5-22T18:19:48Z</time></trkpt>
<trkpt lat="46.1719133" lon="7.1982200"><ele></ele><time>2016-5-22T18:19:51Z</time></trkpt>
<trkpt lat="46.1718367" lon="7.1981467"><ele></ele><time>2016-5-22T18:19:54Z</time></trkpt>
<trkpt lat="46.1717667" lon="7.1980850"><ele></ele><time>2016-5-22T18:19:57Z</time></trkpt>
<trkpt lat="46.1717017" lon="7.1980300"><ele></ele><time>2016-5-22T18:20:0Z</time></trkpt>
<trkpt lat="46.1716367" lon="7.1979717"><ele></ele><time>2016-5-22T18:20:3Z</time></trkpt>
<trkpt lat="46.1715667" lon="7.1979267"><ele></ele><time>2016-5-22T18:20:6Z</time></trkpt>
<trkpt lat="46.1714967" lon="7.1978783"><ele></ele><time>2016-5-22T18:20:9Z</time></trkpt>
<trkpt lat="46.1714383" lon="7.1978200"><ele></ele><time>2016-5-22T18:20:12Z</time></trkpt>
<trkpt lat="46.1713650" lon="7.1977700"><ele></ele><time>2016-5-22T18:20:15Z</time></trkpt>
<trkpt lat="46.1712983" lon="7.1977083"><ele></ele><time>2016-5-22T18:20:18Z</time></trkpt>
<trkpt lat="46.1712383" lon="7.1976517"><ele></ele><time>2016-5-22T18:20:21Z</time></trkpt>
<trkpt lat="46.1711717" lon="7.1975967"><ele></ele><time>2016-5-22T18:20:24Z</time></trkpt>
<trkpt lat="46.1711050" lon="7.1975383"><ele></ele><time>2016-5-22T18:20:27Z</time></trkpt>
<trkpt lat="46.1710350" lon="7.1974800"><ele></ele><time>2016-5-22T18:20:30Z</time></trkpt>
<trkpt lat="46.1709700" lon="7.1974250"><ele></ele><time>2016-5-22T18:20:33Z</time></trkpt>
<trkpt lat="46.1709017" lon="7.1973683"><ele></ele><time>2016-5-22T18:20:36Z</time></trkpt>
<trkpt lat="46.1708417" lon="7.1973183"><ele></ele><time>2016-5-22T18:20:39Z</time></trkpt>
<trkpt lat="46.1707783" lon="7.1972667"><ele></ele><time>2016-5-22T18:20:42Z</time></trkpt>
<trkpt lat="46.1707167" lon="7.1972100"><ele></ele><time>2016-5-22T18:20:45Z</time></trkpt>
<trkpt lat="46.1706550" lon="7.1971583"><ele></ele><time>2016-5-22T18:20:48Z</time></trkpt>
<trkpt lat="46.1705917" lon="7.1971100"><ele></ele><time>2016-5-22T18:20:51Z</time></trkpt>
<trkpt lat="46.1705367" lon="7.1970567"><ele></ele><time>2016-5-22T18:20:54Z</time></trkpt>
<trkpt lat="46.1704817" lon="7.1970050"><ele></ele><time>2016-5-22T18:20:57Z</time></trkpt>
<trkpt lat="46.1704317" lon="7.1969567"><ele></ele><time>2016-5-22T18:21:0Z</time></trkpt>
<trkpt lat="46.1703817" lon="7.1969083"><ele></ele><time>2016-5-22T18:21:3Z</time></trkpt>
<trkpt lat="46.1703283" lon="7.1968600"><ele></ele><time>2016-5-22T18:21:6Z</time></trkpt>
<trkpt lat="46.1702717" lon="7.1968133"><ele></ele><time>2016-5-22T18:21:9Z</time></trkpt>
<trkpt lat="46.1702250" lon="7.1967717"><ele></ele><time>2016-5-22T18:21:12Z</time></trkpt>
<trkpt lat="46.1701783" lon="7.1967250"><ele></ele><time>2016-5-22T18:21:15Z</time></trkpt>
<trkpt lat="46.1701350" lon="7.1966817"><ele></ele><time>2016-5-22T18:21:18Z</time></trkpt>
<trkpt lat="46.1701233" lon="7.1966017"><ele></ele><time>2016-5-22T18:21:21Z</time></trkpt>
<trkpt lat="46.1701250" lon="7.1965200"><ele></ele><time>2016-5-22T18:21:24Z</time></trkpt>
<trkpt lat="46.1701467" lon="7.1964617"><ele></ele><time>2016-5-22T18:21:27Z</time></trkpt>
<trkpt lat="46.1701817" lon="7.1964117"><ele></ele><time>2016-5-22T18:21:30Z</time></trkpt>
<trkpt lat="46.1702183" lon="7.1963600"><ele></ele><time>2016-5-22T18:21:33Z</time></trkpt>
<trkpt lat="46.1702633" lon="7.1962967"><ele></ele><time>2016-5-22T18:21:36Z</time></trkpt>
<trkpt lat="46.1702983" lon="7.1962283"><ele></ele><time>2016-5-22T18:21:39Z</time></trkpt>
<trkpt lat="46.1703317" lon="7.1961500"><ele></ele><time>2016-5-22T18:21:42Z</time></trkpt>
<trkpt lat="46.1703650" lon="7.1960850"><ele></ele><time>2016-5-22T18:21:45Z</time></trkpt>
<trkpt lat="46.1703933" lon="7.1960467"><ele></ele><time>2016-5-22T18:21:48Z</time></trkpt>
<trkpt lat="46.1704233" lon="7.1959800"><ele></ele><time>2016-5-22T18:21:51Z</time></trkpt>
<trkpt lat="46.1704617" lon="7.1959183"><ele></ele><time>2016-5-22T18:21:54Z</time></trkpt>
<trkpt lat="46.1704933" lon="7.1958483"><ele></ele><time>2016-5-22T18:21:57Z</time></trkpt>
<trkpt lat="46.1705217" lon="7.1957883"><ele></ele><time>2016-5-22T18:22:0Z</time></trkpt>
<trkpt lat="46.1705550" lon="7.1957283"><ele></ele><time>2016-5-22T18:22:3Z</time></trkpt>
<trkpt lat="46.1705867" lon="7.1956767"><ele></ele><time>2016-5-22T18:22:6Z</time></trkpt>
<trkpt lat="46.1706250" lon="7.1956217"><ele></ele><time>2016-5-22T18:22:9Z</time></trkpt>
<trkpt lat="46.1706500" lon="7.1955633"><ele></ele><time>2016-5-22T18:22:12Z</time></trkpt>
<trkpt lat="46.1706817" lon="7.1955033"><ele></ele><time>2016-5-22T18:22:15Z</time></trkpt>
<trkpt lat="46.1707100" lon="7.1954383"><ele></ele><time>2016-5-22T18:22:18Z</time></trkpt>
<trkpt lat="46.1707383" lon="7.1953817"><ele></ele><time>2016-5-22T18:22:21Z</time></trkpt>
<trkpt lat="46.1707517" lon="7.1953200"><ele></ele><time>2016-5-22T18:22:24Z</time></trkpt>
<trkpt lat="46.1707733" lon="7.1952583"><ele></ele><time>2016-5-22T18:22:27Z</time></trkpt>
<trkpt lat="46.1708017" lon="7.1952067"><ele></ele><time>2016-5-22T18:22:30Z</time></trkpt>
<trkpt lat="46.1708350" lon="7.1951567"><ele></ele><time>2016-5-22T18:22:33Z</time></trkpt>
<trkpt lat="46.1708700" lon="7.1950967"><ele></ele><time>2016-5-22T18:22:36Z</time></trkpt>
<trkpt lat="46.1708950" lon="7.1950483"><ele></ele><time>2016-5-22T18:22:39Z</time></trkpt>
<trkpt lat="46.1709317" lon="7.1950033"><ele></ele><time>2016-5-22T18:22:42Z</time></trkpt>
<trkpt lat="46.1709500" lon="7.1949533"><ele></ele><time>2016-5-22T18:22:45Z</time></trkpt>
<trkpt lat="46.1709633" lon="7.1949100"><ele></ele><time>2016-5-22T18:22:48Z</time></trkpt>
<trkpt lat="46.1709750" lon="7.1948717"><ele></ele><time>2016-5-22T18:22:51Z</time></trkpt>
<trkpt lat="46.1709600" lon="7.1948317"><ele></ele><time>2016-5-22T18:22:54Z</time></trkpt>
<trkpt lat="46.1709233" lon="7.1948200"><ele></ele><time>2016-5-22T18:22:57Z</time></trkpt>
<trkpt lat="46.1708867" lon="7.1948117"><ele></ele><time>2016-5-22T18:23:0Z</time></trkpt>
<trkpt lat="46.1708483" lon="7.1947950"><ele></ele><time>2016-5-22T18:23:3Z</time></trkpt>
<trkpt lat="46.1708083" lon="7.1947750"><ele></ele><time>2016-5-22T18:23:6Z</time></trkpt>
<trkpt lat="46.1707633" lon="7.1947483"><ele></ele><time>2016-5-22T18:23:9Z</time></trkpt>
<trkpt lat="46.1707200" lon="7.1947033"><ele></ele><time>2016-5-22T18:23:12Z</time></trkpt>
<trkpt lat="46.1706817" lon="7.1946650"><ele></ele><time>2016-5-22T18:23:15Z</time></trkpt>
<trkpt lat="46.1706400" lon="7.1946417"><ele></ele><time>2016-5-22T18:23:18Z</time></trkpt>
<trkpt lat="46.1705933" lon="7.1946033"><ele></ele><time>2016-5-22T18:23:21Z</time></trkpt>
<trkpt lat="46.1705450" lon="7.1945650"><ele></ele><time>2016-5-22T18:23:24Z</time></trkpt>
<trkpt lat="46.1704917" lon="7.1945283"><ele></ele><time>2016-5-22T18:23:27Z</time></trkpt>
<trkpt lat="46.1704383" lon="7.1945033"><ele></ele><time>2016-5-22T18:23:30Z</time></trkpt>
<trkpt lat="46.1703933" lon="7.1944617"><ele></ele><time>2016-5-22T18:23:33Z</time></trkpt>
<trkpt lat="46.1703483" lon="7.1944150"><ele></ele><time>2016-5-22T18:23:36Z</time></trkpt>
<trkpt lat="46.1702983" lon="7.1943533"><ele></ele><time>2016-5-22T18:23:39Z</time></trkpt>
<trkpt lat="46.1702517" lon="7.1943133"><ele></ele><time>2016-5-22T18:23:42Z</time></trkpt>
<trkpt lat="46.1702000" lon="7.1942633"><ele></ele><time>2016-5-22T18:23:45Z</time></trkpt>
<trkpt lat="46.1701417" lon="7.1942200"><ele></ele><time>2016-5-22T18:23:48Z</time></trkpt>
<trkpt lat="46.1700983" lon="7.1941517"><ele></ele><time>2016-5-22T18:23:51Z</time></trkpt>
<trkpt lat="46.1700500" lon="7.1941067"><ele></ele><time>2016-5-22T18:23:54Z</time></trkpt>
<trkpt lat="46.1699983" lon="7.1940650"><ele></ele><time>2016-5-22T18:23:57Z</time></trkpt>
<trkpt lat="46.1699517" lon="7.1940233"><ele></ele><time>2016-5-22T18:24:0Z</time></trkpt>
<trkpt lat="46.1699033" lon="7.1939717"><ele></ele><time>2016-5-22T18:24:3Z</time></trkpt>
<trkpt lat="46.1698567" lon="7.1939283"><ele></ele><time>2016-5-22T18:24:6Z</time></trkpt>
<trkpt lat="46.1698067" lon="7.1938850"><ele></ele><time>2016-5-22T18:24:9Z</time></trkpt>
<trkpt lat="46.1697850" lon="7.1938267"><ele></ele><time>2016-5-22T18:24:12Z</time></trkpt>
<trkpt lat="46.1697817" lon="7.1937717"><ele></ele><time>2016-5-22T18:24:15Z</time></trkpt>
<trkpt lat="46.1697983" lon="7.1937150"><ele></ele><time>2016-5-22T18:24:18Z</time></trkpt>
<trkpt lat="46.1698267" lon="7.1936600"><ele></ele><time>2016-5-22T18:24:21Z</time></trkpt>
<trkpt lat="46.1698583" lon="7.1936100"><ele></ele><time>2016-5-22T18:24:24Z</time></trkpt>
<trkpt lat="46.1698900" lon="7.1935450"><ele></ele><time>2016-5-22T18:24:27Z</time></trkpt>
<trkpt lat="46.1699183" lon="7.1934850"><ele></ele><time>2016-5-22T18:24:30Z</time></trkpt>
<trkpt lat="46.1699467" lon="7.1934283"><ele></ele><time>2016-5-22T18:24:33Z</time></trkpt>
<trkpt lat="46.1699783" lon="7.1933700"><ele></ele><time>2016-5-22T18:24:36Z</time></trkpt>
<trkpt lat="46.1700067" lon="7.1933233"><ele></ele><time>2016-5-22T18:24:39Z</time></trkpt>
<trkpt lat="46.1700350" lon="7.1932733"><ele></ele><time>2016-5-22T18:24:42Z</time></trkpt>
<trkpt lat="46.1700733" lon="7.1932183"><ele></ele><time>2016-5-22T18:24:45Z</time></trkpt>
<trkpt lat="46.1701033" lon="7.1931533"><ele></ele><time>2016-5-22T18:24:48Z</time></trkpt>
<trkpt lat="46.1701300" lon="7.1931000"><ele></ele><time>2016-5-22T18:24:51Z</time></trkpt>
<trkpt lat="46.1701533" lon="7.1930517"><ele></ele><time>2016-5-22T18:24:54Z</time></trkpt>
<trkpt lat="46.1701867" lon="7.1929850"><ele></ele><time>2016-5-22T18:24:57Z</time></trkpt>
<trkpt lat="46.1702150" lon="7.1929200"><ele></ele><time>2016-5-22T18:25:0Z</time></trkpt>
<trkpt lat="46.1702533" lon="7.1928733"><ele></ele><time>2016-5-22T18:25:3Z</time></trkpt>
<trkpt lat="46.1702850" lon="7.1928217"><ele></ele><time>2016-5-22T18:25:6Z</time></trkpt>
<trkpt lat="46.1703100" lon="7.1927683"><ele></ele><time>2016-5-22T18:25:9Z</time></trkpt>
<trkpt lat="46.1703367" lon="7.1927067"><ele></ele><time>2016-5-22T18:25:12Z</time></trkpt>
<trkpt lat="46.1703683" lon="7.1926717"><ele></ele><time>2016-5-22T18:25:15Z</time></trkpt>
<trkpt lat="46.1704050" lon="7.1926300"><ele></ele><time>2016-5-22T18:25:18Z</time></trkpt>
<trkpt lat="46.1704267" lon="7.1925800"><ele></ele><time>2016-5-22T18:25:21Z</time></trkpt>
<trkpt lat="46.1704517" lon="7.1925300"><ele></ele><time>2016-5-22T18:25:24Z</time></trkpt>
<trkpt lat="46.1704683" lon="7.1924767"><ele></ele><time>2016-5-22T18:25:27Z</time></trkpt>
<trkpt lat="46.1704517" lon="7.1924350"><ele></ele><time>2016-5-22T18:25:30Z</time></trkpt>
<trkpt lat="46.1704200" lon="7.1924150"><ele></ele><time>2016-5-22T18:25:33Z</time></trkpt>
<trkpt lat="46.1703883" lon="7.1924167"><ele></ele><time>2016-5-22T18:25:36Z</time></trkpt>
<trkpt lat="46.1703667" lon="7.1923967"><ele></ele><time>2016-5-22T18:25:39Z</time></trkpt>
<trkpt lat="46.1703600" lon="7.1923583"><ele></ele><time>2016-5-22T18:25:42Z</time></trkpt>
<trkpt lat="46.1703567" lon="7.1923200"><ele></ele><time>2016-5-22T18:25:45Z</time></trkpt>
<trkpt lat="46.1703667" lon="7.1923000"><ele></ele><time>2016-5-22T18:25:48Z</time></trkpt>
<trkpt lat="46.1703750" lon="7.1922900"><ele></ele><time>2016-5-22T18:25:51Z</time></trkpt>
<trkpt lat="46.1703767" lon="7.1922883"><ele></ele><time>2016-5-22T18:25:54Z</time></trkpt>
<trkpt lat="46.1703767" lon="7.1922850"><ele></ele><time>2016-5-22T18:25:57Z</time></trkpt>
<trkpt lat="46.1703767" lon="7.1922833"><ele></ele><time>2016-5-22T18:26:0Z</time></trkpt>
<trkpt lat="46.1703733" lon="7.1922933"><ele></ele><time>2016-5-22T18:26:3Z</time></trkpt>
<trkpt lat="46.1703733" lon="7.1922933"><ele></ele><time>2016-5-22T18:26:6Z</time></trkpt>
<trkpt lat="46.1703650" lon="7.1923017"><ele></ele><time>2016-5-22T18:26:9Z</time></trkpt>
<trkpt lat="46.1703650" lon="7.1923017"><ele></ele><time>2016-5-22T18:26:12Z</time></trkpt>
<trkpt lat="46.1703650" lon="7.1923017"><ele></ele><time>2016-5-22T18:26:15Z</time></trkpt>
<trkpt lat="46.1703650" lon="7.1923017"><ele></ele><time>2016-5-22T18:26:18Z</time></trkpt>
<trkpt lat="46.1703650" lon="7.1923017"><ele></ele><time>2016-5-22T18:26:21Z</time></trkpt>
<trkpt lat="46.1703650" lon="7.1923017"><ele></ele><time>2016-5-22T18:26:24Z</time></trkpt>
<trkpt lat="46.1703650" lon="7.1923017"><ele></ele><time>2016-5-22T18:26:27Z</time></trkpt>
</trkseg></trk></gpx>